<?xml version="1.0"?>
<gpx
 version="1.1"
 creator="Satmap Active 20"
 xmlns:xsi="http://www.w3.org/2001/XMLSchema-instance"
 xmlns="http://www.topografix.com/GPX/1/1"
 xmlns:satmap="http://www.satmap.com/updates/xmlschemas/GpxExtensions/v2/GpxExtensions_v2.xsd"
 xsi:schemaLocation="http://www.topografix.com/GPX/1/1 http://www.topografix.com/GPX/1/1/gpx.xsd">
<metadata>
<time>2022-04-12T14:17:54Z</time>
<extensions>
<satmap:platform>43</satmap:platform>
<satmap:software version="3.13.037">SM15.exe</satmap:software>
<satmap:username>pieter metz</satmap:username>
<satmap:network_ids>
<satmap:network_id type="wifi">00-23-A7-CA-E3-5C</satmap:network_id>
<satmap:network_id type="bluetooth">80-BB-EB-78-4F-29</satmap:network_id>
</satmap:network_ids>
<satmap:snap_type>simple</satmap:snap_type>
</extensions>
</metadata>
<trk>
<name>2022-04-12_1417</name>
<desc>Track 1</desc>
<number>1</number>
<trkseg>
<trkpt lat="52.031437" lon="05.785088"><ele>57</ele><time>2022-04-12T14:17:54Z</time><name>PT1</name></trkpt>
<trkpt lat="52.031439" lon="05.785087"><ele>56.7</ele><time>2022-04-12T14:17:59Z</time><name>PT2</name></trkpt>
<trkpt lat="52.031448" lon="05.785086"><ele>56.7</ele><time>2022-04-12T14:17:59Z</time><name>PT3</name></trkpt>
<trkpt lat="52.031455" lon="05.785086"><ele>56.7</ele><time>2022-04-12T14:18:00Z</time><name>PT4</name></trkpt>
<trkpt lat="52.031464" lon="05.785086"><ele>56.9</ele><time>2022-04-12T14:18:01Z</time><name>PT5</name></trkpt>
<trkpt lat="52.031478" lon="05.785082"><ele>56.7</ele><time>2022-04-12T14:18:02Z</time><name>PT6</name></trkpt>
<trkpt lat="52.031486" lon="05.785080"><ele>56.7</ele><time>2022-04-12T14:18:03Z</time><name>PT7</name></trkpt>
<trkpt lat="52.031501" lon="05.785079"><ele>56.6</ele><time>2022-04-12T14:18:04Z</time><name>PT8</name></trkpt>
<trkpt lat="52.031511" lon="05.785070"><ele>56.6</ele><time>2022-04-12T14:18:05Z</time><name>PT9</name></trkpt>
<trkpt lat="52.031522" lon="05.785065"><ele>56.4</ele><time>2022-04-12T14:18:06Z</time><name>PT10</name></trkpt>
<trkpt lat="52.031528" lon="05.785064"><ele>56.3</ele><time>2022-04-12T14:18:07Z</time><name>PT11</name></trkpt>
<trkpt lat="52.031539" lon="05.785062"><ele>56.3</ele><time>2022-04-12T14:18:08Z</time><name>PT12</name></trkpt>
<trkpt lat="52.031553" lon="05.785064"><ele>56.1</ele><time>2022-04-12T14:18:09Z</time><name>PT13</name></trkpt>
<trkpt lat="52.031561" lon="05.785066"><ele>56.2</ele><time>2022-04-12T14:18:10Z</time><name>PT14</name></trkpt>
<trkpt lat="52.031570" lon="05.785067"><ele>56.2</ele><time>2022-04-12T14:18:11Z</time><name>PT15</name></trkpt>
<trkpt lat="52.031580" lon="05.785068"><ele>56.2</ele><time>2022-04-12T14:18:12Z</time><name>PT16</name></trkpt>
<trkpt lat="52.031594" lon="05.785067"><ele>56.4</ele><time>2022-04-12T14:18:13Z</time><name>PT17</name></trkpt>
<trkpt lat="52.031611" lon="05.785064"><ele>56.6</ele><time>2022-04-12T14:18:14Z</time><name>PT18</name></trkpt>
<trkpt lat="52.031620" lon="05.785059"><ele>56.6</ele><time>2022-04-12T14:18:15Z</time><name>PT19</name></trkpt>
<trkpt lat="52.031628" lon="05.785051"><ele>56.2</ele><time>2022-04-12T14:18:16Z</time><name>PT20</name></trkpt>
<trkpt lat="52.031640" lon="05.785049"><ele>56.2</ele><time>2022-04-12T14:18:17Z</time><name>PT21</name></trkpt>
<trkpt lat="52.031650" lon="05.785053"><ele>56.1</ele><time>2022-04-12T14:18:19Z</time><name>PT22</name></trkpt>
<trkpt lat="52.031664" lon="05.785053"><ele>56.1</ele><time>2022-04-12T14:18:19Z</time><name>PT23</name></trkpt>
<trkpt lat="52.031674" lon="05.785049"><ele>56</ele><time>2022-04-12T14:18:20Z</time><name>PT24</name></trkpt>
<trkpt lat="52.031684" lon="05.785047"><ele>56.1</ele><time>2022-04-12T14:18:21Z</time><name>PT25</name></trkpt>
<trkpt lat="52.031691" lon="05.785051"><ele>56.2</ele><time>2022-04-12T14:18:22Z</time><name>PT26</name></trkpt>
<trkpt lat="52.031702" lon="05.785055"><ele>56.1</ele><time>2022-04-12T14:18:23Z</time><name>PT27</name></trkpt>
<trkpt lat="52.031716" lon="05.785060"><ele>56.2</ele><time>2022-04-12T14:18:24Z</time><name>PT28</name></trkpt>
<trkpt lat="52.031724" lon="05.785055"><ele>56.2</ele><time>2022-04-12T14:18:25Z</time><name>PT29</name></trkpt>
<trkpt lat="52.031738" lon="05.785048"><ele>56.2</ele><time>2022-04-12T14:18:26Z</time><name>PT30</name></trkpt>
<trkpt lat="52.031746" lon="05.785041"><ele>56.3</ele><time>2022-04-12T14:18:27Z</time><name>PT31</name></trkpt>
<trkpt lat="52.031755" lon="05.785041"><ele>56.4</ele><time>2022-04-12T14:18:29Z</time><name>PT32</name></trkpt>
<trkpt lat="52.031764" lon="05.785043"><ele>56.3</ele><time>2022-04-12T14:18:29Z</time><name>PT33</name></trkpt>
<trkpt lat="52.031773" lon="05.785044"><ele>56.3</ele><time>2022-04-12T14:18:30Z</time><name>PT34</name></trkpt>
<trkpt lat="52.031785" lon="05.785045"><ele>56.3</ele><time>2022-04-12T14:18:31Z</time><name>PT35</name></trkpt>
<trkpt lat="52.031794" lon="05.785042"><ele>56.2</ele><time>2022-04-12T14:18:32Z</time><name>PT36</name></trkpt>
<trkpt lat="52.031803" lon="05.785038"><ele>56.3</ele><time>2022-04-12T14:18:33Z</time><name>PT37</name></trkpt>
<trkpt lat="52.031809" lon="05.785033"><ele>56.3</ele><time>2022-04-12T14:18:34Z</time><name>PT38</name></trkpt>
<trkpt lat="52.031818" lon="05.785033"><ele>56.2</ele><time>2022-04-12T14:18:35Z</time><name>PT39</name></trkpt>
<trkpt lat="52.031827" lon="05.785037"><ele>56.3</ele><time>2022-04-12T14:18:36Z</time><name>PT40</name></trkpt>
<trkpt lat="52.031839" lon="05.785036"><ele>56.3</ele><time>2022-04-12T14:18:37Z</time><name>PT41</name></trkpt>
<trkpt lat="52.031850" lon="05.785033"><ele>56.4</ele><time>2022-04-12T14:18:39Z</time><name>PT42</name></trkpt>
<trkpt lat="52.031865" lon="05.785029"><ele>56.4</ele><time>2022-04-12T14:18:39Z</time><name>PT43</name></trkpt>
<trkpt lat="52.031875" lon="05.785027"><ele>56.4</ele><time>2022-04-12T14:18:40Z</time><name>PT44</name></trkpt>
<trkpt lat="52.031888" lon="05.785022"><ele>56.4</ele><time>2022-04-12T14:18:41Z</time><name>PT45</name></trkpt>
<trkpt lat="52.031901" lon="05.785024"><ele>56.6</ele><time>2022-04-12T14:18:42Z</time><name>PT46</name></trkpt>
<trkpt lat="52.031915" lon="05.785020"><ele>56.5</ele><time>2022-04-12T14:18:43Z</time><name>PT47</name></trkpt>
<trkpt lat="52.031925" lon="05.785011"><ele>56.6</ele><time>2022-04-12T14:18:44Z</time><name>PT48</name></trkpt>
<trkpt lat="52.031943" lon="05.785012"><ele>56.6</ele><time>2022-04-12T14:18:45Z</time><name>PT49</name></trkpt>
<trkpt lat="52.031953" lon="05.785003"><ele>56.5</ele><time>2022-04-12T14:18:46Z</time><name>PT50</name></trkpt>
<trkpt lat="52.031961" lon="05.784999"><ele>56.4</ele><time>2022-04-12T14:18:47Z</time><name>PT51</name></trkpt>
<trkpt lat="52.031971" lon="05.784989"><ele>56.4</ele><time>2022-04-12T14:18:49Z</time><name>PT52</name></trkpt>
<trkpt lat="52.031981" lon="05.784979"><ele>56.3</ele><time>2022-04-12T14:18:49Z</time><name>PT53</name></trkpt>
<trkpt lat="52.031991" lon="05.784959"><ele>56.3</ele><time>2022-04-12T14:18:50Z</time><name>PT54</name></trkpt>
<trkpt lat="52.031998" lon="05.784947"><ele>56.4</ele><time>2022-04-12T14:18:51Z</time><name>PT55</name></trkpt>
<trkpt lat="52.032006" lon="05.784938"><ele>56.4</ele><time>2022-04-12T14:18:52Z</time><name>PT56</name></trkpt>
<trkpt lat="52.032017" lon="05.784929"><ele>56.6</ele><time>2022-04-12T14:18:53Z</time><name>PT57</name></trkpt>
<trkpt lat="52.032027" lon="05.784926"><ele>56.6</ele><time>2022-04-12T14:18:54Z</time><name>PT58</name></trkpt>
<trkpt lat="52.032037" lon="05.784934"><ele>56.6</ele><time>2022-04-12T14:18:55Z</time><name>PT59</name></trkpt>
<trkpt lat="52.032049" lon="05.784935"><ele>56.7</ele><time>2022-04-12T14:18:56Z</time><name>PT60</name></trkpt>
<trkpt lat="52.032059" lon="05.784934"><ele>56.6</ele><time>2022-04-12T14:18:57Z</time><name>PT61</name></trkpt>
<trkpt lat="52.032068" lon="05.784939"><ele>56.6</ele><time>2022-04-12T14:18:59Z</time><name>PT62</name></trkpt>
<trkpt lat="52.032080" lon="05.784943"><ele>56.7</ele><time>2022-04-12T14:18:59Z</time><name>PT63</name></trkpt>
<trkpt lat="52.032089" lon="05.784949"><ele>56.7</ele><time>2022-04-12T14:19:00Z</time><name>PT64</name></trkpt>
<trkpt lat="52.032099" lon="05.784952"><ele>56.8</ele><time>2022-04-12T14:19:01Z</time><name>PT65</name></trkpt>
<trkpt lat="52.032107" lon="05.784954"><ele>57</ele><time>2022-04-12T14:19:02Z</time><name>PT66</name></trkpt>
<trkpt lat="52.032118" lon="05.784957"><ele>56.9</ele><time>2022-04-12T14:19:03Z</time><name>PT67</name></trkpt>
<trkpt lat="52.032132" lon="05.784962"><ele>57</ele><time>2022-04-12T14:19:04Z</time><name>PT68</name></trkpt>
<trkpt lat="52.032148" lon="05.784962"><ele>57.2</ele><time>2022-04-12T14:19:05Z</time><name>PT69</name></trkpt>
<trkpt lat="52.032158" lon="05.784961"><ele>57</ele><time>2022-04-12T14:19:06Z</time><name>PT70</name></trkpt>
<trkpt lat="52.032164" lon="05.784959"><ele>57</ele><time>2022-04-12T14:19:07Z</time><name>PT71</name></trkpt>
<trkpt lat="52.032170" lon="05.784962"><ele>57.1</ele><time>2022-04-12T14:19:09Z</time><name>PT72</name></trkpt>
<trkpt lat="52.032180" lon="05.784955"><ele>57.1</ele><time>2022-04-12T14:19:09Z</time><name>PT73</name></trkpt>
<trkpt lat="52.032192" lon="05.784949"><ele>57</ele><time>2022-04-12T14:19:10Z</time><name>PT74</name></trkpt>
<trkpt lat="52.032196" lon="05.784953"><ele>57</ele><time>2022-04-12T14:19:11Z</time><name>PT75</name></trkpt>
<trkpt lat="52.032197" lon="05.784957"><ele>56.9</ele><time>2022-04-12T14:19:12Z</time><name>PT76</name></trkpt>
<trkpt lat="52.032200" lon="05.784956"><ele>56.9</ele><time>2022-04-12T14:19:13Z</time><name>PT77</name></trkpt>
<trkpt lat="52.032201" lon="05.784956"><ele>57</ele><time>2022-04-12T14:19:14Z</time><name>PT78</name></trkpt>
<trkpt lat="52.032205" lon="05.784962"><ele>56.9</ele><time>2022-04-12T14:19:15Z</time><name>PT79</name></trkpt>
<trkpt lat="52.032215" lon="05.784969"><ele>56.9</ele><time>2022-04-12T14:19:16Z</time><name>PT80</name></trkpt>
<trkpt lat="52.032225" lon="05.784967"><ele>56.8</ele><time>2022-04-12T14:19:17Z</time><name>PT81</name></trkpt>
<trkpt lat="52.032232" lon="05.784956"><ele>56.7</ele><time>2022-04-12T14:19:19Z</time><name>PT82</name></trkpt>
<trkpt lat="52.032240" lon="05.784952"><ele>56.7</ele><time>2022-04-12T14:19:19Z</time><name>PT83</name></trkpt>
<trkpt lat="52.032252" lon="05.784944"><ele>56.8</ele><time>2022-04-12T14:19:20Z</time><name>PT84</name></trkpt>
<trkpt lat="52.032266" lon="05.784947"><ele>57.1</ele><time>2022-04-12T14:19:21Z</time><name>PT85</name></trkpt>
<trkpt lat="52.032278" lon="05.784942"><ele>57.1</ele><time>2022-04-12T14:19:23Z</time><name>PT86</name></trkpt>
<trkpt lat="52.032296" lon="05.784939"><ele>57.2</ele><time>2022-04-12T14:19:23Z</time><name>PT87</name></trkpt>
<trkpt lat="52.032312" lon="05.784933"><ele>57.1</ele><time>2022-04-12T14:19:24Z</time><name>PT88</name></trkpt>
<trkpt lat="52.032320" lon="05.784928"><ele>57.1</ele><time>2022-04-12T14:19:25Z</time><name>PT89</name></trkpt>
<trkpt lat="52.032331" lon="05.784928"><ele>56.9</ele><time>2022-04-12T14:19:26Z</time><name>PT90</name></trkpt>
<trkpt lat="52.032344" lon="05.784921"><ele>57</ele><time>2022-04-12T14:19:27Z</time><name>PT91</name></trkpt>
<trkpt lat="52.032352" lon="05.784911"><ele>56.8</ele><time>2022-04-12T14:19:29Z</time><name>PT92</name></trkpt>
<trkpt lat="52.032356" lon="05.784910"><ele>56.9</ele><time>2022-04-12T14:19:29Z</time><name>PT93</name></trkpt>
<trkpt lat="52.032367" lon="05.784905"><ele>57</ele><time>2022-04-12T14:19:31Z</time><name>PT94</name></trkpt>
<trkpt lat="52.032376" lon="05.784905"><ele>57</ele><time>2022-04-12T14:19:31Z</time><name>PT95</name></trkpt>
<trkpt lat="52.032388" lon="05.784904"><ele>57</ele><time>2022-04-12T14:19:32Z</time><name>PT96</name></trkpt>
<trkpt lat="52.032397" lon="05.784899"><ele>57.2</ele><time>2022-04-12T14:19:33Z</time><name>PT97</name></trkpt>
<trkpt lat="52.032409" lon="05.784901"><ele>57.2</ele><time>2022-04-12T14:19:34Z</time><name>PT98</name></trkpt>
<trkpt lat="52.032425" lon="05.784906"><ele>57.1</ele><time>2022-04-12T14:19:35Z</time><name>PT99</name></trkpt>
<trkpt lat="52.032438" lon="05.784905"><ele>57</ele><time>2022-04-12T14:19:37Z</time><name>PT100</name></trkpt>
<trkpt lat="52.032448" lon="05.784904"><ele>57</ele><time>2022-04-12T14:19:37Z</time><name>PT101</name></trkpt>
<trkpt lat="52.032455" lon="05.784889"><ele>56.8</ele><time>2022-04-12T14:19:38Z</time><name>PT102</name></trkpt>
<trkpt lat="52.032463" lon="05.784892"><ele>56.8</ele><time>2022-04-12T14:19:39Z</time><name>PT103</name></trkpt>
<trkpt lat="52.032471" lon="05.784895"><ele>56.8</ele><time>2022-04-12T14:19:40Z</time><name>PT104</name></trkpt>
<trkpt lat="52.032480" lon="05.784896"><ele>56.8</ele><time>2022-04-12T14:19:41Z</time><name>PT105</name></trkpt>
<trkpt lat="52.032492" lon="05.784895"><ele>56.7</ele><time>2022-04-12T14:19:42Z</time><name>PT106</name></trkpt>
<trkpt lat="52.032500" lon="05.784887"><ele>56.7</ele><time>2022-04-12T14:19:43Z</time><name>PT107</name></trkpt>
<trkpt lat="52.032511" lon="05.784881"><ele>56.8</ele><time>2022-04-12T14:19:44Z</time><name>PT108</name></trkpt>
<trkpt lat="52.032518" lon="05.784875"><ele>56.7</ele><time>2022-04-12T14:19:45Z</time><name>PT109</name></trkpt>
<trkpt lat="52.032521" lon="05.784868"><ele>56.7</ele><time>2022-04-12T14:19:46Z</time><name>PT110</name></trkpt>
<trkpt lat="52.032532" lon="05.784869"><ele>56.8</ele><time>2022-04-12T14:19:47Z</time><name>PT111</name></trkpt>
<trkpt lat="52.032541" lon="05.784873"><ele>56.8</ele><time>2022-04-12T14:19:48Z</time><name>PT112</name></trkpt>
<trkpt lat="52.032550" lon="05.784863"><ele>56.7</ele><time>2022-04-12T14:19:49Z</time><name>PT113</name></trkpt>
<trkpt lat="52.032561" lon="05.784864"><ele>56.7</ele><time>2022-04-12T14:19:50Z</time><name>PT114</name></trkpt>
<trkpt lat="52.032576" lon="05.784849"><ele>56.9</ele><time>2022-04-12T14:19:51Z</time><name>PT115</name></trkpt>
<trkpt lat="52.032586" lon="05.784842"><ele>56.8</ele><time>2022-04-12T14:19:52Z</time><name>PT116</name></trkpt>
<trkpt lat="52.032594" lon="05.784840"><ele>56.8</ele><time>2022-04-12T14:19:53Z</time><name>PT117</name></trkpt>
<trkpt lat="52.032594" lon="05.784841"><ele>56.8</ele><time>2022-04-12T14:19:54Z</time><name>PT118</name></trkpt>
<trkpt lat="52.032606" lon="05.784840"><ele>56.7</ele><time>2022-04-12T14:19:55Z</time><name>PT119</name></trkpt>
<trkpt lat="52.032620" lon="05.784833"><ele>56.7</ele><time>2022-04-12T14:19:56Z</time><name>PT120</name></trkpt>
<trkpt lat="52.032633" lon="05.784824"><ele>56.7</ele><time>2022-04-12T14:19:57Z</time><name>PT121</name></trkpt>
<trkpt lat="52.032642" lon="05.784818"><ele>56.7</ele><time>2022-04-12T14:19:58Z</time><name>PT122</name></trkpt>
<trkpt lat="52.032647" lon="05.784823"><ele>56.8</ele><time>2022-04-12T14:19:59Z</time><name>PT123</name></trkpt>
<trkpt lat="52.032656" lon="05.784831"><ele>56.9</ele><time>2022-04-12T14:20:00Z</time><name>PT124</name></trkpt>
<trkpt lat="52.032665" lon="05.784833"><ele>56.8</ele><time>2022-04-12T14:20:01Z</time><name>PT125</name></trkpt>
<trkpt lat="52.032676" lon="05.784831"><ele>56.8</ele><time>2022-04-12T14:20:02Z</time><name>PT126</name></trkpt>
<trkpt lat="52.032689" lon="05.784830"><ele>56.9</ele><time>2022-04-12T14:20:03Z</time><name>PT127</name></trkpt>
<trkpt lat="52.032702" lon="05.784826"><ele>56.9</ele><time>2022-04-12T14:20:04Z</time><name>PT128</name></trkpt>
<trkpt lat="52.032716" lon="05.784812"><ele>56.8</ele><time>2022-04-12T14:20:05Z</time><name>PT129</name></trkpt>
<trkpt lat="52.032725" lon="05.784806"><ele>56.7</ele><time>2022-04-12T14:20:06Z</time><name>PT130</name></trkpt>
<trkpt lat="52.032736" lon="05.784806"><ele>56.7</ele><time>2022-04-12T14:20:07Z</time><name>PT131</name></trkpt>
<trkpt lat="52.032748" lon="05.784809"><ele>56.7</ele><time>2022-04-12T14:20:08Z</time><name>PT132</name></trkpt>
<trkpt lat="52.032761" lon="05.784814"><ele>56.7</ele><time>2022-04-12T14:20:09Z</time><name>PT133</name></trkpt>
<trkpt lat="52.032775" lon="05.784815"><ele>56.7</ele><time>2022-04-12T14:20:10Z</time><name>PT134</name></trkpt>
<trkpt lat="52.032790" lon="05.784808"><ele>56.7</ele><time>2022-04-12T14:20:11Z</time><name>PT135</name></trkpt>
<trkpt lat="52.032801" lon="05.784800"><ele>56.7</ele><time>2022-04-12T14:20:12Z</time><name>PT136</name></trkpt>
<trkpt lat="52.032810" lon="05.784793"><ele>56.6</ele><time>2022-04-12T14:20:13Z</time><name>PT137</name></trkpt>
<trkpt lat="52.032819" lon="05.784789"><ele>56.6</ele><time>2022-04-12T14:20:14Z</time><name>PT138</name></trkpt>
<trkpt lat="52.032833" lon="05.784782"><ele>56.4</ele><time>2022-04-12T14:20:15Z</time><name>PT139</name></trkpt>
<trkpt lat="52.032847" lon="05.784786"><ele>56.2</ele><time>2022-04-12T14:20:16Z</time><name>PT140</name></trkpt>
<trkpt lat="52.032861" lon="05.784776"><ele>56.2</ele><time>2022-04-12T14:20:17Z</time><name>PT141</name></trkpt>
<trkpt lat="52.032874" lon="05.784767"><ele>56.2</ele><time>2022-04-12T14:20:18Z</time><name>PT142</name></trkpt>
<trkpt lat="52.032889" lon="05.784764"><ele>56.2</ele><time>2022-04-12T14:20:19Z</time><name>PT143</name></trkpt>
<trkpt lat="52.032903" lon="05.784764"><ele>56.3</ele><time>2022-04-12T14:20:20Z</time><name>PT144</name></trkpt>
<trkpt lat="52.032914" lon="05.784758"><ele>56.2</ele><time>2022-04-12T14:20:21Z</time><name>PT145</name></trkpt>
<trkpt lat="52.032923" lon="05.784756"><ele>56.1</ele><time>2022-04-12T14:20:22Z</time><name>PT146</name></trkpt>
<trkpt lat="52.032929" lon="05.784760"><ele>55.8</ele><time>2022-04-12T14:20:23Z</time><name>PT147</name></trkpt>
<trkpt lat="52.032937" lon="05.784761"><ele>55.9</ele><time>2022-04-12T14:20:24Z</time><name>PT148</name></trkpt>
<trkpt lat="52.032952" lon="05.784759"><ele>55.9</ele><time>2022-04-12T14:20:25Z</time><name>PT149</name></trkpt>
<trkpt lat="52.032959" lon="05.784756"><ele>55.9</ele><time>2022-04-12T14:20:26Z</time><name>PT150</name></trkpt>
<trkpt lat="52.032972" lon="05.784748"><ele>56</ele><time>2022-04-12T14:20:27Z</time><name>PT151</name></trkpt>
<trkpt lat="52.032984" lon="05.784742"><ele>56.2</ele><time>2022-04-12T14:20:29Z</time><name>PT152</name></trkpt>
<trkpt lat="52.032997" lon="05.784740"><ele>56.2</ele><time>2022-04-12T14:20:29Z</time><name>PT153</name></trkpt>
<trkpt lat="52.033012" lon="05.784745"><ele>56.2</ele><time>2022-04-12T14:20:31Z</time><name>PT154</name></trkpt>
<trkpt lat="52.033030" lon="05.784749"><ele>56.2</ele><time>2022-04-12T14:20:31Z</time><name>PT155</name></trkpt>
<trkpt lat="52.033047" lon="05.784748"><ele>56.2</ele><time>2022-04-12T14:20:33Z</time><name>PT156</name></trkpt>
<trkpt lat="52.033059" lon="05.784746"><ele>56.2</ele><time>2022-04-12T14:20:33Z</time><name>PT157</name></trkpt>
<trkpt lat="52.033063" lon="05.784735"><ele>56</ele><time>2022-04-12T14:20:35Z</time><name>PT158</name></trkpt>
<trkpt lat="52.033070" lon="05.784722"><ele>56</ele><time>2022-04-12T14:20:35Z</time><name>PT159</name></trkpt>
<trkpt lat="52.033086" lon="05.784722"><ele>55.9</ele><time>2022-04-12T14:20:36Z</time><name>PT160</name></trkpt>
<trkpt lat="52.033098" lon="05.784723"><ele>55.8</ele><time>2022-04-12T14:20:37Z</time><name>PT161</name></trkpt>
<trkpt lat="52.033113" lon="05.784721"><ele>55.7</ele><time>2022-04-12T14:20:38Z</time><name>PT162</name></trkpt>
<trkpt lat="52.033123" lon="05.784719"><ele>55.8</ele><time>2022-04-12T14:20:39Z</time><name>PT163</name></trkpt>
<trkpt lat="52.033138" lon="05.784708"><ele>56</ele><time>2022-04-12T14:20:40Z</time><name>PT164</name></trkpt>
<trkpt lat="52.033145" lon="05.784702"><ele>56</ele><time>2022-04-12T14:20:41Z</time><name>PT165</name></trkpt>
<trkpt lat="52.033157" lon="05.784697"><ele>56</ele><time>2022-04-12T14:20:42Z</time><name>PT166</name></trkpt>
<trkpt lat="52.033171" lon="05.784696"><ele>56.1</ele><time>2022-04-12T14:20:43Z</time><name>PT167</name></trkpt>
<trkpt lat="52.033185" lon="05.784694"><ele>56</ele><time>2022-04-12T14:20:44Z</time><name>PT168</name></trkpt>
<trkpt lat="52.033197" lon="05.784694"><ele>56</ele><time>2022-04-12T14:20:45Z</time><name>PT169</name></trkpt>
<trkpt lat="52.033204" lon="05.784693"><ele>56</ele><time>2022-04-12T14:20:46Z</time><name>PT170</name></trkpt>
<trkpt lat="52.033213" lon="05.784686"><ele>55.9</ele><time>2022-04-12T14:20:47Z</time><name>PT171</name></trkpt>
<trkpt lat="52.033222" lon="05.784684"><ele>55.7</ele><time>2022-04-12T14:20:48Z</time><name>PT172</name></trkpt>
<trkpt lat="52.033231" lon="05.784682"><ele>55.6</ele><time>2022-04-12T14:20:49Z</time><name>PT173</name></trkpt>
<trkpt lat="52.033241" lon="05.784680"><ele>55.6</ele><time>2022-04-12T14:20:50Z</time><name>PT174</name></trkpt>
<trkpt lat="52.033257" lon="05.784681"><ele>55.5</ele><time>2022-04-12T14:20:51Z</time><name>PT175</name></trkpt>
<trkpt lat="52.033272" lon="05.784672"><ele>55.5</ele><time>2022-04-12T14:20:52Z</time><name>PT176</name></trkpt>
<trkpt lat="52.033283" lon="05.784662"><ele>55.6</ele><time>2022-04-12T14:20:53Z</time><name>PT177</name></trkpt>
<trkpt lat="52.033291" lon="05.784654"><ele>55.7</ele><time>2022-04-12T14:20:54Z</time><name>PT178</name></trkpt>
<trkpt lat="52.033299" lon="05.784655"><ele>55.7</ele><time>2022-04-12T14:20:55Z</time><name>PT179</name></trkpt>
<trkpt lat="52.033310" lon="05.784657"><ele>55.5</ele><time>2022-04-12T14:20:56Z</time><name>PT180</name></trkpt>
<trkpt lat="52.033317" lon="05.784649"><ele>55.3</ele><time>2022-04-12T14:20:57Z</time><name>PT181</name></trkpt>
<trkpt lat="52.033332" lon="05.784646"><ele>55.4</ele><time>2022-04-12T14:20:58Z</time><name>PT182</name></trkpt>
<trkpt lat="52.033346" lon="05.784637"><ele>55.3</ele><time>2022-04-12T14:20:59Z</time><name>PT183</name></trkpt>
<trkpt lat="52.033360" lon="05.784632"><ele>55.3</ele><time>2022-04-12T14:21:00Z</time><name>PT184</name></trkpt>
<trkpt lat="52.033366" lon="05.784631"><ele>55.4</ele><time>2022-04-12T14:21:01Z</time><name>PT185</name></trkpt>
<trkpt lat="52.033375" lon="05.784613"><ele>55.5</ele><time>2022-04-12T14:21:02Z</time><name>PT186</name></trkpt>
<trkpt lat="52.033389" lon="05.784610"><ele>55.5</ele><time>2022-04-12T14:21:03Z</time><name>PT187</name></trkpt>
<trkpt lat="52.033405" lon="05.784613"><ele>55.5</ele><time>2022-04-12T14:21:04Z</time><name>PT188</name></trkpt>
<trkpt lat="52.033422" lon="05.784616"><ele>55.5</ele><time>2022-04-12T14:21:05Z</time><name>PT189</name></trkpt>
<trkpt lat="52.033439" lon="05.784613"><ele>55.5</ele><time>2022-04-12T14:21:06Z</time><name>PT190</name></trkpt>
<trkpt lat="52.033455" lon="05.784612"><ele>55.4</ele><time>2022-04-12T14:21:07Z</time><name>PT191</name></trkpt>
<trkpt lat="52.033464" lon="05.784611"><ele>55.5</ele><time>2022-04-12T14:21:08Z</time><name>PT192</name></trkpt>
<trkpt lat="52.033475" lon="05.784604"><ele>55.7</ele><time>2022-04-12T14:21:09Z</time><name>PT193</name></trkpt>
<trkpt lat="52.033490" lon="05.784603"><ele>55.6</ele><time>2022-04-12T14:21:10Z</time><name>PT194</name></trkpt>
<trkpt lat="52.033503" lon="05.784608"><ele>55.6</ele><time>2022-04-12T14:21:11Z</time><name>PT195</name></trkpt>
<trkpt lat="52.033516" lon="05.784616"><ele>55.6</ele><time>2022-04-12T14:21:12Z</time><name>PT196</name></trkpt>
<trkpt lat="52.033532" lon="05.784617"><ele>55.5</ele><time>2022-04-12T14:21:13Z</time><name>PT197</name></trkpt>
<trkpt lat="52.033544" lon="05.784611"><ele>55.3</ele><time>2022-04-12T14:21:14Z</time><name>PT198</name></trkpt>
<trkpt lat="52.033557" lon="05.784610"><ele>55.4</ele><time>2022-04-12T14:21:15Z</time><name>PT199</name></trkpt>
<trkpt lat="52.033568" lon="05.784609"><ele>55.3</ele><time>2022-04-12T14:21:16Z</time><name>PT200</name></trkpt>
<trkpt lat="52.033575" lon="05.784601"><ele>55.3</ele><time>2022-04-12T14:21:17Z</time><name>PT201</name></trkpt>
<trkpt lat="52.033577" lon="05.784594"><ele>55.4</ele><time>2022-04-12T14:21:18Z</time><name>PT202</name></trkpt>
<trkpt lat="52.033580" lon="05.784586"><ele>55.3</ele><time>2022-04-12T14:21:19Z</time><name>PT203</name></trkpt>
<trkpt lat="52.033585" lon="05.784576"><ele>55.3</ele><time>2022-04-12T14:21:20Z</time><name>PT204</name></trkpt>
<trkpt lat="52.033592" lon="05.784568"><ele>55.3</ele><time>2022-04-12T14:21:21Z</time><name>PT205</name></trkpt>
<trkpt lat="52.033603" lon="05.784572"><ele>55.5</ele><time>2022-04-12T14:21:22Z</time><name>PT206</name></trkpt>
<trkpt lat="52.033615" lon="05.784576"><ele>55.3</ele><time>2022-04-12T14:21:23Z</time><name>PT207</name></trkpt>
<trkpt lat="52.033632" lon="05.784581"><ele>55.3</ele><time>2022-04-12T14:21:24Z</time><name>PT208</name></trkpt>
<trkpt lat="52.033647" lon="05.784586"><ele>55.3</ele><time>2022-04-12T14:21:25Z</time><name>PT209</name></trkpt>
<trkpt lat="52.033657" lon="05.784591"><ele>55.3</ele><time>2022-04-12T14:21:26Z</time><name>PT210</name></trkpt>
<trkpt lat="52.033663" lon="05.784589"><ele>55.3</ele><time>2022-04-12T14:21:27Z</time><name>PT211</name></trkpt>
<trkpt lat="52.033673" lon="05.784576"><ele>55.4</ele><time>2022-04-12T14:21:28Z</time><name>PT212</name></trkpt>
<trkpt lat="52.033685" lon="05.784573"><ele>55.3</ele><time>2022-04-12T14:21:29Z</time><name>PT213</name></trkpt>
<trkpt lat="52.033699" lon="05.784572"><ele>55.4</ele><time>2022-04-12T14:21:30Z</time><name>PT214</name></trkpt>
<trkpt lat="52.033712" lon="05.784569"><ele>55.4</ele><time>2022-04-12T14:21:31Z</time><name>PT215</name></trkpt>
<trkpt lat="52.033729" lon="05.784563"><ele>55.2</ele><time>2022-04-12T14:21:32Z</time><name>PT216</name></trkpt>
<trkpt lat="52.033741" lon="05.784560"><ele>55.2</ele><time>2022-04-12T14:21:33Z</time><name>PT217</name></trkpt>
<trkpt lat="52.033749" lon="05.784556"><ele>55.2</ele><time>2022-04-12T14:21:34Z</time><name>PT218</name></trkpt>
<trkpt lat="52.033763" lon="05.784556"><ele>55.2</ele><time>2022-04-12T14:21:35Z</time><name>PT219</name></trkpt>
<trkpt lat="52.033772" lon="05.784556"><ele>55.2</ele><time>2022-04-12T14:21:36Z</time><name>PT220</name></trkpt>
<trkpt lat="52.033785" lon="05.784559"><ele>55.2</ele><time>2022-04-12T14:21:37Z</time><name>PT221</name></trkpt>
<trkpt lat="52.033800" lon="05.784550"><ele>54.9</ele><time>2022-04-12T14:21:38Z</time><name>PT222</name></trkpt>
<trkpt lat="52.033811" lon="05.784549"><ele>54.8</ele><time>2022-04-12T14:21:39Z</time><name>PT223</name></trkpt>
<trkpt lat="52.033820" lon="05.784546"><ele>54.8</ele><time>2022-04-12T14:21:40Z</time><name>PT224</name></trkpt>
<trkpt lat="52.033827" lon="05.784540"><ele>54.7</ele><time>2022-04-12T14:21:41Z</time><name>PT225</name></trkpt>
<trkpt lat="52.033837" lon="05.784534"><ele>55</ele><time>2022-04-12T14:21:42Z</time><name>PT226</name></trkpt>
<trkpt lat="52.033849" lon="05.784527"><ele>55</ele><time>2022-04-12T14:21:43Z</time><name>PT227</name></trkpt>
<trkpt lat="52.033864" lon="05.784524"><ele>55.1</ele><time>2022-04-12T14:21:44Z</time><name>PT228</name></trkpt>
<trkpt lat="52.033872" lon="05.784517"><ele>55</ele><time>2022-04-12T14:21:45Z</time><name>PT229</name></trkpt>
<trkpt lat="52.033880" lon="05.784508"><ele>55</ele><time>2022-04-12T14:21:46Z</time><name>PT230</name></trkpt>
<trkpt lat="52.033887" lon="05.784499"><ele>54.9</ele><time>2022-04-12T14:21:47Z</time><name>PT231</name></trkpt>
<trkpt lat="52.033897" lon="05.784500"><ele>55</ele><time>2022-04-12T14:21:48Z</time><name>PT232</name></trkpt>
<trkpt lat="52.033908" lon="05.784501"><ele>55</ele><time>2022-04-12T14:21:49Z</time><name>PT233</name></trkpt>
<trkpt lat="52.033925" lon="05.784502"><ele>55</ele><time>2022-04-12T14:21:50Z</time><name>PT234</name></trkpt>
<trkpt lat="52.033938" lon="05.784500"><ele>55.2</ele><time>2022-04-12T14:21:51Z</time><name>PT235</name></trkpt>
<trkpt lat="52.033946" lon="05.784498"><ele>55.1</ele><time>2022-04-12T14:21:52Z</time><name>PT236</name></trkpt>
<trkpt lat="52.033949" lon="05.784495"><ele>55.1</ele><time>2022-04-12T14:21:53Z</time><name>PT237</name></trkpt>
<trkpt lat="52.033961" lon="05.784499"><ele>55</ele><time>2022-04-12T14:21:55Z</time><name>PT238</name></trkpt>
<trkpt lat="52.033973" lon="05.784493"><ele>55</ele><time>2022-04-12T14:21:55Z</time><name>PT239</name></trkpt>
<trkpt lat="52.033988" lon="05.784487"><ele>54.9</ele><time>2022-04-12T14:21:57Z</time><name>PT240</name></trkpt>
<trkpt lat="52.034008" lon="05.784486"><ele>55.1</ele><time>2022-04-12T14:21:57Z</time><name>PT241</name></trkpt>
<trkpt lat="52.034021" lon="05.784480"><ele>55.2</ele><time>2022-04-12T14:21:58Z</time><name>PT242</name></trkpt>
<trkpt lat="52.034031" lon="05.784480"><ele>55.2</ele><time>2022-04-12T14:21:59Z</time><name>PT243</name></trkpt>
<trkpt lat="52.034039" lon="05.784475"><ele>55.4</ele><time>2022-04-12T14:22:00Z</time><name>PT244</name></trkpt>
<trkpt lat="52.034052" lon="05.784478"><ele>55.4</ele><time>2022-04-12T14:22:01Z</time><name>PT245</name></trkpt>
<trkpt lat="52.034067" lon="05.784479"><ele>55.3</ele><time>2022-04-12T14:22:02Z</time><name>PT246</name></trkpt>
<trkpt lat="52.034077" lon="05.784469"><ele>55.2</ele><time>2022-04-12T14:22:03Z</time><name>PT247</name></trkpt>
<trkpt lat="52.034089" lon="05.784460"><ele>55.2</ele><time>2022-04-12T14:22:04Z</time><name>PT248</name></trkpt>
<trkpt lat="52.034095" lon="05.784455"><ele>55.1</ele><time>2022-04-12T14:22:05Z</time><name>PT249</name></trkpt>
<trkpt lat="52.034102" lon="05.784455"><ele>55</ele><time>2022-04-12T14:22:07Z</time><name>PT250</name></trkpt>
<trkpt lat="52.034110" lon="05.784460"><ele>55</ele><time>2022-04-12T14:22:07Z</time><name>PT251</name></trkpt>
<trkpt lat="52.034123" lon="05.784459"><ele>55.2</ele><time>2022-04-12T14:22:08Z</time><name>PT252</name></trkpt>
<trkpt lat="52.034137" lon="05.784459"><ele>55.2</ele><time>2022-04-12T14:22:09Z</time><name>PT253</name></trkpt>
<trkpt lat="52.034150" lon="05.784452"><ele>55.2</ele><time>2022-04-12T14:22:10Z</time><name>PT254</name></trkpt>
<trkpt lat="52.034162" lon="05.784447"><ele>55.2</ele><time>2022-04-12T14:22:11Z</time><name>PT255</name></trkpt>
<trkpt lat="52.034170" lon="05.784441"><ele>55.2</ele><time>2022-04-12T14:22:12Z</time><name>PT256</name></trkpt>
<trkpt lat="52.034178" lon="05.784436"><ele>55.2</ele><time>2022-04-12T14:22:13Z</time><name>PT257</name></trkpt>
<trkpt lat="52.034190" lon="05.784439"><ele>55.2</ele><time>2022-04-12T14:22:15Z</time><name>PT258</name></trkpt>
<trkpt lat="52.034202" lon="05.784440"><ele>55.2</ele><time>2022-04-12T14:22:15Z</time><name>PT259</name></trkpt>
<trkpt lat="52.034216" lon="05.784439"><ele>55.2</ele><time>2022-04-12T14:22:17Z</time><name>PT260</name></trkpt>
<trkpt lat="52.034231" lon="05.784437"><ele>55.2</ele><time>2022-04-12T14:22:17Z</time><name>PT261</name></trkpt>
<trkpt lat="52.034241" lon="05.784433"><ele>55.2</ele><time>2022-04-12T14:22:18Z</time><name>PT262</name></trkpt>
<trkpt lat="52.034248" lon="05.784427"><ele>55.2</ele><time>2022-04-12T14:22:19Z</time><name>PT263</name></trkpt>
<trkpt lat="52.034254" lon="05.784424"><ele>55.2</ele><time>2022-04-12T14:22:20Z</time><name>PT264</name></trkpt>
<trkpt lat="52.034265" lon="05.784429"><ele>55.2</ele><time>2022-04-12T14:22:21Z</time><name>PT265</name></trkpt>
<trkpt lat="52.034273" lon="05.784429"><ele>55.3</ele><time>2022-04-12T14:22:22Z</time><name>PT266</name></trkpt>
<trkpt lat="52.034279" lon="05.784414"><ele>55.5</ele><time>2022-04-12T14:22:23Z</time><name>PT267</name></trkpt>
<trkpt lat="52.034280" lon="05.784407"><ele>55.2</ele><time>2022-04-12T14:22:25Z</time><name>PT268</name></trkpt>
<trkpt lat="52.034281" lon="05.784393"><ele>55.3</ele><time>2022-04-12T14:22:25Z</time><name>PT269</name></trkpt>
<trkpt lat="52.034278" lon="05.784374"><ele>55.3</ele><time>2022-04-12T14:22:27Z</time><name>PT270</name></trkpt>
<trkpt lat="52.034276" lon="05.784361"><ele>55.3</ele><time>2022-04-12T14:22:27Z</time><name>PT271</name></trkpt>
<trkpt lat="52.034274" lon="05.784361"><ele>55.3</ele><time>2022-04-12T14:22:28Z</time><name>PT272</name></trkpt>
<trkpt lat="52.034273" lon="05.784359"><ele>55.5</ele><time>2022-04-12T14:22:29Z</time><name>PT273</name></trkpt>
<trkpt lat="52.034268" lon="05.784362"><ele>55.5</ele><time>2022-04-12T14:22:30Z</time><name>PT274</name></trkpt>
<trkpt lat="52.034266" lon="05.784366"><ele>55.6</ele><time>2022-04-12T14:22:31Z</time><name>PT275</name></trkpt>
<trkpt lat="52.034270" lon="05.784366"><ele>55.4</ele><time>2022-04-12T14:22:32Z</time><name>PT276</name></trkpt>
<trkpt lat="52.034280" lon="05.784373"><ele>55.2</ele><time>2022-04-12T14:22:33Z</time><name>PT277</name></trkpt>
<trkpt lat="52.034289" lon="05.784378"><ele>55.3</ele><time>2022-04-12T14:22:35Z</time><name>PT278</name></trkpt>
<trkpt lat="52.034299" lon="05.784378"><ele>55.2</ele><time>2022-04-12T14:22:35Z</time><name>PT279</name></trkpt>
<trkpt lat="52.034311" lon="05.784381"><ele>55</ele><time>2022-04-12T14:22:37Z</time><name>PT280</name></trkpt>
<trkpt lat="52.034324" lon="05.784380"><ele>55</ele><time>2022-04-12T14:22:37Z</time><name>PT281</name></trkpt>
<trkpt lat="52.034333" lon="05.784379"><ele>55</ele><time>2022-04-12T14:22:38Z</time><name>PT282</name></trkpt>
<trkpt lat="52.034341" lon="05.784376"><ele>55</ele><time>2022-04-12T14:22:39Z</time><name>PT283</name></trkpt>
<trkpt lat="52.034346" lon="05.784371"><ele>54.9</ele><time>2022-04-12T14:22:40Z</time><name>PT284</name></trkpt>
<trkpt lat="52.034354" lon="05.784377"><ele>54.8</ele><time>2022-04-12T14:22:41Z</time><name>PT285</name></trkpt>
<trkpt lat="52.034368" lon="05.784380"><ele>54.8</ele><time>2022-04-12T14:22:42Z</time><name>PT286</name></trkpt>
<trkpt lat="52.034379" lon="05.784378"><ele>54.8</ele><time>2022-04-12T14:22:43Z</time><name>PT287</name></trkpt>
<trkpt lat="52.034389" lon="05.784376"><ele>55</ele><time>2022-04-12T14:22:45Z</time><name>PT288</name></trkpt>
<trkpt lat="52.034396" lon="05.784377"><ele>55</ele><time>2022-04-12T14:22:45Z</time><name>PT289</name></trkpt>
<trkpt lat="52.034403" lon="05.784379"><ele>55.2</ele><time>2022-04-12T14:22:47Z</time><name>PT290</name></trkpt>
<trkpt lat="52.034415" lon="05.784382"><ele>55.1</ele><time>2022-04-12T14:22:47Z</time><name>PT291</name></trkpt>
<trkpt lat="52.034425" lon="05.784378"><ele>55.1</ele><time>2022-04-12T14:22:48Z</time><name>PT292</name></trkpt>
<trkpt lat="52.034439" lon="05.784373"><ele>54.9</ele><time>2022-04-12T14:22:49Z</time><name>PT293</name></trkpt>
<trkpt lat="52.034454" lon="05.784372"><ele>54.9</ele><time>2022-04-12T14:22:50Z</time><name>PT294</name></trkpt>
<trkpt lat="52.034463" lon="05.784366"><ele>54.8</ele><time>2022-04-12T14:22:51Z</time><name>PT295</name></trkpt>
<trkpt lat="52.034472" lon="05.784364"><ele>55.2</ele><time>2022-04-12T14:22:52Z</time><name>PT296</name></trkpt>
<trkpt lat="52.034480" lon="05.784367"><ele>55.2</ele><time>2022-04-12T14:22:53Z</time><name>PT297</name></trkpt>
<trkpt lat="52.034491" lon="05.784370"><ele>55.2</ele><time>2022-04-12T14:22:55Z</time><name>PT298</name></trkpt>
<trkpt lat="52.034501" lon="05.784370"><ele>55.2</ele><time>2022-04-12T14:22:55Z</time><name>PT299</name></trkpt>
<trkpt lat="52.034512" lon="05.784370"><ele>55.2</ele><time>2022-04-12T14:22:57Z</time><name>PT300</name></trkpt>
<trkpt lat="52.034525" lon="05.784367"><ele>55.1</ele><time>2022-04-12T14:22:57Z</time><name>PT301</name></trkpt>
<trkpt lat="52.034536" lon="05.784364"><ele>55</ele><time>2022-04-12T14:22:58Z</time><name>PT302</name></trkpt>
<trkpt lat="52.034543" lon="05.784360"><ele>54.9</ele><time>2022-04-12T14:22:59Z</time><name>PT303</name></trkpt>
<trkpt lat="52.034555" lon="05.784356"><ele>54.8</ele><time>2022-04-12T14:23:00Z</time><name>PT304</name></trkpt>
<trkpt lat="52.034562" lon="05.784356"><ele>54.7</ele><time>2022-04-12T14:23:01Z</time><name>PT305</name></trkpt>
<trkpt lat="52.034569" lon="05.784352"><ele>54.7</ele><time>2022-04-12T14:23:02Z</time><name>PT306</name></trkpt>
<trkpt lat="52.034589" lon="05.784350"><ele>54.7</ele><time>2022-04-12T14:23:03Z</time><name>PT307</name></trkpt>
<trkpt lat="52.034602" lon="05.784351"><ele>54.7</ele><time>2022-04-12T14:23:05Z</time><name>PT308</name></trkpt>
<trkpt lat="52.034610" lon="05.784347"><ele>54.8</ele><time>2022-04-12T14:23:05Z</time><name>PT309</name></trkpt>
<trkpt lat="52.034619" lon="05.784340"><ele>55</ele><time>2022-04-12T14:23:07Z</time><name>PT310</name></trkpt>
<trkpt lat="52.034631" lon="05.784340"><ele>55.1</ele><time>2022-04-12T14:23:07Z</time><name>PT311</name></trkpt>
<trkpt lat="52.034641" lon="05.784335"><ele>55.2</ele><time>2022-04-12T14:23:08Z</time><name>PT312</name></trkpt>
<trkpt lat="52.034640" lon="05.784328"><ele>54.9</ele><time>2022-04-12T14:23:09Z</time><name>PT313</name></trkpt>
<trkpt lat="52.034660" lon="05.784324"><ele>55</ele><time>2022-04-12T14:23:10Z</time><name>PT314</name></trkpt>
<trkpt lat="52.034676" lon="05.784320"><ele>54.9</ele><time>2022-04-12T14:23:11Z</time><name>PT315</name></trkpt>
<trkpt lat="52.034686" lon="05.784319"><ele>54.8</ele><time>2022-04-12T14:23:12Z</time><name>PT316</name></trkpt>
<trkpt lat="52.034696" lon="05.784322"><ele>54.7</ele><time>2022-04-12T14:23:13Z</time><name>PT317</name></trkpt>
<trkpt lat="52.034707" lon="05.784321"><ele>54.8</ele><time>2022-04-12T14:23:14Z</time><name>PT318</name></trkpt>
<trkpt lat="52.034722" lon="05.784323"><ele>54.7</ele><time>2022-04-12T14:23:15Z</time><name>PT319</name></trkpt>
<trkpt lat="52.034739" lon="05.784330"><ele>54.5</ele><time>2022-04-12T14:23:17Z</time><name>PT320</name></trkpt>
<trkpt lat="52.034754" lon="05.784333"><ele>54.6</ele><time>2022-04-12T14:23:17Z</time><name>PT321</name></trkpt>
<trkpt lat="52.034763" lon="05.784329"><ele>54.5</ele><time>2022-04-12T14:23:18Z</time><name>PT322</name></trkpt>
<trkpt lat="52.034773" lon="05.784328"><ele>54.5</ele><time>2022-04-12T14:23:19Z</time><name>PT323</name></trkpt>
<trkpt lat="52.034784" lon="05.784321"><ele>54.5</ele><time>2022-04-12T14:23:20Z</time><name>PT324</name></trkpt>
<trkpt lat="52.034793" lon="05.784322"><ele>54.5</ele><time>2022-04-12T14:23:21Z</time><name>PT325</name></trkpt>
<trkpt lat="52.034807" lon="05.784320"><ele>54.6</ele><time>2022-04-12T14:23:22Z</time><name>PT326</name></trkpt>
<trkpt lat="52.034820" lon="05.784320"><ele>54.5</ele><time>2022-04-12T14:23:23Z</time><name>PT327</name></trkpt>
<trkpt lat="52.034832" lon="05.784314"><ele>54.5</ele><time>2022-04-12T14:23:24Z</time><name>PT328</name></trkpt>
<trkpt lat="52.034842" lon="05.784310"><ele>54.4</ele><time>2022-04-12T14:23:25Z</time><name>PT329</name></trkpt>
<trkpt lat="52.034848" lon="05.784300"><ele>54.5</ele><time>2022-04-12T14:23:27Z</time><name>PT330</name></trkpt>
<trkpt lat="52.034855" lon="05.784295"><ele>54.3</ele><time>2022-04-12T14:23:27Z</time><name>PT331</name></trkpt>
<trkpt lat="52.034864" lon="05.784292"><ele>54.5</ele><time>2022-04-12T14:23:28Z</time><name>PT332</name></trkpt>
<trkpt lat="52.034877" lon="05.784296"><ele>54.6</ele><time>2022-04-12T14:23:29Z</time><name>PT333</name></trkpt>
<trkpt lat="52.034894" lon="05.784293"><ele>54.6</ele><time>2022-04-12T14:23:30Z</time><name>PT334</name></trkpt>
<trkpt lat="52.034903" lon="05.784280"><ele>54.7</ele><time>2022-04-12T14:23:31Z</time><name>PT335</name></trkpt>
<trkpt lat="52.034906" lon="05.784272"><ele>54.7</ele><time>2022-04-12T14:23:32Z</time><name>PT336</name></trkpt>
<trkpt lat="52.034914" lon="05.784273"><ele>54.7</ele><time>2022-04-12T14:23:33Z</time><name>PT337</name></trkpt>
<trkpt lat="52.034925" lon="05.784273"><ele>54.7</ele><time>2022-04-12T14:23:34Z</time><name>PT338</name></trkpt>
<trkpt lat="52.034941" lon="05.784272"><ele>54.7</ele><time>2022-04-12T14:23:35Z</time><name>PT339</name></trkpt>
<trkpt lat="52.034957" lon="05.784272"><ele>54.6</ele><time>2022-04-12T14:23:36Z</time><name>PT340</name></trkpt>
<trkpt lat="52.034963" lon="05.784272"><ele>54.5</ele><time>2022-04-12T14:23:37Z</time><name>PT341</name></trkpt>
<trkpt lat="52.034968" lon="05.784263"><ele>54.3</ele><time>2022-04-12T14:23:38Z</time><name>PT342</name></trkpt>
<trkpt lat="52.034972" lon="05.784263"><ele>54.4</ele><time>2022-04-12T14:23:39Z</time><name>PT343</name></trkpt>
<trkpt lat="52.034978" lon="05.784258"><ele>54.6</ele><time>2022-04-12T14:23:40Z</time><name>PT344</name></trkpt>
<trkpt lat="52.034979" lon="05.784250"><ele>54.6</ele><time>2022-04-12T14:23:41Z</time><name>PT345</name></trkpt>
<trkpt lat="52.034981" lon="05.784248"><ele>54.7</ele><time>2022-04-12T14:23:42Z</time><name>PT346</name></trkpt>
<trkpt lat="52.034989" lon="05.784246"><ele>54.7</ele><time>2022-04-12T14:23:43Z</time><name>PT347</name></trkpt>
<trkpt lat="52.035001" lon="05.784252"><ele>54.5</ele><time>2022-04-12T14:23:44Z</time><name>PT348</name></trkpt>
<trkpt lat="52.035013" lon="05.784257"><ele>54.5</ele><time>2022-04-12T14:23:45Z</time><name>PT349</name></trkpt>
<trkpt lat="52.035029" lon="05.784267"><ele>54.6</ele><time>2022-04-12T14:23:46Z</time><name>PT350</name></trkpt>
<trkpt lat="52.035044" lon="05.784256"><ele>54.7</ele><time>2022-04-12T14:23:47Z</time><name>PT351</name></trkpt>
<trkpt lat="52.035060" lon="05.784245"><ele>55</ele><time>2022-04-12T14:23:48Z</time><name>PT352</name></trkpt>
<trkpt lat="52.035076" lon="05.784242"><ele>55</ele><time>2022-04-12T14:23:49Z</time><name>PT353</name></trkpt>
<trkpt lat="52.035086" lon="05.784246"><ele>55.2</ele><time>2022-04-12T14:23:50Z</time><name>PT354</name></trkpt>
<trkpt lat="52.035094" lon="05.784246"><ele>55.2</ele><time>2022-04-12T14:23:51Z</time><name>PT355</name></trkpt>
<trkpt lat="52.035106" lon="05.784252"><ele>54.9</ele><time>2022-04-12T14:23:52Z</time><name>PT356</name></trkpt>
<trkpt lat="52.035117" lon="05.784254"><ele>54.8</ele><time>2022-04-12T14:23:53Z</time><name>PT357</name></trkpt>
<trkpt lat="52.035129" lon="05.784257"><ele>54.9</ele><time>2022-04-12T14:23:54Z</time><name>PT358</name></trkpt>
<trkpt lat="52.035144" lon="05.784261"><ele>54.7</ele><time>2022-04-12T14:23:55Z</time><name>PT359</name></trkpt>
<trkpt lat="52.035151" lon="05.784252"><ele>54.6</ele><time>2022-04-12T14:23:56Z</time><name>PT360</name></trkpt>
<trkpt lat="52.035158" lon="05.784245"><ele>54.7</ele><time>2022-04-12T14:23:57Z</time><name>PT361</name></trkpt>
<trkpt lat="52.035170" lon="05.784237"><ele>54.4</ele><time>2022-04-12T14:23:58Z</time><name>PT362</name></trkpt>
<trkpt lat="52.035183" lon="05.784237"><ele>54.3</ele><time>2022-04-12T14:23:59Z</time><name>PT363</name></trkpt>
<trkpt lat="52.035192" lon="05.784235"><ele>54.2</ele><time>2022-04-12T14:24:00Z</time><name>PT364</name></trkpt>
<trkpt lat="52.035204" lon="05.784240"><ele>54.3</ele><time>2022-04-12T14:24:01Z</time><name>PT365</name></trkpt>
<trkpt lat="52.035213" lon="05.784236"><ele>54.3</ele><time>2022-04-12T14:24:02Z</time><name>PT366</name></trkpt>
<trkpt lat="52.035217" lon="05.784231"><ele>54.3</ele><time>2022-04-12T14:24:03Z</time><name>PT367</name></trkpt>
<trkpt lat="52.035222" lon="05.784226"><ele>54.4</ele><time>2022-04-12T14:24:04Z</time><name>PT368</name></trkpt>
<trkpt lat="52.035235" lon="05.784222"><ele>54.3</ele><time>2022-04-12T14:24:05Z</time><name>PT369</name></trkpt>
<trkpt lat="52.035245" lon="05.784226"><ele>54.2</ele><time>2022-04-12T14:24:06Z</time><name>PT370</name></trkpt>
<trkpt lat="52.035258" lon="05.784223"><ele>54.2</ele><time>2022-04-12T14:24:07Z</time><name>PT371</name></trkpt>
<trkpt lat="52.035271" lon="05.784225"><ele>54.2</ele><time>2022-04-12T14:24:08Z</time><name>PT372</name></trkpt>
<trkpt lat="52.035285" lon="05.784221"><ele>54.2</ele><time>2022-04-12T14:24:09Z</time><name>PT373</name></trkpt>
<trkpt lat="52.035295" lon="05.784220"><ele>54.2</ele><time>2022-04-12T14:24:10Z</time><name>PT374</name></trkpt>
<trkpt lat="52.035308" lon="05.784214"><ele>54.1</ele><time>2022-04-12T14:24:11Z</time><name>PT375</name></trkpt>
<trkpt lat="52.035318" lon="05.784208"><ele>54.1</ele><time>2022-04-12T14:24:12Z</time><name>PT376</name></trkpt>
<trkpt lat="52.035328" lon="05.784203"><ele>54.1</ele><time>2022-04-12T14:24:13Z</time><name>PT377</name></trkpt>
<trkpt lat="52.035337" lon="05.784201"><ele>53.7</ele><time>2022-04-12T14:24:14Z</time><name>PT378</name></trkpt>
<trkpt lat="52.035350" lon="05.784200"><ele>53.8</ele><time>2022-04-12T14:24:15Z</time><name>PT379</name></trkpt>
<trkpt lat="52.035365" lon="05.784198"><ele>53.9</ele><time>2022-04-12T14:24:16Z</time><name>PT380</name></trkpt>
<trkpt lat="52.035375" lon="05.784193"><ele>54</ele><time>2022-04-12T14:24:17Z</time><name>PT381</name></trkpt>
<trkpt lat="52.035387" lon="05.784188"><ele>53.9</ele><time>2022-04-12T14:24:18Z</time><name>PT382</name></trkpt>
<trkpt lat="52.035397" lon="05.784181"><ele>54</ele><time>2022-04-12T14:24:19Z</time><name>PT383</name></trkpt>
<trkpt lat="52.035409" lon="05.784176"><ele>53.9</ele><time>2022-04-12T14:24:21Z</time><name>PT384</name></trkpt>
<trkpt lat="52.035419" lon="05.784166"><ele>53.8</ele><time>2022-04-12T14:24:21Z</time><name>PT385</name></trkpt>
<trkpt lat="52.035435" lon="05.784148"><ele>53.7</ele><time>2022-04-12T14:24:23Z</time><name>PT386</name></trkpt>
<trkpt lat="52.035453" lon="05.784140"><ele>53.7</ele><time>2022-04-12T14:24:23Z</time><name>PT387</name></trkpt>
<trkpt lat="52.035462" lon="05.784133"><ele>53.7</ele><time>2022-04-12T14:24:25Z</time><name>PT388</name></trkpt>
<trkpt lat="52.035473" lon="05.784130"><ele>53.7</ele><time>2022-04-12T14:24:25Z</time><name>PT389</name></trkpt>
<trkpt lat="52.035484" lon="05.784133"><ele>53.6</ele><time>2022-04-12T14:24:26Z</time><name>PT390</name></trkpt>
<trkpt lat="52.035491" lon="05.784146"><ele>53.6</ele><time>2022-04-12T14:24:27Z</time><name>PT391</name></trkpt>
<trkpt lat="52.035505" lon="05.784147"><ele>53.7</ele><time>2022-04-12T14:24:28Z</time><name>PT392</name></trkpt>
<trkpt lat="52.035525" lon="05.784158"><ele>53.7</ele><time>2022-04-12T14:24:29Z</time><name>PT393</name></trkpt>
<trkpt lat="52.035541" lon="05.784151"><ele>53.4</ele><time>2022-04-12T14:24:31Z</time><name>PT394</name></trkpt>
<trkpt lat="52.035550" lon="05.784147"><ele>53.4</ele><time>2022-04-12T14:24:31Z</time><name>PT395</name></trkpt>
<trkpt lat="52.035559" lon="05.784140"><ele>53.3</ele><time>2022-04-12T14:24:33Z</time><name>PT396</name></trkpt>
<trkpt lat="52.035565" lon="05.784145"><ele>53.3</ele><time>2022-04-12T14:24:33Z</time><name>PT397</name></trkpt>
<trkpt lat="52.035575" lon="05.784145"><ele>53.2</ele><time>2022-04-12T14:24:34Z</time><name>PT398</name></trkpt>
<trkpt lat="52.035593" lon="05.784137"><ele>53.2</ele><time>2022-04-12T14:24:35Z</time><name>PT399</name></trkpt>
<trkpt lat="52.035611" lon="05.784129"><ele>53.2</ele><time>2022-04-12T14:24:36Z</time><name>PT400</name></trkpt>
<trkpt lat="52.035626" lon="05.784124"><ele>53.2</ele><time>2022-04-12T14:24:37Z</time><name>PT401</name></trkpt>
<trkpt lat="52.035631" lon="05.784115"><ele>53.2</ele><time>2022-04-12T14:24:38Z</time><name>PT402</name></trkpt>
<trkpt lat="52.035640" lon="05.784112"><ele>53.2</ele><time>2022-04-12T14:24:39Z</time><name>PT403</name></trkpt>
<trkpt lat="52.035651" lon="05.784107"><ele>53.1</ele><time>2022-04-12T14:24:40Z</time><name>PT404</name></trkpt>
<trkpt lat="52.035662" lon="05.784101"><ele>53.1</ele><time>2022-04-12T14:24:41Z</time><name>PT405</name></trkpt>
<trkpt lat="52.035679" lon="05.784093"><ele>53.4</ele><time>2022-04-12T14:24:42Z</time><name>PT406</name></trkpt>
<trkpt lat="52.035691" lon="05.784089"><ele>53.4</ele><time>2022-04-12T14:24:43Z</time><name>PT407</name></trkpt>
<trkpt lat="52.035700" lon="05.784084"><ele>53.6</ele><time>2022-04-12T14:24:44Z</time><name>PT408</name></trkpt>
<trkpt lat="52.035706" lon="05.784081"><ele>53.7</ele><time>2022-04-12T14:24:45Z</time><name>PT409</name></trkpt>
<trkpt lat="52.035717" lon="05.784075"><ele>53.7</ele><time>2022-04-12T14:24:46Z</time><name>PT410</name></trkpt>
<trkpt lat="52.035726" lon="05.784066"><ele>53.6</ele><time>2022-04-12T14:24:47Z</time><name>PT411</name></trkpt>
<trkpt lat="52.035742" lon="05.784066"><ele>53.7</ele><time>2022-04-12T14:24:48Z</time><name>PT412</name></trkpt>
<trkpt lat="52.035754" lon="05.784062"><ele>53.7</ele><time>2022-04-12T14:24:49Z</time><name>PT413</name></trkpt>
<trkpt lat="52.035762" lon="05.784055"><ele>53.8</ele><time>2022-04-12T14:24:50Z</time><name>PT414</name></trkpt>
<trkpt lat="52.035770" lon="05.784057"><ele>53.8</ele><time>2022-04-12T14:24:51Z</time><name>PT415</name></trkpt>
<trkpt lat="52.035779" lon="05.784063"><ele>54</ele><time>2022-04-12T14:24:52Z</time><name>PT416</name></trkpt>
<trkpt lat="52.035795" lon="05.784069"><ele>53.9</ele><time>2022-04-12T14:24:53Z</time><name>PT417</name></trkpt>
<trkpt lat="52.035812" lon="05.784074"><ele>54</ele><time>2022-04-12T14:24:54Z</time><name>PT418</name></trkpt>
<trkpt lat="52.035827" lon="05.784068"><ele>54.1</ele><time>2022-04-12T14:24:55Z</time><name>PT419</name></trkpt>
<trkpt lat="52.035835" lon="05.784068"><ele>54.2</ele><time>2022-04-12T14:24:56Z</time><name>PT420</name></trkpt>
<trkpt lat="52.035840" lon="05.784064"><ele>54.2</ele><time>2022-04-12T14:24:57Z</time><name>PT421</name></trkpt>
<trkpt lat="52.035851" lon="05.784067"><ele>54.1</ele><time>2022-04-12T14:24:58Z</time><name>PT422</name></trkpt>
<trkpt lat="52.035863" lon="05.784064"><ele>54.1</ele><time>2022-04-12T14:24:59Z</time><name>PT423</name></trkpt>
<trkpt lat="52.035876" lon="05.784067"><ele>54.1</ele><time>2022-04-12T14:25:00Z</time><name>PT424</name></trkpt>
<trkpt lat="52.035893" lon="05.784061"><ele>54</ele><time>2022-04-12T14:25:01Z</time><name>PT425</name></trkpt>
<trkpt lat="52.035907" lon="05.784050"><ele>53.9</ele><time>2022-04-12T14:25:02Z</time><name>PT426</name></trkpt>
<trkpt lat="52.035914" lon="05.784047"><ele>54</ele><time>2022-04-12T14:25:03Z</time><name>PT427</name></trkpt>
<trkpt lat="52.035923" lon="05.784046"><ele>54</ele><time>2022-04-12T14:25:04Z</time><name>PT428</name></trkpt>
<trkpt lat="52.035931" lon="05.784046"><ele>54.1</ele><time>2022-04-12T14:25:05Z</time><name>PT429</name></trkpt>
<trkpt lat="52.035937" lon="05.784047"><ele>54.2</ele><time>2022-04-12T14:25:06Z</time><name>PT430</name></trkpt>
<trkpt lat="52.035945" lon="05.784038"><ele>54.1</ele><time>2022-04-12T14:25:07Z</time><name>PT431</name></trkpt>
<trkpt lat="52.035968" lon="05.784046"><ele>54.1</ele><time>2022-04-12T14:25:08Z</time><name>PT432</name></trkpt>
<trkpt lat="52.035984" lon="05.784044"><ele>54.2</ele><time>2022-04-12T14:25:09Z</time><name>PT433</name></trkpt>
<trkpt lat="52.035992" lon="05.784040"><ele>54.2</ele><time>2022-04-12T14:25:10Z</time><name>PT434</name></trkpt>
<trkpt lat="52.035999" lon="05.784033"><ele>54.2</ele><time>2022-04-12T14:25:11Z</time><name>PT435</name></trkpt>
<trkpt lat="52.036010" lon="05.784035"><ele>54.4</ele><time>2022-04-12T14:25:12Z</time><name>PT436</name></trkpt>
<trkpt lat="52.036023" lon="05.784039"><ele>54.2</ele><time>2022-04-12T14:25:13Z</time><name>PT437</name></trkpt>
<trkpt lat="52.036036" lon="05.784049"><ele>54.2</ele><time>2022-04-12T14:25:14Z</time><name>PT438</name></trkpt>
<trkpt lat="52.036048" lon="05.784061"><ele>54.2</ele><time>2022-04-12T14:25:15Z</time><name>PT439</name></trkpt>
<trkpt lat="52.036064" lon="05.784062"><ele>54.2</ele><time>2022-04-12T14:25:16Z</time><name>PT440</name></trkpt>
<trkpt lat="52.036076" lon="05.784051"><ele>54.3</ele><time>2022-04-12T14:25:17Z</time><name>PT441</name></trkpt>
<trkpt lat="52.036084" lon="05.784048"><ele>54.5</ele><time>2022-04-12T14:25:18Z</time><name>PT442</name></trkpt>
<trkpt lat="52.036090" lon="05.784043"><ele>54.6</ele><time>2022-04-12T14:25:19Z</time><name>PT443</name></trkpt>
<trkpt lat="52.036096" lon="05.784049"><ele>54.6</ele><time>2022-04-12T14:25:21Z</time><name>PT444</name></trkpt>
<trkpt lat="52.036109" lon="05.784048"><ele>54.6</ele><time>2022-04-12T14:25:21Z</time><name>PT445</name></trkpt>
<trkpt lat="52.036128" lon="05.784046"><ele>54.5</ele><time>2022-04-12T14:25:23Z</time><name>PT446</name></trkpt>
<trkpt lat="52.036143" lon="05.784038"><ele>54.4</ele><time>2022-04-12T14:25:23Z</time><name>PT447</name></trkpt>
<trkpt lat="52.036153" lon="05.784031"><ele>54.3</ele><time>2022-04-12T14:25:25Z</time><name>PT448</name></trkpt>
<trkpt lat="52.036165" lon="05.784025"><ele>54.3</ele><time>2022-04-12T14:25:25Z</time><name>PT449</name></trkpt>
<trkpt lat="52.036173" lon="05.784022"><ele>54.2</ele><time>2022-04-12T14:25:27Z</time><name>PT450</name></trkpt>
<trkpt lat="52.036182" lon="05.784020"><ele>54.2</ele><time>2022-04-12T14:25:27Z</time><name>PT451</name></trkpt>
<trkpt lat="52.036197" lon="05.784020"><ele>54.2</ele><time>2022-04-12T14:25:29Z</time><name>PT452</name></trkpt>
<trkpt lat="52.036214" lon="05.784013"><ele>54.3</ele><time>2022-04-12T14:25:29Z</time><name>PT453</name></trkpt>
<trkpt lat="52.036226" lon="05.784007"><ele>54.2</ele><time>2022-04-12T14:25:30Z</time><name>PT454</name></trkpt>
<trkpt lat="52.036233" lon="05.784000"><ele>54.2</ele><time>2022-04-12T14:25:31Z</time><name>PT455</name></trkpt>
<trkpt lat="52.036240" lon="05.783990"><ele>54.3</ele><time>2022-04-12T14:25:32Z</time><name>PT456</name></trkpt>
<trkpt lat="52.036250" lon="05.783987"><ele>54.2</ele><time>2022-04-12T14:25:33Z</time><name>PT457</name></trkpt>
<trkpt lat="52.036264" lon="05.783990"><ele>54.2</ele><time>2022-04-12T14:25:34Z</time><name>PT458</name></trkpt>
<trkpt lat="52.036280" lon="05.783985"><ele>54.1</ele><time>2022-04-12T14:25:35Z</time><name>PT459</name></trkpt>
<trkpt lat="52.036300" lon="05.783994"><ele>54</ele><time>2022-04-12T14:25:36Z</time><name>PT460</name></trkpt>
<trkpt lat="52.036310" lon="05.783995"><ele>53.9</ele><time>2022-04-12T14:25:37Z</time><name>PT461</name></trkpt>
<trkpt lat="52.036317" lon="05.783991"><ele>53.7</ele><time>2022-04-12T14:25:38Z</time><name>PT462</name></trkpt>
<trkpt lat="52.036327" lon="05.783986"><ele>53.6</ele><time>2022-04-12T14:25:39Z</time><name>PT463</name></trkpt>
<trkpt lat="52.036334" lon="05.783983"><ele>53.7</ele><time>2022-04-12T14:25:40Z</time><name>PT464</name></trkpt>
<trkpt lat="52.036344" lon="05.783981"><ele>53.7</ele><time>2022-04-12T14:25:41Z</time><name>PT465</name></trkpt>
<trkpt lat="52.036363" lon="05.783981"><ele>53.6</ele><time>2022-04-12T14:25:42Z</time><name>PT466</name></trkpt>
<trkpt lat="52.036376" lon="05.783978"><ele>53.5</ele><time>2022-04-12T14:25:43Z</time><name>PT467</name></trkpt>
<trkpt lat="52.036386" lon="05.783978"><ele>53.6</ele><time>2022-04-12T14:25:44Z</time><name>PT468</name></trkpt>
<trkpt lat="52.036391" lon="05.783975"><ele>53.5</ele><time>2022-04-12T14:25:45Z</time><name>PT469</name></trkpt>
<trkpt lat="52.036397" lon="05.783974"><ele>53.5</ele><time>2022-04-12T14:25:46Z</time><name>PT470</name></trkpt>
<trkpt lat="52.036408" lon="05.783975"><ele>53.5</ele><time>2022-04-12T14:25:47Z</time><name>PT471</name></trkpt>
<trkpt lat="52.036423" lon="05.783971"><ele>53.6</ele><time>2022-04-12T14:25:48Z</time><name>PT472</name></trkpt>
<trkpt lat="52.036439" lon="05.783968"><ele>53.6</ele><time>2022-04-12T14:25:49Z</time><name>PT473</name></trkpt>
<trkpt lat="52.036456" lon="05.783968"><ele>53.5</ele><time>2022-04-12T14:25:50Z</time><name>PT474</name></trkpt>
<trkpt lat="52.036467" lon="05.783962"><ele>53.5</ele><time>2022-04-12T14:25:51Z</time><name>PT475</name></trkpt>
<trkpt lat="52.036475" lon="05.783961"><ele>53.5</ele><time>2022-04-12T14:25:52Z</time><name>PT476</name></trkpt>
<trkpt lat="52.036483" lon="05.783962"><ele>53.5</ele><time>2022-04-12T14:25:53Z</time><name>PT477</name></trkpt>
<trkpt lat="52.036493" lon="05.783959"><ele>53.2</ele><time>2022-04-12T14:25:54Z</time><name>PT478</name></trkpt>
<trkpt lat="52.036505" lon="05.783952"><ele>53.2</ele><time>2022-04-12T14:25:55Z</time><name>PT479</name></trkpt>
<trkpt lat="52.036524" lon="05.783943"><ele>53.2</ele><time>2022-04-12T14:25:56Z</time><name>PT480</name></trkpt>
<trkpt lat="52.036540" lon="05.783924"><ele>53.1</ele><time>2022-04-12T14:25:57Z</time><name>PT481</name></trkpt>
<trkpt lat="52.036549" lon="05.783905"><ele>53</ele><time>2022-04-12T14:25:58Z</time><name>PT482</name></trkpt>
<trkpt lat="52.036553" lon="05.783896"><ele>53.1</ele><time>2022-04-12T14:25:59Z</time><name>PT483</name></trkpt>
<trkpt lat="52.036562" lon="05.783890"><ele>53.1</ele><time>2022-04-12T14:26:00Z</time><name>PT484</name></trkpt>
<trkpt lat="52.036569" lon="05.783887"><ele>53.2</ele><time>2022-04-12T14:26:01Z</time><name>PT485</name></trkpt>
<trkpt lat="52.036572" lon="05.783888"><ele>53.3</ele><time>2022-04-12T14:26:02Z</time><name>PT486</name></trkpt>
<trkpt lat="52.036586" lon="05.783879"><ele>53.4</ele><time>2022-04-12T14:26:03Z</time><name>PT487</name></trkpt>
<trkpt lat="52.036594" lon="05.783855"><ele>53.4</ele><time>2022-04-12T14:26:04Z</time><name>PT488</name></trkpt>
<trkpt lat="52.036599" lon="05.783840"><ele>53.3</ele><time>2022-04-12T14:26:05Z</time><name>PT489</name></trkpt>
<trkpt lat="52.036606" lon="05.783833"><ele>53.3</ele><time>2022-04-12T14:26:06Z</time><name>PT490</name></trkpt>
<trkpt lat="52.036613" lon="05.783826"><ele>53.4</ele><time>2022-04-12T14:26:07Z</time><name>PT491</name></trkpt>
<trkpt lat="52.036616" lon="05.783821"><ele>53.1</ele><time>2022-04-12T14:26:08Z</time><name>PT492</name></trkpt>
<trkpt lat="52.036626" lon="05.783820"><ele>53.1</ele><time>2022-04-12T14:26:09Z</time><name>PT493</name></trkpt>
<trkpt lat="52.036636" lon="05.783817"><ele>53.1</ele><time>2022-04-12T14:26:10Z</time><name>PT494</name></trkpt>
<trkpt lat="52.036644" lon="05.783808"><ele>53.2</ele><time>2022-04-12T14:26:11Z</time><name>PT495</name></trkpt>
<trkpt lat="52.036646" lon="05.783803"><ele>53.1</ele><time>2022-04-12T14:26:12Z</time><name>PT496</name></trkpt>
<trkpt lat="52.036648" lon="05.783796"><ele>53.2</ele><time>2022-04-12T14:26:13Z</time><name>PT497</name></trkpt>
<trkpt lat="52.036660" lon="05.783795"><ele>53.2</ele><time>2022-04-12T14:26:14Z</time><name>PT498</name></trkpt>
<trkpt lat="52.036674" lon="05.783798"><ele>53.1</ele><time>2022-04-12T14:26:15Z</time><name>PT499</name></trkpt>
<trkpt lat="52.036689" lon="05.783790"><ele>53</ele><time>2022-04-12T14:26:16Z</time><name>PT500</name></trkpt>
<trkpt lat="52.036699" lon="05.783788"><ele>53.1</ele><time>2022-04-12T14:26:17Z</time><name>PT501</name></trkpt>
<trkpt lat="52.036709" lon="05.783782"><ele>53</ele><time>2022-04-12T14:26:18Z</time><name>PT502</name></trkpt>
<trkpt lat="52.036712" lon="05.783774"><ele>53.1</ele><time>2022-04-12T14:26:19Z</time><name>PT503</name></trkpt>
<trkpt lat="52.036716" lon="05.783762"><ele>53.2</ele><time>2022-04-12T14:26:20Z</time><name>PT504</name></trkpt>
<trkpt lat="52.036731" lon="05.783748"><ele>53.2</ele><time>2022-04-12T14:26:21Z</time><name>PT505</name></trkpt>
<trkpt lat="52.036750" lon="05.783740"><ele>53.1</ele><time>2022-04-12T14:26:22Z</time><name>PT506</name></trkpt>
<trkpt lat="52.036767" lon="05.783720"><ele>53.1</ele><time>2022-04-12T14:26:23Z</time><name>PT507</name></trkpt>
<trkpt lat="52.036782" lon="05.783710"><ele>53.1</ele><time>2022-04-12T14:26:24Z</time><name>PT508</name></trkpt>
<trkpt lat="52.036794" lon="05.783698"><ele>53</ele><time>2022-04-12T14:26:25Z</time><name>PT509</name></trkpt>
<trkpt lat="52.036801" lon="05.783683"><ele>53.1</ele><time>2022-04-12T14:26:27Z</time><name>PT510</name></trkpt>
<trkpt lat="52.036811" lon="05.783666"><ele>53</ele><time>2022-04-12T14:26:27Z</time><name>PT511</name></trkpt>
<trkpt lat="52.036822" lon="05.783658"><ele>52.9</ele><time>2022-04-12T14:26:28Z</time><name>PT512</name></trkpt>
<trkpt lat="52.036831" lon="05.783645"><ele>53</ele><time>2022-04-12T14:26:29Z</time><name>PT513</name></trkpt>
<trkpt lat="52.036840" lon="05.783635"><ele>53</ele><time>2022-04-12T14:26:30Z</time><name>PT514</name></trkpt>
<trkpt lat="52.036850" lon="05.783624"><ele>53.1</ele><time>2022-04-12T14:26:31Z</time><name>PT515</name></trkpt>
<trkpt lat="52.036859" lon="05.783610"><ele>53.2</ele><time>2022-04-12T14:26:32Z</time><name>PT516</name></trkpt>
<trkpt lat="52.036863" lon="05.783594"><ele>53.2</ele><time>2022-04-12T14:26:33Z</time><name>PT517</name></trkpt>
<trkpt lat="52.036865" lon="05.783583"><ele>53</ele><time>2022-04-12T14:26:34Z</time><name>PT518</name></trkpt>
<trkpt lat="52.036872" lon="05.783584"><ele>53.1</ele><time>2022-04-12T14:26:35Z</time><name>PT519</name></trkpt>
<trkpt lat="52.036878" lon="05.783584"><ele>52.9</ele><time>2022-04-12T14:26:36Z</time><name>PT520</name></trkpt>
<trkpt lat="52.036885" lon="05.783573"><ele>52.8</ele><time>2022-04-12T14:26:37Z</time><name>PT521</name></trkpt>
<trkpt lat="52.036897" lon="05.783560"><ele>52.9</ele><time>2022-04-12T14:26:38Z</time><name>PT522</name></trkpt>
<trkpt lat="52.036907" lon="05.783537"><ele>53</ele><time>2022-04-12T14:26:39Z</time><name>PT523</name></trkpt>
<trkpt lat="52.036913" lon="05.783522"><ele>53</ele><time>2022-04-12T14:26:40Z</time><name>PT524</name></trkpt>
<trkpt lat="52.036924" lon="05.783511"><ele>52.9</ele><time>2022-04-12T14:26:41Z</time><name>PT525</name></trkpt>
<trkpt lat="52.036934" lon="05.783502"><ele>53</ele><time>2022-04-12T14:26:42Z</time><name>PT526</name></trkpt>
<trkpt lat="52.036946" lon="05.783501"><ele>53.2</ele><time>2022-04-12T14:26:43Z</time><name>PT527</name></trkpt>
<trkpt lat="52.036963" lon="05.783495"><ele>53.1</ele><time>2022-04-12T14:26:44Z</time><name>PT528</name></trkpt>
<trkpt lat="52.036974" lon="05.783477"><ele>53.2</ele><time>2022-04-12T14:26:45Z</time><name>PT529</name></trkpt>
<trkpt lat="52.036986" lon="05.783462"><ele>53.2</ele><time>2022-04-12T14:26:46Z</time><name>PT530</name></trkpt>
<trkpt lat="52.036990" lon="05.783454"><ele>53.2</ele><time>2022-04-12T14:26:47Z</time><name>PT531</name></trkpt>
<trkpt lat="52.036997" lon="05.783449"><ele>53.1</ele><time>2022-04-12T14:26:48Z</time><name>PT532</name></trkpt>
<trkpt lat="52.037002" lon="05.783446"><ele>53.1</ele><time>2022-04-12T14:26:49Z</time><name>PT533</name></trkpt>
<trkpt lat="52.037009" lon="05.783449"><ele>52.8</ele><time>2022-04-12T14:26:50Z</time><name>PT534</name></trkpt>
<trkpt lat="52.037023" lon="05.783445"><ele>52.8</ele><time>2022-04-12T14:26:51Z</time><name>PT535</name></trkpt>
<trkpt lat="52.037040" lon="05.783440"><ele>52.9</ele><time>2022-04-12T14:26:52Z</time><name>PT536</name></trkpt>
<trkpt lat="52.037053" lon="05.783428"><ele>53.1</ele><time>2022-04-12T14:26:53Z</time><name>PT537</name></trkpt>
<trkpt lat="52.037065" lon="05.783424"><ele>53.2</ele><time>2022-04-12T14:26:54Z</time><name>PT538</name></trkpt>
<trkpt lat="52.037076" lon="05.783422"><ele>53.2</ele><time>2022-04-12T14:26:55Z</time><name>PT539</name></trkpt>
<trkpt lat="52.037086" lon="05.783416"><ele>53.2</ele><time>2022-04-12T14:26:56Z</time><name>PT540</name></trkpt>
<trkpt lat="52.037093" lon="05.783410"><ele>53.3</ele><time>2022-04-12T14:26:57Z</time><name>PT541</name></trkpt>
<trkpt lat="52.037107" lon="05.783393"><ele>53.1</ele><time>2022-04-12T14:26:58Z</time><name>PT542</name></trkpt>
<trkpt lat="52.037117" lon="05.783372"><ele>52.9</ele><time>2022-04-12T14:26:59Z</time><name>PT543</name></trkpt>
<trkpt lat="52.037125" lon="05.783360"><ele>52.7</ele><time>2022-04-12T14:27:00Z</time><name>PT544</name></trkpt>
<trkpt lat="52.037130" lon="05.783350"><ele>52.7</ele><time>2022-04-12T14:27:01Z</time><name>PT545</name></trkpt>
<trkpt lat="52.037134" lon="05.783339"><ele>52.5</ele><time>2022-04-12T14:27:02Z</time><name>PT546</name></trkpt>
<trkpt lat="52.037142" lon="05.783330"><ele>52.6</ele><time>2022-04-12T14:27:03Z</time><name>PT547</name></trkpt>
<trkpt lat="52.037161" lon="05.783322"><ele>52.5</ele><time>2022-04-12T14:27:04Z</time><name>PT548</name></trkpt>
<trkpt lat="52.037179" lon="05.783311"><ele>52.4</ele><time>2022-04-12T14:27:05Z</time><name>PT549</name></trkpt>
<trkpt lat="52.037191" lon="05.783298"><ele>52.5</ele><time>2022-04-12T14:27:06Z</time><name>PT550</name></trkpt>
<trkpt lat="52.037199" lon="05.783288"><ele>52.4</ele><time>2022-04-12T14:27:07Z</time><name>PT551</name></trkpt>
<trkpt lat="52.037208" lon="05.783277"><ele>52.2</ele><time>2022-04-12T14:27:08Z</time><name>PT552</name></trkpt>
<trkpt lat="52.037219" lon="05.783270"><ele>52.2</ele><time>2022-04-12T14:27:09Z</time><name>PT553</name></trkpt>
<trkpt lat="52.037228" lon="05.783259"><ele>52.3</ele><time>2022-04-12T14:27:10Z</time><name>PT554</name></trkpt>
<trkpt lat="52.037243" lon="05.783243"><ele>52.2</ele><time>2022-04-12T14:27:11Z</time><name>PT555</name></trkpt>
<trkpt lat="52.037257" lon="05.783231"><ele>52.2</ele><time>2022-04-12T14:27:12Z</time><name>PT556</name></trkpt>
<trkpt lat="52.037264" lon="05.783222"><ele>52.1</ele><time>2022-04-12T14:27:13Z</time><name>PT557</name></trkpt>
<trkpt lat="52.037273" lon="05.783214"><ele>52.2</ele><time>2022-04-12T14:27:14Z</time><name>PT558</name></trkpt>
<trkpt lat="52.037283" lon="05.783206"><ele>52.3</ele><time>2022-04-12T14:27:15Z</time><name>PT559</name></trkpt>
<trkpt lat="52.037292" lon="05.783195"><ele>52.3</ele><time>2022-04-12T14:27:16Z</time><name>PT560</name></trkpt>
<trkpt lat="52.037305" lon="05.783179"><ele>52.4</ele><time>2022-04-12T14:27:17Z</time><name>PT561</name></trkpt>
<trkpt lat="52.037317" lon="05.783159"><ele>52.7</ele><time>2022-04-12T14:27:18Z</time><name>PT562</name></trkpt>
<trkpt lat="52.037327" lon="05.783151"><ele>52.8</ele><time>2022-04-12T14:27:19Z</time><name>PT563</name></trkpt>
<trkpt lat="52.037333" lon="05.783152"><ele>52.7</ele><time>2022-04-12T14:27:20Z</time><name>PT564</name></trkpt>
<trkpt lat="52.037341" lon="05.783147"><ele>52.7</ele><time>2022-04-12T14:27:21Z</time><name>PT565</name></trkpt>
<trkpt lat="52.037352" lon="05.783132"><ele>52.7</ele><time>2022-04-12T14:27:22Z</time><name>PT566</name></trkpt>
<trkpt lat="52.037364" lon="05.783113"><ele>52.5</ele><time>2022-04-12T14:27:23Z</time><name>PT567</name></trkpt>
<trkpt lat="52.037378" lon="05.783101"><ele>52.7</ele><time>2022-04-12T14:27:24Z</time><name>PT568</name></trkpt>
<trkpt lat="52.037386" lon="05.783095"><ele>52.7</ele><time>2022-04-12T14:27:25Z</time><name>PT569</name></trkpt>
<trkpt lat="52.037394" lon="05.783088"><ele>52.8</ele><time>2022-04-12T14:27:26Z</time><name>PT570</name></trkpt>
<trkpt lat="52.037409" lon="05.783079"><ele>52.9</ele><time>2022-04-12T14:27:27Z</time><name>PT571</name></trkpt>
<trkpt lat="52.037419" lon="05.783078"><ele>53</ele><time>2022-04-12T14:27:28Z</time><name>PT572</name></trkpt>
<trkpt lat="52.037431" lon="05.783074"><ele>53</ele><time>2022-04-12T14:27:29Z</time><name>PT573</name></trkpt>
<trkpt lat="52.037439" lon="05.783058"><ele>52.7</ele><time>2022-04-12T14:27:30Z</time><name>PT574</name></trkpt>
<trkpt lat="52.037444" lon="05.783052"><ele>52.8</ele><time>2022-04-12T14:27:31Z</time><name>PT575</name></trkpt>
<trkpt lat="52.037451" lon="05.783047"><ele>52.8</ele><time>2022-04-12T14:27:32Z</time><name>PT576</name></trkpt>
<trkpt lat="52.037458" lon="05.783046"><ele>52.8</ele><time>2022-04-12T14:27:33Z</time><name>PT577</name></trkpt>
<trkpt lat="52.037462" lon="05.783032"><ele>52.7</ele><time>2022-04-12T14:27:34Z</time><name>PT578</name></trkpt>
<trkpt lat="52.037473" lon="05.783022"><ele>52.8</ele><time>2022-04-12T14:27:35Z</time><name>PT579</name></trkpt>
<trkpt lat="52.037484" lon="05.783013"><ele>52.7</ele><time>2022-04-12T14:27:36Z</time><name>PT580</name></trkpt>
<trkpt lat="52.037491" lon="05.782998"><ele>52.6</ele><time>2022-04-12T14:27:37Z</time><name>PT581</name></trkpt>
<trkpt lat="52.037500" lon="05.782989"><ele>52.7</ele><time>2022-04-12T14:27:38Z</time><name>PT582</name></trkpt>
<trkpt lat="52.037505" lon="05.782982"><ele>52.7</ele><time>2022-04-12T14:27:39Z</time><name>PT583</name></trkpt>
<trkpt lat="52.037512" lon="05.782978"><ele>52.7</ele><time>2022-04-12T14:27:40Z</time><name>PT584</name></trkpt>
<trkpt lat="52.037518" lon="05.782975"><ele>52.6</ele><time>2022-04-12T14:27:41Z</time><name>PT585</name></trkpt>
<trkpt lat="52.037525" lon="05.782952"><ele>52.5</ele><time>2022-04-12T14:27:42Z</time><name>PT586</name></trkpt>
<trkpt lat="52.037538" lon="05.782941"><ele>52.3</ele><time>2022-04-12T14:27:43Z</time><name>PT587</name></trkpt>
<trkpt lat="52.037546" lon="05.782933"><ele>52.1</ele><time>2022-04-12T14:27:44Z</time><name>PT588</name></trkpt>
<trkpt lat="52.037553" lon="05.782926"><ele>52</ele><time>2022-04-12T14:27:45Z</time><name>PT589</name></trkpt>
<trkpt lat="52.037558" lon="05.782911"><ele>52</ele><time>2022-04-12T14:27:46Z</time><name>PT590</name></trkpt>
<trkpt lat="52.037568" lon="05.782906"><ele>52.1</ele><time>2022-04-12T14:27:47Z</time><name>PT591</name></trkpt>
<trkpt lat="52.037581" lon="05.782908"><ele>52.2</ele><time>2022-04-12T14:27:48Z</time><name>PT592</name></trkpt>
<trkpt lat="52.037591" lon="05.782889"><ele>52.2</ele><time>2022-04-12T14:27:49Z</time><name>PT593</name></trkpt>
<trkpt lat="52.037596" lon="05.782868"><ele>52.3</ele><time>2022-04-12T14:27:50Z</time><name>PT594</name></trkpt>
<trkpt lat="52.037601" lon="05.782855"><ele>52.4</ele><time>2022-04-12T14:27:51Z</time><name>PT595</name></trkpt>
<trkpt lat="52.037608" lon="05.782852"><ele>52.5</ele><time>2022-04-12T14:27:53Z</time><name>PT596</name></trkpt>
<trkpt lat="52.037614" lon="05.782849"><ele>52.4</ele><time>2022-04-12T14:27:53Z</time><name>PT597</name></trkpt>
<trkpt lat="52.037624" lon="05.782839"><ele>52.5</ele><time>2022-04-12T14:27:54Z</time><name>PT598</name></trkpt>
<trkpt lat="52.037633" lon="05.782828"><ele>52.3</ele><time>2022-04-12T14:27:55Z</time><name>PT599</name></trkpt>
<trkpt lat="52.037646" lon="05.782816"><ele>52.2</ele><time>2022-04-12T14:27:56Z</time><name>PT600</name></trkpt>
<trkpt lat="52.037655" lon="05.782810"><ele>52.2</ele><time>2022-04-12T14:27:57Z</time><name>PT601</name></trkpt>
<trkpt lat="52.037660" lon="05.782798"><ele>52.2</ele><time>2022-04-12T14:27:58Z</time><name>PT602</name></trkpt>
<trkpt lat="52.037667" lon="05.782794"><ele>52.2</ele><time>2022-04-12T14:27:59Z</time><name>PT603</name></trkpt>
<trkpt lat="52.037680" lon="05.782787"><ele>52.5</ele><time>2022-04-12T14:28:01Z</time><name>PT604</name></trkpt>
<trkpt lat="52.037693" lon="05.782770"><ele>52.5</ele><time>2022-04-12T14:28:01Z</time><name>PT605</name></trkpt>
<trkpt lat="52.037697" lon="05.782742"><ele>52.4</ele><time>2022-04-12T14:28:03Z</time><name>PT606</name></trkpt>
<trkpt lat="52.037700" lon="05.782727"><ele>52.4</ele><time>2022-04-12T14:28:03Z</time><name>PT607</name></trkpt>
<trkpt lat="52.037707" lon="05.782718"><ele>52.3</ele><time>2022-04-12T14:28:04Z</time><name>PT608</name></trkpt>
<trkpt lat="52.037715" lon="05.782718"><ele>52.3</ele><time>2022-04-12T14:28:05Z</time><name>PT609</name></trkpt>
<trkpt lat="52.037726" lon="05.782714"><ele>52.2</ele><time>2022-04-12T14:28:06Z</time><name>PT610</name></trkpt>
<trkpt lat="52.037743" lon="05.782704"><ele>52.2</ele><time>2022-04-12T14:28:07Z</time><name>PT611</name></trkpt>
<trkpt lat="52.037752" lon="05.782689"><ele>52</ele><time>2022-04-12T14:28:08Z</time><name>PT612</name></trkpt>
<trkpt lat="52.037763" lon="05.782678"><ele>52.1</ele><time>2022-04-12T14:28:09Z</time><name>PT613</name></trkpt>
<trkpt lat="52.037770" lon="05.782672"><ele>52</ele><time>2022-04-12T14:28:11Z</time><name>PT614</name></trkpt>
<trkpt lat="52.037780" lon="05.782667"><ele>52</ele><time>2022-04-12T14:28:11Z</time><name>PT615</name></trkpt>
<trkpt lat="52.037797" lon="05.782661"><ele>51.9</ele><time>2022-04-12T14:28:13Z</time><name>PT616</name></trkpt>
<trkpt lat="52.037802" lon="05.782640"><ele>52</ele><time>2022-04-12T14:28:13Z</time><name>PT617</name></trkpt>
<trkpt lat="52.037814" lon="05.782625"><ele>52</ele><time>2022-04-12T14:28:14Z</time><name>PT618</name></trkpt>
<trkpt lat="52.037822" lon="05.782614"><ele>52</ele><time>2022-04-12T14:28:15Z</time><name>PT619</name></trkpt>
<trkpt lat="52.037831" lon="05.782596"><ele>52</ele><time>2022-04-12T14:28:16Z</time><name>PT620</name></trkpt>
<trkpt lat="52.037840" lon="05.782588"><ele>52.1</ele><time>2022-04-12T14:28:17Z</time><name>PT621</name></trkpt>
<trkpt lat="52.037847" lon="05.782578"><ele>52.2</ele><time>2022-04-12T14:28:18Z</time><name>PT622</name></trkpt>
<trkpt lat="52.037856" lon="05.782562"><ele>52.2</ele><time>2022-04-12T14:28:19Z</time><name>PT623</name></trkpt>
<trkpt lat="52.037870" lon="05.782543"><ele>52</ele><time>2022-04-12T14:28:21Z</time><name>PT624</name></trkpt>
<trkpt lat="52.037882" lon="05.782525"><ele>51.9</ele><time>2022-04-12T14:28:21Z</time><name>PT625</name></trkpt>
<trkpt lat="52.037881" lon="05.782509"><ele>51.9</ele><time>2022-04-12T14:28:23Z</time><name>PT626</name></trkpt>
<trkpt lat="52.037887" lon="05.782502"><ele>51.9</ele><time>2022-04-12T14:28:23Z</time><name>PT627</name></trkpt>
<trkpt lat="52.037895" lon="05.782492"><ele>51.8</ele><time>2022-04-12T14:28:24Z</time><name>PT628</name></trkpt>
<trkpt lat="52.037905" lon="05.782490"><ele>51.9</ele><time>2022-04-12T14:28:25Z</time><name>PT629</name></trkpt>
<trkpt lat="52.037919" lon="05.782479"><ele>51.9</ele><time>2022-04-12T14:28:26Z</time><name>PT630</name></trkpt>
<trkpt lat="52.037934" lon="05.782464"><ele>51.9</ele><time>2022-04-12T14:28:27Z</time><name>PT631</name></trkpt>
<trkpt lat="52.037944" lon="05.782451"><ele>51.7</ele><time>2022-04-12T14:28:28Z</time><name>PT632</name></trkpt>
<trkpt lat="52.037951" lon="05.782443"><ele>51.8</ele><time>2022-04-12T14:28:29Z</time><name>PT633</name></trkpt>
<trkpt lat="52.037961" lon="05.782436"><ele>51.8</ele><time>2022-04-12T14:28:31Z</time><name>PT634</name></trkpt>
<trkpt lat="52.037976" lon="05.782433"><ele>51.7</ele><time>2022-04-12T14:28:31Z</time><name>PT635</name></trkpt>
<trkpt lat="52.037986" lon="05.782424"><ele>52.1</ele><time>2022-04-12T14:28:33Z</time><name>PT636</name></trkpt>
<trkpt lat="52.037994" lon="05.782417"><ele>52.2</ele><time>2022-04-12T14:28:33Z</time><name>PT637</name></trkpt>
<trkpt lat="52.038004" lon="05.782407"><ele>52.2</ele><time>2022-04-12T14:28:34Z</time><name>PT638</name></trkpt>
<trkpt lat="52.038013" lon="05.782397"><ele>52.2</ele><time>2022-04-12T14:28:35Z</time><name>PT639</name></trkpt>
<trkpt lat="52.038020" lon="05.782389"><ele>52.1</ele><time>2022-04-12T14:28:36Z</time><name>PT640</name></trkpt>
<trkpt lat="52.038029" lon="05.782374"><ele>52.2</ele><time>2022-04-12T14:28:37Z</time><name>PT641</name></trkpt>
<trkpt lat="52.038037" lon="05.782365"><ele>52.1</ele><time>2022-04-12T14:28:38Z</time><name>PT642</name></trkpt>
<trkpt lat="52.038046" lon="05.782366"><ele>52</ele><time>2022-04-12T14:28:39Z</time><name>PT643</name></trkpt>
<trkpt lat="52.038063" lon="05.782365"><ele>52.1</ele><time>2022-04-12T14:28:41Z</time><name>PT644</name></trkpt>
<trkpt lat="52.038079" lon="05.782353"><ele>52</ele><time>2022-04-12T14:28:41Z</time><name>PT645</name></trkpt>
<trkpt lat="52.038087" lon="05.782346"><ele>51.9</ele><time>2022-04-12T14:28:43Z</time><name>PT646</name></trkpt>
<trkpt lat="52.038095" lon="05.782341"><ele>51.9</ele><time>2022-04-12T14:28:43Z</time><name>PT647</name></trkpt>
<trkpt lat="52.038104" lon="05.782330"><ele>51.8</ele><time>2022-04-12T14:28:44Z</time><name>PT648</name></trkpt>
<trkpt lat="52.038113" lon="05.782322"><ele>51.8</ele><time>2022-04-12T14:28:45Z</time><name>PT649</name></trkpt>
<trkpt lat="52.038127" lon="05.782317"><ele>51.7</ele><time>2022-04-12T14:28:46Z</time><name>PT650</name></trkpt>
<trkpt lat="52.038142" lon="05.782309"><ele>51.7</ele><time>2022-04-12T14:28:47Z</time><name>PT651</name></trkpt>
<trkpt lat="52.038160" lon="05.782298"><ele>51.7</ele><time>2022-04-12T14:28:48Z</time><name>PT652</name></trkpt>
<trkpt lat="52.038168" lon="05.782289"><ele>51.7</ele><time>2022-04-12T14:28:49Z</time><name>PT653</name></trkpt>
<trkpt lat="52.038176" lon="05.782283"><ele>51.8</ele><time>2022-04-12T14:28:51Z</time><name>PT654</name></trkpt>
<trkpt lat="52.038183" lon="05.782273"><ele>51.8</ele><time>2022-04-12T14:28:51Z</time><name>PT655</name></trkpt>
<trkpt lat="52.038193" lon="05.782258"><ele>51.8</ele><time>2022-04-12T14:28:53Z</time><name>PT656</name></trkpt>
<trkpt lat="52.038208" lon="05.782244"><ele>51.7</ele><time>2022-04-12T14:28:53Z</time><name>PT657</name></trkpt>
<trkpt lat="52.038221" lon="05.782227"><ele>51.8</ele><time>2022-04-12T14:28:54Z</time><name>PT658</name></trkpt>
<trkpt lat="52.038232" lon="05.782213"><ele>51.9</ele><time>2022-04-12T14:28:55Z</time><name>PT659</name></trkpt>
<trkpt lat="52.038242" lon="05.782198"><ele>52.1</ele><time>2022-04-12T14:28:56Z</time><name>PT660</name></trkpt>
<trkpt lat="52.038251" lon="05.782192"><ele>52.2</ele><time>2022-04-12T14:28:57Z</time><name>PT661</name></trkpt>
<trkpt lat="52.038262" lon="05.782191"><ele>52.1</ele><time>2022-04-12T14:28:58Z</time><name>PT662</name></trkpt>
<trkpt lat="52.038276" lon="05.782180"><ele>52.1</ele><time>2022-04-12T14:28:59Z</time><name>PT663</name></trkpt>
<trkpt lat="52.038290" lon="05.782165"><ele>52</ele><time>2022-04-12T14:29:01Z</time><name>PT664</name></trkpt>
<trkpt lat="52.038306" lon="05.782162"><ele>51.7</ele><time>2022-04-12T14:29:01Z</time><name>PT665</name></trkpt>
<trkpt lat="52.038313" lon="05.782156"><ele>51.7</ele><time>2022-04-12T14:29:03Z</time><name>PT666</name></trkpt>
<trkpt lat="52.038321" lon="05.782148"><ele>51.7</ele><time>2022-04-12T14:29:03Z</time><name>PT667</name></trkpt>
<trkpt lat="52.038328" lon="05.782143"><ele>51.8</ele><time>2022-04-12T14:29:04Z</time><name>PT668</name></trkpt>
<trkpt lat="52.038338" lon="05.782134"><ele>51.9</ele><time>2022-04-12T14:29:05Z</time><name>PT669</name></trkpt>
<trkpt lat="52.038354" lon="05.782126"><ele>52</ele><time>2022-04-12T14:29:06Z</time><name>PT670</name></trkpt>
<trkpt lat="52.038366" lon="05.782108"><ele>51.8</ele><time>2022-04-12T14:29:07Z</time><name>PT671</name></trkpt>
<trkpt lat="52.038378" lon="05.782089"><ele>51.7</ele><time>2022-04-12T14:29:08Z</time><name>PT672</name></trkpt>
<trkpt lat="52.038385" lon="05.782081"><ele>51.6</ele><time>2022-04-12T14:29:09Z</time><name>PT673</name></trkpt>
<trkpt lat="52.038392" lon="05.782069"><ele>51.7</ele><time>2022-04-12T14:29:10Z</time><name>PT674</name></trkpt>
<trkpt lat="52.038406" lon="05.782068"><ele>51.6</ele><time>2022-04-12T14:29:11Z</time><name>PT675</name></trkpt>
<trkpt lat="52.038416" lon="05.782061"><ele>51.7</ele><time>2022-04-12T14:29:13Z</time><name>PT676</name></trkpt>
<trkpt lat="52.038425" lon="05.782042"><ele>51.7</ele><time>2022-04-12T14:29:13Z</time><name>PT677</name></trkpt>
<trkpt lat="52.038432" lon="05.782025"><ele>51.4</ele><time>2022-04-12T14:29:14Z</time><name>PT678</name></trkpt>
<trkpt lat="52.038437" lon="05.782015"><ele>51.4</ele><time>2022-04-12T14:29:15Z</time><name>PT679</name></trkpt>
<trkpt lat="52.038441" lon="05.782003"><ele>51.4</ele><time>2022-04-12T14:29:16Z</time><name>PT680</name></trkpt>
<trkpt lat="52.038457" lon="05.781999"><ele>51.3</ele><time>2022-04-12T14:29:17Z</time><name>PT681</name></trkpt>
<trkpt lat="52.038473" lon="05.781991"><ele>51.3</ele><time>2022-04-12T14:29:19Z</time><name>PT682</name></trkpt>
<trkpt lat="52.038486" lon="05.781978"><ele>51.4</ele><time>2022-04-12T14:29:19Z</time><name>PT683</name></trkpt>
<trkpt lat="52.038493" lon="05.781960"><ele>51.3</ele><time>2022-04-12T14:29:21Z</time><name>PT684</name></trkpt>
<trkpt lat="52.038497" lon="05.781948"><ele>51.3</ele><time>2022-04-12T14:29:21Z</time><name>PT685</name></trkpt>
<trkpt lat="52.038504" lon="05.781941"><ele>51.5</ele><time>2022-04-12T14:29:23Z</time><name>PT686</name></trkpt>
<trkpt lat="52.038516" lon="05.781937"><ele>51.5</ele><time>2022-04-12T14:29:23Z</time><name>PT687</name></trkpt>
<trkpt lat="52.038529" lon="05.781931"><ele>51.7</ele><time>2022-04-12T14:29:24Z</time><name>PT688</name></trkpt>
<trkpt lat="52.038540" lon="05.781918"><ele>51.7</ele><time>2022-04-12T14:29:25Z</time><name>PT689</name></trkpt>
<trkpt lat="52.038550" lon="05.781903"><ele>51.7</ele><time>2022-04-12T14:29:26Z</time><name>PT690</name></trkpt>
<trkpt lat="52.038555" lon="05.781891"><ele>51.6</ele><time>2022-04-12T14:29:27Z</time><name>PT691</name></trkpt>
<trkpt lat="52.038564" lon="05.781884"><ele>51.6</ele><time>2022-04-12T14:29:28Z</time><name>PT692</name></trkpt>
<trkpt lat="52.038573" lon="05.781879"><ele>51.4</ele><time>2022-04-12T14:29:29Z</time><name>PT693</name></trkpt>
<trkpt lat="52.038583" lon="05.781871"><ele>51.4</ele><time>2022-04-12T14:29:30Z</time><name>PT694</name></trkpt>
<trkpt lat="52.038594" lon="05.781868"><ele>51.6</ele><time>2022-04-12T14:29:31Z</time><name>PT695</name></trkpt>
<trkpt lat="52.038608" lon="05.781862"><ele>51.6</ele><time>2022-04-12T14:29:32Z</time><name>PT696</name></trkpt>
<trkpt lat="52.038616" lon="05.781852"><ele>51.6</ele><time>2022-04-12T14:29:33Z</time><name>PT697</name></trkpt>
<trkpt lat="52.038621" lon="05.781845"><ele>51.7</ele><time>2022-04-12T14:29:34Z</time><name>PT698</name></trkpt>
<trkpt lat="52.038634" lon="05.781843"><ele>51.6</ele><time>2022-04-12T14:29:35Z</time><name>PT699</name></trkpt>
<trkpt lat="52.038647" lon="05.781837"><ele>51.4</ele><time>2022-04-12T14:29:36Z</time><name>PT700</name></trkpt>
<trkpt lat="52.038661" lon="05.781829"><ele>51.2</ele><time>2022-04-12T14:29:37Z</time><name>PT701</name></trkpt>
<trkpt lat="52.038667" lon="05.781818"><ele>51.2</ele><time>2022-04-12T14:29:38Z</time><name>PT702</name></trkpt>
<trkpt lat="52.038679" lon="05.781811"><ele>51.2</ele><time>2022-04-12T14:29:39Z</time><name>PT703</name></trkpt>
<trkpt lat="52.038684" lon="05.781799"><ele>51.2</ele><time>2022-04-12T14:29:40Z</time><name>PT704</name></trkpt>
<trkpt lat="52.038690" lon="05.781794"><ele>51.2</ele><time>2022-04-12T14:29:41Z</time><name>PT705</name></trkpt>
<trkpt lat="52.038700" lon="05.781783"><ele>51.3</ele><time>2022-04-12T14:29:42Z</time><name>PT706</name></trkpt>
<trkpt lat="52.038712" lon="05.781775"><ele>51.2</ele><time>2022-04-12T14:29:43Z</time><name>PT707</name></trkpt>
<trkpt lat="52.038723" lon="05.781762"><ele>51</ele><time>2022-04-12T14:29:44Z</time><name>PT708</name></trkpt>
<trkpt lat="52.038731" lon="05.781750"><ele>51.1</ele><time>2022-04-12T14:29:45Z</time><name>PT709</name></trkpt>
<trkpt lat="52.038738" lon="05.781745"><ele>51.2</ele><time>2022-04-12T14:29:46Z</time><name>PT710</name></trkpt>
<trkpt lat="52.038741" lon="05.781739"><ele>51.2</ele><time>2022-04-12T14:29:47Z</time><name>PT711</name></trkpt>
<trkpt lat="52.038755" lon="05.781727"><ele>51.1</ele><time>2022-04-12T14:29:48Z</time><name>PT712</name></trkpt>
<trkpt lat="52.038771" lon="05.781718"><ele>51.3</ele><time>2022-04-12T14:29:49Z</time><name>PT713</name></trkpt>
<trkpt lat="52.038785" lon="05.781700"><ele>51.3</ele><time>2022-04-12T14:29:50Z</time><name>PT714</name></trkpt>
<trkpt lat="52.038792" lon="05.781692"><ele>51.2</ele><time>2022-04-12T14:29:51Z</time><name>PT715</name></trkpt>
<trkpt lat="52.038799" lon="05.781687"><ele>51.2</ele><time>2022-04-12T14:29:52Z</time><name>PT716</name></trkpt>
<trkpt lat="52.038809" lon="05.781680"><ele>51.2</ele><time>2022-04-12T14:29:53Z</time><name>PT717</name></trkpt>
<trkpt lat="52.038823" lon="05.781669"><ele>51.3</ele><time>2022-04-12T14:29:54Z</time><name>PT718</name></trkpt>
<trkpt lat="52.038838" lon="05.781658"><ele>51.2</ele><time>2022-04-12T14:29:55Z</time><name>PT719</name></trkpt>
<trkpt lat="52.038849" lon="05.781644"><ele>51.2</ele><time>2022-04-12T14:29:56Z</time><name>PT720</name></trkpt>
<trkpt lat="52.038852" lon="05.781635"><ele>51.4</ele><time>2022-04-12T14:29:57Z</time><name>PT721</name></trkpt>
<trkpt lat="52.038859" lon="05.781627"><ele>51.3</ele><time>2022-04-12T14:29:58Z</time><name>PT722</name></trkpt>
<trkpt lat="52.038865" lon="05.781621"><ele>51.3</ele><time>2022-04-12T14:29:59Z</time><name>PT723</name></trkpt>
<trkpt lat="52.038878" lon="05.781626"><ele>51.6</ele><time>2022-04-12T14:30:00Z</time><name>PT724</name></trkpt>
<trkpt lat="52.038891" lon="05.781635"><ele>51.4</ele><time>2022-04-12T14:30:01Z</time><name>PT725</name></trkpt>
<trkpt lat="52.038896" lon="05.781634"><ele>51.4</ele><time>2022-04-12T14:30:02Z</time><name>PT726</name></trkpt>
<trkpt lat="52.038903" lon="05.781628"><ele>51.5</ele><time>2022-04-12T14:30:03Z</time><name>PT727</name></trkpt>
<trkpt lat="52.038908" lon="05.781619"><ele>51.4</ele><time>2022-04-12T14:30:04Z</time><name>PT728</name></trkpt>
<trkpt lat="52.038916" lon="05.781604"><ele>51.5</ele><time>2022-04-12T14:30:05Z</time><name>PT729</name></trkpt>
<trkpt lat="52.038931" lon="05.781589"><ele>51.4</ele><time>2022-04-12T14:30:06Z</time><name>PT730</name></trkpt>
<trkpt lat="52.038948" lon="05.781579"><ele>51.3</ele><time>2022-04-12T14:30:07Z</time><name>PT731</name></trkpt>
<trkpt lat="52.038955" lon="05.781572"><ele>51.5</ele><time>2022-04-12T14:30:08Z</time><name>PT732</name></trkpt>
<trkpt lat="52.038956" lon="05.781557"><ele>51.6</ele><time>2022-04-12T14:30:09Z</time><name>PT733</name></trkpt>
<trkpt lat="52.038962" lon="05.781550"><ele>51.7</ele><time>2022-04-12T14:30:11Z</time><name>PT734</name></trkpt>
<trkpt lat="52.038972" lon="05.781539"><ele>51.7</ele><time>2022-04-12T14:30:11Z</time><name>PT735</name></trkpt>
<trkpt lat="52.038986" lon="05.781528"><ele>51.7</ele><time>2022-04-12T14:30:12Z</time><name>PT736</name></trkpt>
<trkpt lat="52.038995" lon="05.781515"><ele>51.7</ele><time>2022-04-12T14:30:13Z</time><name>PT737</name></trkpt>
<trkpt lat="52.039000" lon="05.781507"><ele>51.7</ele><time>2022-04-12T14:30:14Z</time><name>PT738</name></trkpt>
<trkpt lat="52.039008" lon="05.781501"><ele>51.5</ele><time>2022-04-12T14:30:15Z</time><name>PT739</name></trkpt>
<trkpt lat="52.039014" lon="05.781485"><ele>51.6</ele><time>2022-04-12T14:30:16Z</time><name>PT740</name></trkpt>
<trkpt lat="52.039029" lon="05.781479"><ele>51.6</ele><time>2022-04-12T14:30:17Z</time><name>PT741</name></trkpt>
<trkpt lat="52.039040" lon="05.781469"><ele>51.7</ele><time>2022-04-12T14:30:18Z</time><name>PT742</name></trkpt>
<trkpt lat="52.039048" lon="05.781457"><ele>51.7</ele><time>2022-04-12T14:30:19Z</time><name>PT743</name></trkpt>
<trkpt lat="52.039052" lon="05.781448"><ele>51.7</ele><time>2022-04-12T14:30:21Z</time><name>PT744</name></trkpt>
<trkpt lat="52.039058" lon="05.781441"><ele>51.7</ele><time>2022-04-12T14:30:21Z</time><name>PT745</name></trkpt>
<trkpt lat="52.039062" lon="05.781431"><ele>51.7</ele><time>2022-04-12T14:30:23Z</time><name>PT746</name></trkpt>
<trkpt lat="52.039070" lon="05.781420"><ele>51.6</ele><time>2022-04-12T14:30:23Z</time><name>PT747</name></trkpt>
<trkpt lat="52.039076" lon="05.781398"><ele>51.6</ele><time>2022-04-12T14:30:25Z</time><name>PT748</name></trkpt>
<trkpt lat="52.039084" lon="05.781386"><ele>51.6</ele><time>2022-04-12T14:30:25Z</time><name>PT749</name></trkpt>
<trkpt lat="52.039086" lon="05.781383"><ele>51.7</ele><time>2022-04-12T14:30:27Z</time><name>PT750</name></trkpt>
<trkpt lat="52.039092" lon="05.781379"><ele>51.6</ele><time>2022-04-12T14:30:27Z</time><name>PT751</name></trkpt>
<trkpt lat="52.039109" lon="05.781372"><ele>51.7</ele><time>2022-04-12T14:30:29Z</time><name>PT752</name></trkpt>
<trkpt lat="52.039123" lon="05.781356"><ele>51.7</ele><time>2022-04-12T14:30:29Z</time><name>PT753</name></trkpt>
<trkpt lat="52.039131" lon="05.781345"><ele>51.7</ele><time>2022-04-12T14:30:30Z</time><name>PT754</name></trkpt>
<trkpt lat="52.039135" lon="05.781337"><ele>51.7</ele><time>2022-04-12T14:30:31Z</time><name>PT755</name></trkpt>
<trkpt lat="52.039143" lon="05.781327"><ele>51.7</ele><time>2022-04-12T14:30:32Z</time><name>PT756</name></trkpt>
<trkpt lat="52.039154" lon="05.781316"><ele>51.8</ele><time>2022-04-12T14:30:33Z</time><name>PT757</name></trkpt>
<trkpt lat="52.039169" lon="05.781313"><ele>51.8</ele><time>2022-04-12T14:30:34Z</time><name>PT758</name></trkpt>
<trkpt lat="52.039181" lon="05.781301"><ele>51.9</ele><time>2022-04-12T14:30:35Z</time><name>PT759</name></trkpt>
<trkpt lat="52.039191" lon="05.781289"><ele>51.7</ele><time>2022-04-12T14:30:36Z</time><name>PT760</name></trkpt>
<trkpt lat="52.039196" lon="05.781280"><ele>51.7</ele><time>2022-04-12T14:30:37Z</time><name>PT761</name></trkpt>
<trkpt lat="52.039201" lon="05.781274"><ele>51.5</ele><time>2022-04-12T14:30:38Z</time><name>PT762</name></trkpt>
<trkpt lat="52.039211" lon="05.781268"><ele>51.5</ele><time>2022-04-12T14:30:39Z</time><name>PT763</name></trkpt>
<trkpt lat="52.039221" lon="05.781259"><ele>51.4</ele><time>2022-04-12T14:30:40Z</time><name>PT764</name></trkpt>
<trkpt lat="52.039234" lon="05.781246"><ele>51.4</ele><time>2022-04-12T14:30:41Z</time><name>PT765</name></trkpt>
<trkpt lat="52.039242" lon="05.781237"><ele>51.4</ele><time>2022-04-12T14:30:42Z</time><name>PT766</name></trkpt>
<trkpt lat="52.039247" lon="05.781212"><ele>51.4</ele><time>2022-04-12T14:30:43Z</time><name>PT767</name></trkpt>
<trkpt lat="52.039256" lon="05.781199"><ele>51.3</ele><time>2022-04-12T14:30:44Z</time><name>PT768</name></trkpt>
<trkpt lat="52.039263" lon="05.781184"><ele>51.4</ele><time>2022-04-12T14:30:45Z</time><name>PT769</name></trkpt>
<trkpt lat="52.039277" lon="05.781182"><ele>51.5</ele><time>2022-04-12T14:30:46Z</time><name>PT770</name></trkpt>
<trkpt lat="52.039280" lon="05.781159"><ele>51.6</ele><time>2022-04-12T14:30:47Z</time><name>PT771</name></trkpt>
<trkpt lat="52.039287" lon="05.781147"><ele>51.7</ele><time>2022-04-12T14:30:48Z</time><name>PT772</name></trkpt>
<trkpt lat="52.039294" lon="05.781133"><ele>51.6</ele><time>2022-04-12T14:30:49Z</time><name>PT773</name></trkpt>
<trkpt lat="52.039301" lon="05.781118"><ele>51.7</ele><time>2022-04-12T14:30:50Z</time><name>PT774</name></trkpt>
<trkpt lat="52.039306" lon="05.781108"><ele>51.8</ele><time>2022-04-12T14:30:51Z</time><name>PT775</name></trkpt>
<trkpt lat="52.039319" lon="05.781099"><ele>51.7</ele><time>2022-04-12T14:30:52Z</time><name>PT776</name></trkpt>
<trkpt lat="52.039328" lon="05.781087"><ele>51.7</ele><time>2022-04-12T14:30:53Z</time><name>PT777</name></trkpt>
<trkpt lat="52.039334" lon="05.781074"><ele>51.6</ele><time>2022-04-12T14:30:54Z</time><name>PT778</name></trkpt>
<trkpt lat="52.039343" lon="05.781064"><ele>51.5</ele><time>2022-04-12T14:30:55Z</time><name>PT779</name></trkpt>
<trkpt lat="52.039347" lon="05.781053"><ele>51.5</ele><time>2022-04-12T14:30:56Z</time><name>PT780</name></trkpt>
<trkpt lat="52.039357" lon="05.781046"><ele>51.5</ele><time>2022-04-12T14:30:57Z</time><name>PT781</name></trkpt>
<trkpt lat="52.039369" lon="05.781037"><ele>51.5</ele><time>2022-04-12T14:30:58Z</time><name>PT782</name></trkpt>
<trkpt lat="52.039379" lon="05.781021"><ele>51.6</ele><time>2022-04-12T14:30:59Z</time><name>PT783</name></trkpt>
<trkpt lat="52.039394" lon="05.781008"><ele>51.7</ele><time>2022-04-12T14:31:00Z</time><name>PT784</name></trkpt>
<trkpt lat="52.039400" lon="05.780997"><ele>51.7</ele><time>2022-04-12T14:31:01Z</time><name>PT785</name></trkpt>
<trkpt lat="52.039401" lon="05.780988"><ele>51.7</ele><time>2022-04-12T14:31:03Z</time><name>PT786</name></trkpt>
<trkpt lat="52.039410" lon="05.780981"><ele>51.7</ele><time>2022-04-12T14:31:03Z</time><name>PT787</name></trkpt>
<trkpt lat="52.039428" lon="05.780976"><ele>51.6</ele><time>2022-04-12T14:31:04Z</time><name>PT788</name></trkpt>
<trkpt lat="52.039450" lon="05.780967"><ele>51.6</ele><time>2022-04-12T14:31:05Z</time><name>PT789</name></trkpt>
<trkpt lat="52.039463" lon="05.780953"><ele>51.5</ele><time>2022-04-12T14:31:06Z</time><name>PT790</name></trkpt>
<trkpt lat="52.039469" lon="05.780949"><ele>51.7</ele><time>2022-04-12T14:31:07Z</time><name>PT791</name></trkpt>
<trkpt lat="52.039479" lon="05.780946"><ele>51.6</ele><time>2022-04-12T14:31:08Z</time><name>PT792</name></trkpt>
<trkpt lat="52.039487" lon="05.780935"><ele>51.7</ele><time>2022-04-12T14:31:09Z</time><name>PT793</name></trkpt>
<trkpt lat="52.039496" lon="05.780922"><ele>51.7</ele><time>2022-04-12T14:31:10Z</time><name>PT794</name></trkpt>
<trkpt lat="52.039506" lon="05.780909"><ele>51.7</ele><time>2022-04-12T14:31:11Z</time><name>PT795</name></trkpt>
<trkpt lat="52.039514" lon="05.780897"><ele>51.7</ele><time>2022-04-12T14:31:12Z</time><name>PT796</name></trkpt>
<trkpt lat="52.039520" lon="05.780891"><ele>51.7</ele><time>2022-04-12T14:31:13Z</time><name>PT797</name></trkpt>
<trkpt lat="52.039522" lon="05.780884"><ele>51.7</ele><time>2022-04-12T14:31:14Z</time><name>PT798</name></trkpt>
<trkpt lat="52.039524" lon="05.780881"><ele>51.7</ele><time>2022-04-12T14:31:15Z</time><name>PT799</name></trkpt>
<trkpt lat="52.039533" lon="05.780871"><ele>51.9</ele><time>2022-04-12T14:31:16Z</time><name>PT800</name></trkpt>
<trkpt lat="52.039543" lon="05.780860"><ele>51.9</ele><time>2022-04-12T14:31:17Z</time><name>PT801</name></trkpt>
<trkpt lat="52.039555" lon="05.780859"><ele>51.9</ele><time>2022-04-12T14:31:18Z</time><name>PT802</name></trkpt>
<trkpt lat="52.039561" lon="05.780860"><ele>51.8</ele><time>2022-04-12T14:31:19Z</time><name>PT803</name></trkpt>
<trkpt lat="52.039566" lon="05.780851"><ele>51.9</ele><time>2022-04-12T14:31:20Z</time><name>PT804</name></trkpt>
<trkpt lat="52.039574" lon="05.780842"><ele>51.9</ele><time>2022-04-12T14:31:21Z</time><name>PT805</name></trkpt>
<trkpt lat="52.039581" lon="05.780823"><ele>52.1</ele><time>2022-04-12T14:31:22Z</time><name>PT806</name></trkpt>
<trkpt lat="52.039590" lon="05.780817"><ele>52.1</ele><time>2022-04-12T14:31:23Z</time><name>PT807</name></trkpt>
<trkpt lat="52.039601" lon="05.780808"><ele>52.2</ele><time>2022-04-12T14:31:24Z</time><name>PT808</name></trkpt>
<trkpt lat="52.039607" lon="05.780797"><ele>52.2</ele><time>2022-04-12T14:31:25Z</time><name>PT809</name></trkpt>
<trkpt lat="52.039615" lon="05.780788"><ele>52.3</ele><time>2022-04-12T14:31:26Z</time><name>PT810</name></trkpt>
<trkpt lat="52.039625" lon="05.780780"><ele>52.2</ele><time>2022-04-12T14:31:27Z</time><name>PT811</name></trkpt>
<trkpt lat="52.039631" lon="05.780774"><ele>52.3</ele><time>2022-04-12T14:31:28Z</time><name>PT812</name></trkpt>
<trkpt lat="52.039630" lon="05.780764"><ele>52.3</ele><time>2022-04-12T14:31:29Z</time><name>PT813</name></trkpt>
<trkpt lat="52.039625" lon="05.780755"><ele>52.2</ele><time>2022-04-12T14:31:30Z</time><name>PT814</name></trkpt>
<trkpt lat="52.039627" lon="05.780755"><ele>52.2</ele><time>2022-04-12T14:31:31Z</time><name>PT815</name></trkpt>
<trkpt lat="52.039631" lon="05.780756"><ele>52.1</ele><time>2022-04-12T14:31:32Z</time><name>PT816</name></trkpt>
<trkpt lat="52.039634" lon="05.780757"><ele>52.1</ele><time>2022-04-12T14:31:33Z</time><name>PT817</name></trkpt>
<trkpt lat="52.039636" lon="05.780751"><ele>51.9</ele><time>2022-04-12T14:31:34Z</time><name>PT818</name></trkpt>
<trkpt lat="52.039643" lon="05.780744"><ele>51.9</ele><time>2022-04-12T14:31:35Z</time><name>PT819</name></trkpt>
<trkpt lat="52.039652" lon="05.780735"><ele>51.8</ele><time>2022-04-12T14:31:36Z</time><name>PT820</name></trkpt>
<trkpt lat="52.039659" lon="05.780727"><ele>51.9</ele><time>2022-04-12T14:31:37Z</time><name>PT821</name></trkpt>
<trkpt lat="52.039663" lon="05.780721"><ele>52</ele><time>2022-04-12T14:31:38Z</time><name>PT822</name></trkpt>
<trkpt lat="52.039672" lon="05.780709"><ele>52.2</ele><time>2022-04-12T14:31:39Z</time><name>PT823</name></trkpt>
<trkpt lat="52.039686" lon="05.780702"><ele>52.2</ele><time>2022-04-12T14:31:40Z</time><name>PT824</name></trkpt>
<trkpt lat="52.039698" lon="05.780694"><ele>52.3</ele><time>2022-04-12T14:31:41Z</time><name>PT825</name></trkpt>
<trkpt lat="52.039707" lon="05.780687"><ele>52.4</ele><time>2022-04-12T14:31:42Z</time><name>PT826</name></trkpt>
<trkpt lat="52.039727" lon="05.780671"><ele>52.4</ele><time>2022-04-12T14:31:43Z</time><name>PT827</name></trkpt>
<trkpt lat="52.039743" lon="05.780659"><ele>52.5</ele><time>2022-04-12T14:31:44Z</time><name>PT828</name></trkpt>
<trkpt lat="52.039753" lon="05.780650"><ele>52.4</ele><time>2022-04-12T14:31:45Z</time><name>PT829</name></trkpt>
<trkpt lat="52.039758" lon="05.780643"><ele>52.3</ele><time>2022-04-12T14:31:46Z</time><name>PT830</name></trkpt>
<trkpt lat="52.039763" lon="05.780636"><ele>52.2</ele><time>2022-04-12T14:31:47Z</time><name>PT831</name></trkpt>
<trkpt lat="52.039776" lon="05.780632"><ele>52.4</ele><time>2022-04-12T14:31:48Z</time><name>PT832</name></trkpt>
<trkpt lat="52.039789" lon="05.780627"><ele>52.5</ele><time>2022-04-12T14:31:49Z</time><name>PT833</name></trkpt>
<trkpt lat="52.039805" lon="05.780619"><ele>52.5</ele><time>2022-04-12T14:31:50Z</time><name>PT834</name></trkpt>
<trkpt lat="52.039818" lon="05.780607"><ele>52.7</ele><time>2022-04-12T14:31:51Z</time><name>PT835</name></trkpt>
<trkpt lat="52.039828" lon="05.780595"><ele>52.6</ele><time>2022-04-12T14:31:52Z</time><name>PT836</name></trkpt>
<trkpt lat="52.039835" lon="05.780588"><ele>52.6</ele><time>2022-04-12T14:31:53Z</time><name>PT837</name></trkpt>
<trkpt lat="52.039844" lon="05.780580"><ele>52.5</ele><time>2022-04-12T14:31:54Z</time><name>PT838</name></trkpt>
<trkpt lat="52.039852" lon="05.780568"><ele>52.4</ele><time>2022-04-12T14:31:55Z</time><name>PT839</name></trkpt>
<trkpt lat="52.039866" lon="05.780557"><ele>52.3</ele><time>2022-04-12T14:31:56Z</time><name>PT840</name></trkpt>
<trkpt lat="52.039881" lon="05.780548"><ele>52.3</ele><time>2022-04-12T14:31:57Z</time><name>PT841</name></trkpt>
<trkpt lat="52.039887" lon="05.780536"><ele>52.3</ele><time>2022-04-12T14:31:58Z</time><name>PT842</name></trkpt>
<trkpt lat="52.039889" lon="05.780527"><ele>52.5</ele><time>2022-04-12T14:31:59Z</time><name>PT843</name></trkpt>
<trkpt lat="52.039889" lon="05.780521"><ele>52.6</ele><time>2022-04-12T14:32:00Z</time><name>PT844</name></trkpt>
<trkpt lat="52.039899" lon="05.780519"><ele>52.7</ele><time>2022-04-12T14:32:01Z</time><name>PT845</name></trkpt>
<trkpt lat="52.039910" lon="05.780520"><ele>52.6</ele><time>2022-04-12T14:32:02Z</time><name>PT846</name></trkpt>
<trkpt lat="52.039925" lon="05.780521"><ele>52.7</ele><time>2022-04-12T14:32:03Z</time><name>PT847</name></trkpt>
<trkpt lat="52.039933" lon="05.780509"><ele>52.5</ele><time>2022-04-12T14:32:04Z</time><name>PT848</name></trkpt>
<trkpt lat="52.039938" lon="05.780498"><ele>52.2</ele><time>2022-04-12T14:32:05Z</time><name>PT849</name></trkpt>
<trkpt lat="52.039945" lon="05.780491"><ele>52.2</ele><time>2022-04-12T14:32:06Z</time><name>PT850</name></trkpt>
<trkpt lat="52.039951" lon="05.780480"><ele>52.1</ele><time>2022-04-12T14:32:07Z</time><name>PT851</name></trkpt>
<trkpt lat="52.039965" lon="05.780469"><ele>52</ele><time>2022-04-12T14:32:08Z</time><name>PT852</name></trkpt>
<trkpt lat="52.039976" lon="05.780452"><ele>52.2</ele><time>2022-04-12T14:32:09Z</time><name>PT853</name></trkpt>
<trkpt lat="52.039989" lon="05.780433"><ele>52.2</ele><time>2022-04-12T14:32:10Z</time><name>PT854</name></trkpt>
<trkpt lat="52.039999" lon="05.780426"><ele>52.2</ele><time>2022-04-12T14:32:11Z</time><name>PT855</name></trkpt>
<trkpt lat="52.040007" lon="05.780417"><ele>52.3</ele><time>2022-04-12T14:32:12Z</time><name>PT856</name></trkpt>
<trkpt lat="52.040016" lon="05.780409"><ele>52.4</ele><time>2022-04-12T14:32:13Z</time><name>PT857</name></trkpt>
<trkpt lat="52.040028" lon="05.780397"><ele>52.3</ele><time>2022-04-12T14:32:14Z</time><name>PT858</name></trkpt>
<trkpt lat="52.040036" lon="05.780384"><ele>52.5</ele><time>2022-04-12T14:32:15Z</time><name>PT859</name></trkpt>
<trkpt lat="52.040046" lon="05.780371"><ele>52.7</ele><time>2022-04-12T14:32:16Z</time><name>PT860</name></trkpt>
<trkpt lat="52.040059" lon="05.780357"><ele>52.6</ele><time>2022-04-12T14:32:17Z</time><name>PT861</name></trkpt>
<trkpt lat="52.040071" lon="05.780344"><ele>52.7</ele><time>2022-04-12T14:32:18Z</time><name>PT862</name></trkpt>
<trkpt lat="52.040084" lon="05.780330"><ele>52.8</ele><time>2022-04-12T14:32:19Z</time><name>PT863</name></trkpt>
<trkpt lat="52.040090" lon="05.780322"><ele>52.7</ele><time>2022-04-12T14:32:20Z</time><name>PT864</name></trkpt>
<trkpt lat="52.040102" lon="05.780312"><ele>52.7</ele><time>2022-04-12T14:32:21Z</time><name>PT865</name></trkpt>
<trkpt lat="52.040110" lon="05.780303"><ele>52.8</ele><time>2022-04-12T14:32:22Z</time><name>PT866</name></trkpt>
<trkpt lat="52.040123" lon="05.780297"><ele>52.7</ele><time>2022-04-12T14:32:23Z</time><name>PT867</name></trkpt>
<trkpt lat="52.040139" lon="05.780289"><ele>52.7</ele><time>2022-04-12T14:32:24Z</time><name>PT868</name></trkpt>
<trkpt lat="52.040151" lon="05.780285"><ele>52.7</ele><time>2022-04-12T14:32:25Z</time><name>PT869</name></trkpt>
<trkpt lat="52.040160" lon="05.780287"><ele>52.7</ele><time>2022-04-12T14:32:27Z</time><name>PT870</name></trkpt>
<trkpt lat="52.040164" lon="05.780284"><ele>52.6</ele><time>2022-04-12T14:32:27Z</time><name>PT871</name></trkpt>
<trkpt lat="52.040157" lon="05.780280"><ele>52.6</ele><time>2022-04-12T14:32:29Z</time><name>PT872</name></trkpt>
<trkpt lat="52.040154" lon="05.780283"><ele>52.5</ele><time>2022-04-12T14:32:29Z</time><name>PT873</name></trkpt>
<trkpt lat="52.040155" lon="05.780290"><ele>52.7</ele><time>2022-04-12T14:32:30Z</time><name>PT874</name></trkpt>
<trkpt lat="52.040155" lon="05.780293"><ele>52.7</ele><time>2022-04-12T14:32:31Z</time><name>PT875</name></trkpt>
<trkpt lat="52.040155" lon="05.780290"><ele>52.5</ele><time>2022-04-12T14:32:40Z</time><name>PT876</name></trkpt>
<trkpt lat="52.040164" lon="05.780278"><ele>52.6</ele><time>2022-04-12T14:32:41Z</time><name>PT877</name></trkpt>
<trkpt lat="52.040172" lon="05.780257"><ele>52.6</ele><time>2022-04-12T14:32:42Z</time><name>PT878</name></trkpt>
<trkpt lat="52.040181" lon="05.780244"><ele>52.5</ele><time>2022-04-12T14:32:43Z</time><name>PT879</name></trkpt>
<trkpt lat="52.040187" lon="05.780237"><ele>52.7</ele><time>2022-04-12T14:32:44Z</time><name>PT880</name></trkpt>
<trkpt lat="52.040193" lon="05.780230"><ele>52.6</ele><time>2022-04-12T14:32:45Z</time><name>PT881</name></trkpt>
<trkpt lat="52.040204" lon="05.780222"><ele>52.7</ele><time>2022-04-12T14:32:47Z</time><name>PT882</name></trkpt>
<trkpt lat="52.040220" lon="05.780206"><ele>52.7</ele><time>2022-04-12T14:32:47Z</time><name>PT883</name></trkpt>
<trkpt lat="52.040229" lon="05.780193"><ele>52.7</ele><time>2022-04-12T14:32:49Z</time><name>PT884</name></trkpt>
<trkpt lat="52.040235" lon="05.780178"><ele>52.6</ele><time>2022-04-12T14:32:49Z</time><name>PT885</name></trkpt>
<trkpt lat="52.040241" lon="05.780167"><ele>52.5</ele><time>2022-04-12T14:32:50Z</time><name>PT886</name></trkpt>
<trkpt lat="52.040246" lon="05.780158"><ele>52.3</ele><time>2022-04-12T14:32:51Z</time><name>PT887</name></trkpt>
<trkpt lat="52.040256" lon="05.780140"><ele>52.2</ele><time>2022-04-12T14:32:52Z</time><name>PT888</name></trkpt>
<trkpt lat="52.040265" lon="05.780119"><ele>52.2</ele><time>2022-04-12T14:32:53Z</time><name>PT889</name></trkpt>
<trkpt lat="52.040270" lon="05.780106"><ele>52.3</ele><time>2022-04-12T14:32:54Z</time><name>PT890</name></trkpt>
<trkpt lat="52.040276" lon="05.780097"><ele>52.3</ele><time>2022-04-12T14:32:55Z</time><name>PT891</name></trkpt>
<trkpt lat="52.040281" lon="05.780086"><ele>52.1</ele><time>2022-04-12T14:32:57Z</time><name>PT892</name></trkpt>
<trkpt lat="52.040292" lon="05.780076"><ele>52</ele><time>2022-04-12T14:32:57Z</time><name>PT893</name></trkpt>
<trkpt lat="52.040300" lon="05.780061"><ele>52.2</ele><time>2022-04-12T14:32:59Z</time><name>PT894</name></trkpt>
<trkpt lat="52.040307" lon="05.780046"><ele>52.1</ele><time>2022-04-12T14:32:59Z</time><name>PT895</name></trkpt>
<trkpt lat="52.040315" lon="05.780036"><ele>52.1</ele><time>2022-04-12T14:33:00Z</time><name>PT896</name></trkpt>
<trkpt lat="52.040323" lon="05.780033"><ele>52.2</ele><time>2022-04-12T14:33:01Z</time><name>PT897</name></trkpt>
<trkpt lat="52.040332" lon="05.780026"><ele>52</ele><time>2022-04-12T14:33:02Z</time><name>PT898</name></trkpt>
<trkpt lat="52.040338" lon="05.780011"><ele>52</ele><time>2022-04-12T14:33:03Z</time><name>PT899</name></trkpt>
<trkpt lat="52.040348" lon="05.779994"><ele>52</ele><time>2022-04-12T14:33:04Z</time><name>PT900</name></trkpt>
<trkpt lat="52.040356" lon="05.779976"><ele>51.9</ele><time>2022-04-12T14:33:05Z</time><name>PT901</name></trkpt>
<trkpt lat="52.040360" lon="05.779966"><ele>51.8</ele><time>2022-04-12T14:33:07Z</time><name>PT902</name></trkpt>
<trkpt lat="52.040368" lon="05.779958"><ele>51.9</ele><time>2022-04-12T14:33:07Z</time><name>PT903</name></trkpt>
<trkpt lat="52.040379" lon="05.779951"><ele>52</ele><time>2022-04-12T14:33:09Z</time><name>PT904</name></trkpt>
<trkpt lat="52.040387" lon="05.779946"><ele>52</ele><time>2022-04-12T14:33:09Z</time><name>PT905</name></trkpt>
<trkpt lat="52.040395" lon="05.779932"><ele>52.1</ele><time>2022-04-12T14:33:10Z</time><name>PT906</name></trkpt>
<trkpt lat="52.040405" lon="05.779916"><ele>52</ele><time>2022-04-12T14:33:11Z</time><name>PT907</name></trkpt>
<trkpt lat="52.040411" lon="05.779909"><ele>52.1</ele><time>2022-04-12T14:33:12Z</time><name>PT908</name></trkpt>
<trkpt lat="52.040414" lon="05.779902"><ele>52.2</ele><time>2022-04-12T14:33:13Z</time><name>PT909</name></trkpt>
<trkpt lat="52.040424" lon="05.779892"><ele>52.4</ele><time>2022-04-12T14:33:14Z</time><name>PT910</name></trkpt>
<trkpt lat="52.040429" lon="05.779876"><ele>52.4</ele><time>2022-04-12T14:33:15Z</time><name>PT911</name></trkpt>
<trkpt lat="52.040434" lon="05.779863"><ele>52.5</ele><time>2022-04-12T14:33:17Z</time><name>PT912</name></trkpt>
<trkpt lat="52.040443" lon="05.779846"><ele>52.7</ele><time>2022-04-12T14:33:17Z</time><name>PT913</name></trkpt>
<trkpt lat="52.040454" lon="05.779828"><ele>52.3</ele><time>2022-04-12T14:33:19Z</time><name>PT914</name></trkpt>
<trkpt lat="52.040462" lon="05.779814"><ele>52.2</ele><time>2022-04-12T14:33:19Z</time><name>PT915</name></trkpt>
<trkpt lat="52.040466" lon="05.779801"><ele>52.1</ele><time>2022-04-12T14:33:20Z</time><name>PT916</name></trkpt>
<trkpt lat="52.040472" lon="05.779792"><ele>52.1</ele><time>2022-04-12T14:33:21Z</time><name>PT917</name></trkpt>
<trkpt lat="52.040479" lon="05.779784"><ele>51.9</ele><time>2022-04-12T14:33:22Z</time><name>PT918</name></trkpt>
<trkpt lat="52.040488" lon="05.779772"><ele>52.2</ele><time>2022-04-12T14:33:23Z</time><name>PT919</name></trkpt>
<trkpt lat="52.040500" lon="05.779759"><ele>52</ele><time>2022-04-12T14:33:24Z</time><name>PT920</name></trkpt>
<trkpt lat="52.040502" lon="05.779749"><ele>52.2</ele><time>2022-04-12T14:33:25Z</time><name>PT921</name></trkpt>
<trkpt lat="52.040506" lon="05.779738"><ele>52</ele><time>2022-04-12T14:33:26Z</time><name>PT922</name></trkpt>
<trkpt lat="52.040515" lon="05.779728"><ele>52</ele><time>2022-04-12T14:33:27Z</time><name>PT923</name></trkpt>
<trkpt lat="52.040526" lon="05.779719"><ele>52</ele><time>2022-04-12T14:33:29Z</time><name>PT924</name></trkpt>
<trkpt lat="52.040537" lon="05.779706"><ele>52.1</ele><time>2022-04-12T14:33:29Z</time><name>PT925</name></trkpt>
<trkpt lat="52.040544" lon="05.779691"><ele>52.1</ele><time>2022-04-12T14:33:30Z</time><name>PT926</name></trkpt>
<trkpt lat="52.040552" lon="05.779680"><ele>52.2</ele><time>2022-04-12T14:33:31Z</time><name>PT927</name></trkpt>
<trkpt lat="52.040559" lon="05.779673"><ele>52.2</ele><time>2022-04-12T14:33:32Z</time><name>PT928</name></trkpt>
<trkpt lat="52.040567" lon="05.779665"><ele>52</ele><time>2022-04-12T14:33:33Z</time><name>PT929</name></trkpt>
<trkpt lat="52.040574" lon="05.779656"><ele>52.2</ele><time>2022-04-12T14:33:34Z</time><name>PT930</name></trkpt>
<trkpt lat="52.040587" lon="05.779639"><ele>52</ele><time>2022-04-12T14:33:35Z</time><name>PT931</name></trkpt>
<trkpt lat="52.040600" lon="05.779618"><ele>51.9</ele><time>2022-04-12T14:33:36Z</time><name>PT932</name></trkpt>
<trkpt lat="52.040608" lon="05.779605"><ele>52</ele><time>2022-04-12T14:33:37Z</time><name>PT933</name></trkpt>
<trkpt lat="52.040612" lon="05.779596"><ele>51.9</ele><time>2022-04-12T14:33:38Z</time><name>PT934</name></trkpt>
<trkpt lat="52.040622" lon="05.779592"><ele>51.8</ele><time>2022-04-12T14:33:39Z</time><name>PT935</name></trkpt>
<trkpt lat="52.040628" lon="05.779581"><ele>52.1</ele><time>2022-04-12T14:33:40Z</time><name>PT936</name></trkpt>
<trkpt lat="52.040637" lon="05.779561"><ele>52.1</ele><time>2022-04-12T14:33:41Z</time><name>PT937</name></trkpt>
<trkpt lat="52.040644" lon="05.779544"><ele>52.2</ele><time>2022-04-12T14:33:42Z</time><name>PT938</name></trkpt>
<trkpt lat="52.040648" lon="05.779530"><ele>52.2</ele><time>2022-04-12T14:33:43Z</time><name>PT939</name></trkpt>
<trkpt lat="52.040654" lon="05.779521"><ele>52.2</ele><time>2022-04-12T14:33:44Z</time><name>PT940</name></trkpt>
<trkpt lat="52.040660" lon="05.779513"><ele>52</ele><time>2022-04-12T14:33:45Z</time><name>PT941</name></trkpt>
<trkpt lat="52.040671" lon="05.779509"><ele>52</ele><time>2022-04-12T14:33:46Z</time><name>PT942</name></trkpt>
<trkpt lat="52.040684" lon="05.779498"><ele>51.9</ele><time>2022-04-12T14:33:47Z</time><name>PT943</name></trkpt>
<trkpt lat="52.040696" lon="05.779482"><ele>52</ele><time>2022-04-12T14:33:48Z</time><name>PT944</name></trkpt>
<trkpt lat="52.040703" lon="05.779473"><ele>52.1</ele><time>2022-04-12T14:33:49Z</time><name>PT945</name></trkpt>
<trkpt lat="52.040711" lon="05.779464"><ele>52.2</ele><time>2022-04-12T14:33:50Z</time><name>PT946</name></trkpt>
<trkpt lat="52.040720" lon="05.779457"><ele>52.2</ele><time>2022-04-12T14:33:51Z</time><name>PT947</name></trkpt>
<trkpt lat="52.040729" lon="05.779446"><ele>52.2</ele><time>2022-04-12T14:33:52Z</time><name>PT948</name></trkpt>
<trkpt lat="52.040739" lon="05.779433"><ele>52.2</ele><time>2022-04-12T14:33:53Z</time><name>PT949</name></trkpt>
<trkpt lat="52.040749" lon="05.779416"><ele>52.2</ele><time>2022-04-12T14:33:54Z</time><name>PT950</name></trkpt>
<trkpt lat="52.040753" lon="05.779402"><ele>52.2</ele><time>2022-04-12T14:33:55Z</time><name>PT951</name></trkpt>
<trkpt lat="52.040757" lon="05.779393"><ele>52.2</ele><time>2022-04-12T14:33:56Z</time><name>PT952</name></trkpt>
<trkpt lat="52.040762" lon="05.779388"><ele>52.2</ele><time>2022-04-12T14:33:57Z</time><name>PT953</name></trkpt>
<trkpt lat="52.040770" lon="05.779379"><ele>52.1</ele><time>2022-04-12T14:33:58Z</time><name>PT954</name></trkpt>
<trkpt lat="52.040780" lon="05.779365"><ele>52.1</ele><time>2022-04-12T14:33:59Z</time><name>PT955</name></trkpt>
<trkpt lat="52.040788" lon="05.779352"><ele>52.1</ele><time>2022-04-12T14:34:00Z</time><name>PT956</name></trkpt>
<trkpt lat="52.040796" lon="05.779342"><ele>52.2</ele><time>2022-04-12T14:34:01Z</time><name>PT957</name></trkpt>
<trkpt lat="52.040801" lon="05.779332"><ele>52.2</ele><time>2022-04-12T14:34:02Z</time><name>PT958</name></trkpt>
<trkpt lat="52.040806" lon="05.779323"><ele>52.3</ele><time>2022-04-12T14:34:03Z</time><name>PT959</name></trkpt>
<trkpt lat="52.040818" lon="05.779305"><ele>52.3</ele><time>2022-04-12T14:34:04Z</time><name>PT960</name></trkpt>
<trkpt lat="52.040822" lon="05.779281"><ele>52.3</ele><time>2022-04-12T14:34:05Z</time><name>PT961</name></trkpt>
<trkpt lat="52.040826" lon="05.779268"><ele>52.4</ele><time>2022-04-12T14:34:06Z</time><name>PT962</name></trkpt>
<trkpt lat="52.040833" lon="05.779262"><ele>52.4</ele><time>2022-04-12T14:34:07Z</time><name>PT963</name></trkpt>
<trkpt lat="52.040839" lon="05.779252"><ele>52.2</ele><time>2022-04-12T14:34:08Z</time><name>PT964</name></trkpt>
<trkpt lat="52.040847" lon="05.779246"><ele>52.2</ele><time>2022-04-12T14:34:09Z</time><name>PT965</name></trkpt>
<trkpt lat="52.040858" lon="05.779233"><ele>52.2</ele><time>2022-04-12T14:34:10Z</time><name>PT966</name></trkpt>
<trkpt lat="52.040867" lon="05.779223"><ele>52.1</ele><time>2022-04-12T14:34:11Z</time><name>PT967</name></trkpt>
<trkpt lat="52.040871" lon="05.779215"><ele>52</ele><time>2022-04-12T14:34:12Z</time><name>PT968</name></trkpt>
<trkpt lat="52.040881" lon="05.779210"><ele>52</ele><time>2022-04-12T14:34:13Z</time><name>PT969</name></trkpt>
<trkpt lat="52.040890" lon="05.779206"><ele>52.1</ele><time>2022-04-12T14:34:14Z</time><name>PT970</name></trkpt>
<trkpt lat="52.040905" lon="05.779195"><ele>51.9</ele><time>2022-04-12T14:34:15Z</time><name>PT971</name></trkpt>
<trkpt lat="52.040917" lon="05.779180"><ele>52</ele><time>2022-04-12T14:34:16Z</time><name>PT972</name></trkpt>
<trkpt lat="52.040925" lon="05.779165"><ele>52</ele><time>2022-04-12T14:34:17Z</time><name>PT973</name></trkpt>
<trkpt lat="52.040927" lon="05.779151"><ele>52.1</ele><time>2022-04-12T14:34:18Z</time><name>PT974</name></trkpt>
<trkpt lat="52.040935" lon="05.779140"><ele>51.8</ele><time>2022-04-12T14:34:19Z</time><name>PT975</name></trkpt>
<trkpt lat="52.040943" lon="05.779133"><ele>51.9</ele><time>2022-04-12T14:34:20Z</time><name>PT976</name></trkpt>
<trkpt lat="52.040956" lon="05.779122"><ele>51.8</ele><time>2022-04-12T14:34:21Z</time><name>PT977</name></trkpt>
<trkpt lat="52.040973" lon="05.779106"><ele>51.8</ele><time>2022-04-12T14:34:22Z</time><name>PT978</name></trkpt>
<trkpt lat="52.040986" lon="05.779092"><ele>51.9</ele><time>2022-04-12T14:34:23Z</time><name>PT979</name></trkpt>
<trkpt lat="52.040992" lon="05.779084"><ele>52</ele><time>2022-04-12T14:34:24Z</time><name>PT980</name></trkpt>
<trkpt lat="52.040999" lon="05.779072"><ele>52.1</ele><time>2022-04-12T14:34:25Z</time><name>PT981</name></trkpt>
<trkpt lat="52.041010" lon="05.779063"><ele>52</ele><time>2022-04-12T14:34:26Z</time><name>PT982</name></trkpt>
<trkpt lat="52.041020" lon="05.779052"><ele>52</ele><time>2022-04-12T14:34:27Z</time><name>PT983</name></trkpt>
<trkpt lat="52.041033" lon="05.779037"><ele>52.1</ele><time>2022-04-12T14:34:29Z</time><name>PT984</name></trkpt>
<trkpt lat="52.041040" lon="05.779020"><ele>52.1</ele><time>2022-04-12T14:34:29Z</time><name>PT985</name></trkpt>
<trkpt lat="52.041037" lon="05.779010"><ele>52</ele><time>2022-04-12T14:34:30Z</time><name>PT986</name></trkpt>
<trkpt lat="52.041041" lon="05.779002"><ele>52</ele><time>2022-04-12T14:34:31Z</time><name>PT987</name></trkpt>
<trkpt lat="52.041048" lon="05.778992"><ele>52</ele><time>2022-04-12T14:34:33Z</time><name>PT988</name></trkpt>
<trkpt lat="52.041055" lon="05.778981"><ele>52.1</ele><time>2022-04-12T14:34:33Z</time><name>PT989</name></trkpt>
<trkpt lat="52.041067" lon="05.778968"><ele>51.9</ele><time>2022-04-12T14:34:35Z</time><name>PT990</name></trkpt>
<trkpt lat="52.041079" lon="05.778955"><ele>51.8</ele><time>2022-04-12T14:34:35Z</time><name>PT991</name></trkpt>
<trkpt lat="52.041089" lon="05.778943"><ele>51.7</ele><time>2022-04-12T14:34:36Z</time><name>PT992</name></trkpt>
<trkpt lat="52.041096" lon="05.778941"><ele>51.8</ele><time>2022-04-12T14:34:37Z</time><name>PT993</name></trkpt>
<trkpt lat="52.041107" lon="05.778938"><ele>51.7</ele><time>2022-04-12T14:34:38Z</time><name>PT994</name></trkpt>
<trkpt lat="52.041117" lon="05.778928"><ele>51.6</ele><time>2022-04-12T14:34:39Z</time><name>PT995</name></trkpt>
<trkpt lat="52.041127" lon="05.778905"><ele>51.8</ele><time>2022-04-12T14:34:40Z</time><name>PT996</name></trkpt>
<trkpt lat="52.041135" lon="05.778885"><ele>51.9</ele><time>2022-04-12T14:34:41Z</time><name>PT997</name></trkpt>
<trkpt lat="52.041146" lon="05.778877"><ele>52</ele><time>2022-04-12T14:34:42Z</time><name>PT998</name></trkpt>
<trkpt lat="52.041154" lon="05.778871"><ele>52.2</ele><time>2022-04-12T14:34:43Z</time><name>PT999</name></trkpt>
<trkpt lat="52.041159" lon="05.778861"><ele>52.3</ele><time>2022-04-12T14:34:44Z</time><name>PT1000</name></trkpt>
<trkpt lat="52.041168" lon="05.778854"><ele>52.1</ele><time>2022-04-12T14:34:45Z</time><name>PT1001</name></trkpt>
<trkpt lat="52.041179" lon="05.778843"><ele>52.2</ele><time>2022-04-12T14:34:46Z</time><name>PT1002</name></trkpt>
<trkpt lat="52.041192" lon="05.778831"><ele>52.1</ele><time>2022-04-12T14:34:47Z</time><name>PT1003</name></trkpt>
<trkpt lat="52.041206" lon="05.778815"><ele>51.8</ele><time>2022-04-12T14:34:48Z</time><name>PT1004</name></trkpt>
<trkpt lat="52.041217" lon="05.778802"><ele>51.7</ele><time>2022-04-12T14:34:49Z</time><name>PT1005</name></trkpt>
<trkpt lat="52.041227" lon="05.778795"><ele>51.8</ele><time>2022-04-12T14:34:50Z</time><name>PT1006</name></trkpt>
<trkpt lat="52.041231" lon="05.778790"><ele>51.7</ele><time>2022-04-12T14:34:51Z</time><name>PT1007</name></trkpt>
<trkpt lat="52.041240" lon="05.778780"><ele>51.8</ele><time>2022-04-12T14:34:52Z</time><name>PT1008</name></trkpt>
<trkpt lat="52.041253" lon="05.778764"><ele>51.8</ele><time>2022-04-12T14:34:53Z</time><name>PT1009</name></trkpt>
<trkpt lat="52.041267" lon="05.778746"><ele>51.9</ele><time>2022-04-12T14:34:54Z</time><name>PT1010</name></trkpt>
<trkpt lat="52.041273" lon="05.778737"><ele>51.8</ele><time>2022-04-12T14:34:55Z</time><name>PT1011</name></trkpt>
<trkpt lat="52.041282" lon="05.778728"><ele>52</ele><time>2022-04-12T14:34:56Z</time><name>PT1012</name></trkpt>
<trkpt lat="52.041289" lon="05.778719"><ele>52</ele><time>2022-04-12T14:34:57Z</time><name>PT1013</name></trkpt>
<trkpt lat="52.041296" lon="05.778708"><ele>52.2</ele><time>2022-04-12T14:34:58Z</time><name>PT1014</name></trkpt>
<trkpt lat="52.041305" lon="05.778692"><ele>52.2</ele><time>2022-04-12T14:34:59Z</time><name>PT1015</name></trkpt>
<trkpt lat="52.041316" lon="05.778680"><ele>52.2</ele><time>2022-04-12T14:35:00Z</time><name>PT1016</name></trkpt>
<trkpt lat="52.041324" lon="05.778670"><ele>52.2</ele><time>2022-04-12T14:35:01Z</time><name>PT1017</name></trkpt>
<trkpt lat="52.041329" lon="05.778661"><ele>52.2</ele><time>2022-04-12T14:35:02Z</time><name>PT1018</name></trkpt>
<trkpt lat="52.041337" lon="05.778653"><ele>52.2</ele><time>2022-04-12T14:35:03Z</time><name>PT1019</name></trkpt>
<trkpt lat="52.041351" lon="05.778647"><ele>52.2</ele><time>2022-04-12T14:35:04Z</time><name>PT1020</name></trkpt>
<trkpt lat="52.041363" lon="05.778643"><ele>52.2</ele><time>2022-04-12T14:35:05Z</time><name>PT1021</name></trkpt>
<trkpt lat="52.041382" lon="05.778640"><ele>52.1</ele><time>2022-04-12T14:35:06Z</time><name>PT1022</name></trkpt>
<trkpt lat="52.041396" lon="05.778628"><ele>52</ele><time>2022-04-12T14:35:07Z</time><name>PT1023</name></trkpt>
<trkpt lat="52.041408" lon="05.778622"><ele>51.9</ele><time>2022-04-12T14:35:08Z</time><name>PT1024</name></trkpt>
<trkpt lat="52.041412" lon="05.778615"><ele>51.9</ele><time>2022-04-12T14:35:09Z</time><name>PT1025</name></trkpt>
<trkpt lat="52.041421" lon="05.778608"><ele>51.8</ele><time>2022-04-12T14:35:10Z</time><name>PT1026</name></trkpt>
<trkpt lat="52.041429" lon="05.778598"><ele>52</ele><time>2022-04-12T14:35:11Z</time><name>PT1027</name></trkpt>
<trkpt lat="52.041436" lon="05.778580"><ele>52.1</ele><time>2022-04-12T14:35:12Z</time><name>PT1028</name></trkpt>
<trkpt lat="52.041447" lon="05.778564"><ele>51.9</ele><time>2022-04-12T14:35:13Z</time><name>PT1029</name></trkpt>
<trkpt lat="52.041456" lon="05.778559"><ele>51.9</ele><time>2022-04-12T14:35:14Z</time><name>PT1030</name></trkpt>
<trkpt lat="52.041466" lon="05.778558"><ele>51.9</ele><time>2022-04-12T14:35:15Z</time><name>PT1031</name></trkpt>
<trkpt lat="52.041473" lon="05.778552"><ele>51.7</ele><time>2022-04-12T14:35:16Z</time><name>PT1032</name></trkpt>
<trkpt lat="52.041485" lon="05.778538"><ele>51.8</ele><time>2022-04-12T14:35:17Z</time><name>PT1033</name></trkpt>
<trkpt lat="52.041488" lon="05.778524"><ele>52.1</ele><time>2022-04-12T14:35:18Z</time><name>PT1034</name></trkpt>
<trkpt lat="52.041496" lon="05.778504"><ele>52.2</ele><time>2022-04-12T14:35:19Z</time><name>PT1035</name></trkpt>
<trkpt lat="52.041503" lon="05.778490"><ele>52.3</ele><time>2022-04-12T14:35:20Z</time><name>PT1036</name></trkpt>
<trkpt lat="52.041508" lon="05.778479"><ele>52.3</ele><time>2022-04-12T14:35:21Z</time><name>PT1037</name></trkpt>
<trkpt lat="52.041516" lon="05.778468"><ele>52.5</ele><time>2022-04-12T14:35:22Z</time><name>PT1038</name></trkpt>
<trkpt lat="52.041526" lon="05.778457"><ele>52.6</ele><time>2022-04-12T14:35:23Z</time><name>PT1039</name></trkpt>
<trkpt lat="52.041535" lon="05.778437"><ele>52.7</ele><time>2022-04-12T14:35:24Z</time><name>PT1040</name></trkpt>
<trkpt lat="52.041543" lon="05.778419"><ele>52.4</ele><time>2022-04-12T14:35:25Z</time><name>PT1041</name></trkpt>
<trkpt lat="52.041550" lon="05.778408"><ele>52.5</ele><time>2022-04-12T14:35:26Z</time><name>PT1042</name></trkpt>
<trkpt lat="52.041555" lon="05.778402"><ele>52.5</ele><time>2022-04-12T14:35:27Z</time><name>PT1043</name></trkpt>
<trkpt lat="52.041563" lon="05.778397"><ele>52.5</ele><time>2022-04-12T14:35:28Z</time><name>PT1044</name></trkpt>
<trkpt lat="52.041575" lon="05.778390"><ele>52.6</ele><time>2022-04-12T14:35:29Z</time><name>PT1045</name></trkpt>
<trkpt lat="52.041586" lon="05.778372"><ele>52.7</ele><time>2022-04-12T14:35:30Z</time><name>PT1046</name></trkpt>
<trkpt lat="52.041597" lon="05.778353"><ele>52.7</ele><time>2022-04-12T14:35:31Z</time><name>PT1047</name></trkpt>
<trkpt lat="52.041604" lon="05.778340"><ele>52.5</ele><time>2022-04-12T14:35:33Z</time><name>PT1048</name></trkpt>
<trkpt lat="52.041611" lon="05.778336"><ele>52.4</ele><time>2022-04-12T14:35:33Z</time><name>PT1049</name></trkpt>
<trkpt lat="52.041621" lon="05.778330"><ele>52.2</ele><time>2022-04-12T14:35:35Z</time><name>PT1050</name></trkpt>
<trkpt lat="52.041631" lon="05.778317"><ele>52.3</ele><time>2022-04-12T14:35:35Z</time><name>PT1051</name></trkpt>
<trkpt lat="52.041645" lon="05.778299"><ele>52.2</ele><time>2022-04-12T14:35:37Z</time><name>PT1052</name></trkpt>
<trkpt lat="52.041654" lon="05.778280"><ele>52.4</ele><time>2022-04-12T14:35:37Z</time><name>PT1053</name></trkpt>
<trkpt lat="52.041661" lon="05.778268"><ele>52.6</ele><time>2022-04-12T14:35:38Z</time><name>PT1054</name></trkpt>
<trkpt lat="52.041667" lon="05.778258"><ele>52.7</ele><time>2022-04-12T14:35:39Z</time><name>PT1055</name></trkpt>
<trkpt lat="52.041663" lon="05.778247"><ele>52.7</ele><time>2022-04-12T14:35:40Z</time><name>PT1056</name></trkpt>
<trkpt lat="52.041671" lon="05.778238"><ele>52.7</ele><time>2022-04-12T14:35:41Z</time><name>PT1057</name></trkpt>
<trkpt lat="52.041690" lon="05.778224"><ele>52.6</ele><time>2022-04-12T14:35:42Z</time><name>PT1058</name></trkpt>
<trkpt lat="52.041702" lon="05.778206"><ele>52.6</ele><time>2022-04-12T14:35:43Z</time><name>PT1059</name></trkpt>
<trkpt lat="52.041711" lon="05.778195"><ele>52.4</ele><time>2022-04-12T14:35:44Z</time><name>PT1060</name></trkpt>
<trkpt lat="52.041720" lon="05.778189"><ele>52.4</ele><time>2022-04-12T14:35:45Z</time><name>PT1061</name></trkpt>
<trkpt lat="52.041728" lon="05.778182"><ele>52.4</ele><time>2022-04-12T14:35:46Z</time><name>PT1062</name></trkpt>
<trkpt lat="52.041736" lon="05.778173"><ele>52.4</ele><time>2022-04-12T14:35:47Z</time><name>PT1063</name></trkpt>
<trkpt lat="52.041743" lon="05.778159"><ele>52.3</ele><time>2022-04-12T14:35:48Z</time><name>PT1064</name></trkpt>
<trkpt lat="52.041754" lon="05.778144"><ele>52.4</ele><time>2022-04-12T14:35:49Z</time><name>PT1065</name></trkpt>
<trkpt lat="52.041762" lon="05.778135"><ele>52.2</ele><time>2022-04-12T14:35:50Z</time><name>PT1066</name></trkpt>
<trkpt lat="52.041769" lon="05.778127"><ele>52.4</ele><time>2022-04-12T14:35:51Z</time><name>PT1067</name></trkpt>
<trkpt lat="52.041777" lon="05.778125"><ele>52.4</ele><time>2022-04-12T14:35:52Z</time><name>PT1068</name></trkpt>
<trkpt lat="52.041781" lon="05.778114"><ele>52.5</ele><time>2022-04-12T14:35:53Z</time><name>PT1069</name></trkpt>
<trkpt lat="52.041793" lon="05.778099"><ele>52.6</ele><time>2022-04-12T14:35:54Z</time><name>PT1070</name></trkpt>
<trkpt lat="52.041811" lon="05.778085"><ele>52.5</ele><time>2022-04-12T14:35:55Z</time><name>PT1071</name></trkpt>
<trkpt lat="52.041823" lon="05.778071"><ele>52.5</ele><time>2022-04-12T14:35:56Z</time><name>PT1072</name></trkpt>
<trkpt lat="52.041836" lon="05.778063"><ele>52.6</ele><time>2022-04-12T14:35:57Z</time><name>PT1073</name></trkpt>
<trkpt lat="52.041843" lon="05.778055"><ele>52.6</ele><time>2022-04-12T14:35:58Z</time><name>PT1074</name></trkpt>
<trkpt lat="52.041850" lon="05.778045"><ele>52.6</ele><time>2022-04-12T14:35:59Z</time><name>PT1075</name></trkpt>
<trkpt lat="52.041847" lon="05.778017"><ele>52.4</ele><time>2022-04-12T14:36:00Z</time><name>PT1076</name></trkpt>
<trkpt lat="52.041832" lon="05.777983"><ele>52.5</ele><time>2022-04-12T14:36:01Z</time><name>PT1077</name></trkpt>
<trkpt lat="52.041836" lon="05.777963"><ele>52.5</ele><time>2022-04-12T14:36:02Z</time><name>PT1078</name></trkpt>
<trkpt lat="52.041843" lon="05.777951"><ele>52.4</ele><time>2022-04-12T14:36:03Z</time><name>PT1079</name></trkpt>
<trkpt lat="52.041852" lon="05.777944"><ele>52.3</ele><time>2022-04-12T14:36:04Z</time><name>PT1080</name></trkpt>
<trkpt lat="52.041861" lon="05.777942"><ele>52.4</ele><time>2022-04-12T14:36:05Z</time><name>PT1081</name></trkpt>
<trkpt lat="52.041870" lon="05.777935"><ele>52.1</ele><time>2022-04-12T14:36:06Z</time><name>PT1082</name></trkpt>
<trkpt lat="52.041887" lon="05.777925"><ele>52.1</ele><time>2022-04-12T14:36:07Z</time><name>PT1083</name></trkpt>
<trkpt lat="52.041898" lon="05.777907"><ele>52.1</ele><time>2022-04-12T14:36:08Z</time><name>PT1084</name></trkpt>
<trkpt lat="52.041912" lon="05.777892"><ele>52.2</ele><time>2022-04-12T14:36:09Z</time><name>PT1085</name></trkpt>
<trkpt lat="52.041923" lon="05.777883"><ele>51.9</ele><time>2022-04-12T14:36:10Z</time><name>PT1086</name></trkpt>
<trkpt lat="52.041930" lon="05.777875"><ele>52.2</ele><time>2022-04-12T14:36:11Z</time><name>PT1087</name></trkpt>
<trkpt lat="52.041936" lon="05.777865"><ele>52.3</ele><time>2022-04-12T14:36:12Z</time><name>PT1088</name></trkpt>
<trkpt lat="52.041945" lon="05.777855"><ele>52.3</ele><time>2022-04-12T14:36:13Z</time><name>PT1089</name></trkpt>
<trkpt lat="52.041955" lon="05.777842"><ele>52.5</ele><time>2022-04-12T14:36:14Z</time><name>PT1090</name></trkpt>
<trkpt lat="52.041963" lon="05.777820"><ele>52.5</ele><time>2022-04-12T14:36:15Z</time><name>PT1091</name></trkpt>
<trkpt lat="52.041972" lon="05.777805"><ele>52.4</ele><time>2022-04-12T14:36:16Z</time><name>PT1092</name></trkpt>
<trkpt lat="52.041978" lon="05.777794"><ele>52.2</ele><time>2022-04-12T14:36:17Z</time><name>PT1093</name></trkpt>
<trkpt lat="52.041992" lon="05.777796"><ele>52.3</ele><time>2022-04-12T14:36:18Z</time><name>PT1094</name></trkpt>
<trkpt lat="52.042004" lon="05.777783"><ele>52.2</ele><time>2022-04-12T14:36:19Z</time><name>PT1095</name></trkpt>
<trkpt lat="52.042016" lon="05.777770"><ele>52.3</ele><time>2022-04-12T14:36:20Z</time><name>PT1096</name></trkpt>
<trkpt lat="52.042029" lon="05.777753"><ele>52.4</ele><time>2022-04-12T14:36:21Z</time><name>PT1097</name></trkpt>
<trkpt lat="52.042038" lon="05.777733"><ele>52.3</ele><time>2022-04-12T14:36:22Z</time><name>PT1098</name></trkpt>
<trkpt lat="52.042047" lon="05.777721"><ele>52.2</ele><time>2022-04-12T14:36:23Z</time><name>PT1099</name></trkpt>
<trkpt lat="52.042050" lon="05.777705"><ele>52.2</ele><time>2022-04-12T14:36:24Z</time><name>PT1100</name></trkpt>
<trkpt lat="52.042056" lon="05.777694"><ele>52.2</ele><time>2022-04-12T14:36:25Z</time><name>PT1101</name></trkpt>
<trkpt lat="52.042069" lon="05.777683"><ele>52.1</ele><time>2022-04-12T14:36:26Z</time><name>PT1102</name></trkpt>
<trkpt lat="52.042085" lon="05.777675"><ele>52</ele><time>2022-04-12T14:36:27Z</time><name>PT1103</name></trkpt>
<trkpt lat="52.042095" lon="05.777662"><ele>52.3</ele><time>2022-04-12T14:36:28Z</time><name>PT1104</name></trkpt>
<trkpt lat="52.042100" lon="05.777652"><ele>52.3</ele><time>2022-04-12T14:36:29Z</time><name>PT1105</name></trkpt>
<trkpt lat="52.042104" lon="05.777645"><ele>52.4</ele><time>2022-04-12T14:36:30Z</time><name>PT1106</name></trkpt>
<trkpt lat="52.042109" lon="05.777640"><ele>52.4</ele><time>2022-04-12T14:36:31Z</time><name>PT1107</name></trkpt>
<trkpt lat="52.042118" lon="05.777631"><ele>52.4</ele><time>2022-04-12T14:36:32Z</time><name>PT1108</name></trkpt>
<trkpt lat="52.042125" lon="05.777611"><ele>52.3</ele><time>2022-04-12T14:36:33Z</time><name>PT1109</name></trkpt>
<trkpt lat="52.042134" lon="05.777593"><ele>52.2</ele><time>2022-04-12T14:36:34Z</time><name>PT1110</name></trkpt>
<trkpt lat="52.042143" lon="05.777582"><ele>52</ele><time>2022-04-12T14:36:35Z</time><name>PT1111</name></trkpt>
<trkpt lat="52.042149" lon="05.777575"><ele>52.1</ele><time>2022-04-12T14:36:36Z</time><name>PT1112</name></trkpt>
<trkpt lat="52.042160" lon="05.777574"><ele>52</ele><time>2022-04-12T14:36:37Z</time><name>PT1113</name></trkpt>
<trkpt lat="52.042162" lon="05.777571"><ele>52.2</ele><time>2022-04-12T14:36:38Z</time><name>PT1114</name></trkpt>
<trkpt lat="52.042172" lon="05.777562"><ele>52.2</ele><time>2022-04-12T14:36:39Z</time><name>PT1115</name></trkpt>
<trkpt lat="52.042186" lon="05.777549"><ele>52.3</ele><time>2022-04-12T14:36:40Z</time><name>PT1116</name></trkpt>
<trkpt lat="52.042198" lon="05.777536"><ele>52.2</ele><time>2022-04-12T14:36:41Z</time><name>PT1117</name></trkpt>
<trkpt lat="52.042203" lon="05.777522"><ele>52.2</ele><time>2022-04-12T14:36:42Z</time><name>PT1118</name></trkpt>
<trkpt lat="52.042212" lon="05.777516"><ele>52.1</ele><time>2022-04-12T14:36:43Z</time><name>PT1119</name></trkpt>
<trkpt lat="52.042220" lon="05.777508"><ele>52.1</ele><time>2022-04-12T14:36:44Z</time><name>PT1120</name></trkpt>
<trkpt lat="52.042227" lon="05.777501"><ele>51.9</ele><time>2022-04-12T14:36:45Z</time><name>PT1121</name></trkpt>
<trkpt lat="52.042243" lon="05.777497"><ele>51.9</ele><time>2022-04-12T14:36:46Z</time><name>PT1122</name></trkpt>
<trkpt lat="52.042258" lon="05.777483"><ele>52.1</ele><time>2022-04-12T14:36:47Z</time><name>PT1123</name></trkpt>
<trkpt lat="52.042264" lon="05.777470"><ele>52.1</ele><time>2022-04-12T14:36:48Z</time><name>PT1124</name></trkpt>
<trkpt lat="52.042272" lon="05.777464"><ele>52</ele><time>2022-04-12T14:36:49Z</time><name>PT1125</name></trkpt>
<trkpt lat="52.042270" lon="05.777458"><ele>52.1</ele><time>2022-04-12T14:36:50Z</time><name>PT1126</name></trkpt>
<trkpt lat="52.042274" lon="05.777452"><ele>51.9</ele><time>2022-04-12T14:36:51Z</time><name>PT1127</name></trkpt>
<trkpt lat="52.042284" lon="05.777442"><ele>51.7</ele><time>2022-04-12T14:36:52Z</time><name>PT1128</name></trkpt>
<trkpt lat="52.042296" lon="05.777428"><ele>51.7</ele><time>2022-04-12T14:36:53Z</time><name>PT1129</name></trkpt>
<trkpt lat="52.042305" lon="05.777420"><ele>51.7</ele><time>2022-04-12T14:36:54Z</time><name>PT1130</name></trkpt>
<trkpt lat="52.042310" lon="05.777412"><ele>51.9</ele><time>2022-04-12T14:36:55Z</time><name>PT1131</name></trkpt>
<trkpt lat="52.042313" lon="05.777399"><ele>52.2</ele><time>2022-04-12T14:36:56Z</time><name>PT1132</name></trkpt>
<trkpt lat="52.042320" lon="05.777388"><ele>52.3</ele><time>2022-04-12T14:36:57Z</time><name>PT1133</name></trkpt>
<trkpt lat="52.042327" lon="05.777380"><ele>52.4</ele><time>2022-04-12T14:36:58Z</time><name>PT1134</name></trkpt>
<trkpt lat="52.042340" lon="05.777371"><ele>52.5</ele><time>2022-04-12T14:36:59Z</time><name>PT1135</name></trkpt>
<trkpt lat="52.042353" lon="05.777360"><ele>52.6</ele><time>2022-04-12T14:37:00Z</time><name>PT1136</name></trkpt>
<trkpt lat="52.042364" lon="05.777350"><ele>52.7</ele><time>2022-04-12T14:37:01Z</time><name>PT1137</name></trkpt>
<trkpt lat="52.042371" lon="05.777343"><ele>52.7</ele><time>2022-04-12T14:37:02Z</time><name>PT1138</name></trkpt>
<trkpt lat="52.042380" lon="05.777335"><ele>52.6</ele><time>2022-04-12T14:37:03Z</time><name>PT1139</name></trkpt>
<trkpt lat="52.042390" lon="05.777327"><ele>52.5</ele><time>2022-04-12T14:37:04Z</time><name>PT1140</name></trkpt>
<trkpt lat="52.042401" lon="05.777310"><ele>52.2</ele><time>2022-04-12T14:37:05Z</time><name>PT1141</name></trkpt>
<trkpt lat="52.042417" lon="05.777296"><ele>52.2</ele><time>2022-04-12T14:37:06Z</time><name>PT1142</name></trkpt>
<trkpt lat="52.042429" lon="05.777282"><ele>52.2</ele><time>2022-04-12T14:37:07Z</time><name>PT1143</name></trkpt>
<trkpt lat="52.042441" lon="05.777274"><ele>52.2</ele><time>2022-04-12T14:37:08Z</time><name>PT1144</name></trkpt>
<trkpt lat="52.042446" lon="05.777268"><ele>52.2</ele><time>2022-04-12T14:37:09Z</time><name>PT1145</name></trkpt>
<trkpt lat="52.042452" lon="05.777254"><ele>52.3</ele><time>2022-04-12T14:37:10Z</time><name>PT1146</name></trkpt>
<trkpt lat="52.042452" lon="05.777234"><ele>52.3</ele><time>2022-04-12T14:37:11Z</time><name>PT1147</name></trkpt>
<trkpt lat="52.042456" lon="05.777213"><ele>52.3</ele><time>2022-04-12T14:37:12Z</time><name>PT1148</name></trkpt>
<trkpt lat="52.042461" lon="05.777195"><ele>52.4</ele><time>2022-04-12T14:37:13Z</time><name>PT1149</name></trkpt>
<trkpt lat="52.042471" lon="05.777185"><ele>52.5</ele><time>2022-04-12T14:37:15Z</time><name>PT1150</name></trkpt>
<trkpt lat="52.042472" lon="05.777173"><ele>52.3</ele><time>2022-04-12T14:37:15Z</time><name>PT1151</name></trkpt>
<trkpt lat="52.042479" lon="05.777169"><ele>52.3</ele><time>2022-04-12T14:37:16Z</time><name>PT1152</name></trkpt>
<trkpt lat="52.042489" lon="05.777164"><ele>52.2</ele><time>2022-04-12T14:37:17Z</time><name>PT1153</name></trkpt>
<trkpt lat="52.042501" lon="05.777155"><ele>52.2</ele><time>2022-04-12T14:37:18Z</time><name>PT1154</name></trkpt>
<trkpt lat="52.042510" lon="05.777141"><ele>52.2</ele><time>2022-04-12T14:37:19Z</time><name>PT1155</name></trkpt>
<trkpt lat="52.042522" lon="05.777135"><ele>52.5</ele><time>2022-04-12T14:37:20Z</time><name>PT1156</name></trkpt>
<trkpt lat="52.042530" lon="05.777129"><ele>52.5</ele><time>2022-04-12T14:37:21Z</time><name>PT1157</name></trkpt>
<trkpt lat="52.042537" lon="05.777123"><ele>52.5</ele><time>2022-04-12T14:37:22Z</time><name>PT1158</name></trkpt>
<trkpt lat="52.042539" lon="05.777130"><ele>52.6</ele><time>2022-04-12T14:37:23Z</time><name>PT1159</name></trkpt>
<trkpt lat="52.042547" lon="05.777125"><ele>52.7</ele><time>2022-04-12T14:37:25Z</time><name>PT1160</name></trkpt>
<trkpt lat="52.042557" lon="05.777115"><ele>52.7</ele><time>2022-04-12T14:37:25Z</time><name>PT1161</name></trkpt>
<trkpt lat="52.042566" lon="05.777105"><ele>52.6</ele><time>2022-04-12T14:37:26Z</time><name>PT1162</name></trkpt>
<trkpt lat="52.042571" lon="05.777093"><ele>52.7</ele><time>2022-04-12T14:37:27Z</time><name>PT1163</name></trkpt>
<trkpt lat="52.042581" lon="05.777085"><ele>52.4</ele><time>2022-04-12T14:37:28Z</time><name>PT1164</name></trkpt>
<trkpt lat="52.042599" lon="05.777081"><ele>52.2</ele><time>2022-04-12T14:37:29Z</time><name>PT1165</name></trkpt>
<trkpt lat="52.042612" lon="05.777073"><ele>52.2</ele><time>2022-04-12T14:37:30Z</time><name>PT1166</name></trkpt>
<trkpt lat="52.042621" lon="05.777056"><ele>52.2</ele><time>2022-04-12T14:37:31Z</time><name>PT1167</name></trkpt>
<trkpt lat="52.042630" lon="05.777048"><ele>52.3</ele><time>2022-04-12T14:37:32Z</time><name>PT1168</name></trkpt>
<trkpt lat="52.042639" lon="05.777041"><ele>52.3</ele><time>2022-04-12T14:37:33Z</time><name>PT1169</name></trkpt>
<trkpt lat="52.042648" lon="05.777034"><ele>52.4</ele><time>2022-04-12T14:37:35Z</time><name>PT1170</name></trkpt>
<trkpt lat="52.042661" lon="05.777025"><ele>52.4</ele><time>2022-04-12T14:37:35Z</time><name>PT1171</name></trkpt>
<trkpt lat="52.042675" lon="05.777017"><ele>52.3</ele><time>2022-04-12T14:37:36Z</time><name>PT1172</name></trkpt>
<trkpt lat="52.042681" lon="05.777004"><ele>52.3</ele><time>2022-04-12T14:37:37Z</time><name>PT1173</name></trkpt>
<trkpt lat="52.042687" lon="05.776993"><ele>52.2</ele><time>2022-04-12T14:37:38Z</time><name>PT1174</name></trkpt>
<trkpt lat="52.042701" lon="05.776983"><ele>52.3</ele><time>2022-04-12T14:37:39Z</time><name>PT1175</name></trkpt>
<trkpt lat="52.042707" lon="05.776972"><ele>52.4</ele><time>2022-04-12T14:37:40Z</time><name>PT1176</name></trkpt>
<trkpt lat="52.042720" lon="05.776963"><ele>52.5</ele><time>2022-04-12T14:37:41Z</time><name>PT1177</name></trkpt>
<trkpt lat="52.042732" lon="05.776953"><ele>52.6</ele><time>2022-04-12T14:37:42Z</time><name>PT1178</name></trkpt>
<trkpt lat="52.042742" lon="05.776938"><ele>52.7</ele><time>2022-04-12T14:37:43Z</time><name>PT1179</name></trkpt>
<trkpt lat="52.042748" lon="05.776926"><ele>52.7</ele><time>2022-04-12T14:37:45Z</time><name>PT1180</name></trkpt>
<trkpt lat="52.042753" lon="05.776915"><ele>52.7</ele><time>2022-04-12T14:37:45Z</time><name>PT1181</name></trkpt>
<trkpt lat="52.042759" lon="05.776907"><ele>52.7</ele><time>2022-04-12T14:37:46Z</time><name>PT1182</name></trkpt>
<trkpt lat="52.042760" lon="05.776897"><ele>52.7</ele><time>2022-04-12T14:37:47Z</time><name>PT1183</name></trkpt>
<trkpt lat="52.042763" lon="05.776885"><ele>52.7</ele><time>2022-04-12T14:37:48Z</time><name>PT1184</name></trkpt>
<trkpt lat="52.042767" lon="05.776881"><ele>52.7</ele><time>2022-04-12T14:37:49Z</time><name>PT1185</name></trkpt>
<trkpt lat="52.042773" lon="05.776868"><ele>53</ele><time>2022-04-12T14:37:50Z</time><name>PT1186</name></trkpt>
<trkpt lat="52.042790" lon="05.776862"><ele>52.9</ele><time>2022-04-12T14:37:51Z</time><name>PT1187</name></trkpt>
<trkpt lat="52.042802" lon="05.776854"><ele>52.9</ele><time>2022-04-12T14:37:52Z</time><name>PT1188</name></trkpt>
<trkpt lat="52.042807" lon="05.776843"><ele>53</ele><time>2022-04-12T14:37:53Z</time><name>PT1189</name></trkpt>
<trkpt lat="52.042818" lon="05.776839"><ele>53.1</ele><time>2022-04-12T14:37:55Z</time><name>PT1190</name></trkpt>
<trkpt lat="52.042831" lon="05.776829"><ele>53.1</ele><time>2022-04-12T14:37:55Z</time><name>PT1191</name></trkpt>
<trkpt lat="52.042845" lon="05.776817"><ele>53.2</ele><time>2022-04-12T14:37:56Z</time><name>PT1192</name></trkpt>
<trkpt lat="52.042859" lon="05.776802"><ele>53.2</ele><time>2022-04-12T14:37:57Z</time><name>PT1193</name></trkpt>
<trkpt lat="52.042863" lon="05.776787"><ele>53.1</ele><time>2022-04-12T14:37:58Z</time><name>PT1194</name></trkpt>
<trkpt lat="52.042870" lon="05.776776"><ele>53</ele><time>2022-04-12T14:37:59Z</time><name>PT1195</name></trkpt>
<trkpt lat="52.042877" lon="05.776763"><ele>53.2</ele><time>2022-04-12T14:38:00Z</time><name>PT1196</name></trkpt>
<trkpt lat="52.042886" lon="05.776754"><ele>53.4</ele><time>2022-04-12T14:38:01Z</time><name>PT1197</name></trkpt>
<trkpt lat="52.042891" lon="05.776744"><ele>53.5</ele><time>2022-04-12T14:38:02Z</time><name>PT1198</name></trkpt>
<trkpt lat="52.042900" lon="05.776732"><ele>53.6</ele><time>2022-04-12T14:38:03Z</time><name>PT1199</name></trkpt>
<trkpt lat="52.042911" lon="05.776713"><ele>53.7</ele><time>2022-04-12T14:38:04Z</time><name>PT1200</name></trkpt>
<trkpt lat="52.042923" lon="05.776703"><ele>53.6</ele><time>2022-04-12T14:38:05Z</time><name>PT1201</name></trkpt>
<trkpt lat="52.042935" lon="05.776696"><ele>53.4</ele><time>2022-04-12T14:38:06Z</time><name>PT1202</name></trkpt>
<trkpt lat="52.042938" lon="05.776685"><ele>53.2</ele><time>2022-04-12T14:38:07Z</time><name>PT1203</name></trkpt>
<trkpt lat="52.042949" lon="05.776676"><ele>53.2</ele><time>2022-04-12T14:38:08Z</time><name>PT1204</name></trkpt>
<trkpt lat="52.042959" lon="05.776657"><ele>53.1</ele><time>2022-04-12T14:38:09Z</time><name>PT1205</name></trkpt>
<trkpt lat="52.042974" lon="05.776641"><ele>53.1</ele><time>2022-04-12T14:38:10Z</time><name>PT1206</name></trkpt>
<trkpt lat="52.042987" lon="05.776630"><ele>52.9</ele><time>2022-04-12T14:38:11Z</time><name>PT1207</name></trkpt>
<trkpt lat="52.042998" lon="05.776627"><ele>53.1</ele><time>2022-04-12T14:38:12Z</time><name>PT1208</name></trkpt>
<trkpt lat="52.043008" lon="05.776617"><ele>53.2</ele><time>2022-04-12T14:38:13Z</time><name>PT1209</name></trkpt>
<trkpt lat="52.043017" lon="05.776608"><ele>53.2</ele><time>2022-04-12T14:38:14Z</time><name>PT1210</name></trkpt>
<trkpt lat="52.043025" lon="05.776600"><ele>53.2</ele><time>2022-04-12T14:38:15Z</time><name>PT1211</name></trkpt>
<trkpt lat="52.043040" lon="05.776588"><ele>53.5</ele><time>2022-04-12T14:38:16Z</time><name>PT1212</name></trkpt>
<trkpt lat="52.043048" lon="05.776578"><ele>53.6</ele><time>2022-04-12T14:38:17Z</time><name>PT1213</name></trkpt>
<trkpt lat="52.043051" lon="05.776568"><ele>53.6</ele><time>2022-04-12T14:38:19Z</time><name>PT1214</name></trkpt>
<trkpt lat="52.043055" lon="05.776564"><ele>53.7</ele><time>2022-04-12T14:38:19Z</time><name>PT1215</name></trkpt>
<trkpt lat="52.043065" lon="05.776561"><ele>53.5</ele><time>2022-04-12T14:38:21Z</time><name>PT1216</name></trkpt>
<trkpt lat="52.043074" lon="05.776556"><ele>53.4</ele><time>2022-04-12T14:38:21Z</time><name>PT1217</name></trkpt>
<trkpt lat="52.043088" lon="05.776545"><ele>53.2</ele><time>2022-04-12T14:38:23Z</time><name>PT1218</name></trkpt>
<trkpt lat="52.043103" lon="05.776536"><ele>53.3</ele><time>2022-04-12T14:38:23Z</time><name>PT1219</name></trkpt>
<trkpt lat="52.043111" lon="05.776529"><ele>53.2</ele><time>2022-04-12T14:38:24Z</time><name>PT1220</name></trkpt>
<trkpt lat="52.043119" lon="05.776523"><ele>53.3</ele><time>2022-04-12T14:38:25Z</time><name>PT1221</name></trkpt>
<trkpt lat="52.043128" lon="05.776517"><ele>53.3</ele><time>2022-04-12T14:38:26Z</time><name>PT1222</name></trkpt>
<trkpt lat="52.043138" lon="05.776513"><ele>53.5</ele><time>2022-04-12T14:38:27Z</time><name>PT1223</name></trkpt>
<trkpt lat="52.043149" lon="05.776506"><ele>53.3</ele><time>2022-04-12T14:38:28Z</time><name>PT1224</name></trkpt>
<trkpt lat="52.043159" lon="05.776488"><ele>53.3</ele><time>2022-04-12T14:38:29Z</time><name>PT1225</name></trkpt>
<trkpt lat="52.043166" lon="05.776476"><ele>53.3</ele><time>2022-04-12T14:38:30Z</time><name>PT1226</name></trkpt>
<trkpt lat="52.043174" lon="05.776465"><ele>53.3</ele><time>2022-04-12T14:38:31Z</time><name>PT1227</name></trkpt>
<trkpt lat="52.043180" lon="05.776457"><ele>53.2</ele><time>2022-04-12T14:38:32Z</time><name>PT1228</name></trkpt>
<trkpt lat="52.043191" lon="05.776449"><ele>53.2</ele><time>2022-04-12T14:38:33Z</time><name>PT1229</name></trkpt>
<trkpt lat="52.043202" lon="05.776446"><ele>53.4</ele><time>2022-04-12T14:38:34Z</time><name>PT1230</name></trkpt>
<trkpt lat="52.043215" lon="05.776440"><ele>53.4</ele><time>2022-04-12T14:38:35Z</time><name>PT1231</name></trkpt>
<trkpt lat="52.043232" lon="05.776435"><ele>53.7</ele><time>2022-04-12T14:38:36Z</time><name>PT1232</name></trkpt>
<trkpt lat="52.043240" lon="05.776429"><ele>53.8</ele><time>2022-04-12T14:38:37Z</time><name>PT1233</name></trkpt>
<trkpt lat="52.043250" lon="05.776429"><ele>53.7</ele><time>2022-04-12T14:38:38Z</time><name>PT1234</name></trkpt>
<trkpt lat="52.043262" lon="05.776425"><ele>53.9</ele><time>2022-04-12T14:38:39Z</time><name>PT1235</name></trkpt>
<trkpt lat="52.043267" lon="05.776410"><ele>54</ele><time>2022-04-12T14:38:40Z</time><name>PT1236</name></trkpt>
<trkpt lat="52.043266" lon="05.776390"><ele>54</ele><time>2022-04-12T14:38:41Z</time><name>PT1237</name></trkpt>
<trkpt lat="52.043267" lon="05.776377"><ele>53.9</ele><time>2022-04-12T14:38:42Z</time><name>PT1238</name></trkpt>
<trkpt lat="52.043275" lon="05.776370"><ele>54</ele><time>2022-04-12T14:38:43Z</time><name>PT1239</name></trkpt>
<trkpt lat="52.043284" lon="05.776359"><ele>54</ele><time>2022-04-12T14:38:44Z</time><name>PT1240</name></trkpt>
<trkpt lat="52.043295" lon="05.776354"><ele>54</ele><time>2022-04-12T14:38:45Z</time><name>PT1241</name></trkpt>
<trkpt lat="52.043306" lon="05.776351"><ele>54.1</ele><time>2022-04-12T14:38:46Z</time><name>PT1242</name></trkpt>
<trkpt lat="52.043320" lon="05.776342"><ele>54.1</ele><time>2022-04-12T14:38:47Z</time><name>PT1243</name></trkpt>
<trkpt lat="52.043332" lon="05.776334"><ele>54.1</ele><time>2022-04-12T14:38:48Z</time><name>PT1244</name></trkpt>
<trkpt lat="52.043337" lon="05.776328"><ele>54.2</ele><time>2022-04-12T14:38:49Z</time><name>PT1245</name></trkpt>
<trkpt lat="52.043343" lon="05.776323"><ele>54.2</ele><time>2022-04-12T14:38:50Z</time><name>PT1246</name></trkpt>
<trkpt lat="52.043353" lon="05.776330"><ele>54.2</ele><time>2022-04-12T14:38:51Z</time><name>PT1247</name></trkpt>
<trkpt lat="52.043365" lon="05.776334"><ele>54.3</ele><time>2022-04-12T14:38:52Z</time><name>PT1248</name></trkpt>
<trkpt lat="52.043378" lon="05.776336"><ele>54.3</ele><time>2022-04-12T14:38:53Z</time><name>PT1249</name></trkpt>
<trkpt lat="52.043391" lon="05.776336"><ele>54.3</ele><time>2022-04-12T14:38:54Z</time><name>PT1250</name></trkpt>
<trkpt lat="52.043399" lon="05.776334"><ele>54.4</ele><time>2022-04-12T14:38:55Z</time><name>PT1251</name></trkpt>
<trkpt lat="52.043406" lon="05.776331"><ele>54.5</ele><time>2022-04-12T14:38:56Z</time><name>PT1252</name></trkpt>
<trkpt lat="52.043418" lon="05.776330"><ele>54.4</ele><time>2022-04-12T14:38:57Z</time><name>PT1253</name></trkpt>
<trkpt lat="52.043431" lon="05.776332"><ele>54.5</ele><time>2022-04-12T14:38:58Z</time><name>PT1254</name></trkpt>
<trkpt lat="52.043442" lon="05.776330"><ele>54.6</ele><time>2022-04-12T14:38:59Z</time><name>PT1255</name></trkpt>
<trkpt lat="52.043457" lon="05.776326"><ele>54.6</ele><time>2022-04-12T14:39:00Z</time><name>PT1256</name></trkpt>
<trkpt lat="52.043462" lon="05.776330"><ele>54.5</ele><time>2022-04-12T14:39:01Z</time><name>PT1257</name></trkpt>
<trkpt lat="52.043466" lon="05.776328"><ele>54.7</ele><time>2022-04-12T14:39:02Z</time><name>PT1258</name></trkpt>
<trkpt lat="52.043474" lon="05.776332"><ele>54.7</ele><time>2022-04-12T14:39:03Z</time><name>PT1259</name></trkpt>
<trkpt lat="52.043490" lon="05.776333"><ele>54.7</ele><time>2022-04-12T14:39:04Z</time><name>PT1260</name></trkpt>
<trkpt lat="52.043506" lon="05.776337"><ele>54.7</ele><time>2022-04-12T14:39:05Z</time><name>PT1261</name></trkpt>
<trkpt lat="52.043521" lon="05.776331"><ele>54.9</ele><time>2022-04-12T14:39:06Z</time><name>PT1262</name></trkpt>
<trkpt lat="52.043529" lon="05.776323"><ele>55</ele><time>2022-04-12T14:39:07Z</time><name>PT1263</name></trkpt>
<trkpt lat="52.043535" lon="05.776314"><ele>55.1</ele><time>2022-04-12T14:39:08Z</time><name>PT1264</name></trkpt>
<trkpt lat="52.043543" lon="05.776312"><ele>55</ele><time>2022-04-12T14:39:09Z</time><name>PT1265</name></trkpt>
<trkpt lat="52.043554" lon="05.776310"><ele>55</ele><time>2022-04-12T14:39:10Z</time><name>PT1266</name></trkpt>
<trkpt lat="52.043567" lon="05.776305"><ele>54.9</ele><time>2022-04-12T14:39:11Z</time><name>PT1267</name></trkpt>
<trkpt lat="52.043582" lon="05.776299"><ele>54.9</ele><time>2022-04-12T14:39:12Z</time><name>PT1268</name></trkpt>
<trkpt lat="52.043594" lon="05.776296"><ele>55</ele><time>2022-04-12T14:39:13Z</time><name>PT1269</name></trkpt>
<trkpt lat="52.043603" lon="05.776294"><ele>55.1</ele><time>2022-04-12T14:39:14Z</time><name>PT1270</name></trkpt>
<trkpt lat="52.043616" lon="05.776297"><ele>55.2</ele><time>2022-04-12T14:39:15Z</time><name>PT1271</name></trkpt>
<trkpt lat="52.043627" lon="05.776300"><ele>55.3</ele><time>2022-04-12T14:39:16Z</time><name>PT1272</name></trkpt>
<trkpt lat="52.043640" lon="05.776303"><ele>55.2</ele><time>2022-04-12T14:39:17Z</time><name>PT1273</name></trkpt>
<trkpt lat="52.043654" lon="05.776303"><ele>55.2</ele><time>2022-04-12T14:39:18Z</time><name>PT1274</name></trkpt>
<trkpt lat="52.043670" lon="05.776301"><ele>55.2</ele><time>2022-04-12T14:39:19Z</time><name>PT1275</name></trkpt>
<trkpt lat="52.043683" lon="05.776299"><ele>55.2</ele><time>2022-04-12T14:39:21Z</time><name>PT1276</name></trkpt>
<trkpt lat="52.043690" lon="05.776296"><ele>55.2</ele><time>2022-04-12T14:39:21Z</time><name>PT1277</name></trkpt>
<trkpt lat="52.043704" lon="05.776301"><ele>55.2</ele><time>2022-04-12T14:39:22Z</time><name>PT1278</name></trkpt>
<trkpt lat="52.043715" lon="05.776303"><ele>55.2</ele><time>2022-04-12T14:39:23Z</time><name>PT1279</name></trkpt>
<trkpt lat="52.043726" lon="05.776301"><ele>55.2</ele><time>2022-04-12T14:39:24Z</time><name>PT1280</name></trkpt>
<trkpt lat="52.043739" lon="05.776296"><ele>55.3</ele><time>2022-04-12T14:39:25Z</time><name>PT1281</name></trkpt>
<trkpt lat="52.043757" lon="05.776293"><ele>55.5</ele><time>2022-04-12T14:39:26Z</time><name>PT1282</name></trkpt>
<trkpt lat="52.043767" lon="05.776290"><ele>55.5</ele><time>2022-04-12T14:39:27Z</time><name>PT1283</name></trkpt>
<trkpt lat="52.043776" lon="05.776289"><ele>55.7</ele><time>2022-04-12T14:39:28Z</time><name>PT1284</name></trkpt>
<trkpt lat="52.043787" lon="05.776284"><ele>55.8</ele><time>2022-04-12T14:39:29Z</time><name>PT1285</name></trkpt>
<trkpt lat="52.043800" lon="05.776278"><ele>55.7</ele><time>2022-04-12T14:39:30Z</time><name>PT1286</name></trkpt>
<trkpt lat="52.043814" lon="05.776264"><ele>55.8</ele><time>2022-04-12T14:39:31Z</time><name>PT1287</name></trkpt>
<trkpt lat="52.043824" lon="05.776256"><ele>55.9</ele><time>2022-04-12T14:39:32Z</time><name>PT1288</name></trkpt>
<trkpt lat="52.043835" lon="05.776253"><ele>55.9</ele><time>2022-04-12T14:39:33Z</time><name>PT1289</name></trkpt>
<trkpt lat="52.043839" lon="05.776248"><ele>56.2</ele><time>2022-04-12T14:39:34Z</time><name>PT1290</name></trkpt>
<trkpt lat="52.043847" lon="05.776243"><ele>56.1</ele><time>2022-04-12T14:39:35Z</time><name>PT1291</name></trkpt>
<trkpt lat="52.043862" lon="05.776240"><ele>55.9</ele><time>2022-04-12T14:39:36Z</time><name>PT1292</name></trkpt>
<trkpt lat="52.043872" lon="05.776232"><ele>56</ele><time>2022-04-12T14:39:37Z</time><name>PT1293</name></trkpt>
<trkpt lat="52.043881" lon="05.776227"><ele>55.9</ele><time>2022-04-12T14:39:38Z</time><name>PT1294</name></trkpt>
<trkpt lat="52.043891" lon="05.776229"><ele>56</ele><time>2022-04-12T14:39:39Z</time><name>PT1295</name></trkpt>
<trkpt lat="52.043901" lon="05.776240"><ele>56.2</ele><time>2022-04-12T14:39:40Z</time><name>PT1296</name></trkpt>
<trkpt lat="52.043917" lon="05.776245"><ele>56.2</ele><time>2022-04-12T14:39:41Z</time><name>PT1297</name></trkpt>
<trkpt lat="52.043931" lon="05.776247"><ele>56.2</ele><time>2022-04-12T14:39:42Z</time><name>PT1298</name></trkpt>
<trkpt lat="52.043939" lon="05.776243"><ele>56.2</ele><time>2022-04-12T14:39:43Z</time><name>PT1299</name></trkpt>
<trkpt lat="52.043944" lon="05.776244"><ele>56.1</ele><time>2022-04-12T14:39:44Z</time><name>PT1300</name></trkpt>
<trkpt lat="52.043955" lon="05.776250"><ele>56.1</ele><time>2022-04-12T14:39:45Z</time><name>PT1301</name></trkpt>
<trkpt lat="52.043969" lon="05.776255"><ele>56</ele><time>2022-04-12T14:39:46Z</time><name>PT1302</name></trkpt>
<trkpt lat="52.043978" lon="05.776254"><ele>56.2</ele><time>2022-04-12T14:39:47Z</time><name>PT1303</name></trkpt>
<trkpt lat="52.043988" lon="05.776248"><ele>56.1</ele><time>2022-04-12T14:39:48Z</time><name>PT1304</name></trkpt>
<trkpt lat="52.043997" lon="05.776246"><ele>56.2</ele><time>2022-04-12T14:39:49Z</time><name>PT1305</name></trkpt>
<trkpt lat="52.044008" lon="05.776240"><ele>56.2</ele><time>2022-04-12T14:39:50Z</time><name>PT1306</name></trkpt>
<trkpt lat="52.044020" lon="05.776242"><ele>56.3</ele><time>2022-04-12T14:39:51Z</time><name>PT1307</name></trkpt>
<trkpt lat="52.044033" lon="05.776246"><ele>56.5</ele><time>2022-04-12T14:39:52Z</time><name>PT1308</name></trkpt>
<trkpt lat="52.044046" lon="05.776245"><ele>56.5</ele><time>2022-04-12T14:39:53Z</time><name>PT1309</name></trkpt>
<trkpt lat="52.044058" lon="05.776246"><ele>56.7</ele><time>2022-04-12T14:39:54Z</time><name>PT1310</name></trkpt>
<trkpt lat="52.044067" lon="05.776248"><ele>56.7</ele><time>2022-04-12T14:39:55Z</time><name>PT1311</name></trkpt>
<trkpt lat="52.044075" lon="05.776243"><ele>56.7</ele><time>2022-04-12T14:39:56Z</time><name>PT1312</name></trkpt>
<trkpt lat="52.044087" lon="05.776240"><ele>56.7</ele><time>2022-04-12T14:39:57Z</time><name>PT1313</name></trkpt>
<trkpt lat="52.044100" lon="05.776235"><ele>56.6</ele><time>2022-04-12T14:39:58Z</time><name>PT1314</name></trkpt>
<trkpt lat="52.044110" lon="05.776227"><ele>56.5</ele><time>2022-04-12T14:39:59Z</time><name>PT1315</name></trkpt>
<trkpt lat="52.044122" lon="05.776222"><ele>56.5</ele><time>2022-04-12T14:40:00Z</time><name>PT1316</name></trkpt>
<trkpt lat="52.044133" lon="05.776222"><ele>56.4</ele><time>2022-04-12T14:40:01Z</time><name>PT1317</name></trkpt>
<trkpt lat="52.044144" lon="05.776231"><ele>56.3</ele><time>2022-04-12T14:40:02Z</time><name>PT1318</name></trkpt>
<trkpt lat="52.044154" lon="05.776237"><ele>56.4</ele><time>2022-04-12T14:40:03Z</time><name>PT1319</name></trkpt>
<trkpt lat="52.044156" lon="05.776221"><ele>56.7</ele><time>2022-04-12T14:40:04Z</time><name>PT1320</name></trkpt>
<trkpt lat="52.044169" lon="05.776218"><ele>56.6</ele><time>2022-04-12T14:40:05Z</time><name>PT1321</name></trkpt>
<trkpt lat="52.044181" lon="05.776214"><ele>56.8</ele><time>2022-04-12T14:40:06Z</time><name>PT1322</name></trkpt>
<trkpt lat="52.044191" lon="05.776217"><ele>56.9</ele><time>2022-04-12T14:40:07Z</time><name>PT1323</name></trkpt>
<trkpt lat="52.044200" lon="05.776217"><ele>56.8</ele><time>2022-04-12T14:40:08Z</time><name>PT1324</name></trkpt>
<trkpt lat="52.044206" lon="05.776216"><ele>56.8</ele><time>2022-04-12T14:40:09Z</time><name>PT1325</name></trkpt>
<trkpt lat="52.044218" lon="05.776214"><ele>56.9</ele><time>2022-04-12T14:40:10Z</time><name>PT1326</name></trkpt>
<trkpt lat="52.044226" lon="05.776218"><ele>56.8</ele><time>2022-04-12T14:40:11Z</time><name>PT1327</name></trkpt>
<trkpt lat="52.044239" lon="05.776220"><ele>56.9</ele><time>2022-04-12T14:40:12Z</time><name>PT1328</name></trkpt>
<trkpt lat="52.044254" lon="05.776219"><ele>56.9</ele><time>2022-04-12T14:40:13Z</time><name>PT1329</name></trkpt>
<trkpt lat="52.044263" lon="05.776218"><ele>57</ele><time>2022-04-12T14:40:14Z</time><name>PT1330</name></trkpt>
<trkpt lat="52.044275" lon="05.776212"><ele>57</ele><time>2022-04-12T14:40:15Z</time><name>PT1331</name></trkpt>
<trkpt lat="52.044284" lon="05.776207"><ele>57.1</ele><time>2022-04-12T14:40:16Z</time><name>PT1332</name></trkpt>
<trkpt lat="52.044290" lon="05.776204"><ele>57</ele><time>2022-04-12T14:40:17Z</time><name>PT1333</name></trkpt>
<trkpt lat="52.044301" lon="05.776206"><ele>57</ele><time>2022-04-12T14:40:18Z</time><name>PT1334</name></trkpt>
<trkpt lat="52.044317" lon="05.776213"><ele>57</ele><time>2022-04-12T14:40:19Z</time><name>PT1335</name></trkpt>
<trkpt lat="52.044327" lon="05.776211"><ele>57.1</ele><time>2022-04-12T14:40:20Z</time><name>PT1336</name></trkpt>
<trkpt lat="52.044338" lon="05.776215"><ele>57.2</ele><time>2022-04-12T14:40:21Z</time><name>PT1337</name></trkpt>
<trkpt lat="52.044347" lon="05.776214"><ele>57.2</ele><time>2022-04-12T14:40:22Z</time><name>PT1338</name></trkpt>
<trkpt lat="52.044357" lon="05.776218"><ele>57.1</ele><time>2022-04-12T14:40:23Z</time><name>PT1339</name></trkpt>
<trkpt lat="52.044371" lon="05.776224"><ele>57.3</ele><time>2022-04-12T14:40:24Z</time><name>PT1340</name></trkpt>
<trkpt lat="52.044385" lon="05.776226"><ele>57.3</ele><time>2022-04-12T14:40:25Z</time><name>PT1341</name></trkpt>
<trkpt lat="52.044390" lon="05.776227"><ele>57.5</ele><time>2022-04-12T14:40:26Z</time><name>PT1342</name></trkpt>
<trkpt lat="52.044398" lon="05.776226"><ele>57.5</ele><time>2022-04-12T14:40:27Z</time><name>PT1343</name></trkpt>
<trkpt lat="52.044405" lon="05.776224"><ele>57.5</ele><time>2022-04-12T14:40:28Z</time><name>PT1344</name></trkpt>
<trkpt lat="52.044415" lon="05.776226"><ele>57.3</ele><time>2022-04-12T14:40:29Z</time><name>PT1345</name></trkpt>
<trkpt lat="52.044428" lon="05.776231"><ele>57.4</ele><time>2022-04-12T14:40:30Z</time><name>PT1346</name></trkpt>
<trkpt lat="52.044437" lon="05.776233"><ele>57.2</ele><time>2022-04-12T14:40:31Z</time><name>PT1347</name></trkpt>
<trkpt lat="52.044449" lon="05.776227"><ele>57.2</ele><time>2022-04-12T14:40:32Z</time><name>PT1348</name></trkpt>
<trkpt lat="52.044457" lon="05.776218"><ele>57.4</ele><time>2022-04-12T14:40:33Z</time><name>PT1349</name></trkpt>
<trkpt lat="52.044473" lon="05.776214"><ele>57.6</ele><time>2022-04-12T14:40:34Z</time><name>PT1350</name></trkpt>
<trkpt lat="52.044482" lon="05.776216"><ele>57.6</ele><time>2022-04-12T14:40:35Z</time><name>PT1351</name></trkpt>
<trkpt lat="52.044497" lon="05.776218"><ele>57.6</ele><time>2022-04-12T14:40:36Z</time><name>PT1352</name></trkpt>
<trkpt lat="52.044517" lon="05.776216"><ele>57.7</ele><time>2022-04-12T14:40:37Z</time><name>PT1353</name></trkpt>
<trkpt lat="52.044534" lon="05.776208"><ele>57.7</ele><time>2022-04-12T14:40:38Z</time><name>PT1354</name></trkpt>
<trkpt lat="52.044545" lon="05.776203"><ele>57.6</ele><time>2022-04-12T14:40:39Z</time><name>PT1355</name></trkpt>
<trkpt lat="52.044549" lon="05.776198"><ele>57.5</ele><time>2022-04-12T14:40:40Z</time><name>PT1356</name></trkpt>
<trkpt lat="52.044558" lon="05.776195"><ele>57.6</ele><time>2022-04-12T14:40:41Z</time><name>PT1357</name></trkpt>
<trkpt lat="52.044569" lon="05.776189"><ele>57.6</ele><time>2022-04-12T14:40:42Z</time><name>PT1358</name></trkpt>
<trkpt lat="52.044581" lon="05.776191"><ele>57.6</ele><time>2022-04-12T14:40:43Z</time><name>PT1359</name></trkpt>
<trkpt lat="52.044592" lon="05.776188"><ele>57.7</ele><time>2022-04-12T14:40:44Z</time><name>PT1360</name></trkpt>
<trkpt lat="52.044604" lon="05.776189"><ele>57.7</ele><time>2022-04-12T14:40:45Z</time><name>PT1361</name></trkpt>
<trkpt lat="52.044610" lon="05.776187"><ele>57.7</ele><time>2022-04-12T14:40:46Z</time><name>PT1362</name></trkpt>
<trkpt lat="52.044620" lon="05.776182"><ele>57.9</ele><time>2022-04-12T14:40:47Z</time><name>PT1363</name></trkpt>
<trkpt lat="52.044630" lon="05.776180"><ele>57.7</ele><time>2022-04-12T14:40:49Z</time><name>PT1364</name></trkpt>
<trkpt lat="52.044639" lon="05.776175"><ele>57.8</ele><time>2022-04-12T14:40:49Z</time><name>PT1365</name></trkpt>
<trkpt lat="52.044656" lon="05.776173"><ele>57.8</ele><time>2022-04-12T14:40:51Z</time><name>PT1366</name></trkpt>
<trkpt lat="52.044668" lon="05.776169"><ele>57.9</ele><time>2022-04-12T14:40:51Z</time><name>PT1367</name></trkpt>
<trkpt lat="52.044682" lon="05.776166"><ele>57.9</ele><time>2022-04-12T14:40:53Z</time><name>PT1368</name></trkpt>
<trkpt lat="52.044691" lon="05.776164"><ele>58</ele><time>2022-04-12T14:40:53Z</time><name>PT1369</name></trkpt>
<trkpt lat="52.044703" lon="05.776162"><ele>58</ele><time>2022-04-12T14:40:54Z</time><name>PT1370</name></trkpt>
<trkpt lat="52.044712" lon="05.776164"><ele>58</ele><time>2022-04-12T14:40:55Z</time><name>PT1371</name></trkpt>
<trkpt lat="52.044724" lon="05.776158"><ele>58</ele><time>2022-04-12T14:40:56Z</time><name>PT1372</name></trkpt>
<trkpt lat="52.044737" lon="05.776152"><ele>57.9</ele><time>2022-04-12T14:40:57Z</time><name>PT1373</name></trkpt>
<trkpt lat="52.044745" lon="05.776149"><ele>57.9</ele><time>2022-04-12T14:40:59Z</time><name>PT1374</name></trkpt>
<trkpt lat="52.044757" lon="05.776143"><ele>58</ele><time>2022-04-12T14:40:59Z</time><name>PT1375</name></trkpt>
<trkpt lat="52.044766" lon="05.776142"><ele>57.9</ele><time>2022-04-12T14:41:01Z</time><name>PT1376</name></trkpt>
<trkpt lat="52.044773" lon="05.776140"><ele>57.7</ele><time>2022-04-12T14:41:01Z</time><name>PT1377</name></trkpt>
<trkpt lat="52.044782" lon="05.776142"><ele>57.9</ele><time>2022-04-12T14:41:02Z</time><name>PT1378</name></trkpt>
<trkpt lat="52.044796" lon="05.776138"><ele>58</ele><time>2022-04-12T14:41:03Z</time><name>PT1379</name></trkpt>
<trkpt lat="52.044805" lon="05.776133"><ele>57.8</ele><time>2022-04-12T14:41:04Z</time><name>PT1380</name></trkpt>
<trkpt lat="52.044811" lon="05.776134"><ele>57.9</ele><time>2022-04-12T14:41:05Z</time><name>PT1381</name></trkpt>
<trkpt lat="52.044817" lon="05.776137"><ele>57.9</ele><time>2022-04-12T14:41:06Z</time><name>PT1382</name></trkpt>
<trkpt lat="52.044828" lon="05.776138"><ele>57.9</ele><time>2022-04-12T14:41:07Z</time><name>PT1383</name></trkpt>
<trkpt lat="52.044845" lon="05.776140"><ele>57.7</ele><time>2022-04-12T14:41:08Z</time><name>PT1384</name></trkpt>
<trkpt lat="52.044859" lon="05.776134"><ele>57.7</ele><time>2022-04-12T14:41:09Z</time><name>PT1385</name></trkpt>
<trkpt lat="52.044870" lon="05.776139"><ele>57.7</ele><time>2022-04-12T14:41:11Z</time><name>PT1386</name></trkpt>
<trkpt lat="52.044876" lon="05.776140"><ele>57.7</ele><time>2022-04-12T14:41:11Z</time><name>PT1387</name></trkpt>
<trkpt lat="52.044887" lon="05.776136"><ele>57.7</ele><time>2022-04-12T14:41:12Z</time><name>PT1388</name></trkpt>
<trkpt lat="52.044893" lon="05.776133"><ele>57.7</ele><time>2022-04-12T14:41:13Z</time><name>PT1389</name></trkpt>
<trkpt lat="52.044901" lon="05.776132"><ele>57.8</ele><time>2022-04-12T14:41:14Z</time><name>PT1390</name></trkpt>
<trkpt lat="52.044914" lon="05.776126"><ele>57.9</ele><time>2022-04-12T14:41:15Z</time><name>PT1391</name></trkpt>
<trkpt lat="52.044925" lon="05.776113"><ele>58.1</ele><time>2022-04-12T14:41:16Z</time><name>PT1392</name></trkpt>
<trkpt lat="52.044933" lon="05.776107"><ele>58.1</ele><time>2022-04-12T14:41:17Z</time><name>PT1393</name></trkpt>
<trkpt lat="52.044940" lon="05.776107"><ele>58.1</ele><time>2022-04-12T14:41:18Z</time><name>PT1394</name></trkpt>
<trkpt lat="52.044950" lon="05.776103"><ele>58.1</ele><time>2022-04-12T14:41:19Z</time><name>PT1395</name></trkpt>
<trkpt lat="52.044964" lon="05.776093"><ele>58</ele><time>2022-04-12T14:41:21Z</time><name>PT1396</name></trkpt>
<trkpt lat="52.044979" lon="05.776089"><ele>57.9</ele><time>2022-04-12T14:41:21Z</time><name>PT1397</name></trkpt>
<trkpt lat="52.044994" lon="05.776083"><ele>57.7</ele><time>2022-04-12T14:41:22Z</time><name>PT1398</name></trkpt>
<trkpt lat="52.045009" lon="05.776077"><ele>57.7</ele><time>2022-04-12T14:41:23Z</time><name>PT1399</name></trkpt>
<trkpt lat="52.045028" lon="05.776072"><ele>57.7</ele><time>2022-04-12T14:41:24Z</time><name>PT1400</name></trkpt>
<trkpt lat="52.045042" lon="05.776071"><ele>57.7</ele><time>2022-04-12T14:41:25Z</time><name>PT1401</name></trkpt>
<trkpt lat="52.045055" lon="05.776073"><ele>57.8</ele><time>2022-04-12T14:41:26Z</time><name>PT1402</name></trkpt>
<trkpt lat="52.045072" lon="05.776059"><ele>57.8</ele><time>2022-04-12T14:41:27Z</time><name>PT1403</name></trkpt>
<trkpt lat="52.045089" lon="05.776052"><ele>57.8</ele><time>2022-04-12T14:41:28Z</time><name>PT1404</name></trkpt>
<trkpt lat="52.045100" lon="05.776046"><ele>57.9</ele><time>2022-04-12T14:41:29Z</time><name>PT1405</name></trkpt>
<trkpt lat="52.045109" lon="05.776041"><ele>57.9</ele><time>2022-04-12T14:41:31Z</time><name>PT1406</name></trkpt>
<trkpt lat="52.045115" lon="05.776024"><ele>58</ele><time>2022-04-12T14:41:31Z</time><name>PT1407</name></trkpt>
<trkpt lat="52.045122" lon="05.776017"><ele>58.1</ele><time>2022-04-12T14:41:32Z</time><name>PT1408</name></trkpt>
<trkpt lat="52.045139" lon="05.776005"><ele>58.2</ele><time>2022-04-12T14:41:33Z</time><name>PT1409</name></trkpt>
<trkpt lat="52.045151" lon="05.775986"><ele>58</ele><time>2022-04-12T14:41:34Z</time><name>PT1410</name></trkpt>
<trkpt lat="52.045161" lon="05.775980"><ele>58.1</ele><time>2022-04-12T14:41:35Z</time><name>PT1411</name></trkpt>
<trkpt lat="52.045171" lon="05.775969"><ele>58</ele><time>2022-04-12T14:41:36Z</time><name>PT1412</name></trkpt>
<trkpt lat="52.045180" lon="05.775964"><ele>57.8</ele><time>2022-04-12T14:41:37Z</time><name>PT1413</name></trkpt>
<trkpt lat="52.045194" lon="05.775957"><ele>57.9</ele><time>2022-04-12T14:41:38Z</time><name>PT1414</name></trkpt>
<trkpt lat="52.045202" lon="05.775956"><ele>58</ele><time>2022-04-12T14:41:39Z</time><name>PT1415</name></trkpt>
<trkpt lat="52.045210" lon="05.775951"><ele>58.1</ele><time>2022-04-12T14:41:40Z</time><name>PT1416</name></trkpt>
<trkpt lat="52.045215" lon="05.775946"><ele>58.2</ele><time>2022-04-12T14:41:41Z</time><name>PT1417</name></trkpt>
<trkpt lat="52.045221" lon="05.775942"><ele>58.4</ele><time>2022-04-12T14:41:42Z</time><name>PT1418</name></trkpt>
<trkpt lat="52.045230" lon="05.775940"><ele>58.4</ele><time>2022-04-12T14:41:43Z</time><name>PT1419</name></trkpt>
<trkpt lat="52.045238" lon="05.775928"><ele>58.4</ele><time>2022-04-12T14:41:44Z</time><name>PT1420</name></trkpt>
<trkpt lat="52.045254" lon="05.775921"><ele>58.4</ele><time>2022-04-12T14:41:45Z</time><name>PT1421</name></trkpt>
<trkpt lat="52.045264" lon="05.775916"><ele>58.3</ele><time>2022-04-12T14:41:46Z</time><name>PT1422</name></trkpt>
<trkpt lat="52.045272" lon="05.775911"><ele>58.4</ele><time>2022-04-12T14:41:47Z</time><name>PT1423</name></trkpt>
<trkpt lat="52.045277" lon="05.775910"><ele>58.2</ele><time>2022-04-12T14:41:48Z</time><name>PT1424</name></trkpt>
<trkpt lat="52.045285" lon="05.775909"><ele>58.3</ele><time>2022-04-12T14:41:49Z</time><name>PT1425</name></trkpt>
<trkpt lat="52.045299" lon="05.775911"><ele>58.3</ele><time>2022-04-12T14:41:51Z</time><name>PT1426</name></trkpt>
<trkpt lat="52.045319" lon="05.775898"><ele>58.4</ele><time>2022-04-12T14:41:51Z</time><name>PT1427</name></trkpt>
<trkpt lat="52.045339" lon="05.775890"><ele>58.3</ele><time>2022-04-12T14:41:52Z</time><name>PT1428</name></trkpt>
<trkpt lat="52.045350" lon="05.775880"><ele>58.6</ele><time>2022-04-12T14:41:53Z</time><name>PT1429</name></trkpt>
<trkpt lat="52.045359" lon="05.775868"><ele>58.5</ele><time>2022-04-12T14:41:54Z</time><name>PT1430</name></trkpt>
<trkpt lat="52.045366" lon="05.775865"><ele>58.5</ele><time>2022-04-12T14:41:55Z</time><name>PT1431</name></trkpt>
<trkpt lat="52.045375" lon="05.775865"><ele>58.3</ele><time>2022-04-12T14:41:56Z</time><name>PT1432</name></trkpt>
<trkpt lat="52.045387" lon="05.775863"><ele>58.3</ele><time>2022-04-12T14:41:57Z</time><name>PT1433</name></trkpt>
<trkpt lat="52.045400" lon="05.775853"><ele>58.2</ele><time>2022-04-12T14:41:58Z</time><name>PT1434</name></trkpt>
<trkpt lat="52.045413" lon="05.775843"><ele>58.1</ele><time>2022-04-12T14:41:59Z</time><name>PT1435</name></trkpt>
<trkpt lat="52.045425" lon="05.775838"><ele>58.1</ele><time>2022-04-12T14:42:00Z</time><name>PT1436</name></trkpt>
<trkpt lat="52.045431" lon="05.775830"><ele>58.1</ele><time>2022-04-12T14:42:01Z</time><name>PT1437</name></trkpt>
<trkpt lat="52.045437" lon="05.775821"><ele>58.2</ele><time>2022-04-12T14:42:02Z</time><name>PT1438</name></trkpt>
<trkpt lat="52.045446" lon="05.775817"><ele>58.1</ele><time>2022-04-12T14:42:03Z</time><name>PT1439</name></trkpt>
<trkpt lat="52.045462" lon="05.775818"><ele>58</ele><time>2022-04-12T14:42:04Z</time><name>PT1440</name></trkpt>
<trkpt lat="52.045475" lon="05.775807"><ele>57.7</ele><time>2022-04-12T14:42:05Z</time><name>PT1441</name></trkpt>
<trkpt lat="52.045483" lon="05.775795"><ele>57.8</ele><time>2022-04-12T14:42:06Z</time><name>PT1442</name></trkpt>
<trkpt lat="52.045488" lon="05.775786"><ele>57.8</ele><time>2022-04-12T14:42:07Z</time><name>PT1443</name></trkpt>
<trkpt lat="52.045496" lon="05.775778"><ele>57.7</ele><time>2022-04-12T14:42:08Z</time><name>PT1444</name></trkpt>
<trkpt lat="52.045511" lon="05.775781"><ele>57.9</ele><time>2022-04-12T14:42:09Z</time><name>PT1445</name></trkpt>
<trkpt lat="52.045527" lon="05.775780"><ele>57.9</ele><time>2022-04-12T14:42:11Z</time><name>PT1446</name></trkpt>
<trkpt lat="52.045535" lon="05.775769"><ele>57.8</ele><time>2022-04-12T14:42:11Z</time><name>PT1447</name></trkpt>
<trkpt lat="52.045547" lon="05.775757"><ele>58</ele><time>2022-04-12T14:42:13Z</time><name>PT1448</name></trkpt>
<trkpt lat="52.045559" lon="05.775752"><ele>58</ele><time>2022-04-12T14:42:13Z</time><name>PT1449</name></trkpt>
<trkpt lat="52.045568" lon="05.775744"><ele>57.8</ele><time>2022-04-12T14:42:14Z</time><name>PT1450</name></trkpt>
<trkpt lat="52.045575" lon="05.775741"><ele>58</ele><time>2022-04-12T14:42:15Z</time><name>PT1451</name></trkpt>
<trkpt lat="52.045584" lon="05.775732"><ele>58</ele><time>2022-04-12T14:42:16Z</time><name>PT1452</name></trkpt>
<trkpt lat="52.045596" lon="05.775720"><ele>58</ele><time>2022-04-12T14:42:17Z</time><name>PT1453</name></trkpt>
<trkpt lat="52.045608" lon="05.775712"><ele>58</ele><time>2022-04-12T14:42:18Z</time><name>PT1454</name></trkpt>
<trkpt lat="52.045619" lon="05.775706"><ele>58</ele><time>2022-04-12T14:42:19Z</time><name>PT1455</name></trkpt>
<trkpt lat="52.045623" lon="05.775698"><ele>58.2</ele><time>2022-04-12T14:42:20Z</time><name>PT1456</name></trkpt>
<trkpt lat="52.045623" lon="05.775692"><ele>58.2</ele><time>2022-04-12T14:42:21Z</time><name>PT1457</name></trkpt>
<trkpt lat="52.045630" lon="05.775689"><ele>58.2</ele><time>2022-04-12T14:42:22Z</time><name>PT1458</name></trkpt>
<trkpt lat="52.045646" lon="05.775691"><ele>58.3</ele><time>2022-04-12T14:42:23Z</time><name>PT1459</name></trkpt>
<trkpt lat="52.045664" lon="05.775685"><ele>58.3</ele><time>2022-04-12T14:42:24Z</time><name>PT1460</name></trkpt>
<trkpt lat="52.045674" lon="05.775675"><ele>58.2</ele><time>2022-04-12T14:42:25Z</time><name>PT1461</name></trkpt>
<trkpt lat="52.045683" lon="05.775670"><ele>58.4</ele><time>2022-04-12T14:42:26Z</time><name>PT1462</name></trkpt>
<trkpt lat="52.045691" lon="05.775669"><ele>58.4</ele><time>2022-04-12T14:42:27Z</time><name>PT1463</name></trkpt>
<trkpt lat="52.045703" lon="05.775669"><ele>58.6</ele><time>2022-04-12T14:42:28Z</time><name>PT1464</name></trkpt>
<trkpt lat="52.045713" lon="05.775661"><ele>58.6</ele><time>2022-04-12T14:42:29Z</time><name>PT1465</name></trkpt>
<trkpt lat="52.045727" lon="05.775650"><ele>58.4</ele><time>2022-04-12T14:42:30Z</time><name>PT1466</name></trkpt>
<trkpt lat="52.045741" lon="05.775642"><ele>58.4</ele><time>2022-04-12T14:42:31Z</time><name>PT1467</name></trkpt>
<trkpt lat="52.045750" lon="05.775632"><ele>58.2</ele><time>2022-04-12T14:42:32Z</time><name>PT1468</name></trkpt>
<trkpt lat="52.045758" lon="05.775626"><ele>58.2</ele><time>2022-04-12T14:42:33Z</time><name>PT1469</name></trkpt>
<trkpt lat="52.045764" lon="05.775621"><ele>58.4</ele><time>2022-04-12T14:42:34Z</time><name>PT1470</name></trkpt>
<trkpt lat="52.045776" lon="05.775615"><ele>58.5</ele><time>2022-04-12T14:42:35Z</time><name>PT1471</name></trkpt>
<trkpt lat="52.045786" lon="05.775608"><ele>58.4</ele><time>2022-04-12T14:42:36Z</time><name>PT1472</name></trkpt>
<trkpt lat="52.045791" lon="05.775595"><ele>58.4</ele><time>2022-04-12T14:42:37Z</time><name>PT1473</name></trkpt>
<trkpt lat="52.045801" lon="05.775590"><ele>58.5</ele><time>2022-04-12T14:42:38Z</time><name>PT1474</name></trkpt>
<trkpt lat="52.045812" lon="05.775583"><ele>58.4</ele><time>2022-04-12T14:42:39Z</time><name>PT1475</name></trkpt>
<trkpt lat="52.045827" lon="05.775578"><ele>58.5</ele><time>2022-04-12T14:42:40Z</time><name>PT1476</name></trkpt>
<trkpt lat="52.045838" lon="05.775574"><ele>58.6</ele><time>2022-04-12T14:42:41Z</time><name>PT1477</name></trkpt>
<trkpt lat="52.045846" lon="05.775568"><ele>58.5</ele><time>2022-04-12T14:42:42Z</time><name>PT1478</name></trkpt>
<trkpt lat="52.045860" lon="05.775562"><ele>58.5</ele><time>2022-04-12T14:42:43Z</time><name>PT1479</name></trkpt>
<trkpt lat="52.045876" lon="05.775555"><ele>58.4</ele><time>2022-04-12T14:42:44Z</time><name>PT1480</name></trkpt>
<trkpt lat="52.045885" lon="05.775550"><ele>58.4</ele><time>2022-04-12T14:42:45Z</time><name>PT1481</name></trkpt>
<trkpt lat="52.045892" lon="05.775549"><ele>58.4</ele><time>2022-04-12T14:42:46Z</time><name>PT1482</name></trkpt>
<trkpt lat="52.045899" lon="05.775546"><ele>58.3</ele><time>2022-04-12T14:42:47Z</time><name>PT1483</name></trkpt>
<trkpt lat="52.045907" lon="05.775539"><ele>58.2</ele><time>2022-04-12T14:42:48Z</time><name>PT1484</name></trkpt>
<trkpt lat="52.045917" lon="05.775532"><ele>58.2</ele><time>2022-04-12T14:42:49Z</time><name>PT1485</name></trkpt>
<trkpt lat="52.045932" lon="05.775523"><ele>58.1</ele><time>2022-04-12T14:42:50Z</time><name>PT1486</name></trkpt>
<trkpt lat="52.045944" lon="05.775517"><ele>58.1</ele><time>2022-04-12T14:42:51Z</time><name>PT1487</name></trkpt>
<trkpt lat="52.045956" lon="05.775510"><ele>58.2</ele><time>2022-04-12T14:42:52Z</time><name>PT1488</name></trkpt>
<trkpt lat="52.045966" lon="05.775505"><ele>58.2</ele><time>2022-04-12T14:42:53Z</time><name>PT1489</name></trkpt>
<trkpt lat="52.045977" lon="05.775493"><ele>58.3</ele><time>2022-04-12T14:42:54Z</time><name>PT1490</name></trkpt>
<trkpt lat="52.045988" lon="05.775484"><ele>58.5</ele><time>2022-04-12T14:42:55Z</time><name>PT1491</name></trkpt>
<trkpt lat="52.046000" lon="05.775481"><ele>58.5</ele><time>2022-04-12T14:42:56Z</time><name>PT1492</name></trkpt>
<trkpt lat="52.046013" lon="05.775476"><ele>58.5</ele><time>2022-04-12T14:42:57Z</time><name>PT1493</name></trkpt>
<trkpt lat="52.046025" lon="05.775462"><ele>58.3</ele><time>2022-04-12T14:42:58Z</time><name>PT1494</name></trkpt>
<trkpt lat="52.046032" lon="05.775452"><ele>58.2</ele><time>2022-04-12T14:42:59Z</time><name>PT1495</name></trkpt>
<trkpt lat="52.046039" lon="05.775443"><ele>58.1</ele><time>2022-04-12T14:43:00Z</time><name>PT1496</name></trkpt>
<trkpt lat="52.046048" lon="05.775439"><ele>58.2</ele><time>2022-04-12T14:43:01Z</time><name>PT1497</name></trkpt>
<trkpt lat="52.046055" lon="05.775440"><ele>58.3</ele><time>2022-04-12T14:43:02Z</time><name>PT1498</name></trkpt>
<trkpt lat="52.046069" lon="05.775434"><ele>58.4</ele><time>2022-04-12T14:43:03Z</time><name>PT1499</name></trkpt>
<trkpt lat="52.046083" lon="05.775422"><ele>58.4</ele><time>2022-04-12T14:43:04Z</time><name>PT1500</name></trkpt>
<trkpt lat="52.046094" lon="05.775412"><ele>58.3</ele><time>2022-04-12T14:43:05Z</time><name>PT1501</name></trkpt>
<trkpt lat="52.046101" lon="05.775405"><ele>58.2</ele><time>2022-04-12T14:43:06Z</time><name>PT1502</name></trkpt>
<trkpt lat="52.046106" lon="05.775397"><ele>58.1</ele><time>2022-04-12T14:43:07Z</time><name>PT1503</name></trkpt>
<trkpt lat="52.046114" lon="05.775391"><ele>58.1</ele><time>2022-04-12T14:43:08Z</time><name>PT1504</name></trkpt>
<trkpt lat="52.046124" lon="05.775389"><ele>57.9</ele><time>2022-04-12T14:43:09Z</time><name>PT1505</name></trkpt>
<trkpt lat="52.046138" lon="05.775386"><ele>57.8</ele><time>2022-04-12T14:43:10Z</time><name>PT1506</name></trkpt>
<trkpt lat="52.046150" lon="05.775377"><ele>57.7</ele><time>2022-04-12T14:43:11Z</time><name>PT1507</name></trkpt>
<trkpt lat="52.046156" lon="05.775371"><ele>57.8</ele><time>2022-04-12T14:43:12Z</time><name>PT1508</name></trkpt>
<trkpt lat="52.046165" lon="05.775366"><ele>57.8</ele><time>2022-04-12T14:43:13Z</time><name>PT1509</name></trkpt>
<trkpt lat="52.046174" lon="05.775364"><ele>57.8</ele><time>2022-04-12T14:43:14Z</time><name>PT1510</name></trkpt>
<trkpt lat="52.046185" lon="05.775364"><ele>57.9</ele><time>2022-04-12T14:43:15Z</time><name>PT1511</name></trkpt>
<trkpt lat="52.046196" lon="05.775358"><ele>58</ele><time>2022-04-12T14:43:16Z</time><name>PT1512</name></trkpt>
<trkpt lat="52.046210" lon="05.775352"><ele>58.1</ele><time>2022-04-12T14:43:17Z</time><name>PT1513</name></trkpt>
<trkpt lat="52.046219" lon="05.775341"><ele>58.2</ele><time>2022-04-12T14:43:18Z</time><name>PT1514</name></trkpt>
<trkpt lat="52.046230" lon="05.775329"><ele>58.3</ele><time>2022-04-12T14:43:19Z</time><name>PT1515</name></trkpt>
<trkpt lat="52.046239" lon="05.775321"><ele>58.3</ele><time>2022-04-12T14:43:20Z</time><name>PT1516</name></trkpt>
<trkpt lat="52.046251" lon="05.775315"><ele>58.5</ele><time>2022-04-12T14:43:21Z</time><name>PT1517</name></trkpt>
<trkpt lat="52.046260" lon="05.775314"><ele>58.3</ele><time>2022-04-12T14:43:22Z</time><name>PT1518</name></trkpt>
<trkpt lat="52.046273" lon="05.775307"><ele>58.2</ele><time>2022-04-12T14:43:23Z</time><name>PT1519</name></trkpt>
<trkpt lat="52.046293" lon="05.775299"><ele>58.2</ele><time>2022-04-12T14:43:24Z</time><name>PT1520</name></trkpt>
<trkpt lat="52.046306" lon="05.775295"><ele>58.3</ele><time>2022-04-12T14:43:25Z</time><name>PT1521</name></trkpt>
<trkpt lat="52.046313" lon="05.775288"><ele>58.3</ele><time>2022-04-12T14:43:26Z</time><name>PT1522</name></trkpt>
<trkpt lat="52.046319" lon="05.775283"><ele>58.4</ele><time>2022-04-12T14:43:27Z</time><name>PT1523</name></trkpt>
<trkpt lat="52.046330" lon="05.775280"><ele>58.5</ele><time>2022-04-12T14:43:28Z</time><name>PT1524</name></trkpt>
<trkpt lat="52.046342" lon="05.775280"><ele>58.6</ele><time>2022-04-12T14:43:29Z</time><name>PT1525</name></trkpt>
<trkpt lat="52.046354" lon="05.775276"><ele>58.3</ele><time>2022-04-12T14:43:30Z</time><name>PT1526</name></trkpt>
<trkpt lat="52.046373" lon="05.775268"><ele>58.3</ele><time>2022-04-12T14:43:31Z</time><name>PT1527</name></trkpt>
<trkpt lat="52.046382" lon="05.775259"><ele>58.5</ele><time>2022-04-12T14:43:32Z</time><name>PT1528</name></trkpt>
<trkpt lat="52.046390" lon="05.775256"><ele>58.6</ele><time>2022-04-12T14:43:33Z</time><name>PT1529</name></trkpt>
<trkpt lat="52.046404" lon="05.775251"><ele>58.5</ele><time>2022-04-12T14:43:34Z</time><name>PT1530</name></trkpt>
<trkpt lat="52.046413" lon="05.775248"><ele>58.5</ele><time>2022-04-12T14:43:35Z</time><name>PT1531</name></trkpt>
<trkpt lat="52.046423" lon="05.775246"><ele>58.6</ele><time>2022-04-12T14:43:36Z</time><name>PT1532</name></trkpt>
<trkpt lat="52.046437" lon="05.775243"><ele>58.6</ele><time>2022-04-12T14:43:37Z</time><name>PT1533</name></trkpt>
<trkpt lat="52.046445" lon="05.775233"><ele>58.4</ele><time>2022-04-12T14:43:38Z</time><name>PT1534</name></trkpt>
<trkpt lat="52.046449" lon="05.775230"><ele>58.4</ele><time>2022-04-12T14:43:39Z</time><name>PT1535</name></trkpt>
<trkpt lat="52.046455" lon="05.775227"><ele>58.6</ele><time>2022-04-12T14:43:40Z</time><name>PT1536</name></trkpt>
<trkpt lat="52.046463" lon="05.775227"><ele>58.7</ele><time>2022-04-12T14:43:41Z</time><name>PT1537</name></trkpt>
<trkpt lat="52.046470" lon="05.775226"><ele>58.7</ele><time>2022-04-12T14:43:42Z</time><name>PT1538</name></trkpt>
<trkpt lat="52.046482" lon="05.775223"><ele>58.7</ele><time>2022-04-12T14:43:43Z</time><name>PT1539</name></trkpt>
<trkpt lat="52.046497" lon="05.775218"><ele>58.7</ele><time>2022-04-12T14:43:44Z</time><name>PT1540</name></trkpt>
<trkpt lat="52.046504" lon="05.775210"><ele>58.7</ele><time>2022-04-12T14:43:45Z</time><name>PT1541</name></trkpt>
<trkpt lat="52.046512" lon="05.775205"><ele>58.6</ele><time>2022-04-12T14:43:46Z</time><name>PT1542</name></trkpt>
<trkpt lat="52.046515" lon="05.775201"><ele>58.7</ele><time>2022-04-12T14:43:47Z</time><name>PT1543</name></trkpt>
<trkpt lat="52.046526" lon="05.775197"><ele>58.5</ele><time>2022-04-12T14:43:48Z</time><name>PT1544</name></trkpt>
<trkpt lat="52.046539" lon="05.775195"><ele>58.6</ele><time>2022-04-12T14:43:49Z</time><name>PT1545</name></trkpt>
<trkpt lat="52.046559" lon="05.775191"><ele>58.5</ele><time>2022-04-12T14:43:50Z</time><name>PT1546</name></trkpt>
<trkpt lat="52.046571" lon="05.775187"><ele>58.6</ele><time>2022-04-12T14:43:51Z</time><name>PT1547</name></trkpt>
<trkpt lat="52.046579" lon="05.775185"><ele>58.2</ele><time>2022-04-12T14:43:52Z</time><name>PT1548</name></trkpt>
<trkpt lat="52.046587" lon="05.775177"><ele>58.2</ele><time>2022-04-12T14:43:53Z</time><name>PT1549</name></trkpt>
<trkpt lat="52.046600" lon="05.775175"><ele>58</ele><time>2022-04-12T14:43:54Z</time><name>PT1550</name></trkpt>
<trkpt lat="52.046616" lon="05.775174"><ele>58</ele><time>2022-04-12T14:43:55Z</time><name>PT1551</name></trkpt>
<trkpt lat="52.046636" lon="05.775170"><ele>58.1</ele><time>2022-04-12T14:43:56Z</time><name>PT1552</name></trkpt>
<trkpt lat="52.046649" lon="05.775155"><ele>58.1</ele><time>2022-04-12T14:43:57Z</time><name>PT1553</name></trkpt>
<trkpt lat="52.046658" lon="05.775143"><ele>58.3</ele><time>2022-04-12T14:43:58Z</time><name>PT1554</name></trkpt>
<trkpt lat="52.046663" lon="05.775134"><ele>58.4</ele><time>2022-04-12T14:43:59Z</time><name>PT1555</name></trkpt>
<trkpt lat="52.046669" lon="05.775133"><ele>58.3</ele><time>2022-04-12T14:44:00Z</time><name>PT1556</name></trkpt>
<trkpt lat="52.046677" lon="05.775135"><ele>58.3</ele><time>2022-04-12T14:44:01Z</time><name>PT1557</name></trkpt>
<trkpt lat="52.046692" lon="05.775135"><ele>58.2</ele><time>2022-04-12T14:44:02Z</time><name>PT1558</name></trkpt>
<trkpt lat="52.046708" lon="05.775129"><ele>58.1</ele><time>2022-04-12T14:44:03Z</time><name>PT1559</name></trkpt>
<trkpt lat="52.046722" lon="05.775116"><ele>58.2</ele><time>2022-04-12T14:44:04Z</time><name>PT1560</name></trkpt>
<trkpt lat="52.046731" lon="05.775107"><ele>58.1</ele><time>2022-04-12T14:44:05Z</time><name>PT1561</name></trkpt>
<trkpt lat="52.046741" lon="05.775106"><ele>58.2</ele><time>2022-04-12T14:44:06Z</time><name>PT1562</name></trkpt>
<trkpt lat="52.046749" lon="05.775106"><ele>58.2</ele><time>2022-04-12T14:44:07Z</time><name>PT1563</name></trkpt>
<trkpt lat="52.046760" lon="05.775107"><ele>58.3</ele><time>2022-04-12T14:44:08Z</time><name>PT1564</name></trkpt>
<trkpt lat="52.046778" lon="05.775110"><ele>58.3</ele><time>2022-04-12T14:44:09Z</time><name>PT1565</name></trkpt>
<trkpt lat="52.046784" lon="05.775118"><ele>58.4</ele><time>2022-04-12T14:44:10Z</time><name>PT1566</name></trkpt>
<trkpt lat="52.046791" lon="05.775121"><ele>58.3</ele><time>2022-04-12T14:44:11Z</time><name>PT1567</name></trkpt>
<trkpt lat="52.046799" lon="05.775125"><ele>58.3</ele><time>2022-04-12T14:44:12Z</time><name>PT1568</name></trkpt>
<trkpt lat="52.046812" lon="05.775125"><ele>58.3</ele><time>2022-04-12T14:44:13Z</time><name>PT1569</name></trkpt>
<trkpt lat="52.046829" lon="05.775121"><ele>58.3</ele><time>2022-04-12T14:44:14Z</time><name>PT1570</name></trkpt>
<trkpt lat="52.046839" lon="05.775116"><ele>58.2</ele><time>2022-04-12T14:44:15Z</time><name>PT1571</name></trkpt>
<trkpt lat="52.046847" lon="05.775107"><ele>58.2</ele><time>2022-04-12T14:44:16Z</time><name>PT1572</name></trkpt>
<trkpt lat="52.046854" lon="05.775105"><ele>58.2</ele><time>2022-04-12T14:44:17Z</time><name>PT1573</name></trkpt>
<trkpt lat="52.046862" lon="05.775102"><ele>58.3</ele><time>2022-04-12T14:44:18Z</time><name>PT1574</name></trkpt>
<trkpt lat="52.046873" lon="05.775095"><ele>58.2</ele><time>2022-04-12T14:44:19Z</time><name>PT1575</name></trkpt>
<trkpt lat="52.046888" lon="05.775089"><ele>58.3</ele><time>2022-04-12T14:44:20Z</time><name>PT1576</name></trkpt>
<trkpt lat="52.046900" lon="05.775082"><ele>58.4</ele><time>2022-04-12T14:44:21Z</time><name>PT1577</name></trkpt>
<trkpt lat="52.046909" lon="05.775076"><ele>58.3</ele><time>2022-04-12T14:44:22Z</time><name>PT1578</name></trkpt>
<trkpt lat="52.046921" lon="05.775073"><ele>58.3</ele><time>2022-04-12T14:44:23Z</time><name>PT1579</name></trkpt>
<trkpt lat="52.046931" lon="05.775071"><ele>58.3</ele><time>2022-04-12T14:44:24Z</time><name>PT1580</name></trkpt>
<trkpt lat="52.046944" lon="05.775068"><ele>58.2</ele><time>2022-04-12T14:44:25Z</time><name>PT1581</name></trkpt>
<trkpt lat="52.046957" lon="05.775058"><ele>58.3</ele><time>2022-04-12T14:44:26Z</time><name>PT1582</name></trkpt>
<trkpt lat="52.046971" lon="05.775047"><ele>58.3</ele><time>2022-04-12T14:44:27Z</time><name>PT1583</name></trkpt>
<trkpt lat="52.046979" lon="05.775037"><ele>58.3</ele><time>2022-04-12T14:44:28Z</time><name>PT1584</name></trkpt>
<trkpt lat="52.046984" lon="05.775028"><ele>58.2</ele><time>2022-04-12T14:44:29Z</time><name>PT1585</name></trkpt>
<trkpt lat="52.046993" lon="05.775020"><ele>58.4</ele><time>2022-04-12T14:44:30Z</time><name>PT1586</name></trkpt>
<trkpt lat="52.047007" lon="05.775013"><ele>58.3</ele><time>2022-04-12T14:44:31Z</time><name>PT1587</name></trkpt>
<trkpt lat="52.047024" lon="05.775000"><ele>58.2</ele><time>2022-04-12T14:44:33Z</time><name>PT1588</name></trkpt>
<trkpt lat="52.047034" lon="05.774984"><ele>58.2</ele><time>2022-04-12T14:44:33Z</time><name>PT1589</name></trkpt>
<trkpt lat="52.047044" lon="05.774977"><ele>58</ele><time>2022-04-12T14:44:34Z</time><name>PT1590</name></trkpt>
<trkpt lat="52.047053" lon="05.774988"><ele>58.1</ele><time>2022-04-12T14:44:35Z</time><name>PT1591</name></trkpt>
<trkpt lat="52.047054" lon="05.774990"><ele>58.1</ele><time>2022-04-12T14:44:37Z</time><name>PT1592</name></trkpt>
<trkpt lat="52.047053" lon="05.774990"><ele>58.2</ele><time>2022-04-12T14:44:37Z</time><name>PT1593</name></trkpt>
<trkpt lat="52.047056" lon="05.774988"><ele>58.3</ele><time>2022-04-12T14:44:39Z</time><name>PT1594</name></trkpt>
<trkpt lat="52.047058" lon="05.774983"><ele>58.4</ele><time>2022-04-12T14:44:39Z</time><name>PT1595</name></trkpt>
<trkpt lat="52.047066" lon="05.774973"><ele>58.2</ele><time>2022-04-12T14:44:40Z</time><name>PT1596</name></trkpt>
<trkpt lat="52.047067" lon="05.774956"><ele>58.4</ele><time>2022-04-12T14:44:41Z</time><name>PT1597</name></trkpt>
<trkpt lat="52.047073" lon="05.774946"><ele>58.7</ele><time>2022-04-12T14:44:42Z</time><name>PT1598</name></trkpt>
<trkpt lat="52.047083" lon="05.774939"><ele>58.7</ele><time>2022-04-12T14:44:43Z</time><name>PT1599</name></trkpt>
<trkpt lat="52.047097" lon="05.774931"><ele>58.7</ele><time>2022-04-12T14:44:44Z</time><name>PT1600</name></trkpt>
<trkpt lat="52.047110" lon="05.774914"><ele>58.7</ele><time>2022-04-12T14:44:45Z</time><name>PT1601</name></trkpt>
<trkpt lat="52.047119" lon="05.774902"><ele>58.5</ele><time>2022-04-12T14:44:46Z</time><name>PT1602</name></trkpt>
<trkpt lat="52.047122" lon="05.774893"><ele>58.3</ele><time>2022-04-12T14:44:47Z</time><name>PT1603</name></trkpt>
<trkpt lat="52.047124" lon="05.774885"><ele>58.3</ele><time>2022-04-12T14:44:48Z</time><name>PT1604</name></trkpt>
<trkpt lat="52.047128" lon="05.774878"><ele>58.4</ele><time>2022-04-12T14:44:49Z</time><name>PT1605</name></trkpt>
<trkpt lat="52.047135" lon="05.774869"><ele>58.3</ele><time>2022-04-12T14:44:50Z</time><name>PT1606</name></trkpt>
<trkpt lat="52.047141" lon="05.774851"><ele>58.2</ele><time>2022-04-12T14:44:51Z</time><name>PT1607</name></trkpt>
<trkpt lat="52.047148" lon="05.774833"><ele>58.2</ele><time>2022-04-12T14:44:52Z</time><name>PT1608</name></trkpt>
<trkpt lat="52.047153" lon="05.774821"><ele>58.2</ele><time>2022-04-12T14:44:53Z</time><name>PT1609</name></trkpt>
<trkpt lat="52.047159" lon="05.774814"><ele>58.2</ele><time>2022-04-12T14:44:54Z</time><name>PT1610</name></trkpt>
<trkpt lat="52.047165" lon="05.774805"><ele>58.2</ele><time>2022-04-12T14:44:55Z</time><name>PT1611</name></trkpt>
<trkpt lat="52.047174" lon="05.774792"><ele>58.2</ele><time>2022-04-12T14:44:56Z</time><name>PT1612</name></trkpt>
<trkpt lat="52.047185" lon="05.774778"><ele>58.2</ele><time>2022-04-12T14:44:57Z</time><name>PT1613</name></trkpt>
<trkpt lat="52.047194" lon="05.774762"><ele>58.2</ele><time>2022-04-12T14:44:58Z</time><name>PT1614</name></trkpt>
<trkpt lat="52.047203" lon="05.774750"><ele>58.2</ele><time>2022-04-12T14:44:59Z</time><name>PT1615</name></trkpt>
<trkpt lat="52.047210" lon="05.774739"><ele>58</ele><time>2022-04-12T14:45:00Z</time><name>PT1616</name></trkpt>
<trkpt lat="52.047219" lon="05.774727"><ele>58</ele><time>2022-04-12T14:45:01Z</time><name>PT1617</name></trkpt>
<trkpt lat="52.047228" lon="05.774712"><ele>58.2</ele><time>2022-04-12T14:45:02Z</time><name>PT1618</name></trkpt>
<trkpt lat="52.047239" lon="05.774697"><ele>58.2</ele><time>2022-04-12T14:45:03Z</time><name>PT1619</name></trkpt>
<trkpt lat="52.047252" lon="05.774679"><ele>58.2</ele><time>2022-04-12T14:45:04Z</time><name>PT1620</name></trkpt>
<trkpt lat="52.047258" lon="05.774665"><ele>58.2</ele><time>2022-04-12T14:45:05Z</time><name>PT1621</name></trkpt>
<trkpt lat="52.047261" lon="05.774655"><ele>58.2</ele><time>2022-04-12T14:45:06Z</time><name>PT1622</name></trkpt>
<trkpt lat="52.047265" lon="05.774643"><ele>58.2</ele><time>2022-04-12T14:45:07Z</time><name>PT1623</name></trkpt>
<trkpt lat="52.047274" lon="05.774634"><ele>58.2</ele><time>2022-04-12T14:45:08Z</time><name>PT1624</name></trkpt>
<trkpt lat="52.047284" lon="05.774623"><ele>58.1</ele><time>2022-04-12T14:45:09Z</time><name>PT1625</name></trkpt>
<trkpt lat="52.047296" lon="05.774605"><ele>58</ele><time>2022-04-12T14:45:10Z</time><name>PT1626</name></trkpt>
<trkpt lat="52.047304" lon="05.774594"><ele>57.9</ele><time>2022-04-12T14:45:11Z</time><name>PT1627</name></trkpt>
<trkpt lat="52.047309" lon="05.774582"><ele>57.7</ele><time>2022-04-12T14:45:12Z</time><name>PT1628</name></trkpt>
<trkpt lat="52.047312" lon="05.774570"><ele>57.7</ele><time>2022-04-12T14:45:13Z</time><name>PT1629</name></trkpt>
<trkpt lat="52.047320" lon="05.774559"><ele>57.6</ele><time>2022-04-12T14:45:14Z</time><name>PT1630</name></trkpt>
<trkpt lat="52.047331" lon="05.774545"><ele>57.7</ele><time>2022-04-12T14:45:15Z</time><name>PT1631</name></trkpt>
<trkpt lat="52.047344" lon="05.774524"><ele>57.7</ele><time>2022-04-12T14:45:16Z</time><name>PT1632</name></trkpt>
<trkpt lat="52.047358" lon="05.774508"><ele>57.7</ele><time>2022-04-12T14:45:17Z</time><name>PT1633</name></trkpt>
<trkpt lat="52.047364" lon="05.774495"><ele>57.7</ele><time>2022-04-12T14:45:18Z</time><name>PT1634</name></trkpt>
<trkpt lat="52.047368" lon="05.774488"><ele>57.7</ele><time>2022-04-12T14:45:19Z</time><name>PT1635</name></trkpt>
<trkpt lat="52.047373" lon="05.774484"><ele>57.5</ele><time>2022-04-12T14:45:20Z</time><name>PT1636</name></trkpt>
<trkpt lat="52.047379" lon="05.774474"><ele>57.5</ele><time>2022-04-12T14:45:21Z</time><name>PT1637</name></trkpt>
<trkpt lat="52.047388" lon="05.774457"><ele>57.3</ele><time>2022-04-12T14:45:22Z</time><name>PT1638</name></trkpt>
<trkpt lat="52.047396" lon="05.774441"><ele>57.2</ele><time>2022-04-12T14:45:23Z</time><name>PT1639</name></trkpt>
<trkpt lat="52.047399" lon="05.774428"><ele>57.4</ele><time>2022-04-12T14:45:24Z</time><name>PT1640</name></trkpt>
<trkpt lat="52.047403" lon="05.774417"><ele>57.4</ele><time>2022-04-12T14:45:25Z</time><name>PT1641</name></trkpt>
<trkpt lat="52.047410" lon="05.774407"><ele>57.3</ele><time>2022-04-12T14:45:26Z</time><name>PT1642</name></trkpt>
<trkpt lat="52.047417" lon="05.774398"><ele>57.4</ele><time>2022-04-12T14:45:27Z</time><name>PT1643</name></trkpt>
<trkpt lat="52.047425" lon="05.774383"><ele>57.5</ele><time>2022-04-12T14:45:28Z</time><name>PT1644</name></trkpt>
<trkpt lat="52.047432" lon="05.774367"><ele>57.4</ele><time>2022-04-12T14:45:29Z</time><name>PT1645</name></trkpt>
<trkpt lat="52.047440" lon="05.774354"><ele>57.5</ele><time>2022-04-12T14:45:30Z</time><name>PT1646</name></trkpt>
<trkpt lat="52.047445" lon="05.774345"><ele>57.6</ele><time>2022-04-12T14:45:31Z</time><name>PT1647</name></trkpt>
<trkpt lat="52.047451" lon="05.774337"><ele>57.4</ele><time>2022-04-12T14:45:32Z</time><name>PT1648</name></trkpt>
<trkpt lat="52.047459" lon="05.774327"><ele>57.3</ele><time>2022-04-12T14:45:33Z</time><name>PT1649</name></trkpt>
<trkpt lat="52.047467" lon="05.774311"><ele>57.2</ele><time>2022-04-12T14:45:34Z</time><name>PT1650</name></trkpt>
<trkpt lat="52.047478" lon="05.774290"><ele>57.2</ele><time>2022-04-12T14:45:35Z</time><name>PT1651</name></trkpt>
<trkpt lat="52.047489" lon="05.774275"><ele>57.2</ele><time>2022-04-12T14:45:36Z</time><name>PT1652</name></trkpt>
<trkpt lat="52.047491" lon="05.774266"><ele>57.2</ele><time>2022-04-12T14:45:37Z</time><name>PT1653</name></trkpt>
<trkpt lat="52.047495" lon="05.774259"><ele>57.3</ele><time>2022-04-12T14:45:38Z</time><name>PT1654</name></trkpt>
<trkpt lat="52.047502" lon="05.774246"><ele>57.4</ele><time>2022-04-12T14:45:39Z</time><name>PT1655</name></trkpt>
<trkpt lat="52.047512" lon="05.774237"><ele>57.4</ele><time>2022-04-12T14:45:40Z</time><name>PT1656</name></trkpt>
<trkpt lat="52.047522" lon="05.774224"><ele>57.4</ele><time>2022-04-12T14:45:41Z</time><name>PT1657</name></trkpt>
<trkpt lat="52.047531" lon="05.774210"><ele>57.5</ele><time>2022-04-12T14:45:42Z</time><name>PT1658</name></trkpt>
<trkpt lat="52.047538" lon="05.774196"><ele>57.4</ele><time>2022-04-12T14:45:43Z</time><name>PT1659</name></trkpt>
<trkpt lat="52.047544" lon="05.774183"><ele>57.4</ele><time>2022-04-12T14:45:44Z</time><name>PT1660</name></trkpt>
<trkpt lat="52.047550" lon="05.774174"><ele>57.4</ele><time>2022-04-12T14:45:45Z</time><name>PT1661</name></trkpt>
<trkpt lat="52.047557" lon="05.774164"><ele>57.2</ele><time>2022-04-12T14:45:46Z</time><name>PT1662</name></trkpt>
<trkpt lat="52.047562" lon="05.774152"><ele>57.3</ele><time>2022-04-12T14:45:47Z</time><name>PT1663</name></trkpt>
<trkpt lat="52.047571" lon="05.774133"><ele>57.4</ele><time>2022-04-12T14:45:48Z</time><name>PT1664</name></trkpt>
<trkpt lat="52.047578" lon="05.774118"><ele>57.3</ele><time>2022-04-12T14:45:49Z</time><name>PT1665</name></trkpt>
<trkpt lat="52.047582" lon="05.774109"><ele>57.3</ele><time>2022-04-12T14:45:50Z</time><name>PT1666</name></trkpt>
<trkpt lat="52.047586" lon="05.774103"><ele>57.3</ele><time>2022-04-12T14:45:51Z</time><name>PT1667</name></trkpt>
<trkpt lat="52.047594" lon="05.774089"><ele>57.2</ele><time>2022-04-12T14:45:52Z</time><name>PT1668</name></trkpt>
<trkpt lat="52.047601" lon="05.774075"><ele>57</ele><time>2022-04-12T14:45:53Z</time><name>PT1669</name></trkpt>
<trkpt lat="52.047610" lon="05.774055"><ele>57.1</ele><time>2022-04-12T14:45:54Z</time><name>PT1670</name></trkpt>
<trkpt lat="52.047621" lon="05.774033"><ele>57.1</ele><time>2022-04-12T14:45:55Z</time><name>PT1671</name></trkpt>
<trkpt lat="52.047628" lon="05.774019"><ele>57.3</ele><time>2022-04-12T14:45:56Z</time><name>PT1672</name></trkpt>
<trkpt lat="52.047632" lon="05.774008"><ele>57.4</ele><time>2022-04-12T14:45:57Z</time><name>PT1673</name></trkpt>
<trkpt lat="52.047639" lon="05.773997"><ele>57.6</ele><time>2022-04-12T14:45:58Z</time><name>PT1674</name></trkpt>
<trkpt lat="52.047648" lon="05.773988"><ele>57.5</ele><time>2022-04-12T14:45:59Z</time><name>PT1675</name></trkpt>
<trkpt lat="52.047657" lon="05.773974"><ele>57.4</ele><time>2022-04-12T14:46:00Z</time><name>PT1676</name></trkpt>
<trkpt lat="52.047668" lon="05.773953"><ele>57.4</ele><time>2022-04-12T14:46:01Z</time><name>PT1677</name></trkpt>
<trkpt lat="52.047675" lon="05.773936"><ele>57.5</ele><time>2022-04-12T14:46:02Z</time><name>PT1678</name></trkpt>
<trkpt lat="52.047680" lon="05.773924"><ele>57.6</ele><time>2022-04-12T14:46:03Z</time><name>PT1679</name></trkpt>
<trkpt lat="52.047683" lon="05.773916"><ele>57.7</ele><time>2022-04-12T14:46:05Z</time><name>PT1680</name></trkpt>
<trkpt lat="52.047691" lon="05.773905"><ele>57.8</ele><time>2022-04-12T14:46:05Z</time><name>PT1681</name></trkpt>
<trkpt lat="52.047699" lon="05.773885"><ele>57.7</ele><time>2022-04-12T14:46:07Z</time><name>PT1682</name></trkpt>
<trkpt lat="52.047707" lon="05.773864"><ele>57.7</ele><time>2022-04-12T14:46:07Z</time><name>PT1683</name></trkpt>
<trkpt lat="52.047713" lon="05.773848"><ele>57.6</ele><time>2022-04-12T14:46:08Z</time><name>PT1684</name></trkpt>
<trkpt lat="52.047715" lon="05.773836"><ele>57.6</ele><time>2022-04-12T14:46:09Z</time><name>PT1685</name></trkpt>
<trkpt lat="52.047721" lon="05.773824"><ele>57.7</ele><time>2022-04-12T14:46:10Z</time><name>PT1686</name></trkpt>
<trkpt lat="52.047728" lon="05.773814"><ele>57.7</ele><time>2022-04-12T14:46:11Z</time><name>PT1687</name></trkpt>
<trkpt lat="52.047738" lon="05.773798"><ele>57.7</ele><time>2022-04-12T14:46:12Z</time><name>PT1688</name></trkpt>
<trkpt lat="52.047748" lon="05.773776"><ele>57.7</ele><time>2022-04-12T14:46:13Z</time><name>PT1689</name></trkpt>
<trkpt lat="52.047755" lon="05.773756"><ele>57.6</ele><time>2022-04-12T14:46:14Z</time><name>PT1690</name></trkpt>
<trkpt lat="52.047757" lon="05.773744"><ele>57.5</ele><time>2022-04-12T14:46:15Z</time><name>PT1691</name></trkpt>
<trkpt lat="52.047762" lon="05.773733"><ele>57.6</ele><time>2022-04-12T14:46:17Z</time><name>PT1692</name></trkpt>
<trkpt lat="52.047765" lon="05.773721"><ele>57.5</ele><time>2022-04-12T14:46:17Z</time><name>PT1693</name></trkpt>
<trkpt lat="52.047774" lon="05.773706"><ele>57.5</ele><time>2022-04-12T14:46:18Z</time><name>PT1694</name></trkpt>
<trkpt lat="52.047782" lon="05.773684"><ele>57.5</ele><time>2022-04-12T14:46:19Z</time><name>PT1695</name></trkpt>
<trkpt lat="52.047788" lon="05.773665"><ele>57.4</ele><time>2022-04-12T14:46:20Z</time><name>PT1696</name></trkpt>
<trkpt lat="52.047790" lon="05.773652"><ele>57.3</ele><time>2022-04-12T14:46:21Z</time><name>PT1697</name></trkpt>
<trkpt lat="52.047794" lon="05.773641"><ele>57.2</ele><time>2022-04-12T14:46:22Z</time><name>PT1698</name></trkpt>
<trkpt lat="52.047799" lon="05.773631"><ele>57.2</ele><time>2022-04-12T14:46:23Z</time><name>PT1699</name></trkpt>
<trkpt lat="52.047807" lon="05.773611"><ele>57.2</ele><time>2022-04-12T14:46:24Z</time><name>PT1700</name></trkpt>
<trkpt lat="52.047813" lon="05.773594"><ele>57.2</ele><time>2022-04-12T14:46:25Z</time><name>PT1701</name></trkpt>
<trkpt lat="52.047817" lon="05.773578"><ele>57.2</ele><time>2022-04-12T14:46:27Z</time><name>PT1702</name></trkpt>
<trkpt lat="52.047821" lon="05.773565"><ele>57.2</ele><time>2022-04-12T14:46:27Z</time><name>PT1703</name></trkpt>
<trkpt lat="52.047826" lon="05.773552"><ele>57.2</ele><time>2022-04-12T14:46:28Z</time><name>PT1704</name></trkpt>
<trkpt lat="52.047833" lon="05.773532"><ele>57.2</ele><time>2022-04-12T14:46:29Z</time><name>PT1705</name></trkpt>
<trkpt lat="52.047839" lon="05.773508"><ele>57.1</ele><time>2022-04-12T14:46:30Z</time><name>PT1706</name></trkpt>
<trkpt lat="52.047843" lon="05.773493"><ele>57.1</ele><time>2022-04-12T14:46:31Z</time><name>PT1707</name></trkpt>
<trkpt lat="52.047847" lon="05.773483"><ele>57.2</ele><time>2022-04-12T14:46:32Z</time><name>PT1708</name></trkpt>
<trkpt lat="52.047853" lon="05.773472"><ele>57.2</ele><time>2022-04-12T14:46:33Z</time><name>PT1709</name></trkpt>
<trkpt lat="52.047859" lon="05.773460"><ele>57.2</ele><time>2022-04-12T14:46:34Z</time><name>PT1710</name></trkpt>
<trkpt lat="52.047866" lon="05.773441"><ele>57.4</ele><time>2022-04-12T14:46:35Z</time><name>PT1711</name></trkpt>
<trkpt lat="52.047871" lon="05.773419"><ele>57.4</ele><time>2022-04-12T14:46:37Z</time><name>PT1712</name></trkpt>
<trkpt lat="52.047877" lon="05.773403"><ele>57.3</ele><time>2022-04-12T14:46:37Z</time><name>PT1713</name></trkpt>
<trkpt lat="52.047881" lon="05.773392"><ele>57.3</ele><time>2022-04-12T14:46:38Z</time><name>PT1714</name></trkpt>
<trkpt lat="52.047885" lon="05.773381"><ele>57.2</ele><time>2022-04-12T14:46:39Z</time><name>PT1715</name></trkpt>
<trkpt lat="52.047891" lon="05.773370"><ele>57.3</ele><time>2022-04-12T14:46:40Z</time><name>PT1716</name></trkpt>
<trkpt lat="52.047898" lon="05.773350"><ele>57.2</ele><time>2022-04-12T14:46:41Z</time><name>PT1717</name></trkpt>
<trkpt lat="52.047902" lon="05.773332"><ele>57.2</ele><time>2022-04-12T14:46:42Z</time><name>PT1718</name></trkpt>
<trkpt lat="52.047906" lon="05.773319"><ele>57.2</ele><time>2022-04-12T14:46:43Z</time><name>PT1719</name></trkpt>
<trkpt lat="52.047909" lon="05.773310"><ele>57.3</ele><time>2022-04-12T14:46:44Z</time><name>PT1720</name></trkpt>
<trkpt lat="52.047917" lon="05.773299"><ele>57.4</ele><time>2022-04-12T14:46:45Z</time><name>PT1721</name></trkpt>
<trkpt lat="52.047924" lon="05.773285"><ele>57.4</ele><time>2022-04-12T14:46:47Z</time><name>PT1722</name></trkpt>
<trkpt lat="52.047936" lon="05.773266"><ele>57.5</ele><time>2022-04-12T14:46:47Z</time><name>PT1723</name></trkpt>
<trkpt lat="52.047939" lon="05.773247"><ele>57.4</ele><time>2022-04-12T14:46:48Z</time><name>PT1724</name></trkpt>
<trkpt lat="52.047942" lon="05.773234"><ele>57.4</ele><time>2022-04-12T14:46:49Z</time><name>PT1725</name></trkpt>
<trkpt lat="52.047945" lon="05.773225"><ele>57.4</ele><time>2022-04-12T14:46:50Z</time><name>PT1726</name></trkpt>
<trkpt lat="52.047950" lon="05.773215"><ele>57.3</ele><time>2022-04-12T14:46:51Z</time><name>PT1727</name></trkpt>
<trkpt lat="52.047959" lon="05.773202"><ele>57.6</ele><time>2022-04-12T14:46:52Z</time><name>PT1728</name></trkpt>
<trkpt lat="52.047969" lon="05.773182"><ele>57.5</ele><time>2022-04-12T14:46:53Z</time><name>PT1729</name></trkpt>
<trkpt lat="52.047982" lon="05.773160"><ele>57.4</ele><time>2022-04-12T14:46:54Z</time><name>PT1730</name></trkpt>
<trkpt lat="52.047989" lon="05.773141"><ele>57.3</ele><time>2022-04-12T14:46:55Z</time><name>PT1731</name></trkpt>
<trkpt lat="52.047993" lon="05.773134"><ele>57.1</ele><time>2022-04-12T14:46:57Z</time><name>PT1732</name></trkpt>
<trkpt lat="52.048001" lon="05.773127"><ele>57.1</ele><time>2022-04-12T14:46:57Z</time><name>PT1733</name></trkpt>
<trkpt lat="52.048011" lon="05.773122"><ele>57.2</ele><time>2022-04-12T14:46:58Z</time><name>PT1734</name></trkpt>
<trkpt lat="52.048021" lon="05.773107"><ele>57.2</ele><time>2022-04-12T14:46:59Z</time><name>PT1735</name></trkpt>
<trkpt lat="52.048037" lon="05.773089"><ele>57.2</ele><time>2022-04-12T14:47:00Z</time><name>PT1736</name></trkpt>
<trkpt lat="52.048048" lon="05.773071"><ele>57.2</ele><time>2022-04-12T14:47:01Z</time><name>PT1737</name></trkpt>
<trkpt lat="52.048056" lon="05.773057"><ele>57.1</ele><time>2022-04-12T14:47:02Z</time><name>PT1738</name></trkpt>
<trkpt lat="52.048061" lon="05.773046"><ele>57</ele><time>2022-04-12T14:47:03Z</time><name>PT1739</name></trkpt>
<trkpt lat="52.048066" lon="05.773038"><ele>57</ele><time>2022-04-12T14:47:04Z</time><name>PT1740</name></trkpt>
<trkpt lat="52.048070" lon="05.773029"><ele>57</ele><time>2022-04-12T14:47:05Z</time><name>PT1741</name></trkpt>
<trkpt lat="52.048080" lon="05.773016"><ele>57</ele><time>2022-04-12T14:47:06Z</time><name>PT1742</name></trkpt>
<trkpt lat="52.048089" lon="05.772993"><ele>57</ele><time>2022-04-12T14:47:07Z</time><name>PT1743</name></trkpt>
<trkpt lat="52.048098" lon="05.772968"><ele>56.8</ele><time>2022-04-12T14:47:08Z</time><name>PT1744</name></trkpt>
<trkpt lat="52.048101" lon="05.772952"><ele>56.8</ele><time>2022-04-12T14:47:09Z</time><name>PT1745</name></trkpt>
<trkpt lat="52.048106" lon="05.772950"><ele>56.8</ele><time>2022-04-12T14:47:10Z</time><name>PT1746</name></trkpt>
<trkpt lat="52.048108" lon="05.772944"><ele>56.8</ele><time>2022-04-12T14:47:11Z</time><name>PT1747</name></trkpt>
<trkpt lat="52.048109" lon="05.772934"><ele>56.7</ele><time>2022-04-12T14:47:12Z</time><name>PT1748</name></trkpt>
<trkpt lat="52.048121" lon="05.772922"><ele>56.7</ele><time>2022-04-12T14:47:13Z</time><name>PT1749</name></trkpt>
<trkpt lat="52.048131" lon="05.772904"><ele>56.8</ele><time>2022-04-12T14:47:14Z</time><name>PT1750</name></trkpt>
<trkpt lat="52.048136" lon="05.772888"><ele>57</ele><time>2022-04-12T14:47:15Z</time><name>PT1751</name></trkpt>
<trkpt lat="52.048142" lon="05.772877"><ele>57.2</ele><time>2022-04-12T14:47:16Z</time><name>PT1752</name></trkpt>
<trkpt lat="52.048146" lon="05.772863"><ele>57.3</ele><time>2022-04-12T14:47:17Z</time><name>PT1753</name></trkpt>
<trkpt lat="52.048155" lon="05.772856"><ele>57.3</ele><time>2022-04-12T14:47:18Z</time><name>PT1754</name></trkpt>
<trkpt lat="52.048162" lon="05.772839"><ele>57.3</ele><time>2022-04-12T14:47:19Z</time><name>PT1755</name></trkpt>
<trkpt lat="52.048169" lon="05.772815"><ele>57.3</ele><time>2022-04-12T14:47:21Z</time><name>PT1756</name></trkpt>
<trkpt lat="52.048179" lon="05.772792"><ele>57.2</ele><time>2022-04-12T14:47:21Z</time><name>PT1757</name></trkpt>
<trkpt lat="52.048183" lon="05.772781"><ele>57.2</ele><time>2022-04-12T14:47:23Z</time><name>PT1758</name></trkpt>
<trkpt lat="52.048187" lon="05.772771"><ele>57.2</ele><time>2022-04-12T14:47:23Z</time><name>PT1759</name></trkpt>
<trkpt lat="52.048195" lon="05.772761"><ele>57</ele><time>2022-04-12T14:47:25Z</time><name>PT1760</name></trkpt>
<trkpt lat="52.048209" lon="05.772750"><ele>56.9</ele><time>2022-04-12T14:47:25Z</time><name>PT1761</name></trkpt>
<trkpt lat="52.048217" lon="05.772733"><ele>56.9</ele><time>2022-04-12T14:47:26Z</time><name>PT1762</name></trkpt>
<trkpt lat="52.048229" lon="05.772716"><ele>56.8</ele><time>2022-04-12T14:47:27Z</time><name>PT1763</name></trkpt>
<trkpt lat="52.048236" lon="05.772698"><ele>56.9</ele><time>2022-04-12T14:47:28Z</time><name>PT1764</name></trkpt>
<trkpt lat="52.048244" lon="05.772687"><ele>57</ele><time>2022-04-12T14:47:29Z</time><name>PT1765</name></trkpt>
<trkpt lat="52.048252" lon="05.772677"><ele>56.8</ele><time>2022-04-12T14:47:30Z</time><name>PT1766</name></trkpt>
<trkpt lat="52.048265" lon="05.772670"><ele>56.7</ele><time>2022-04-12T14:47:31Z</time><name>PT1767</name></trkpt>
<trkpt lat="52.048272" lon="05.772658"><ele>56.7</ele><time>2022-04-12T14:47:32Z</time><name>PT1768</name></trkpt>
<trkpt lat="52.048278" lon="05.772634"><ele>56.7</ele><time>2022-04-12T14:47:33Z</time><name>PT1769</name></trkpt>
<trkpt lat="52.048288" lon="05.772610"><ele>56.4</ele><time>2022-04-12T14:47:34Z</time><name>PT1770</name></trkpt>
<trkpt lat="52.048294" lon="05.772590"><ele>56.4</ele><time>2022-04-12T14:47:35Z</time><name>PT1771</name></trkpt>
<trkpt lat="52.048296" lon="05.772578"><ele>56.5</ele><time>2022-04-12T14:47:36Z</time><name>PT1772</name></trkpt>
<trkpt lat="52.048299" lon="05.772567"><ele>56.4</ele><time>2022-04-12T14:47:37Z</time><name>PT1773</name></trkpt>
<trkpt lat="52.048304" lon="05.772558"><ele>56.4</ele><time>2022-04-12T14:47:38Z</time><name>PT1774</name></trkpt>
<trkpt lat="52.048311" lon="05.772541"><ele>56.5</ele><time>2022-04-12T14:47:39Z</time><name>PT1775</name></trkpt>
<trkpt lat="52.048320" lon="05.772519"><ele>56.4</ele><time>2022-04-12T14:47:40Z</time><name>PT1776</name></trkpt>
<trkpt lat="52.048328" lon="05.772496"><ele>56.4</ele><time>2022-04-12T14:47:41Z</time><name>PT1777</name></trkpt>
<trkpt lat="52.048331" lon="05.772481"><ele>56.3</ele><time>2022-04-12T14:47:42Z</time><name>PT1778</name></trkpt>
<trkpt lat="52.048334" lon="05.772469"><ele>56.4</ele><time>2022-04-12T14:47:43Z</time><name>PT1779</name></trkpt>
<trkpt lat="52.048338" lon="05.772463"><ele>56.4</ele><time>2022-04-12T14:47:44Z</time><name>PT1780</name></trkpt>
<trkpt lat="52.048345" lon="05.772452"><ele>56.3</ele><time>2022-04-12T14:47:45Z</time><name>PT1781</name></trkpt>
<trkpt lat="52.048355" lon="05.772437"><ele>56.2</ele><time>2022-04-12T14:47:46Z</time><name>PT1782</name></trkpt>
<trkpt lat="52.048367" lon="05.772417"><ele>56.2</ele><time>2022-04-12T14:47:47Z</time><name>PT1783</name></trkpt>
<trkpt lat="52.048375" lon="05.772400"><ele>56.2</ele><time>2022-04-12T14:47:48Z</time><name>PT1784</name></trkpt>
<trkpt lat="52.048384" lon="05.772393"><ele>55.9</ele><time>2022-04-12T14:47:49Z</time><name>PT1785</name></trkpt>
<trkpt lat="52.048390" lon="05.772386"><ele>55.7</ele><time>2022-04-12T14:47:50Z</time><name>PT1786</name></trkpt>
<trkpt lat="52.048399" lon="05.772382"><ele>55.8</ele><time>2022-04-12T14:47:51Z</time><name>PT1787</name></trkpt>
<trkpt lat="52.048409" lon="05.772374"><ele>55.6</ele><time>2022-04-12T14:47:52Z</time><name>PT1788</name></trkpt>
<trkpt lat="52.048425" lon="05.772361"><ele>55.7</ele><time>2022-04-12T14:47:53Z</time><name>PT1789</name></trkpt>
<trkpt lat="52.048442" lon="05.772347"><ele>55.7</ele><time>2022-04-12T14:47:54Z</time><name>PT1790</name></trkpt>
<trkpt lat="52.048452" lon="05.772340"><ele>55.6</ele><time>2022-04-12T14:47:55Z</time><name>PT1791</name></trkpt>
<trkpt lat="52.048458" lon="05.772331"><ele>55.5</ele><time>2022-04-12T14:47:56Z</time><name>PT1792</name></trkpt>
<trkpt lat="52.048467" lon="05.772324"><ele>55.5</ele><time>2022-04-12T14:47:57Z</time><name>PT1793</name></trkpt>
<trkpt lat="52.048475" lon="05.772316"><ele>55.2</ele><time>2022-04-12T14:47:58Z</time><name>PT1794</name></trkpt>
<trkpt lat="52.048482" lon="05.772304"><ele>55.3</ele><time>2022-04-12T14:47:59Z</time><name>PT1795</name></trkpt>
<trkpt lat="52.048500" lon="05.772296"><ele>55.3</ele><time>2022-04-12T14:48:00Z</time><name>PT1796</name></trkpt>
<trkpt lat="52.048514" lon="05.772284"><ele>55.3</ele><time>2022-04-12T14:48:01Z</time><name>PT1797</name></trkpt>
<trkpt lat="52.048521" lon="05.772270"><ele>55.2</ele><time>2022-04-12T14:48:02Z</time><name>PT1798</name></trkpt>
<trkpt lat="52.048528" lon="05.772266"><ele>55.1</ele><time>2022-04-12T14:48:03Z</time><name>PT1799</name></trkpt>
<trkpt lat="52.048532" lon="05.772259"><ele>55</ele><time>2022-04-12T14:48:04Z</time><name>PT1800</name></trkpt>
<trkpt lat="52.048540" lon="05.772258"><ele>54.9</ele><time>2022-04-12T14:48:05Z</time><name>PT1801</name></trkpt>
<trkpt lat="52.048553" lon="05.772252"><ele>54.8</ele><time>2022-04-12T14:48:06Z</time><name>PT1802</name></trkpt>
<trkpt lat="52.048571" lon="05.772238"><ele>54.9</ele><time>2022-04-12T14:48:07Z</time><name>PT1803</name></trkpt>
<trkpt lat="52.048588" lon="05.772225"><ele>54.7</ele><time>2022-04-12T14:48:08Z</time><name>PT1804</name></trkpt>
<trkpt lat="52.048598" lon="05.772213"><ele>54.6</ele><time>2022-04-12T14:48:09Z</time><name>PT1805</name></trkpt>
<trkpt lat="52.048605" lon="05.772211"><ele>54.5</ele><time>2022-04-12T14:48:10Z</time><name>PT1806</name></trkpt>
<trkpt lat="52.048611" lon="05.772205"><ele>54.4</ele><time>2022-04-12T14:48:11Z</time><name>PT1807</name></trkpt>
<trkpt lat="52.048622" lon="05.772206"><ele>54.4</ele><time>2022-04-12T14:48:12Z</time><name>PT1808</name></trkpt>
<trkpt lat="52.048635" lon="05.772201"><ele>54.3</ele><time>2022-04-12T14:48:13Z</time><name>PT1809</name></trkpt>
<trkpt lat="52.048645" lon="05.772184"><ele>54.2</ele><time>2022-04-12T14:48:14Z</time><name>PT1810</name></trkpt>
<trkpt lat="52.048656" lon="05.772172"><ele>54.3</ele><time>2022-04-12T14:48:15Z</time><name>PT1811</name></trkpt>
<trkpt lat="52.048665" lon="05.772166"><ele>54.4</ele><time>2022-04-12T14:48:16Z</time><name>PT1812</name></trkpt>
<trkpt lat="52.048665" lon="05.772167"><ele>54.5</ele><time>2022-04-12T14:48:17Z</time><name>PT1813</name></trkpt>
<trkpt lat="52.048669" lon="05.772166"><ele>54.4</ele><time>2022-04-12T14:48:18Z</time><name>PT1814</name></trkpt>
<trkpt lat="52.048677" lon="05.772158"><ele>54.4</ele><time>2022-04-12T14:48:19Z</time><name>PT1815</name></trkpt>
<trkpt lat="52.048697" lon="05.772162"><ele>54.3</ele><time>2022-04-12T14:48:20Z</time><name>PT1816</name></trkpt>
<trkpt lat="52.048713" lon="05.772155"><ele>54.1</ele><time>2022-04-12T14:48:21Z</time><name>PT1817</name></trkpt>
<trkpt lat="52.048724" lon="05.772145"><ele>53.9</ele><time>2022-04-12T14:48:22Z</time><name>PT1818</name></trkpt>
<trkpt lat="52.048733" lon="05.772142"><ele>53.9</ele><time>2022-04-12T14:48:23Z</time><name>PT1819</name></trkpt>
<trkpt lat="52.048738" lon="05.772135"><ele>53.7</ele><time>2022-04-12T14:48:24Z</time><name>PT1820</name></trkpt>
<trkpt lat="52.048743" lon="05.772126"><ele>53.6</ele><time>2022-04-12T14:48:25Z</time><name>PT1821</name></trkpt>
<trkpt lat="52.048746" lon="05.772119"><ele>53.7</ele><time>2022-04-12T14:48:26Z</time><name>PT1822</name></trkpt>
<trkpt lat="52.048757" lon="05.772115"><ele>53.7</ele><time>2022-04-12T14:48:27Z</time><name>PT1823</name></trkpt>
<trkpt lat="52.048760" lon="05.772083"><ele>53.6</ele><time>2022-04-12T14:48:28Z</time><name>PT1824</name></trkpt>
<trkpt lat="52.048769" lon="05.772067"><ele>53.6</ele><time>2022-04-12T14:48:29Z</time><name>PT1825</name></trkpt>
<trkpt lat="52.048777" lon="05.772063"><ele>53.4</ele><time>2022-04-12T14:48:30Z</time><name>PT1826</name></trkpt>
<trkpt lat="52.048783" lon="05.772056"><ele>53.2</ele><time>2022-04-12T14:48:31Z</time><name>PT1827</name></trkpt>
<trkpt lat="52.048793" lon="05.772055"><ele>53.2</ele><time>2022-04-12T14:48:32Z</time><name>PT1828</name></trkpt>
<trkpt lat="52.048806" lon="05.772045"><ele>53</ele><time>2022-04-12T14:48:33Z</time><name>PT1829</name></trkpt>
<trkpt lat="52.048818" lon="05.772028"><ele>52.8</ele><time>2022-04-12T14:48:34Z</time><name>PT1830</name></trkpt>
<trkpt lat="52.048828" lon="05.772011"><ele>52.8</ele><time>2022-04-12T14:48:35Z</time><name>PT1831</name></trkpt>
<trkpt lat="52.048839" lon="05.772000"><ele>52.9</ele><time>2022-04-12T14:48:36Z</time><name>PT1832</name></trkpt>
<trkpt lat="52.048848" lon="05.771998"><ele>52.9</ele><time>2022-04-12T14:48:37Z</time><name>PT1833</name></trkpt>
<trkpt lat="52.048856" lon="05.771995"><ele>53</ele><time>2022-04-12T14:48:38Z</time><name>PT1834</name></trkpt>
<trkpt lat="52.048865" lon="05.771989"><ele>53</ele><time>2022-04-12T14:48:39Z</time><name>PT1835</name></trkpt>
<trkpt lat="52.048877" lon="05.771985"><ele>52.9</ele><time>2022-04-12T14:48:40Z</time><name>PT1836</name></trkpt>
<trkpt lat="52.048888" lon="05.771975"><ele>52.9</ele><time>2022-04-12T14:48:41Z</time><name>PT1837</name></trkpt>
<trkpt lat="52.048898" lon="05.771970"><ele>52.8</ele><time>2022-04-12T14:48:42Z</time><name>PT1838</name></trkpt>
<trkpt lat="52.048904" lon="05.771962"><ele>52.8</ele><time>2022-04-12T14:48:43Z</time><name>PT1839</name></trkpt>
<trkpt lat="52.048910" lon="05.771959"><ele>52.7</ele><time>2022-04-12T14:48:44Z</time><name>PT1840</name></trkpt>
<trkpt lat="52.048919" lon="05.771954"><ele>52.7</ele><time>2022-04-12T14:48:45Z</time><name>PT1841</name></trkpt>
<trkpt lat="52.048928" lon="05.771945"><ele>52.6</ele><time>2022-04-12T14:48:46Z</time><name>PT1842</name></trkpt>
<trkpt lat="52.048940" lon="05.771932"><ele>52.4</ele><time>2022-04-12T14:48:47Z</time><name>PT1843</name></trkpt>
<trkpt lat="52.048949" lon="05.771923"><ele>52.5</ele><time>2022-04-12T14:48:48Z</time><name>PT1844</name></trkpt>
<trkpt lat="52.048956" lon="05.771922"><ele>52.5</ele><time>2022-04-12T14:48:49Z</time><name>PT1845</name></trkpt>
<trkpt lat="52.048959" lon="05.771918"><ele>52.6</ele><time>2022-04-12T14:48:50Z</time><name>PT1846</name></trkpt>
<trkpt lat="52.048966" lon="05.771913"><ele>52.7</ele><time>2022-04-12T14:48:51Z</time><name>PT1847</name></trkpt>
<trkpt lat="52.048980" lon="05.771908"><ele>52.6</ele><time>2022-04-12T14:48:52Z</time><name>PT1848</name></trkpt>
<trkpt lat="52.048995" lon="05.771898"><ele>52.4</ele><time>2022-04-12T14:48:53Z</time><name>PT1849</name></trkpt>
<trkpt lat="52.049003" lon="05.771882"><ele>52.5</ele><time>2022-04-12T14:48:54Z</time><name>PT1850</name></trkpt>
<trkpt lat="52.049009" lon="05.771870"><ele>52.6</ele><time>2022-04-12T14:48:55Z</time><name>PT1851</name></trkpt>
<trkpt lat="52.049018" lon="05.771864"><ele>52.6</ele><time>2022-04-12T14:48:56Z</time><name>PT1852</name></trkpt>
<trkpt lat="52.049021" lon="05.771855"><ele>52.7</ele><time>2022-04-12T14:48:57Z</time><name>PT1853</name></trkpt>
<trkpt lat="52.049029" lon="05.771849"><ele>52.5</ele><time>2022-04-12T14:48:58Z</time><name>PT1854</name></trkpt>
<trkpt lat="52.049044" lon="05.771840"><ele>52.7</ele><time>2022-04-12T14:48:59Z</time><name>PT1855</name></trkpt>
<trkpt lat="52.049055" lon="05.771831"><ele>52.6</ele><time>2022-04-12T14:49:00Z</time><name>PT1856</name></trkpt>
<trkpt lat="52.049060" lon="05.771823"><ele>52.7</ele><time>2022-04-12T14:49:01Z</time><name>PT1857</name></trkpt>
<trkpt lat="52.049066" lon="05.771821"><ele>52.6</ele><time>2022-04-12T14:49:02Z</time><name>PT1858</name></trkpt>
<trkpt lat="52.049077" lon="05.771819"><ele>52.4</ele><time>2022-04-12T14:49:03Z</time><name>PT1859</name></trkpt>
<trkpt lat="52.049090" lon="05.771814"><ele>52.2</ele><time>2022-04-12T14:49:04Z</time><name>PT1860</name></trkpt>
<trkpt lat="52.049104" lon="05.771801"><ele>52.1</ele><time>2022-04-12T14:49:05Z</time><name>PT1861</name></trkpt>
<trkpt lat="52.049117" lon="05.771792"><ele>51.9</ele><time>2022-04-12T14:49:06Z</time><name>PT1862</name></trkpt>
<trkpt lat="52.049124" lon="05.771780"><ele>51.8</ele><time>2022-04-12T14:49:07Z</time><name>PT1863</name></trkpt>
<trkpt lat="52.049128" lon="05.771768"><ele>51.9</ele><time>2022-04-12T14:49:08Z</time><name>PT1864</name></trkpt>
<trkpt lat="52.049132" lon="05.771757"><ele>52.1</ele><time>2022-04-12T14:49:09Z</time><name>PT1865</name></trkpt>
<trkpt lat="52.049144" lon="05.771747"><ele>52</ele><time>2022-04-12T14:49:10Z</time><name>PT1866</name></trkpt>
<trkpt lat="52.049159" lon="05.771735"><ele>52.1</ele><time>2022-04-12T14:49:11Z</time><name>PT1867</name></trkpt>
<trkpt lat="52.049173" lon="05.771719"><ele>52.2</ele><time>2022-04-12T14:49:12Z</time><name>PT1868</name></trkpt>
<trkpt lat="52.049180" lon="05.771705"><ele>52</ele><time>2022-04-12T14:49:13Z</time><name>PT1869</name></trkpt>
<trkpt lat="52.049188" lon="05.771700"><ele>52</ele><time>2022-04-12T14:49:14Z</time><name>PT1870</name></trkpt>
<trkpt lat="52.049201" lon="05.771688"><ele>52.1</ele><time>2022-04-12T14:49:15Z</time><name>PT1871</name></trkpt>
<trkpt lat="52.049212" lon="05.771680"><ele>51.9</ele><time>2022-04-12T14:49:16Z</time><name>PT1872</name></trkpt>
<trkpt lat="52.049225" lon="05.771673"><ele>51.9</ele><time>2022-04-12T14:49:17Z</time><name>PT1873</name></trkpt>
<trkpt lat="52.049244" lon="05.771663"><ele>51.7</ele><time>2022-04-12T14:49:18Z</time><name>PT1874</name></trkpt>
<trkpt lat="52.049253" lon="05.771653"><ele>51.8</ele><time>2022-04-12T14:49:19Z</time><name>PT1875</name></trkpt>
<trkpt lat="52.049255" lon="05.771648"><ele>51.8</ele><time>2022-04-12T14:49:20Z</time><name>PT1876</name></trkpt>
<trkpt lat="52.049265" lon="05.771656"><ele>51.7</ele><time>2022-04-12T14:49:21Z</time><name>PT1877</name></trkpt>
<trkpt lat="52.049272" lon="05.771657"><ele>51.8</ele><time>2022-04-12T14:49:22Z</time><name>PT1878</name></trkpt>
<trkpt lat="52.049283" lon="05.771647"><ele>51.7</ele><time>2022-04-12T14:49:23Z</time><name>PT1879</name></trkpt>
<trkpt lat="52.049291" lon="05.771628"><ele>51.7</ele><time>2022-04-12T14:49:24Z</time><name>PT1880</name></trkpt>
<trkpt lat="52.049296" lon="05.771616"><ele>51.7</ele><time>2022-04-12T14:49:25Z</time><name>PT1881</name></trkpt>
<trkpt lat="52.049302" lon="05.771604"><ele>51.6</ele><time>2022-04-12T14:49:26Z</time><name>PT1882</name></trkpt>
<trkpt lat="52.049308" lon="05.771593"><ele>51.5</ele><time>2022-04-12T14:49:27Z</time><name>PT1883</name></trkpt>
<trkpt lat="52.049320" lon="05.771592"><ele>51.3</ele><time>2022-04-12T14:49:28Z</time><name>PT1884</name></trkpt>
<trkpt lat="52.049335" lon="05.771590"><ele>51.2</ele><time>2022-04-12T14:49:29Z</time><name>PT1885</name></trkpt>
<trkpt lat="52.049352" lon="05.771585"><ele>51.3</ele><time>2022-04-12T14:49:30Z</time><name>PT1886</name></trkpt>
<trkpt lat="52.049370" lon="05.771584"><ele>51.3</ele><time>2022-04-12T14:49:31Z</time><name>PT1887</name></trkpt>
<trkpt lat="52.049378" lon="05.771580"><ele>51.3</ele><time>2022-04-12T14:49:32Z</time><name>PT1888</name></trkpt>
<trkpt lat="52.049384" lon="05.771570"><ele>51.3</ele><time>2022-04-12T14:49:33Z</time><name>PT1889</name></trkpt>
<trkpt lat="52.049387" lon="05.771566"><ele>51.3</ele><time>2022-04-12T14:49:34Z</time><name>PT1890</name></trkpt>
<trkpt lat="52.049389" lon="05.771563"><ele>51.4</ele><time>2022-04-12T14:49:35Z</time><name>PT1891</name></trkpt>
<trkpt lat="52.049400" lon="05.771546"><ele>51.7</ele><time>2022-04-12T14:49:36Z</time><name>PT1892</name></trkpt>
<trkpt lat="52.049409" lon="05.771535"><ele>51.7</ele><time>2022-04-12T14:49:37Z</time><name>PT1893</name></trkpt>
<trkpt lat="52.049410" lon="05.771514"><ele>51.8</ele><time>2022-04-12T14:49:38Z</time><name>PT1894</name></trkpt>
<trkpt lat="52.049421" lon="05.771499"><ele>51.9</ele><time>2022-04-12T14:49:39Z</time><name>PT1895</name></trkpt>
<trkpt lat="52.049432" lon="05.771484"><ele>51.7</ele><time>2022-04-12T14:49:40Z</time><name>PT1896</name></trkpt>
<trkpt lat="52.049437" lon="05.771466"><ele>51.6</ele><time>2022-04-12T14:49:41Z</time><name>PT1897</name></trkpt>
<trkpt lat="52.049448" lon="05.771452"><ele>51.6</ele><time>2022-04-12T14:49:42Z</time><name>PT1898</name></trkpt>
<trkpt lat="52.049457" lon="05.771438"><ele>51.6</ele><time>2022-04-12T14:49:43Z</time><name>PT1899</name></trkpt>
<trkpt lat="52.049464" lon="05.771424"><ele>51.6</ele><time>2022-04-12T14:49:44Z</time><name>PT1900</name></trkpt>
<trkpt lat="52.049470" lon="05.771410"><ele>51.7</ele><time>2022-04-12T14:49:45Z</time><name>PT1901</name></trkpt>
<trkpt lat="52.049475" lon="05.771397"><ele>51.7</ele><time>2022-04-12T14:49:47Z</time><name>PT1902</name></trkpt>
<trkpt lat="52.049482" lon="05.771387"><ele>51.7</ele><time>2022-04-12T14:49:47Z</time><name>PT1903</name></trkpt>
<trkpt lat="52.049490" lon="05.771379"><ele>51.7</ele><time>2022-04-12T14:49:48Z</time><name>PT1904</name></trkpt>
<trkpt lat="52.049499" lon="05.771372"><ele>51.7</ele><time>2022-04-12T14:49:49Z</time><name>PT1905</name></trkpt>
<trkpt lat="52.049507" lon="05.771366"><ele>51.6</ele><time>2022-04-12T14:49:50Z</time><name>PT1906</name></trkpt>
<trkpt lat="52.049515" lon="05.771357"><ele>51.6</ele><time>2022-04-12T14:49:51Z</time><name>PT1907</name></trkpt>
<trkpt lat="52.049520" lon="05.771346"><ele>51.3</ele><time>2022-04-12T14:49:52Z</time><name>PT1908</name></trkpt>
<trkpt lat="52.049531" lon="05.771335"><ele>51.2</ele><time>2022-04-12T14:49:53Z</time><name>PT1909</name></trkpt>
<trkpt lat="52.049540" lon="05.771322"><ele>51.2</ele><time>2022-04-12T14:49:54Z</time><name>PT1910</name></trkpt>
<trkpt lat="52.049548" lon="05.771310"><ele>50.9</ele><time>2022-04-12T14:49:55Z</time><name>PT1911</name></trkpt>
<trkpt lat="52.049555" lon="05.771299"><ele>50.9</ele><time>2022-04-12T14:49:56Z</time><name>PT1912</name></trkpt>
<trkpt lat="52.049559" lon="05.771283"><ele>51</ele><time>2022-04-12T14:49:57Z</time><name>PT1913</name></trkpt>
<trkpt lat="52.049571" lon="05.771270"><ele>50.9</ele><time>2022-04-12T14:49:58Z</time><name>PT1914</name></trkpt>
<trkpt lat="52.049585" lon="05.771254"><ele>50.8</ele><time>2022-04-12T14:49:59Z</time><name>PT1915</name></trkpt>
<trkpt lat="52.049591" lon="05.771243"><ele>50.8</ele><time>2022-04-12T14:50:00Z</time><name>PT1916</name></trkpt>
<trkpt lat="52.049598" lon="05.771232"><ele>50.8</ele><time>2022-04-12T14:50:01Z</time><name>PT1917</name></trkpt>
<trkpt lat="52.049604" lon="05.771221"><ele>50.8</ele><time>2022-04-12T14:50:02Z</time><name>PT1918</name></trkpt>
<trkpt lat="52.049607" lon="05.771205"><ele>50.8</ele><time>2022-04-12T14:50:03Z</time><name>PT1919</name></trkpt>
<trkpt lat="52.049614" lon="05.771186"><ele>50.9</ele><time>2022-04-12T14:50:05Z</time><name>PT1920</name></trkpt>
<trkpt lat="52.049620" lon="05.771173"><ele>50.8</ele><time>2022-04-12T14:50:05Z</time><name>PT1921</name></trkpt>
<trkpt lat="52.049626" lon="05.771164"><ele>50.7</ele><time>2022-04-12T14:50:06Z</time><name>PT1922</name></trkpt>
<trkpt lat="52.049631" lon="05.771155"><ele>50.7</ele><time>2022-04-12T14:50:07Z</time><name>PT1923</name></trkpt>
<trkpt lat="52.049638" lon="05.771142"><ele>50.6</ele><time>2022-04-12T14:50:08Z</time><name>PT1924</name></trkpt>
<trkpt lat="52.049644" lon="05.771133"><ele>50.7</ele><time>2022-04-12T14:50:09Z</time><name>PT1925</name></trkpt>
<trkpt lat="52.049658" lon="05.771115"><ele>50.8</ele><time>2022-04-12T14:50:10Z</time><name>PT1926</name></trkpt>
<trkpt lat="52.049673" lon="05.771102"><ele>50.7</ele><time>2022-04-12T14:50:11Z</time><name>PT1927</name></trkpt>
<trkpt lat="52.049685" lon="05.771094"><ele>50.6</ele><time>2022-04-12T14:50:13Z</time><name>PT1928</name></trkpt>
<trkpt lat="52.049695" lon="05.771090"><ele>50.7</ele><time>2022-04-12T14:50:13Z</time><name>PT1929</name></trkpt>
<trkpt lat="52.049704" lon="05.771084"><ele>50.7</ele><time>2022-04-12T14:50:14Z</time><name>PT1930</name></trkpt>
<trkpt lat="52.049709" lon="05.771070"><ele>50.5</ele><time>2022-04-12T14:50:15Z</time><name>PT1931</name></trkpt>
<trkpt lat="52.049726" lon="05.771057"><ele>50.6</ele><time>2022-04-12T14:50:16Z</time><name>PT1932</name></trkpt>
<trkpt lat="52.049740" lon="05.771045"><ele>50.7</ele><time>2022-04-12T14:50:17Z</time><name>PT1933</name></trkpt>
<trkpt lat="52.049754" lon="05.771035"><ele>50.7</ele><time>2022-04-12T14:50:18Z</time><name>PT1934</name></trkpt>
<trkpt lat="52.049762" lon="05.771026"><ele>50.7</ele><time>2022-04-12T14:50:19Z</time><name>PT1935</name></trkpt>
<trkpt lat="52.049769" lon="05.771012"><ele>50.7</ele><time>2022-04-12T14:50:20Z</time><name>PT1936</name></trkpt>
<trkpt lat="52.049778" lon="05.771003"><ele>50.5</ele><time>2022-04-12T14:50:21Z</time><name>PT1937</name></trkpt>
<trkpt lat="52.049785" lon="05.770983"><ele>50.3</ele><time>2022-04-12T14:50:22Z</time><name>PT1938</name></trkpt>
<trkpt lat="52.049791" lon="05.770956"><ele>50.2</ele><time>2022-04-12T14:50:23Z</time><name>PT1939</name></trkpt>
<trkpt lat="52.049797" lon="05.770943"><ele>50.2</ele><time>2022-04-12T14:50:24Z</time><name>PT1940</name></trkpt>
<trkpt lat="52.049804" lon="05.770932"><ele>50.1</ele><time>2022-04-12T14:50:25Z</time><name>PT1941</name></trkpt>
<trkpt lat="52.049811" lon="05.770922"><ele>50.2</ele><time>2022-04-12T14:50:26Z</time><name>PT1942</name></trkpt>
<trkpt lat="52.049820" lon="05.770909"><ele>50.2</ele><time>2022-04-12T14:50:27Z</time><name>PT1943</name></trkpt>
<trkpt lat="52.049831" lon="05.770898"><ele>50.3</ele><time>2022-04-12T14:50:28Z</time><name>PT1944</name></trkpt>
<trkpt lat="52.049849" lon="05.770896"><ele>50.5</ele><time>2022-04-12T14:50:29Z</time><name>PT1945</name></trkpt>
<trkpt lat="52.049861" lon="05.770889"><ele>50.4</ele><time>2022-04-12T14:50:30Z</time><name>PT1946</name></trkpt>
<trkpt lat="52.049869" lon="05.770884"><ele>50.2</ele><time>2022-04-12T14:50:31Z</time><name>PT1947</name></trkpt>
<trkpt lat="52.049874" lon="05.770877"><ele>50.2</ele><time>2022-04-12T14:50:32Z</time><name>PT1948</name></trkpt>
<trkpt lat="52.049880" lon="05.770868"><ele>50.1</ele><time>2022-04-12T14:50:33Z</time><name>PT1949</name></trkpt>
<trkpt lat="52.049891" lon="05.770854"><ele>49.8</ele><time>2022-04-12T14:50:34Z</time><name>PT1950</name></trkpt>
<trkpt lat="52.049901" lon="05.770843"><ele>49.8</ele><time>2022-04-12T14:50:35Z</time><name>PT1951</name></trkpt>
<trkpt lat="52.049909" lon="05.770833"><ele>49.7</ele><time>2022-04-12T14:50:36Z</time><name>PT1952</name></trkpt>
<trkpt lat="52.049920" lon="05.770822"><ele>49.7</ele><time>2022-04-12T14:50:37Z</time><name>PT1953</name></trkpt>
<trkpt lat="52.049925" lon="05.770811"><ele>49.7</ele><time>2022-04-12T14:50:38Z</time><name>PT1954</name></trkpt>
<trkpt lat="52.049934" lon="05.770789"><ele>49.7</ele><time>2022-04-12T14:50:39Z</time><name>PT1955</name></trkpt>
<trkpt lat="52.049951" lon="05.770772"><ele>49.6</ele><time>2022-04-12T14:50:40Z</time><name>PT1956</name></trkpt>
<trkpt lat="52.049965" lon="05.770761"><ele>49.6</ele><time>2022-04-12T14:50:41Z</time><name>PT1957</name></trkpt>
<trkpt lat="52.049971" lon="05.770749"><ele>49.7</ele><time>2022-04-12T14:50:42Z</time><name>PT1958</name></trkpt>
<trkpt lat="52.049977" lon="05.770743"><ele>49.7</ele><time>2022-04-12T14:50:43Z</time><name>PT1959</name></trkpt>
<trkpt lat="52.049981" lon="05.770735"><ele>49.7</ele><time>2022-04-12T14:50:44Z</time><name>PT1960</name></trkpt>
<trkpt lat="52.049989" lon="05.770719"><ele>49.7</ele><time>2022-04-12T14:50:45Z</time><name>PT1961</name></trkpt>
<trkpt lat="52.050002" lon="05.770704"><ele>49.6</ele><time>2022-04-12T14:50:46Z</time><name>PT1962</name></trkpt>
<trkpt lat="52.050014" lon="05.770699"><ele>49.5</ele><time>2022-04-12T14:50:47Z</time><name>PT1963</name></trkpt>
<trkpt lat="52.050021" lon="05.770691"><ele>49.5</ele><time>2022-04-12T14:50:48Z</time><name>PT1964</name></trkpt>
<trkpt lat="52.050025" lon="05.770682"><ele>49.5</ele><time>2022-04-12T14:50:49Z</time><name>PT1965</name></trkpt>
<trkpt lat="52.050031" lon="05.770674"><ele>49.4</ele><time>2022-04-12T14:50:50Z</time><name>PT1966</name></trkpt>
<trkpt lat="52.050045" lon="05.770661"><ele>49.3</ele><time>2022-04-12T14:50:51Z</time><name>PT1967</name></trkpt>
<trkpt lat="52.050059" lon="05.770651"><ele>49.2</ele><time>2022-04-12T14:50:52Z</time><name>PT1968</name></trkpt>
<trkpt lat="52.050073" lon="05.770648"><ele>49.2</ele><time>2022-04-12T14:50:53Z</time><name>PT1969</name></trkpt>
<trkpt lat="52.050084" lon="05.770642"><ele>49</ele><time>2022-04-12T14:50:54Z</time><name>PT1970</name></trkpt>
<trkpt lat="52.050088" lon="05.770631"><ele>49.1</ele><time>2022-04-12T14:50:55Z</time><name>PT1971</name></trkpt>
<trkpt lat="52.050097" lon="05.770612"><ele>48.8</ele><time>2022-04-12T14:50:56Z</time><name>PT1972</name></trkpt>
<trkpt lat="52.050109" lon="05.770599"><ele>48.8</ele><time>2022-04-12T14:50:57Z</time><name>PT1973</name></trkpt>
<trkpt lat="52.050117" lon="05.770588"><ele>48.9</ele><time>2022-04-12T14:50:58Z</time><name>PT1974</name></trkpt>
<trkpt lat="52.050123" lon="05.770578"><ele>48.9</ele><time>2022-04-12T14:50:59Z</time><name>PT1975</name></trkpt>
<trkpt lat="52.050125" lon="05.770572"><ele>48.8</ele><time>2022-04-12T14:51:00Z</time><name>PT1976</name></trkpt>
<trkpt lat="52.050131" lon="05.770563"><ele>48.8</ele><time>2022-04-12T14:51:01Z</time><name>PT1977</name></trkpt>
<trkpt lat="52.050141" lon="05.770554"><ele>48.8</ele><time>2022-04-12T14:51:02Z</time><name>PT1978</name></trkpt>
<trkpt lat="52.050149" lon="05.770546"><ele>48.7</ele><time>2022-04-12T14:51:03Z</time><name>PT1979</name></trkpt>
<trkpt lat="52.050161" lon="05.770539"><ele>48.8</ele><time>2022-04-12T14:51:04Z</time><name>PT1980</name></trkpt>
<trkpt lat="52.050167" lon="05.770529"><ele>48.8</ele><time>2022-04-12T14:51:05Z</time><name>PT1981</name></trkpt>
<trkpt lat="52.050171" lon="05.770520"><ele>48.9</ele><time>2022-04-12T14:51:06Z</time><name>PT1982</name></trkpt>
<trkpt lat="52.050175" lon="05.770508"><ele>48.8</ele><time>2022-04-12T14:51:07Z</time><name>PT1983</name></trkpt>
<trkpt lat="52.050185" lon="05.770496"><ele>48.7</ele><time>2022-04-12T14:51:08Z</time><name>PT1984</name></trkpt>
<trkpt lat="52.050200" lon="05.770484"><ele>48.6</ele><time>2022-04-12T14:51:09Z</time><name>PT1985</name></trkpt>
<trkpt lat="52.050211" lon="05.770475"><ele>48.6</ele><time>2022-04-12T14:51:10Z</time><name>PT1986</name></trkpt>
<trkpt lat="52.050220" lon="05.770463"><ele>48.4</ele><time>2022-04-12T14:51:11Z</time><name>PT1987</name></trkpt>
<trkpt lat="52.050227" lon="05.770451"><ele>48.5</ele><time>2022-04-12T14:51:13Z</time><name>PT1988</name></trkpt>
<trkpt lat="52.050228" lon="05.770434"><ele>48.6</ele><time>2022-04-12T14:51:13Z</time><name>PT1989</name></trkpt>
<trkpt lat="52.050238" lon="05.770415"><ele>48.4</ele><time>2022-04-12T14:51:14Z</time><name>PT1990</name></trkpt>
<trkpt lat="52.050250" lon="05.770405"><ele>48.4</ele><time>2022-04-12T14:51:15Z</time><name>PT1991</name></trkpt>
<trkpt lat="52.050259" lon="05.770398"><ele>48.5</ele><time>2022-04-12T14:51:16Z</time><name>PT1992</name></trkpt>
<trkpt lat="52.050265" lon="05.770390"><ele>48.5</ele><time>2022-04-12T14:51:17Z</time><name>PT1993</name></trkpt>
<trkpt lat="52.050270" lon="05.770382"><ele>48.7</ele><time>2022-04-12T14:51:18Z</time><name>PT1994</name></trkpt>
<trkpt lat="52.050275" lon="05.770363"><ele>48.7</ele><time>2022-04-12T14:51:19Z</time><name>PT1995</name></trkpt>
<trkpt lat="52.050287" lon="05.770345"><ele>48.5</ele><time>2022-04-12T14:51:20Z</time><name>PT1996</name></trkpt>
<trkpt lat="52.050297" lon="05.770331"><ele>48.3</ele><time>2022-04-12T14:51:21Z</time><name>PT1997</name></trkpt>
<trkpt lat="52.050307" lon="05.770317"><ele>48.2</ele><time>2022-04-12T14:51:23Z</time><name>PT1998</name></trkpt>
<trkpt lat="52.050314" lon="05.770306"><ele>48.2</ele><time>2022-04-12T14:51:23Z</time><name>PT1999</name></trkpt>
<trkpt lat="52.050324" lon="05.770298"><ele>48.1</ele><time>2022-04-12T14:51:24Z</time><name>PT2000</name></trkpt>
<trkpt lat="52.050332" lon="05.770284"><ele>48.1</ele><time>2022-04-12T14:51:25Z</time><name>PT2001</name></trkpt>
<trkpt lat="52.050344" lon="05.770271"><ele>48.2</ele><time>2022-04-12T14:51:26Z</time><name>PT2002</name></trkpt>
<trkpt lat="52.050354" lon="05.770257"><ele>47.9</ele><time>2022-04-12T14:51:27Z</time><name>PT2003</name></trkpt>
<trkpt lat="52.050362" lon="05.770248"><ele>47.8</ele><time>2022-04-12T14:51:28Z</time><name>PT2004</name></trkpt>
<trkpt lat="52.050367" lon="05.770235"><ele>47.7</ele><time>2022-04-12T14:51:29Z</time><name>PT2005</name></trkpt>
<trkpt lat="52.050375" lon="05.770222"><ele>47.7</ele><time>2022-04-12T14:51:31Z</time><name>PT2006</name></trkpt>
<trkpt lat="52.050387" lon="05.770208"><ele>47.6</ele><time>2022-04-12T14:51:31Z</time><name>PT2007</name></trkpt>
<trkpt lat="52.050395" lon="05.770197"><ele>47.7</ele><time>2022-04-12T14:51:33Z</time><name>PT2008</name></trkpt>
<trkpt lat="52.050404" lon="05.770189"><ele>47.6</ele><time>2022-04-12T14:51:33Z</time><name>PT2009</name></trkpt>
<trkpt lat="52.050411" lon="05.770185"><ele>47.6</ele><time>2022-04-12T14:51:34Z</time><name>PT2010</name></trkpt>
<trkpt lat="52.050418" lon="05.770179"><ele>47.5</ele><time>2022-04-12T14:51:35Z</time><name>PT2011</name></trkpt>
<trkpt lat="52.050426" lon="05.770164"><ele>47.5</ele><time>2022-04-12T14:51:36Z</time><name>PT2012</name></trkpt>
<trkpt lat="52.050432" lon="05.770145"><ele>47.5</ele><time>2022-04-12T14:51:37Z</time><name>PT2013</name></trkpt>
<trkpt lat="52.050442" lon="05.770132"><ele>47.3</ele><time>2022-04-12T14:51:38Z</time><name>PT2014</name></trkpt>
<trkpt lat="52.050450" lon="05.770121"><ele>47.3</ele><time>2022-04-12T14:51:39Z</time><name>PT2015</name></trkpt>
<trkpt lat="52.050458" lon="05.770121"><ele>47.4</ele><time>2022-04-12T14:51:40Z</time><name>PT2016</name></trkpt>
<trkpt lat="52.050465" lon="05.770110"><ele>47.3</ele><time>2022-04-12T14:51:41Z</time><name>PT2017</name></trkpt>
<trkpt lat="52.050473" lon="05.770095"><ele>47.4</ele><time>2022-04-12T14:51:43Z</time><name>PT2018</name></trkpt>
<trkpt lat="52.050487" lon="05.770080"><ele>47.3</ele><time>2022-04-12T14:51:43Z</time><name>PT2019</name></trkpt>
<trkpt lat="52.050498" lon="05.770064"><ele>47</ele><time>2022-04-12T14:51:44Z</time><name>PT2020</name></trkpt>
<trkpt lat="52.050504" lon="05.770048"><ele>46.9</ele><time>2022-04-12T14:51:45Z</time><name>PT2021</name></trkpt>
<trkpt lat="52.050509" lon="05.770036"><ele>46.9</ele><time>2022-04-12T14:51:46Z</time><name>PT2022</name></trkpt>
<trkpt lat="52.050517" lon="05.770032"><ele>46.8</ele><time>2022-04-12T14:51:47Z</time><name>PT2023</name></trkpt>
<trkpt lat="52.050531" lon="05.770021"><ele>47</ele><time>2022-04-12T14:51:48Z</time><name>PT2024</name></trkpt>
<trkpt lat="52.050545" lon="05.770009"><ele>47</ele><time>2022-04-12T14:51:49Z</time><name>PT2025</name></trkpt>
<trkpt lat="52.050555" lon="05.769997"><ele>47.2</ele><time>2022-04-12T14:51:50Z</time><name>PT2026</name></trkpt>
<trkpt lat="52.050563" lon="05.769991"><ele>47.1</ele><time>2022-04-12T14:51:51Z</time><name>PT2027</name></trkpt>
<trkpt lat="52.050567" lon="05.769980"><ele>47.2</ele><time>2022-04-12T14:51:53Z</time><name>PT2028</name></trkpt>
<trkpt lat="52.050573" lon="05.769965"><ele>47.3</ele><time>2022-04-12T14:51:53Z</time><name>PT2029</name></trkpt>
<trkpt lat="52.050582" lon="05.769949"><ele>47.5</ele><time>2022-04-12T14:51:54Z</time><name>PT2030</name></trkpt>
<trkpt lat="52.050591" lon="05.769935"><ele>47.3</ele><time>2022-04-12T14:51:55Z</time><name>PT2031</name></trkpt>
<trkpt lat="52.050601" lon="05.769925"><ele>47.4</ele><time>2022-04-12T14:51:56Z</time><name>PT2032</name></trkpt>
<trkpt lat="52.050608" lon="05.769916"><ele>47.4</ele><time>2022-04-12T14:51:57Z</time><name>PT2033</name></trkpt>
<trkpt lat="52.050615" lon="05.769906"><ele>47.2</ele><time>2022-04-12T14:51:58Z</time><name>PT2034</name></trkpt>
<trkpt lat="52.050626" lon="05.769894"><ele>47.2</ele><time>2022-04-12T14:51:59Z</time><name>PT2035</name></trkpt>
<trkpt lat="52.050637" lon="05.769882"><ele>47.2</ele><time>2022-04-12T14:52:00Z</time><name>PT2036</name></trkpt>
<trkpt lat="52.050648" lon="05.769875"><ele>47.1</ele><time>2022-04-12T14:52:01Z</time><name>PT2037</name></trkpt>
<trkpt lat="52.050656" lon="05.769866"><ele>46.8</ele><time>2022-04-12T14:52:02Z</time><name>PT2038</name></trkpt>
<trkpt lat="52.050662" lon="05.769857"><ele>46.8</ele><time>2022-04-12T14:52:03Z</time><name>PT2039</name></trkpt>
<trkpt lat="52.050671" lon="05.769847"><ele>46.8</ele><time>2022-04-12T14:52:04Z</time><name>PT2040</name></trkpt>
<trkpt lat="52.050687" lon="05.769829"><ele>46.7</ele><time>2022-04-12T14:52:05Z</time><name>PT2041</name></trkpt>
<trkpt lat="52.050700" lon="05.769814"><ele>46.7</ele><time>2022-04-12T14:52:06Z</time><name>PT2042</name></trkpt>
<trkpt lat="52.050704" lon="05.769802"><ele>46.9</ele><time>2022-04-12T14:52:07Z</time><name>PT2043</name></trkpt>
<trkpt lat="52.050709" lon="05.769794"><ele>47</ele><time>2022-04-12T14:52:08Z</time><name>PT2044</name></trkpt>
<trkpt lat="52.050714" lon="05.769786"><ele>47</ele><time>2022-04-12T14:52:09Z</time><name>PT2045</name></trkpt>
<trkpt lat="52.050722" lon="05.769775"><ele>47</ele><time>2022-04-12T14:52:10Z</time><name>PT2046</name></trkpt>
<trkpt lat="52.050733" lon="05.769761"><ele>46.8</ele><time>2022-04-12T14:52:11Z</time><name>PT2047</name></trkpt>
<trkpt lat="52.050743" lon="05.769749"><ele>46.7</ele><time>2022-04-12T14:52:12Z</time><name>PT2048</name></trkpt>
<trkpt lat="52.050751" lon="05.769742"><ele>46.6</ele><time>2022-04-12T14:52:13Z</time><name>PT2049</name></trkpt>
<trkpt lat="52.050757" lon="05.769733"><ele>46.6</ele><time>2022-04-12T14:52:14Z</time><name>PT2050</name></trkpt>
<trkpt lat="52.050762" lon="05.769725"><ele>46.4</ele><time>2022-04-12T14:52:15Z</time><name>PT2051</name></trkpt>
<trkpt lat="52.050770" lon="05.769714"><ele>46.4</ele><time>2022-04-12T14:52:16Z</time><name>PT2052</name></trkpt>
<trkpt lat="52.050782" lon="05.769700"><ele>46.3</ele><time>2022-04-12T14:52:17Z</time><name>PT2053</name></trkpt>
<trkpt lat="52.050790" lon="05.769689"><ele>46.2</ele><time>2022-04-12T14:52:18Z</time><name>PT2054</name></trkpt>
<trkpt lat="52.050799" lon="05.769683"><ele>46.1</ele><time>2022-04-12T14:52:19Z</time><name>PT2055</name></trkpt>
<trkpt lat="52.050808" lon="05.769674"><ele>46.1</ele><time>2022-04-12T14:52:21Z</time><name>PT2056</name></trkpt>
<trkpt lat="52.050814" lon="05.769668"><ele>46.1</ele><time>2022-04-12T14:52:21Z</time><name>PT2057</name></trkpt>
<trkpt lat="52.050819" lon="05.769658"><ele>46.1</ele><time>2022-04-12T14:52:23Z</time><name>PT2058</name></trkpt>
<trkpt lat="52.050822" lon="05.769657"><ele>46.2</ele><time>2022-04-12T14:52:23Z</time><name>PT2059</name></trkpt>
<trkpt lat="52.050824" lon="05.769655"><ele>46.1</ele><time>2022-04-12T14:52:25Z</time><name>PT2060</name></trkpt>
<trkpt lat="52.050824" lon="05.769653"><ele>46.1</ele><time>2022-04-12T14:52:25Z</time><name>PT2061</name></trkpt>
<trkpt lat="52.050824" lon="05.769652"><ele>46.1</ele><time>2022-04-12T14:52:27Z</time><name>PT2062</name></trkpt>
<trkpt lat="52.050826" lon="05.769651"><ele>47</ele><time>2022-04-12T14:52:32Z</time><name>PT2063</name></trkpt>
<trkpt lat="52.050826" lon="05.769651"><ele>46.9</ele><time>2022-04-12T14:52:33Z</time><name>PT2064</name></trkpt>
<trkpt lat="52.050826" lon="05.769643"><ele>46.7</ele><time>2022-04-12T14:52:40Z</time><name>PT2065</name></trkpt>
<trkpt lat="52.050828" lon="05.769642"><ele>46.7</ele><time>2022-04-12T14:52:41Z</time><name>PT2066</name></trkpt>
<trkpt lat="52.050829" lon="05.769644"><ele>46.5</ele><time>2022-04-12T14:52:42Z</time><name>PT2067</name></trkpt>
<trkpt lat="52.050827" lon="05.769643"><ele>46.5</ele><time>2022-04-12T14:52:43Z</time><name>PT2068</name></trkpt>
<trkpt lat="52.050826" lon="05.769644"><ele>46.6</ele><time>2022-04-12T14:52:44Z</time><name>PT2069</name></trkpt>
<trkpt lat="52.050826" lon="05.769644"><ele>46.6</ele><time>2022-04-12T14:52:45Z</time><name>PT2070</name></trkpt>
<trkpt lat="52.050826" lon="05.769645"><ele>46.5</ele><time>2022-04-12T14:52:46Z</time><name>PT2071</name></trkpt>
<trkpt lat="52.050829" lon="05.769640"><ele>46.3</ele><time>2022-04-12T14:52:49Z</time><name>PT2072</name></trkpt>
<trkpt lat="52.050833" lon="05.769634"><ele>46.2</ele><time>2022-04-12T14:52:50Z</time><name>PT2073</name></trkpt>
<trkpt lat="52.050836" lon="05.769628"><ele>46.3</ele><time>2022-04-12T14:52:51Z</time><name>PT2074</name></trkpt>
<trkpt lat="52.050839" lon="05.769622"><ele>46.3</ele><time>2022-04-12T14:52:52Z</time><name>PT2075</name></trkpt>
<trkpt lat="52.050841" lon="05.769621"><ele>46.3</ele><time>2022-04-12T14:52:53Z</time><name>PT2076</name></trkpt>
<trkpt lat="52.050841" lon="05.769622"><ele>46.4</ele><time>2022-04-12T14:52:54Z</time><name>PT2077</name></trkpt>
<trkpt lat="52.050842" lon="05.769623"><ele>46.3</ele><time>2022-04-12T14:52:55Z</time><name>PT2078</name></trkpt>
<trkpt lat="52.050845" lon="05.769622"><ele>46.3</ele><time>2022-04-12T14:52:56Z</time><name>PT2079</name></trkpt>
<trkpt lat="52.050845" lon="05.769621"><ele>46.2</ele><time>2022-04-12T14:52:57Z</time><name>PT2080</name></trkpt>
<trkpt lat="52.050844" lon="05.769620"><ele>46.2</ele><time>2022-04-12T14:52:58Z</time><name>PT2081</name></trkpt>
<trkpt lat="52.050845" lon="05.769620"><ele>46.3</ele><time>2022-04-12T14:53:11Z</time><name>PT2082</name></trkpt>
<trkpt lat="52.050848" lon="05.769614"><ele>46.5</ele><time>2022-04-12T14:53:12Z</time><name>PT2083</name></trkpt>
<trkpt lat="52.050852" lon="05.769614"><ele>46.4</ele><time>2022-04-12T14:53:13Z</time><name>PT2084</name></trkpt>
<trkpt lat="52.050857" lon="05.769608"><ele>46.5</ele><time>2022-04-12T14:53:14Z</time><name>PT2085</name></trkpt>
<trkpt lat="52.050855" lon="05.769601"><ele>46.5</ele><time>2022-04-12T14:53:15Z</time><name>PT2086</name></trkpt>
<trkpt lat="52.050855" lon="05.769600"><ele>46.2</ele><time>2022-04-12T14:53:16Z</time><name>PT2087</name></trkpt>
<trkpt lat="52.050855" lon="05.769598"><ele>46</ele><time>2022-04-12T14:53:17Z</time><name>PT2088</name></trkpt>
<trkpt lat="52.050855" lon="05.769596"><ele>45.9</ele><time>2022-04-12T14:53:18Z</time><name>PT2089</name></trkpt>
<trkpt lat="52.050854" lon="05.769593"><ele>45.9</ele><time>2022-04-12T14:53:19Z</time><name>PT2090</name></trkpt>
<trkpt lat="52.050854" lon="05.769591"><ele>45.8</ele><time>2022-04-12T14:53:20Z</time><name>PT2091</name></trkpt>
<trkpt lat="52.050855" lon="05.769585"><ele>45.9</ele><time>2022-04-12T14:53:29Z</time><name>PT2092</name></trkpt>
<trkpt lat="52.050862" lon="05.769572"><ele>46</ele><time>2022-04-12T14:53:31Z</time><name>PT2093</name></trkpt>
<trkpt lat="52.050863" lon="05.769576"><ele>46.1</ele><time>2022-04-12T14:53:31Z</time><name>PT2094</name></trkpt>
<trkpt lat="52.050864" lon="05.769577"><ele>46.1</ele><time>2022-04-12T14:53:33Z</time><name>PT2095</name></trkpt>
<trkpt lat="52.050867" lon="05.769578"><ele>46</ele><time>2022-04-12T14:53:33Z</time><name>PT2096</name></trkpt>
<trkpt lat="52.050870" lon="05.769577"><ele>46</ele><time>2022-04-12T14:53:35Z</time><name>PT2097</name></trkpt>
<trkpt lat="52.050868" lon="05.769579"><ele>45.7</ele><time>2022-04-12T14:53:40Z</time><name>PT2098</name></trkpt>
<trkpt lat="52.050867" lon="05.769578"><ele>45.7</ele><time>2022-04-12T14:53:41Z</time><name>PT2099</name></trkpt>
<trkpt lat="52.050866" lon="05.769578"><ele>45.7</ele><time>2022-04-12T14:53:42Z</time><name>PT2100</name></trkpt>
<trkpt lat="52.050867" lon="05.769580"><ele>45.7</ele><time>2022-04-12T14:53:45Z</time><name>PT2101</name></trkpt>
<trkpt lat="52.050868" lon="05.769579"><ele>45.7</ele><time>2022-04-12T14:53:46Z</time><name>PT2102</name></trkpt>
<trkpt lat="52.050870" lon="05.769573"><ele>45.8</ele><time>2022-04-12T14:53:47Z</time><name>PT2103</name></trkpt>
<trkpt lat="52.050869" lon="05.769572"><ele>45.7</ele><time>2022-04-12T14:53:48Z</time><name>PT2104</name></trkpt>
<trkpt lat="52.050868" lon="05.769573"><ele>45.8</ele><time>2022-04-12T14:53:49Z</time><name>PT2105</name></trkpt>
<trkpt lat="52.050869" lon="05.769573"><ele>45.7</ele><time>2022-04-12T14:53:50Z</time><name>PT2106</name></trkpt>
<trkpt lat="52.050868" lon="05.769573"><ele>46.2</ele><time>2022-04-12T14:53:57Z</time><name>PT2107</name></trkpt>
<trkpt lat="52.050869" lon="05.769573"><ele>46.3</ele><time>2022-04-12T14:53:58Z</time><name>PT2108</name></trkpt>
<trkpt lat="52.050865" lon="05.769578"><ele>46.2</ele><time>2022-04-12T14:53:59Z</time><name>PT2109</name></trkpt>
<trkpt lat="52.050862" lon="05.769577"><ele>46.1</ele><time>2022-04-12T14:54:00Z</time><name>PT2110</name></trkpt>
<trkpt lat="52.050862" lon="05.769575"><ele>46</ele><time>2022-04-12T14:54:01Z</time><name>PT2111</name></trkpt>
<trkpt lat="52.050865" lon="05.769572"><ele>45.7</ele><time>2022-04-12T14:54:02Z</time><name>PT2112</name></trkpt>
<trkpt lat="52.050868" lon="05.769572"><ele>46.1</ele><time>2022-04-12T14:54:14Z</time><name>PT2113</name></trkpt>
<trkpt lat="52.050870" lon="05.769572"><ele>46.1</ele><time>2022-04-12T14:54:15Z</time><name>PT2114</name></trkpt>
<trkpt lat="52.050873" lon="05.769575"><ele>46.5</ele><time>2022-04-12T14:54:20Z</time><name>PT2115</name></trkpt>
<trkpt lat="52.050879" lon="05.769571"><ele>46.5</ele><time>2022-04-12T14:54:21Z</time><name>PT2116</name></trkpt>
<trkpt lat="52.050887" lon="05.769567"><ele>46.4</ele><time>2022-04-12T14:54:22Z</time><name>PT2117</name></trkpt>
<trkpt lat="52.050900" lon="05.769561"><ele>46.5</ele><time>2022-04-12T14:54:23Z</time><name>PT2118</name></trkpt>
<trkpt lat="52.050910" lon="05.769552"><ele>46.4</ele><time>2022-04-12T14:54:24Z</time><name>PT2119</name></trkpt>
<trkpt lat="52.050915" lon="05.769546"><ele>46.3</ele><time>2022-04-12T14:54:25Z</time><name>PT2120</name></trkpt>
<trkpt lat="52.050922" lon="05.769535"><ele>46.3</ele><time>2022-04-12T14:54:26Z</time><name>PT2121</name></trkpt>
<trkpt lat="52.050931" lon="05.769522"><ele>46.2</ele><time>2022-04-12T14:54:27Z</time><name>PT2122</name></trkpt>
<trkpt lat="52.050937" lon="05.769514"><ele>46.1</ele><time>2022-04-12T14:54:28Z</time><name>PT2123</name></trkpt>
<trkpt lat="52.050940" lon="05.769511"><ele>45.9</ele><time>2022-04-12T14:54:29Z</time><name>PT2124</name></trkpt>
<trkpt lat="52.050942" lon="05.769512"><ele>45.8</ele><time>2022-04-12T14:54:30Z</time><name>PT2125</name></trkpt>
<trkpt lat="52.050939" lon="05.769508"><ele>45.8</ele><time>2022-04-12T14:54:31Z</time><name>PT2126</name></trkpt>
<trkpt lat="52.050937" lon="05.769509"><ele>45.9</ele><time>2022-04-12T14:54:32Z</time><name>PT2127</name></trkpt>
<trkpt lat="52.050938" lon="05.769509"><ele>45.9</ele><time>2022-04-12T14:54:33Z</time><name>PT2128</name></trkpt>
<trkpt lat="52.050938" lon="05.769509"><ele>45.8</ele><time>2022-04-12T14:54:34Z</time><name>PT2129</name></trkpt>
<trkpt lat="52.050939" lon="05.769509"><ele>45.8</ele><time>2022-04-12T14:54:35Z</time><name>PT2130</name></trkpt>
<trkpt lat="52.050936" lon="05.769502"><ele>45.2</ele><time>2022-04-12T14:54:43Z</time><name>PT2131</name></trkpt>
<trkpt lat="52.050935" lon="05.769500"><ele>45.2</ele><time>2022-04-12T14:54:44Z</time><name>PT2132</name></trkpt>
<trkpt lat="52.050935" lon="05.769500"><ele>45.2</ele><time>2022-04-12T14:54:45Z</time><name>PT2133</name></trkpt>
<trkpt lat="52.050935" lon="05.769497"><ele>45.4</ele><time>2022-04-12T14:54:46Z</time><name>PT2134</name></trkpt>
<trkpt lat="52.050934" lon="05.769496"><ele>45.6</ele><time>2022-04-12T14:54:47Z</time><name>PT2135</name></trkpt>
<trkpt lat="52.050938" lon="05.769496"><ele>45.7</ele><time>2022-04-12T14:54:48Z</time><name>PT2136</name></trkpt>
<trkpt lat="52.050937" lon="05.769493"><ele>45.7</ele><time>2022-04-12T14:54:49Z</time><name>PT2137</name></trkpt>
<trkpt lat="52.050937" lon="05.769493"><ele>46</ele><time>2022-04-12T14:54:50Z</time><name>PT2138</name></trkpt>
<trkpt lat="52.050938" lon="05.769496"><ele>46</ele><time>2022-04-12T14:54:51Z</time><name>PT2139</name></trkpt>
<trkpt lat="52.050938" lon="05.769504"><ele>45.8</ele><time>2022-04-12T14:54:55Z</time><name>PT2140</name></trkpt>
<trkpt lat="52.050940" lon="05.769508"><ele>45.8</ele><time>2022-04-12T14:54:56Z</time><name>PT2141</name></trkpt>
<trkpt lat="52.050941" lon="05.769506"><ele>45.7</ele><time>2022-04-12T14:54:57Z</time><name>PT2142</name></trkpt>
<trkpt lat="52.050945" lon="05.769504"><ele>45.6</ele><time>2022-04-12T14:54:58Z</time><name>PT2143</name></trkpt>
<trkpt lat="52.050950" lon="05.769496"><ele>45.6</ele><time>2022-04-12T14:54:59Z</time><name>PT2144</name></trkpt>
<trkpt lat="52.050952" lon="05.769491"><ele>45.5</ele><time>2022-04-12T14:55:00Z</time><name>PT2145</name></trkpt>
<trkpt lat="52.050949" lon="05.769488"><ele>45.4</ele><time>2022-04-12T14:55:01Z</time><name>PT2146</name></trkpt>
<trkpt lat="52.050948" lon="05.769494"><ele>45.4</ele><time>2022-04-12T14:55:02Z</time><name>PT2147</name></trkpt>
<trkpt lat="52.050946" lon="05.769493"><ele>45.4</ele><time>2022-04-12T14:55:03Z</time><name>PT2148</name></trkpt>
<trkpt lat="52.050944" lon="05.769485"><ele>45.5</ele><time>2022-04-12T14:55:04Z</time><name>PT2149</name></trkpt>
<trkpt lat="52.050946" lon="05.769484"><ele>45.4</ele><time>2022-04-12T14:55:05Z</time><name>PT2150</name></trkpt>
<trkpt lat="52.050946" lon="05.769479"><ele>45.4</ele><time>2022-04-12T14:55:07Z</time><name>PT2151</name></trkpt>
<trkpt lat="52.050942" lon="05.769471"><ele>45.5</ele><time>2022-04-12T14:55:07Z</time><name>PT2152</name></trkpt>
<trkpt lat="52.050936" lon="05.769460"><ele>45.4</ele><time>2022-04-12T14:55:08Z</time><name>PT2153</name></trkpt>
<trkpt lat="52.050931" lon="05.769448"><ele>45.4</ele><time>2022-04-12T14:55:09Z</time><name>PT2154</name></trkpt>
<trkpt lat="52.050930" lon="05.769446"><ele>45.6</ele><time>2022-04-12T14:55:10Z</time><name>PT2155</name></trkpt>
<trkpt lat="52.050931" lon="05.769444"><ele>45.7</ele><time>2022-04-12T14:55:11Z</time><name>PT2156</name></trkpt>
<trkpt lat="52.050932" lon="05.769442"><ele>45.7</ele><time>2022-04-12T14:55:13Z</time><name>PT2157</name></trkpt>
<trkpt lat="52.050929" lon="05.769438"><ele>45.5</ele><time>2022-04-12T14:55:13Z</time><name>PT2158</name></trkpt>
<trkpt lat="52.050928" lon="05.769433"><ele>45.4</ele><time>2022-04-12T14:55:14Z</time><name>PT2159</name></trkpt>
<trkpt lat="52.050926" lon="05.769430"><ele>45.3</ele><time>2022-04-12T14:55:15Z</time><name>PT2160</name></trkpt>
<trkpt lat="52.050923" lon="05.769429"><ele>45.1</ele><time>2022-04-12T14:55:17Z</time><name>PT2161</name></trkpt>
<trkpt lat="52.050922" lon="05.769424"><ele>45.3</ele><time>2022-04-12T14:55:20Z</time><name>PT2162</name></trkpt>
<trkpt lat="52.050912" lon="05.769404"><ele>45.5</ele><time>2022-04-12T14:55:21Z</time><name>PT2163</name></trkpt>
<trkpt lat="52.050906" lon="05.769385"><ele>45.6</ele><time>2022-04-12T14:55:22Z</time><name>PT2164</name></trkpt>
<trkpt lat="52.050904" lon="05.769377"><ele>45.7</ele><time>2022-04-12T14:55:23Z</time><name>PT2165</name></trkpt>
<trkpt lat="52.050900" lon="05.769364"><ele>45.7</ele><time>2022-04-12T14:55:24Z</time><name>PT2166</name></trkpt>
<trkpt lat="52.050895" lon="05.769350"><ele>45.7</ele><time>2022-04-12T14:55:25Z</time><name>PT2167</name></trkpt>
<trkpt lat="52.050890" lon="05.769338"><ele>45.5</ele><time>2022-04-12T14:55:26Z</time><name>PT2168</name></trkpt>
<trkpt lat="52.050885" lon="05.769326"><ele>45.4</ele><time>2022-04-12T14:55:27Z</time><name>PT2169</name></trkpt>
<trkpt lat="52.050878" lon="05.769317"><ele>45.4</ele><time>2022-04-12T14:55:28Z</time><name>PT2170</name></trkpt>
<trkpt lat="52.050874" lon="05.769304"><ele>45.2</ele><time>2022-04-12T14:55:29Z</time><name>PT2171</name></trkpt>
<trkpt lat="52.050866" lon="05.769290"><ele>45.2</ele><time>2022-04-12T14:55:30Z</time><name>PT2172</name></trkpt>
<trkpt lat="52.050861" lon="05.769274"><ele>45.2</ele><time>2022-04-12T14:55:31Z</time><name>PT2173</name></trkpt>
<trkpt lat="52.050858" lon="05.769262"><ele>45.3</ele><time>2022-04-12T14:55:32Z</time><name>PT2174</name></trkpt>
<trkpt lat="52.050854" lon="05.769250"><ele>45.2</ele><time>2022-04-12T14:55:33Z</time><name>PT2175</name></trkpt>
<trkpt lat="52.050851" lon="05.769235"><ele>45.1</ele><time>2022-04-12T14:55:34Z</time><name>PT2176</name></trkpt>
<trkpt lat="52.050847" lon="05.769222"><ele>45.2</ele><time>2022-04-12T14:55:35Z</time><name>PT2177</name></trkpt>
<trkpt lat="52.050841" lon="05.769207"><ele>45.1</ele><time>2022-04-12T14:55:36Z</time><name>PT2178</name></trkpt>
<trkpt lat="52.050836" lon="05.769192"><ele>44.9</ele><time>2022-04-12T14:55:37Z</time><name>PT2179</name></trkpt>
<trkpt lat="52.050832" lon="05.769180"><ele>45</ele><time>2022-04-12T14:55:38Z</time><name>PT2180</name></trkpt>
<trkpt lat="52.050826" lon="05.769174"><ele>44.9</ele><time>2022-04-12T14:55:39Z</time><name>PT2181</name></trkpt>
<trkpt lat="52.050816" lon="05.769164"><ele>45.1</ele><time>2022-04-12T14:55:40Z</time><name>PT2182</name></trkpt>
<trkpt lat="52.050809" lon="05.769161"><ele>45</ele><time>2022-04-12T14:55:41Z</time><name>PT2183</name></trkpt>
<trkpt lat="52.050804" lon="05.769157"><ele>45.3</ele><time>2022-04-12T14:55:42Z</time><name>PT2184</name></trkpt>
<trkpt lat="52.050800" lon="05.769154"><ele>45.4</ele><time>2022-04-12T14:55:43Z</time><name>PT2185</name></trkpt>
<trkpt lat="52.050796" lon="05.769149"><ele>45.4</ele><time>2022-04-12T14:55:44Z</time><name>PT2186</name></trkpt>
<trkpt lat="52.050785" lon="05.769142"><ele>45.2</ele><time>2022-04-12T14:55:46Z</time><name>PT2187</name></trkpt>
<trkpt lat="52.050778" lon="05.769136"><ele>45.2</ele><time>2022-04-12T14:55:46Z</time><name>PT2188</name></trkpt>
<trkpt lat="52.050776" lon="05.769134"><ele>45.2</ele><time>2022-04-12T14:55:47Z</time><name>PT2189</name></trkpt>
<trkpt lat="52.050770" lon="05.769124"><ele>45.2</ele><time>2022-04-12T14:55:48Z</time><name>PT2190</name></trkpt>
<trkpt lat="52.050765" lon="05.769116"><ele>45.5</ele><time>2022-04-12T14:55:49Z</time><name>PT2191</name></trkpt>
<trkpt lat="52.050764" lon="05.769113"><ele>45.5</ele><time>2022-04-12T14:55:50Z</time><name>PT2192</name></trkpt>
<trkpt lat="52.050756" lon="05.769097"><ele>45.6</ele><time>2022-04-12T14:55:51Z</time><name>PT2193</name></trkpt>
<trkpt lat="52.050750" lon="05.769083"><ele>45.7</ele><time>2022-04-12T14:55:52Z</time><name>PT2194</name></trkpt>
<trkpt lat="52.050746" lon="05.769075"><ele>45.7</ele><time>2022-04-12T14:55:53Z</time><name>PT2195</name></trkpt>
<trkpt lat="52.050741" lon="05.769062"><ele>45.7</ele><time>2022-04-12T14:55:54Z</time><name>PT2196</name></trkpt>
<trkpt lat="52.050738" lon="05.769058"><ele>45.7</ele><time>2022-04-12T14:55:55Z</time><name>PT2197</name></trkpt>
<trkpt lat="52.050740" lon="05.769059"><ele>45.7</ele><time>2022-04-12T14:55:56Z</time><name>PT2198</name></trkpt>
<trkpt lat="52.050740" lon="05.769051"><ele>45.7</ele><time>2022-04-12T14:55:57Z</time><name>PT2199</name></trkpt>
<trkpt lat="52.050741" lon="05.769038"><ele>45.6</ele><time>2022-04-12T14:55:58Z</time><name>PT2200</name></trkpt>
<trkpt lat="52.050733" lon="05.769033"><ele>45.5</ele><time>2022-04-12T14:55:59Z</time><name>PT2201</name></trkpt>
<trkpt lat="52.050730" lon="05.769025"><ele>45.7</ele><time>2022-04-12T14:56:00Z</time><name>PT2202</name></trkpt>
<trkpt lat="52.050726" lon="05.769018"><ele>45.7</ele><time>2022-04-12T14:56:01Z</time><name>PT2203</name></trkpt>
<trkpt lat="52.050722" lon="05.769004"><ele>45.7</ele><time>2022-04-12T14:56:02Z</time><name>PT2204</name></trkpt>
<trkpt lat="52.050718" lon="05.768997"><ele>45.7</ele><time>2022-04-12T14:56:03Z</time><name>PT2205</name></trkpt>
<trkpt lat="52.050715" lon="05.768988"><ele>45.8</ele><time>2022-04-12T14:56:04Z</time><name>PT2206</name></trkpt>
<trkpt lat="52.050711" lon="05.768979"><ele>45.7</ele><time>2022-04-12T14:56:05Z</time><name>PT2207</name></trkpt>
<trkpt lat="52.050711" lon="05.768972"><ele>45.7</ele><time>2022-04-12T14:56:06Z</time><name>PT2208</name></trkpt>
<trkpt lat="52.050706" lon="05.768959"><ele>45.8</ele><time>2022-04-12T14:56:07Z</time><name>PT2209</name></trkpt>
<trkpt lat="52.050703" lon="05.768946"><ele>45.7</ele><time>2022-04-12T14:56:08Z</time><name>PT2210</name></trkpt>
<trkpt lat="52.050700" lon="05.768935"><ele>45.7</ele><time>2022-04-12T14:56:09Z</time><name>PT2211</name></trkpt>
<trkpt lat="52.050702" lon="05.768915"><ele>45.7</ele><time>2022-04-12T14:56:10Z</time><name>PT2212</name></trkpt>
<trkpt lat="52.050703" lon="05.768903"><ele>45.8</ele><time>2022-04-12T14:56:11Z</time><name>PT2213</name></trkpt>
<trkpt lat="52.050704" lon="05.768900"><ele>45.7</ele><time>2022-04-12T14:56:12Z</time><name>PT2214</name></trkpt>
<trkpt lat="52.050702" lon="05.768896"><ele>45.7</ele><time>2022-04-12T14:56:13Z</time><name>PT2215</name></trkpt>
<trkpt lat="52.050700" lon="05.768892"><ele>45.7</ele><time>2022-04-12T14:56:14Z</time><name>PT2216</name></trkpt>
<trkpt lat="52.050697" lon="05.768874"><ele>45.6</ele><time>2022-04-12T14:56:15Z</time><name>PT2217</name></trkpt>
<trkpt lat="52.050693" lon="05.768860"><ele>45.5</ele><time>2022-04-12T14:56:16Z</time><name>PT2218</name></trkpt>
<trkpt lat="52.050695" lon="05.768856"><ele>45.3</ele><time>2022-04-12T14:56:18Z</time><name>PT2219</name></trkpt>
<trkpt lat="52.050692" lon="05.768842"><ele>45.3</ele><time>2022-04-12T14:56:18Z</time><name>PT2220</name></trkpt>
<trkpt lat="52.050686" lon="05.768825"><ele>45.3</ele><time>2022-04-12T14:56:20Z</time><name>PT2221</name></trkpt>
<trkpt lat="52.050682" lon="05.768813"><ele>45.3</ele><time>2022-04-12T14:56:20Z</time><name>PT2222</name></trkpt>
<trkpt lat="52.050680" lon="05.768802"><ele>45.4</ele><time>2022-04-12T14:56:22Z</time><name>PT2223</name></trkpt>
<trkpt lat="52.050676" lon="05.768790"><ele>45.5</ele><time>2022-04-12T14:56:22Z</time><name>PT2224</name></trkpt>
<trkpt lat="52.050671" lon="05.768783"><ele>45.5</ele><time>2022-04-12T14:56:23Z</time><name>PT2225</name></trkpt>
<trkpt lat="52.050668" lon="05.768770"><ele>45.4</ele><time>2022-04-12T14:56:24Z</time><name>PT2226</name></trkpt>
<trkpt lat="52.050665" lon="05.768759"><ele>45.2</ele><time>2022-04-12T14:56:25Z</time><name>PT2227</name></trkpt>
<trkpt lat="52.050660" lon="05.768752"><ele>45.6</ele><time>2022-04-12T14:56:26Z</time><name>PT2228</name></trkpt>
<trkpt lat="52.050652" lon="05.768737"><ele>45.6</ele><time>2022-04-12T14:56:27Z</time><name>PT2229</name></trkpt>
<trkpt lat="52.050644" lon="05.768723"><ele>45.8</ele><time>2022-04-12T14:56:28Z</time><name>PT2230</name></trkpt>
<trkpt lat="52.050642" lon="05.768715"><ele>45.8</ele><time>2022-04-12T14:56:29Z</time><name>PT2231</name></trkpt>
<trkpt lat="52.050635" lon="05.768703"><ele>45.9</ele><time>2022-04-12T14:56:30Z</time><name>PT2232</name></trkpt>
<trkpt lat="52.050631" lon="05.768692"><ele>45.7</ele><time>2022-04-12T14:56:31Z</time><name>PT2233</name></trkpt>
<trkpt lat="52.050626" lon="05.768682"><ele>45.7</ele><time>2022-04-12T14:56:32Z</time><name>PT2234</name></trkpt>
<trkpt lat="52.050622" lon="05.768668"><ele>45.7</ele><time>2022-04-12T14:56:33Z</time><name>PT2235</name></trkpt>
<trkpt lat="52.050622" lon="05.768658"><ele>45.7</ele><time>2022-04-12T14:56:34Z</time><name>PT2236</name></trkpt>
<trkpt lat="52.050618" lon="05.768650"><ele>45.8</ele><time>2022-04-12T14:56:35Z</time><name>PT2237</name></trkpt>
<trkpt lat="52.050621" lon="05.768654"><ele>45.8</ele><time>2022-04-12T14:56:36Z</time><name>PT2238</name></trkpt>
<trkpt lat="52.050622" lon="05.768659"><ele>45.7</ele><time>2022-04-12T14:56:37Z</time><name>PT2239</name></trkpt>
<trkpt lat="52.050622" lon="05.768655"><ele>45.7</ele><time>2022-04-12T14:56:38Z</time><name>PT2240</name></trkpt>
<trkpt lat="52.050622" lon="05.768650"><ele>45.4</ele><time>2022-04-12T14:56:39Z</time><name>PT2241</name></trkpt>
<trkpt lat="52.050623" lon="05.768646"><ele>45.4</ele><time>2022-04-12T14:56:40Z</time><name>PT2242</name></trkpt>
<trkpt lat="52.050622" lon="05.768639"><ele>45.2</ele><time>2022-04-12T14:56:43Z</time><name>PT2243</name></trkpt>
<trkpt lat="52.050618" lon="05.768617"><ele>45.2</ele><time>2022-04-12T14:56:44Z</time><name>PT2244</name></trkpt>
<trkpt lat="52.050613" lon="05.768603"><ele>45.3</ele><time>2022-04-12T14:56:45Z</time><name>PT2245</name></trkpt>
<trkpt lat="52.050609" lon="05.768587"><ele>45.2</ele><time>2022-04-12T14:56:46Z</time><name>PT2246</name></trkpt>
<trkpt lat="52.050608" lon="05.768576"><ele>45.4</ele><time>2022-04-12T14:56:47Z</time><name>PT2247</name></trkpt>
<trkpt lat="52.050606" lon="05.768569"><ele>45.4</ele><time>2022-04-12T14:56:48Z</time><name>PT2248</name></trkpt>
<trkpt lat="52.050597" lon="05.768559"><ele>45.4</ele><time>2022-04-12T14:56:49Z</time><name>PT2249</name></trkpt>
<trkpt lat="52.050594" lon="05.768545"><ele>45.3</ele><time>2022-04-12T14:56:50Z</time><name>PT2250</name></trkpt>
<trkpt lat="52.050589" lon="05.768537"><ele>45.3</ele><time>2022-04-12T14:56:51Z</time><name>PT2251</name></trkpt>
<trkpt lat="52.050585" lon="05.768528"><ele>45.4</ele><time>2022-04-12T14:56:52Z</time><name>PT2252</name></trkpt>
<trkpt lat="52.050584" lon="05.768519"><ele>45.3</ele><time>2022-04-12T14:56:54Z</time><name>PT2253</name></trkpt>
<trkpt lat="52.050581" lon="05.768507"><ele>45.4</ele><time>2022-04-12T14:56:54Z</time><name>PT2254</name></trkpt>
<trkpt lat="52.050576" lon="05.768496"><ele>45.5</ele><time>2022-04-12T14:56:56Z</time><name>PT2255</name></trkpt>
<trkpt lat="52.050576" lon="05.768488"><ele>45.5</ele><time>2022-04-12T14:56:56Z</time><name>PT2256</name></trkpt>
<trkpt lat="52.050568" lon="05.768473"><ele>45.5</ele><time>2022-04-12T14:56:57Z</time><name>PT2257</name></trkpt>
<trkpt lat="52.050560" lon="05.768459"><ele>45.5</ele><time>2022-04-12T14:56:58Z</time><name>PT2258</name></trkpt>
<trkpt lat="52.050557" lon="05.768448"><ele>45.3</ele><time>2022-04-12T14:56:59Z</time><name>PT2259</name></trkpt>
<trkpt lat="52.050551" lon="05.768435"><ele>45.3</ele><time>2022-04-12T14:57:00Z</time><name>PT2260</name></trkpt>
<trkpt lat="52.050549" lon="05.768430"><ele>45.2</ele><time>2022-04-12T14:57:01Z</time><name>PT2261</name></trkpt>
<trkpt lat="52.050546" lon="05.768426"><ele>45.2</ele><time>2022-04-12T14:57:02Z</time><name>PT2262</name></trkpt>
<trkpt lat="52.050536" lon="05.768412"><ele>45.2</ele><time>2022-04-12T14:57:03Z</time><name>PT2263</name></trkpt>
<trkpt lat="52.050527" lon="05.768402"><ele>45.2</ele><time>2022-04-12T14:57:04Z</time><name>PT2264</name></trkpt>
<trkpt lat="52.050523" lon="05.768400"><ele>45</ele><time>2022-04-12T14:57:05Z</time><name>PT2265</name></trkpt>
<trkpt lat="52.050520" lon="05.768388"><ele>44.9</ele><time>2022-04-12T14:57:06Z</time><name>PT2266</name></trkpt>
<trkpt lat="52.050515" lon="05.768375"><ele>45</ele><time>2022-04-12T14:57:07Z</time><name>PT2267</name></trkpt>
<trkpt lat="52.050510" lon="05.768365"><ele>45.1</ele><time>2022-04-12T14:57:08Z</time><name>PT2268</name></trkpt>
<trkpt lat="52.050505" lon="05.768355"><ele>45.4</ele><time>2022-04-12T14:57:09Z</time><name>PT2269</name></trkpt>
<trkpt lat="52.050505" lon="05.768348"><ele>45.4</ele><time>2022-04-12T14:57:10Z</time><name>PT2270</name></trkpt>
<trkpt lat="52.050500" lon="05.768338"><ele>45.4</ele><time>2022-04-12T14:57:11Z</time><name>PT2271</name></trkpt>
<trkpt lat="52.050490" lon="05.768319"><ele>45.3</ele><time>2022-04-12T14:57:12Z</time><name>PT2272</name></trkpt>
<trkpt lat="52.050486" lon="05.768307"><ele>45.1</ele><time>2022-04-12T14:57:13Z</time><name>PT2273</name></trkpt>
<trkpt lat="52.050486" lon="05.768300"><ele>45</ele><time>2022-04-12T14:57:14Z</time><name>PT2274</name></trkpt>
<trkpt lat="52.050481" lon="05.768285"><ele>44.9</ele><time>2022-04-12T14:57:15Z</time><name>PT2275</name></trkpt>
<trkpt lat="52.050477" lon="05.768267"><ele>44.9</ele><time>2022-04-12T14:57:16Z</time><name>PT2276</name></trkpt>
<trkpt lat="52.050474" lon="05.768254"><ele>45.2</ele><time>2022-04-12T14:57:17Z</time><name>PT2277</name></trkpt>
<trkpt lat="52.050470" lon="05.768245"><ele>45.2</ele><time>2022-04-12T14:57:18Z</time><name>PT2278</name></trkpt>
<trkpt lat="52.050461" lon="05.768224"><ele>45.3</ele><time>2022-04-12T14:57:19Z</time><name>PT2279</name></trkpt>
<trkpt lat="52.050452" lon="05.768209"><ele>45.4</ele><time>2022-04-12T14:57:20Z</time><name>PT2280</name></trkpt>
<trkpt lat="52.050450" lon="05.768200"><ele>45.3</ele><time>2022-04-12T14:57:21Z</time><name>PT2281</name></trkpt>
<trkpt lat="52.050450" lon="05.768186"><ele>45.2</ele><time>2022-04-12T14:57:22Z</time><name>PT2282</name></trkpt>
<trkpt lat="52.050438" lon="05.768171"><ele>45.4</ele><time>2022-04-12T14:57:23Z</time><name>PT2283</name></trkpt>
<trkpt lat="52.050431" lon="05.768159"><ele>45.4</ele><time>2022-04-12T14:57:24Z</time><name>PT2284</name></trkpt>
<trkpt lat="52.050425" lon="05.768155"><ele>45.7</ele><time>2022-04-12T14:57:25Z</time><name>PT2285</name></trkpt>
<trkpt lat="52.050417" lon="05.768146"><ele>45.7</ele><time>2022-04-12T14:57:26Z</time><name>PT2286</name></trkpt>
<trkpt lat="52.050408" lon="05.768129"><ele>45.8</ele><time>2022-04-12T14:57:27Z</time><name>PT2287</name></trkpt>
<trkpt lat="52.050400" lon="05.768113"><ele>45.8</ele><time>2022-04-12T14:57:28Z</time><name>PT2288</name></trkpt>
<trkpt lat="52.050393" lon="05.768098"><ele>46</ele><time>2022-04-12T14:57:29Z</time><name>PT2289</name></trkpt>
<trkpt lat="52.050388" lon="05.768087"><ele>45.9</ele><time>2022-04-12T14:57:30Z</time><name>PT2290</name></trkpt>
<trkpt lat="52.050383" lon="05.768072"><ele>45.8</ele><time>2022-04-12T14:57:31Z</time><name>PT2291</name></trkpt>
<trkpt lat="52.050378" lon="05.768055"><ele>45.8</ele><time>2022-04-12T14:57:32Z</time><name>PT2292</name></trkpt>
<trkpt lat="52.050374" lon="05.768043"><ele>45.7</ele><time>2022-04-12T14:57:33Z</time><name>PT2293</name></trkpt>
<trkpt lat="52.050369" lon="05.768034"><ele>45.8</ele><time>2022-04-12T14:57:34Z</time><name>PT2294</name></trkpt>
<trkpt lat="52.050360" lon="05.768024"><ele>45.7</ele><time>2022-04-12T14:57:35Z</time><name>PT2295</name></trkpt>
<trkpt lat="52.050355" lon="05.768002"><ele>45.9</ele><time>2022-04-12T14:57:36Z</time><name>PT2296</name></trkpt>
<trkpt lat="52.050350" lon="05.767984"><ele>45.9</ele><time>2022-04-12T14:57:37Z</time><name>PT2297</name></trkpt>
<trkpt lat="52.050347" lon="05.767973"><ele>45.8</ele><time>2022-04-12T14:57:38Z</time><name>PT2298</name></trkpt>
<trkpt lat="52.050346" lon="05.767965"><ele>45.8</ele><time>2022-04-12T14:57:39Z</time><name>PT2299</name></trkpt>
<trkpt lat="52.050343" lon="05.767952"><ele>46</ele><time>2022-04-12T14:57:40Z</time><name>PT2300</name></trkpt>
<trkpt lat="52.050336" lon="05.767937"><ele>45.7</ele><time>2022-04-12T14:57:41Z</time><name>PT2301</name></trkpt>
<trkpt lat="52.050329" lon="05.767924"><ele>45.7</ele><time>2022-04-12T14:57:42Z</time><name>PT2302</name></trkpt>
<trkpt lat="52.050325" lon="05.767913"><ele>45.7</ele><time>2022-04-12T14:57:43Z</time><name>PT2303</name></trkpt>
<trkpt lat="52.050317" lon="05.767903"><ele>45.6</ele><time>2022-04-12T14:57:44Z</time><name>PT2304</name></trkpt>
<trkpt lat="52.050309" lon="05.767890"><ele>45.7</ele><time>2022-04-12T14:57:45Z</time><name>PT2305</name></trkpt>
<trkpt lat="52.050303" lon="05.767878"><ele>45.7</ele><time>2022-04-12T14:57:46Z</time><name>PT2306</name></trkpt>
<trkpt lat="52.050303" lon="05.767870"><ele>45.7</ele><time>2022-04-12T14:57:47Z</time><name>PT2307</name></trkpt>
<trkpt lat="52.050294" lon="05.767858"><ele>45.7</ele><time>2022-04-12T14:57:48Z</time><name>PT2308</name></trkpt>
<trkpt lat="52.050289" lon="05.767840"><ele>45.7</ele><time>2022-04-12T14:57:49Z</time><name>PT2309</name></trkpt>
<trkpt lat="52.050286" lon="05.767823"><ele>45.7</ele><time>2022-04-12T14:57:50Z</time><name>PT2310</name></trkpt>
<trkpt lat="52.050285" lon="05.767814"><ele>45.7</ele><time>2022-04-12T14:57:51Z</time><name>PT2311</name></trkpt>
<trkpt lat="52.050280" lon="05.767803"><ele>45.8</ele><time>2022-04-12T14:57:52Z</time><name>PT2312</name></trkpt>
<trkpt lat="52.050279" lon="05.767793"><ele>45.7</ele><time>2022-04-12T14:57:53Z</time><name>PT2313</name></trkpt>
<trkpt lat="52.050271" lon="05.767779"><ele>45.8</ele><time>2022-04-12T14:57:54Z</time><name>PT2314</name></trkpt>
<trkpt lat="52.050264" lon="05.767767"><ele>45.9</ele><time>2022-04-12T14:57:55Z</time><name>PT2315</name></trkpt>
<trkpt lat="52.050260" lon="05.767762"><ele>45.9</ele><time>2022-04-12T14:57:56Z</time><name>PT2316</name></trkpt>
<trkpt lat="52.050258" lon="05.767759"><ele>46</ele><time>2022-04-12T14:57:57Z</time><name>PT2317</name></trkpt>
<trkpt lat="52.050253" lon="05.767745"><ele>46.1</ele><time>2022-04-12T14:57:58Z</time><name>PT2318</name></trkpt>
<trkpt lat="52.050248" lon="05.767734"><ele>46.1</ele><time>2022-04-12T14:57:59Z</time><name>PT2319</name></trkpt>
<trkpt lat="52.050241" lon="05.767726"><ele>46</ele><time>2022-04-12T14:58:00Z</time><name>PT2320</name></trkpt>
<trkpt lat="52.050233" lon="05.767723"><ele>46.1</ele><time>2022-04-12T14:58:01Z</time><name>PT2321</name></trkpt>
<trkpt lat="52.050227" lon="05.767712"><ele>46.1</ele><time>2022-04-12T14:58:02Z</time><name>PT2322</name></trkpt>
<trkpt lat="52.050219" lon="05.767697"><ele>46.1</ele><time>2022-04-12T14:58:03Z</time><name>PT2323</name></trkpt>
<trkpt lat="52.050214" lon="05.767686"><ele>46</ele><time>2022-04-12T14:58:04Z</time><name>PT2324</name></trkpt>
<trkpt lat="52.050203" lon="05.767681"><ele>46.1</ele><time>2022-04-12T14:58:05Z</time><name>PT2325</name></trkpt>
<trkpt lat="52.050192" lon="05.767670"><ele>46.1</ele><time>2022-04-12T14:58:06Z</time><name>PT2326</name></trkpt>
<trkpt lat="52.050185" lon="05.767649"><ele>46.1</ele><time>2022-04-12T14:58:07Z</time><name>PT2327</name></trkpt>
<trkpt lat="52.050179" lon="05.767635"><ele>46.2</ele><time>2022-04-12T14:58:08Z</time><name>PT2328</name></trkpt>
<trkpt lat="52.050174" lon="05.767623"><ele>46.1</ele><time>2022-04-12T14:58:09Z</time><name>PT2329</name></trkpt>
<trkpt lat="52.050169" lon="05.767615"><ele>46.1</ele><time>2022-04-12T14:58:10Z</time><name>PT2330</name></trkpt>
<trkpt lat="52.050167" lon="05.767607"><ele>46.1</ele><time>2022-04-12T14:58:11Z</time><name>PT2331</name></trkpt>
<trkpt lat="52.050162" lon="05.767586"><ele>45.9</ele><time>2022-04-12T14:58:12Z</time><name>PT2332</name></trkpt>
<trkpt lat="52.050156" lon="05.767574"><ele>45.9</ele><time>2022-04-12T14:58:13Z</time><name>PT2333</name></trkpt>
<trkpt lat="52.050153" lon="05.767558"><ele>46</ele><time>2022-04-12T14:58:14Z</time><name>PT2334</name></trkpt>
<trkpt lat="52.050144" lon="05.767548"><ele>45.9</ele><time>2022-04-12T14:58:16Z</time><name>PT2335</name></trkpt>
<trkpt lat="52.050146" lon="05.767532"><ele>46.1</ele><time>2022-04-12T14:58:16Z</time><name>PT2336</name></trkpt>
<trkpt lat="52.050139" lon="05.767514"><ele>46.2</ele><time>2022-04-12T14:58:17Z</time><name>PT2337</name></trkpt>
<trkpt lat="52.050136" lon="05.767498"><ele>46.2</ele><time>2022-04-12T14:58:18Z</time><name>PT2338</name></trkpt>
<trkpt lat="52.050133" lon="05.767490"><ele>46</ele><time>2022-04-12T14:58:19Z</time><name>PT2339</name></trkpt>
<trkpt lat="52.050130" lon="05.767473"><ele>46</ele><time>2022-04-12T14:58:20Z</time><name>PT2340</name></trkpt>
<trkpt lat="52.050124" lon="05.767453"><ele>45.8</ele><time>2022-04-12T14:58:22Z</time><name>PT2341</name></trkpt>
<trkpt lat="52.050121" lon="05.767434"><ele>45.8</ele><time>2022-04-12T14:58:22Z</time><name>PT2342</name></trkpt>
<trkpt lat="52.050119" lon="05.767416"><ele>45.8</ele><time>2022-04-12T14:58:23Z</time><name>PT2343</name></trkpt>
<trkpt lat="52.050117" lon="05.767404"><ele>45.9</ele><time>2022-04-12T14:58:24Z</time><name>PT2344</name></trkpt>
<trkpt lat="52.050115" lon="05.767382"><ele>46.1</ele><time>2022-04-12T14:58:25Z</time><name>PT2345</name></trkpt>
<trkpt lat="52.050108" lon="05.767362"><ele>46</ele><time>2022-04-12T14:58:26Z</time><name>PT2346</name></trkpt>
<trkpt lat="52.050102" lon="05.767351"><ele>46.1</ele><time>2022-04-12T14:58:28Z</time><name>PT2347</name></trkpt>
<trkpt lat="52.050100" lon="05.767337"><ele>46.2</ele><time>2022-04-12T14:58:28Z</time><name>PT2348</name></trkpt>
<trkpt lat="52.050096" lon="05.767320"><ele>45.9</ele><time>2022-04-12T14:58:30Z</time><name>PT2349</name></trkpt>
<trkpt lat="52.050094" lon="05.767302"><ele>45.9</ele><time>2022-04-12T14:58:30Z</time><name>PT2350</name></trkpt>
<trkpt lat="52.050087" lon="05.767287"><ele>45.8</ele><time>2022-04-12T14:58:31Z</time><name>PT2351</name></trkpt>
<trkpt lat="52.050081" lon="05.767276"><ele>45.9</ele><time>2022-04-12T14:58:32Z</time><name>PT2352</name></trkpt>
<trkpt lat="52.050074" lon="05.767265"><ele>45.9</ele><time>2022-04-12T14:58:33Z</time><name>PT2353</name></trkpt>
<trkpt lat="52.050067" lon="05.767247"><ele>46</ele><time>2022-04-12T14:58:34Z</time><name>PT2354</name></trkpt>
<trkpt lat="52.050057" lon="05.767226"><ele>46.1</ele><time>2022-04-12T14:58:35Z</time><name>PT2355</name></trkpt>
<trkpt lat="52.050052" lon="05.767211"><ele>46.1</ele><time>2022-04-12T14:58:36Z</time><name>PT2356</name></trkpt>
<trkpt lat="52.050046" lon="05.767201"><ele>46.2</ele><time>2022-04-12T14:58:38Z</time><name>PT2357</name></trkpt>
<trkpt lat="52.050041" lon="05.767186"><ele>46.2</ele><time>2022-04-12T14:58:38Z</time><name>PT2358</name></trkpt>
<trkpt lat="52.050031" lon="05.767166"><ele>46.2</ele><time>2022-04-12T14:58:39Z</time><name>PT2359</name></trkpt>
<trkpt lat="52.050020" lon="05.767152"><ele>46.2</ele><time>2022-04-12T14:58:40Z</time><name>PT2360</name></trkpt>
<trkpt lat="52.050010" lon="05.767139"><ele>46.2</ele><time>2022-04-12T14:58:41Z</time><name>PT2361</name></trkpt>
<trkpt lat="52.050002" lon="05.767135"><ele>46.1</ele><time>2022-04-12T14:58:42Z</time><name>PT2362</name></trkpt>
<trkpt lat="52.049994" lon="05.767120"><ele>46.1</ele><time>2022-04-12T14:58:43Z</time><name>PT2363</name></trkpt>
<trkpt lat="52.049990" lon="05.767097"><ele>46.2</ele><time>2022-04-12T14:58:44Z</time><name>PT2364</name></trkpt>
<trkpt lat="52.049988" lon="05.767083"><ele>46.2</ele><time>2022-04-12T14:58:45Z</time><name>PT2365</name></trkpt>
<trkpt lat="52.049982" lon="05.767074"><ele>46.1</ele><time>2022-04-12T14:58:46Z</time><name>PT2366</name></trkpt>
<trkpt lat="52.049973" lon="05.767064"><ele>46.2</ele><time>2022-04-12T14:58:47Z</time><name>PT2367</name></trkpt>
<trkpt lat="52.049969" lon="05.767041"><ele>46.1</ele><time>2022-04-12T14:58:48Z</time><name>PT2368</name></trkpt>
<trkpt lat="52.049966" lon="05.767024"><ele>45.8</ele><time>2022-04-12T14:58:50Z</time><name>PT2369</name></trkpt>
<trkpt lat="52.049962" lon="05.767013"><ele>45.9</ele><time>2022-04-12T14:58:50Z</time><name>PT2370</name></trkpt>
<trkpt lat="52.049952" lon="05.767008"><ele>46</ele><time>2022-04-12T14:58:51Z</time><name>PT2371</name></trkpt>
<trkpt lat="52.049944" lon="05.766994"><ele>46.1</ele><time>2022-04-12T14:58:52Z</time><name>PT2372</name></trkpt>
<trkpt lat="52.049944" lon="05.766972"><ele>45.9</ele><time>2022-04-12T14:58:53Z</time><name>PT2373</name></trkpt>
<trkpt lat="52.049938" lon="05.766949"><ele>46</ele><time>2022-04-12T14:58:54Z</time><name>PT2374</name></trkpt>
<trkpt lat="52.049936" lon="05.766931"><ele>45.8</ele><time>2022-04-12T14:58:55Z</time><name>PT2375</name></trkpt>
<trkpt lat="52.049930" lon="05.766919"><ele>45.9</ele><time>2022-04-12T14:58:56Z</time><name>PT2376</name></trkpt>
<trkpt lat="52.049924" lon="05.766904"><ele>45.8</ele><time>2022-04-12T14:58:58Z</time><name>PT2377</name></trkpt>
<trkpt lat="52.049917" lon="05.766890"><ele>45.9</ele><time>2022-04-12T14:58:58Z</time><name>PT2378</name></trkpt>
<trkpt lat="52.049911" lon="05.766875"><ele>45.9</ele><time>2022-04-12T14:59:00Z</time><name>PT2379</name></trkpt>
<trkpt lat="52.049908" lon="05.766855"><ele>45.9</ele><time>2022-04-12T14:59:00Z</time><name>PT2380</name></trkpt>
<trkpt lat="52.049903" lon="05.766843"><ele>45.8</ele><time>2022-04-12T14:59:01Z</time><name>PT2381</name></trkpt>
<trkpt lat="52.049897" lon="05.766823"><ele>45.7</ele><time>2022-04-12T14:59:02Z</time><name>PT2382</name></trkpt>
<trkpt lat="52.049912" lon="05.766815"><ele>45.7</ele><time>2022-04-12T14:59:03Z</time><name>PT2383</name></trkpt>
<trkpt lat="52.049913" lon="05.766803"><ele>45.7</ele><time>2022-04-12T14:59:04Z</time><name>PT2384</name></trkpt>
<trkpt lat="52.049907" lon="05.766785"><ele>45.7</ele><time>2022-04-12T14:59:05Z</time><name>PT2385</name></trkpt>
<trkpt lat="52.049898" lon="05.766771"><ele>45.7</ele><time>2022-04-12T14:59:06Z</time><name>PT2386</name></trkpt>
<trkpt lat="52.049889" lon="05.766758"><ele>45.9</ele><time>2022-04-12T14:59:08Z</time><name>PT2387</name></trkpt>
<trkpt lat="52.049881" lon="05.766750"><ele>45.9</ele><time>2022-04-12T14:59:08Z</time><name>PT2388</name></trkpt>
<trkpt lat="52.049877" lon="05.766746"><ele>45.8</ele><time>2022-04-12T14:59:10Z</time><name>PT2389</name></trkpt>
<trkpt lat="52.049872" lon="05.766745"><ele>45.8</ele><time>2022-04-12T14:59:10Z</time><name>PT2390</name></trkpt>
<trkpt lat="52.049862" lon="05.766734"><ele>45.7</ele><time>2022-04-12T14:59:11Z</time><name>PT2391</name></trkpt>
<trkpt lat="52.049849" lon="05.766731"><ele>45.6</ele><time>2022-04-12T14:59:12Z</time><name>PT2392</name></trkpt>
<trkpt lat="52.049843" lon="05.766730"><ele>45.6</ele><time>2022-04-12T14:59:13Z</time><name>PT2393</name></trkpt>
<trkpt lat="52.049835" lon="05.766727"><ele>45.7</ele><time>2022-04-12T14:59:14Z</time><name>PT2394</name></trkpt>
<trkpt lat="52.049830" lon="05.766724"><ele>45.7</ele><time>2022-04-12T14:59:15Z</time><name>PT2395</name></trkpt>
<trkpt lat="52.049818" lon="05.766723"><ele>45.7</ele><time>2022-04-12T14:59:16Z</time><name>PT2396</name></trkpt>
<trkpt lat="52.049807" lon="05.766727"><ele>45.9</ele><time>2022-04-12T14:59:17Z</time><name>PT2397</name></trkpt>
<trkpt lat="52.049799" lon="05.766734"><ele>45.8</ele><time>2022-04-12T14:59:18Z</time><name>PT2398</name></trkpt>
<trkpt lat="52.049793" lon="05.766738"><ele>45.8</ele><time>2022-04-12T14:59:19Z</time><name>PT2399</name></trkpt>
<trkpt lat="52.049786" lon="05.766739"><ele>45.9</ele><time>2022-04-12T14:59:20Z</time><name>PT2400</name></trkpt>
<trkpt lat="52.049773" lon="05.766744"><ele>46</ele><time>2022-04-12T14:59:21Z</time><name>PT2401</name></trkpt>
<trkpt lat="52.049765" lon="05.766750"><ele>45.8</ele><time>2022-04-12T14:59:22Z</time><name>PT2402</name></trkpt>
<trkpt lat="52.049759" lon="05.766752"><ele>45.7</ele><time>2022-04-12T14:59:23Z</time><name>PT2403</name></trkpt>
<trkpt lat="52.049752" lon="05.766758"><ele>45.7</ele><time>2022-04-12T14:59:24Z</time><name>PT2404</name></trkpt>
<trkpt lat="52.049736" lon="05.766765"><ele>45.7</ele><time>2022-04-12T14:59:25Z</time><name>PT2405</name></trkpt>
<trkpt lat="52.049720" lon="05.766759"><ele>45.7</ele><time>2022-04-12T14:59:26Z</time><name>PT2406</name></trkpt>
<trkpt lat="52.049713" lon="05.766760"><ele>45.8</ele><time>2022-04-12T14:59:27Z</time><name>PT2407</name></trkpt>
<trkpt lat="52.049707" lon="05.766758"><ele>45.9</ele><time>2022-04-12T14:59:28Z</time><name>PT2408</name></trkpt>
<trkpt lat="52.049698" lon="05.766759"><ele>45.9</ele><time>2022-04-12T14:59:29Z</time><name>PT2409</name></trkpt>
<trkpt lat="52.049677" lon="05.766753"><ele>45.8</ele><time>2022-04-12T14:59:30Z</time><name>PT2410</name></trkpt>
<trkpt lat="52.049667" lon="05.766741"><ele>45.8</ele><time>2022-04-12T14:59:31Z</time><name>PT2411</name></trkpt>
<trkpt lat="52.049666" lon="05.766731"><ele>46</ele><time>2022-04-12T14:59:32Z</time><name>PT2412</name></trkpt>
<trkpt lat="52.049662" lon="05.766726"><ele>46.1</ele><time>2022-04-12T14:59:33Z</time><name>PT2413</name></trkpt>
<trkpt lat="52.049649" lon="05.766715"><ele>46.1</ele><time>2022-04-12T14:59:34Z</time><name>PT2414</name></trkpt>
<trkpt lat="52.049640" lon="05.766703"><ele>46.3</ele><time>2022-04-12T14:59:35Z</time><name>PT2415</name></trkpt>
<trkpt lat="52.049625" lon="05.766682"><ele>46.4</ele><time>2022-04-12T14:59:36Z</time><name>PT2416</name></trkpt>
<trkpt lat="52.049622" lon="05.766673"><ele>46.3</ele><time>2022-04-12T14:59:37Z</time><name>PT2417</name></trkpt>
<trkpt lat="52.049607" lon="05.766659"><ele>46.5</ele><time>2022-04-12T14:59:38Z</time><name>PT2418</name></trkpt>
<trkpt lat="52.049596" lon="05.766650"><ele>46.5</ele><time>2022-04-12T14:59:39Z</time><name>PT2419</name></trkpt>
<trkpt lat="52.049592" lon="05.766640"><ele>46.3</ele><time>2022-04-12T14:59:40Z</time><name>PT2420</name></trkpt>
<trkpt lat="52.049589" lon="05.766632"><ele>46.2</ele><time>2022-04-12T14:59:42Z</time><name>PT2421</name></trkpt>
<trkpt lat="52.049582" lon="05.766619"><ele>46.2</ele><time>2022-04-12T14:59:42Z</time><name>PT2422</name></trkpt>
<trkpt lat="52.049576" lon="05.766601"><ele>46.2</ele><time>2022-04-12T14:59:44Z</time><name>PT2423</name></trkpt>
<trkpt lat="52.049569" lon="05.766586"><ele>46.3</ele><time>2022-04-12T14:59:44Z</time><name>PT2424</name></trkpt>
<trkpt lat="52.049561" lon="05.766576"><ele>46.4</ele><time>2022-04-12T14:59:46Z</time><name>PT2425</name></trkpt>
<trkpt lat="52.049552" lon="05.766562"><ele>46.4</ele><time>2022-04-12T14:59:46Z</time><name>PT2426</name></trkpt>
<trkpt lat="52.049538" lon="05.766545"><ele>46.3</ele><time>2022-04-12T14:59:48Z</time><name>PT2427</name></trkpt>
<trkpt lat="52.049529" lon="05.766529"><ele>46.3</ele><time>2022-04-12T14:59:48Z</time><name>PT2428</name></trkpt>
<trkpt lat="52.049525" lon="05.766522"><ele>46.2</ele><time>2022-04-12T14:59:49Z</time><name>PT2429</name></trkpt>
<trkpt lat="52.049514" lon="05.766519"><ele>46.3</ele><time>2022-04-12T14:59:50Z</time><name>PT2430</name></trkpt>
<trkpt lat="52.049501" lon="05.766505"><ele>46.7</ele><time>2022-04-12T14:59:51Z</time><name>PT2431</name></trkpt>
<trkpt lat="52.049489" lon="05.766492"><ele>46.7</ele><time>2022-04-12T14:59:52Z</time><name>PT2432</name></trkpt>
<trkpt lat="52.049482" lon="05.766488"><ele>46.7</ele><time>2022-04-12T14:59:53Z</time><name>PT2433</name></trkpt>
<trkpt lat="52.049469" lon="05.766480"><ele>46.8</ele><time>2022-04-12T14:59:54Z</time><name>PT2434</name></trkpt>
<trkpt lat="52.049455" lon="05.766474"><ele>46.7</ele><time>2022-04-12T14:59:55Z</time><name>PT2435</name></trkpt>
<trkpt lat="52.049439" lon="05.766471"><ele>46.6</ele><time>2022-04-12T14:59:56Z</time><name>PT2436</name></trkpt>
<trkpt lat="52.049430" lon="05.766465"><ele>46.7</ele><time>2022-04-12T14:59:57Z</time><name>PT2437</name></trkpt>
<trkpt lat="52.049424" lon="05.766458"><ele>46.5</ele><time>2022-04-12T14:59:58Z</time><name>PT2438</name></trkpt>
<trkpt lat="52.049418" lon="05.766455"><ele>46.4</ele><time>2022-04-12T14:59:59Z</time><name>PT2439</name></trkpt>
<trkpt lat="52.049416" lon="05.766451"><ele>46.2</ele><time>2022-04-12T15:00:00Z</time><name>PT2440</name></trkpt>
<trkpt lat="52.049414" lon="05.766455"><ele>46.4</ele><time>2022-04-12T15:00:04Z</time><name>PT2441</name></trkpt>
<trkpt lat="52.049402" lon="05.766446"><ele>46.5</ele><time>2022-04-12T15:00:05Z</time><name>PT2442</name></trkpt>
<trkpt lat="52.049390" lon="05.766441"><ele>46.5</ele><time>2022-04-12T15:00:06Z</time><name>PT2443</name></trkpt>
<trkpt lat="52.049379" lon="05.766427"><ele>46.6</ele><time>2022-04-12T15:00:07Z</time><name>PT2444</name></trkpt>
<trkpt lat="52.049371" lon="05.766413"><ele>46.7</ele><time>2022-04-12T15:00:08Z</time><name>PT2445</name></trkpt>
<trkpt lat="52.049366" lon="05.766402"><ele>46.5</ele><time>2022-04-12T15:00:09Z</time><name>PT2446</name></trkpt>
<trkpt lat="52.049361" lon="05.766389"><ele>46.7</ele><time>2022-04-12T15:00:10Z</time><name>PT2447</name></trkpt>
<trkpt lat="52.049358" lon="05.766379"><ele>46.7</ele><time>2022-04-12T15:00:11Z</time><name>PT2448</name></trkpt>
<trkpt lat="52.049355" lon="05.766362"><ele>46.7</ele><time>2022-04-12T15:00:12Z</time><name>PT2449</name></trkpt>
<trkpt lat="52.049346" lon="05.766346"><ele>46.7</ele><time>2022-04-12T15:00:13Z</time><name>PT2450</name></trkpt>
<trkpt lat="52.049338" lon="05.766331"><ele>46.8</ele><time>2022-04-12T15:00:14Z</time><name>PT2451</name></trkpt>
<trkpt lat="52.049332" lon="05.766319"><ele>46.7</ele><time>2022-04-12T15:00:15Z</time><name>PT2452</name></trkpt>
<trkpt lat="52.049321" lon="05.766312"><ele>46.7</ele><time>2022-04-12T15:00:16Z</time><name>PT2453</name></trkpt>
<trkpt lat="52.049312" lon="05.766301"><ele>47</ele><time>2022-04-12T15:00:17Z</time><name>PT2454</name></trkpt>
<trkpt lat="52.049299" lon="05.766298"><ele>47</ele><time>2022-04-12T15:00:18Z</time><name>PT2455</name></trkpt>
<trkpt lat="52.049290" lon="05.766295"><ele>46.8</ele><time>2022-04-12T15:00:19Z</time><name>PT2456</name></trkpt>
<trkpt lat="52.049283" lon="05.766289"><ele>46.9</ele><time>2022-04-12T15:00:20Z</time><name>PT2457</name></trkpt>
<trkpt lat="52.049271" lon="05.766277"><ele>47.2</ele><time>2022-04-12T15:00:21Z</time><name>PT2458</name></trkpt>
<trkpt lat="52.049262" lon="05.766265"><ele>47.1</ele><time>2022-04-12T15:00:22Z</time><name>PT2459</name></trkpt>
<trkpt lat="52.049255" lon="05.766259"><ele>47.2</ele><time>2022-04-12T15:00:23Z</time><name>PT2460</name></trkpt>
<trkpt lat="52.049250" lon="05.766258"><ele>47.4</ele><time>2022-04-12T15:00:24Z</time><name>PT2461</name></trkpt>
<trkpt lat="52.049238" lon="05.766256"><ele>47.4</ele><time>2022-04-12T15:00:25Z</time><name>PT2462</name></trkpt>
<trkpt lat="52.049227" lon="05.766247"><ele>47.4</ele><time>2022-04-12T15:00:26Z</time><name>PT2463</name></trkpt>
<trkpt lat="52.049221" lon="05.766243"><ele>47.5</ele><time>2022-04-12T15:00:27Z</time><name>PT2464</name></trkpt>
<trkpt lat="52.049216" lon="05.766244"><ele>47.5</ele><time>2022-04-12T15:00:28Z</time><name>PT2465</name></trkpt>
<trkpt lat="52.049207" lon="05.766247"><ele>47.5</ele><time>2022-04-12T15:00:29Z</time><name>PT2466</name></trkpt>
<trkpt lat="52.049198" lon="05.766253"><ele>47.5</ele><time>2022-04-12T15:00:30Z</time><name>PT2467</name></trkpt>
<trkpt lat="52.049191" lon="05.766256"><ele>47.5</ele><time>2022-04-12T15:00:31Z</time><name>PT2468</name></trkpt>
<trkpt lat="52.049186" lon="05.766260"><ele>47.3</ele><time>2022-04-12T15:00:32Z</time><name>PT2469</name></trkpt>
<trkpt lat="52.049176" lon="05.766267"><ele>47.2</ele><time>2022-04-12T15:00:33Z</time><name>PT2470</name></trkpt>
<trkpt lat="52.049165" lon="05.766279"><ele>47.2</ele><time>2022-04-12T15:00:34Z</time><name>PT2471</name></trkpt>
<trkpt lat="52.049156" lon="05.766281"><ele>47.2</ele><time>2022-04-12T15:00:35Z</time><name>PT2472</name></trkpt>
<trkpt lat="52.049150" lon="05.766276"><ele>47.2</ele><time>2022-04-12T15:00:36Z</time><name>PT2473</name></trkpt>
<trkpt lat="52.049141" lon="05.766278"><ele>47.1</ele><time>2022-04-12T15:00:37Z</time><name>PT2474</name></trkpt>
<trkpt lat="52.049134" lon="05.766278"><ele>47.2</ele><time>2022-04-12T15:00:38Z</time><name>PT2475</name></trkpt>
<trkpt lat="52.049125" lon="05.766288"><ele>47.3</ele><time>2022-04-12T15:00:39Z</time><name>PT2476</name></trkpt>
<trkpt lat="52.049118" lon="05.766292"><ele>47.3</ele><time>2022-04-12T15:00:40Z</time><name>PT2477</name></trkpt>
<trkpt lat="52.049117" lon="05.766299"><ele>47.6</ele><time>2022-04-12T15:00:41Z</time><name>PT2478</name></trkpt>
<trkpt lat="52.049115" lon="05.766309"><ele>47.7</ele><time>2022-04-12T15:00:42Z</time><name>PT2479</name></trkpt>
<trkpt lat="52.049102" lon="05.766320"><ele>47.6</ele><time>2022-04-12T15:00:43Z</time><name>PT2480</name></trkpt>
<trkpt lat="52.049094" lon="05.766325"><ele>47.3</ele><time>2022-04-12T15:00:44Z</time><name>PT2481</name></trkpt>
<trkpt lat="52.049090" lon="05.766328"><ele>47.4</ele><time>2022-04-12T15:00:45Z</time><name>PT2482</name></trkpt>
<trkpt lat="52.049079" lon="05.766330"><ele>47.4</ele><time>2022-04-12T15:00:46Z</time><name>PT2483</name></trkpt>
<trkpt lat="52.049071" lon="05.766327"><ele>47.5</ele><time>2022-04-12T15:00:47Z</time><name>PT2484</name></trkpt>
<trkpt lat="52.049063" lon="05.766320"><ele>47.7</ele><time>2022-04-12T15:00:48Z</time><name>PT2485</name></trkpt>
<trkpt lat="52.049061" lon="05.766327"><ele>47.7</ele><time>2022-04-12T15:00:49Z</time><name>PT2486</name></trkpt>
<trkpt lat="52.049053" lon="05.766317"><ele>47.7</ele><time>2022-04-12T15:00:50Z</time><name>PT2487</name></trkpt>
<trkpt lat="52.049044" lon="05.766311"><ele>47.7</ele><time>2022-04-12T15:00:51Z</time><name>PT2488</name></trkpt>
<trkpt lat="52.049039" lon="05.766310"><ele>47.5</ele><time>2022-04-12T15:00:52Z</time><name>PT2489</name></trkpt>
<trkpt lat="52.049031" lon="05.766310"><ele>47.4</ele><time>2022-04-12T15:00:53Z</time><name>PT2490</name></trkpt>
<trkpt lat="52.049024" lon="05.766307"><ele>47.7</ele><time>2022-04-12T15:00:54Z</time><name>PT2491</name></trkpt>
<trkpt lat="52.049015" lon="05.766305"><ele>47.5</ele><time>2022-04-12T15:00:55Z</time><name>PT2492</name></trkpt>
<trkpt lat="52.049005" lon="05.766305"><ele>47.5</ele><time>2022-04-12T15:00:56Z</time><name>PT2493</name></trkpt>
<trkpt lat="52.048995" lon="05.766299"><ele>47.7</ele><time>2022-04-12T15:00:57Z</time><name>PT2494</name></trkpt>
<trkpt lat="52.048988" lon="05.766301"><ele>47.6</ele><time>2022-04-12T15:00:58Z</time><name>PT2495</name></trkpt>
<trkpt lat="52.048988" lon="05.766301"><ele>47.7</ele><time>2022-04-12T15:01:00Z</time><name>PT2496</name></trkpt>
<trkpt lat="52.048982" lon="05.766299"><ele>47.7</ele><time>2022-04-12T15:01:00Z</time><name>PT2497</name></trkpt>
<trkpt lat="52.048973" lon="05.766296"><ele>47.7</ele><time>2022-04-12T15:01:02Z</time><name>PT2498</name></trkpt>
<trkpt lat="52.048964" lon="05.766294"><ele>47.8</ele><time>2022-04-12T15:01:02Z</time><name>PT2499</name></trkpt>
<trkpt lat="52.048956" lon="05.766293"><ele>47.8</ele><time>2022-04-12T15:01:04Z</time><name>PT2500</name></trkpt>
<trkpt lat="52.048946" lon="05.766283"><ele>47.8</ele><time>2022-04-12T15:01:04Z</time><name>PT2501</name></trkpt>
<trkpt lat="52.048941" lon="05.766278"><ele>47.9</ele><time>2022-04-12T15:01:05Z</time><name>PT2502</name></trkpt>
<trkpt lat="52.048934" lon="05.766280"><ele>48</ele><time>2022-04-12T15:01:06Z</time><name>PT2503</name></trkpt>
<trkpt lat="52.048926" lon="05.766289"><ele>47.9</ele><time>2022-04-12T15:01:07Z</time><name>PT2504</name></trkpt>
<trkpt lat="52.048917" lon="05.766289"><ele>47.9</ele><time>2022-04-12T15:01:08Z</time><name>PT2505</name></trkpt>
<trkpt lat="52.048909" lon="05.766287"><ele>47.8</ele><time>2022-04-12T15:01:09Z</time><name>PT2506</name></trkpt>
<trkpt lat="52.048906" lon="05.766291"><ele>47.9</ele><time>2022-04-12T15:01:10Z</time><name>PT2507</name></trkpt>
<trkpt lat="52.048895" lon="05.766286"><ele>48</ele><time>2022-04-12T15:01:11Z</time><name>PT2508</name></trkpt>
<trkpt lat="52.048882" lon="05.766292"><ele>48.1</ele><time>2022-04-12T15:01:12Z</time><name>PT2509</name></trkpt>
<trkpt lat="52.048867" lon="05.766294"><ele>48.2</ele><time>2022-04-12T15:01:13Z</time><name>PT2510</name></trkpt>
<trkpt lat="52.048849" lon="05.766295"><ele>48.2</ele><time>2022-04-12T15:01:14Z</time><name>PT2511</name></trkpt>
<trkpt lat="52.048835" lon="05.766276"><ele>48.2</ele><time>2022-04-12T15:01:15Z</time><name>PT2512</name></trkpt>
<trkpt lat="52.048825" lon="05.766272"><ele>48.3</ele><time>2022-04-12T15:01:16Z</time><name>PT2513</name></trkpt>
<trkpt lat="52.048819" lon="05.766266"><ele>48.5</ele><time>2022-04-12T15:01:17Z</time><name>PT2514</name></trkpt>
<trkpt lat="52.048811" lon="05.766252"><ele>48.4</ele><time>2022-04-12T15:01:18Z</time><name>PT2515</name></trkpt>
<trkpt lat="52.048803" lon="05.766239"><ele>48.5</ele><time>2022-04-12T15:01:19Z</time><name>PT2516</name></trkpt>
<trkpt lat="52.048794" lon="05.766225"><ele>48.5</ele><time>2022-04-12T15:01:20Z</time><name>PT2517</name></trkpt>
<trkpt lat="52.048780" lon="05.766211"><ele>48.5</ele><time>2022-04-12T15:01:21Z</time><name>PT2518</name></trkpt>
<trkpt lat="52.048764" lon="05.766201"><ele>48.5</ele><time>2022-04-12T15:01:22Z</time><name>PT2519</name></trkpt>
<trkpt lat="52.048757" lon="05.766191"><ele>48.6</ele><time>2022-04-12T15:01:23Z</time><name>PT2520</name></trkpt>
<trkpt lat="52.048753" lon="05.766185"><ele>48.7</ele><time>2022-04-12T15:01:24Z</time><name>PT2521</name></trkpt>
<trkpt lat="52.048749" lon="05.766174"><ele>48.7</ele><time>2022-04-12T15:01:25Z</time><name>PT2522</name></trkpt>
<trkpt lat="52.048741" lon="05.766161"><ele>48.8</ele><time>2022-04-12T15:01:26Z</time><name>PT2523</name></trkpt>
<trkpt lat="52.048735" lon="05.766147"><ele>49.1</ele><time>2022-04-12T15:01:27Z</time><name>PT2524</name></trkpt>
<trkpt lat="52.048730" lon="05.766139"><ele>49.1</ele><time>2022-04-12T15:01:28Z</time><name>PT2525</name></trkpt>
<trkpt lat="52.048717" lon="05.766132"><ele>49</ele><time>2022-04-12T15:01:29Z</time><name>PT2526</name></trkpt>
<trkpt lat="52.048710" lon="05.766116"><ele>49.2</ele><time>2022-04-12T15:01:30Z</time><name>PT2527</name></trkpt>
<trkpt lat="52.048703" lon="05.766101"><ele>49.2</ele><time>2022-04-12T15:01:31Z</time><name>PT2528</name></trkpt>
<trkpt lat="52.048700" lon="05.766096"><ele>49.2</ele><time>2022-04-12T15:01:32Z</time><name>PT2529</name></trkpt>
<trkpt lat="52.048698" lon="05.766090"><ele>49.2</ele><time>2022-04-12T15:01:33Z</time><name>PT2530</name></trkpt>
<trkpt lat="52.048690" lon="05.766076"><ele>49.2</ele><time>2022-04-12T15:01:34Z</time><name>PT2531</name></trkpt>
<trkpt lat="52.048680" lon="05.766064"><ele>49.2</ele><time>2022-04-12T15:01:35Z</time><name>PT2532</name></trkpt>
<trkpt lat="52.048674" lon="05.766058"><ele>49.2</ele><time>2022-04-12T15:01:36Z</time><name>PT2533</name></trkpt>
<trkpt lat="52.048670" lon="05.766050"><ele>49.3</ele><time>2022-04-12T15:01:37Z</time><name>PT2534</name></trkpt>
<trkpt lat="52.048664" lon="05.766043"><ele>49.4</ele><time>2022-04-12T15:01:38Z</time><name>PT2535</name></trkpt>
<trkpt lat="52.048652" lon="05.766023"><ele>49.6</ele><time>2022-04-12T15:01:39Z</time><name>PT2536</name></trkpt>
<trkpt lat="52.048649" lon="05.766014"><ele>49.7</ele><time>2022-04-12T15:01:40Z</time><name>PT2537</name></trkpt>
<trkpt lat="52.048648" lon="05.766006"><ele>49.6</ele><time>2022-04-12T15:01:41Z</time><name>PT2538</name></trkpt>
<trkpt lat="52.048642" lon="05.765995"><ele>49.7</ele><time>2022-04-12T15:01:42Z</time><name>PT2539</name></trkpt>
<trkpt lat="52.048635" lon="05.765981"><ele>49.7</ele><time>2022-04-12T15:01:43Z</time><name>PT2540</name></trkpt>
<trkpt lat="52.048631" lon="05.765971"><ele>49.7</ele><time>2022-04-12T15:01:44Z</time><name>PT2541</name></trkpt>
<trkpt lat="52.048626" lon="05.765963"><ele>49.7</ele><time>2022-04-12T15:01:45Z</time><name>PT2542</name></trkpt>
<trkpt lat="52.048620" lon="05.765964"><ele>49.7</ele><time>2022-04-12T15:01:46Z</time><name>PT2543</name></trkpt>
<trkpt lat="52.048616" lon="05.765956"><ele>49.4</ele><time>2022-04-12T15:01:47Z</time><name>PT2544</name></trkpt>
<trkpt lat="52.048606" lon="05.765951"><ele>49.5</ele><time>2022-04-12T15:01:48Z</time><name>PT2545</name></trkpt>
<trkpt lat="52.048596" lon="05.765937"><ele>49.3</ele><time>2022-04-12T15:01:49Z</time><name>PT2546</name></trkpt>
<trkpt lat="52.048586" lon="05.765922"><ele>49.3</ele><time>2022-04-12T15:01:50Z</time><name>PT2547</name></trkpt>
<trkpt lat="52.048577" lon="05.765909"><ele>49.4</ele><time>2022-04-12T15:01:52Z</time><name>PT2548</name></trkpt>
<trkpt lat="52.048567" lon="05.765898"><ele>49.5</ele><time>2022-04-12T15:01:52Z</time><name>PT2549</name></trkpt>
<trkpt lat="52.048564" lon="05.765888"><ele>49.4</ele><time>2022-04-12T15:01:54Z</time><name>PT2550</name></trkpt>
<trkpt lat="52.048556" lon="05.765869"><ele>49.5</ele><time>2022-04-12T15:01:54Z</time><name>PT2551</name></trkpt>
<trkpt lat="52.048544" lon="05.765858"><ele>49.6</ele><time>2022-04-12T15:01:56Z</time><name>PT2552</name></trkpt>
<trkpt lat="52.048537" lon="05.765843"><ele>49.6</ele><time>2022-04-12T15:01:56Z</time><name>PT2553</name></trkpt>
<trkpt lat="52.048532" lon="05.765832"><ele>49.6</ele><time>2022-04-12T15:01:57Z</time><name>PT2554</name></trkpt>
<trkpt lat="52.048526" lon="05.765824"><ele>49.6</ele><time>2022-04-12T15:01:58Z</time><name>PT2555</name></trkpt>
<trkpt lat="52.048520" lon="05.765809"><ele>49.6</ele><time>2022-04-12T15:01:59Z</time><name>PT2556</name></trkpt>
<trkpt lat="52.048519" lon="05.765793"><ele>49.5</ele><time>2022-04-12T15:02:00Z</time><name>PT2557</name></trkpt>
<trkpt lat="52.048522" lon="05.765781"><ele>49.7</ele><time>2022-04-12T15:02:01Z</time><name>PT2558</name></trkpt>
<trkpt lat="52.048517" lon="05.765765"><ele>49.7</ele><time>2022-04-12T15:02:02Z</time><name>PT2559</name></trkpt>
<trkpt lat="52.048514" lon="05.765744"><ele>49.8</ele><time>2022-04-12T15:02:03Z</time><name>PT2560</name></trkpt>
<trkpt lat="52.048513" lon="05.765735"><ele>49.9</ele><time>2022-04-12T15:02:04Z</time><name>PT2561</name></trkpt>
<trkpt lat="52.048512" lon="05.765729"><ele>50</ele><time>2022-04-12T15:02:05Z</time><name>PT2562</name></trkpt>
<trkpt lat="52.048509" lon="05.765726"><ele>50.1</ele><time>2022-04-12T15:02:06Z</time><name>PT2563</name></trkpt>
<trkpt lat="52.048503" lon="05.765713"><ele>50</ele><time>2022-04-12T15:02:07Z</time><name>PT2564</name></trkpt>
<trkpt lat="52.048498" lon="05.765698"><ele>50.1</ele><time>2022-04-12T15:02:08Z</time><name>PT2565</name></trkpt>
<trkpt lat="52.048499" lon="05.765683"><ele>49.9</ele><time>2022-04-12T15:02:09Z</time><name>PT2566</name></trkpt>
<trkpt lat="52.048494" lon="05.765669"><ele>49.8</ele><time>2022-04-12T15:02:10Z</time><name>PT2567</name></trkpt>
<trkpt lat="52.048485" lon="05.765652"><ele>49.9</ele><time>2022-04-12T15:02:11Z</time><name>PT2568</name></trkpt>
<trkpt lat="52.048478" lon="05.765641"><ele>49.9</ele><time>2022-04-12T15:02:12Z</time><name>PT2569</name></trkpt>
<trkpt lat="52.048473" lon="05.765630"><ele>49.7</ele><time>2022-04-12T15:02:13Z</time><name>PT2570</name></trkpt>
<trkpt lat="52.048464" lon="05.765627"><ele>49.7</ele><time>2022-04-12T15:02:14Z</time><name>PT2571</name></trkpt>
<trkpt lat="52.048464" lon="05.765622"><ele>49.6</ele><time>2022-04-12T15:02:15Z</time><name>PT2572</name></trkpt>
<trkpt lat="52.048461" lon="05.765609"><ele>49.5</ele><time>2022-04-12T15:02:16Z</time><name>PT2573</name></trkpt>
<trkpt lat="52.048454" lon="05.765597"><ele>49.5</ele><time>2022-04-12T15:02:17Z</time><name>PT2574</name></trkpt>
<trkpt lat="52.048447" lon="05.765586"><ele>49.6</ele><time>2022-04-12T15:02:18Z</time><name>PT2575</name></trkpt>
<trkpt lat="52.048437" lon="05.765573"><ele>49.6</ele><time>2022-04-12T15:02:19Z</time><name>PT2576</name></trkpt>
<trkpt lat="52.048432" lon="05.765558"><ele>49.7</ele><time>2022-04-12T15:02:20Z</time><name>PT2577</name></trkpt>
<trkpt lat="52.048423" lon="05.765544"><ele>49.7</ele><time>2022-04-12T15:02:21Z</time><name>PT2578</name></trkpt>
<trkpt lat="52.048415" lon="05.765539"><ele>49.7</ele><time>2022-04-12T15:02:22Z</time><name>PT2579</name></trkpt>
<trkpt lat="52.048413" lon="05.765538"><ele>49.9</ele><time>2022-04-12T15:02:23Z</time><name>PT2580</name></trkpt>
<trkpt lat="52.048412" lon="05.765544"><ele>49.8</ele><time>2022-04-12T15:02:24Z</time><name>PT2581</name></trkpt>
<trkpt lat="52.048411" lon="05.765543"><ele>50.2</ele><time>2022-04-12T15:02:25Z</time><name>PT2582</name></trkpt>
<trkpt lat="52.048412" lon="05.765515"><ele>50.6</ele><time>2022-04-12T15:02:32Z</time><name>PT2583</name></trkpt>
<trkpt lat="52.048410" lon="05.765520"><ele>50.5</ele><time>2022-04-12T15:02:33Z</time><name>PT2584</name></trkpt>
<trkpt lat="52.048402" lon="05.765511"><ele>50.6</ele><time>2022-04-12T15:02:34Z</time><name>PT2585</name></trkpt>
<trkpt lat="52.048398" lon="05.765499"><ele>50.6</ele><time>2022-04-12T15:02:35Z</time><name>PT2586</name></trkpt>
<trkpt lat="52.048395" lon="05.765502"><ele>50.7</ele><time>2022-04-12T15:02:36Z</time><name>PT2587</name></trkpt>
<trkpt lat="52.048392" lon="05.765496"><ele>50.4</ele><time>2022-04-12T15:03:18Z</time><name>PT2588</name></trkpt>
<trkpt lat="52.048388" lon="05.765485"><ele>50.4</ele><time>2022-04-12T15:03:19Z</time><name>PT2589</name></trkpt>
<trkpt lat="52.048385" lon="05.765474"><ele>50.3</ele><time>2022-04-12T15:03:20Z</time><name>PT2590</name></trkpt>
<trkpt lat="52.048376" lon="05.765472"><ele>50.2</ele><time>2022-04-12T15:03:21Z</time><name>PT2591</name></trkpt>
<trkpt lat="52.048369" lon="05.765465"><ele>50.2</ele><time>2022-04-12T15:03:22Z</time><name>PT2592</name></trkpt>
<trkpt lat="52.048360" lon="05.765453"><ele>50.2</ele><time>2022-04-12T15:03:23Z</time><name>PT2593</name></trkpt>
<trkpt lat="52.048356" lon="05.765442"><ele>50.2</ele><time>2022-04-12T15:03:24Z</time><name>PT2594</name></trkpt>
<trkpt lat="52.048349" lon="05.765434"><ele>50.3</ele><time>2022-04-12T15:03:25Z</time><name>PT2595</name></trkpt>
<trkpt lat="52.048339" lon="05.765423"><ele>50.3</ele><time>2022-04-12T15:03:26Z</time><name>PT2596</name></trkpt>
<trkpt lat="52.048330" lon="05.765417"><ele>50.5</ele><time>2022-04-12T15:03:27Z</time><name>PT2597</name></trkpt>
<trkpt lat="52.048321" lon="05.765416"><ele>50.6</ele><time>2022-04-12T15:03:28Z</time><name>PT2598</name></trkpt>
<trkpt lat="52.048316" lon="05.765409"><ele>50.7</ele><time>2022-04-12T15:03:29Z</time><name>PT2599</name></trkpt>
<trkpt lat="52.048309" lon="05.765401"><ele>50.8</ele><time>2022-04-12T15:03:30Z</time><name>PT2600</name></trkpt>
<trkpt lat="52.048309" lon="05.765389"><ele>50.8</ele><time>2022-04-12T15:03:31Z</time><name>PT2601</name></trkpt>
<trkpt lat="52.048305" lon="05.765390"><ele>50.8</ele><time>2022-04-12T15:03:32Z</time><name>PT2602</name></trkpt>
<trkpt lat="52.048302" lon="05.765399"><ele>50.8</ele><time>2022-04-12T15:03:33Z</time><name>PT2603</name></trkpt>
<trkpt lat="52.048300" lon="05.765402"><ele>50.7</ele><time>2022-04-12T15:03:34Z</time><name>PT2604</name></trkpt>
<trkpt lat="52.048297" lon="05.765412"><ele>50.7</ele><time>2022-04-12T15:03:35Z</time><name>PT2605</name></trkpt>
<trkpt lat="52.048296" lon="05.765409"><ele>50.7</ele><time>2022-04-12T15:03:36Z</time><name>PT2606</name></trkpt>
<trkpt lat="52.048298" lon="05.765398"><ele>50.8</ele><time>2022-04-12T15:03:37Z</time><name>PT2607</name></trkpt>
<trkpt lat="52.048298" lon="05.765386"><ele>50.8</ele><time>2022-04-12T15:03:38Z</time><name>PT2608</name></trkpt>
<trkpt lat="52.048297" lon="05.765370"><ele>50.8</ele><time>2022-04-12T15:03:39Z</time><name>PT2609</name></trkpt>
<trkpt lat="52.048295" lon="05.765362"><ele>50.8</ele><time>2022-04-12T15:03:40Z</time><name>PT2610</name></trkpt>
<trkpt lat="52.048296" lon="05.765358"><ele>50.9</ele><time>2022-04-12T15:03:41Z</time><name>PT2611</name></trkpt>
<trkpt lat="52.048300" lon="05.765354"><ele>50.9</ele><time>2022-04-12T15:03:42Z</time><name>PT2612</name></trkpt>
<trkpt lat="52.048298" lon="05.765340"><ele>50.8</ele><time>2022-04-12T15:03:43Z</time><name>PT2613</name></trkpt>
<trkpt lat="52.048293" lon="05.765337"><ele>50.8</ele><time>2022-04-12T15:03:44Z</time><name>PT2614</name></trkpt>
<trkpt lat="52.048294" lon="05.765343"><ele>50.7</ele><time>2022-04-12T15:03:45Z</time><name>PT2615</name></trkpt>
<trkpt lat="52.048292" lon="05.765342"><ele>50.7</ele><time>2022-04-12T15:03:46Z</time><name>PT2616</name></trkpt>
<trkpt lat="52.048292" lon="05.765346"><ele>50.7</ele><time>2022-04-12T15:03:47Z</time><name>PT2617</name></trkpt>
<trkpt lat="52.048292" lon="05.765345"><ele>50.7</ele><time>2022-04-12T15:03:48Z</time><name>PT2618</name></trkpt>
<trkpt lat="52.048295" lon="05.765344"><ele>50.7</ele><time>2022-04-12T15:03:49Z</time><name>PT2619</name></trkpt>
<trkpt lat="52.048295" lon="05.765344"><ele>50.7</ele><time>2022-04-12T15:03:50Z</time><name>PT2620</name></trkpt>
<trkpt lat="52.048296" lon="05.765343"><ele>50.8</ele><time>2022-04-12T15:03:51Z</time><name>PT2621</name></trkpt>
<trkpt lat="52.048299" lon="05.765339"><ele>50.7</ele><time>2022-04-12T15:03:55Z</time><name>PT2622</name></trkpt>
<trkpt lat="52.048298" lon="05.765336"><ele>50.7</ele><time>2022-04-12T15:03:56Z</time><name>PT2623</name></trkpt>
<trkpt lat="52.048299" lon="05.765334"><ele>50.7</ele><time>2022-04-12T15:03:57Z</time><name>PT2624</name></trkpt>
<trkpt lat="52.048293" lon="05.765327"><ele>50.7</ele><time>2022-04-12T15:03:58Z</time><name>PT2625</name></trkpt>
<trkpt lat="52.048285" lon="05.765321"><ele>50.7</ele><time>2022-04-12T15:03:59Z</time><name>PT2626</name></trkpt>
<trkpt lat="52.048278" lon="05.765300"><ele>50.8</ele><time>2022-04-12T15:04:00Z</time><name>PT2627</name></trkpt>
<trkpt lat="52.048266" lon="05.765289"><ele>51</ele><time>2022-04-12T15:04:01Z</time><name>PT2628</name></trkpt>
<trkpt lat="52.048253" lon="05.765281"><ele>51.3</ele><time>2022-04-12T15:04:02Z</time><name>PT2629</name></trkpt>
<trkpt lat="52.048240" lon="05.765273"><ele>51.4</ele><time>2022-04-12T15:04:03Z</time><name>PT2630</name></trkpt>
<trkpt lat="52.048232" lon="05.765264"><ele>51.7</ele><time>2022-04-12T15:04:04Z</time><name>PT2631</name></trkpt>
<trkpt lat="52.048224" lon="05.765260"><ele>51.7</ele><time>2022-04-12T15:04:05Z</time><name>PT2632</name></trkpt>
<trkpt lat="52.048210" lon="05.765248"><ele>51.6</ele><time>2022-04-12T15:04:06Z</time><name>PT2633</name></trkpt>
<trkpt lat="52.048204" lon="05.765243"><ele>51.6</ele><time>2022-04-12T15:04:07Z</time><name>PT2634</name></trkpt>
<trkpt lat="52.048202" lon="05.765238"><ele>51.6</ele><time>2022-04-12T15:04:08Z</time><name>PT2635</name></trkpt>
<trkpt lat="52.048201" lon="05.765239"><ele>51.6</ele><time>2022-04-12T15:04:09Z</time><name>PT2636</name></trkpt>
<trkpt lat="52.048199" lon="05.765239"><ele>51.7</ele><time>2022-04-12T15:04:10Z</time><name>PT2637</name></trkpt>
<trkpt lat="52.048197" lon="05.765240"><ele>51.7</ele><time>2022-04-12T15:04:12Z</time><name>PT2638</name></trkpt>
<trkpt lat="52.048184" lon="05.765234"><ele>51.7</ele><time>2022-04-12T15:04:13Z</time><name>PT2639</name></trkpt>
<trkpt lat="52.048173" lon="05.765226"><ele>51.4</ele><time>2022-04-12T15:04:14Z</time><name>PT2640</name></trkpt>
<trkpt lat="52.048160" lon="05.765220"><ele>51.4</ele><time>2022-04-12T15:04:15Z</time><name>PT2641</name></trkpt>
<trkpt lat="52.048151" lon="05.765209"><ele>51.2</ele><time>2022-04-12T15:04:16Z</time><name>PT2642</name></trkpt>
<trkpt lat="52.048144" lon="05.765200"><ele>51.2</ele><time>2022-04-12T15:04:17Z</time><name>PT2643</name></trkpt>
<trkpt lat="52.048138" lon="05.765199"><ele>51.1</ele><time>2022-04-12T15:04:18Z</time><name>PT2644</name></trkpt>
<trkpt lat="52.048129" lon="05.765195"><ele>50.9</ele><time>2022-04-12T15:04:19Z</time><name>PT2645</name></trkpt>
<trkpt lat="52.048115" lon="05.765191"><ele>51</ele><time>2022-04-12T15:04:20Z</time><name>PT2646</name></trkpt>
<trkpt lat="52.048101" lon="05.765180"><ele>51.1</ele><time>2022-04-12T15:04:21Z</time><name>PT2647</name></trkpt>
<trkpt lat="52.048092" lon="05.765170"><ele>50.8</ele><time>2022-04-12T15:04:22Z</time><name>PT2648</name></trkpt>
<trkpt lat="52.048088" lon="05.765163"><ele>50.9</ele><time>2022-04-12T15:04:23Z</time><name>PT2649</name></trkpt>
<trkpt lat="52.048080" lon="05.765159"><ele>50.9</ele><time>2022-04-12T15:04:24Z</time><name>PT2650</name></trkpt>
<trkpt lat="52.048072" lon="05.765156"><ele>50.9</ele><time>2022-04-12T15:04:25Z</time><name>PT2651</name></trkpt>
<trkpt lat="52.048064" lon="05.765159"><ele>50.9</ele><time>2022-04-12T15:04:26Z</time><name>PT2652</name></trkpt>
<trkpt lat="52.048057" lon="05.765154"><ele>51.2</ele><time>2022-04-12T15:04:27Z</time><name>PT2653</name></trkpt>
<trkpt lat="52.048052" lon="05.765148"><ele>51.2</ele><time>2022-04-12T15:04:28Z</time><name>PT2654</name></trkpt>
<trkpt lat="52.048046" lon="05.765145"><ele>51.3</ele><time>2022-04-12T15:04:29Z</time><name>PT2655</name></trkpt>
<trkpt lat="52.048034" lon="05.765138"><ele>51.3</ele><time>2022-04-12T15:04:30Z</time><name>PT2656</name></trkpt>
<trkpt lat="52.048025" lon="05.765136"><ele>51.3</ele><time>2022-04-12T15:04:31Z</time><name>PT2657</name></trkpt>
<trkpt lat="52.048017" lon="05.765129"><ele>51.2</ele><time>2022-04-12T15:04:32Z</time><name>PT2658</name></trkpt>
<trkpt lat="52.048008" lon="05.765125"><ele>51.2</ele><time>2022-04-12T15:04:34Z</time><name>PT2659</name></trkpt>
<trkpt lat="52.047996" lon="05.765115"><ele>51.2</ele><time>2022-04-12T15:04:34Z</time><name>PT2660</name></trkpt>
<trkpt lat="52.047985" lon="05.765109"><ele>51.2</ele><time>2022-04-12T15:04:36Z</time><name>PT2661</name></trkpt>
<trkpt lat="52.047976" lon="05.765108"><ele>51.2</ele><time>2022-04-12T15:04:36Z</time><name>PT2662</name></trkpt>
<trkpt lat="52.047970" lon="05.765101"><ele>51.4</ele><time>2022-04-12T15:04:37Z</time><name>PT2663</name></trkpt>
<trkpt lat="52.047958" lon="05.765093"><ele>51.5</ele><time>2022-04-12T15:04:38Z</time><name>PT2664</name></trkpt>
<trkpt lat="52.047946" lon="05.765081"><ele>51.6</ele><time>2022-04-12T15:04:39Z</time><name>PT2665</name></trkpt>
<trkpt lat="52.047936" lon="05.765068"><ele>51.7</ele><time>2022-04-12T15:04:40Z</time><name>PT2666</name></trkpt>
<trkpt lat="52.047926" lon="05.765061"><ele>52</ele><time>2022-04-12T15:04:41Z</time><name>PT2667</name></trkpt>
<trkpt lat="52.047921" lon="05.765059"><ele>52</ele><time>2022-04-12T15:04:42Z</time><name>PT2668</name></trkpt>
<trkpt lat="52.047912" lon="05.765049"><ele>52.1</ele><time>2022-04-12T15:04:44Z</time><name>PT2669</name></trkpt>
<trkpt lat="52.047903" lon="05.765036"><ele>52.2</ele><time>2022-04-12T15:04:44Z</time><name>PT2670</name></trkpt>
<trkpt lat="52.047902" lon="05.765030"><ele>52.2</ele><time>2022-04-12T15:04:46Z</time><name>PT2671</name></trkpt>
<trkpt lat="52.047893" lon="05.765025"><ele>52.2</ele><time>2022-04-12T15:04:46Z</time><name>PT2672</name></trkpt>
<trkpt lat="52.047885" lon="05.765022"><ele>52.2</ele><time>2022-04-12T15:04:47Z</time><name>PT2673</name></trkpt>
<trkpt lat="52.047875" lon="05.765015"><ele>52.2</ele><time>2022-04-12T15:04:48Z</time><name>PT2674</name></trkpt>
<trkpt lat="52.047859" lon="05.765011"><ele>52.2</ele><time>2022-04-12T15:04:49Z</time><name>PT2675</name></trkpt>
<trkpt lat="52.047845" lon="05.765006"><ele>52.2</ele><time>2022-04-12T15:04:50Z</time><name>PT2676</name></trkpt>
<trkpt lat="52.047835" lon="05.765004"><ele>52.1</ele><time>2022-04-12T15:04:51Z</time><name>PT2677</name></trkpt>
<trkpt lat="52.047826" lon="05.764999"><ele>52.2</ele><time>2022-04-12T15:04:52Z</time><name>PT2678</name></trkpt>
<trkpt lat="52.047814" lon="05.764993"><ele>52.2</ele><time>2022-04-12T15:04:54Z</time><name>PT2679</name></trkpt>
<trkpt lat="52.047800" lon="05.764996"><ele>52.1</ele><time>2022-04-12T15:04:54Z</time><name>PT2680</name></trkpt>
<trkpt lat="52.047793" lon="05.764997"><ele>52.2</ele><time>2022-04-12T15:04:55Z</time><name>PT2681</name></trkpt>
<trkpt lat="52.047785" lon="05.764995"><ele>52.2</ele><time>2022-04-12T15:04:56Z</time><name>PT2682</name></trkpt>
<trkpt lat="52.047774" lon="05.764994"><ele>52.3</ele><time>2022-04-12T15:04:57Z</time><name>PT2683</name></trkpt>
<trkpt lat="52.047769" lon="05.764985"><ele>52.4</ele><time>2022-04-12T15:04:58Z</time><name>PT2684</name></trkpt>
<trkpt lat="52.047769" lon="05.764977"><ele>52.6</ele><time>2022-04-12T15:04:59Z</time><name>PT2685</name></trkpt>
<trkpt lat="52.047756" lon="05.764963"><ele>52.6</ele><time>2022-04-12T15:05:00Z</time><name>PT2686</name></trkpt>
<trkpt lat="52.047741" lon="05.764953"><ele>52.6</ele><time>2022-04-12T15:05:01Z</time><name>PT2687</name></trkpt>
<trkpt lat="52.047727" lon="05.764945"><ele>52.7</ele><time>2022-04-12T15:05:02Z</time><name>PT2688</name></trkpt>
<trkpt lat="52.047715" lon="05.764936"><ele>52.5</ele><time>2022-04-12T15:05:04Z</time><name>PT2689</name></trkpt>
<trkpt lat="52.047709" lon="05.764930"><ele>52.5</ele><time>2022-04-12T15:05:04Z</time><name>PT2690</name></trkpt>
<trkpt lat="52.047698" lon="05.764919"><ele>52.6</ele><time>2022-04-12T15:05:06Z</time><name>PT2691</name></trkpt>
<trkpt lat="52.047686" lon="05.764903"><ele>52.7</ele><time>2022-04-12T15:05:06Z</time><name>PT2692</name></trkpt>
<trkpt lat="52.047677" lon="05.764897"><ele>52.7</ele><time>2022-04-12T15:05:07Z</time><name>PT2693</name></trkpt>
<trkpt lat="52.047670" lon="05.764900"><ele>52.8</ele><time>2022-04-12T15:05:08Z</time><name>PT2694</name></trkpt>
<trkpt lat="52.047664" lon="05.764899"><ele>53.2</ele><time>2022-04-12T15:05:09Z</time><name>PT2695</name></trkpt>
<trkpt lat="52.047656" lon="05.764891"><ele>53.2</ele><time>2022-04-12T15:05:10Z</time><name>PT2696</name></trkpt>
<trkpt lat="52.047649" lon="05.764883"><ele>53.2</ele><time>2022-04-12T15:05:11Z</time><name>PT2697</name></trkpt>
<trkpt lat="52.047640" lon="05.764876"><ele>53.2</ele><time>2022-04-12T15:05:12Z</time><name>PT2698</name></trkpt>
<trkpt lat="52.047628" lon="05.764869"><ele>53</ele><time>2022-04-12T15:05:14Z</time><name>PT2699</name></trkpt>
<trkpt lat="52.047615" lon="05.764862"><ele>52.8</ele><time>2022-04-12T15:05:14Z</time><name>PT2700</name></trkpt>
<trkpt lat="52.047605" lon="05.764852"><ele>52.6</ele><time>2022-04-12T15:05:16Z</time><name>PT2701</name></trkpt>
<trkpt lat="52.047595" lon="05.764849"><ele>52.6</ele><time>2022-04-12T15:05:16Z</time><name>PT2702</name></trkpt>
<trkpt lat="52.047590" lon="05.764851"><ele>52.6</ele><time>2022-04-12T15:05:17Z</time><name>PT2703</name></trkpt>
<trkpt lat="52.047584" lon="05.764855"><ele>52.5</ele><time>2022-04-12T15:05:18Z</time><name>PT2704</name></trkpt>
<trkpt lat="52.047580" lon="05.764857"><ele>52.7</ele><time>2022-04-12T15:05:19Z</time><name>PT2705</name></trkpt>
<trkpt lat="52.047580" lon="05.764849"><ele>52.7</ele><time>2022-04-12T15:05:20Z</time><name>PT2706</name></trkpt>
<trkpt lat="52.047578" lon="05.764845"><ele>52.8</ele><time>2022-04-12T15:05:21Z</time><name>PT2707</name></trkpt>
<trkpt lat="52.047574" lon="05.764839"><ele>52.6</ele><time>2022-04-12T15:05:22Z</time><name>PT2708</name></trkpt>
<trkpt lat="52.047571" lon="05.764835"><ele>52.5</ele><time>2022-04-12T15:05:24Z</time><name>PT2709</name></trkpt>
<trkpt lat="52.047558" lon="05.764823"><ele>52.5</ele><time>2022-04-12T15:05:24Z</time><name>PT2710</name></trkpt>
<trkpt lat="52.047545" lon="05.764814"><ele>52.4</ele><time>2022-04-12T15:05:25Z</time><name>PT2711</name></trkpt>
<trkpt lat="52.047534" lon="05.764808"><ele>52.4</ele><time>2022-04-12T15:05:26Z</time><name>PT2712</name></trkpt>
<trkpt lat="52.047521" lon="05.764802"><ele>52.6</ele><time>2022-04-12T15:05:27Z</time><name>PT2713</name></trkpt>
<trkpt lat="52.047511" lon="05.764794"><ele>52.8</ele><time>2022-04-12T15:05:28Z</time><name>PT2714</name></trkpt>
<trkpt lat="52.047496" lon="05.764769"><ele>52.8</ele><time>2022-04-12T15:05:29Z</time><name>PT2715</name></trkpt>
<trkpt lat="52.047483" lon="05.764753"><ele>52.7</ele><time>2022-04-12T15:05:30Z</time><name>PT2716</name></trkpt>
<trkpt lat="52.047471" lon="05.764748"><ele>52.6</ele><time>2022-04-12T15:05:31Z</time><name>PT2717</name></trkpt>
<trkpt lat="52.047464" lon="05.764748"><ele>52.6</ele><time>2022-04-12T15:05:32Z</time><name>PT2718</name></trkpt>
<trkpt lat="52.047457" lon="05.764744"><ele>52.3</ele><time>2022-04-12T15:05:33Z</time><name>PT2719</name></trkpt>
<trkpt lat="52.047446" lon="05.764741"><ele>52.4</ele><time>2022-04-12T15:05:34Z</time><name>PT2720</name></trkpt>
<trkpt lat="52.047440" lon="05.764732"><ele>52.2</ele><time>2022-04-12T15:05:35Z</time><name>PT2721</name></trkpt>
<trkpt lat="52.047434" lon="05.764721"><ele>52.2</ele><time>2022-04-12T15:05:36Z</time><name>PT2722</name></trkpt>
<trkpt lat="52.047434" lon="05.764711"><ele>52.2</ele><time>2022-04-12T15:05:37Z</time><name>PT2723</name></trkpt>
<trkpt lat="52.047422" lon="05.764701"><ele>52.2</ele><time>2022-04-12T15:05:38Z</time><name>PT2724</name></trkpt>
<trkpt lat="52.047410" lon="05.764688"><ele>52.1</ele><time>2022-04-12T15:05:39Z</time><name>PT2725</name></trkpt>
<trkpt lat="52.047394" lon="05.764665"><ele>52</ele><time>2022-04-12T15:05:40Z</time><name>PT2726</name></trkpt>
<trkpt lat="52.047387" lon="05.764650"><ele>52.2</ele><time>2022-04-12T15:05:41Z</time><name>PT2727</name></trkpt>
<trkpt lat="52.047380" lon="05.764641"><ele>52.2</ele><time>2022-04-12T15:05:42Z</time><name>PT2728</name></trkpt>
<trkpt lat="52.047375" lon="05.764632"><ele>52.3</ele><time>2022-04-12T15:05:43Z</time><name>PT2729</name></trkpt>
<trkpt lat="52.047369" lon="05.764618"><ele>52.2</ele><time>2022-04-12T15:05:44Z</time><name>PT2730</name></trkpt>
<trkpt lat="52.047367" lon="05.764603"><ele>52.3</ele><time>2022-04-12T15:05:46Z</time><name>PT2731</name></trkpt>
<trkpt lat="52.047362" lon="05.764585"><ele>52.2</ele><time>2022-04-12T15:05:46Z</time><name>PT2732</name></trkpt>
<trkpt lat="52.047358" lon="05.764571"><ele>52.1</ele><time>2022-04-12T15:05:47Z</time><name>PT2733</name></trkpt>
<trkpt lat="52.047352" lon="05.764563"><ele>52</ele><time>2022-04-12T15:05:48Z</time><name>PT2734</name></trkpt>
<trkpt lat="52.047349" lon="05.764552"><ele>51.9</ele><time>2022-04-12T15:05:49Z</time><name>PT2735</name></trkpt>
<trkpt lat="52.047339" lon="05.764538"><ele>51.9</ele><time>2022-04-12T15:05:50Z</time><name>PT2736</name></trkpt>
<trkpt lat="52.047332" lon="05.764520"><ele>51.9</ele><time>2022-04-12T15:05:51Z</time><name>PT2737</name></trkpt>
<trkpt lat="52.047323" lon="05.764502"><ele>52.1</ele><time>2022-04-12T15:05:52Z</time><name>PT2738</name></trkpt>
<trkpt lat="52.047313" lon="05.764488"><ele>52.2</ele><time>2022-04-12T15:05:53Z</time><name>PT2739</name></trkpt>
<trkpt lat="52.047305" lon="05.764478"><ele>52.1</ele><time>2022-04-12T15:05:54Z</time><name>PT2740</name></trkpt>
<trkpt lat="52.047299" lon="05.764469"><ele>52.2</ele><time>2022-04-12T15:05:55Z</time><name>PT2741</name></trkpt>
<trkpt lat="52.047290" lon="05.764456"><ele>52.3</ele><time>2022-04-12T15:05:56Z</time><name>PT2742</name></trkpt>
<trkpt lat="52.047276" lon="05.764442"><ele>52.4</ele><time>2022-04-12T15:05:57Z</time><name>PT2743</name></trkpt>
<trkpt lat="52.047261" lon="05.764438"><ele>52.4</ele><time>2022-04-12T15:05:58Z</time><name>PT2744</name></trkpt>
<trkpt lat="52.047254" lon="05.764429"><ele>52.4</ele><time>2022-04-12T15:05:59Z</time><name>PT2745</name></trkpt>
<trkpt lat="52.047247" lon="05.764414"><ele>52.4</ele><time>2022-04-12T15:06:00Z</time><name>PT2746</name></trkpt>
<trkpt lat="52.047239" lon="05.764405"><ele>52.2</ele><time>2022-04-12T15:06:01Z</time><name>PT2747</name></trkpt>
<trkpt lat="52.047229" lon="05.764394"><ele>52.2</ele><time>2022-04-12T15:06:02Z</time><name>PT2748</name></trkpt>
<trkpt lat="52.047215" lon="05.764374"><ele>52.3</ele><time>2022-04-12T15:06:03Z</time><name>PT2749</name></trkpt>
<trkpt lat="52.047208" lon="05.764362"><ele>52.2</ele><time>2022-04-12T15:06:04Z</time><name>PT2750</name></trkpt>
<trkpt lat="52.047205" lon="05.764350"><ele>52.2</ele><time>2022-04-12T15:06:05Z</time><name>PT2751</name></trkpt>
<trkpt lat="52.047196" lon="05.764341"><ele>52.3</ele><time>2022-04-12T15:06:06Z</time><name>PT2752</name></trkpt>
<trkpt lat="52.047186" lon="05.764333"><ele>52.2</ele><time>2022-04-12T15:06:07Z</time><name>PT2753</name></trkpt>
<trkpt lat="52.047173" lon="05.764324"><ele>52.2</ele><time>2022-04-12T15:06:08Z</time><name>PT2754</name></trkpt>
<trkpt lat="52.047160" lon="05.764316"><ele>52.2</ele><time>2022-04-12T15:06:09Z</time><name>PT2755</name></trkpt>
<trkpt lat="52.047151" lon="05.764305"><ele>52.2</ele><time>2022-04-12T15:06:10Z</time><name>PT2756</name></trkpt>
<trkpt lat="52.047145" lon="05.764298"><ele>52.2</ele><time>2022-04-12T15:06:11Z</time><name>PT2757</name></trkpt>
<trkpt lat="52.047137" lon="05.764293"><ele>52.2</ele><time>2022-04-12T15:06:12Z</time><name>PT2758</name></trkpt>
<trkpt lat="52.047129" lon="05.764289"><ele>52.2</ele><time>2022-04-12T15:06:13Z</time><name>PT2759</name></trkpt>
<trkpt lat="52.047118" lon="05.764270"><ele>52.2</ele><time>2022-04-12T15:06:14Z</time><name>PT2760</name></trkpt>
<trkpt lat="52.047108" lon="05.764254"><ele>52.2</ele><time>2022-04-12T15:06:15Z</time><name>PT2761</name></trkpt>
<trkpt lat="52.047102" lon="05.764241"><ele>52</ele><time>2022-04-12T15:06:16Z</time><name>PT2762</name></trkpt>
<trkpt lat="52.047095" lon="05.764229"><ele>52</ele><time>2022-04-12T15:06:17Z</time><name>PT2763</name></trkpt>
<trkpt lat="52.047088" lon="05.764221"><ele>52</ele><time>2022-04-12T15:06:18Z</time><name>PT2764</name></trkpt>
<trkpt lat="52.047079" lon="05.764208"><ele>51.7</ele><time>2022-04-12T15:06:19Z</time><name>PT2765</name></trkpt>
<trkpt lat="52.047070" lon="05.764199"><ele>51.7</ele><time>2022-04-12T15:06:20Z</time><name>PT2766</name></trkpt>
<trkpt lat="52.047066" lon="05.764197"><ele>51.6</ele><time>2022-04-12T15:06:21Z</time><name>PT2767</name></trkpt>
<trkpt lat="52.047059" lon="05.764202"><ele>51.4</ele><time>2022-04-12T15:06:22Z</time><name>PT2768</name></trkpt>
<trkpt lat="52.047051" lon="05.764195"><ele>51.2</ele><time>2022-04-12T15:06:23Z</time><name>PT2769</name></trkpt>
<trkpt lat="52.047051" lon="05.764188"><ele>51.1</ele><time>2022-04-12T15:06:24Z</time><name>PT2770</name></trkpt>
<trkpt lat="52.047052" lon="05.764188"><ele>51</ele><time>2022-04-12T15:06:25Z</time><name>PT2771</name></trkpt>
<trkpt lat="52.047045" lon="05.764168"><ele>51.5</ele><time>2022-04-12T15:06:34Z</time><name>PT2772</name></trkpt>
<trkpt lat="52.047042" lon="05.764155"><ele>51.8</ele><time>2022-04-12T15:06:35Z</time><name>PT2773</name></trkpt>
<trkpt lat="52.047038" lon="05.764135"><ele>52</ele><time>2022-04-12T15:06:36Z</time><name>PT2774</name></trkpt>
<trkpt lat="52.047034" lon="05.764124"><ele>52</ele><time>2022-04-12T15:06:37Z</time><name>PT2775</name></trkpt>
<trkpt lat="52.047023" lon="05.764113"><ele>52</ele><time>2022-04-12T15:06:38Z</time><name>PT2776</name></trkpt>
<trkpt lat="52.047013" lon="05.764112"><ele>51.9</ele><time>2022-04-12T15:06:39Z</time><name>PT2777</name></trkpt>
<trkpt lat="52.047011" lon="05.764102"><ele>51.8</ele><time>2022-04-12T15:06:40Z</time><name>PT2778</name></trkpt>
<trkpt lat="52.047004" lon="05.764094"><ele>51.7</ele><time>2022-04-12T15:06:41Z</time><name>PT2779</name></trkpt>
<trkpt lat="52.046989" lon="05.764080"><ele>51.8</ele><time>2022-04-12T15:06:42Z</time><name>PT2780</name></trkpt>
<trkpt lat="52.046972" lon="05.764061"><ele>51.7</ele><time>2022-04-12T15:06:43Z</time><name>PT2781</name></trkpt>
<trkpt lat="52.046965" lon="05.764048"><ele>51.7</ele><time>2022-04-12T15:06:44Z</time><name>PT2782</name></trkpt>
<trkpt lat="52.046955" lon="05.764045"><ele>51.7</ele><time>2022-04-12T15:06:45Z</time><name>PT2783</name></trkpt>
<trkpt lat="52.046948" lon="05.764041"><ele>51.7</ele><time>2022-04-12T15:06:46Z</time><name>PT2784</name></trkpt>
<trkpt lat="52.046936" lon="05.764030"><ele>51.7</ele><time>2022-04-12T15:06:47Z</time><name>PT2785</name></trkpt>
<trkpt lat="52.046929" lon="05.764022"><ele>51.8</ele><time>2022-04-12T15:06:48Z</time><name>PT2786</name></trkpt>
<trkpt lat="52.046922" lon="05.764012"><ele>52</ele><time>2022-04-12T15:06:50Z</time><name>PT2787</name></trkpt>
<trkpt lat="52.046916" lon="05.763996"><ele>52.1</ele><time>2022-04-12T15:06:50Z</time><name>PT2788</name></trkpt>
<trkpt lat="52.046912" lon="05.763988"><ele>52.1</ele><time>2022-04-12T15:06:52Z</time><name>PT2789</name></trkpt>
<trkpt lat="52.046905" lon="05.763979"><ele>52.1</ele><time>2022-04-12T15:06:52Z</time><name>PT2790</name></trkpt>
<trkpt lat="52.046902" lon="05.763969"><ele>52</ele><time>2022-04-12T15:06:53Z</time><name>PT2791</name></trkpt>
<trkpt lat="52.046900" lon="05.763957"><ele>52</ele><time>2022-04-12T15:06:54Z</time><name>PT2792</name></trkpt>
<trkpt lat="52.046896" lon="05.763947"><ele>52</ele><time>2022-04-12T15:06:55Z</time><name>PT2793</name></trkpt>
<trkpt lat="52.046883" lon="05.763939"><ele>52.1</ele><time>2022-04-12T15:06:56Z</time><name>PT2794</name></trkpt>
<trkpt lat="52.046872" lon="05.763933"><ele>52.2</ele><time>2022-04-12T15:06:57Z</time><name>PT2795</name></trkpt>
<trkpt lat="52.046862" lon="05.763923"><ele>52.2</ele><time>2022-04-12T15:06:58Z</time><name>PT2796</name></trkpt>
<trkpt lat="52.046854" lon="05.763910"><ele>52.4</ele><time>2022-04-12T15:06:59Z</time><name>PT2797</name></trkpt>
<trkpt lat="52.046845" lon="05.763896"><ele>52.2</ele><time>2022-04-12T15:07:00Z</time><name>PT2798</name></trkpt>
<trkpt lat="52.046838" lon="05.763883"><ele>52.5</ele><time>2022-04-12T15:07:01Z</time><name>PT2799</name></trkpt>
<trkpt lat="52.046833" lon="05.763869"><ele>52.5</ele><time>2022-04-12T15:07:02Z</time><name>PT2800</name></trkpt>
<trkpt lat="52.046824" lon="05.763853"><ele>52.4</ele><time>2022-04-12T15:07:03Z</time><name>PT2801</name></trkpt>
<trkpt lat="52.046815" lon="05.763836"><ele>52.5</ele><time>2022-04-12T15:07:04Z</time><name>PT2802</name></trkpt>
<trkpt lat="52.046813" lon="05.763823"><ele>52.7</ele><time>2022-04-12T15:07:05Z</time><name>PT2803</name></trkpt>
<trkpt lat="52.046809" lon="05.763812"><ele>52.7</ele><time>2022-04-12T15:07:06Z</time><name>PT2804</name></trkpt>
<trkpt lat="52.046805" lon="05.763802"><ele>52.6</ele><time>2022-04-12T15:07:07Z</time><name>PT2805</name></trkpt>
<trkpt lat="52.046800" lon="05.763782"><ele>52.8</ele><time>2022-04-12T15:07:08Z</time><name>PT2806</name></trkpt>
<trkpt lat="52.046796" lon="05.763762"><ele>52.7</ele><time>2022-04-12T15:07:09Z</time><name>PT2807</name></trkpt>
<trkpt lat="52.046793" lon="05.763749"><ele>52.5</ele><time>2022-04-12T15:07:10Z</time><name>PT2808</name></trkpt>
<trkpt lat="52.046791" lon="05.763733"><ele>52.6</ele><time>2022-04-12T15:07:11Z</time><name>PT2809</name></trkpt>
<trkpt lat="52.046787" lon="05.763722"><ele>52.5</ele><time>2022-04-12T15:07:12Z</time><name>PT2810</name></trkpt>
<trkpt lat="52.046778" lon="05.763704"><ele>52.4</ele><time>2022-04-12T15:07:13Z</time><name>PT2811</name></trkpt>
<trkpt lat="52.046774" lon="05.763682"><ele>52.5</ele><time>2022-04-12T15:07:14Z</time><name>PT2812</name></trkpt>
<trkpt lat="52.046771" lon="05.763662"><ele>52.5</ele><time>2022-04-12T15:07:15Z</time><name>PT2813</name></trkpt>
<trkpt lat="52.046768" lon="05.763641"><ele>52.4</ele><time>2022-04-12T15:07:16Z</time><name>PT2814</name></trkpt>
<trkpt lat="52.046765" lon="05.763624"><ele>52.1</ele><time>2022-04-12T15:07:18Z</time><name>PT2815</name></trkpt>
<trkpt lat="52.046762" lon="05.763612"><ele>52.1</ele><time>2022-04-12T15:07:18Z</time><name>PT2816</name></trkpt>
<trkpt lat="52.046761" lon="05.763601"><ele>51.8</ele><time>2022-04-12T15:07:20Z</time><name>PT2817</name></trkpt>
<trkpt lat="52.046755" lon="05.763583"><ele>51.9</ele><time>2022-04-12T15:07:20Z</time><name>PT2818</name></trkpt>
<trkpt lat="52.046749" lon="05.763570"><ele>51.8</ele><time>2022-04-12T15:07:21Z</time><name>PT2819</name></trkpt>
<trkpt lat="52.046743" lon="05.763563"><ele>51.9</ele><time>2022-04-12T15:07:22Z</time><name>PT2820</name></trkpt>
<trkpt lat="52.046740" lon="05.763557"><ele>51.8</ele><time>2022-04-12T15:07:24Z</time><name>PT2821</name></trkpt>
<trkpt lat="52.046735" lon="05.763550"><ele>51.8</ele><time>2022-04-12T15:07:24Z</time><name>PT2822</name></trkpt>
<trkpt lat="52.046731" lon="05.763543"><ele>51.7</ele><time>2022-04-12T15:07:26Z</time><name>PT2823</name></trkpt>
<trkpt lat="52.046731" lon="05.763535"><ele>51.7</ele><time>2022-04-12T15:07:26Z</time><name>PT2824</name></trkpt>
<trkpt lat="52.046730" lon="05.763520"><ele>51.6</ele><time>2022-04-12T15:07:28Z</time><name>PT2825</name></trkpt>
<trkpt lat="52.046730" lon="05.763504"><ele>51.5</ele><time>2022-04-12T15:07:28Z</time><name>PT2826</name></trkpt>
<trkpt lat="52.046729" lon="05.763495"><ele>51.5</ele><time>2022-04-12T15:07:30Z</time><name>PT2827</name></trkpt>
<trkpt lat="52.046727" lon="05.763481"><ele>51.4</ele><time>2022-04-12T15:07:30Z</time><name>PT2828</name></trkpt>
<trkpt lat="52.046726" lon="05.763465"><ele>51.2</ele><time>2022-04-12T15:07:31Z</time><name>PT2829</name></trkpt>
<trkpt lat="52.046726" lon="05.763450"><ele>51.2</ele><time>2022-04-12T15:07:32Z</time><name>PT2830</name></trkpt>
<trkpt lat="52.046727" lon="05.763440"><ele>51.2</ele><time>2022-04-12T15:07:33Z</time><name>PT2831</name></trkpt>
<trkpt lat="52.046726" lon="05.763432"><ele>51.1</ele><time>2022-04-12T15:07:34Z</time><name>PT2832</name></trkpt>
<trkpt lat="52.046726" lon="05.763425"><ele>51</ele><time>2022-04-12T15:07:35Z</time><name>PT2833</name></trkpt>
<trkpt lat="52.046725" lon="05.763425"><ele>51</ele><time>2022-04-12T15:07:36Z</time><name>PT2834</name></trkpt>
<trkpt lat="52.046722" lon="05.763413"><ele>50.7</ele><time>2022-04-12T15:07:37Z</time><name>PT2835</name></trkpt>
<trkpt lat="52.046720" lon="05.763400"><ele>50.7</ele><time>2022-04-12T15:07:38Z</time><name>PT2836</name></trkpt>
<trkpt lat="52.046717" lon="05.763387"><ele>50.7</ele><time>2022-04-12T15:07:39Z</time><name>PT2837</name></trkpt>
<trkpt lat="52.046715" lon="05.763378"><ele>50.6</ele><time>2022-04-12T15:07:40Z</time><name>PT2838</name></trkpt>
<trkpt lat="52.046707" lon="05.763364"><ele>50.7</ele><time>2022-04-12T15:07:41Z</time><name>PT2839</name></trkpt>
<trkpt lat="52.046709" lon="05.763346"><ele>50.8</ele><time>2022-04-12T15:07:42Z</time><name>PT2840</name></trkpt>
<trkpt lat="52.046710" lon="05.763334"><ele>51</ele><time>2022-04-12T15:07:43Z</time><name>PT2841</name></trkpt>
<trkpt lat="52.046709" lon="05.763321"><ele>50.8</ele><time>2022-04-12T15:07:44Z</time><name>PT2842</name></trkpt>
<trkpt lat="52.046706" lon="05.763307"><ele>50.7</ele><time>2022-04-12T15:07:45Z</time><name>PT2843</name></trkpt>
<trkpt lat="52.046700" lon="05.763293"><ele>50.7</ele><time>2022-04-12T15:07:46Z</time><name>PT2844</name></trkpt>
<trkpt lat="52.046698" lon="05.763281"><ele>50.5</ele><time>2022-04-12T15:07:47Z</time><name>PT2845</name></trkpt>
<trkpt lat="52.046697" lon="05.763268"><ele>50.4</ele><time>2022-04-12T15:07:48Z</time><name>PT2846</name></trkpt>
<trkpt lat="52.046695" lon="05.763251"><ele>50.5</ele><time>2022-04-12T15:07:49Z</time><name>PT2847</name></trkpt>
<trkpt lat="52.046689" lon="05.763232"><ele>50.4</ele><time>2022-04-12T15:07:50Z</time><name>PT2848</name></trkpt>
<trkpt lat="52.046685" lon="05.763218"><ele>50.4</ele><time>2022-04-12T15:07:51Z</time><name>PT2849</name></trkpt>
<trkpt lat="52.046683" lon="05.763204"><ele>50.5</ele><time>2022-04-12T15:07:52Z</time><name>PT2850</name></trkpt>
<trkpt lat="52.046685" lon="05.763198"><ele>50.5</ele><time>2022-04-12T15:07:53Z</time><name>PT2851</name></trkpt>
<trkpt lat="52.046683" lon="05.763183"><ele>50.5</ele><time>2022-04-12T15:07:54Z</time><name>PT2852</name></trkpt>
<trkpt lat="52.046681" lon="05.763172"><ele>50.5</ele><time>2022-04-12T15:07:55Z</time><name>PT2853</name></trkpt>
<trkpt lat="52.046680" lon="05.763161"><ele>50.5</ele><time>2022-04-12T15:07:56Z</time><name>PT2854</name></trkpt>
<trkpt lat="52.046678" lon="05.763147"><ele>50.4</ele><time>2022-04-12T15:07:57Z</time><name>PT2855</name></trkpt>
<trkpt lat="52.046677" lon="05.763137"><ele>50.5</ele><time>2022-04-12T15:07:58Z</time><name>PT2856</name></trkpt>
<trkpt lat="52.046674" lon="05.763122"><ele>50.5</ele><time>2022-04-12T15:07:59Z</time><name>PT2857</name></trkpt>
<trkpt lat="52.046670" lon="05.763108"><ele>50.6</ele><time>2022-04-12T15:08:00Z</time><name>PT2858</name></trkpt>
<trkpt lat="52.046668" lon="05.763094"><ele>50.4</ele><time>2022-04-12T15:08:01Z</time><name>PT2859</name></trkpt>
<trkpt lat="52.046669" lon="05.763077"><ele>50.5</ele><time>2022-04-12T15:08:02Z</time><name>PT2860</name></trkpt>
<trkpt lat="52.046666" lon="05.763064"><ele>50.5</ele><time>2022-04-12T15:08:03Z</time><name>PT2861</name></trkpt>
<trkpt lat="52.046663" lon="05.763049"><ele>50.4</ele><time>2022-04-12T15:08:04Z</time><name>PT2862</name></trkpt>
<trkpt lat="52.046661" lon="05.763035"><ele>50.5</ele><time>2022-04-12T15:08:05Z</time><name>PT2863</name></trkpt>
<trkpt lat="52.046659" lon="05.763022"><ele>50.5</ele><time>2022-04-12T15:08:06Z</time><name>PT2864</name></trkpt>
<trkpt lat="52.046666" lon="05.763001"><ele>50.2</ele><time>2022-04-12T15:08:07Z</time><name>PT2865</name></trkpt>
<trkpt lat="52.046663" lon="05.762975"><ele>50.1</ele><time>2022-04-12T15:08:08Z</time><name>PT2866</name></trkpt>
<trkpt lat="52.046659" lon="05.762957"><ele>50.2</ele><time>2022-04-12T15:08:09Z</time><name>PT2867</name></trkpt>
<trkpt lat="52.046652" lon="05.762944"><ele>50.3</ele><time>2022-04-12T15:08:10Z</time><name>PT2868</name></trkpt>
<trkpt lat="52.046643" lon="05.762933"><ele>50.3</ele><time>2022-04-12T15:08:11Z</time><name>PT2869</name></trkpt>
<trkpt lat="52.046635" lon="05.762923"><ele>50.4</ele><time>2022-04-12T15:08:12Z</time><name>PT2870</name></trkpt>
<trkpt lat="52.046629" lon="05.762917"><ele>50.6</ele><time>2022-04-12T15:08:13Z</time><name>PT2871</name></trkpt>
<trkpt lat="52.046620" lon="05.762910"><ele>50.6</ele><time>2022-04-12T15:08:14Z</time><name>PT2872</name></trkpt>
<trkpt lat="52.046609" lon="05.762903"><ele>50.4</ele><time>2022-04-12T15:08:15Z</time><name>PT2873</name></trkpt>
<trkpt lat="52.046601" lon="05.762896"><ele>50.4</ele><time>2022-04-12T15:08:16Z</time><name>PT2874</name></trkpt>
<trkpt lat="52.046594" lon="05.762893"><ele>50.6</ele><time>2022-04-12T15:08:17Z</time><name>PT2875</name></trkpt>
<trkpt lat="52.046584" lon="05.762885"><ele>50.5</ele><time>2022-04-12T15:08:18Z</time><name>PT2876</name></trkpt>
<trkpt lat="52.046576" lon="05.762882"><ele>50.6</ele><time>2022-04-12T15:08:19Z</time><name>PT2877</name></trkpt>
<trkpt lat="52.046570" lon="05.762880"><ele>50.7</ele><time>2022-04-12T15:08:20Z</time><name>PT2878</name></trkpt>
<trkpt lat="52.046565" lon="05.762879"><ele>50.6</ele><time>2022-04-12T15:08:21Z</time><name>PT2879</name></trkpt>
<trkpt lat="52.046555" lon="05.762878"><ele>50.3</ele><time>2022-04-12T15:08:22Z</time><name>PT2880</name></trkpt>
<trkpt lat="52.046542" lon="05.762875"><ele>50.4</ele><time>2022-04-12T15:08:23Z</time><name>PT2881</name></trkpt>
<trkpt lat="52.046534" lon="05.762875"><ele>50.2</ele><time>2022-04-12T15:08:24Z</time><name>PT2882</name></trkpt>
<trkpt lat="52.046527" lon="05.762878"><ele>50.2</ele><time>2022-04-12T15:08:25Z</time><name>PT2883</name></trkpt>
<trkpt lat="52.046516" lon="05.762876"><ele>50.3</ele><time>2022-04-12T15:08:26Z</time><name>PT2884</name></trkpt>
<trkpt lat="52.046504" lon="05.762873"><ele>50.3</ele><time>2022-04-12T15:08:27Z</time><name>PT2885</name></trkpt>
<trkpt lat="52.046494" lon="05.762871"><ele>50.2</ele><time>2022-04-12T15:08:28Z</time><name>PT2886</name></trkpt>
<trkpt lat="52.046488" lon="05.762870"><ele>50.2</ele><time>2022-04-12T15:08:29Z</time><name>PT2887</name></trkpt>
<trkpt lat="52.046485" lon="05.762879"><ele>50.1</ele><time>2022-04-12T15:08:30Z</time><name>PT2888</name></trkpt>
<trkpt lat="52.046476" lon="05.762877"><ele>50.2</ele><time>2022-04-12T15:08:31Z</time><name>PT2889</name></trkpt>
<trkpt lat="52.046466" lon="05.762873"><ele>50.3</ele><time>2022-04-12T15:08:32Z</time><name>PT2890</name></trkpt>
<trkpt lat="52.046457" lon="05.762868"><ele>50.3</ele><time>2022-04-12T15:08:33Z</time><name>PT2891</name></trkpt>
<trkpt lat="52.046452" lon="05.762872"><ele>50.4</ele><time>2022-04-12T15:08:34Z</time><name>PT2892</name></trkpt>
<trkpt lat="52.046442" lon="05.762866"><ele>50.5</ele><time>2022-04-12T15:08:35Z</time><name>PT2893</name></trkpt>
<trkpt lat="52.046433" lon="05.762860"><ele>50.6</ele><time>2022-04-12T15:08:36Z</time><name>PT2894</name></trkpt>
<trkpt lat="52.046426" lon="05.762856"><ele>50.7</ele><time>2022-04-12T15:08:37Z</time><name>PT2895</name></trkpt>
<trkpt lat="52.046418" lon="05.762853"><ele>50.8</ele><time>2022-04-12T15:08:38Z</time><name>PT2896</name></trkpt>
<trkpt lat="52.046406" lon="05.762853"><ele>50.7</ele><time>2022-04-12T15:08:39Z</time><name>PT2897</name></trkpt>
<trkpt lat="52.046392" lon="05.762849"><ele>50.7</ele><time>2022-04-12T15:08:40Z</time><name>PT2898</name></trkpt>
<trkpt lat="52.046383" lon="05.762846"><ele>50.7</ele><time>2022-04-12T15:08:41Z</time><name>PT2899</name></trkpt>
<trkpt lat="52.046375" lon="05.762843"><ele>50.5</ele><time>2022-04-12T15:08:42Z</time><name>PT2900</name></trkpt>
<trkpt lat="52.046363" lon="05.762842"><ele>50.6</ele><time>2022-04-12T15:08:43Z</time><name>PT2901</name></trkpt>
<trkpt lat="52.046353" lon="05.762836"><ele>50.5</ele><time>2022-04-12T15:08:44Z</time><name>PT2902</name></trkpt>
<trkpt lat="52.046347" lon="05.762830"><ele>50.3</ele><time>2022-04-12T15:08:45Z</time><name>PT2903</name></trkpt>
<trkpt lat="52.046339" lon="05.762827"><ele>50.2</ele><time>2022-04-12T15:08:46Z</time><name>PT2904</name></trkpt>
<trkpt lat="52.046330" lon="05.762828"><ele>50.1</ele><time>2022-04-12T15:08:47Z</time><name>PT2905</name></trkpt>
<trkpt lat="52.046322" lon="05.762825"><ele>50.1</ele><time>2022-04-12T15:08:48Z</time><name>PT2906</name></trkpt>
<trkpt lat="52.046315" lon="05.762822"><ele>50.1</ele><time>2022-04-12T15:08:49Z</time><name>PT2907</name></trkpt>
<trkpt lat="52.046308" lon="05.762819"><ele>50</ele><time>2022-04-12T15:08:50Z</time><name>PT2908</name></trkpt>
<trkpt lat="52.046301" lon="05.762817"><ele>50</ele><time>2022-04-12T15:08:51Z</time><name>PT2909</name></trkpt>
<trkpt lat="52.046288" lon="05.762810"><ele>49.9</ele><time>2022-04-12T15:08:52Z</time><name>PT2910</name></trkpt>
<trkpt lat="52.046277" lon="05.762807"><ele>49.9</ele><time>2022-04-12T15:08:53Z</time><name>PT2911</name></trkpt>
<trkpt lat="52.046269" lon="05.762805"><ele>49.8</ele><time>2022-04-12T15:08:54Z</time><name>PT2912</name></trkpt>
<trkpt lat="52.046260" lon="05.762804"><ele>49.7</ele><time>2022-04-12T15:08:56Z</time><name>PT2913</name></trkpt>
<trkpt lat="52.046252" lon="05.762809"><ele>49.7</ele><time>2022-04-12T15:08:56Z</time><name>PT2914</name></trkpt>
<trkpt lat="52.046237" lon="05.762797"><ele>49.7</ele><time>2022-04-12T15:08:57Z</time><name>PT2915</name></trkpt>
<trkpt lat="52.046225" lon="05.762791"><ele>49.8</ele><time>2022-04-12T15:08:58Z</time><name>PT2916</name></trkpt>
<trkpt lat="52.046216" lon="05.762788"><ele>50</ele><time>2022-04-12T15:09:00Z</time><name>PT2917</name></trkpt>
<trkpt lat="52.046206" lon="05.762790"><ele>50</ele><time>2022-04-12T15:09:00Z</time><name>PT2918</name></trkpt>
<trkpt lat="52.046195" lon="05.762783"><ele>50.1</ele><time>2022-04-12T15:09:02Z</time><name>PT2919</name></trkpt>
<trkpt lat="52.046186" lon="05.762780"><ele>50.1</ele><time>2022-04-12T15:09:02Z</time><name>PT2920</name></trkpt>
<trkpt lat="52.046182" lon="05.762777"><ele>50</ele><time>2022-04-12T15:09:03Z</time><name>PT2921</name></trkpt>
<trkpt lat="52.046180" lon="05.762774"><ele>49.9</ele><time>2022-04-12T15:09:04Z</time><name>PT2922</name></trkpt>
<trkpt lat="52.046177" lon="05.762775"><ele>49.9</ele><time>2022-04-12T15:09:05Z</time><name>PT2923</name></trkpt>
<trkpt lat="52.046172" lon="05.762774"><ele>49.9</ele><time>2022-04-12T15:09:06Z</time><name>PT2924</name></trkpt>
<trkpt lat="52.046166" lon="05.762771"><ele>49.8</ele><time>2022-04-12T15:09:07Z</time><name>PT2925</name></trkpt>
<trkpt lat="52.046159" lon="05.762769"><ele>49.7</ele><time>2022-04-12T15:09:08Z</time><name>PT2926</name></trkpt>
<trkpt lat="52.046145" lon="05.762764"><ele>49.6</ele><time>2022-04-12T15:09:10Z</time><name>PT2927</name></trkpt>
<trkpt lat="52.046133" lon="05.762760"><ele>49.5</ele><time>2022-04-12T15:09:10Z</time><name>PT2928</name></trkpt>
<trkpt lat="52.046122" lon="05.762754"><ele>49.5</ele><time>2022-04-12T15:09:12Z</time><name>PT2929</name></trkpt>
<trkpt lat="52.046112" lon="05.762750"><ele>49.5</ele><time>2022-04-12T15:09:12Z</time><name>PT2930</name></trkpt>
<trkpt lat="52.046106" lon="05.762752"><ele>49.8</ele><time>2022-04-12T15:09:13Z</time><name>PT2931</name></trkpt>
<trkpt lat="52.046098" lon="05.762747"><ele>49.8</ele><time>2022-04-12T15:09:14Z</time><name>PT2932</name></trkpt>
<trkpt lat="52.046084" lon="05.762738"><ele>50</ele><time>2022-04-12T15:09:15Z</time><name>PT2933</name></trkpt>
<trkpt lat="52.046074" lon="05.762738"><ele>50</ele><time>2022-04-12T15:09:16Z</time><name>PT2934</name></trkpt>
<trkpt lat="52.046066" lon="05.762734"><ele>50</ele><time>2022-04-12T15:09:17Z</time><name>PT2935</name></trkpt>
<trkpt lat="52.046060" lon="05.762735"><ele>50</ele><time>2022-04-12T15:09:18Z</time><name>PT2936</name></trkpt>
<trkpt lat="52.046049" lon="05.762739"><ele>50</ele><time>2022-04-12T15:09:20Z</time><name>PT2937</name></trkpt>
<trkpt lat="52.046038" lon="05.762741"><ele>49.8</ele><time>2022-04-12T15:09:20Z</time><name>PT2938</name></trkpt>
<trkpt lat="52.046033" lon="05.762744"><ele>49.8</ele><time>2022-04-12T15:09:22Z</time><name>PT2939</name></trkpt>
<trkpt lat="52.046026" lon="05.762743"><ele>49.9</ele><time>2022-04-12T15:09:22Z</time><name>PT2940</name></trkpt>
<trkpt lat="52.046015" lon="05.762737"><ele>49.8</ele><time>2022-04-12T15:09:23Z</time><name>PT2941</name></trkpt>
<trkpt lat="52.046003" lon="05.762733"><ele>49.7</ele><time>2022-04-12T15:09:24Z</time><name>PT2942</name></trkpt>
<trkpt lat="52.045992" lon="05.762732"><ele>49.8</ele><time>2022-04-12T15:09:25Z</time><name>PT2943</name></trkpt>
<trkpt lat="52.045983" lon="05.762729"><ele>49.7</ele><time>2022-04-12T15:09:26Z</time><name>PT2944</name></trkpt>
<trkpt lat="52.045975" lon="05.762728"><ele>49.6</ele><time>2022-04-12T15:09:27Z</time><name>PT2945</name></trkpt>
<trkpt lat="52.045968" lon="05.762733"><ele>49.7</ele><time>2022-04-12T15:09:28Z</time><name>PT2946</name></trkpt>
<trkpt lat="52.045960" lon="05.762740"><ele>49.5</ele><time>2022-04-12T15:09:30Z</time><name>PT2947</name></trkpt>
<trkpt lat="52.045951" lon="05.762738"><ele>49.7</ele><time>2022-04-12T15:09:30Z</time><name>PT2948</name></trkpt>
<trkpt lat="52.045944" lon="05.762736"><ele>49.7</ele><time>2022-04-12T15:09:32Z</time><name>PT2949</name></trkpt>
<trkpt lat="52.045935" lon="05.762730"><ele>49.6</ele><time>2022-04-12T15:09:32Z</time><name>PT2950</name></trkpt>
<trkpt lat="52.045919" lon="05.762716"><ele>49.7</ele><time>2022-04-12T15:09:33Z</time><name>PT2951</name></trkpt>
<trkpt lat="52.045910" lon="05.762709"><ele>49.9</ele><time>2022-04-12T15:09:34Z</time><name>PT2952</name></trkpt>
<trkpt lat="52.045901" lon="05.762703"><ele>49.9</ele><time>2022-04-12T15:09:35Z</time><name>PT2953</name></trkpt>
<trkpt lat="52.045892" lon="05.762704"><ele>50</ele><time>2022-04-12T15:09:36Z</time><name>PT2954</name></trkpt>
<trkpt lat="52.045881" lon="05.762702"><ele>50</ele><time>2022-04-12T15:09:37Z</time><name>PT2955</name></trkpt>
<trkpt lat="52.045874" lon="05.762702"><ele>49.9</ele><time>2022-04-12T15:09:38Z</time><name>PT2956</name></trkpt>
<trkpt lat="52.045868" lon="05.762703"><ele>49.7</ele><time>2022-04-12T15:09:40Z</time><name>PT2957</name></trkpt>
<trkpt lat="52.045854" lon="05.762703"><ele>49.7</ele><time>2022-04-12T15:09:40Z</time><name>PT2958</name></trkpt>
<trkpt lat="52.045836" lon="05.762700"><ele>49.7</ele><time>2022-04-12T15:09:41Z</time><name>PT2959</name></trkpt>
<trkpt lat="52.045823" lon="05.762698"><ele>49.7</ele><time>2022-04-12T15:09:42Z</time><name>PT2960</name></trkpt>
<trkpt lat="52.045815" lon="05.762695"><ele>49.7</ele><time>2022-04-12T15:09:43Z</time><name>PT2961</name></trkpt>
<trkpt lat="52.045812" lon="05.762694"><ele>49.7</ele><time>2022-04-12T15:09:44Z</time><name>PT2962</name></trkpt>
<trkpt lat="52.045800" lon="05.762693"><ele>49.7</ele><time>2022-04-12T15:09:45Z</time><name>PT2963</name></trkpt>
<trkpt lat="52.045789" lon="05.762692"><ele>49.6</ele><time>2022-04-12T15:09:46Z</time><name>PT2964</name></trkpt>
<trkpt lat="52.045780" lon="05.762692"><ele>49.7</ele><time>2022-04-12T15:09:47Z</time><name>PT2965</name></trkpt>
<trkpt lat="52.045774" lon="05.762689"><ele>49.8</ele><time>2022-04-12T15:09:48Z</time><name>PT2966</name></trkpt>
<trkpt lat="52.045762" lon="05.762693"><ele>49.9</ele><time>2022-04-12T15:09:49Z</time><name>PT2967</name></trkpt>
<trkpt lat="52.045751" lon="05.762693"><ele>50</ele><time>2022-04-12T15:09:50Z</time><name>PT2968</name></trkpt>
<trkpt lat="52.045743" lon="05.762684"><ele>50.2</ele><time>2022-04-12T15:09:51Z</time><name>PT2969</name></trkpt>
<trkpt lat="52.045737" lon="05.762675"><ele>50.3</ele><time>2022-04-12T15:09:52Z</time><name>PT2970</name></trkpt>
<trkpt lat="52.045725" lon="05.762672"><ele>50.4</ele><time>2022-04-12T15:09:53Z</time><name>PT2971</name></trkpt>
<trkpt lat="52.045713" lon="05.762668"><ele>50.6</ele><time>2022-04-12T15:09:54Z</time><name>PT2972</name></trkpt>
<trkpt lat="52.045705" lon="05.762669"><ele>50.4</ele><time>2022-04-12T15:09:55Z</time><name>PT2973</name></trkpt>
<trkpt lat="52.045695" lon="05.762664"><ele>50.4</ele><time>2022-04-12T15:09:56Z</time><name>PT2974</name></trkpt>
<trkpt lat="52.045688" lon="05.762658"><ele>50.3</ele><time>2022-04-12T15:09:57Z</time><name>PT2975</name></trkpt>
<trkpt lat="52.045677" lon="05.762652"><ele>50.3</ele><time>2022-04-12T15:09:58Z</time><name>PT2976</name></trkpt>
<trkpt lat="52.045661" lon="05.762648"><ele>50.3</ele><time>2022-04-12T15:10:00Z</time><name>PT2977</name></trkpt>
<trkpt lat="52.045647" lon="05.762644"><ele>50.3</ele><time>2022-04-12T15:10:00Z</time><name>PT2978</name></trkpt>
<trkpt lat="52.045638" lon="05.762641"><ele>50.3</ele><time>2022-04-12T15:10:02Z</time><name>PT2979</name></trkpt>
<trkpt lat="52.045628" lon="05.762636"><ele>50.2</ele><time>2022-04-12T15:10:02Z</time><name>PT2980</name></trkpt>
<trkpt lat="52.045617" lon="05.762641"><ele>50</ele><time>2022-04-12T15:10:04Z</time><name>PT2981</name></trkpt>
<trkpt lat="52.045601" lon="05.762645"><ele>49.9</ele><time>2022-04-12T15:10:04Z</time><name>PT2982</name></trkpt>
<trkpt lat="52.045584" lon="05.762650"><ele>49.7</ele><time>2022-04-12T15:10:06Z</time><name>PT2983</name></trkpt>
<trkpt lat="52.045571" lon="05.762652"><ele>49.6</ele><time>2022-04-12T15:10:06Z</time><name>PT2984</name></trkpt>
<trkpt lat="52.045561" lon="05.762652"><ele>49.4</ele><time>2022-04-12T15:10:08Z</time><name>PT2985</name></trkpt>
<trkpt lat="52.045548" lon="05.762644"><ele>49.4</ele><time>2022-04-12T15:10:08Z</time><name>PT2986</name></trkpt>
<trkpt lat="52.045542" lon="05.762652"><ele>49.3</ele><time>2022-04-12T15:10:10Z</time><name>PT2987</name></trkpt>
<trkpt lat="52.045530" lon="05.762650"><ele>49.5</ele><time>2022-04-12T15:10:10Z</time><name>PT2988</name></trkpt>
<trkpt lat="52.045520" lon="05.762652"><ele>49.6</ele><time>2022-04-12T15:10:11Z</time><name>PT2989</name></trkpt>
<trkpt lat="52.045512" lon="05.762653"><ele>49.7</ele><time>2022-04-12T15:10:12Z</time><name>PT2990</name></trkpt>
<trkpt lat="52.045506" lon="05.762656"><ele>49.5</ele><time>2022-04-12T15:10:13Z</time><name>PT2991</name></trkpt>
<trkpt lat="52.045498" lon="05.762658"><ele>49.5</ele><time>2022-04-12T15:10:14Z</time><name>PT2992</name></trkpt>
<trkpt lat="52.045483" lon="05.762664"><ele>49.2</ele><time>2022-04-12T15:10:15Z</time><name>PT2993</name></trkpt>
<trkpt lat="52.045471" lon="05.762664"><ele>49.1</ele><time>2022-04-12T15:10:16Z</time><name>PT2994</name></trkpt>
<trkpt lat="52.045463" lon="05.762661"><ele>49.1</ele><time>2022-04-12T15:10:17Z</time><name>PT2995</name></trkpt>
<trkpt lat="52.045455" lon="05.762666"><ele>49.1</ele><time>2022-04-12T15:10:18Z</time><name>PT2996</name></trkpt>
<trkpt lat="52.045446" lon="05.762679"><ele>49.1</ele><time>2022-04-12T15:10:19Z</time><name>PT2997</name></trkpt>
<trkpt lat="52.045435" lon="05.762681"><ele>49.1</ele><time>2022-04-12T15:10:20Z</time><name>PT2998</name></trkpt>
<trkpt lat="52.045427" lon="05.762675"><ele>49.2</ele><time>2022-04-12T15:10:21Z</time><name>PT2999</name></trkpt>
<trkpt lat="52.045419" lon="05.762675"><ele>49.1</ele><time>2022-04-12T15:10:22Z</time><name>PT3000</name></trkpt>
<trkpt lat="52.045408" lon="05.762676"><ele>49.2</ele><time>2022-04-12T15:10:23Z</time><name>PT3001</name></trkpt>
<trkpt lat="52.045395" lon="05.762679"><ele>49.3</ele><time>2022-04-12T15:10:24Z</time><name>PT3002</name></trkpt>
<trkpt lat="52.045380" lon="05.762690"><ele>49.2</ele><time>2022-04-12T15:10:25Z</time><name>PT3003</name></trkpt>
<trkpt lat="52.045368" lon="05.762691"><ele>49.2</ele><time>2022-04-12T15:10:26Z</time><name>PT3004</name></trkpt>
<trkpt lat="52.045362" lon="05.762699"><ele>49.2</ele><time>2022-04-12T15:10:27Z</time><name>PT3005</name></trkpt>
<trkpt lat="52.045351" lon="05.762714"><ele>49</ele><time>2022-04-12T15:10:28Z</time><name>PT3006</name></trkpt>
<trkpt lat="52.045335" lon="05.762711"><ele>49.1</ele><time>2022-04-12T15:10:29Z</time><name>PT3007</name></trkpt>
<trkpt lat="52.045329" lon="05.762712"><ele>48.9</ele><time>2022-04-12T15:10:30Z</time><name>PT3008</name></trkpt>
<trkpt lat="52.045313" lon="05.762704"><ele>48.9</ele><time>2022-04-12T15:10:31Z</time><name>PT3009</name></trkpt>
<trkpt lat="52.045307" lon="05.762708"><ele>48.9</ele><time>2022-04-12T15:10:32Z</time><name>PT3010</name></trkpt>
<trkpt lat="52.045300" lon="05.762711"><ele>48.9</ele><time>2022-04-12T15:10:33Z</time><name>PT3011</name></trkpt>
<trkpt lat="52.045291" lon="05.762717"><ele>48.9</ele><time>2022-04-12T15:10:34Z</time><name>PT3012</name></trkpt>
<trkpt lat="52.045277" lon="05.762709"><ele>49.1</ele><time>2022-04-12T15:10:35Z</time><name>PT3013</name></trkpt>
<trkpt lat="52.045265" lon="05.762706"><ele>49</ele><time>2022-04-12T15:10:36Z</time><name>PT3014</name></trkpt>
<trkpt lat="52.045257" lon="05.762708"><ele>49</ele><time>2022-04-12T15:10:37Z</time><name>PT3015</name></trkpt>
<trkpt lat="52.045249" lon="05.762718"><ele>49</ele><time>2022-04-12T15:10:38Z</time><name>PT3016</name></trkpt>
<trkpt lat="52.045235" lon="05.762722"><ele>48.9</ele><time>2022-04-12T15:10:39Z</time><name>PT3017</name></trkpt>
<trkpt lat="52.045219" lon="05.762729"><ele>48.9</ele><time>2022-04-12T15:10:40Z</time><name>PT3018</name></trkpt>
<trkpt lat="52.045206" lon="05.762736"><ele>49.1</ele><time>2022-04-12T15:10:41Z</time><name>PT3019</name></trkpt>
<trkpt lat="52.045194" lon="05.762735"><ele>49.1</ele><time>2022-04-12T15:10:42Z</time><name>PT3020</name></trkpt>
<trkpt lat="52.045181" lon="05.762738"><ele>49.2</ele><time>2022-04-12T15:10:43Z</time><name>PT3021</name></trkpt>
<trkpt lat="52.045172" lon="05.762738"><ele>49</ele><time>2022-04-12T15:10:44Z</time><name>PT3022</name></trkpt>
<trkpt lat="52.045160" lon="05.762729"><ele>49</ele><time>2022-04-12T15:10:45Z</time><name>PT3023</name></trkpt>
<trkpt lat="52.045157" lon="05.762741"><ele>49.1</ele><time>2022-04-12T15:10:46Z</time><name>PT3024</name></trkpt>
<trkpt lat="52.045151" lon="05.762741"><ele>49</ele><time>2022-04-12T15:10:47Z</time><name>PT3025</name></trkpt>
<trkpt lat="52.045145" lon="05.762739"><ele>48.7</ele><time>2022-04-12T15:10:48Z</time><name>PT3026</name></trkpt>
<trkpt lat="52.045137" lon="05.762742"><ele>48.8</ele><time>2022-04-12T15:10:49Z</time><name>PT3027</name></trkpt>
<trkpt lat="52.045123" lon="05.762745"><ele>48.8</ele><time>2022-04-12T15:10:50Z</time><name>PT3028</name></trkpt>
<trkpt lat="52.045115" lon="05.762749"><ele>48.7</ele><time>2022-04-12T15:10:51Z</time><name>PT3029</name></trkpt>
<trkpt lat="52.045109" lon="05.762753"><ele>49.1</ele><time>2022-04-12T15:10:52Z</time><name>PT3030</name></trkpt>
<trkpt lat="52.045096" lon="05.762755"><ele>49.2</ele><time>2022-04-12T15:10:53Z</time><name>PT3031</name></trkpt>
<trkpt lat="52.045087" lon="05.762777"><ele>49.1</ele><time>2022-04-12T15:10:54Z</time><name>PT3032</name></trkpt>
<trkpt lat="52.045073" lon="05.762785"><ele>48.9</ele><time>2022-04-12T15:10:55Z</time><name>PT3033</name></trkpt>
<trkpt lat="52.045060" lon="05.762786"><ele>48.9</ele><time>2022-04-12T15:10:56Z</time><name>PT3034</name></trkpt>
<trkpt lat="52.045045" lon="05.762779"><ele>48.9</ele><time>2022-04-12T15:10:57Z</time><name>PT3035</name></trkpt>
<trkpt lat="52.045039" lon="05.762784"><ele>48.9</ele><time>2022-04-12T15:10:58Z</time><name>PT3036</name></trkpt>
<trkpt lat="52.045035" lon="05.762785"><ele>48.7</ele><time>2022-04-12T15:10:59Z</time><name>PT3037</name></trkpt>
<trkpt lat="52.045028" lon="05.762784"><ele>48.9</ele><time>2022-04-12T15:11:00Z</time><name>PT3038</name></trkpt>
<trkpt lat="52.045017" lon="05.762791"><ele>49</ele><time>2022-04-12T15:11:01Z</time><name>PT3039</name></trkpt>
<trkpt lat="52.045006" lon="05.762781"><ele>49.1</ele><time>2022-04-12T15:11:02Z</time><name>PT3040</name></trkpt>
<trkpt lat="52.044994" lon="05.762787"><ele>49</ele><time>2022-04-12T15:11:03Z</time><name>PT3041</name></trkpt>
<trkpt lat="52.044987" lon="05.762782"><ele>49.2</ele><time>2022-04-12T15:11:04Z</time><name>PT3042</name></trkpt>
<trkpt lat="52.044980" lon="05.762786"><ele>49</ele><time>2022-04-12T15:11:05Z</time><name>PT3043</name></trkpt>
<trkpt lat="52.044969" lon="05.762791"><ele>48.9</ele><time>2022-04-12T15:11:06Z</time><name>PT3044</name></trkpt>
<trkpt lat="52.044951" lon="05.762791"><ele>48.9</ele><time>2022-04-12T15:11:07Z</time><name>PT3045</name></trkpt>
<trkpt lat="52.044941" lon="05.762798"><ele>48.9</ele><time>2022-04-12T15:11:08Z</time><name>PT3046</name></trkpt>
<trkpt lat="52.044931" lon="05.762806"><ele>48.8</ele><time>2022-04-12T15:11:09Z</time><name>PT3047</name></trkpt>
<trkpt lat="52.044923" lon="05.762811"><ele>48.7</ele><time>2022-04-12T15:11:10Z</time><name>PT3048</name></trkpt>
<trkpt lat="52.044916" lon="05.762811"><ele>48.6</ele><time>2022-04-12T15:11:11Z</time><name>PT3049</name></trkpt>
<trkpt lat="52.044906" lon="05.762817"><ele>48.4</ele><time>2022-04-12T15:11:12Z</time><name>PT3050</name></trkpt>
<trkpt lat="52.044893" lon="05.762821"><ele>48.2</ele><time>2022-04-12T15:11:13Z</time><name>PT3051</name></trkpt>
<trkpt lat="52.044884" lon="05.762822"><ele>48.2</ele><time>2022-04-12T15:11:14Z</time><name>PT3052</name></trkpt>
<trkpt lat="52.044877" lon="05.762828"><ele>48.3</ele><time>2022-04-12T15:11:15Z</time><name>PT3053</name></trkpt>
<trkpt lat="52.044869" lon="05.762831"><ele>48.3</ele><time>2022-04-12T15:11:16Z</time><name>PT3054</name></trkpt>
<trkpt lat="52.044859" lon="05.762835"><ele>48.3</ele><time>2022-04-12T15:11:17Z</time><name>PT3055</name></trkpt>
<trkpt lat="52.044844" lon="05.762839"><ele>48.4</ele><time>2022-04-12T15:11:18Z</time><name>PT3056</name></trkpt>
<trkpt lat="52.044828" lon="05.762838"><ele>48.3</ele><time>2022-04-12T15:11:19Z</time><name>PT3057</name></trkpt>
<trkpt lat="52.044813" lon="05.762838"><ele>48.4</ele><time>2022-04-12T15:11:21Z</time><name>PT3058</name></trkpt>
<trkpt lat="52.044806" lon="05.762837"><ele>48.3</ele><time>2022-04-12T15:11:21Z</time><name>PT3059</name></trkpt>
<trkpt lat="52.044794" lon="05.762840"><ele>48.2</ele><time>2022-04-12T15:11:22Z</time><name>PT3060</name></trkpt>
<trkpt lat="52.044783" lon="05.762842"><ele>48.2</ele><time>2022-04-12T15:11:23Z</time><name>PT3061</name></trkpt>
<trkpt lat="52.044772" lon="05.762840"><ele>48.2</ele><time>2022-04-12T15:11:24Z</time><name>PT3062</name></trkpt>
<trkpt lat="52.044759" lon="05.762837"><ele>48.1</ele><time>2022-04-12T15:11:25Z</time><name>PT3063</name></trkpt>
<trkpt lat="52.044750" lon="05.762843"><ele>48</ele><time>2022-04-12T15:11:26Z</time><name>PT3064</name></trkpt>
<trkpt lat="52.044742" lon="05.762842"><ele>48</ele><time>2022-04-12T15:11:27Z</time><name>PT3065</name></trkpt>
<trkpt lat="52.044735" lon="05.762844"><ele>48.1</ele><time>2022-04-12T15:11:28Z</time><name>PT3066</name></trkpt>
<trkpt lat="52.044727" lon="05.762851"><ele>48</ele><time>2022-04-12T15:11:29Z</time><name>PT3067</name></trkpt>
<trkpt lat="52.044715" lon="05.762851"><ele>48</ele><time>2022-04-12T15:11:30Z</time><name>PT3068</name></trkpt>
<trkpt lat="52.044701" lon="05.762846"><ele>48.1</ele><time>2022-04-12T15:11:31Z</time><name>PT3069</name></trkpt>
<trkpt lat="52.044688" lon="05.762848"><ele>48.1</ele><time>2022-04-12T15:11:32Z</time><name>PT3070</name></trkpt>
<trkpt lat="52.044683" lon="05.762847"><ele>48.2</ele><time>2022-04-12T15:11:33Z</time><name>PT3071</name></trkpt>
<trkpt lat="52.044672" lon="05.762839"><ele>48.1</ele><time>2022-04-12T15:11:34Z</time><name>PT3072</name></trkpt>
<trkpt lat="52.044655" lon="05.762831"><ele>48</ele><time>2022-04-12T15:11:35Z</time><name>PT3073</name></trkpt>
<trkpt lat="52.044647" lon="05.762822"><ele>47.9</ele><time>2022-04-12T15:11:36Z</time><name>PT3074</name></trkpt>
<trkpt lat="52.044637" lon="05.762816"><ele>47.8</ele><time>2022-04-12T15:11:37Z</time><name>PT3075</name></trkpt>
<trkpt lat="52.044629" lon="05.762817"><ele>47.9</ele><time>2022-04-12T15:11:38Z</time><name>PT3076</name></trkpt>
<trkpt lat="52.044622" lon="05.762821"><ele>47.8</ele><time>2022-04-12T15:11:39Z</time><name>PT3077</name></trkpt>
<trkpt lat="52.044610" lon="05.762818"><ele>47.7</ele><time>2022-04-12T15:11:40Z</time><name>PT3078</name></trkpt>
<trkpt lat="52.044598" lon="05.762809"><ele>47.7</ele><time>2022-04-12T15:11:41Z</time><name>PT3079</name></trkpt>
<trkpt lat="52.044587" lon="05.762811"><ele>47.7</ele><time>2022-04-12T15:11:42Z</time><name>PT3080</name></trkpt>
<trkpt lat="52.044579" lon="05.762819"><ele>47.6</ele><time>2022-04-12T15:11:43Z</time><name>PT3081</name></trkpt>
<trkpt lat="52.044571" lon="05.762826"><ele>47.7</ele><time>2022-04-12T15:11:44Z</time><name>PT3082</name></trkpt>
<trkpt lat="52.044556" lon="05.762834"><ele>47.9</ele><time>2022-04-12T15:11:45Z</time><name>PT3083</name></trkpt>
<trkpt lat="52.044543" lon="05.762836"><ele>48</ele><time>2022-04-12T15:11:46Z</time><name>PT3084</name></trkpt>
<trkpt lat="52.044529" lon="05.762838"><ele>47.9</ele><time>2022-04-12T15:11:47Z</time><name>PT3085</name></trkpt>
<trkpt lat="52.044521" lon="05.762838"><ele>48</ele><time>2022-04-12T15:11:48Z</time><name>PT3086</name></trkpt>
<trkpt lat="52.044513" lon="05.762839"><ele>47.9</ele><time>2022-04-12T15:11:49Z</time><name>PT3087</name></trkpt>
<trkpt lat="52.044497" lon="05.762842"><ele>48.1</ele><time>2022-04-12T15:11:50Z</time><name>PT3088</name></trkpt>
<trkpt lat="52.044488" lon="05.762863"><ele>48</ele><time>2022-04-12T15:11:51Z</time><name>PT3089</name></trkpt>
<trkpt lat="52.044479" lon="05.762875"><ele>48</ele><time>2022-04-12T15:11:52Z</time><name>PT3090</name></trkpt>
<trkpt lat="52.044472" lon="05.762874"><ele>48</ele><time>2022-04-12T15:11:53Z</time><name>PT3091</name></trkpt>
<trkpt lat="52.044465" lon="05.762873"><ele>48.1</ele><time>2022-04-12T15:11:54Z</time><name>PT3092</name></trkpt>
<trkpt lat="52.044460" lon="05.762874"><ele>48</ele><time>2022-04-12T15:11:55Z</time><name>PT3093</name></trkpt>
<trkpt lat="52.044447" lon="05.762901"><ele>47.8</ele><time>2022-04-12T15:11:56Z</time><name>PT3094</name></trkpt>
<trkpt lat="52.044431" lon="05.762894"><ele>48</ele><time>2022-04-12T15:11:57Z</time><name>PT3095</name></trkpt>
<trkpt lat="52.044425" lon="05.762906"><ele>48.2</ele><time>2022-04-12T15:11:58Z</time><name>PT3096</name></trkpt>
<trkpt lat="52.044417" lon="05.762907"><ele>48.1</ele><time>2022-04-12T15:11:59Z</time><name>PT3097</name></trkpt>
<trkpt lat="52.044410" lon="05.762913"><ele>48</ele><time>2022-04-12T15:12:00Z</time><name>PT3098</name></trkpt>
<trkpt lat="52.044405" lon="05.762918"><ele>47.9</ele><time>2022-04-12T15:12:01Z</time><name>PT3099</name></trkpt>
<trkpt lat="52.044405" lon="05.762917"><ele>47.8</ele><time>2022-04-12T15:12:02Z</time><name>PT3100</name></trkpt>
<trkpt lat="52.044410" lon="05.762912"><ele>47.8</ele><time>2022-04-12T15:12:03Z</time><name>PT3101</name></trkpt>
<trkpt lat="52.044408" lon="05.762918"><ele>47.8</ele><time>2022-04-12T15:12:04Z</time><name>PT3102</name></trkpt>
<trkpt lat="52.044402" lon="05.762921"><ele>48</ele><time>2022-04-12T15:12:05Z</time><name>PT3103</name></trkpt>
<trkpt lat="52.044394" lon="05.762927"><ele>47.9</ele><time>2022-04-12T15:12:06Z</time><name>PT3104</name></trkpt>
<trkpt lat="52.044389" lon="05.762924"><ele>47.9</ele><time>2022-04-12T15:12:07Z</time><name>PT3105</name></trkpt>
<trkpt lat="52.044382" lon="05.762928"><ele>48</ele><time>2022-04-12T15:12:08Z</time><name>PT3106</name></trkpt>
<trkpt lat="52.044376" lon="05.762941"><ele>48</ele><time>2022-04-12T15:12:09Z</time><name>PT3107</name></trkpt>
<trkpt lat="52.044376" lon="05.762958"><ele>47.9</ele><time>2022-04-12T15:12:10Z</time><name>PT3108</name></trkpt>
<trkpt lat="52.044378" lon="05.762973"><ele>48</ele><time>2022-04-12T15:12:11Z</time><name>PT3109</name></trkpt>
<trkpt lat="52.044380" lon="05.762988"><ele>47.9</ele><time>2022-04-12T15:12:12Z</time><name>PT3110</name></trkpt>
<trkpt lat="52.044379" lon="05.762998"><ele>47.9</ele><time>2022-04-12T15:12:13Z</time><name>PT3111</name></trkpt>
<trkpt lat="52.044381" lon="05.763005"><ele>47.9</ele><time>2022-04-12T15:12:14Z</time><name>PT3112</name></trkpt>
<trkpt lat="52.044385" lon="05.763021"><ele>47.9</ele><time>2022-04-12T15:12:15Z</time><name>PT3113</name></trkpt>
<trkpt lat="52.044389" lon="05.763028"><ele>47.9</ele><time>2022-04-12T15:12:16Z</time><name>PT3114</name></trkpt>
<trkpt lat="52.044391" lon="05.763035"><ele>47.8</ele><time>2022-04-12T15:12:17Z</time><name>PT3115</name></trkpt>
<trkpt lat="52.044395" lon="05.763047"><ele>48</ele><time>2022-04-12T15:12:18Z</time><name>PT3116</name></trkpt>
<trkpt lat="52.044398" lon="05.763063"><ele>48</ele><time>2022-04-12T15:12:19Z</time><name>PT3117</name></trkpt>
<trkpt lat="52.044400" lon="05.763076"><ele>48.1</ele><time>2022-04-12T15:12:20Z</time><name>PT3118</name></trkpt>
<trkpt lat="52.044401" lon="05.763090"><ele>48.1</ele><time>2022-04-12T15:12:21Z</time><name>PT3119</name></trkpt>
<trkpt lat="52.044404" lon="05.763108"><ele>48.1</ele><time>2022-04-12T15:12:22Z</time><name>PT3120</name></trkpt>
<trkpt lat="52.044406" lon="05.763123"><ele>48.2</ele><time>2022-04-12T15:12:23Z</time><name>PT3121</name></trkpt>
<trkpt lat="52.044410" lon="05.763134"><ele>48.1</ele><time>2022-04-12T15:12:24Z</time><name>PT3122</name></trkpt>
<trkpt lat="52.044414" lon="05.763141"><ele>48</ele><time>2022-04-12T15:12:25Z</time><name>PT3123</name></trkpt>
<trkpt lat="52.044421" lon="05.763160"><ele>48.2</ele><time>2022-04-12T15:12:26Z</time><name>PT3124</name></trkpt>
<trkpt lat="52.044425" lon="05.763185"><ele>48.1</ele><time>2022-04-12T15:12:27Z</time><name>PT3125</name></trkpt>
<trkpt lat="52.044425" lon="05.763201"><ele>48.1</ele><time>2022-04-12T15:12:28Z</time><name>PT3126</name></trkpt>
<trkpt lat="52.044426" lon="05.763211"><ele>48.2</ele><time>2022-04-12T15:12:29Z</time><name>PT3127</name></trkpt>
<trkpt lat="52.044429" lon="05.763236"><ele>48</ele><time>2022-04-12T15:12:31Z</time><name>PT3128</name></trkpt>
<trkpt lat="52.044431" lon="05.763268"><ele>47.9</ele><time>2022-04-12T15:12:31Z</time><name>PT3129</name></trkpt>
<trkpt lat="52.044430" lon="05.763279"><ele>47.9</ele><time>2022-04-12T15:12:33Z</time><name>PT3130</name></trkpt>
<trkpt lat="52.044436" lon="05.763289"><ele>47.8</ele><time>2022-04-12T15:12:33Z</time><name>PT3131</name></trkpt>
<trkpt lat="52.044440" lon="05.763309"><ele>47.8</ele><time>2022-04-12T15:12:35Z</time><name>PT3132</name></trkpt>
<trkpt lat="52.044441" lon="05.763327"><ele>47.7</ele><time>2022-04-12T15:12:35Z</time><name>PT3133</name></trkpt>
<trkpt lat="52.044444" lon="05.763343"><ele>47.7</ele><time>2022-04-12T15:12:37Z</time><name>PT3134</name></trkpt>
<trkpt lat="52.044441" lon="05.763356"><ele>47.7</ele><time>2022-04-12T15:12:37Z</time><name>PT3135</name></trkpt>
<trkpt lat="52.044441" lon="05.763372"><ele>47.7</ele><time>2022-04-12T15:12:39Z</time><name>PT3136</name></trkpt>
<trkpt lat="52.044443" lon="05.763390"><ele>47.8</ele><time>2022-04-12T15:12:39Z</time><name>PT3137</name></trkpt>
<trkpt lat="52.044446" lon="05.763403"><ele>47.9</ele><time>2022-04-12T15:12:41Z</time><name>PT3138</name></trkpt>
<trkpt lat="52.044448" lon="05.763419"><ele>47.8</ele><time>2022-04-12T15:12:41Z</time><name>PT3139</name></trkpt>
<trkpt lat="52.044447" lon="05.763436"><ele>48</ele><time>2022-04-12T15:12:42Z</time><name>PT3140</name></trkpt>
<trkpt lat="52.044450" lon="05.763447"><ele>48.2</ele><time>2022-04-12T15:12:43Z</time><name>PT3141</name></trkpt>
<trkpt lat="52.044451" lon="05.763457"><ele>48.1</ele><time>2022-04-12T15:12:44Z</time><name>PT3142</name></trkpt>
<trkpt lat="52.044450" lon="05.763466"><ele>48.2</ele><time>2022-04-12T15:12:45Z</time><name>PT3143</name></trkpt>
<trkpt lat="52.044453" lon="05.763469"><ele>48.2</ele><time>2022-04-12T15:12:46Z</time><name>PT3144</name></trkpt>
<trkpt lat="52.044458" lon="05.763475"><ele>48.2</ele><time>2022-04-12T15:12:47Z</time><name>PT3145</name></trkpt>
<trkpt lat="52.044462" lon="05.763497"><ele>48.1</ele><time>2022-04-12T15:12:48Z</time><name>PT3146</name></trkpt>
<trkpt lat="52.044464" lon="05.763514"><ele>48.2</ele><time>2022-04-12T15:12:49Z</time><name>PT3147</name></trkpt>
<trkpt lat="52.044465" lon="05.763526"><ele>48.2</ele><time>2022-04-12T15:12:50Z</time><name>PT3148</name></trkpt>
<trkpt lat="52.044471" lon="05.763530"><ele>48.2</ele><time>2022-04-12T15:12:51Z</time><name>PT3149</name></trkpt>
<trkpt lat="52.044473" lon="05.763543"><ele>48.2</ele><time>2022-04-12T15:12:52Z</time><name>PT3150</name></trkpt>
<trkpt lat="52.044476" lon="05.763557"><ele>48.3</ele><time>2022-04-12T15:12:53Z</time><name>PT3151</name></trkpt>
<trkpt lat="52.044477" lon="05.763568"><ele>48.2</ele><time>2022-04-12T15:12:54Z</time><name>PT3152</name></trkpt>
<trkpt lat="52.044478" lon="05.763583"><ele>48.3</ele><time>2022-04-12T15:12:55Z</time><name>PT3153</name></trkpt>
<trkpt lat="52.044480" lon="05.763600"><ele>48.5</ele><time>2022-04-12T15:12:56Z</time><name>PT3154</name></trkpt>
<trkpt lat="52.044480" lon="05.763611"><ele>48.5</ele><time>2022-04-12T15:12:57Z</time><name>PT3155</name></trkpt>
<trkpt lat="52.044481" lon="05.763626"><ele>48.4</ele><time>2022-04-12T15:12:58Z</time><name>PT3156</name></trkpt>
<trkpt lat="52.044484" lon="05.763645"><ele>48.4</ele><time>2022-04-12T15:12:59Z</time><name>PT3157</name></trkpt>
<trkpt lat="52.044484" lon="05.763656"><ele>48.2</ele><time>2022-04-12T15:13:00Z</time><name>PT3158</name></trkpt>
<trkpt lat="52.044487" lon="05.763669"><ele>48.1</ele><time>2022-04-12T15:13:01Z</time><name>PT3159</name></trkpt>
<trkpt lat="52.044490" lon="05.763692"><ele>48</ele><time>2022-04-12T15:13:02Z</time><name>PT3160</name></trkpt>
<trkpt lat="52.044494" lon="05.763709"><ele>48.1</ele><time>2022-04-12T15:13:03Z</time><name>PT3161</name></trkpt>
<trkpt lat="52.044497" lon="05.763719"><ele>48.2</ele><time>2022-04-12T15:13:04Z</time><name>PT3162</name></trkpt>
<trkpt lat="52.044499" lon="05.763737"><ele>48.2</ele><time>2022-04-12T15:13:05Z</time><name>PT3163</name></trkpt>
<trkpt lat="52.044503" lon="05.763742"><ele>48.2</ele><time>2022-04-12T15:13:06Z</time><name>PT3164</name></trkpt>
<trkpt lat="52.044505" lon="05.763755"><ele>48.3</ele><time>2022-04-12T15:13:07Z</time><name>PT3165</name></trkpt>
<trkpt lat="52.044508" lon="05.763769"><ele>48.2</ele><time>2022-04-12T15:13:08Z</time><name>PT3166</name></trkpt>
<trkpt lat="52.044513" lon="05.763783"><ele>48.2</ele><time>2022-04-12T15:13:09Z</time><name>PT3167</name></trkpt>
<trkpt lat="52.044516" lon="05.763800"><ele>48.2</ele><time>2022-04-12T15:13:10Z</time><name>PT3168</name></trkpt>
<trkpt lat="52.044519" lon="05.763810"><ele>48.1</ele><time>2022-04-12T15:13:11Z</time><name>PT3169</name></trkpt>
<trkpt lat="52.044520" lon="05.763820"><ele>48.3</ele><time>2022-04-12T15:13:12Z</time><name>PT3170</name></trkpt>
<trkpt lat="52.044520" lon="05.763833"><ele>48.4</ele><time>2022-04-12T15:13:13Z</time><name>PT3171</name></trkpt>
<trkpt lat="52.044521" lon="05.763845"><ele>48.4</ele><time>2022-04-12T15:13:14Z</time><name>PT3172</name></trkpt>
<trkpt lat="52.044520" lon="05.763865"><ele>48.4</ele><time>2022-04-12T15:13:15Z</time><name>PT3173</name></trkpt>
<trkpt lat="52.044519" lon="05.763871"><ele>48.3</ele><time>2022-04-12T15:13:16Z</time><name>PT3174</name></trkpt>
<trkpt lat="52.044521" lon="05.763884"><ele>48.3</ele><time>2022-04-12T15:13:17Z</time><name>PT3175</name></trkpt>
<trkpt lat="52.044521" lon="05.763893"><ele>48.3</ele><time>2022-04-12T15:13:18Z</time><name>PT3176</name></trkpt>
<trkpt lat="52.044519" lon="05.763909"><ele>48.3</ele><time>2022-04-12T15:13:19Z</time><name>PT3177</name></trkpt>
<trkpt lat="52.044519" lon="05.763922"><ele>48.5</ele><time>2022-04-12T15:13:20Z</time><name>PT3178</name></trkpt>
<trkpt lat="52.044514" lon="05.763942"><ele>48.6</ele><time>2022-04-12T15:13:21Z</time><name>PT3179</name></trkpt>
<trkpt lat="52.044512" lon="05.763962"><ele>48.5</ele><time>2022-04-12T15:13:22Z</time><name>PT3180</name></trkpt>
<trkpt lat="52.044508" lon="05.763967"><ele>48.5</ele><time>2022-04-12T15:13:23Z</time><name>PT3181</name></trkpt>
<trkpt lat="52.044504" lon="05.763981"><ele>48.3</ele><time>2022-04-12T15:13:24Z</time><name>PT3182</name></trkpt>
<trkpt lat="52.044496" lon="05.763988"><ele>48.1</ele><time>2022-04-12T15:13:25Z</time><name>PT3183</name></trkpt>
<trkpt lat="52.044490" lon="05.763993"><ele>48</ele><time>2022-04-12T15:13:26Z</time><name>PT3184</name></trkpt>
<trkpt lat="52.044483" lon="05.764003"><ele>48</ele><time>2022-04-12T15:13:27Z</time><name>PT3185</name></trkpt>
<trkpt lat="52.044475" lon="05.764008"><ele>48</ele><time>2022-04-12T15:13:28Z</time><name>PT3186</name></trkpt>
<trkpt lat="52.044470" lon="05.764009"><ele>48</ele><time>2022-04-12T15:13:29Z</time><name>PT3187</name></trkpt>
<trkpt lat="52.044465" lon="05.764022"><ele>48.1</ele><time>2022-04-12T15:13:30Z</time><name>PT3188</name></trkpt>
<trkpt lat="52.044459" lon="05.764031"><ele>47.9</ele><time>2022-04-12T15:13:31Z</time><name>PT3189</name></trkpt>
<trkpt lat="52.044455" lon="05.764030"><ele>48</ele><time>2022-04-12T15:13:32Z</time><name>PT3190</name></trkpt>
<trkpt lat="52.044450" lon="05.764022"><ele>48</ele><time>2022-04-12T15:13:33Z</time><name>PT3191</name></trkpt>
<trkpt lat="52.044446" lon="05.764020"><ele>48</ele><time>2022-04-12T15:13:34Z</time><name>PT3192</name></trkpt>
<trkpt lat="52.044441" lon="05.764013"><ele>48.1</ele><time>2022-04-12T15:13:35Z</time><name>PT3193</name></trkpt>
<trkpt lat="52.044435" lon="05.764019"><ele>48.2</ele><time>2022-04-12T15:13:36Z</time><name>PT3194</name></trkpt>
<trkpt lat="52.044427" lon="05.764022"><ele>48.3</ele><time>2022-04-12T15:13:37Z</time><name>PT3195</name></trkpt>
<trkpt lat="52.044420" lon="05.764021"><ele>48.3</ele><time>2022-04-12T15:13:38Z</time><name>PT3196</name></trkpt>
<trkpt lat="52.044410" lon="05.764027"><ele>48.4</ele><time>2022-04-12T15:13:39Z</time><name>PT3197</name></trkpt>
<trkpt lat="52.044400" lon="05.764031"><ele>48.5</ele><time>2022-04-12T15:13:40Z</time><name>PT3198</name></trkpt>
<trkpt lat="52.044401" lon="05.764033"><ele>48.5</ele><time>2022-04-12T15:13:41Z</time><name>PT3199</name></trkpt>
<trkpt lat="52.044401" lon="05.764032"><ele>48.3</ele><time>2022-04-12T15:13:42Z</time><name>PT3200</name></trkpt>
<trkpt lat="52.044398" lon="05.764026"><ele>48.5</ele><time>2022-04-12T15:13:43Z</time><name>PT3201</name></trkpt>
<trkpt lat="52.044394" lon="05.764020"><ele>48.6</ele><time>2022-04-12T15:13:44Z</time><name>PT3202</name></trkpt>
<trkpt lat="52.044396" lon="05.764016"><ele>48.6</ele><time>2022-04-12T15:13:45Z</time><name>PT3203</name></trkpt>
<trkpt lat="52.044390" lon="05.764018"><ele>48.6</ele><time>2022-04-12T15:13:46Z</time><name>PT3204</name></trkpt>
<trkpt lat="52.044399" lon="05.764023"><ele>48.5</ele><time>2022-04-12T15:13:48Z</time><name>PT3205</name></trkpt>
<trkpt lat="52.044398" lon="05.764011"><ele>48.4</ele><time>2022-04-12T15:13:49Z</time><name>PT3206</name></trkpt>
<trkpt lat="52.044397" lon="05.764009"><ele>48.4</ele><time>2022-04-12T15:13:50Z</time><name>PT3207</name></trkpt>
<trkpt lat="52.044398" lon="05.764008"><ele>48.4</ele><time>2022-04-12T15:13:51Z</time><name>PT3208</name></trkpt>
<trkpt lat="52.044392" lon="05.764010"><ele>48.4</ele><time>2022-04-12T15:13:52Z</time><name>PT3209</name></trkpt>
<trkpt lat="52.044384" lon="05.764012"><ele>48.4</ele><time>2022-04-12T15:13:53Z</time><name>PT3210</name></trkpt>
<trkpt lat="52.044376" lon="05.764012"><ele>48.3</ele><time>2022-04-12T15:13:54Z</time><name>PT3211</name></trkpt>
<trkpt lat="52.044367" lon="05.764021"><ele>48.4</ele><time>2022-04-12T15:13:55Z</time><name>PT3212</name></trkpt>
<trkpt lat="52.044360" lon="05.764021"><ele>48.3</ele><time>2022-04-12T15:13:56Z</time><name>PT3213</name></trkpt>
<trkpt lat="52.044350" lon="05.764030"><ele>48.2</ele><time>2022-04-12T15:13:57Z</time><name>PT3214</name></trkpt>
<trkpt lat="52.044345" lon="05.764031"><ele>48.3</ele><time>2022-04-12T15:13:58Z</time><name>PT3215</name></trkpt>
<trkpt lat="52.044339" lon="05.764034"><ele>48.3</ele><time>2022-04-12T15:13:59Z</time><name>PT3216</name></trkpt>
<trkpt lat="52.044332" lon="05.764035"><ele>48.3</ele><time>2022-04-12T15:14:00Z</time><name>PT3217</name></trkpt>
<trkpt lat="52.044325" lon="05.764037"><ele>48.5</ele><time>2022-04-12T15:14:01Z</time><name>PT3218</name></trkpt>
<trkpt lat="52.044316" lon="05.764046"><ele>48.4</ele><time>2022-04-12T15:14:02Z</time><name>PT3219</name></trkpt>
<trkpt lat="52.044304" lon="05.764049"><ele>48.2</ele><time>2022-04-12T15:14:03Z</time><name>PT3220</name></trkpt>
<trkpt lat="52.044293" lon="05.764055"><ele>48.3</ele><time>2022-04-12T15:14:04Z</time><name>PT3221</name></trkpt>
<trkpt lat="52.044285" lon="05.764059"><ele>48.3</ele><time>2022-04-12T15:14:05Z</time><name>PT3222</name></trkpt>
<trkpt lat="52.044275" lon="05.764065"><ele>48.2</ele><time>2022-04-12T15:14:06Z</time><name>PT3223</name></trkpt>
<trkpt lat="52.044267" lon="05.764071"><ele>48.3</ele><time>2022-04-12T15:14:07Z</time><name>PT3224</name></trkpt>
<trkpt lat="52.044261" lon="05.764076"><ele>48.2</ele><time>2022-04-12T15:14:08Z</time><name>PT3225</name></trkpt>
<trkpt lat="52.044252" lon="05.764075"><ele>48.2</ele><time>2022-04-12T15:14:09Z</time><name>PT3226</name></trkpt>
<trkpt lat="52.044244" lon="05.764078"><ele>48.2</ele><time>2022-04-12T15:14:10Z</time><name>PT3227</name></trkpt>
<trkpt lat="52.044239" lon="05.764085"><ele>48.2</ele><time>2022-04-12T15:14:11Z</time><name>PT3228</name></trkpt>
<trkpt lat="52.044226" lon="05.764078"><ele>48.2</ele><time>2022-04-12T15:14:12Z</time><name>PT3229</name></trkpt>
<trkpt lat="52.044218" lon="05.764077"><ele>48.2</ele><time>2022-04-12T15:14:13Z</time><name>PT3230</name></trkpt>
<trkpt lat="52.044214" lon="05.764079"><ele>48.2</ele><time>2022-04-12T15:14:14Z</time><name>PT3231</name></trkpt>
<trkpt lat="52.044204" lon="05.764075"><ele>48.2</ele><time>2022-04-12T15:14:15Z</time><name>PT3232</name></trkpt>
<trkpt lat="52.044192" lon="05.764071"><ele>48.5</ele><time>2022-04-12T15:14:16Z</time><name>PT3233</name></trkpt>
<trkpt lat="52.044186" lon="05.764074"><ele>48.5</ele><time>2022-04-12T15:14:17Z</time><name>PT3234</name></trkpt>
<trkpt lat="52.044179" lon="05.764079"><ele>48.6</ele><time>2022-04-12T15:14:18Z</time><name>PT3235</name></trkpt>
<trkpt lat="52.044171" lon="05.764086"><ele>48.5</ele><time>2022-04-12T15:14:19Z</time><name>PT3236</name></trkpt>
<trkpt lat="52.044161" lon="05.764090"><ele>48.5</ele><time>2022-04-12T15:14:20Z</time><name>PT3237</name></trkpt>
<trkpt lat="52.044153" lon="05.764094"><ele>48.5</ele><time>2022-04-12T15:14:21Z</time><name>PT3238</name></trkpt>
<trkpt lat="52.044146" lon="05.764102"><ele>48.5</ele><time>2022-04-12T15:14:23Z</time><name>PT3239</name></trkpt>
<trkpt lat="52.044140" lon="05.764104"><ele>48.6</ele><time>2022-04-12T15:14:23Z</time><name>PT3240</name></trkpt>
<trkpt lat="52.044133" lon="05.764102"><ele>48.7</ele><time>2022-04-12T15:14:24Z</time><name>PT3241</name></trkpt>
<trkpt lat="52.044126" lon="05.764106"><ele>48.5</ele><time>2022-04-12T15:14:25Z</time><name>PT3242</name></trkpt>
<trkpt lat="52.044124" lon="05.764110"><ele>48.5</ele><time>2022-04-12T15:14:26Z</time><name>PT3243</name></trkpt>
<trkpt lat="52.044115" lon="05.764113"><ele>48.4</ele><time>2022-04-12T15:14:27Z</time><name>PT3244</name></trkpt>
<trkpt lat="52.044105" lon="05.764115"><ele>48.3</ele><time>2022-04-12T15:14:28Z</time><name>PT3245</name></trkpt>
<trkpt lat="52.044097" lon="05.764118"><ele>48.3</ele><time>2022-04-12T15:14:29Z</time><name>PT3246</name></trkpt>
<trkpt lat="52.044091" lon="05.764128"><ele>48.4</ele><time>2022-04-12T15:14:31Z</time><name>PT3247</name></trkpt>
<trkpt lat="52.044084" lon="05.764136"><ele>48.2</ele><time>2022-04-12T15:14:31Z</time><name>PT3248</name></trkpt>
<trkpt lat="52.044079" lon="05.764141"><ele>48.2</ele><time>2022-04-12T15:14:33Z</time><name>PT3249</name></trkpt>
<trkpt lat="52.044076" lon="05.764147"><ele>48.2</ele><time>2022-04-12T15:14:34Z</time><name>PT3250</name></trkpt>
<trkpt lat="52.044070" lon="05.764149"><ele>48.2</ele><time>2022-04-12T15:14:34Z</time><name>PT3251</name></trkpt>
<trkpt lat="52.044065" lon="05.764156"><ele>48.1</ele><time>2022-04-12T15:14:35Z</time><name>PT3252</name></trkpt>
<trkpt lat="52.044065" lon="05.764157"><ele>48</ele><time>2022-04-12T15:14:36Z</time><name>PT3253</name></trkpt>
<trkpt lat="52.044065" lon="05.764155"><ele>47.8</ele><time>2022-04-12T15:14:38Z</time><name>PT3254</name></trkpt>
<trkpt lat="52.044064" lon="05.764154"><ele>47.8</ele><time>2022-04-12T15:14:38Z</time><name>PT3255</name></trkpt>
<trkpt lat="52.044065" lon="05.764147"><ele>47.7</ele><time>2022-04-12T15:14:49Z</time><name>PT3256</name></trkpt>
<trkpt lat="52.044063" lon="05.764146"><ele>47.7</ele><time>2022-04-12T15:14:50Z</time><name>PT3257</name></trkpt>
<trkpt lat="52.044055" lon="05.764154"><ele>47.9</ele><time>2022-04-12T15:14:51Z</time><name>PT3258</name></trkpt>
<trkpt lat="52.044053" lon="05.764165"><ele>47.8</ele><time>2022-04-12T15:14:52Z</time><name>PT3259</name></trkpt>
<trkpt lat="52.044047" lon="05.764171"><ele>48</ele><time>2022-04-12T15:14:53Z</time><name>PT3260</name></trkpt>
<trkpt lat="52.044046" lon="05.764178"><ele>47.9</ele><time>2022-04-12T15:14:54Z</time><name>PT3261</name></trkpt>
<trkpt lat="52.044050" lon="05.764200"><ele>48.1</ele><time>2022-04-12T15:14:55Z</time><name>PT3262</name></trkpt>
<trkpt lat="52.044048" lon="05.764219"><ele>48.2</ele><time>2022-04-12T15:14:56Z</time><name>PT3263</name></trkpt>
<trkpt lat="52.044042" lon="05.764232"><ele>48.2</ele><time>2022-04-12T15:14:57Z</time><name>PT3264</name></trkpt>
<trkpt lat="52.044041" lon="05.764246"><ele>48.2</ele><time>2022-04-12T15:14:58Z</time><name>PT3265</name></trkpt>
<trkpt lat="52.044037" lon="05.764258"><ele>48.2</ele><time>2022-04-12T15:14:59Z</time><name>PT3266</name></trkpt>
<trkpt lat="52.044037" lon="05.764276"><ele>48.2</ele><time>2022-04-12T15:15:00Z</time><name>PT3267</name></trkpt>
<trkpt lat="52.044037" lon="05.764286"><ele>47.9</ele><time>2022-04-12T15:15:01Z</time><name>PT3268</name></trkpt>
<trkpt lat="52.044037" lon="05.764305"><ele>47.9</ele><time>2022-04-12T15:15:02Z</time><name>PT3269</name></trkpt>
<trkpt lat="52.044039" lon="05.764323"><ele>47.9</ele><time>2022-04-12T15:15:03Z</time><name>PT3270</name></trkpt>
<trkpt lat="52.044044" lon="05.764333"><ele>47.8</ele><time>2022-04-12T15:15:04Z</time><name>PT3271</name></trkpt>
<trkpt lat="52.044046" lon="05.764350"><ele>47.7</ele><time>2022-04-12T15:15:05Z</time><name>PT3272</name></trkpt>
<trkpt lat="52.044046" lon="05.764368"><ele>47.7</ele><time>2022-04-12T15:15:06Z</time><name>PT3273</name></trkpt>
<trkpt lat="52.044048" lon="05.764381"><ele>47.6</ele><time>2022-04-12T15:15:08Z</time><name>PT3274</name></trkpt>
<trkpt lat="52.044051" lon="05.764395"><ele>47.6</ele><time>2022-04-12T15:15:08Z</time><name>PT3275</name></trkpt>
<trkpt lat="52.044051" lon="05.764405"><ele>47.7</ele><time>2022-04-12T15:15:09Z</time><name>PT3276</name></trkpt>
<trkpt lat="52.044051" lon="05.764415"><ele>47.7</ele><time>2022-04-12T15:15:10Z</time><name>PT3277</name></trkpt>
<trkpt lat="52.044055" lon="05.764430"><ele>47.7</ele><time>2022-04-12T15:15:11Z</time><name>PT3278</name></trkpt>
<trkpt lat="52.044058" lon="05.764445"><ele>47.8</ele><time>2022-04-12T15:15:12Z</time><name>PT3279</name></trkpt>
<trkpt lat="52.044060" lon="05.764462"><ele>48</ele><time>2022-04-12T15:15:13Z</time><name>PT3280</name></trkpt>
<trkpt lat="52.044062" lon="05.764466"><ele>48</ele><time>2022-04-12T15:15:14Z</time><name>PT3281</name></trkpt>
<trkpt lat="52.044065" lon="05.764479"><ele>48.1</ele><time>2022-04-12T15:15:15Z</time><name>PT3282</name></trkpt>
<trkpt lat="52.044067" lon="05.764491"><ele>48.1</ele><time>2022-04-12T15:15:16Z</time><name>PT3283</name></trkpt>
<trkpt lat="52.044071" lon="05.764509"><ele>48.1</ele><time>2022-04-12T15:15:17Z</time><name>PT3284</name></trkpt>
<trkpt lat="52.044074" lon="05.764527"><ele>48.1</ele><time>2022-04-12T15:15:18Z</time><name>PT3285</name></trkpt>
<trkpt lat="52.044076" lon="05.764541"><ele>47.9</ele><time>2022-04-12T15:15:20Z</time><name>PT3286</name></trkpt>
<trkpt lat="52.044076" lon="05.764549"><ele>48</ele><time>2022-04-12T15:15:20Z</time><name>PT3287</name></trkpt>
<trkpt lat="52.044075" lon="05.764560"><ele>48</ele><time>2022-04-12T15:15:22Z</time><name>PT3288</name></trkpt>
<trkpt lat="52.044075" lon="05.764573"><ele>48.1</ele><time>2022-04-12T15:15:22Z</time><name>PT3289</name></trkpt>
<trkpt lat="52.044080" lon="05.764582"><ele>48.2</ele><time>2022-04-12T15:15:24Z</time><name>PT3290</name></trkpt>
<trkpt lat="52.044084" lon="05.764599"><ele>48.2</ele><time>2022-04-12T15:15:24Z</time><name>PT3291</name></trkpt>
<trkpt lat="52.044088" lon="05.764607"><ele>48.3</ele><time>2022-04-12T15:15:26Z</time><name>PT3292</name></trkpt>
<trkpt lat="52.044092" lon="05.764613"><ele>48.3</ele><time>2022-04-12T15:15:26Z</time><name>PT3293</name></trkpt>
<trkpt lat="52.044096" lon="05.764626"><ele>48.2</ele><time>2022-04-12T15:15:27Z</time><name>PT3294</name></trkpt>
<trkpt lat="52.044099" lon="05.764636"><ele>48.3</ele><time>2022-04-12T15:15:28Z</time><name>PT3295</name></trkpt>
<trkpt lat="52.044102" lon="05.764649"><ele>48.2</ele><time>2022-04-12T15:15:29Z</time><name>PT3296</name></trkpt>
<trkpt lat="52.044108" lon="05.764670"><ele>48.1</ele><time>2022-04-12T15:15:30Z</time><name>PT3297</name></trkpt>
<trkpt lat="52.044111" lon="05.764686"><ele>48.2</ele><time>2022-04-12T15:15:31Z</time><name>PT3298</name></trkpt>
<trkpt lat="52.044113" lon="05.764702"><ele>48.2</ele><time>2022-04-12T15:15:32Z</time><name>PT3299</name></trkpt>
<trkpt lat="52.044114" lon="05.764718"><ele>48.2</ele><time>2022-04-12T15:15:33Z</time><name>PT3300</name></trkpt>
<trkpt lat="52.044117" lon="05.764736"><ele>48.3</ele><time>2022-04-12T15:15:34Z</time><name>PT3301</name></trkpt>
<trkpt lat="52.044117" lon="05.764753"><ele>48.5</ele><time>2022-04-12T15:15:35Z</time><name>PT3302</name></trkpt>
<trkpt lat="52.044120" lon="05.764765"><ele>48.6</ele><time>2022-04-12T15:15:36Z</time><name>PT3303</name></trkpt>
<trkpt lat="52.044125" lon="05.764783"><ele>48.6</ele><time>2022-04-12T15:15:37Z</time><name>PT3304</name></trkpt>
<trkpt lat="52.044130" lon="05.764801"><ele>48.6</ele><time>2022-04-12T15:15:38Z</time><name>PT3305</name></trkpt>
<trkpt lat="52.044132" lon="05.764813"><ele>48.5</ele><time>2022-04-12T15:15:39Z</time><name>PT3306</name></trkpt>
<trkpt lat="52.044134" lon="05.764827"><ele>48.5</ele><time>2022-04-12T15:15:40Z</time><name>PT3307</name></trkpt>
<trkpt lat="52.044139" lon="05.764837"><ele>48.5</ele><time>2022-04-12T15:15:41Z</time><name>PT3308</name></trkpt>
<trkpt lat="52.044142" lon="05.764848"><ele>48.5</ele><time>2022-04-12T15:15:42Z</time><name>PT3309</name></trkpt>
<trkpt lat="52.044144" lon="05.764871"><ele>48.6</ele><time>2022-04-12T15:15:43Z</time><name>PT3310</name></trkpt>
<trkpt lat="52.044146" lon="05.764887"><ele>48.6</ele><time>2022-04-12T15:15:44Z</time><name>PT3311</name></trkpt>
<trkpt lat="52.044147" lon="05.764902"><ele>48.3</ele><time>2022-04-12T15:15:45Z</time><name>PT3312</name></trkpt>
<trkpt lat="52.044148" lon="05.764914"><ele>48.2</ele><time>2022-04-12T15:15:46Z</time><name>PT3313</name></trkpt>
<trkpt lat="52.044148" lon="05.764926"><ele>48.2</ele><time>2022-04-12T15:15:47Z</time><name>PT3314</name></trkpt>
<trkpt lat="52.044149" lon="05.764935"><ele>48.2</ele><time>2022-04-12T15:15:48Z</time><name>PT3315</name></trkpt>
<trkpt lat="52.044152" lon="05.764943"><ele>48.2</ele><time>2022-04-12T15:15:49Z</time><name>PT3316</name></trkpt>
<trkpt lat="52.044154" lon="05.764954"><ele>48.2</ele><time>2022-04-12T15:15:50Z</time><name>PT3317</name></trkpt>
<trkpt lat="52.044157" lon="05.764970"><ele>48.2</ele><time>2022-04-12T15:15:51Z</time><name>PT3318</name></trkpt>
<trkpt lat="52.044160" lon="05.764982"><ele>48.2</ele><time>2022-04-12T15:15:52Z</time><name>PT3319</name></trkpt>
<trkpt lat="52.044164" lon="05.764999"><ele>48.2</ele><time>2022-04-12T15:15:53Z</time><name>PT3320</name></trkpt>
<trkpt lat="52.044168" lon="05.765017"><ele>48.2</ele><time>2022-04-12T15:15:54Z</time><name>PT3321</name></trkpt>
<trkpt lat="52.044170" lon="05.765033"><ele>48.5</ele><time>2022-04-12T15:15:55Z</time><name>PT3322</name></trkpt>
<trkpt lat="52.044174" lon="05.765048"><ele>48.6</ele><time>2022-04-12T15:15:56Z</time><name>PT3323</name></trkpt>
<trkpt lat="52.044179" lon="05.765066"><ele>48.4</ele><time>2022-04-12T15:15:57Z</time><name>PT3324</name></trkpt>
<trkpt lat="52.044184" lon="05.765089"><ele>48.5</ele><time>2022-04-12T15:15:58Z</time><name>PT3325</name></trkpt>
<trkpt lat="52.044191" lon="05.765108"><ele>48.7</ele><time>2022-04-12T15:15:59Z</time><name>PT3326</name></trkpt>
<trkpt lat="52.044196" lon="05.765120"><ele>48.6</ele><time>2022-04-12T15:16:00Z</time><name>PT3327</name></trkpt>
<trkpt lat="52.044200" lon="05.765129"><ele>48.7</ele><time>2022-04-12T15:16:01Z</time><name>PT3328</name></trkpt>
<trkpt lat="52.044206" lon="05.765139"><ele>48.7</ele><time>2022-04-12T15:16:02Z</time><name>PT3329</name></trkpt>
<trkpt lat="52.044211" lon="05.765156"><ele>48.6</ele><time>2022-04-12T15:16:03Z</time><name>PT3330</name></trkpt>
<trkpt lat="52.044213" lon="05.765176"><ele>48.6</ele><time>2022-04-12T15:16:04Z</time><name>PT3331</name></trkpt>
<trkpt lat="52.044217" lon="05.765186"><ele>48.6</ele><time>2022-04-12T15:16:05Z</time><name>PT3332</name></trkpt>
<trkpt lat="52.044222" lon="05.765203"><ele>48.6</ele><time>2022-04-12T15:16:06Z</time><name>PT3333</name></trkpt>
<trkpt lat="52.044223" lon="05.765216"><ele>48.7</ele><time>2022-04-12T15:16:07Z</time><name>PT3334</name></trkpt>
<trkpt lat="52.044225" lon="05.765233"><ele>48.7</ele><time>2022-04-12T15:16:08Z</time><name>PT3335</name></trkpt>
<trkpt lat="52.044226" lon="05.765242"><ele>48.7</ele><time>2022-04-12T15:16:09Z</time><name>PT3336</name></trkpt>
<trkpt lat="52.044228" lon="05.765250"><ele>48.8</ele><time>2022-04-12T15:16:10Z</time><name>PT3337</name></trkpt>
<trkpt lat="52.044233" lon="05.765252"><ele>48.7</ele><time>2022-04-12T15:16:11Z</time><name>PT3338</name></trkpt>
<trkpt lat="52.044238" lon="05.765270"><ele>48.7</ele><time>2022-04-12T15:16:12Z</time><name>PT3339</name></trkpt>
<trkpt lat="52.044243" lon="05.765294"><ele>48.7</ele><time>2022-04-12T15:16:13Z</time><name>PT3340</name></trkpt>
<trkpt lat="52.044242" lon="05.765313"><ele>48.8</ele><time>2022-04-12T15:16:14Z</time><name>PT3341</name></trkpt>
<trkpt lat="52.044244" lon="05.765330"><ele>49</ele><time>2022-04-12T15:16:15Z</time><name>PT3342</name></trkpt>
<trkpt lat="52.044245" lon="05.765342"><ele>49</ele><time>2022-04-12T15:16:16Z</time><name>PT3343</name></trkpt>
<trkpt lat="52.044247" lon="05.765364"><ele>49.1</ele><time>2022-04-12T15:16:17Z</time><name>PT3344</name></trkpt>
<trkpt lat="52.044252" lon="05.765386"><ele>49.1</ele><time>2022-04-12T15:16:18Z</time><name>PT3345</name></trkpt>
<trkpt lat="52.044255" lon="05.765408"><ele>49.1</ele><time>2022-04-12T15:16:19Z</time><name>PT3346</name></trkpt>
<trkpt lat="52.044255" lon="05.765423"><ele>48.9</ele><time>2022-04-12T15:16:20Z</time><name>PT3347</name></trkpt>
<trkpt lat="52.044257" lon="05.765434"><ele>49</ele><time>2022-04-12T15:16:21Z</time><name>PT3348</name></trkpt>
<trkpt lat="52.044241" lon="05.765444"><ele>49.1</ele><time>2022-04-12T15:16:22Z</time><name>PT3349</name></trkpt>
<trkpt lat="52.044242" lon="05.765471"><ele>49</ele><time>2022-04-12T15:16:23Z</time><name>PT3350</name></trkpt>
<trkpt lat="52.044245" lon="05.765496"><ele>49.2</ele><time>2022-04-12T15:16:24Z</time><name>PT3351</name></trkpt>
<trkpt lat="52.044247" lon="05.765517"><ele>49.2</ele><time>2022-04-12T15:16:25Z</time><name>PT3352</name></trkpt>
<trkpt lat="52.044252" lon="05.765532"><ele>49.5</ele><time>2022-04-12T15:16:26Z</time><name>PT3353</name></trkpt>
<trkpt lat="52.044254" lon="05.765539"><ele>49.6</ele><time>2022-04-12T15:16:27Z</time><name>PT3354</name></trkpt>
<trkpt lat="52.044259" lon="05.765558"><ele>49.7</ele><time>2022-04-12T15:16:28Z</time><name>PT3355</name></trkpt>
<trkpt lat="52.044261" lon="05.765581"><ele>49.5</ele><time>2022-04-12T15:16:29Z</time><name>PT3356</name></trkpt>
<trkpt lat="52.044261" lon="05.765602"><ele>49.7</ele><time>2022-04-12T15:16:30Z</time><name>PT3357</name></trkpt>
<trkpt lat="52.044263" lon="05.765617"><ele>49.9</ele><time>2022-04-12T15:16:31Z</time><name>PT3358</name></trkpt>
<trkpt lat="52.044266" lon="05.765633"><ele>49.8</ele><time>2022-04-12T15:16:32Z</time><name>PT3359</name></trkpt>
<trkpt lat="52.044270" lon="05.765658"><ele>49.9</ele><time>2022-04-12T15:16:33Z</time><name>PT3360</name></trkpt>
<trkpt lat="52.044274" lon="05.765683"><ele>49.8</ele><time>2022-04-12T15:16:34Z</time><name>PT3361</name></trkpt>
<trkpt lat="52.044276" lon="05.765698"><ele>49.8</ele><time>2022-04-12T15:16:35Z</time><name>PT3362</name></trkpt>
<trkpt lat="52.044278" lon="05.765715"><ele>49.7</ele><time>2022-04-12T15:16:36Z</time><name>PT3363</name></trkpt>
<trkpt lat="52.044279" lon="05.765728"><ele>49.6</ele><time>2022-04-12T15:16:37Z</time><name>PT3364</name></trkpt>
<trkpt lat="52.044279" lon="05.765736"><ele>49.6</ele><time>2022-04-12T15:16:38Z</time><name>PT3365</name></trkpt>
<trkpt lat="52.044289" lon="05.765748"><ele>49.6</ele><time>2022-04-12T15:16:39Z</time><name>PT3366</name></trkpt>
<trkpt lat="52.044298" lon="05.765774"><ele>49.7</ele><time>2022-04-12T15:16:40Z</time><name>PT3367</name></trkpt>
<trkpt lat="52.044303" lon="05.765789"><ele>49.6</ele><time>2022-04-12T15:16:41Z</time><name>PT3368</name></trkpt>
<trkpt lat="52.044304" lon="05.765797"><ele>49.6</ele><time>2022-04-12T15:16:42Z</time><name>PT3369</name></trkpt>
<trkpt lat="52.044303" lon="05.765820"><ele>49.5</ele><time>2022-04-12T15:16:43Z</time><name>PT3370</name></trkpt>
<trkpt lat="52.044304" lon="05.765841"><ele>49.6</ele><time>2022-04-12T15:16:44Z</time><name>PT3371</name></trkpt>
<trkpt lat="52.044306" lon="05.765856"><ele>49.5</ele><time>2022-04-12T15:16:45Z</time><name>PT3372</name></trkpt>
<trkpt lat="52.044310" lon="05.765869"><ele>49.5</ele><time>2022-04-12T15:16:46Z</time><name>PT3373</name></trkpt>
<trkpt lat="52.044317" lon="05.765883"><ele>49.6</ele><time>2022-04-12T15:16:47Z</time><name>PT3374</name></trkpt>
<trkpt lat="52.044320" lon="05.765903"><ele>49.6</ele><time>2022-04-12T15:16:48Z</time><name>PT3375</name></trkpt>
<trkpt lat="52.044323" lon="05.765920"><ele>49.6</ele><time>2022-04-12T15:16:49Z</time><name>PT3376</name></trkpt>
<trkpt lat="52.044324" lon="05.765936"><ele>49.6</ele><time>2022-04-12T15:16:50Z</time><name>PT3377</name></trkpt>
<trkpt lat="52.044324" lon="05.765951"><ele>49.6</ele><time>2022-04-12T15:16:51Z</time><name>PT3378</name></trkpt>
<trkpt lat="52.044326" lon="05.765965"><ele>49.5</ele><time>2022-04-12T15:16:52Z</time><name>PT3379</name></trkpt>
<trkpt lat="52.044331" lon="05.765980"><ele>49.5</ele><time>2022-04-12T15:16:53Z</time><name>PT3380</name></trkpt>
<trkpt lat="52.044332" lon="05.765995"><ele>49.6</ele><time>2022-04-12T15:16:54Z</time><name>PT3381</name></trkpt>
<trkpt lat="52.044332" lon="05.766010"><ele>49.7</ele><time>2022-04-12T15:16:55Z</time><name>PT3382</name></trkpt>
<trkpt lat="52.044337" lon="05.766024"><ele>49.7</ele><time>2022-04-12T15:16:56Z</time><name>PT3383</name></trkpt>
<trkpt lat="52.044340" lon="05.766037"><ele>49.8</ele><time>2022-04-12T15:16:57Z</time><name>PT3384</name></trkpt>
<trkpt lat="52.044342" lon="05.766056"><ele>49.9</ele><time>2022-04-12T15:16:58Z</time><name>PT3385</name></trkpt>
<trkpt lat="52.044346" lon="05.766069"><ele>49.9</ele><time>2022-04-12T15:16:59Z</time><name>PT3386</name></trkpt>
<trkpt lat="52.044348" lon="05.766076"><ele>49.9</ele><time>2022-04-12T15:17:00Z</time><name>PT3387</name></trkpt>
<trkpt lat="52.044351" lon="05.766094"><ele>50.1</ele><time>2022-04-12T15:17:01Z</time><name>PT3388</name></trkpt>
<trkpt lat="52.044357" lon="05.766113"><ele>50.2</ele><time>2022-04-12T15:17:02Z</time><name>PT3389</name></trkpt>
<trkpt lat="52.044362" lon="05.766129"><ele>50.1</ele><time>2022-04-12T15:17:03Z</time><name>PT3390</name></trkpt>
<trkpt lat="52.044364" lon="05.766153"><ele>50.1</ele><time>2022-04-12T15:17:04Z</time><name>PT3391</name></trkpt>
<trkpt lat="52.044364" lon="05.766164"><ele>50.1</ele><time>2022-04-12T15:17:05Z</time><name>PT3392</name></trkpt>
<trkpt lat="52.044365" lon="05.766176"><ele>50.1</ele><time>2022-04-12T15:17:06Z</time><name>PT3393</name></trkpt>
<trkpt lat="52.044370" lon="05.766189"><ele>50.1</ele><time>2022-04-12T15:17:07Z</time><name>PT3394</name></trkpt>
<trkpt lat="52.044377" lon="05.766203"><ele>50</ele><time>2022-04-12T15:17:08Z</time><name>PT3395</name></trkpt>
<trkpt lat="52.044379" lon="05.766217"><ele>50</ele><time>2022-04-12T15:17:09Z</time><name>PT3396</name></trkpt>
<trkpt lat="52.044383" lon="05.766223"><ele>49.9</ele><time>2022-04-12T15:17:10Z</time><name>PT3397</name></trkpt>
<trkpt lat="52.044387" lon="05.766233"><ele>49.9</ele><time>2022-04-12T15:17:11Z</time><name>PT3398</name></trkpt>
<trkpt lat="52.044391" lon="05.766247"><ele>50</ele><time>2022-04-12T15:17:12Z</time><name>PT3399</name></trkpt>
<trkpt lat="52.044396" lon="05.766261"><ele>50.2</ele><time>2022-04-12T15:17:13Z</time><name>PT3400</name></trkpt>
<trkpt lat="52.044399" lon="05.766275"><ele>50.2</ele><time>2022-04-12T15:17:14Z</time><name>PT3401</name></trkpt>
<trkpt lat="52.044408" lon="05.766292"><ele>50.3</ele><time>2022-04-12T15:17:15Z</time><name>PT3402</name></trkpt>
<trkpt lat="52.044411" lon="05.766303"><ele>50.5</ele><time>2022-04-12T15:17:16Z</time><name>PT3403</name></trkpt>
<trkpt lat="52.044412" lon="05.766308"><ele>50.3</ele><time>2022-04-12T15:17:17Z</time><name>PT3404</name></trkpt>
<trkpt lat="52.044416" lon="05.766319"><ele>50.3</ele><time>2022-04-12T15:17:18Z</time><name>PT3405</name></trkpt>
<trkpt lat="52.044420" lon="05.766335"><ele>50.4</ele><time>2022-04-12T15:17:19Z</time><name>PT3406</name></trkpt>
<trkpt lat="52.044420" lon="05.766355"><ele>50.3</ele><time>2022-04-12T15:17:20Z</time><name>PT3407</name></trkpt>
<trkpt lat="52.044422" lon="05.766375"><ele>50.3</ele><time>2022-04-12T15:17:21Z</time><name>PT3408</name></trkpt>
<trkpt lat="52.044426" lon="05.766386"><ele>50.4</ele><time>2022-04-12T15:17:22Z</time><name>PT3409</name></trkpt>
<trkpt lat="52.044433" lon="05.766395"><ele>50.5</ele><time>2022-04-12T15:17:23Z</time><name>PT3410</name></trkpt>
<trkpt lat="52.044437" lon="05.766409"><ele>50.6</ele><time>2022-04-12T15:17:24Z</time><name>PT3411</name></trkpt>
<trkpt lat="52.044441" lon="05.766424"><ele>50.7</ele><time>2022-04-12T15:17:25Z</time><name>PT3412</name></trkpt>
<trkpt lat="52.044441" lon="05.766436"><ele>50.7</ele><time>2022-04-12T15:17:26Z</time><name>PT3413</name></trkpt>
<trkpt lat="52.044443" lon="05.766451"><ele>50.8</ele><time>2022-04-12T15:17:27Z</time><name>PT3414</name></trkpt>
<trkpt lat="52.044448" lon="05.766469"><ele>50.8</ele><time>2022-04-12T15:17:28Z</time><name>PT3415</name></trkpt>
<trkpt lat="52.044448" lon="05.766483"><ele>50.9</ele><time>2022-04-12T15:17:29Z</time><name>PT3416</name></trkpt>
<trkpt lat="52.044449" lon="05.766496"><ele>51</ele><time>2022-04-12T15:17:30Z</time><name>PT3417</name></trkpt>
<trkpt lat="52.044452" lon="05.766505"><ele>50.9</ele><time>2022-04-12T15:17:31Z</time><name>PT3418</name></trkpt>
<trkpt lat="52.044455" lon="05.766520"><ele>50.8</ele><time>2022-04-12T15:17:32Z</time><name>PT3419</name></trkpt>
<trkpt lat="52.044456" lon="05.766533"><ele>50.7</ele><time>2022-04-12T15:17:33Z</time><name>PT3420</name></trkpt>
<trkpt lat="52.044459" lon="05.766541"><ele>50.7</ele><time>2022-04-12T15:17:34Z</time><name>PT3421</name></trkpt>
<trkpt lat="52.044461" lon="05.766552"><ele>51</ele><time>2022-04-12T15:17:35Z</time><name>PT3422</name></trkpt>
<trkpt lat="52.044463" lon="05.766565"><ele>50.9</ele><time>2022-04-12T15:17:36Z</time><name>PT3423</name></trkpt>
<trkpt lat="52.044463" lon="05.766587"><ele>51.2</ele><time>2022-04-12T15:17:37Z</time><name>PT3424</name></trkpt>
<trkpt lat="52.044468" lon="05.766603"><ele>51.1</ele><time>2022-04-12T15:17:38Z</time><name>PT3425</name></trkpt>
<trkpt lat="52.044470" lon="05.766615"><ele>51.1</ele><time>2022-04-12T15:17:39Z</time><name>PT3426</name></trkpt>
<trkpt lat="52.044473" lon="05.766627"><ele>50.9</ele><time>2022-04-12T15:17:40Z</time><name>PT3427</name></trkpt>
<trkpt lat="52.044475" lon="05.766643"><ele>51</ele><time>2022-04-12T15:17:41Z</time><name>PT3428</name></trkpt>
<trkpt lat="52.044474" lon="05.766661"><ele>51.1</ele><time>2022-04-12T15:17:42Z</time><name>PT3429</name></trkpt>
<trkpt lat="52.044476" lon="05.766669"><ele>51.1</ele><time>2022-04-12T15:17:43Z</time><name>PT3430</name></trkpt>
<trkpt lat="52.044482" lon="05.766682"><ele>51.1</ele><time>2022-04-12T15:17:44Z</time><name>PT3431</name></trkpt>
<trkpt lat="52.044487" lon="05.766696"><ele>51.1</ele><time>2022-04-12T15:17:45Z</time><name>PT3432</name></trkpt>
<trkpt lat="52.044488" lon="05.766702"><ele>51.2</ele><time>2022-04-12T15:17:46Z</time><name>PT3433</name></trkpt>
<trkpt lat="52.044489" lon="05.766718"><ele>51.2</ele><time>2022-04-12T15:17:47Z</time><name>PT3434</name></trkpt>
<trkpt lat="52.044494" lon="05.766726"><ele>51.2</ele><time>2022-04-12T15:17:48Z</time><name>PT3435</name></trkpt>
<trkpt lat="52.044502" lon="05.766742"><ele>51.3</ele><time>2022-04-12T15:17:49Z</time><name>PT3436</name></trkpt>
<trkpt lat="52.044506" lon="05.766754"><ele>51.4</ele><time>2022-04-12T15:17:50Z</time><name>PT3437</name></trkpt>
<trkpt lat="52.044507" lon="05.766766"><ele>51.4</ele><time>2022-04-12T15:17:52Z</time><name>PT3438</name></trkpt>
<trkpt lat="52.044513" lon="05.766779"><ele>51.3</ele><time>2022-04-12T15:17:52Z</time><name>PT3439</name></trkpt>
<trkpt lat="52.044515" lon="05.766786"><ele>51.2</ele><time>2022-04-12T15:17:53Z</time><name>PT3440</name></trkpt>
<trkpt lat="52.044516" lon="05.766801"><ele>51</ele><time>2022-04-12T15:17:54Z</time><name>PT3441</name></trkpt>
<trkpt lat="52.044516" lon="05.766816"><ele>51.1</ele><time>2022-04-12T15:17:55Z</time><name>PT3442</name></trkpt>
<trkpt lat="52.044519" lon="05.766824"><ele>50.9</ele><time>2022-04-12T15:17:56Z</time><name>PT3443</name></trkpt>
<trkpt lat="52.044522" lon="05.766848"><ele>50.8</ele><time>2022-04-12T15:17:57Z</time><name>PT3444</name></trkpt>
<trkpt lat="52.044525" lon="05.766860"><ele>50.9</ele><time>2022-04-12T15:17:58Z</time><name>PT3445</name></trkpt>
<trkpt lat="52.044529" lon="05.766869"><ele>50.9</ele><time>2022-04-12T15:17:59Z</time><name>PT3446</name></trkpt>
<trkpt lat="52.044535" lon="05.766880"><ele>50.7</ele><time>2022-04-12T15:18:00Z</time><name>PT3447</name></trkpt>
<trkpt lat="52.044539" lon="05.766896"><ele>50.8</ele><time>2022-04-12T15:18:01Z</time><name>PT3448</name></trkpt>
<trkpt lat="52.044541" lon="05.766915"><ele>50.8</ele><time>2022-04-12T15:18:02Z</time><name>PT3449</name></trkpt>
<trkpt lat="52.044544" lon="05.766931"><ele>50.7</ele><time>2022-04-12T15:18:03Z</time><name>PT3450</name></trkpt>
<trkpt lat="52.044547" lon="05.766944"><ele>50.7</ele><time>2022-04-12T15:18:04Z</time><name>PT3451</name></trkpt>
<trkpt lat="52.044552" lon="05.766966"><ele>50.7</ele><time>2022-04-12T15:18:05Z</time><name>PT3452</name></trkpt>
<trkpt lat="52.044556" lon="05.766986"><ele>50.7</ele><time>2022-04-12T15:18:06Z</time><name>PT3453</name></trkpt>
<trkpt lat="52.044560" lon="05.767003"><ele>50.7</ele><time>2022-04-12T15:18:07Z</time><name>PT3454</name></trkpt>
<trkpt lat="52.044563" lon="05.767014"><ele>50.9</ele><time>2022-04-12T15:18:08Z</time><name>PT3455</name></trkpt>
<trkpt lat="52.044563" lon="05.767028"><ele>51.1</ele><time>2022-04-12T15:18:09Z</time><name>PT3456</name></trkpt>
<trkpt lat="52.044563" lon="05.767052"><ele>51.1</ele><time>2022-04-12T15:18:10Z</time><name>PT3457</name></trkpt>
<trkpt lat="52.044567" lon="05.767072"><ele>51.2</ele><time>2022-04-12T15:18:11Z</time><name>PT3458</name></trkpt>
<trkpt lat="52.044575" lon="05.767089"><ele>51.2</ele><time>2022-04-12T15:18:12Z</time><name>PT3459</name></trkpt>
<trkpt lat="52.044580" lon="05.767105"><ele>51.3</ele><time>2022-04-12T15:18:14Z</time><name>PT3460</name></trkpt>
<trkpt lat="52.044582" lon="05.767120"><ele>51.4</ele><time>2022-04-12T15:18:14Z</time><name>PT3461</name></trkpt>
<trkpt lat="52.044584" lon="05.767134"><ele>51.6</ele><time>2022-04-12T15:18:15Z</time><name>PT3462</name></trkpt>
<trkpt lat="52.044587" lon="05.767134"><ele>51.7</ele><time>2022-04-12T15:18:16Z</time><name>PT3463</name></trkpt>
<trkpt lat="52.044592" lon="05.767140"><ele>51.5</ele><time>2022-04-12T15:18:17Z</time><name>PT3464</name></trkpt>
<trkpt lat="52.044594" lon="05.767154"><ele>51.5</ele><time>2022-04-12T15:18:18Z</time><name>PT3465</name></trkpt>
<trkpt lat="52.044599" lon="05.767173"><ele>51.7</ele><time>2022-04-12T15:18:19Z</time><name>PT3466</name></trkpt>
<trkpt lat="52.044604" lon="05.767184"><ele>51.5</ele><time>2022-04-12T15:18:20Z</time><name>PT3467</name></trkpt>
<trkpt lat="52.044608" lon="05.767190"><ele>51.7</ele><time>2022-04-12T15:18:22Z</time><name>PT3468</name></trkpt>
<trkpt lat="52.044613" lon="05.767198"><ele>51.7</ele><time>2022-04-12T15:18:22Z</time><name>PT3469</name></trkpt>
<trkpt lat="52.044615" lon="05.767219"><ele>51.7</ele><time>2022-04-12T15:18:24Z</time><name>PT3470</name></trkpt>
<trkpt lat="52.044618" lon="05.767233"><ele>51.7</ele><time>2022-04-12T15:18:24Z</time><name>PT3471</name></trkpt>
<trkpt lat="52.044620" lon="05.767248"><ele>51.6</ele><time>2022-04-12T15:18:25Z</time><name>PT3472</name></trkpt>
<trkpt lat="52.044625" lon="05.767263"><ele>51.6</ele><time>2022-04-12T15:18:26Z</time><name>PT3473</name></trkpt>
<trkpt lat="52.044626" lon="05.767277"><ele>51.5</ele><time>2022-04-12T15:18:27Z</time><name>PT3474</name></trkpt>
<trkpt lat="52.044624" lon="05.767287"><ele>51.4</ele><time>2022-04-12T15:18:28Z</time><name>PT3475</name></trkpt>
<trkpt lat="52.044623" lon="05.767309"><ele>51.6</ele><time>2022-04-12T15:18:29Z</time><name>PT3476</name></trkpt>
<trkpt lat="52.044628" lon="05.767322"><ele>51.5</ele><time>2022-04-12T15:18:30Z</time><name>PT3477</name></trkpt>
<trkpt lat="52.044630" lon="05.767337"><ele>51.4</ele><time>2022-04-12T15:18:32Z</time><name>PT3478</name></trkpt>
<trkpt lat="52.044633" lon="05.767346"><ele>51.3</ele><time>2022-04-12T15:18:32Z</time><name>PT3479</name></trkpt>
<trkpt lat="52.044633" lon="05.767355"><ele>51.3</ele><time>2022-04-12T15:18:34Z</time><name>PT3480</name></trkpt>
<trkpt lat="52.044638" lon="05.767379"><ele>51.2</ele><time>2022-04-12T15:18:34Z</time><name>PT3481</name></trkpt>
<trkpt lat="52.044637" lon="05.767403"><ele>51.5</ele><time>2022-04-12T15:18:35Z</time><name>PT3482</name></trkpt>
<trkpt lat="52.044637" lon="05.767408"><ele>51.7</ele><time>2022-04-12T15:18:36Z</time><name>PT3483</name></trkpt>
<trkpt lat="52.044640" lon="05.767422"><ele>51.7</ele><time>2022-04-12T15:18:37Z</time><name>PT3484</name></trkpt>
<trkpt lat="52.044641" lon="05.767432"><ele>51.7</ele><time>2022-04-12T15:18:38Z</time><name>PT3485</name></trkpt>
<trkpt lat="52.044643" lon="05.767430"><ele>51.7</ele><time>2022-04-12T15:18:39Z</time><name>PT3486</name></trkpt>
<trkpt lat="52.044640" lon="05.767452"><ele>51.6</ele><time>2022-04-12T15:18:40Z</time><name>PT3487</name></trkpt>
<trkpt lat="52.044641" lon="05.767463"><ele>51.5</ele><time>2022-04-12T15:18:42Z</time><name>PT3488</name></trkpt>
<trkpt lat="52.044644" lon="05.767473"><ele>51.6</ele><time>2022-04-12T15:18:42Z</time><name>PT3489</name></trkpt>
<trkpt lat="52.044645" lon="05.767488"><ele>51.5</ele><time>2022-04-12T15:18:43Z</time><name>PT3490</name></trkpt>
<trkpt lat="52.044643" lon="05.767497"><ele>51.5</ele><time>2022-04-12T15:18:44Z</time><name>PT3491</name></trkpt>
<trkpt lat="52.044645" lon="05.767503"><ele>51.7</ele><time>2022-04-12T15:18:45Z</time><name>PT3492</name></trkpt>
<trkpt lat="52.044643" lon="05.767507"><ele>51.7</ele><time>2022-04-12T15:18:46Z</time><name>PT3493</name></trkpt>
<trkpt lat="52.044645" lon="05.767517"><ele>51.7</ele><time>2022-04-12T15:18:47Z</time><name>PT3494</name></trkpt>
<trkpt lat="52.044647" lon="05.767531"><ele>51.7</ele><time>2022-04-12T15:18:48Z</time><name>PT3495</name></trkpt>
<trkpt lat="52.044649" lon="05.767543"><ele>51.6</ele><time>2022-04-12T15:18:49Z</time><name>PT3496</name></trkpt>
<trkpt lat="52.044651" lon="05.767553"><ele>51.6</ele><time>2022-04-12T15:18:50Z</time><name>PT3497</name></trkpt>
<trkpt lat="52.044649" lon="05.767561"><ele>51.7</ele><time>2022-04-12T15:18:51Z</time><name>PT3498</name></trkpt>
<trkpt lat="52.044649" lon="05.767566"><ele>51.7</ele><time>2022-04-12T15:18:52Z</time><name>PT3499</name></trkpt>
<trkpt lat="52.044650" lon="05.767579"><ele>51.7</ele><time>2022-04-12T15:18:53Z</time><name>PT3500</name></trkpt>
<trkpt lat="52.044646" lon="05.767589"><ele>51.8</ele><time>2022-04-12T15:18:54Z</time><name>PT3501</name></trkpt>
<trkpt lat="52.044640" lon="05.767606"><ele>51.9</ele><time>2022-04-12T15:18:55Z</time><name>PT3502</name></trkpt>
<trkpt lat="52.044635" lon="05.767619"><ele>51.7</ele><time>2022-04-12T15:18:56Z</time><name>PT3503</name></trkpt>
<trkpt lat="52.044631" lon="05.767630"><ele>52.1</ele><time>2022-04-12T15:18:57Z</time><name>PT3504</name></trkpt>
<trkpt lat="52.044626" lon="05.767635"><ele>52</ele><time>2022-04-12T15:18:58Z</time><name>PT3505</name></trkpt>
<trkpt lat="52.044618" lon="05.767652"><ele>52</ele><time>2022-04-12T15:18:59Z</time><name>PT3506</name></trkpt>
<trkpt lat="52.044610" lon="05.767666"><ele>51.8</ele><time>2022-04-12T15:19:00Z</time><name>PT3507</name></trkpt>
<trkpt lat="52.044606" lon="05.767668"><ele>51.7</ele><time>2022-04-12T15:19:01Z</time><name>PT3508</name></trkpt>
<trkpt lat="52.044602" lon="05.767667"><ele>51.4</ele><time>2022-04-12T15:19:02Z</time><name>PT3509</name></trkpt>
<trkpt lat="52.044594" lon="05.767679"><ele>51.4</ele><time>2022-04-12T15:19:03Z</time><name>PT3510</name></trkpt>
<trkpt lat="52.044587" lon="05.767687"><ele>51.3</ele><time>2022-04-12T15:19:04Z</time><name>PT3511</name></trkpt>
<trkpt lat="52.044580" lon="05.767693"><ele>51.6</ele><time>2022-04-12T15:19:05Z</time><name>PT3512</name></trkpt>
<trkpt lat="52.044574" lon="05.767701"><ele>51.7</ele><time>2022-04-12T15:19:06Z</time><name>PT3513</name></trkpt>
<trkpt lat="52.044570" lon="05.767711"><ele>52</ele><time>2022-04-12T15:19:07Z</time><name>PT3514</name></trkpt>
<trkpt lat="52.044565" lon="05.767723"><ele>52</ele><time>2022-04-12T15:19:08Z</time><name>PT3515</name></trkpt>
<trkpt lat="52.044559" lon="05.767726"><ele>52</ele><time>2022-04-12T15:19:10Z</time><name>PT3516</name></trkpt>
<trkpt lat="52.044551" lon="05.767732"><ele>52</ele><time>2022-04-12T15:19:10Z</time><name>PT3517</name></trkpt>
<trkpt lat="52.044544" lon="05.767739"><ele>51.7</ele><time>2022-04-12T15:19:12Z</time><name>PT3518</name></trkpt>
<trkpt lat="52.044539" lon="05.767745"><ele>51.6</ele><time>2022-04-12T15:19:12Z</time><name>PT3519</name></trkpt>
<trkpt lat="52.044533" lon="05.767745"><ele>51.3</ele><time>2022-04-12T15:19:13Z</time><name>PT3520</name></trkpt>
<trkpt lat="52.044526" lon="05.767755"><ele>51.3</ele><time>2022-04-12T15:19:14Z</time><name>PT3521</name></trkpt>
<trkpt lat="52.044520" lon="05.767757"><ele>51.3</ele><time>2022-04-12T15:19:15Z</time><name>PT3522</name></trkpt>
<trkpt lat="52.044513" lon="05.767760"><ele>51.2</ele><time>2022-04-12T15:19:16Z</time><name>PT3523</name></trkpt>
<trkpt lat="52.044507" lon="05.767765"><ele>51.2</ele><time>2022-04-12T15:19:17Z</time><name>PT3524</name></trkpt>
<trkpt lat="52.044500" lon="05.767769"><ele>51.2</ele><time>2022-04-12T15:19:18Z</time><name>PT3525</name></trkpt>
<trkpt lat="52.044489" lon="05.767769"><ele>51.2</ele><time>2022-04-12T15:19:19Z</time><name>PT3526</name></trkpt>
<trkpt lat="52.044479" lon="05.767774"><ele>51.1</ele><time>2022-04-12T15:19:20Z</time><name>PT3527</name></trkpt>
<trkpt lat="52.044469" lon="05.767782"><ele>51.1</ele><time>2022-04-12T15:19:21Z</time><name>PT3528</name></trkpt>
<trkpt lat="52.044462" lon="05.767782"><ele>51.2</ele><time>2022-04-12T15:19:22Z</time><name>PT3529</name></trkpt>
<trkpt lat="52.044454" lon="05.767785"><ele>51.2</ele><time>2022-04-12T15:19:23Z</time><name>PT3530</name></trkpt>
<trkpt lat="52.044445" lon="05.767794"><ele>51.2</ele><time>2022-04-12T15:19:24Z</time><name>PT3531</name></trkpt>
<trkpt lat="52.044439" lon="05.767799"><ele>51.3</ele><time>2022-04-12T15:19:25Z</time><name>PT3532</name></trkpt>
<trkpt lat="52.044431" lon="05.767802"><ele>51.2</ele><time>2022-04-12T15:19:26Z</time><name>PT3533</name></trkpt>
<trkpt lat="52.044423" lon="05.767807"><ele>51.2</ele><time>2022-04-12T15:19:27Z</time><name>PT3534</name></trkpt>
<trkpt lat="52.044418" lon="05.767814"><ele>51</ele><time>2022-04-12T15:19:28Z</time><name>PT3535</name></trkpt>
<trkpt lat="52.044410" lon="05.767840"><ele>51.2</ele><time>2022-04-12T15:19:29Z</time><name>PT3536</name></trkpt>
<trkpt lat="52.044401" lon="05.767844"><ele>51.2</ele><time>2022-04-12T15:19:30Z</time><name>PT3537</name></trkpt>
<trkpt lat="52.044392" lon="05.767848"><ele>51.4</ele><time>2022-04-12T15:19:31Z</time><name>PT3538</name></trkpt>
<trkpt lat="52.044385" lon="05.767848"><ele>51.3</ele><time>2022-04-12T15:19:32Z</time><name>PT3539</name></trkpt>
<trkpt lat="52.044378" lon="05.767851"><ele>51.3</ele><time>2022-04-12T15:19:33Z</time><name>PT3540</name></trkpt>
<trkpt lat="52.044370" lon="05.767857"><ele>51.3</ele><time>2022-04-12T15:19:34Z</time><name>PT3541</name></trkpt>
<trkpt lat="52.044362" lon="05.767863"><ele>51.3</ele><time>2022-04-12T15:19:35Z</time><name>PT3542</name></trkpt>
<trkpt lat="52.044352" lon="05.767865"><ele>51.3</ele><time>2022-04-12T15:19:36Z</time><name>PT3543</name></trkpt>
<trkpt lat="52.044343" lon="05.767866"><ele>51.6</ele><time>2022-04-12T15:19:37Z</time><name>PT3544</name></trkpt>
<trkpt lat="52.044333" lon="05.767878"><ele>51.6</ele><time>2022-04-12T15:19:38Z</time><name>PT3545</name></trkpt>
<trkpt lat="52.044324" lon="05.767878"><ele>51.6</ele><time>2022-04-12T15:19:39Z</time><name>PT3546</name></trkpt>
<trkpt lat="52.044315" lon="05.767884"><ele>51.5</ele><time>2022-04-12T15:19:40Z</time><name>PT3547</name></trkpt>
<trkpt lat="52.044304" lon="05.767888"><ele>51.4</ele><time>2022-04-12T15:19:41Z</time><name>PT3548</name></trkpt>
<trkpt lat="52.044295" lon="05.767892"><ele>51.3</ele><time>2022-04-12T15:19:42Z</time><name>PT3549</name></trkpt>
<trkpt lat="52.044287" lon="05.767896"><ele>51.2</ele><time>2022-04-12T15:19:43Z</time><name>PT3550</name></trkpt>
<trkpt lat="52.044277" lon="05.767900"><ele>51.2</ele><time>2022-04-12T15:19:44Z</time><name>PT3551</name></trkpt>
<trkpt lat="52.044267" lon="05.767904"><ele>51.1</ele><time>2022-04-12T15:19:45Z</time><name>PT3552</name></trkpt>
<trkpt lat="52.044254" lon="05.767909"><ele>51.1</ele><time>2022-04-12T15:19:46Z</time><name>PT3553</name></trkpt>
<trkpt lat="52.044247" lon="05.767910"><ele>51</ele><time>2022-04-12T15:19:47Z</time><name>PT3554</name></trkpt>
<trkpt lat="52.044237" lon="05.767918"><ele>51</ele><time>2022-04-12T15:19:48Z</time><name>PT3555</name></trkpt>
<trkpt lat="52.044223" lon="05.767926"><ele>50.7</ele><time>2022-04-12T15:19:49Z</time><name>PT3556</name></trkpt>
<trkpt lat="52.044212" lon="05.767929"><ele>50.7</ele><time>2022-04-12T15:19:50Z</time><name>PT3557</name></trkpt>
<trkpt lat="52.044205" lon="05.767933"><ele>50.7</ele><time>2022-04-12T15:19:51Z</time><name>PT3558</name></trkpt>
<trkpt lat="52.044195" lon="05.767937"><ele>50.7</ele><time>2022-04-12T15:19:52Z</time><name>PT3559</name></trkpt>
<trkpt lat="52.044189" lon="05.767940"><ele>50.7</ele><time>2022-04-12T15:19:53Z</time><name>PT3560</name></trkpt>
<trkpt lat="52.044182" lon="05.767942"><ele>50.7</ele><time>2022-04-12T15:19:54Z</time><name>PT3561</name></trkpt>
<trkpt lat="52.044173" lon="05.767944"><ele>50.6</ele><time>2022-04-12T15:19:55Z</time><name>PT3562</name></trkpt>
<trkpt lat="52.044163" lon="05.767950"><ele>50.5</ele><time>2022-04-12T15:19:56Z</time><name>PT3563</name></trkpt>
<trkpt lat="52.044158" lon="05.767950"><ele>50.6</ele><time>2022-04-12T15:19:57Z</time><name>PT3564</name></trkpt>
<trkpt lat="52.044147" lon="05.767951"><ele>50.5</ele><time>2022-04-12T15:19:58Z</time><name>PT3565</name></trkpt>
<trkpt lat="52.044137" lon="05.767959"><ele>50.4</ele><time>2022-04-12T15:19:59Z</time><name>PT3566</name></trkpt>
<trkpt lat="52.044128" lon="05.767968"><ele>50.3</ele><time>2022-04-12T15:20:00Z</time><name>PT3567</name></trkpt>
<trkpt lat="52.044116" lon="05.767975"><ele>50.5</ele><time>2022-04-12T15:20:01Z</time><name>PT3568</name></trkpt>
<trkpt lat="52.044101" lon="05.767984"><ele>50.5</ele><time>2022-04-12T15:20:02Z</time><name>PT3569</name></trkpt>
<trkpt lat="52.044092" lon="05.767987"><ele>50.6</ele><time>2022-04-12T15:20:03Z</time><name>PT3570</name></trkpt>
<trkpt lat="52.044083" lon="05.767992"><ele>50.7</ele><time>2022-04-12T15:20:04Z</time><name>PT3571</name></trkpt>
<trkpt lat="52.044073" lon="05.768005"><ele>51</ele><time>2022-04-12T15:20:05Z</time><name>PT3572</name></trkpt>
<trkpt lat="52.044064" lon="05.768013"><ele>50.8</ele><time>2022-04-12T15:20:06Z</time><name>PT3573</name></trkpt>
<trkpt lat="52.044053" lon="05.768024"><ele>50.9</ele><time>2022-04-12T15:20:07Z</time><name>PT3574</name></trkpt>
<trkpt lat="52.044045" lon="05.768029"><ele>51</ele><time>2022-04-12T15:20:08Z</time><name>PT3575</name></trkpt>
<trkpt lat="52.044038" lon="05.768037"><ele>50.7</ele><time>2022-04-12T15:20:09Z</time><name>PT3576</name></trkpt>
<trkpt lat="52.044031" lon="05.768050"><ele>50.6</ele><time>2022-04-12T15:20:10Z</time><name>PT3577</name></trkpt>
<trkpt lat="52.044024" lon="05.768055"><ele>50.7</ele><time>2022-04-12T15:20:11Z</time><name>PT3578</name></trkpt>
<trkpt lat="52.044019" lon="05.768059"><ele>50.7</ele><time>2022-04-12T15:20:12Z</time><name>PT3579</name></trkpt>
<trkpt lat="52.044013" lon="05.768062"><ele>50.7</ele><time>2022-04-12T15:20:13Z</time><name>PT3580</name></trkpt>
<trkpt lat="52.044007" lon="05.768067"><ele>50.7</ele><time>2022-04-12T15:20:14Z</time><name>PT3581</name></trkpt>
<trkpt lat="52.044003" lon="05.768069"><ele>51</ele><time>2022-04-12T15:20:16Z</time><name>PT3582</name></trkpt>
<trkpt lat="52.043997" lon="05.768070"><ele>50.8</ele><time>2022-04-12T15:20:16Z</time><name>PT3583</name></trkpt>
<trkpt lat="52.043991" lon="05.768074"><ele>50.7</ele><time>2022-04-12T15:20:18Z</time><name>PT3584</name></trkpt>
<trkpt lat="52.043984" lon="05.768077"><ele>50.7</ele><time>2022-04-12T15:20:18Z</time><name>PT3585</name></trkpt>
<trkpt lat="52.043979" lon="05.768084"><ele>50.7</ele><time>2022-04-12T15:20:19Z</time><name>PT3586</name></trkpt>
<trkpt lat="52.043972" lon="05.768091"><ele>50.7</ele><time>2022-04-12T15:20:20Z</time><name>PT3587</name></trkpt>
<trkpt lat="52.043964" lon="05.768097"><ele>50.7</ele><time>2022-04-12T15:20:21Z</time><name>PT3588</name></trkpt>
<trkpt lat="52.043956" lon="05.768097"><ele>50.8</ele><time>2022-04-12T15:20:22Z</time><name>PT3589</name></trkpt>
<trkpt lat="52.043948" lon="05.768100"><ele>50.7</ele><time>2022-04-12T15:20:23Z</time><name>PT3590</name></trkpt>
<trkpt lat="52.043942" lon="05.768106"><ele>50.6</ele><time>2022-04-12T15:20:24Z</time><name>PT3591</name></trkpt>
<trkpt lat="52.043934" lon="05.768112"><ele>50.7</ele><time>2022-04-12T15:20:25Z</time><name>PT3592</name></trkpt>
<trkpt lat="52.043925" lon="05.768109"><ele>50.7</ele><time>2022-04-12T15:20:26Z</time><name>PT3593</name></trkpt>
<trkpt lat="52.043915" lon="05.768113"><ele>50.7</ele><time>2022-04-12T15:20:27Z</time><name>PT3594</name></trkpt>
<trkpt lat="52.043909" lon="05.768115"><ele>50.9</ele><time>2022-04-12T15:20:28Z</time><name>PT3595</name></trkpt>
<trkpt lat="52.043901" lon="05.768118"><ele>50.8</ele><time>2022-04-12T15:20:29Z</time><name>PT3596</name></trkpt>
<trkpt lat="52.043892" lon="05.768122"><ele>50.9</ele><time>2022-04-12T15:20:30Z</time><name>PT3597</name></trkpt>
<trkpt lat="52.043887" lon="05.768126"><ele>50.9</ele><time>2022-04-12T15:20:31Z</time><name>PT3598</name></trkpt>
<trkpt lat="52.043885" lon="05.768127"><ele>51.1</ele><time>2022-04-12T15:20:32Z</time><name>PT3599</name></trkpt>
<trkpt lat="52.043883" lon="05.768127"><ele>51.1</ele><time>2022-04-12T15:20:33Z</time><name>PT3600</name></trkpt>
<trkpt lat="52.043879" lon="05.768127"><ele>51.2</ele><time>2022-04-12T15:20:35Z</time><name>PT3601</name></trkpt>
<trkpt lat="52.043867" lon="05.768132"><ele>51.2</ele><time>2022-04-12T15:20:36Z</time><name>PT3602</name></trkpt>
<trkpt lat="52.043856" lon="05.768143"><ele>51</ele><time>2022-04-12T15:20:37Z</time><name>PT3603</name></trkpt>
<trkpt lat="52.043845" lon="05.768149"><ele>50.9</ele><time>2022-04-12T15:20:38Z</time><name>PT3604</name></trkpt>
<trkpt lat="52.043834" lon="05.768151"><ele>50.9</ele><time>2022-04-12T15:20:39Z</time><name>PT3605</name></trkpt>
<trkpt lat="52.043825" lon="05.768154"><ele>50.8</ele><time>2022-04-12T15:20:40Z</time><name>PT3606</name></trkpt>
<trkpt lat="52.043814" lon="05.768159"><ele>50.7</ele><time>2022-04-12T15:20:41Z</time><name>PT3607</name></trkpt>
<trkpt lat="52.043804" lon="05.768160"><ele>50.6</ele><time>2022-04-12T15:20:42Z</time><name>PT3608</name></trkpt>
<trkpt lat="52.043795" lon="05.768166"><ele>50.6</ele><time>2022-04-12T15:20:43Z</time><name>PT3609</name></trkpt>
<trkpt lat="52.043786" lon="05.768169"><ele>50.5</ele><time>2022-04-12T15:20:44Z</time><name>PT3610</name></trkpt>
<trkpt lat="52.043776" lon="05.768170"><ele>50.5</ele><time>2022-04-12T15:20:45Z</time><name>PT3611</name></trkpt>
<trkpt lat="52.043767" lon="05.768175"><ele>50.5</ele><time>2022-04-12T15:20:46Z</time><name>PT3612</name></trkpt>
<trkpt lat="52.043759" lon="05.768182"><ele>50.7</ele><time>2022-04-12T15:20:47Z</time><name>PT3613</name></trkpt>
<trkpt lat="52.043749" lon="05.768189"><ele>50.8</ele><time>2022-04-12T15:20:48Z</time><name>PT3614</name></trkpt>
<trkpt lat="52.043741" lon="05.768200"><ele>50.8</ele><time>2022-04-12T15:20:49Z</time><name>PT3615</name></trkpt>
<trkpt lat="52.043730" lon="05.768204"><ele>50.9</ele><time>2022-04-12T15:20:50Z</time><name>PT3616</name></trkpt>
<trkpt lat="52.043718" lon="05.768208"><ele>51</ele><time>2022-04-12T15:20:51Z</time><name>PT3617</name></trkpt>
<trkpt lat="52.043709" lon="05.768218"><ele>50.8</ele><time>2022-04-12T15:20:52Z</time><name>PT3618</name></trkpt>
<trkpt lat="52.043698" lon="05.768228"><ele>50.8</ele><time>2022-04-12T15:20:53Z</time><name>PT3619</name></trkpt>
<trkpt lat="52.043690" lon="05.768233"><ele>50.9</ele><time>2022-04-12T15:20:54Z</time><name>PT3620</name></trkpt>
<trkpt lat="52.043678" lon="05.768242"><ele>50.7</ele><time>2022-04-12T15:20:55Z</time><name>PT3621</name></trkpt>
<trkpt lat="52.043669" lon="05.768250"><ele>50.7</ele><time>2022-04-12T15:20:56Z</time><name>PT3622</name></trkpt>
<trkpt lat="52.043660" lon="05.768259"><ele>50.8</ele><time>2022-04-12T15:20:57Z</time><name>PT3623</name></trkpt>
<trkpt lat="52.043650" lon="05.768266"><ele>50.5</ele><time>2022-04-12T15:20:58Z</time><name>PT3624</name></trkpt>
<trkpt lat="52.043639" lon="05.768270"><ele>50.3</ele><time>2022-04-12T15:20:59Z</time><name>PT3625</name></trkpt>
<trkpt lat="52.043629" lon="05.768271"><ele>50.3</ele><time>2022-04-12T15:21:00Z</time><name>PT3626</name></trkpt>
<trkpt lat="52.043618" lon="05.768274"><ele>50.1</ele><time>2022-04-12T15:21:01Z</time><name>PT3627</name></trkpt>
<trkpt lat="52.043609" lon="05.768275"><ele>50.1</ele><time>2022-04-12T15:21:02Z</time><name>PT3628</name></trkpt>
<trkpt lat="52.043596" lon="05.768284"><ele>50.2</ele><time>2022-04-12T15:21:03Z</time><name>PT3629</name></trkpt>
<trkpt lat="52.043586" lon="05.768287"><ele>50.2</ele><time>2022-04-12T15:21:04Z</time><name>PT3630</name></trkpt>
<trkpt lat="52.043578" lon="05.768293"><ele>50</ele><time>2022-04-12T15:21:05Z</time><name>PT3631</name></trkpt>
<trkpt lat="52.043568" lon="05.768295"><ele>50.1</ele><time>2022-04-12T15:21:06Z</time><name>PT3632</name></trkpt>
<trkpt lat="52.043557" lon="05.768297"><ele>50</ele><time>2022-04-12T15:21:07Z</time><name>PT3633</name></trkpt>
<trkpt lat="52.043546" lon="05.768303"><ele>49.9</ele><time>2022-04-12T15:21:08Z</time><name>PT3634</name></trkpt>
<trkpt lat="52.043536" lon="05.768313"><ele>50.2</ele><time>2022-04-12T15:21:09Z</time><name>PT3635</name></trkpt>
<trkpt lat="52.043526" lon="05.768326"><ele>50.4</ele><time>2022-04-12T15:21:10Z</time><name>PT3636</name></trkpt>
<trkpt lat="52.043515" lon="05.768330"><ele>50.5</ele><time>2022-04-12T15:21:11Z</time><name>PT3637</name></trkpt>
<trkpt lat="52.043505" lon="05.768332"><ele>50.7</ele><time>2022-04-12T15:21:12Z</time><name>PT3638</name></trkpt>
<trkpt lat="52.043494" lon="05.768337"><ele>50.7</ele><time>2022-04-12T15:21:13Z</time><name>PT3639</name></trkpt>
<trkpt lat="52.043483" lon="05.768348"><ele>50.7</ele><time>2022-04-12T15:21:14Z</time><name>PT3640</name></trkpt>
<trkpt lat="52.043472" lon="05.768361"><ele>50.6</ele><time>2022-04-12T15:21:15Z</time><name>PT3641</name></trkpt>
<trkpt lat="52.043461" lon="05.768368"><ele>50.5</ele><time>2022-04-12T15:21:16Z</time><name>PT3642</name></trkpt>
<trkpt lat="52.043452" lon="05.768369"><ele>50.3</ele><time>2022-04-12T15:21:17Z</time><name>PT3643</name></trkpt>
<trkpt lat="52.043444" lon="05.768375"><ele>50.2</ele><time>2022-04-12T15:21:18Z</time><name>PT3644</name></trkpt>
<trkpt lat="52.043434" lon="05.768384"><ele>50.1</ele><time>2022-04-12T15:21:19Z</time><name>PT3645</name></trkpt>
<trkpt lat="52.043422" lon="05.768388"><ele>50</ele><time>2022-04-12T15:21:20Z</time><name>PT3646</name></trkpt>
<trkpt lat="52.043414" lon="05.768397"><ele>49.9</ele><time>2022-04-12T15:21:21Z</time><name>PT3647</name></trkpt>
<trkpt lat="52.043401" lon="05.768410"><ele>49.9</ele><time>2022-04-12T15:21:22Z</time><name>PT3648</name></trkpt>
<trkpt lat="52.043389" lon="05.768420"><ele>50.1</ele><time>2022-04-12T15:21:23Z</time><name>PT3649</name></trkpt>
<trkpt lat="52.043379" lon="05.768428"><ele>50.2</ele><time>2022-04-12T15:21:24Z</time><name>PT3650</name></trkpt>
<trkpt lat="52.043368" lon="05.768430"><ele>50.2</ele><time>2022-04-12T15:21:25Z</time><name>PT3651</name></trkpt>
<trkpt lat="52.043358" lon="05.768433"><ele>50.3</ele><time>2022-04-12T15:21:26Z</time><name>PT3652</name></trkpt>
<trkpt lat="52.043349" lon="05.768439"><ele>50.2</ele><time>2022-04-12T15:21:27Z</time><name>PT3653</name></trkpt>
<trkpt lat="52.043339" lon="05.768443"><ele>50.3</ele><time>2022-04-12T15:21:28Z</time><name>PT3654</name></trkpt>
<trkpt lat="52.043330" lon="05.768449"><ele>50.3</ele><time>2022-04-12T15:21:29Z</time><name>PT3655</name></trkpt>
<trkpt lat="52.043322" lon="05.768457"><ele>50.3</ele><time>2022-04-12T15:21:30Z</time><name>PT3656</name></trkpt>
<trkpt lat="52.043314" lon="05.768464"><ele>50.2</ele><time>2022-04-12T15:21:31Z</time><name>PT3657</name></trkpt>
<trkpt lat="52.043302" lon="05.768469"><ele>50.2</ele><time>2022-04-12T15:21:32Z</time><name>PT3658</name></trkpt>
<trkpt lat="52.043293" lon="05.768471"><ele>50.3</ele><time>2022-04-12T15:21:33Z</time><name>PT3659</name></trkpt>
<trkpt lat="52.043284" lon="05.768474"><ele>50.2</ele><time>2022-04-12T15:21:34Z</time><name>PT3660</name></trkpt>
<trkpt lat="52.043271" lon="05.768480"><ele>50.3</ele><time>2022-04-12T15:21:35Z</time><name>PT3661</name></trkpt>
<trkpt lat="52.043261" lon="05.768483"><ele>50.4</ele><time>2022-04-12T15:21:36Z</time><name>PT3662</name></trkpt>
<trkpt lat="52.043253" lon="05.768488"><ele>50.4</ele><time>2022-04-12T15:21:37Z</time><name>PT3663</name></trkpt>
<trkpt lat="52.043247" lon="05.768494"><ele>50.4</ele><time>2022-04-12T15:21:38Z</time><name>PT3664</name></trkpt>
<trkpt lat="52.043237" lon="05.768504"><ele>50.2</ele><time>2022-04-12T15:21:39Z</time><name>PT3665</name></trkpt>
<trkpt lat="52.043231" lon="05.768511"><ele>50.2</ele><time>2022-04-12T15:21:40Z</time><name>PT3666</name></trkpt>
<trkpt lat="52.043222" lon="05.768520"><ele>50.2</ele><time>2022-04-12T15:21:41Z</time><name>PT3667</name></trkpt>
<trkpt lat="52.043213" lon="05.768522"><ele>50.1</ele><time>2022-04-12T15:21:42Z</time><name>PT3668</name></trkpt>
<trkpt lat="52.043206" lon="05.768528"><ele>50</ele><time>2022-04-12T15:21:43Z</time><name>PT3669</name></trkpt>
<trkpt lat="52.043198" lon="05.768535"><ele>50.1</ele><time>2022-04-12T15:21:44Z</time><name>PT3670</name></trkpt>
<trkpt lat="52.043191" lon="05.768545"><ele>50.1</ele><time>2022-04-12T15:21:45Z</time><name>PT3671</name></trkpt>
<trkpt lat="52.043182" lon="05.768552"><ele>50.2</ele><time>2022-04-12T15:21:46Z</time><name>PT3672</name></trkpt>
<trkpt lat="52.043169" lon="05.768559"><ele>50.2</ele><time>2022-04-12T15:21:47Z</time><name>PT3673</name></trkpt>
<trkpt lat="52.043160" lon="05.768566"><ele>50.2</ele><time>2022-04-12T15:21:48Z</time><name>PT3674</name></trkpt>
<trkpt lat="52.043150" lon="05.768573"><ele>50</ele><time>2022-04-12T15:21:49Z</time><name>PT3675</name></trkpt>
<trkpt lat="52.043139" lon="05.768577"><ele>49.9</ele><time>2022-04-12T15:21:50Z</time><name>PT3676</name></trkpt>
<trkpt lat="52.043125" lon="05.768582"><ele>49.9</ele><time>2022-04-12T15:21:51Z</time><name>PT3677</name></trkpt>
<trkpt lat="52.043111" lon="05.768584"><ele>49.9</ele><time>2022-04-12T15:21:52Z</time><name>PT3678</name></trkpt>
<trkpt lat="52.043101" lon="05.768587"><ele>50</ele><time>2022-04-12T15:21:53Z</time><name>PT3679</name></trkpt>
<trkpt lat="52.043088" lon="05.768593"><ele>50.1</ele><time>2022-04-12T15:21:54Z</time><name>PT3680</name></trkpt>
<trkpt lat="52.043078" lon="05.768598"><ele>50</ele><time>2022-04-12T15:21:55Z</time><name>PT3681</name></trkpt>
<trkpt lat="52.043067" lon="05.768604"><ele>49.8</ele><time>2022-04-12T15:21:56Z</time><name>PT3682</name></trkpt>
<trkpt lat="52.043056" lon="05.768611"><ele>49.9</ele><time>2022-04-12T15:21:57Z</time><name>PT3683</name></trkpt>
<trkpt lat="52.043047" lon="05.768616"><ele>50</ele><time>2022-04-12T15:21:58Z</time><name>PT3684</name></trkpt>
<trkpt lat="52.043037" lon="05.768625"><ele>50</ele><time>2022-04-12T15:21:59Z</time><name>PT3685</name></trkpt>
<trkpt lat="52.043032" lon="05.768624"><ele>50</ele><time>2022-04-12T15:22:00Z</time><name>PT3686</name></trkpt>
<trkpt lat="52.043023" lon="05.768628"><ele>50.1</ele><time>2022-04-12T15:22:01Z</time><name>PT3687</name></trkpt>
<trkpt lat="52.043013" lon="05.768633"><ele>50</ele><time>2022-04-12T15:22:02Z</time><name>PT3688</name></trkpt>
<trkpt lat="52.043005" lon="05.768636"><ele>49.8</ele><time>2022-04-12T15:22:03Z</time><name>PT3689</name></trkpt>
<trkpt lat="52.042995" lon="05.768643"><ele>49.9</ele><time>2022-04-12T15:22:04Z</time><name>PT3690</name></trkpt>
<trkpt lat="52.042984" lon="05.768651"><ele>50</ele><time>2022-04-12T15:22:05Z</time><name>PT3691</name></trkpt>
<trkpt lat="52.042975" lon="05.768660"><ele>50.1</ele><time>2022-04-12T15:22:06Z</time><name>PT3692</name></trkpt>
<trkpt lat="52.042965" lon="05.768674"><ele>50.1</ele><time>2022-04-12T15:22:07Z</time><name>PT3693</name></trkpt>
<trkpt lat="52.042954" lon="05.768678"><ele>50.1</ele><time>2022-04-12T15:22:08Z</time><name>PT3694</name></trkpt>
<trkpt lat="52.042940" lon="05.768685"><ele>50.2</ele><time>2022-04-12T15:22:09Z</time><name>PT3695</name></trkpt>
<trkpt lat="52.042930" lon="05.768696"><ele>50.1</ele><time>2022-04-12T15:22:10Z</time><name>PT3696</name></trkpt>
<trkpt lat="52.042919" lon="05.768706"><ele>50.1</ele><time>2022-04-12T15:22:11Z</time><name>PT3697</name></trkpt>
<trkpt lat="52.042910" lon="05.768710"><ele>50.1</ele><time>2022-04-12T15:22:12Z</time><name>PT3698</name></trkpt>
<trkpt lat="52.042902" lon="05.768712"><ele>49.8</ele><time>2022-04-12T15:22:13Z</time><name>PT3699</name></trkpt>
<trkpt lat="52.042890" lon="05.768716"><ele>49.8</ele><time>2022-04-12T15:22:14Z</time><name>PT3700</name></trkpt>
<trkpt lat="52.042877" lon="05.768717"><ele>49.7</ele><time>2022-04-12T15:22:15Z</time><name>PT3701</name></trkpt>
<trkpt lat="52.042866" lon="05.768719"><ele>49.7</ele><time>2022-04-12T15:22:16Z</time><name>PT3702</name></trkpt>
<trkpt lat="52.042856" lon="05.768725"><ele>49.7</ele><time>2022-04-12T15:22:17Z</time><name>PT3703</name></trkpt>
<trkpt lat="52.042848" lon="05.768731"><ele>49.8</ele><time>2022-04-12T15:22:18Z</time><name>PT3704</name></trkpt>
<trkpt lat="52.042837" lon="05.768741"><ele>49.5</ele><time>2022-04-12T15:22:19Z</time><name>PT3705</name></trkpt>
<trkpt lat="52.042828" lon="05.768745"><ele>49.7</ele><time>2022-04-12T15:22:20Z</time><name>PT3706</name></trkpt>
<trkpt lat="52.042819" lon="05.768752"><ele>49.7</ele><time>2022-04-12T15:22:21Z</time><name>PT3707</name></trkpt>
<trkpt lat="52.042812" lon="05.768761"><ele>49.7</ele><time>2022-04-12T15:22:22Z</time><name>PT3708</name></trkpt>
<trkpt lat="52.042805" lon="05.768767"><ele>49.7</ele><time>2022-04-12T15:22:23Z</time><name>PT3709</name></trkpt>
<trkpt lat="52.042798" lon="05.768770"><ele>49.7</ele><time>2022-04-12T15:22:24Z</time><name>PT3710</name></trkpt>
<trkpt lat="52.042791" lon="05.768769"><ele>49.7</ele><time>2022-04-12T15:22:25Z</time><name>PT3711</name></trkpt>
<trkpt lat="52.042778" lon="05.768777"><ele>49.6</ele><time>2022-04-12T15:22:26Z</time><name>PT3712</name></trkpt>
<trkpt lat="52.042765" lon="05.768784"><ele>49.4</ele><time>2022-04-12T15:22:27Z</time><name>PT3713</name></trkpt>
<trkpt lat="52.042755" lon="05.768787"><ele>49.5</ele><time>2022-04-12T15:22:28Z</time><name>PT3714</name></trkpt>
<trkpt lat="52.042743" lon="05.768792"><ele>49.4</ele><time>2022-04-12T15:22:29Z</time><name>PT3715</name></trkpt>
<trkpt lat="52.042728" lon="05.768803"><ele>49.4</ele><time>2022-04-12T15:22:30Z</time><name>PT3716</name></trkpt>
<trkpt lat="52.042720" lon="05.768810"><ele>49.4</ele><time>2022-04-12T15:22:31Z</time><name>PT3717</name></trkpt>
<trkpt lat="52.042714" lon="05.768818"><ele>49.5</ele><time>2022-04-12T15:22:32Z</time><name>PT3718</name></trkpt>
<trkpt lat="52.042705" lon="05.768825"><ele>49.5</ele><time>2022-04-12T15:22:33Z</time><name>PT3719</name></trkpt>
<trkpt lat="52.042696" lon="05.768827"><ele>49.5</ele><time>2022-04-12T15:22:34Z</time><name>PT3720</name></trkpt>
<trkpt lat="52.042684" lon="05.768832"><ele>49.5</ele><time>2022-04-12T15:22:35Z</time><name>PT3721</name></trkpt>
<trkpt lat="52.042674" lon="05.768840"><ele>49.4</ele><time>2022-04-12T15:22:36Z</time><name>PT3722</name></trkpt>
<trkpt lat="52.042666" lon="05.768844"><ele>49.5</ele><time>2022-04-12T15:22:37Z</time><name>PT3723</name></trkpt>
<trkpt lat="52.042657" lon="05.768854"><ele>49.4</ele><time>2022-04-12T15:22:38Z</time><name>PT3724</name></trkpt>
<trkpt lat="52.042648" lon="05.768861"><ele>49.7</ele><time>2022-04-12T15:22:39Z</time><name>PT3725</name></trkpt>
<trkpt lat="52.042638" lon="05.768866"><ele>49.7</ele><time>2022-04-12T15:22:40Z</time><name>PT3726</name></trkpt>
<trkpt lat="52.042628" lon="05.768866"><ele>49.7</ele><time>2022-04-12T15:22:41Z</time><name>PT3727</name></trkpt>
<trkpt lat="52.042617" lon="05.768870"><ele>49.7</ele><time>2022-04-12T15:22:42Z</time><name>PT3728</name></trkpt>
<trkpt lat="52.042606" lon="05.768876"><ele>49.7</ele><time>2022-04-12T15:22:43Z</time><name>PT3729</name></trkpt>
<trkpt lat="52.042595" lon="05.768882"><ele>49.7</ele><time>2022-04-12T15:22:44Z</time><name>PT3730</name></trkpt>
<trkpt lat="52.042585" lon="05.768887"><ele>49.5</ele><time>2022-04-12T15:22:45Z</time><name>PT3731</name></trkpt>
<trkpt lat="52.042573" lon="05.768895"><ele>49.4</ele><time>2022-04-12T15:22:46Z</time><name>PT3732</name></trkpt>
<trkpt lat="52.042564" lon="05.768901"><ele>49.3</ele><time>2022-04-12T15:22:47Z</time><name>PT3733</name></trkpt>
<trkpt lat="52.042552" lon="05.768904"><ele>49.6</ele><time>2022-04-12T15:22:48Z</time><name>PT3734</name></trkpt>
<trkpt lat="52.042542" lon="05.768909"><ele>49.7</ele><time>2022-04-12T15:22:49Z</time><name>PT3735</name></trkpt>
<trkpt lat="52.042532" lon="05.768917"><ele>49.8</ele><time>2022-04-12T15:22:50Z</time><name>PT3736</name></trkpt>
<trkpt lat="52.042522" lon="05.768924"><ele>49.8</ele><time>2022-04-12T15:22:51Z</time><name>PT3737</name></trkpt>
<trkpt lat="52.042511" lon="05.768930"><ele>49.7</ele><time>2022-04-12T15:22:52Z</time><name>PT3738</name></trkpt>
<trkpt lat="52.042502" lon="05.768934"><ele>49.7</ele><time>2022-04-12T15:22:53Z</time><name>PT3739</name></trkpt>
<trkpt lat="52.042493" lon="05.768939"><ele>49.4</ele><time>2022-04-12T15:22:54Z</time><name>PT3740</name></trkpt>
<trkpt lat="52.042484" lon="05.768944"><ele>49.3</ele><time>2022-04-12T15:22:55Z</time><name>PT3741</name></trkpt>
<trkpt lat="52.042473" lon="05.768948"><ele>49.2</ele><time>2022-04-12T15:22:56Z</time><name>PT3742</name></trkpt>
<trkpt lat="52.042460" lon="05.768954"><ele>49.2</ele><time>2022-04-12T15:22:57Z</time><name>PT3743</name></trkpt>
<trkpt lat="52.042450" lon="05.768961"><ele>49.2</ele><time>2022-04-12T15:22:58Z</time><name>PT3744</name></trkpt>
<trkpt lat="52.042441" lon="05.768967"><ele>49.2</ele><time>2022-04-12T15:22:59Z</time><name>PT3745</name></trkpt>
<trkpt lat="52.042429" lon="05.768977"><ele>49.2</ele><time>2022-04-12T15:23:00Z</time><name>PT3746</name></trkpt>
<trkpt lat="52.042419" lon="05.768984"><ele>49.2</ele><time>2022-04-12T15:23:01Z</time><name>PT3747</name></trkpt>
<trkpt lat="52.042407" lon="05.768990"><ele>48.9</ele><time>2022-04-12T15:23:02Z</time><name>PT3748</name></trkpt>
<trkpt lat="52.042398" lon="05.768990"><ele>48.8</ele><time>2022-04-12T15:23:03Z</time><name>PT3749</name></trkpt>
<trkpt lat="52.042388" lon="05.768996"><ele>48.8</ele><time>2022-04-12T15:23:04Z</time><name>PT3750</name></trkpt>
<trkpt lat="52.042381" lon="05.769000"><ele>48.8</ele><time>2022-04-12T15:23:05Z</time><name>PT3751</name></trkpt>
<trkpt lat="52.042372" lon="05.769005"><ele>48.8</ele><time>2022-04-12T15:23:06Z</time><name>PT3752</name></trkpt>
<trkpt lat="52.042365" lon="05.769004"><ele>48.8</ele><time>2022-04-12T15:23:07Z</time><name>PT3753</name></trkpt>
<trkpt lat="52.042353" lon="05.769012"><ele>49</ele><time>2022-04-12T15:23:08Z</time><name>PT3754</name></trkpt>
<trkpt lat="52.042344" lon="05.769018"><ele>49.1</ele><time>2022-04-12T15:23:09Z</time><name>PT3755</name></trkpt>
<trkpt lat="52.042336" lon="05.769027"><ele>49.2</ele><time>2022-04-12T15:23:10Z</time><name>PT3756</name></trkpt>
<trkpt lat="52.042329" lon="05.769033"><ele>49.2</ele><time>2022-04-12T15:23:11Z</time><name>PT3757</name></trkpt>
<trkpt lat="52.042318" lon="05.769042"><ele>49.4</ele><time>2022-04-12T15:23:12Z</time><name>PT3758</name></trkpt>
<trkpt lat="52.042306" lon="05.769048"><ele>49.5</ele><time>2022-04-12T15:23:13Z</time><name>PT3759</name></trkpt>
<trkpt lat="52.042295" lon="05.769055"><ele>49.4</ele><time>2022-04-12T15:23:14Z</time><name>PT3760</name></trkpt>
<trkpt lat="52.042284" lon="05.769065"><ele>49.5</ele><time>2022-04-12T15:23:16Z</time><name>PT3761</name></trkpt>
<trkpt lat="52.042274" lon="05.769078"><ele>49.5</ele><time>2022-04-12T15:23:16Z</time><name>PT3762</name></trkpt>
<trkpt lat="52.042267" lon="05.769085"><ele>49.5</ele><time>2022-04-12T15:23:18Z</time><name>PT3763</name></trkpt>
<trkpt lat="52.042256" lon="05.769092"><ele>49.4</ele><time>2022-04-12T15:23:18Z</time><name>PT3764</name></trkpt>
<trkpt lat="52.042246" lon="05.769096"><ele>49.6</ele><time>2022-04-12T15:23:20Z</time><name>PT3765</name></trkpt>
<trkpt lat="52.042237" lon="05.769098"><ele>49.6</ele><time>2022-04-12T15:23:20Z</time><name>PT3766</name></trkpt>
<trkpt lat="52.042226" lon="05.769108"><ele>49.6</ele><time>2022-04-12T15:23:21Z</time><name>PT3767</name></trkpt>
<trkpt lat="52.042217" lon="05.769120"><ele>49.7</ele><time>2022-04-12T15:23:22Z</time><name>PT3768</name></trkpt>
<trkpt lat="52.042207" lon="05.769129"><ele>49.6</ele><time>2022-04-12T15:23:23Z</time><name>PT3769</name></trkpt>
<trkpt lat="52.042198" lon="05.769132"><ele>49.6</ele><time>2022-04-12T15:23:24Z</time><name>PT3770</name></trkpt>
<trkpt lat="52.042190" lon="05.769137"><ele>49.3</ele><time>2022-04-12T15:23:25Z</time><name>PT3771</name></trkpt>
<trkpt lat="52.042182" lon="05.769143"><ele>49.4</ele><time>2022-04-12T15:23:26Z</time><name>PT3772</name></trkpt>
<trkpt lat="52.042170" lon="05.769151"><ele>49.3</ele><time>2022-04-12T15:23:27Z</time><name>PT3773</name></trkpt>
<trkpt lat="52.042159" lon="05.769156"><ele>49.3</ele><time>2022-04-12T15:23:28Z</time><name>PT3774</name></trkpt>
<trkpt lat="52.042148" lon="05.769162"><ele>49.4</ele><time>2022-04-12T15:23:29Z</time><name>PT3775</name></trkpt>
<trkpt lat="52.042136" lon="05.769162"><ele>49.4</ele><time>2022-04-12T15:23:30Z</time><name>PT3776</name></trkpt>
<trkpt lat="52.042125" lon="05.769165"><ele>49.4</ele><time>2022-04-12T15:23:31Z</time><name>PT3777</name></trkpt>
<trkpt lat="52.042116" lon="05.769173"><ele>49.5</ele><time>2022-04-12T15:23:32Z</time><name>PT3778</name></trkpt>
<trkpt lat="52.042107" lon="05.769181"><ele>49.4</ele><time>2022-04-12T15:23:33Z</time><name>PT3779</name></trkpt>
<trkpt lat="52.042098" lon="05.769188"><ele>49.5</ele><time>2022-04-12T15:23:34Z</time><name>PT3780</name></trkpt>
<trkpt lat="52.042090" lon="05.769191"><ele>49.6</ele><time>2022-04-12T15:23:35Z</time><name>PT3781</name></trkpt>
<trkpt lat="52.042081" lon="05.769191"><ele>49.5</ele><time>2022-04-12T15:23:36Z</time><name>PT3782</name></trkpt>
<trkpt lat="52.042077" lon="05.769187"><ele>49.6</ele><time>2022-04-12T15:23:37Z</time><name>PT3783</name></trkpt>
<trkpt lat="52.042072" lon="05.769188"><ele>49.7</ele><time>2022-04-12T15:23:38Z</time><name>PT3784</name></trkpt>
<trkpt lat="52.042069" lon="05.769188"><ele>49.6</ele><time>2022-04-12T15:23:39Z</time><name>PT3785</name></trkpt>
<trkpt lat="52.042069" lon="05.769185"><ele>49.4</ele><time>2022-04-12T15:23:40Z</time><name>PT3786</name></trkpt>
<trkpt lat="52.042066" lon="05.769188"><ele>49.6</ele><time>2022-04-12T15:23:41Z</time><name>PT3787</name></trkpt>
<trkpt lat="52.042060" lon="05.769194"><ele>49.5</ele><time>2022-04-12T15:23:42Z</time><name>PT3788</name></trkpt>
<trkpt lat="52.042053" lon="05.769200"><ele>49.5</ele><time>2022-04-12T15:23:43Z</time><name>PT3789</name></trkpt>
<trkpt lat="52.042047" lon="05.769202"><ele>49.5</ele><time>2022-04-12T15:23:44Z</time><name>PT3790</name></trkpt>
<trkpt lat="52.042040" lon="05.769206"><ele>49.7</ele><time>2022-04-12T15:23:45Z</time><name>PT3791</name></trkpt>
<trkpt lat="52.042032" lon="05.769212"><ele>49.6</ele><time>2022-04-12T15:23:46Z</time><name>PT3792</name></trkpt>
<trkpt lat="52.042026" lon="05.769220"><ele>49.6</ele><time>2022-04-12T15:23:47Z</time><name>PT3793</name></trkpt>
<trkpt lat="52.042019" lon="05.769226"><ele>49.5</ele><time>2022-04-12T15:23:48Z</time><name>PT3794</name></trkpt>
<trkpt lat="52.042012" lon="05.769232"><ele>49.6</ele><time>2022-04-12T15:23:49Z</time><name>PT3795</name></trkpt>
<trkpt lat="52.042004" lon="05.769239"><ele>49.4</ele><time>2022-04-12T15:23:50Z</time><name>PT3796</name></trkpt>
<trkpt lat="52.041997" lon="05.769247"><ele>49.5</ele><time>2022-04-12T15:23:51Z</time><name>PT3797</name></trkpt>
<trkpt lat="52.041994" lon="05.769247"><ele>49.6</ele><time>2022-04-12T15:23:52Z</time><name>PT3798</name></trkpt>
<trkpt lat="52.041982" lon="05.769258"><ele>49.6</ele><time>2022-04-12T15:23:53Z</time><name>PT3799</name></trkpt>
<trkpt lat="52.041971" lon="05.769264"><ele>49.2</ele><time>2022-04-12T15:23:54Z</time><name>PT3800</name></trkpt>
<trkpt lat="52.041961" lon="05.769268"><ele>49.1</ele><time>2022-04-12T15:23:55Z</time><name>PT3801</name></trkpt>
<trkpt lat="52.041954" lon="05.769273"><ele>48.9</ele><time>2022-04-12T15:23:56Z</time><name>PT3802</name></trkpt>
<trkpt lat="52.041946" lon="05.769276"><ele>48.7</ele><time>2022-04-12T15:23:57Z</time><name>PT3803</name></trkpt>
<trkpt lat="52.041940" lon="05.769280"><ele>48.7</ele><time>2022-04-12T15:23:58Z</time><name>PT3804</name></trkpt>
<trkpt lat="52.041930" lon="05.769287"><ele>48.8</ele><time>2022-04-12T15:23:59Z</time><name>PT3805</name></trkpt>
<trkpt lat="52.041923" lon="05.769290"><ele>49</ele><time>2022-04-12T15:24:00Z</time><name>PT3806</name></trkpt>
<trkpt lat="52.041914" lon="05.769297"><ele>49.2</ele><time>2022-04-12T15:24:01Z</time><name>PT3807</name></trkpt>
<trkpt lat="52.041905" lon="05.769306"><ele>49.1</ele><time>2022-04-12T15:24:02Z</time><name>PT3808</name></trkpt>
<trkpt lat="52.041901" lon="05.769309"><ele>49.2</ele><time>2022-04-12T15:24:03Z</time><name>PT3809</name></trkpt>
<trkpt lat="52.041896" lon="05.769314"><ele>49.2</ele><time>2022-04-12T15:24:04Z</time><name>PT3810</name></trkpt>
<trkpt lat="52.041884" lon="05.769320"><ele>49.2</ele><time>2022-04-12T15:24:05Z</time><name>PT3811</name></trkpt>
<trkpt lat="52.041872" lon="05.769324"><ele>49.2</ele><time>2022-04-12T15:24:06Z</time><name>PT3812</name></trkpt>
<trkpt lat="52.041860" lon="05.769333"><ele>49.3</ele><time>2022-04-12T15:24:07Z</time><name>PT3813</name></trkpt>
<trkpt lat="52.041852" lon="05.769339"><ele>49.3</ele><time>2022-04-12T15:24:08Z</time><name>PT3814</name></trkpt>
<trkpt lat="52.041842" lon="05.769345"><ele>49.5</ele><time>2022-04-12T15:24:09Z</time><name>PT3815</name></trkpt>
<trkpt lat="52.041833" lon="05.769354"><ele>49.6</ele><time>2022-04-12T15:24:10Z</time><name>PT3816</name></trkpt>
<trkpt lat="52.041830" lon="05.769354"><ele>49.7</ele><time>2022-04-12T15:24:11Z</time><name>PT3817</name></trkpt>
<trkpt lat="52.041830" lon="05.769345"><ele>49.7</ele><time>2022-04-12T15:24:12Z</time><name>PT3818</name></trkpt>
<trkpt lat="52.041832" lon="05.769337"><ele>49.7</ele><time>2022-04-12T15:24:13Z</time><name>PT3819</name></trkpt>
<trkpt lat="52.041833" lon="05.769332"><ele>49.6</ele><time>2022-04-12T15:24:14Z</time><name>PT3820</name></trkpt>
<trkpt lat="52.041831" lon="05.769333"><ele>49.5</ele><time>2022-04-12T15:24:15Z</time><name>PT3821</name></trkpt>
<trkpt lat="52.041830" lon="05.769334"><ele>49.5</ele><time>2022-04-12T15:24:16Z</time><name>PT3822</name></trkpt>
<trkpt lat="52.041828" lon="05.769332"><ele>49.6</ele><time>2022-04-12T15:24:17Z</time><name>PT3823</name></trkpt>
<trkpt lat="52.041824" lon="05.769334"><ele>49.5</ele><time>2022-04-12T15:24:21Z</time><name>PT3824</name></trkpt>
<trkpt lat="52.041816" lon="05.769336"><ele>49.4</ele><time>2022-04-12T15:24:22Z</time><name>PT3825</name></trkpt>
<trkpt lat="52.041809" lon="05.769341"><ele>49.3</ele><time>2022-04-12T15:24:23Z</time><name>PT3826</name></trkpt>
<trkpt lat="52.041802" lon="05.769347"><ele>49.3</ele><time>2022-04-12T15:24:24Z</time><name>PT3827</name></trkpt>
<trkpt lat="52.041793" lon="05.769353"><ele>49.4</ele><time>2022-04-12T15:24:25Z</time><name>PT3828</name></trkpt>
<trkpt lat="52.041789" lon="05.769349"><ele>49.4</ele><time>2022-04-12T15:24:26Z</time><name>PT3829</name></trkpt>
<trkpt lat="52.041789" lon="05.769349"><ele>49.3</ele><time>2022-04-12T15:24:27Z</time><name>PT3830</name></trkpt>
<trkpt lat="52.041790" lon="05.769348"><ele>49.3</ele><time>2022-04-12T15:24:28Z</time><name>PT3831</name></trkpt>
<trkpt lat="52.041788" lon="05.769357"><ele>49.2</ele><time>2022-04-12T15:24:29Z</time><name>PT3832</name></trkpt>
<trkpt lat="52.041788" lon="05.769361"><ele>49.2</ele><time>2022-04-12T15:24:30Z</time><name>PT3833</name></trkpt>
<trkpt lat="52.041784" lon="05.769363"><ele>49.1</ele><time>2022-04-12T15:24:31Z</time><name>PT3834</name></trkpt>
<trkpt lat="52.041778" lon="05.769367"><ele>49.2</ele><time>2022-04-12T15:24:32Z</time><name>PT3835</name></trkpt>
<trkpt lat="52.041772" lon="05.769374"><ele>49.2</ele><time>2022-04-12T15:24:33Z</time><name>PT3836</name></trkpt>
<trkpt lat="52.041766" lon="05.769378"><ele>49.4</ele><time>2022-04-12T15:24:34Z</time><name>PT3837</name></trkpt>
<trkpt lat="52.041759" lon="05.769382"><ele>49.6</ele><time>2022-04-12T15:24:36Z</time><name>PT3838</name></trkpt>
<trkpt lat="52.041749" lon="05.769384"><ele>49.6</ele><time>2022-04-12T15:24:36Z</time><name>PT3839</name></trkpt>
<trkpt lat="52.041742" lon="05.769389"><ele>49.6</ele><time>2022-04-12T15:24:38Z</time><name>PT3840</name></trkpt>
<trkpt lat="52.041734" lon="05.769395"><ele>49.6</ele><time>2022-04-12T15:24:38Z</time><name>PT3841</name></trkpt>
<trkpt lat="52.041725" lon="05.769403"><ele>49.6</ele><time>2022-04-12T15:24:39Z</time><name>PT3842</name></trkpt>
<trkpt lat="52.041716" lon="05.769410"><ele>49.7</ele><time>2022-04-12T15:24:40Z</time><name>PT3843</name></trkpt>
<trkpt lat="52.041709" lon="05.769416"><ele>49.7</ele><time>2022-04-12T15:24:41Z</time><name>PT3844</name></trkpt>
<trkpt lat="52.041702" lon="05.769414"><ele>49.8</ele><time>2022-04-12T15:24:42Z</time><name>PT3845</name></trkpt>
<trkpt lat="52.041691" lon="05.769421"><ele>49.9</ele><time>2022-04-12T15:24:43Z</time><name>PT3846</name></trkpt>
<trkpt lat="52.041679" lon="05.769428"><ele>50</ele><time>2022-04-12T15:24:44Z</time><name>PT3847</name></trkpt>
<trkpt lat="52.041670" lon="05.769430"><ele>49.9</ele><time>2022-04-12T15:24:45Z</time><name>PT3848</name></trkpt>
<trkpt lat="52.041661" lon="05.769438"><ele>49.8</ele><time>2022-04-12T15:24:46Z</time><name>PT3849</name></trkpt>
<trkpt lat="52.041651" lon="05.769445"><ele>49.7</ele><time>2022-04-12T15:24:47Z</time><name>PT3850</name></trkpt>
<trkpt lat="52.041641" lon="05.769452"><ele>49.8</ele><time>2022-04-12T15:24:48Z</time><name>PT3851</name></trkpt>
<trkpt lat="52.041632" lon="05.769452"><ele>49.6</ele><time>2022-04-12T15:24:49Z</time><name>PT3852</name></trkpt>
<trkpt lat="52.041620" lon="05.769455"><ele>49.6</ele><time>2022-04-12T15:24:50Z</time><name>PT3853</name></trkpt>
<trkpt lat="52.041611" lon="05.769460"><ele>49.6</ele><time>2022-04-12T15:24:51Z</time><name>PT3854</name></trkpt>
<trkpt lat="52.041603" lon="05.769469"><ele>49.6</ele><time>2022-04-12T15:24:52Z</time><name>PT3855</name></trkpt>
<trkpt lat="52.041596" lon="05.769476"><ele>49.5</ele><time>2022-04-12T15:24:53Z</time><name>PT3856</name></trkpt>
<trkpt lat="52.041591" lon="05.769480"><ele>49.6</ele><time>2022-04-12T15:24:54Z</time><name>PT3857</name></trkpt>
<trkpt lat="52.041583" lon="05.769486"><ele>49.7</ele><time>2022-04-12T15:24:55Z</time><name>PT3858</name></trkpt>
<trkpt lat="52.041575" lon="05.769492"><ele>49.7</ele><time>2022-04-12T15:24:56Z</time><name>PT3859</name></trkpt>
<trkpt lat="52.041566" lon="05.769498"><ele>49.7</ele><time>2022-04-12T15:24:57Z</time><name>PT3860</name></trkpt>
<trkpt lat="52.041555" lon="05.769503"><ele>49.8</ele><time>2022-04-12T15:24:58Z</time><name>PT3861</name></trkpt>
<trkpt lat="52.041546" lon="05.769508"><ele>50</ele><time>2022-04-12T15:24:59Z</time><name>PT3862</name></trkpt>
<trkpt lat="52.041537" lon="05.769510"><ele>50</ele><time>2022-04-12T15:25:00Z</time><name>PT3863</name></trkpt>
<trkpt lat="52.041526" lon="05.769513"><ele>49.9</ele><time>2022-04-12T15:25:01Z</time><name>PT3864</name></trkpt>
<trkpt lat="52.041518" lon="05.769517"><ele>49.8</ele><time>2022-04-12T15:25:02Z</time><name>PT3865</name></trkpt>
<trkpt lat="52.041510" lon="05.769518"><ele>49.7</ele><time>2022-04-12T15:25:03Z</time><name>PT3866</name></trkpt>
<trkpt lat="52.041500" lon="05.769522"><ele>49.7</ele><time>2022-04-12T15:25:04Z</time><name>PT3867</name></trkpt>
<trkpt lat="52.041491" lon="05.769528"><ele>50</ele><time>2022-04-12T15:25:05Z</time><name>PT3868</name></trkpt>
<trkpt lat="52.041480" lon="05.769533"><ele>49.8</ele><time>2022-04-12T15:25:06Z</time><name>PT3869</name></trkpt>
<trkpt lat="52.041467" lon="05.769544"><ele>49.7</ele><time>2022-04-12T15:25:07Z</time><name>PT3870</name></trkpt>
<trkpt lat="52.041455" lon="05.769549"><ele>49.7</ele><time>2022-04-12T15:25:08Z</time><name>PT3871</name></trkpt>
<trkpt lat="52.041444" lon="05.769553"><ele>49.4</ele><time>2022-04-12T15:25:09Z</time><name>PT3872</name></trkpt>
<trkpt lat="52.041435" lon="05.769559"><ele>49.3</ele><time>2022-04-12T15:25:10Z</time><name>PT3873</name></trkpt>
<trkpt lat="52.041425" lon="05.769567"><ele>49.5</ele><time>2022-04-12T15:25:11Z</time><name>PT3874</name></trkpt>
<trkpt lat="52.041416" lon="05.769576"><ele>49.4</ele><time>2022-04-12T15:25:12Z</time><name>PT3875</name></trkpt>
<trkpt lat="52.041399" lon="05.769593"><ele>49.3</ele><time>2022-04-12T15:25:13Z</time><name>PT3876</name></trkpt>
<trkpt lat="52.041393" lon="05.769595"><ele>49.2</ele><time>2022-04-12T15:25:14Z</time><name>PT3877</name></trkpt>
<trkpt lat="52.041385" lon="05.769606"><ele>49.3</ele><time>2022-04-12T15:25:15Z</time><name>PT3878</name></trkpt>
<trkpt lat="52.041376" lon="05.769612"><ele>49.2</ele><time>2022-04-12T15:25:16Z</time><name>PT3879</name></trkpt>
<trkpt lat="52.041368" lon="05.769617"><ele>49.2</ele><time>2022-04-12T15:25:17Z</time><name>PT3880</name></trkpt>
<trkpt lat="52.041362" lon="05.769615"><ele>49.4</ele><time>2022-04-12T15:25:18Z</time><name>PT3881</name></trkpt>
<trkpt lat="52.041354" lon="05.769618"><ele>49.6</ele><time>2022-04-12T15:25:19Z</time><name>PT3882</name></trkpt>
<trkpt lat="52.041344" lon="05.769623"><ele>49.5</ele><time>2022-04-12T15:25:20Z</time><name>PT3883</name></trkpt>
<trkpt lat="52.041330" lon="05.769630"><ele>49.6</ele><time>2022-04-12T15:25:21Z</time><name>PT3884</name></trkpt>
<trkpt lat="52.041320" lon="05.769636"><ele>49.5</ele><time>2022-04-12T15:25:22Z</time><name>PT3885</name></trkpt>
<trkpt lat="52.041311" lon="05.769641"><ele>49.3</ele><time>2022-04-12T15:25:23Z</time><name>PT3886</name></trkpt>
<trkpt lat="52.041302" lon="05.769647"><ele>49.3</ele><time>2022-04-12T15:25:24Z</time><name>PT3887</name></trkpt>
<trkpt lat="52.041294" lon="05.769654"><ele>49.3</ele><time>2022-04-12T15:25:25Z</time><name>PT3888</name></trkpt>
<trkpt lat="52.041285" lon="05.769657"><ele>49.2</ele><time>2022-04-12T15:25:26Z</time><name>PT3889</name></trkpt>
<trkpt lat="52.041274" lon="05.769662"><ele>49.2</ele><time>2022-04-12T15:25:27Z</time><name>PT3890</name></trkpt>
<trkpt lat="52.041261" lon="05.769668"><ele>49.4</ele><time>2022-04-12T15:25:28Z</time><name>PT3891</name></trkpt>
<trkpt lat="52.041248" lon="05.769673"><ele>49.6</ele><time>2022-04-12T15:25:29Z</time><name>PT3892</name></trkpt>
<trkpt lat="52.041240" lon="05.769680"><ele>49.5</ele><time>2022-04-12T15:25:30Z</time><name>PT3893</name></trkpt>
<trkpt lat="52.041225" lon="05.769686"><ele>49.6</ele><time>2022-04-12T15:25:31Z</time><name>PT3894</name></trkpt>
<trkpt lat="52.041215" lon="05.769689"><ele>49.5</ele><time>2022-04-12T15:25:32Z</time><name>PT3895</name></trkpt>
<trkpt lat="52.041205" lon="05.769696"><ele>49.3</ele><time>2022-04-12T15:25:33Z</time><name>PT3896</name></trkpt>
<trkpt lat="52.041195" lon="05.769707"><ele>49.2</ele><time>2022-04-12T15:25:34Z</time><name>PT3897</name></trkpt>
<trkpt lat="52.041186" lon="05.769712"><ele>49.2</ele><time>2022-04-12T15:25:35Z</time><name>PT3898</name></trkpt>
<trkpt lat="52.041178" lon="05.769719"><ele>49.2</ele><time>2022-04-12T15:25:36Z</time><name>PT3899</name></trkpt>
<trkpt lat="52.041168" lon="05.769724"><ele>49.3</ele><time>2022-04-12T15:25:37Z</time><name>PT3900</name></trkpt>
<trkpt lat="52.041157" lon="05.769728"><ele>49.2</ele><time>2022-04-12T15:25:38Z</time><name>PT3901</name></trkpt>
<trkpt lat="52.041148" lon="05.769736"><ele>49.4</ele><time>2022-04-12T15:25:39Z</time><name>PT3902</name></trkpt>
<trkpt lat="52.041138" lon="05.769745"><ele>49.2</ele><time>2022-04-12T15:25:40Z</time><name>PT3903</name></trkpt>
<trkpt lat="52.041127" lon="05.769757"><ele>49.3</ele><time>2022-04-12T15:25:41Z</time><name>PT3904</name></trkpt>
<trkpt lat="52.041118" lon="05.769763"><ele>49.3</ele><time>2022-04-12T15:25:42Z</time><name>PT3905</name></trkpt>
<trkpt lat="52.041109" lon="05.769767"><ele>49.2</ele><time>2022-04-12T15:25:43Z</time><name>PT3906</name></trkpt>
<trkpt lat="52.041098" lon="05.769777"><ele>49.2</ele><time>2022-04-12T15:25:44Z</time><name>PT3907</name></trkpt>
<trkpt lat="52.041089" lon="05.769788"><ele>49.2</ele><time>2022-04-12T15:25:45Z</time><name>PT3908</name></trkpt>
<trkpt lat="52.041085" lon="05.769793"><ele>49.2</ele><time>2022-04-12T15:25:46Z</time><name>PT3909</name></trkpt>
<trkpt lat="52.041078" lon="05.769795"><ele>49.2</ele><time>2022-04-12T15:25:47Z</time><name>PT3910</name></trkpt>
<trkpt lat="52.041069" lon="05.769799"><ele>49.2</ele><time>2022-04-12T15:25:48Z</time><name>PT3911</name></trkpt>
<trkpt lat="52.041061" lon="05.769805"><ele>49.5</ele><time>2022-04-12T15:25:49Z</time><name>PT3912</name></trkpt>
<trkpt lat="52.041054" lon="05.769810"><ele>49.5</ele><time>2022-04-12T15:25:50Z</time><name>PT3913</name></trkpt>
<trkpt lat="52.041046" lon="05.769816"><ele>49.5</ele><time>2022-04-12T15:25:51Z</time><name>PT3914</name></trkpt>
<trkpt lat="52.041036" lon="05.769821"><ele>49.4</ele><time>2022-04-12T15:25:52Z</time><name>PT3915</name></trkpt>
<trkpt lat="52.041025" lon="05.769828"><ele>49.2</ele><time>2022-04-12T15:25:53Z</time><name>PT3916</name></trkpt>
<trkpt lat="52.041018" lon="05.769832"><ele>49.2</ele><time>2022-04-12T15:25:54Z</time><name>PT3917</name></trkpt>
<trkpt lat="52.041011" lon="05.769840"><ele>49.2</ele><time>2022-04-12T15:25:55Z</time><name>PT3918</name></trkpt>
<trkpt lat="52.040999" lon="05.769851"><ele>49.2</ele><time>2022-04-12T15:25:56Z</time><name>PT3919</name></trkpt>
<trkpt lat="52.040988" lon="05.769855"><ele>49.2</ele><time>2022-04-12T15:25:57Z</time><name>PT3920</name></trkpt>
<trkpt lat="52.040979" lon="05.769859"><ele>49.3</ele><time>2022-04-12T15:25:58Z</time><name>PT3921</name></trkpt>
<trkpt lat="52.040970" lon="05.769864"><ele>49.3</ele><time>2022-04-12T15:25:59Z</time><name>PT3922</name></trkpt>
<trkpt lat="52.040961" lon="05.769868"><ele>49.2</ele><time>2022-04-12T15:26:00Z</time><name>PT3923</name></trkpt>
<trkpt lat="52.040953" lon="05.769872"><ele>49.3</ele><time>2022-04-12T15:26:01Z</time><name>PT3924</name></trkpt>
<trkpt lat="52.040947" lon="05.769875"><ele>49.2</ele><time>2022-04-12T15:26:02Z</time><name>PT3925</name></trkpt>
<trkpt lat="52.040938" lon="05.769879"><ele>49</ele><time>2022-04-12T15:26:03Z</time><name>PT3926</name></trkpt>
<trkpt lat="52.040927" lon="05.769881"><ele>49.1</ele><time>2022-04-12T15:26:04Z</time><name>PT3927</name></trkpt>
<trkpt lat="52.040916" lon="05.769883"><ele>48.8</ele><time>2022-04-12T15:26:05Z</time><name>PT3928</name></trkpt>
<trkpt lat="52.040908" lon="05.769891"><ele>48.8</ele><time>2022-04-12T15:26:06Z</time><name>PT3929</name></trkpt>
<trkpt lat="52.040900" lon="05.769894"><ele>48.7</ele><time>2022-04-12T15:26:07Z</time><name>PT3930</name></trkpt>
<trkpt lat="52.040891" lon="05.769897"><ele>48.7</ele><time>2022-04-12T15:26:08Z</time><name>PT3931</name></trkpt>
<trkpt lat="52.040878" lon="05.769902"><ele>48.6</ele><time>2022-04-12T15:26:09Z</time><name>PT3932</name></trkpt>
<trkpt lat="52.040868" lon="05.769907"><ele>48.6</ele><time>2022-04-12T15:26:10Z</time><name>PT3933</name></trkpt>
<trkpt lat="52.040861" lon="05.769909"><ele>48.7</ele><time>2022-04-12T15:26:11Z</time><name>PT3934</name></trkpt>
<trkpt lat="52.040850" lon="05.769914"><ele>48.7</ele><time>2022-04-12T15:26:12Z</time><name>PT3935</name></trkpt>
<trkpt lat="52.040842" lon="05.769919"><ele>48.8</ele><time>2022-04-12T15:26:13Z</time><name>PT3936</name></trkpt>
<trkpt lat="52.040831" lon="05.769932"><ele>48.9</ele><time>2022-04-12T15:26:14Z</time><name>PT3937</name></trkpt>
<trkpt lat="52.040817" lon="05.769946"><ele>48.7</ele><time>2022-04-12T15:26:15Z</time><name>PT3938</name></trkpt>
<trkpt lat="52.040807" lon="05.769955"><ele>48.7</ele><time>2022-04-12T15:26:16Z</time><name>PT3939</name></trkpt>
<trkpt lat="52.040796" lon="05.769964"><ele>48.7</ele><time>2022-04-12T15:26:17Z</time><name>PT3940</name></trkpt>
<trkpt lat="52.040789" lon="05.769968"><ele>48.5</ele><time>2022-04-12T15:26:18Z</time><name>PT3941</name></trkpt>
<trkpt lat="52.040775" lon="05.769978"><ele>48.6</ele><time>2022-04-12T15:26:19Z</time><name>PT3942</name></trkpt>
<trkpt lat="52.040764" lon="05.769979"><ele>48.6</ele><time>2022-04-12T15:26:20Z</time><name>PT3943</name></trkpt>
<trkpt lat="52.040756" lon="05.769978"><ele>48.5</ele><time>2022-04-12T15:26:21Z</time><name>PT3944</name></trkpt>
<trkpt lat="52.040746" lon="05.769981"><ele>48.5</ele><time>2022-04-12T15:26:22Z</time><name>PT3945</name></trkpt>
<trkpt lat="52.040733" lon="05.769985"><ele>48.4</ele><time>2022-04-12T15:26:23Z</time><name>PT3946</name></trkpt>
<trkpt lat="52.040720" lon="05.769997"><ele>48.4</ele><time>2022-04-12T15:26:24Z</time><name>PT3947</name></trkpt>
<trkpt lat="52.040713" lon="05.770001"><ele>48.4</ele><time>2022-04-12T15:26:25Z</time><name>PT3948</name></trkpt>
<trkpt lat="52.040698" lon="05.770009"><ele>48.6</ele><time>2022-04-12T15:26:26Z</time><name>PT3949</name></trkpt>
<trkpt lat="52.040687" lon="05.770014"><ele>48.7</ele><time>2022-04-12T15:26:27Z</time><name>PT3950</name></trkpt>
<trkpt lat="52.040678" lon="05.770018"><ele>48.7</ele><time>2022-04-12T15:26:28Z</time><name>PT3951</name></trkpt>
<trkpt lat="52.040671" lon="05.770029"><ele>48.7</ele><time>2022-04-12T15:26:29Z</time><name>PT3952</name></trkpt>
<trkpt lat="52.040665" lon="05.770032"><ele>48.9</ele><time>2022-04-12T15:26:30Z</time><name>PT3953</name></trkpt>
<trkpt lat="52.040655" lon="05.770039"><ele>49</ele><time>2022-04-12T15:26:31Z</time><name>PT3954</name></trkpt>
<trkpt lat="52.040648" lon="05.770043"><ele>49.1</ele><time>2022-04-12T15:26:32Z</time><name>PT3955</name></trkpt>
<trkpt lat="52.040638" lon="05.770047"><ele>49.2</ele><time>2022-04-12T15:26:33Z</time><name>PT3956</name></trkpt>
<trkpt lat="52.040624" lon="05.770057"><ele>49.2</ele><time>2022-04-12T15:26:34Z</time><name>PT3957</name></trkpt>
<trkpt lat="52.040618" lon="05.770063"><ele>49.3</ele><time>2022-04-12T15:26:35Z</time><name>PT3958</name></trkpt>
<trkpt lat="52.040607" lon="05.770077"><ele>49.2</ele><time>2022-04-12T15:26:36Z</time><name>PT3959</name></trkpt>
<trkpt lat="52.040599" lon="05.770078"><ele>49.2</ele><time>2022-04-12T15:26:37Z</time><name>PT3960</name></trkpt>
<trkpt lat="52.040598" lon="05.770073"><ele>49.3</ele><time>2022-04-12T15:26:38Z</time><name>PT3961</name></trkpt>
<trkpt lat="52.040589" lon="05.770075"><ele>49.2</ele><time>2022-04-12T15:26:39Z</time><name>PT3962</name></trkpt>
<trkpt lat="52.040576" lon="05.770076"><ele>49.1</ele><time>2022-04-12T15:26:40Z</time><name>PT3963</name></trkpt>
<trkpt lat="52.040563" lon="05.770083"><ele>49.2</ele><time>2022-04-12T15:26:41Z</time><name>PT3964</name></trkpt>
<trkpt lat="52.040552" lon="05.770089"><ele>49.2</ele><time>2022-04-12T15:26:42Z</time><name>PT3965</name></trkpt>
<trkpt lat="52.040540" lon="05.770098"><ele>49.2</ele><time>2022-04-12T15:26:43Z</time><name>PT3966</name></trkpt>
<trkpt lat="52.040530" lon="05.770109"><ele>49.2</ele><time>2022-04-12T15:26:44Z</time><name>PT3967</name></trkpt>
<trkpt lat="52.040518" lon="05.770117"><ele>49.2</ele><time>2022-04-12T15:26:45Z</time><name>PT3968</name></trkpt>
<trkpt lat="52.040509" lon="05.770123"><ele>49</ele><time>2022-04-12T15:26:46Z</time><name>PT3969</name></trkpt>
<trkpt lat="52.040501" lon="05.770129"><ele>48.9</ele><time>2022-04-12T15:26:47Z</time><name>PT3970</name></trkpt>
<trkpt lat="52.040492" lon="05.770135"><ele>48.7</ele><time>2022-04-12T15:26:48Z</time><name>PT3971</name></trkpt>
<trkpt lat="52.040483" lon="05.770141"><ele>48.5</ele><time>2022-04-12T15:26:49Z</time><name>PT3972</name></trkpt>
<trkpt lat="52.040471" lon="05.770145"><ele>48.6</ele><time>2022-04-12T15:26:50Z</time><name>PT3973</name></trkpt>
<trkpt lat="52.040458" lon="05.770153"><ele>48.7</ele><time>2022-04-12T15:26:51Z</time><name>PT3974</name></trkpt>
<trkpt lat="52.040448" lon="05.770159"><ele>48.5</ele><time>2022-04-12T15:26:52Z</time><name>PT3975</name></trkpt>
<trkpt lat="52.040440" lon="05.770164"><ele>48.7</ele><time>2022-04-12T15:26:53Z</time><name>PT3976</name></trkpt>
<trkpt lat="52.040430" lon="05.770169"><ele>48.8</ele><time>2022-04-12T15:26:54Z</time><name>PT3977</name></trkpt>
<trkpt lat="52.040419" lon="05.770177"><ele>48.9</ele><time>2022-04-12T15:26:55Z</time><name>PT3978</name></trkpt>
<trkpt lat="52.040411" lon="05.770184"><ele>48.9</ele><time>2022-04-12T15:26:56Z</time><name>PT3979</name></trkpt>
<trkpt lat="52.040402" lon="05.770187"><ele>49</ele><time>2022-04-12T15:26:57Z</time><name>PT3980</name></trkpt>
<trkpt lat="52.040389" lon="05.770193"><ele>48.9</ele><time>2022-04-12T15:26:58Z</time><name>PT3981</name></trkpt>
<trkpt lat="52.040374" lon="05.770199"><ele>49.1</ele><time>2022-04-12T15:26:59Z</time><name>PT3982</name></trkpt>
<trkpt lat="52.040363" lon="05.770202"><ele>49</ele><time>2022-04-12T15:27:00Z</time><name>PT3983</name></trkpt>
<trkpt lat="52.040349" lon="05.770205"><ele>49</ele><time>2022-04-12T15:27:01Z</time><name>PT3984</name></trkpt>
<trkpt lat="52.040334" lon="05.770210"><ele>49</ele><time>2022-04-12T15:27:02Z</time><name>PT3985</name></trkpt>
<trkpt lat="52.040324" lon="05.770214"><ele>48.9</ele><time>2022-04-12T15:27:03Z</time><name>PT3986</name></trkpt>
<trkpt lat="52.040314" lon="05.770221"><ele>48.7</ele><time>2022-04-12T15:27:04Z</time><name>PT3987</name></trkpt>
<trkpt lat="52.040303" lon="05.770223"><ele>48.8</ele><time>2022-04-12T15:27:05Z</time><name>PT3988</name></trkpt>
<trkpt lat="52.040287" lon="05.770230"><ele>48.7</ele><time>2022-04-12T15:27:06Z</time><name>PT3989</name></trkpt>
<trkpt lat="52.040277" lon="05.770229"><ele>48.8</ele><time>2022-04-12T15:27:07Z</time><name>PT3990</name></trkpt>
<trkpt lat="52.040269" lon="05.770234"><ele>48.9</ele><time>2022-04-12T15:27:08Z</time><name>PT3991</name></trkpt>
<trkpt lat="52.040259" lon="05.770237"><ele>49</ele><time>2022-04-12T15:27:09Z</time><name>PT3992</name></trkpt>
<trkpt lat="52.040249" lon="05.770235"><ele>49.1</ele><time>2022-04-12T15:27:10Z</time><name>PT3993</name></trkpt>
<trkpt lat="52.040237" lon="05.770236"><ele>49</ele><time>2022-04-12T15:27:11Z</time><name>PT3994</name></trkpt>
<trkpt lat="52.040227" lon="05.770235"><ele>48.8</ele><time>2022-04-12T15:27:12Z</time><name>PT3995</name></trkpt>
<trkpt lat="52.040219" lon="05.770235"><ele>48.8</ele><time>2022-04-12T15:27:13Z</time><name>PT3996</name></trkpt>
<trkpt lat="52.040210" lon="05.770233"><ele>48.7</ele><time>2022-04-12T15:27:14Z</time><name>PT3997</name></trkpt>
<trkpt lat="52.040197" lon="05.770239"><ele>48.7</ele><time>2022-04-12T15:27:15Z</time><name>PT3998</name></trkpt>
<trkpt lat="52.040187" lon="05.770238"><ele>48.7</ele><time>2022-04-12T15:27:16Z</time><name>PT3999</name></trkpt>
<trkpt lat="52.040177" lon="05.770239"><ele>48.7</ele><time>2022-04-12T15:27:17Z</time><name>PT4000</name></trkpt>
<trkpt lat="52.040163" lon="05.770246"><ele>48.7</ele><time>2022-04-12T15:27:18Z</time><name>PT4001</name></trkpt>
<trkpt lat="52.040154" lon="05.770244"><ele>48.8</ele><time>2022-04-12T15:27:19Z</time><name>PT4002</name></trkpt>
<trkpt lat="52.040143" lon="05.770240"><ele>48.8</ele><time>2022-04-12T15:27:20Z</time><name>PT4003</name></trkpt>
<trkpt lat="52.040133" lon="05.770240"><ele>48.9</ele><time>2022-04-12T15:27:21Z</time><name>PT4004</name></trkpt>
<trkpt lat="52.040120" lon="05.770242"><ele>49</ele><time>2022-04-12T15:27:22Z</time><name>PT4005</name></trkpt>
<trkpt lat="52.040106" lon="05.770243"><ele>48.8</ele><time>2022-04-12T15:27:23Z</time><name>PT4006</name></trkpt>
<trkpt lat="52.040096" lon="05.770244"><ele>48.9</ele><time>2022-04-12T15:27:24Z</time><name>PT4007</name></trkpt>
<trkpt lat="52.040084" lon="05.770243"><ele>49</ele><time>2022-04-12T15:27:25Z</time><name>PT4008</name></trkpt>
<trkpt lat="52.040071" lon="05.770241"><ele>48.9</ele><time>2022-04-12T15:27:26Z</time><name>PT4009</name></trkpt>
<trkpt lat="52.040060" lon="05.770239"><ele>48.7</ele><time>2022-04-12T15:27:27Z</time><name>PT4010</name></trkpt>
<trkpt lat="52.040048" lon="05.770243"><ele>48.8</ele><time>2022-04-12T15:27:28Z</time><name>PT4011</name></trkpt>
<trkpt lat="52.040036" lon="05.770247"><ele>48.7</ele><time>2022-04-12T15:27:29Z</time><name>PT4012</name></trkpt>
<trkpt lat="52.040026" lon="05.770249"><ele>48.7</ele><time>2022-04-12T15:27:30Z</time><name>PT4013</name></trkpt>
<trkpt lat="52.040015" lon="05.770247"><ele>48.6</ele><time>2022-04-12T15:27:31Z</time><name>PT4014</name></trkpt>
<trkpt lat="52.040005" lon="05.770246"><ele>48.6</ele><time>2022-04-12T15:27:32Z</time><name>PT4015</name></trkpt>
<trkpt lat="52.039993" lon="05.770243"><ele>48.5</ele><time>2022-04-12T15:27:33Z</time><name>PT4016</name></trkpt>
<trkpt lat="52.039982" lon="05.770244"><ele>48.6</ele><time>2022-04-12T15:27:34Z</time><name>PT4017</name></trkpt>
<trkpt lat="52.039973" lon="05.770246"><ele>48.7</ele><time>2022-04-12T15:27:35Z</time><name>PT4018</name></trkpt>
<trkpt lat="52.039958" lon="05.770248"><ele>48.7</ele><time>2022-04-12T15:27:36Z</time><name>PT4019</name></trkpt>
<trkpt lat="52.039949" lon="05.770247"><ele>48.7</ele><time>2022-04-12T15:27:37Z</time><name>PT4020</name></trkpt>
<trkpt lat="52.039939" lon="05.770244"><ele>48.7</ele><time>2022-04-12T15:27:38Z</time><name>PT4021</name></trkpt>
<trkpt lat="52.039928" lon="05.770245"><ele>48.7</ele><time>2022-04-12T15:27:39Z</time><name>PT4022</name></trkpt>
<trkpt lat="52.039917" lon="05.770244"><ele>48.6</ele><time>2022-04-12T15:27:40Z</time><name>PT4023</name></trkpt>
<trkpt lat="52.039905" lon="05.770242"><ele>48.8</ele><time>2022-04-12T15:27:41Z</time><name>PT4024</name></trkpt>
<trkpt lat="52.039894" lon="05.770238"><ele>48.7</ele><time>2022-04-12T15:27:42Z</time><name>PT4025</name></trkpt>
<trkpt lat="52.039883" lon="05.770235"><ele>48.7</ele><time>2022-04-12T15:27:43Z</time><name>PT4026</name></trkpt>
<trkpt lat="52.039875" lon="05.770239"><ele>48.9</ele><time>2022-04-12T15:27:44Z</time><name>PT4027</name></trkpt>
<trkpt lat="52.039861" lon="05.770237"><ele>48.7</ele><time>2022-04-12T15:27:45Z</time><name>PT4028</name></trkpt>
<trkpt lat="52.039851" lon="05.770235"><ele>48.7</ele><time>2022-04-12T15:27:46Z</time><name>PT4029</name></trkpt>
<trkpt lat="52.039839" lon="05.770231"><ele>48.7</ele><time>2022-04-12T15:27:47Z</time><name>PT4030</name></trkpt>
<trkpt lat="52.039829" lon="05.770228"><ele>48.7</ele><time>2022-04-12T15:27:48Z</time><name>PT4031</name></trkpt>
<trkpt lat="52.039819" lon="05.770228"><ele>48.7</ele><time>2022-04-12T15:27:49Z</time><name>PT4032</name></trkpt>
<trkpt lat="52.039807" lon="05.770232"><ele>48.8</ele><time>2022-04-12T15:27:50Z</time><name>PT4033</name></trkpt>
<trkpt lat="52.039798" lon="05.770233"><ele>48.7</ele><time>2022-04-12T15:27:51Z</time><name>PT4034</name></trkpt>
<trkpt lat="52.039785" lon="05.770232"><ele>48.7</ele><time>2022-04-12T15:27:52Z</time><name>PT4035</name></trkpt>
<trkpt lat="52.039776" lon="05.770233"><ele>48.7</ele><time>2022-04-12T15:27:53Z</time><name>PT4036</name></trkpt>
<trkpt lat="52.039767" lon="05.770233"><ele>48.6</ele><time>2022-04-12T15:27:54Z</time><name>PT4037</name></trkpt>
<trkpt lat="52.039755" lon="05.770235"><ele>48.7</ele><time>2022-04-12T15:27:55Z</time><name>PT4038</name></trkpt>
<trkpt lat="52.039745" lon="05.770235"><ele>48.7</ele><time>2022-04-12T15:27:56Z</time><name>PT4039</name></trkpt>
<trkpt lat="52.039735" lon="05.770237"><ele>48.8</ele><time>2022-04-12T15:27:57Z</time><name>PT4040</name></trkpt>
<trkpt lat="52.039725" lon="05.770237"><ele>48.8</ele><time>2022-04-12T15:27:58Z</time><name>PT4041</name></trkpt>
<trkpt lat="52.039715" lon="05.770235"><ele>48.9</ele><time>2022-04-12T15:27:59Z</time><name>PT4042</name></trkpt>
<trkpt lat="52.039702" lon="05.770233"><ele>49</ele><time>2022-04-12T15:28:00Z</time><name>PT4043</name></trkpt>
<trkpt lat="52.039690" lon="05.770232"><ele>49</ele><time>2022-04-12T15:28:01Z</time><name>PT4044</name></trkpt>
<trkpt lat="52.039679" lon="05.770229"><ele>48.9</ele><time>2022-04-12T15:28:02Z</time><name>PT4045</name></trkpt>
<trkpt lat="52.039668" lon="05.770228"><ele>48.9</ele><time>2022-04-12T15:28:03Z</time><name>PT4046</name></trkpt>
<trkpt lat="52.039657" lon="05.770230"><ele>48.9</ele><time>2022-04-12T15:28:04Z</time><name>PT4047</name></trkpt>
<trkpt lat="52.039648" lon="05.770231"><ele>48.9</ele><time>2022-04-12T15:28:05Z</time><name>PT4048</name></trkpt>
<trkpt lat="52.039637" lon="05.770234"><ele>48.9</ele><time>2022-04-12T15:28:06Z</time><name>PT4049</name></trkpt>
<trkpt lat="52.039629" lon="05.770238"><ele>48.8</ele><time>2022-04-12T15:28:07Z</time><name>PT4050</name></trkpt>
<trkpt lat="52.039615" lon="05.770234"><ele>48.9</ele><time>2022-04-12T15:28:08Z</time><name>PT4051</name></trkpt>
<trkpt lat="52.039604" lon="05.770230"><ele>48.7</ele><time>2022-04-12T15:28:09Z</time><name>PT4052</name></trkpt>
<trkpt lat="52.039595" lon="05.770228"><ele>48.7</ele><time>2022-04-12T15:28:10Z</time><name>PT4053</name></trkpt>
<trkpt lat="52.039582" lon="05.770226"><ele>48.7</ele><time>2022-04-12T15:28:11Z</time><name>PT4054</name></trkpt>
<trkpt lat="52.039572" lon="05.770226"><ele>48.7</ele><time>2022-04-12T15:28:12Z</time><name>PT4055</name></trkpt>
<trkpt lat="52.039560" lon="05.770226"><ele>48.7</ele><time>2022-04-12T15:28:13Z</time><name>PT4056</name></trkpt>
<trkpt lat="52.039552" lon="05.770227"><ele>48.8</ele><time>2022-04-12T15:28:14Z</time><name>PT4057</name></trkpt>
<trkpt lat="52.039539" lon="05.770227"><ele>48.7</ele><time>2022-04-12T15:28:15Z</time><name>PT4058</name></trkpt>
<trkpt lat="52.039530" lon="05.770228"><ele>48.5</ele><time>2022-04-12T15:28:16Z</time><name>PT4059</name></trkpt>
<trkpt lat="52.039521" lon="05.770222"><ele>48.5</ele><time>2022-04-12T15:28:17Z</time><name>PT4060</name></trkpt>
<trkpt lat="52.039512" lon="05.770220"><ele>48.7</ele><time>2022-04-12T15:28:18Z</time><name>PT4061</name></trkpt>
<trkpt lat="52.039500" lon="05.770217"><ele>48.6</ele><time>2022-04-12T15:28:19Z</time><name>PT4062</name></trkpt>
<trkpt lat="52.039488" lon="05.770216"><ele>48.7</ele><time>2022-04-12T15:28:20Z</time><name>PT4063</name></trkpt>
<trkpt lat="52.039479" lon="05.770220"><ele>48.7</ele><time>2022-04-12T15:28:21Z</time><name>PT4064</name></trkpt>
<trkpt lat="52.039468" lon="05.770219"><ele>48.7</ele><time>2022-04-12T15:28:22Z</time><name>PT4065</name></trkpt>
<trkpt lat="52.039460" lon="05.770219"><ele>48.5</ele><time>2022-04-12T15:28:23Z</time><name>PT4066</name></trkpt>
<trkpt lat="52.039451" lon="05.770221"><ele>48.5</ele><time>2022-04-12T15:28:24Z</time><name>PT4067</name></trkpt>
<trkpt lat="52.039442" lon="05.770218"><ele>48.5</ele><time>2022-04-12T15:28:25Z</time><name>PT4068</name></trkpt>
<trkpt lat="52.039434" lon="05.770213"><ele>48.6</ele><time>2022-04-12T15:28:26Z</time><name>PT4069</name></trkpt>
<trkpt lat="52.039422" lon="05.770205"><ele>48.6</ele><time>2022-04-12T15:28:27Z</time><name>PT4070</name></trkpt>
<trkpt lat="52.039411" lon="05.770202"><ele>48.7</ele><time>2022-04-12T15:28:28Z</time><name>PT4071</name></trkpt>
<trkpt lat="52.039401" lon="05.770201"><ele>48.7</ele><time>2022-04-12T15:28:29Z</time><name>PT4072</name></trkpt>
<trkpt lat="52.039391" lon="05.770201"><ele>48.7</ele><time>2022-04-12T15:28:30Z</time><name>PT4073</name></trkpt>
<trkpt lat="52.039381" lon="05.770197"><ele>48.7</ele><time>2022-04-12T15:28:31Z</time><name>PT4074</name></trkpt>
<trkpt lat="52.039371" lon="05.770193"><ele>48.7</ele><time>2022-04-12T15:28:32Z</time><name>PT4075</name></trkpt>
<trkpt lat="52.039360" lon="05.770193"><ele>48.7</ele><time>2022-04-12T15:28:33Z</time><name>PT4076</name></trkpt>
<trkpt lat="52.039349" lon="05.770192"><ele>48.8</ele><time>2022-04-12T15:28:34Z</time><name>PT4077</name></trkpt>
<trkpt lat="52.039339" lon="05.770194"><ele>49</ele><time>2022-04-12T15:28:35Z</time><name>PT4078</name></trkpt>
<trkpt lat="52.039328" lon="05.770193"><ele>49.2</ele><time>2022-04-12T15:28:36Z</time><name>PT4079</name></trkpt>
<trkpt lat="52.039316" lon="05.770188"><ele>49.3</ele><time>2022-04-12T15:28:37Z</time><name>PT4080</name></trkpt>
<trkpt lat="52.039305" lon="05.770186"><ele>49.2</ele><time>2022-04-12T15:28:38Z</time><name>PT4081</name></trkpt>
<trkpt lat="52.039292" lon="05.770184"><ele>49.3</ele><time>2022-04-12T15:28:39Z</time><name>PT4082</name></trkpt>
<trkpt lat="52.039282" lon="05.770187"><ele>49.2</ele><time>2022-04-12T15:28:40Z</time><name>PT4083</name></trkpt>
<trkpt lat="52.039272" lon="05.770188"><ele>49.1</ele><time>2022-04-12T15:28:41Z</time><name>PT4084</name></trkpt>
<trkpt lat="52.039259" lon="05.770188"><ele>49</ele><time>2022-04-12T15:28:42Z</time><name>PT4085</name></trkpt>
<trkpt lat="52.039248" lon="05.770188"><ele>48.8</ele><time>2022-04-12T15:28:43Z</time><name>PT4086</name></trkpt>
<trkpt lat="52.039239" lon="05.770190"><ele>48.8</ele><time>2022-04-12T15:28:44Z</time><name>PT4087</name></trkpt>
<trkpt lat="52.039230" lon="05.770189"><ele>49.1</ele><time>2022-04-12T15:28:46Z</time><name>PT4088</name></trkpt>
<trkpt lat="52.039221" lon="05.770191"><ele>49</ele><time>2022-04-12T15:28:46Z</time><name>PT4089</name></trkpt>
<trkpt lat="52.039212" lon="05.770192"><ele>49</ele><time>2022-04-12T15:28:48Z</time><name>PT4090</name></trkpt>
<trkpt lat="52.039202" lon="05.770190"><ele>49.2</ele><time>2022-04-12T15:28:48Z</time><name>PT4091</name></trkpt>
<trkpt lat="52.039192" lon="05.770187"><ele>49.2</ele><time>2022-04-12T15:28:50Z</time><name>PT4092</name></trkpt>
<trkpt lat="52.039182" lon="05.770193"><ele>49.2</ele><time>2022-04-12T15:28:50Z</time><name>PT4093</name></trkpt>
<trkpt lat="52.039171" lon="05.770195"><ele>49.2</ele><time>2022-04-12T15:28:51Z</time><name>PT4094</name></trkpt>
<trkpt lat="52.039159" lon="05.770194"><ele>49.3</ele><time>2022-04-12T15:28:52Z</time><name>PT4095</name></trkpt>
<trkpt lat="52.039146" lon="05.770192"><ele>49.2</ele><time>2022-04-12T15:28:53Z</time><name>PT4096</name></trkpt>
<trkpt lat="52.039135" lon="05.770189"><ele>49.1</ele><time>2022-04-12T15:28:54Z</time><name>PT4097</name></trkpt>
<trkpt lat="52.039125" lon="05.770190"><ele>49.1</ele><time>2022-04-12T15:28:55Z</time><name>PT4098</name></trkpt>
<trkpt lat="52.039116" lon="05.770190"><ele>48.9</ele><time>2022-04-12T15:28:56Z</time><name>PT4099</name></trkpt>
<trkpt lat="52.039106" lon="05.770183"><ele>48.9</ele><time>2022-04-12T15:28:57Z</time><name>PT4100</name></trkpt>
<trkpt lat="52.039095" lon="05.770177"><ele>49</ele><time>2022-04-12T15:28:58Z</time><name>PT4101</name></trkpt>
<trkpt lat="52.039084" lon="05.770175"><ele>49.2</ele><time>2022-04-12T15:28:59Z</time><name>PT4102</name></trkpt>
<trkpt lat="52.039072" lon="05.770178"><ele>49.1</ele><time>2022-04-12T15:29:00Z</time><name>PT4103</name></trkpt>
<trkpt lat="52.039061" lon="05.770178"><ele>49.1</ele><time>2022-04-12T15:29:01Z</time><name>PT4104</name></trkpt>
<trkpt lat="52.039050" lon="05.770180"><ele>48.9</ele><time>2022-04-12T15:29:02Z</time><name>PT4105</name></trkpt>
<trkpt lat="52.039041" lon="05.770179"><ele>48.8</ele><time>2022-04-12T15:29:03Z</time><name>PT4106</name></trkpt>
<trkpt lat="52.039029" lon="05.770179"><ele>48.7</ele><time>2022-04-12T15:29:04Z</time><name>PT4107</name></trkpt>
<trkpt lat="52.039019" lon="05.770180"><ele>48.7</ele><time>2022-04-12T15:29:05Z</time><name>PT4108</name></trkpt>
<trkpt lat="52.039008" lon="05.770180"><ele>48.7</ele><time>2022-04-12T15:29:06Z</time><name>PT4109</name></trkpt>
<trkpt lat="52.038996" lon="05.770178"><ele>48.6</ele><time>2022-04-12T15:29:07Z</time><name>PT4110</name></trkpt>
<trkpt lat="52.038984" lon="05.770175"><ele>48.7</ele><time>2022-04-12T15:29:08Z</time><name>PT4111</name></trkpt>
<trkpt lat="52.038974" lon="05.770177"><ele>48.7</ele><time>2022-04-12T15:29:09Z</time><name>PT4112</name></trkpt>
<trkpt lat="52.038964" lon="05.770183"><ele>48.9</ele><time>2022-04-12T15:29:10Z</time><name>PT4113</name></trkpt>
<trkpt lat="52.038952" lon="05.770185"><ele>48.9</ele><time>2022-04-12T15:29:11Z</time><name>PT4114</name></trkpt>
<trkpt lat="52.038942" lon="05.770182"><ele>49.1</ele><time>2022-04-12T15:29:12Z</time><name>PT4115</name></trkpt>
<trkpt lat="52.038934" lon="05.770177"><ele>49</ele><time>2022-04-12T15:29:13Z</time><name>PT4116</name></trkpt>
<trkpt lat="52.038923" lon="05.770176"><ele>49</ele><time>2022-04-12T15:29:14Z</time><name>PT4117</name></trkpt>
<trkpt lat="52.038913" lon="05.770176"><ele>48.9</ele><time>2022-04-12T15:29:15Z</time><name>PT4118</name></trkpt>
<trkpt lat="52.038903" lon="05.770169"><ele>48.9</ele><time>2022-04-12T15:29:16Z</time><name>PT4119</name></trkpt>
<trkpt lat="52.038892" lon="05.770164"><ele>49.1</ele><time>2022-04-12T15:29:17Z</time><name>PT4120</name></trkpt>
<trkpt lat="52.038882" lon="05.770164"><ele>49.2</ele><time>2022-04-12T15:29:18Z</time><name>PT4121</name></trkpt>
<trkpt lat="52.038871" lon="05.770161"><ele>49.1</ele><time>2022-04-12T15:29:19Z</time><name>PT4122</name></trkpt>
<trkpt lat="52.038858" lon="05.770161"><ele>49.1</ele><time>2022-04-12T15:29:20Z</time><name>PT4123</name></trkpt>
<trkpt lat="52.038847" lon="05.770161"><ele>48.9</ele><time>2022-04-12T15:29:21Z</time><name>PT4124</name></trkpt>
<trkpt lat="52.038838" lon="05.770157"><ele>48.7</ele><time>2022-04-12T15:29:22Z</time><name>PT4125</name></trkpt>
<trkpt lat="52.038828" lon="05.770154"><ele>48.5</ele><time>2022-04-12T15:29:23Z</time><name>PT4126</name></trkpt>
<trkpt lat="52.038817" lon="05.770153"><ele>48.4</ele><time>2022-04-12T15:29:24Z</time><name>PT4127</name></trkpt>
<trkpt lat="52.038806" lon="05.770154"><ele>48.4</ele><time>2022-04-12T15:29:25Z</time><name>PT4128</name></trkpt>
<trkpt lat="52.038797" lon="05.770156"><ele>48.4</ele><time>2022-04-12T15:29:26Z</time><name>PT4129</name></trkpt>
<trkpt lat="52.038787" lon="05.770154"><ele>48.4</ele><time>2022-04-12T15:29:27Z</time><name>PT4130</name></trkpt>
<trkpt lat="52.038777" lon="05.770150"><ele>48.6</ele><time>2022-04-12T15:29:28Z</time><name>PT4131</name></trkpt>
<trkpt lat="52.038769" lon="05.770150"><ele>48.5</ele><time>2022-04-12T15:29:29Z</time><name>PT4132</name></trkpt>
<trkpt lat="52.038760" lon="05.770150"><ele>48.6</ele><time>2022-04-12T15:29:30Z</time><name>PT4133</name></trkpt>
<trkpt lat="52.038749" lon="05.770153"><ele>48.6</ele><time>2022-04-12T15:29:31Z</time><name>PT4134</name></trkpt>
<trkpt lat="52.038736" lon="05.770151"><ele>48.7</ele><time>2022-04-12T15:29:32Z</time><name>PT4135</name></trkpt>
<trkpt lat="52.038723" lon="05.770147"><ele>49</ele><time>2022-04-12T15:29:33Z</time><name>PT4136</name></trkpt>
<trkpt lat="52.038713" lon="05.770147"><ele>49.2</ele><time>2022-04-12T15:29:34Z</time><name>PT4137</name></trkpt>
<trkpt lat="52.038700" lon="05.770150"><ele>49.4</ele><time>2022-04-12T15:29:35Z</time><name>PT4138</name></trkpt>
<trkpt lat="52.038690" lon="05.770150"><ele>49.4</ele><time>2022-04-12T15:29:36Z</time><name>PT4139</name></trkpt>
<trkpt lat="52.038676" lon="05.770144"><ele>49.4</ele><time>2022-04-12T15:29:37Z</time><name>PT4140</name></trkpt>
<trkpt lat="52.038664" lon="05.770141"><ele>49.2</ele><time>2022-04-12T15:29:38Z</time><name>PT4141</name></trkpt>
<trkpt lat="52.038653" lon="05.770138"><ele>49.3</ele><time>2022-04-12T15:29:39Z</time><name>PT4142</name></trkpt>
<trkpt lat="52.038642" lon="05.770137"><ele>49.3</ele><time>2022-04-12T15:29:40Z</time><name>PT4143</name></trkpt>
<trkpt lat="52.038631" lon="05.770136"><ele>49.3</ele><time>2022-04-12T15:29:41Z</time><name>PT4144</name></trkpt>
<trkpt lat="52.038622" lon="05.770131"><ele>49.2</ele><time>2022-04-12T15:29:42Z</time><name>PT4145</name></trkpt>
<trkpt lat="52.038612" lon="05.770126"><ele>49.2</ele><time>2022-04-12T15:29:43Z</time><name>PT4146</name></trkpt>
<trkpt lat="52.038601" lon="05.770121"><ele>49.1</ele><time>2022-04-12T15:29:44Z</time><name>PT4147</name></trkpt>
<trkpt lat="52.038593" lon="05.770121"><ele>48.9</ele><time>2022-04-12T15:29:45Z</time><name>PT4148</name></trkpt>
<trkpt lat="52.038582" lon="05.770120"><ele>48.8</ele><time>2022-04-12T15:29:46Z</time><name>PT4149</name></trkpt>
<trkpt lat="52.038572" lon="05.770117"><ele>48.8</ele><time>2022-04-12T15:29:47Z</time><name>PT4150</name></trkpt>
<trkpt lat="52.038563" lon="05.770113"><ele>48.7</ele><time>2022-04-12T15:29:48Z</time><name>PT4151</name></trkpt>
<trkpt lat="52.038554" lon="05.770111"><ele>48.8</ele><time>2022-04-12T15:29:49Z</time><name>PT4152</name></trkpt>
<trkpt lat="52.038545" lon="05.770108"><ele>48.8</ele><time>2022-04-12T15:29:50Z</time><name>PT4153</name></trkpt>
<trkpt lat="52.038536" lon="05.770104"><ele>48.8</ele><time>2022-04-12T15:29:51Z</time><name>PT4154</name></trkpt>
<trkpt lat="52.038527" lon="05.770100"><ele>48.8</ele><time>2022-04-12T15:29:52Z</time><name>PT4155</name></trkpt>
<trkpt lat="52.038516" lon="05.770098"><ele>48.9</ele><time>2022-04-12T15:29:53Z</time><name>PT4156</name></trkpt>
<trkpt lat="52.038507" lon="05.770099"><ele>48.8</ele><time>2022-04-12T15:29:54Z</time><name>PT4157</name></trkpt>
<trkpt lat="52.038495" lon="05.770105"><ele>48.7</ele><time>2022-04-12T15:29:55Z</time><name>PT4158</name></trkpt>
<trkpt lat="52.038487" lon="05.770107"><ele>48.7</ele><time>2022-04-12T15:29:56Z</time><name>PT4159</name></trkpt>
<trkpt lat="52.038476" lon="05.770108"><ele>48.6</ele><time>2022-04-12T15:29:57Z</time><name>PT4160</name></trkpt>
<trkpt lat="52.038466" lon="05.770108"><ele>48.5</ele><time>2022-04-12T15:29:58Z</time><name>PT4161</name></trkpt>
<trkpt lat="52.038457" lon="05.770104"><ele>48.6</ele><time>2022-04-12T15:29:59Z</time><name>PT4162</name></trkpt>
<trkpt lat="52.038448" lon="05.770098"><ele>48.7</ele><time>2022-04-12T15:30:00Z</time><name>PT4163</name></trkpt>
<trkpt lat="52.038432" lon="05.770096"><ele>48.9</ele><time>2022-04-12T15:30:01Z</time><name>PT4164</name></trkpt>
<trkpt lat="52.038423" lon="05.770098"><ele>49</ele><time>2022-04-12T15:30:02Z</time><name>PT4165</name></trkpt>
<trkpt lat="52.038413" lon="05.770101"><ele>49</ele><time>2022-04-12T15:30:03Z</time><name>PT4166</name></trkpt>
<trkpt lat="52.038403" lon="05.770100"><ele>49.1</ele><time>2022-04-12T15:30:04Z</time><name>PT4167</name></trkpt>
<trkpt lat="52.038394" lon="05.770100"><ele>49.1</ele><time>2022-04-12T15:30:05Z</time><name>PT4168</name></trkpt>
<trkpt lat="52.038384" lon="05.770105"><ele>49.1</ele><time>2022-04-12T15:30:06Z</time><name>PT4169</name></trkpt>
<trkpt lat="52.038374" lon="05.770108"><ele>49.2</ele><time>2022-04-12T15:30:07Z</time><name>PT4170</name></trkpt>
<trkpt lat="52.038363" lon="05.770104"><ele>49.2</ele><time>2022-04-12T15:30:08Z</time><name>PT4171</name></trkpt>
<trkpt lat="52.038354" lon="05.770098"><ele>49.2</ele><time>2022-04-12T15:30:09Z</time><name>PT4172</name></trkpt>
<trkpt lat="52.038344" lon="05.770094"><ele>49.1</ele><time>2022-04-12T15:30:10Z</time><name>PT4173</name></trkpt>
<trkpt lat="52.038329" lon="05.770095"><ele>48.9</ele><time>2022-04-12T15:30:11Z</time><name>PT4174</name></trkpt>
<trkpt lat="52.038316" lon="05.770093"><ele>49</ele><time>2022-04-12T15:30:12Z</time><name>PT4175</name></trkpt>
<trkpt lat="52.038304" lon="05.770092"><ele>49.2</ele><time>2022-04-12T15:30:13Z</time><name>PT4176</name></trkpt>
<trkpt lat="52.038293" lon="05.770094"><ele>49.2</ele><time>2022-04-12T15:30:14Z</time><name>PT4177</name></trkpt>
<trkpt lat="52.038279" lon="05.770090"><ele>49</ele><time>2022-04-12T15:30:15Z</time><name>PT4178</name></trkpt>
<trkpt lat="52.038271" lon="05.770093"><ele>49.1</ele><time>2022-04-12T15:30:16Z</time><name>PT4179</name></trkpt>
<trkpt lat="52.038262" lon="05.770094"><ele>48.8</ele><time>2022-04-12T15:30:17Z</time><name>PT4180</name></trkpt>
<trkpt lat="52.038252" lon="05.770094"><ele>49</ele><time>2022-04-12T15:30:18Z</time><name>PT4181</name></trkpt>
<trkpt lat="52.038243" lon="05.770097"><ele>49.1</ele><time>2022-04-12T15:30:19Z</time><name>PT4182</name></trkpt>
<trkpt lat="52.038232" lon="05.770096"><ele>49</ele><time>2022-04-12T15:30:20Z</time><name>PT4183</name></trkpt>
<trkpt lat="52.038220" lon="05.770096"><ele>49.1</ele><time>2022-04-12T15:30:21Z</time><name>PT4184</name></trkpt>
<trkpt lat="52.038209" lon="05.770095"><ele>49.1</ele><time>2022-04-12T15:30:22Z</time><name>PT4185</name></trkpt>
<trkpt lat="52.038196" lon="05.770098"><ele>49.1</ele><time>2022-04-12T15:30:23Z</time><name>PT4186</name></trkpt>
<trkpt lat="52.038184" lon="05.770100"><ele>49</ele><time>2022-04-12T15:30:24Z</time><name>PT4187</name></trkpt>
<trkpt lat="52.038173" lon="05.770102"><ele>49</ele><time>2022-04-12T15:30:25Z</time><name>PT4188</name></trkpt>
<trkpt lat="52.038163" lon="05.770099"><ele>49</ele><time>2022-04-12T15:30:26Z</time><name>PT4189</name></trkpt>
<trkpt lat="52.038152" lon="05.770097"><ele>48.9</ele><time>2022-04-12T15:30:27Z</time><name>PT4190</name></trkpt>
<trkpt lat="52.038142" lon="05.770095"><ele>48.9</ele><time>2022-04-12T15:30:28Z</time><name>PT4191</name></trkpt>
<trkpt lat="52.038133" lon="05.770085"><ele>48.7</ele><time>2022-04-12T15:30:29Z</time><name>PT4192</name></trkpt>
<trkpt lat="52.038124" lon="05.770083"><ele>48.7</ele><time>2022-04-12T15:30:30Z</time><name>PT4193</name></trkpt>
<trkpt lat="52.038113" lon="05.770086"><ele>48.8</ele><time>2022-04-12T15:30:31Z</time><name>PT4194</name></trkpt>
<trkpt lat="52.038102" lon="05.770084"><ele>48.7</ele><time>2022-04-12T15:30:32Z</time><name>PT4195</name></trkpt>
<trkpt lat="52.038092" lon="05.770082"><ele>49</ele><time>2022-04-12T15:30:33Z</time><name>PT4196</name></trkpt>
<trkpt lat="52.038082" lon="05.770085"><ele>49.2</ele><time>2022-04-12T15:30:34Z</time><name>PT4197</name></trkpt>
<trkpt lat="52.038073" lon="05.770089"><ele>49.2</ele><time>2022-04-12T15:30:35Z</time><name>PT4198</name></trkpt>
<trkpt lat="52.038062" lon="05.770090"><ele>49.3</ele><time>2022-04-12T15:30:36Z</time><name>PT4199</name></trkpt>
<trkpt lat="52.038051" lon="05.770085"><ele>49.4</ele><time>2022-04-12T15:30:37Z</time><name>PT4200</name></trkpt>
<trkpt lat="52.038041" lon="05.770082"><ele>49.2</ele><time>2022-04-12T15:30:38Z</time><name>PT4201</name></trkpt>
<trkpt lat="52.038031" lon="05.770082"><ele>49.1</ele><time>2022-04-12T15:30:39Z</time><name>PT4202</name></trkpt>
<trkpt lat="52.038022" lon="05.770085"><ele>49.1</ele><time>2022-04-12T15:30:40Z</time><name>PT4203</name></trkpt>
<trkpt lat="52.038013" lon="05.770086"><ele>49</ele><time>2022-04-12T15:30:41Z</time><name>PT4204</name></trkpt>
<trkpt lat="52.038001" lon="05.770083"><ele>49.1</ele><time>2022-04-12T15:30:42Z</time><name>PT4205</name></trkpt>
<trkpt lat="52.037991" lon="05.770082"><ele>49.2</ele><time>2022-04-12T15:30:43Z</time><name>PT4206</name></trkpt>
<trkpt lat="52.037979" lon="05.770084"><ele>49.2</ele><time>2022-04-12T15:30:44Z</time><name>PT4207</name></trkpt>
<trkpt lat="52.037968" lon="05.770082"><ele>49.2</ele><time>2022-04-12T15:30:45Z</time><name>PT4208</name></trkpt>
<trkpt lat="52.037955" lon="05.770082"><ele>49</ele><time>2022-04-12T15:30:46Z</time><name>PT4209</name></trkpt>
<trkpt lat="52.037947" lon="05.770082"><ele>49</ele><time>2022-04-12T15:30:47Z</time><name>PT4210</name></trkpt>
<trkpt lat="52.037936" lon="05.770081"><ele>48.8</ele><time>2022-04-12T15:30:48Z</time><name>PT4211</name></trkpt>
<trkpt lat="52.037924" lon="05.770074"><ele>49</ele><time>2022-04-12T15:30:49Z</time><name>PT4212</name></trkpt>
<trkpt lat="52.037912" lon="05.770069"><ele>49.1</ele><time>2022-04-12T15:30:50Z</time><name>PT4213</name></trkpt>
<trkpt lat="52.037901" lon="05.770069"><ele>49.1</ele><time>2022-04-12T15:30:51Z</time><name>PT4214</name></trkpt>
<trkpt lat="52.037891" lon="05.770071"><ele>49.3</ele><time>2022-04-12T15:30:52Z</time><name>PT4215</name></trkpt>
<trkpt lat="52.037879" lon="05.770070"><ele>49.2</ele><time>2022-04-12T15:30:53Z</time><name>PT4216</name></trkpt>
<trkpt lat="52.037869" lon="05.770067"><ele>49.1</ele><time>2022-04-12T15:30:54Z</time><name>PT4217</name></trkpt>
<trkpt lat="52.037857" lon="05.770065"><ele>49</ele><time>2022-04-12T15:30:55Z</time><name>PT4218</name></trkpt>
<trkpt lat="52.037846" lon="05.770065"><ele>48.9</ele><time>2022-04-12T15:30:56Z</time><name>PT4219</name></trkpt>
<trkpt lat="52.037837" lon="05.770068"><ele>49</ele><time>2022-04-12T15:30:57Z</time><name>PT4220</name></trkpt>
<trkpt lat="52.037830" lon="05.770068"><ele>49.1</ele><time>2022-04-12T15:30:58Z</time><name>PT4221</name></trkpt>
<trkpt lat="52.037820" lon="05.770063"><ele>48.9</ele><time>2022-04-12T15:30:59Z</time><name>PT4222</name></trkpt>
<trkpt lat="52.037810" lon="05.770061"><ele>49.2</ele><time>2022-04-12T15:31:00Z</time><name>PT4223</name></trkpt>
<trkpt lat="52.037798" lon="05.770060"><ele>49.4</ele><time>2022-04-12T15:31:01Z</time><name>PT4224</name></trkpt>
<trkpt lat="52.037787" lon="05.770054"><ele>49.5</ele><time>2022-04-12T15:31:02Z</time><name>PT4225</name></trkpt>
<trkpt lat="52.037776" lon="05.770053"><ele>49.6</ele><time>2022-04-12T15:31:03Z</time><name>PT4226</name></trkpt>
<trkpt lat="52.037765" lon="05.770053"><ele>49.5</ele><time>2022-04-12T15:31:04Z</time><name>PT4227</name></trkpt>
<trkpt lat="52.037754" lon="05.770049"><ele>49.4</ele><time>2022-04-12T15:31:05Z</time><name>PT4228</name></trkpt>
<trkpt lat="52.037741" lon="05.770047"><ele>49.5</ele><time>2022-04-12T15:31:06Z</time><name>PT4229</name></trkpt>
<trkpt lat="52.037729" lon="05.770046"><ele>49.4</ele><time>2022-04-12T15:31:07Z</time><name>PT4230</name></trkpt>
<trkpt lat="52.037717" lon="05.770049"><ele>49.4</ele><time>2022-04-12T15:31:08Z</time><name>PT4231</name></trkpt>
<trkpt lat="52.037706" lon="05.770047"><ele>49.4</ele><time>2022-04-12T15:31:09Z</time><name>PT4232</name></trkpt>
<trkpt lat="52.037696" lon="05.770042"><ele>49.3</ele><time>2022-04-12T15:31:10Z</time><name>PT4233</name></trkpt>
<trkpt lat="52.037685" lon="05.770040"><ele>49.3</ele><time>2022-04-12T15:31:11Z</time><name>PT4234</name></trkpt>
<trkpt lat="52.037675" lon="05.770040"><ele>49.3</ele><time>2022-04-12T15:31:12Z</time><name>PT4235</name></trkpt>
<trkpt lat="52.037666" lon="05.770039"><ele>49.4</ele><time>2022-04-12T15:31:13Z</time><name>PT4236</name></trkpt>
<trkpt lat="52.037656" lon="05.770039"><ele>49.2</ele><time>2022-04-12T15:31:14Z</time><name>PT4237</name></trkpt>
<trkpt lat="52.037641" lon="05.770041"><ele>49.2</ele><time>2022-04-12T15:31:15Z</time><name>PT4238</name></trkpt>
<trkpt lat="52.037629" lon="05.770040"><ele>49.3</ele><time>2022-04-12T15:31:16Z</time><name>PT4239</name></trkpt>
<trkpt lat="52.037617" lon="05.770037"><ele>49.2</ele><time>2022-04-12T15:31:17Z</time><name>PT4240</name></trkpt>
<trkpt lat="52.037608" lon="05.770038"><ele>49.2</ele><time>2022-04-12T15:31:18Z</time><name>PT4241</name></trkpt>
<trkpt lat="52.037597" lon="05.770039"><ele>49.2</ele><time>2022-04-12T15:31:19Z</time><name>PT4242</name></trkpt>
<trkpt lat="52.037586" lon="05.770038"><ele>49.1</ele><time>2022-04-12T15:31:20Z</time><name>PT4243</name></trkpt>
<trkpt lat="52.037575" lon="05.770036"><ele>49.2</ele><time>2022-04-12T15:31:21Z</time><name>PT4244</name></trkpt>
<trkpt lat="52.037566" lon="05.770033"><ele>49.2</ele><time>2022-04-12T15:31:22Z</time><name>PT4245</name></trkpt>
<trkpt lat="52.037555" lon="05.770030"><ele>49.3</ele><time>2022-04-12T15:31:23Z</time><name>PT4246</name></trkpt>
<trkpt lat="52.037545" lon="05.770031"><ele>49.2</ele><time>2022-04-12T15:31:24Z</time><name>PT4247</name></trkpt>
<trkpt lat="52.037536" lon="05.770029"><ele>49.4</ele><time>2022-04-12T15:31:25Z</time><name>PT4248</name></trkpt>
<trkpt lat="52.037527" lon="05.770026"><ele>49.4</ele><time>2022-04-12T15:31:26Z</time><name>PT4249</name></trkpt>
<trkpt lat="52.037516" lon="05.770025"><ele>49.6</ele><time>2022-04-12T15:31:27Z</time><name>PT4250</name></trkpt>
<trkpt lat="52.037506" lon="05.770025"><ele>49.7</ele><time>2022-04-12T15:31:28Z</time><name>PT4251</name></trkpt>
<trkpt lat="52.037497" lon="05.770023"><ele>49.6</ele><time>2022-04-12T15:31:29Z</time><name>PT4252</name></trkpt>
<trkpt lat="52.037488" lon="05.770022"><ele>49.5</ele><time>2022-04-12T15:31:30Z</time><name>PT4253</name></trkpt>
<trkpt lat="52.037479" lon="05.770024"><ele>49.5</ele><time>2022-04-12T15:31:31Z</time><name>PT4254</name></trkpt>
<trkpt lat="52.037468" lon="05.770025"><ele>49.5</ele><time>2022-04-12T15:31:32Z</time><name>PT4255</name></trkpt>
<trkpt lat="52.037457" lon="05.770026"><ele>49.3</ele><time>2022-04-12T15:31:33Z</time><name>PT4256</name></trkpt>
<trkpt lat="52.037455" lon="05.770038"><ele>49.4</ele><time>2022-04-12T15:31:34Z</time><name>PT4257</name></trkpt>
<trkpt lat="52.037447" lon="05.770043"><ele>49.3</ele><time>2022-04-12T15:31:35Z</time><name>PT4258</name></trkpt>
<trkpt lat="52.037439" lon="05.770039"><ele>49.2</ele><time>2022-04-12T15:31:36Z</time><name>PT4259</name></trkpt>
<trkpt lat="52.037427" lon="05.770037"><ele>49.3</ele><time>2022-04-12T15:31:37Z</time><name>PT4260</name></trkpt>
<trkpt lat="52.037415" lon="05.770039"><ele>49.4</ele><time>2022-04-12T15:31:38Z</time><name>PT4261</name></trkpt>
<trkpt lat="52.037405" lon="05.770040"><ele>49.4</ele><time>2022-04-12T15:31:39Z</time><name>PT4262</name></trkpt>
<trkpt lat="52.037396" lon="05.770040"><ele>49.6</ele><time>2022-04-12T15:31:40Z</time><name>PT4263</name></trkpt>
<trkpt lat="52.037388" lon="05.770039"><ele>49.6</ele><time>2022-04-12T15:31:41Z</time><name>PT4264</name></trkpt>
<trkpt lat="52.037378" lon="05.770037"><ele>49.5</ele><time>2022-04-12T15:31:42Z</time><name>PT4265</name></trkpt>
<trkpt lat="52.037366" lon="05.770034"><ele>49.3</ele><time>2022-04-12T15:31:43Z</time><name>PT4266</name></trkpt>
<trkpt lat="52.037348" lon="05.770031"><ele>49.4</ele><time>2022-04-12T15:31:44Z</time><name>PT4267</name></trkpt>
<trkpt lat="52.037334" lon="05.770030"><ele>49.3</ele><time>2022-04-12T15:31:45Z</time><name>PT4268</name></trkpt>
<trkpt lat="52.037322" lon="05.770030"><ele>49.4</ele><time>2022-04-12T15:31:46Z</time><name>PT4269</name></trkpt>
<trkpt lat="52.037310" lon="05.770025"><ele>49.5</ele><time>2022-04-12T15:31:47Z</time><name>PT4270</name></trkpt>
<trkpt lat="52.037300" lon="05.770024"><ele>49.6</ele><time>2022-04-12T15:31:48Z</time><name>PT4271</name></trkpt>
<trkpt lat="52.037291" lon="05.770021"><ele>49.7</ele><time>2022-04-12T15:31:49Z</time><name>PT4272</name></trkpt>
<trkpt lat="52.037285" lon="05.770020"><ele>49.8</ele><time>2022-04-12T15:31:50Z</time><name>PT4273</name></trkpt>
<trkpt lat="52.037278" lon="05.770015"><ele>49.9</ele><time>2022-04-12T15:31:51Z</time><name>PT4274</name></trkpt>
<trkpt lat="52.037266" lon="05.770012"><ele>49.9</ele><time>2022-04-12T15:31:52Z</time><name>PT4275</name></trkpt>
<trkpt lat="52.037254" lon="05.770011"><ele>49.5</ele><time>2022-04-12T15:31:53Z</time><name>PT4276</name></trkpt>
<trkpt lat="52.037244" lon="05.770005"><ele>49.5</ele><time>2022-04-12T15:31:54Z</time><name>PT4277</name></trkpt>
<trkpt lat="52.037234" lon="05.770007"><ele>49.4</ele><time>2022-04-12T15:31:55Z</time><name>PT4278</name></trkpt>
<trkpt lat="52.037219" lon="05.770008"><ele>49.3</ele><time>2022-04-12T15:31:56Z</time><name>PT4279</name></trkpt>
<trkpt lat="52.037206" lon="05.770002"><ele>49.7</ele><time>2022-04-12T15:31:57Z</time><name>PT4280</name></trkpt>
<trkpt lat="52.037193" lon="05.770000"><ele>49.8</ele><time>2022-04-12T15:31:58Z</time><name>PT4281</name></trkpt>
<trkpt lat="52.037182" lon="05.769997"><ele>49.8</ele><time>2022-04-12T15:31:59Z</time><name>PT4282</name></trkpt>
<trkpt lat="52.037172" lon="05.769993"><ele>49.7</ele><time>2022-04-12T15:32:00Z</time><name>PT4283</name></trkpt>
<trkpt lat="52.037163" lon="05.769991"><ele>49.7</ele><time>2022-04-12T15:32:01Z</time><name>PT4284</name></trkpt>
<trkpt lat="52.037158" lon="05.769985"><ele>49.8</ele><time>2022-04-12T15:32:02Z</time><name>PT4285</name></trkpt>
<trkpt lat="52.037148" lon="05.769982"><ele>49.8</ele><time>2022-04-12T15:32:03Z</time><name>PT4286</name></trkpt>
<trkpt lat="52.037135" lon="05.769983"><ele>50</ele><time>2022-04-12T15:32:04Z</time><name>PT4287</name></trkpt>
<trkpt lat="52.037122" lon="05.769983"><ele>50</ele><time>2022-04-12T15:32:05Z</time><name>PT4288</name></trkpt>
<trkpt lat="52.037112" lon="05.769980"><ele>50</ele><time>2022-04-12T15:32:06Z</time><name>PT4289</name></trkpt>
<trkpt lat="52.037100" lon="05.769978"><ele>50</ele><time>2022-04-12T15:32:07Z</time><name>PT4290</name></trkpt>
<trkpt lat="52.037092" lon="05.769979"><ele>50.1</ele><time>2022-04-12T15:32:08Z</time><name>PT4291</name></trkpt>
<trkpt lat="52.037083" lon="05.769981"><ele>50.1</ele><time>2022-04-12T15:32:09Z</time><name>PT4292</name></trkpt>
<trkpt lat="52.037072" lon="05.769980"><ele>50.2</ele><time>2022-04-12T15:32:10Z</time><name>PT4293</name></trkpt>
<trkpt lat="52.037061" lon="05.769983"><ele>50.2</ele><time>2022-04-12T15:32:11Z</time><name>PT4294</name></trkpt>
<trkpt lat="52.037050" lon="05.769984"><ele>50.2</ele><time>2022-04-12T15:32:12Z</time><name>PT4295</name></trkpt>
<trkpt lat="52.037038" lon="05.769984"><ele>50</ele><time>2022-04-12T15:32:13Z</time><name>PT4296</name></trkpt>
<trkpt lat="52.037024" lon="05.769987"><ele>49.9</ele><time>2022-04-12T15:32:14Z</time><name>PT4297</name></trkpt>
<trkpt lat="52.037013" lon="05.769989"><ele>49.8</ele><time>2022-04-12T15:32:15Z</time><name>PT4298</name></trkpt>
<trkpt lat="52.037001" lon="05.769990"><ele>49.8</ele><time>2022-04-12T15:32:16Z</time><name>PT4299</name></trkpt>
<trkpt lat="52.036989" lon="05.769988"><ele>50</ele><time>2022-04-12T15:32:17Z</time><name>PT4300</name></trkpt>
<trkpt lat="52.036978" lon="05.769989"><ele>50</ele><time>2022-04-12T15:32:18Z</time><name>PT4301</name></trkpt>
<trkpt lat="52.036967" lon="05.769991"><ele>49.9</ele><time>2022-04-12T15:32:19Z</time><name>PT4302</name></trkpt>
<trkpt lat="52.036957" lon="05.769992"><ele>50.1</ele><time>2022-04-12T15:32:20Z</time><name>PT4303</name></trkpt>
<trkpt lat="52.036947" lon="05.769990"><ele>49.9</ele><time>2022-04-12T15:32:21Z</time><name>PT4304</name></trkpt>
<trkpt lat="52.036939" lon="05.769990"><ele>49.9</ele><time>2022-04-12T15:32:22Z</time><name>PT4305</name></trkpt>
<trkpt lat="52.036929" lon="05.769989"><ele>49.7</ele><time>2022-04-12T15:32:23Z</time><name>PT4306</name></trkpt>
<trkpt lat="52.036919" lon="05.769986"><ele>49.7</ele><time>2022-04-12T15:32:24Z</time><name>PT4307</name></trkpt>
<trkpt lat="52.036908" lon="05.769986"><ele>49.6</ele><time>2022-04-12T15:32:25Z</time><name>PT4308</name></trkpt>
<trkpt lat="52.036896" lon="05.769983"><ele>49.6</ele><time>2022-04-12T15:32:26Z</time><name>PT4309</name></trkpt>
<trkpt lat="52.036885" lon="05.769980"><ele>49.7</ele><time>2022-04-12T15:32:27Z</time><name>PT4310</name></trkpt>
<trkpt lat="52.036874" lon="05.769976"><ele>49.7</ele><time>2022-04-12T15:32:28Z</time><name>PT4311</name></trkpt>
<trkpt lat="52.036862" lon="05.769970"><ele>49.9</ele><time>2022-04-12T15:32:29Z</time><name>PT4312</name></trkpt>
<trkpt lat="52.036851" lon="05.769969"><ele>50</ele><time>2022-04-12T15:32:30Z</time><name>PT4313</name></trkpt>
<trkpt lat="52.036841" lon="05.769971"><ele>50.2</ele><time>2022-04-12T15:32:31Z</time><name>PT4314</name></trkpt>
<trkpt lat="52.036831" lon="05.769975"><ele>50.2</ele><time>2022-04-12T15:32:32Z</time><name>PT4315</name></trkpt>
<trkpt lat="52.036820" lon="05.769974"><ele>50.2</ele><time>2022-04-12T15:32:33Z</time><name>PT4316</name></trkpt>
<trkpt lat="52.036810" lon="05.769972"><ele>50.2</ele><time>2022-04-12T15:32:34Z</time><name>PT4317</name></trkpt>
<trkpt lat="52.036800" lon="05.769968"><ele>50.1</ele><time>2022-04-12T15:32:35Z</time><name>PT4318</name></trkpt>
<trkpt lat="52.036788" lon="05.769965"><ele>50.2</ele><time>2022-04-12T15:32:36Z</time><name>PT4319</name></trkpt>
<trkpt lat="52.036776" lon="05.769967"><ele>50.2</ele><time>2022-04-12T15:32:37Z</time><name>PT4320</name></trkpt>
<trkpt lat="52.036765" lon="05.769966"><ele>50.1</ele><time>2022-04-12T15:32:38Z</time><name>PT4321</name></trkpt>
<trkpt lat="52.036756" lon="05.769964"><ele>50</ele><time>2022-04-12T15:32:39Z</time><name>PT4322</name></trkpt>
<trkpt lat="52.036747" lon="05.769965"><ele>50</ele><time>2022-04-12T15:32:40Z</time><name>PT4323</name></trkpt>
<trkpt lat="52.036739" lon="05.769964"><ele>50.2</ele><time>2022-04-12T15:32:41Z</time><name>PT4324</name></trkpt>
<trkpt lat="52.036731" lon="05.769965"><ele>50.2</ele><time>2022-04-12T15:32:42Z</time><name>PT4325</name></trkpt>
<trkpt lat="52.036722" lon="05.769964"><ele>50.3</ele><time>2022-04-12T15:32:43Z</time><name>PT4326</name></trkpt>
<trkpt lat="52.036710" lon="05.769960"><ele>50.4</ele><time>2022-04-12T15:32:44Z</time><name>PT4327</name></trkpt>
<trkpt lat="52.036702" lon="05.769956"><ele>50.3</ele><time>2022-04-12T15:32:45Z</time><name>PT4328</name></trkpt>
<trkpt lat="52.036693" lon="05.769956"><ele>50.4</ele><time>2022-04-12T15:32:46Z</time><name>PT4329</name></trkpt>
<trkpt lat="52.036680" lon="05.769957"><ele>50.6</ele><time>2022-04-12T15:32:47Z</time><name>PT4330</name></trkpt>
<trkpt lat="52.036673" lon="05.769964"><ele>50.6</ele><time>2022-04-12T15:32:48Z</time><name>PT4331</name></trkpt>
<trkpt lat="52.036660" lon="05.769964"><ele>50.7</ele><time>2022-04-12T15:32:49Z</time><name>PT4332</name></trkpt>
<trkpt lat="52.036649" lon="05.769963"><ele>50.3</ele><time>2022-04-12T15:32:50Z</time><name>PT4333</name></trkpt>
<trkpt lat="52.036642" lon="05.769965"><ele>50.1</ele><time>2022-04-12T15:32:51Z</time><name>PT4334</name></trkpt>
<trkpt lat="52.036630" lon="05.769968"><ele>50.1</ele><time>2022-04-12T15:32:52Z</time><name>PT4335</name></trkpt>
<trkpt lat="52.036618" lon="05.769969"><ele>50.1</ele><time>2022-04-12T15:32:53Z</time><name>PT4336</name></trkpt>
<trkpt lat="52.036607" lon="05.769965"><ele>50.2</ele><time>2022-04-12T15:32:54Z</time><name>PT4337</name></trkpt>
<trkpt lat="52.036594" lon="05.769958"><ele>50.4</ele><time>2022-04-12T15:32:55Z</time><name>PT4338</name></trkpt>
<trkpt lat="52.036585" lon="05.769957"><ele>50.5</ele><time>2022-04-12T15:32:56Z</time><name>PT4339</name></trkpt>
<trkpt lat="52.036574" lon="05.769958"><ele>50.2</ele><time>2022-04-12T15:32:57Z</time><name>PT4340</name></trkpt>
<trkpt lat="52.036566" lon="05.769959"><ele>50.1</ele><time>2022-04-12T15:32:58Z</time><name>PT4341</name></trkpt>
<trkpt lat="52.036555" lon="05.769958"><ele>49.7</ele><time>2022-04-12T15:32:59Z</time><name>PT4342</name></trkpt>
<trkpt lat="52.036543" lon="05.769959"><ele>49.7</ele><time>2022-04-12T15:33:01Z</time><name>PT4343</name></trkpt>
<trkpt lat="52.036532" lon="05.769959"><ele>49.8</ele><time>2022-04-12T15:33:01Z</time><name>PT4344</name></trkpt>
<trkpt lat="52.036522" lon="05.769960"><ele>50.1</ele><time>2022-04-12T15:33:02Z</time><name>PT4345</name></trkpt>
<trkpt lat="52.036510" lon="05.769962"><ele>50.2</ele><time>2022-04-12T15:33:03Z</time><name>PT4346</name></trkpt>
<trkpt lat="52.036498" lon="05.769961"><ele>50.3</ele><time>2022-04-12T15:33:04Z</time><name>PT4347</name></trkpt>
<trkpt lat="52.036485" lon="05.769961"><ele>50.2</ele><time>2022-04-12T15:33:05Z</time><name>PT4348</name></trkpt>
<trkpt lat="52.036474" lon="05.769960"><ele>50.2</ele><time>2022-04-12T15:33:06Z</time><name>PT4349</name></trkpt>
<trkpt lat="52.036462" lon="05.769960"><ele>50</ele><time>2022-04-12T15:33:07Z</time><name>PT4350</name></trkpt>
<trkpt lat="52.036451" lon="05.769958"><ele>50.2</ele><time>2022-04-12T15:33:08Z</time><name>PT4351</name></trkpt>
<trkpt lat="52.036438" lon="05.769957"><ele>50.2</ele><time>2022-04-12T15:33:09Z</time><name>PT4352</name></trkpt>
<trkpt lat="52.036425" lon="05.769955"><ele>50.1</ele><time>2022-04-12T15:33:10Z</time><name>PT4353</name></trkpt>
<trkpt lat="52.036416" lon="05.769953"><ele>50.1</ele><time>2022-04-12T15:33:11Z</time><name>PT4354</name></trkpt>
<trkpt lat="52.036407" lon="05.769950"><ele>50.1</ele><time>2022-04-12T15:33:12Z</time><name>PT4355</name></trkpt>
<trkpt lat="52.036398" lon="05.769946"><ele>50.1</ele><time>2022-04-12T15:33:13Z</time><name>PT4356</name></trkpt>
<trkpt lat="52.036388" lon="05.769944"><ele>50.1</ele><time>2022-04-12T15:33:14Z</time><name>PT4357</name></trkpt>
<trkpt lat="52.036375" lon="05.769942"><ele>50.2</ele><time>2022-04-12T15:33:15Z</time><name>PT4358</name></trkpt>
<trkpt lat="52.036363" lon="05.769939"><ele>50.1</ele><time>2022-04-12T15:33:16Z</time><name>PT4359</name></trkpt>
<trkpt lat="52.036351" lon="05.769937"><ele>50</ele><time>2022-04-12T15:33:17Z</time><name>PT4360</name></trkpt>
<trkpt lat="52.036342" lon="05.769934"><ele>50.1</ele><time>2022-04-12T15:33:18Z</time><name>PT4361</name></trkpt>
<trkpt lat="52.036334" lon="05.769934"><ele>50.1</ele><time>2022-04-12T15:33:19Z</time><name>PT4362</name></trkpt>
<trkpt lat="52.036327" lon="05.769931"><ele>50.1</ele><time>2022-04-12T15:33:20Z</time><name>PT4363</name></trkpt>
<trkpt lat="52.036318" lon="05.769930"><ele>50</ele><time>2022-04-12T15:33:21Z</time><name>PT4364</name></trkpt>
<trkpt lat="52.036308" lon="05.769931"><ele>50.2</ele><time>2022-04-12T15:33:22Z</time><name>PT4365</name></trkpt>
<trkpt lat="52.036294" lon="05.769934"><ele>50.2</ele><time>2022-04-12T15:33:23Z</time><name>PT4366</name></trkpt>
<trkpt lat="52.036283" lon="05.769937"><ele>50.4</ele><time>2022-04-12T15:33:24Z</time><name>PT4367</name></trkpt>
<trkpt lat="52.036274" lon="05.769938"><ele>50.5</ele><time>2022-04-12T15:33:25Z</time><name>PT4368</name></trkpt>
<trkpt lat="52.036264" lon="05.769935"><ele>50.3</ele><time>2022-04-12T15:33:26Z</time><name>PT4369</name></trkpt>
<trkpt lat="52.036255" lon="05.769931"><ele>50.2</ele><time>2022-04-12T15:33:27Z</time><name>PT4370</name></trkpt>
<trkpt lat="52.036251" lon="05.769938"><ele>50.2</ele><time>2022-04-12T15:33:28Z</time><name>PT4371</name></trkpt>
<trkpt lat="52.036242" lon="05.769937"><ele>50.1</ele><time>2022-04-12T15:33:29Z</time><name>PT4372</name></trkpt>
<trkpt lat="52.036230" lon="05.769937"><ele>50</ele><time>2022-04-12T15:33:30Z</time><name>PT4373</name></trkpt>
<trkpt lat="52.036220" lon="05.769939"><ele>50.1</ele><time>2022-04-12T15:33:31Z</time><name>PT4374</name></trkpt>
<trkpt lat="52.036209" lon="05.769938"><ele>49.8</ele><time>2022-04-12T15:33:32Z</time><name>PT4375</name></trkpt>
<trkpt lat="52.036196" lon="05.769936"><ele>49.8</ele><time>2022-04-12T15:33:33Z</time><name>PT4376</name></trkpt>
<trkpt lat="52.036185" lon="05.769933"><ele>49.9</ele><time>2022-04-12T15:33:34Z</time><name>PT4377</name></trkpt>
<trkpt lat="52.036174" lon="05.769933"><ele>49.9</ele><time>2022-04-12T15:33:35Z</time><name>PT4378</name></trkpt>
<trkpt lat="52.036164" lon="05.769931"><ele>50.1</ele><time>2022-04-12T15:33:36Z</time><name>PT4379</name></trkpt>
<trkpt lat="52.036157" lon="05.769927"><ele>50.1</ele><time>2022-04-12T15:33:37Z</time><name>PT4380</name></trkpt>
<trkpt lat="52.036153" lon="05.769925"><ele>50</ele><time>2022-04-12T15:33:38Z</time><name>PT4381</name></trkpt>
<trkpt lat="52.036152" lon="05.769921"><ele>50.2</ele><time>2022-04-12T15:33:39Z</time><name>PT4382</name></trkpt>
<trkpt lat="52.036152" lon="05.769919"><ele>50.2</ele><time>2022-04-12T15:33:40Z</time><name>PT4383</name></trkpt>
<trkpt lat="52.036150" lon="05.769906"><ele>50.2</ele><time>2022-04-12T15:33:44Z</time><name>PT4384</name></trkpt>
<trkpt lat="52.036139" lon="05.769906"><ele>50.3</ele><time>2022-04-12T15:33:45Z</time><name>PT4385</name></trkpt>
<trkpt lat="52.036127" lon="05.769905"><ele>50.2</ele><time>2022-04-12T15:33:46Z</time><name>PT4386</name></trkpt>
<trkpt lat="52.036116" lon="05.769907"><ele>50.2</ele><time>2022-04-12T15:33:47Z</time><name>PT4387</name></trkpt>
<trkpt lat="52.036101" lon="05.769912"><ele>50.3</ele><time>2022-04-12T15:33:48Z</time><name>PT4388</name></trkpt>
<trkpt lat="52.036091" lon="05.769907"><ele>50.4</ele><time>2022-04-12T15:33:49Z</time><name>PT4389</name></trkpt>
<trkpt lat="52.036085" lon="05.769904"><ele>50.5</ele><time>2022-04-12T15:33:50Z</time><name>PT4390</name></trkpt>
<trkpt lat="52.036074" lon="05.769901"><ele>50.4</ele><time>2022-04-12T15:33:51Z</time><name>PT4391</name></trkpt>
<trkpt lat="52.036062" lon="05.769902"><ele>50.3</ele><time>2022-04-12T15:33:52Z</time><name>PT4392</name></trkpt>
<trkpt lat="52.036051" lon="05.769901"><ele>50.3</ele><time>2022-04-12T15:33:53Z</time><name>PT4393</name></trkpt>
<trkpt lat="52.036033" lon="05.769907"><ele>50.5</ele><time>2022-04-12T15:33:54Z</time><name>PT4394</name></trkpt>
<trkpt lat="52.036021" lon="05.769900"><ele>50.6</ele><time>2022-04-12T15:33:55Z</time><name>PT4395</name></trkpt>
<trkpt lat="52.036012" lon="05.769902"><ele>50.6</ele><time>2022-04-12T15:33:56Z</time><name>PT4396</name></trkpt>
<trkpt lat="52.036004" lon="05.769899"><ele>50.4</ele><time>2022-04-12T15:33:57Z</time><name>PT4397</name></trkpt>
<trkpt lat="52.035996" lon="05.769902"><ele>50</ele><time>2022-04-12T15:33:58Z</time><name>PT4398</name></trkpt>
<trkpt lat="52.035987" lon="05.769904"><ele>50</ele><time>2022-04-12T15:33:59Z</time><name>PT4399</name></trkpt>
<trkpt lat="52.035979" lon="05.769902"><ele>50</ele><time>2022-04-12T15:34:00Z</time><name>PT4400</name></trkpt>
<trkpt lat="52.035969" lon="05.769900"><ele>49.9</ele><time>2022-04-12T15:34:01Z</time><name>PT4401</name></trkpt>
<trkpt lat="52.035963" lon="05.769902"><ele>49.9</ele><time>2022-04-12T15:34:02Z</time><name>PT4402</name></trkpt>
<trkpt lat="52.035956" lon="05.769905"><ele>50.1</ele><time>2022-04-12T15:34:03Z</time><name>PT4403</name></trkpt>
<trkpt lat="52.035948" lon="05.769910"><ele>50.1</ele><time>2022-04-12T15:34:04Z</time><name>PT4404</name></trkpt>
<trkpt lat="52.035945" lon="05.769920"><ele>50.2</ele><time>2022-04-12T15:34:05Z</time><name>PT4405</name></trkpt>
<trkpt lat="52.035944" lon="05.769928"><ele>50.3</ele><time>2022-04-12T15:34:06Z</time><name>PT4406</name></trkpt>
<trkpt lat="52.035946" lon="05.769938"><ele>50.4</ele><time>2022-04-12T15:34:07Z</time><name>PT4407</name></trkpt>
<trkpt lat="52.035946" lon="05.769947"><ele>50.4</ele><time>2022-04-12T15:34:08Z</time><name>PT4408</name></trkpt>
<trkpt lat="52.035942" lon="05.769960"><ele>50.4</ele><time>2022-04-12T15:34:09Z</time><name>PT4409</name></trkpt>
<trkpt lat="52.035938" lon="05.769973"><ele>50.3</ele><time>2022-04-12T15:34:10Z</time><name>PT4410</name></trkpt>
<trkpt lat="52.035934" lon="05.769983"><ele>50.2</ele><time>2022-04-12T15:34:11Z</time><name>PT4411</name></trkpt>
<trkpt lat="52.035935" lon="05.769996"><ele>50.2</ele><time>2022-04-12T15:34:12Z</time><name>PT4412</name></trkpt>
<trkpt lat="52.035936" lon="05.770010"><ele>50.2</ele><time>2022-04-12T15:34:13Z</time><name>PT4413</name></trkpt>
<trkpt lat="52.035936" lon="05.770026"><ele>50.2</ele><time>2022-04-12T15:34:14Z</time><name>PT4414</name></trkpt>
<trkpt lat="52.035938" lon="05.770037"><ele>50</ele><time>2022-04-12T15:34:15Z</time><name>PT4415</name></trkpt>
<trkpt lat="52.035940" lon="05.770051"><ele>49.9</ele><time>2022-04-12T15:34:16Z</time><name>PT4416</name></trkpt>
<trkpt lat="52.035942" lon="05.770059"><ele>50</ele><time>2022-04-12T15:34:17Z</time><name>PT4417</name></trkpt>
<trkpt lat="52.035944" lon="05.770074"><ele>50</ele><time>2022-04-12T15:34:18Z</time><name>PT4418</name></trkpt>
<trkpt lat="52.035945" lon="05.770091"><ele>50</ele><time>2022-04-12T15:34:19Z</time><name>PT4419</name></trkpt>
<trkpt lat="52.035945" lon="05.770104"><ele>50</ele><time>2022-04-12T15:34:20Z</time><name>PT4420</name></trkpt>
<trkpt lat="52.035945" lon="05.770119"><ele>50.1</ele><time>2022-04-12T15:34:21Z</time><name>PT4421</name></trkpt>
<trkpt lat="52.035943" lon="05.770131"><ele>50</ele><time>2022-04-12T15:34:22Z</time><name>PT4422</name></trkpt>
<trkpt lat="52.035941" lon="05.770147"><ele>50.2</ele><time>2022-04-12T15:34:23Z</time><name>PT4423</name></trkpt>
<trkpt lat="52.035940" lon="05.770166"><ele>50.2</ele><time>2022-04-12T15:34:24Z</time><name>PT4424</name></trkpt>
<trkpt lat="52.035941" lon="05.770184"><ele>50.2</ele><time>2022-04-12T15:34:25Z</time><name>PT4425</name></trkpt>
<trkpt lat="52.035941" lon="05.770198"><ele>50.2</ele><time>2022-04-12T15:34:26Z</time><name>PT4426</name></trkpt>
<trkpt lat="52.035938" lon="05.770216"><ele>50.2</ele><time>2022-04-12T15:34:27Z</time><name>PT4427</name></trkpt>
<trkpt lat="52.035936" lon="05.770232"><ele>49.9</ele><time>2022-04-12T15:34:28Z</time><name>PT4428</name></trkpt>
<trkpt lat="52.035935" lon="05.770247"><ele>49.7</ele><time>2022-04-12T15:34:29Z</time><name>PT4429</name></trkpt>
<trkpt lat="52.035934" lon="05.770261"><ele>49.8</ele><time>2022-04-12T15:34:30Z</time><name>PT4430</name></trkpt>
<trkpt lat="52.035933" lon="05.770281"><ele>49.8</ele><time>2022-04-12T15:34:31Z</time><name>PT4431</name></trkpt>
<trkpt lat="52.035933" lon="05.770298"><ele>49.9</ele><time>2022-04-12T15:34:32Z</time><name>PT4432</name></trkpt>
<trkpt lat="52.035933" lon="05.770313"><ele>50.1</ele><time>2022-04-12T15:34:33Z</time><name>PT4433</name></trkpt>
<trkpt lat="52.035931" lon="05.770330"><ele>50.1</ele><time>2022-04-12T15:34:34Z</time><name>PT4434</name></trkpt>
<trkpt lat="52.035930" lon="05.770343"><ele>50</ele><time>2022-04-12T15:34:35Z</time><name>PT4435</name></trkpt>
<trkpt lat="52.035930" lon="05.770357"><ele>50.2</ele><time>2022-04-12T15:34:36Z</time><name>PT4436</name></trkpt>
<trkpt lat="52.035932" lon="05.770372"><ele>50.4</ele><time>2022-04-12T15:34:37Z</time><name>PT4437</name></trkpt>
<trkpt lat="52.035936" lon="05.770385"><ele>50.6</ele><time>2022-04-12T15:34:38Z</time><name>PT4438</name></trkpt>
<trkpt lat="52.035939" lon="05.770396"><ele>50.7</ele><time>2022-04-12T15:34:39Z</time><name>PT4439</name></trkpt>
<trkpt lat="52.035940" lon="05.770410"><ele>50.7</ele><time>2022-04-12T15:34:40Z</time><name>PT4440</name></trkpt>
<trkpt lat="52.035942" lon="05.770425"><ele>50.7</ele><time>2022-04-12T15:34:41Z</time><name>PT4441</name></trkpt>
<trkpt lat="52.035948" lon="05.770439"><ele>50.6</ele><time>2022-04-12T15:34:42Z</time><name>PT4442</name></trkpt>
<trkpt lat="52.035950" lon="05.770447"><ele>50.7</ele><time>2022-04-12T15:34:43Z</time><name>PT4443</name></trkpt>
<trkpt lat="52.035949" lon="05.770467"><ele>50.4</ele><time>2022-04-12T15:34:44Z</time><name>PT4444</name></trkpt>
<trkpt lat="52.035950" lon="05.770480"><ele>50.3</ele><time>2022-04-12T15:34:45Z</time><name>PT4445</name></trkpt>
<trkpt lat="52.035951" lon="05.770498"><ele>50.2</ele><time>2022-04-12T15:34:46Z</time><name>PT4446</name></trkpt>
<trkpt lat="52.035951" lon="05.770520"><ele>50.3</ele><time>2022-04-12T15:34:47Z</time><name>PT4447</name></trkpt>
<trkpt lat="52.035954" lon="05.770537"><ele>50.2</ele><time>2022-04-12T15:34:48Z</time><name>PT4448</name></trkpt>
<trkpt lat="52.035956" lon="05.770552"><ele>50.2</ele><time>2022-04-12T15:34:49Z</time><name>PT4449</name></trkpt>
<trkpt lat="52.035958" lon="05.770564"><ele>50.2</ele><time>2022-04-12T15:34:50Z</time><name>PT4450</name></trkpt>
<trkpt lat="52.035959" lon="05.770581"><ele>50.1</ele><time>2022-04-12T15:34:51Z</time><name>PT4451</name></trkpt>
<trkpt lat="52.035962" lon="05.770595"><ele>50.1</ele><time>2022-04-12T15:34:52Z</time><name>PT4452</name></trkpt>
<trkpt lat="52.035963" lon="05.770618"><ele>50.2</ele><time>2022-04-12T15:34:53Z</time><name>PT4453</name></trkpt>
<trkpt lat="52.035964" lon="05.770634"><ele>50.2</ele><time>2022-04-12T15:34:54Z</time><name>PT4454</name></trkpt>
<trkpt lat="52.035965" lon="05.770652"><ele>50.3</ele><time>2022-04-12T15:34:55Z</time><name>PT4455</name></trkpt>
<trkpt lat="52.035966" lon="05.770665"><ele>50.2</ele><time>2022-04-12T15:34:56Z</time><name>PT4456</name></trkpt>
<trkpt lat="52.035966" lon="05.770676"><ele>50.2</ele><time>2022-04-12T15:34:57Z</time><name>PT4457</name></trkpt>
<trkpt lat="52.035965" lon="05.770692"><ele>49.9</ele><time>2022-04-12T15:34:58Z</time><name>PT4458</name></trkpt>
<trkpt lat="52.035966" lon="05.770705"><ele>49.9</ele><time>2022-04-12T15:34:59Z</time><name>PT4459</name></trkpt>
<trkpt lat="52.035969" lon="05.770716"><ele>50.1</ele><time>2022-04-12T15:35:00Z</time><name>PT4460</name></trkpt>
<trkpt lat="52.035970" lon="05.770732"><ele>49.9</ele><time>2022-04-12T15:35:01Z</time><name>PT4461</name></trkpt>
<trkpt lat="52.035971" lon="05.770747"><ele>50.2</ele><time>2022-04-12T15:35:02Z</time><name>PT4462</name></trkpt>
<trkpt lat="52.035973" lon="05.770759"><ele>50.5</ele><time>2022-04-12T15:35:03Z</time><name>PT4463</name></trkpt>
<trkpt lat="52.035972" lon="05.770780"><ele>50.6</ele><time>2022-04-12T15:35:04Z</time><name>PT4464</name></trkpt>
<trkpt lat="52.035972" lon="05.770794"><ele>50.7</ele><time>2022-04-12T15:35:05Z</time><name>PT4465</name></trkpt>
<trkpt lat="52.035975" lon="05.770804"><ele>50.7</ele><time>2022-04-12T15:35:06Z</time><name>PT4466</name></trkpt>
<trkpt lat="52.035975" lon="05.770819"><ele>50.5</ele><time>2022-04-12T15:35:07Z</time><name>PT4467</name></trkpt>
<trkpt lat="52.035975" lon="05.770838"><ele>50.4</ele><time>2022-04-12T15:35:08Z</time><name>PT4468</name></trkpt>
<trkpt lat="52.035973" lon="05.770849"><ele>50.4</ele><time>2022-04-12T15:35:09Z</time><name>PT4469</name></trkpt>
<trkpt lat="52.035972" lon="05.770866"><ele>50.5</ele><time>2022-04-12T15:35:10Z</time><name>PT4470</name></trkpt>
<trkpt lat="52.035974" lon="05.770883"><ele>50.4</ele><time>2022-04-12T15:35:11Z</time><name>PT4471</name></trkpt>
<trkpt lat="52.035974" lon="05.770900"><ele>50.3</ele><time>2022-04-12T15:35:12Z</time><name>PT4472</name></trkpt>
<trkpt lat="52.035972" lon="05.770918"><ele>50.3</ele><time>2022-04-12T15:35:13Z</time><name>PT4473</name></trkpt>
<trkpt lat="52.035974" lon="05.770936"><ele>50.4</ele><time>2022-04-12T15:35:14Z</time><name>PT4474</name></trkpt>
<trkpt lat="52.035975" lon="05.770949"><ele>50.4</ele><time>2022-04-12T15:35:15Z</time><name>PT4475</name></trkpt>
<trkpt lat="52.035976" lon="05.770965"><ele>50.7</ele><time>2022-04-12T15:35:16Z</time><name>PT4476</name></trkpt>
<trkpt lat="52.035976" lon="05.770984"><ele>50.7</ele><time>2022-04-12T15:35:17Z</time><name>PT4477</name></trkpt>
<trkpt lat="52.035976" lon="05.771004"><ele>50.7</ele><time>2022-04-12T15:35:18Z</time><name>PT4478</name></trkpt>
<trkpt lat="52.035979" lon="05.771017"><ele>50.6</ele><time>2022-04-12T15:35:19Z</time><name>PT4479</name></trkpt>
<trkpt lat="52.035983" lon="05.771033"><ele>50.5</ele><time>2022-04-12T15:35:20Z</time><name>PT4480</name></trkpt>
<trkpt lat="52.035985" lon="05.771050"><ele>50.5</ele><time>2022-04-12T15:35:21Z</time><name>PT4481</name></trkpt>
<trkpt lat="52.035983" lon="05.771063"><ele>50.5</ele><time>2022-04-12T15:35:22Z</time><name>PT4482</name></trkpt>
<trkpt lat="52.035984" lon="05.771079"><ele>50.7</ele><time>2022-04-12T15:35:23Z</time><name>PT4483</name></trkpt>
<trkpt lat="52.035988" lon="05.771090"><ele>50.7</ele><time>2022-04-12T15:35:24Z</time><name>PT4484</name></trkpt>
<trkpt lat="52.035990" lon="05.771102"><ele>50.9</ele><time>2022-04-12T15:35:25Z</time><name>PT4485</name></trkpt>
<trkpt lat="52.035992" lon="05.771107"><ele>51.1</ele><time>2022-04-12T15:35:26Z</time><name>PT4486</name></trkpt>
<trkpt lat="52.035993" lon="05.771130"><ele>51.1</ele><time>2022-04-12T15:35:27Z</time><name>PT4487</name></trkpt>
<trkpt lat="52.035993" lon="05.771144"><ele>51.1</ele><time>2022-04-12T15:35:28Z</time><name>PT4488</name></trkpt>
<trkpt lat="52.035994" lon="05.771157"><ele>51.1</ele><time>2022-04-12T15:35:29Z</time><name>PT4489</name></trkpt>
<trkpt lat="52.035996" lon="05.771177"><ele>51</ele><time>2022-04-12T15:35:30Z</time><name>PT4490</name></trkpt>
<trkpt lat="52.035998" lon="05.771192"><ele>51</ele><time>2022-04-12T15:35:31Z</time><name>PT4491</name></trkpt>
<trkpt lat="52.036002" lon="05.771206"><ele>50.9</ele><time>2022-04-12T15:35:32Z</time><name>PT4492</name></trkpt>
<trkpt lat="52.036007" lon="05.771221"><ele>50.9</ele><time>2022-04-12T15:35:33Z</time><name>PT4493</name></trkpt>
<trkpt lat="52.036008" lon="05.771240"><ele>50.9</ele><time>2022-04-12T15:35:34Z</time><name>PT4494</name></trkpt>
<trkpt lat="52.036010" lon="05.771252"><ele>50.8</ele><time>2022-04-12T15:35:35Z</time><name>PT4495</name></trkpt>
<trkpt lat="52.036013" lon="05.771261"><ele>50.9</ele><time>2022-04-12T15:35:36Z</time><name>PT4496</name></trkpt>
<trkpt lat="52.036014" lon="05.771274"><ele>50.8</ele><time>2022-04-12T15:35:37Z</time><name>PT4497</name></trkpt>
<trkpt lat="52.036015" lon="05.771290"><ele>50.7</ele><time>2022-04-12T15:35:38Z</time><name>PT4498</name></trkpt>
<trkpt lat="52.036014" lon="05.771304"><ele>50.7</ele><time>2022-04-12T15:35:39Z</time><name>PT4499</name></trkpt>
<trkpt lat="52.036014" lon="05.771320"><ele>50.7</ele><time>2022-04-12T15:35:40Z</time><name>PT4500</name></trkpt>
<trkpt lat="52.036013" lon="05.771332"><ele>50.6</ele><time>2022-04-12T15:35:41Z</time><name>PT4501</name></trkpt>
<trkpt lat="52.036012" lon="05.771349"><ele>50.5</ele><time>2022-04-12T15:35:42Z</time><name>PT4502</name></trkpt>
<trkpt lat="52.036012" lon="05.771365"><ele>50.2</ele><time>2022-04-12T15:35:43Z</time><name>PT4503</name></trkpt>
<trkpt lat="52.036014" lon="05.771381"><ele>50.2</ele><time>2022-04-12T15:35:44Z</time><name>PT4504</name></trkpt>
<trkpt lat="52.036014" lon="05.771398"><ele>50.2</ele><time>2022-04-12T15:35:45Z</time><name>PT4505</name></trkpt>
<trkpt lat="52.036014" lon="05.771414"><ele>50.3</ele><time>2022-04-12T15:35:46Z</time><name>PT4506</name></trkpt>
<trkpt lat="52.036014" lon="05.771424"><ele>50.4</ele><time>2022-04-12T15:35:47Z</time><name>PT4507</name></trkpt>
<trkpt lat="52.036012" lon="05.771437"><ele>50.6</ele><time>2022-04-12T15:35:48Z</time><name>PT4508</name></trkpt>
<trkpt lat="52.036014" lon="05.771447"><ele>50.7</ele><time>2022-04-12T15:35:49Z</time><name>PT4509</name></trkpt>
<trkpt lat="52.036014" lon="05.771466"><ele>50.6</ele><time>2022-04-12T15:35:50Z</time><name>PT4510</name></trkpt>
<trkpt lat="52.036013" lon="05.771478"><ele>50.6</ele><time>2022-04-12T15:35:51Z</time><name>PT4511</name></trkpt>
<trkpt lat="52.036014" lon="05.771491"><ele>50.8</ele><time>2022-04-12T15:35:52Z</time><name>PT4512</name></trkpt>
<trkpt lat="52.036016" lon="05.771504"><ele>50.7</ele><time>2022-04-12T15:35:53Z</time><name>PT4513</name></trkpt>
<trkpt lat="52.036016" lon="05.771522"><ele>51</ele><time>2022-04-12T15:35:54Z</time><name>PT4514</name></trkpt>
<trkpt lat="52.036014" lon="05.771546"><ele>51</ele><time>2022-04-12T15:35:55Z</time><name>PT4515</name></trkpt>
<trkpt lat="52.036013" lon="05.771563"><ele>50.9</ele><time>2022-04-12T15:35:56Z</time><name>PT4516</name></trkpt>
<trkpt lat="52.036011" lon="05.771580"><ele>50.9</ele><time>2022-04-12T15:35:57Z</time><name>PT4517</name></trkpt>
<trkpt lat="52.036010" lon="05.771593"><ele>50.8</ele><time>2022-04-12T15:35:58Z</time><name>PT4518</name></trkpt>
<trkpt lat="52.036009" lon="05.771600"><ele>50.9</ele><time>2022-04-12T15:35:59Z</time><name>PT4519</name></trkpt>
<trkpt lat="52.036007" lon="05.771616"><ele>50.9</ele><time>2022-04-12T15:36:00Z</time><name>PT4520</name></trkpt>
<trkpt lat="52.036008" lon="05.771632"><ele>50.9</ele><time>2022-04-12T15:36:01Z</time><name>PT4521</name></trkpt>
<trkpt lat="52.036010" lon="05.771645"><ele>50.9</ele><time>2022-04-12T15:36:02Z</time><name>PT4522</name></trkpt>
<trkpt lat="52.036009" lon="05.771657"><ele>50.9</ele><time>2022-04-12T15:36:03Z</time><name>PT4523</name></trkpt>
<trkpt lat="52.036009" lon="05.771675"><ele>50.9</ele><time>2022-04-12T15:36:04Z</time><name>PT4524</name></trkpt>
<trkpt lat="52.036012" lon="05.771694"><ele>51</ele><time>2022-04-12T15:36:05Z</time><name>PT4525</name></trkpt>
<trkpt lat="52.036013" lon="05.771710"><ele>51</ele><time>2022-04-12T15:36:06Z</time><name>PT4526</name></trkpt>
<trkpt lat="52.036011" lon="05.771729"><ele>51.1</ele><time>2022-04-12T15:36:07Z</time><name>PT4527</name></trkpt>
<trkpt lat="52.036012" lon="05.771748"><ele>51.2</ele><time>2022-04-12T15:36:08Z</time><name>PT4528</name></trkpt>
<trkpt lat="52.036013" lon="05.771766"><ele>51.2</ele><time>2022-04-12T15:36:09Z</time><name>PT4529</name></trkpt>
<trkpt lat="52.036015" lon="05.771780"><ele>51.3</ele><time>2022-04-12T15:36:10Z</time><name>PT4530</name></trkpt>
<trkpt lat="52.036013" lon="05.771792"><ele>51.2</ele><time>2022-04-12T15:36:11Z</time><name>PT4531</name></trkpt>
<trkpt lat="52.036010" lon="05.771803"><ele>51.2</ele><time>2022-04-12T15:36:12Z</time><name>PT4532</name></trkpt>
<trkpt lat="52.036009" lon="05.771818"><ele>51</ele><time>2022-04-12T15:36:13Z</time><name>PT4533</name></trkpt>
<trkpt lat="52.036010" lon="05.771836"><ele>50.7</ele><time>2022-04-12T15:36:14Z</time><name>PT4534</name></trkpt>
<trkpt lat="52.036012" lon="05.771849"><ele>50.8</ele><time>2022-04-12T15:36:15Z</time><name>PT4535</name></trkpt>
<trkpt lat="52.036010" lon="05.771869"><ele>50.7</ele><time>2022-04-12T15:36:16Z</time><name>PT4536</name></trkpt>
<trkpt lat="52.036011" lon="05.771888"><ele>50.7</ele><time>2022-04-12T15:36:17Z</time><name>PT4537</name></trkpt>
<trkpt lat="52.036010" lon="05.771909"><ele>50.7</ele><time>2022-04-12T15:36:18Z</time><name>PT4538</name></trkpt>
<trkpt lat="52.036011" lon="05.771922"><ele>50.7</ele><time>2022-04-12T15:36:19Z</time><name>PT4539</name></trkpt>
<trkpt lat="52.036012" lon="05.771935"><ele>50.8</ele><time>2022-04-12T15:36:20Z</time><name>PT4540</name></trkpt>
<trkpt lat="52.036013" lon="05.771952"><ele>50.7</ele><time>2022-04-12T15:36:21Z</time><name>PT4541</name></trkpt>
<trkpt lat="52.036016" lon="05.771966"><ele>50.7</ele><time>2022-04-12T15:36:22Z</time><name>PT4542</name></trkpt>
<trkpt lat="52.036020" lon="05.771978"><ele>50.7</ele><time>2022-04-12T15:36:23Z</time><name>PT4543</name></trkpt>
<trkpt lat="52.036021" lon="05.771991"><ele>50.7</ele><time>2022-04-12T15:36:24Z</time><name>PT4544</name></trkpt>
<trkpt lat="52.036018" lon="05.772008"><ele>50.8</ele><time>2022-04-12T15:36:25Z</time><name>PT4545</name></trkpt>
<trkpt lat="52.036018" lon="05.772024"><ele>50.9</ele><time>2022-04-12T15:36:26Z</time><name>PT4546</name></trkpt>
<trkpt lat="52.036018" lon="05.772033"><ele>50.8</ele><time>2022-04-12T15:36:27Z</time><name>PT4547</name></trkpt>
<trkpt lat="52.036019" lon="05.772045"><ele>50.8</ele><time>2022-04-12T15:36:28Z</time><name>PT4548</name></trkpt>
<trkpt lat="52.036020" lon="05.772057"><ele>50.7</ele><time>2022-04-12T15:36:29Z</time><name>PT4549</name></trkpt>
<trkpt lat="52.036020" lon="05.772071"><ele>50.6</ele><time>2022-04-12T15:36:30Z</time><name>PT4550</name></trkpt>
<trkpt lat="52.036021" lon="05.772082"><ele>50.5</ele><time>2022-04-12T15:36:31Z</time><name>PT4551</name></trkpt>
<trkpt lat="52.036023" lon="05.772102"><ele>50.7</ele><time>2022-04-12T15:36:32Z</time><name>PT4552</name></trkpt>
<trkpt lat="52.036022" lon="05.772113"><ele>50.8</ele><time>2022-04-12T15:36:33Z</time><name>PT4553</name></trkpt>
<trkpt lat="52.036020" lon="05.772123"><ele>50.9</ele><time>2022-04-12T15:36:34Z</time><name>PT4554</name></trkpt>
<trkpt lat="52.036017" lon="05.772139"><ele>51.2</ele><time>2022-04-12T15:36:35Z</time><name>PT4555</name></trkpt>
<trkpt lat="52.036017" lon="05.772140"><ele>51</ele><time>2022-04-12T15:36:36Z</time><name>PT4556</name></trkpt>
<trkpt lat="52.036018" lon="05.772148"><ele>51.2</ele><time>2022-04-12T15:36:37Z</time><name>PT4557</name></trkpt>
<trkpt lat="52.036020" lon="05.772167"><ele>51.2</ele><time>2022-04-12T15:36:38Z</time><name>PT4558</name></trkpt>
<trkpt lat="52.036021" lon="05.772177"><ele>51.2</ele><time>2022-04-12T15:36:39Z</time><name>PT4559</name></trkpt>
<trkpt lat="52.036021" lon="05.772189"><ele>51.2</ele><time>2022-04-12T15:36:40Z</time><name>PT4560</name></trkpt>
<trkpt lat="52.036026" lon="05.772193"><ele>51.3</ele><time>2022-04-12T15:36:41Z</time><name>PT4561</name></trkpt>
<trkpt lat="52.036030" lon="05.772206"><ele>51.3</ele><time>2022-04-12T15:36:42Z</time><name>PT4562</name></trkpt>
<trkpt lat="52.036026" lon="05.772232"><ele>51.4</ele><time>2022-04-12T15:36:43Z</time><name>PT4563</name></trkpt>
<trkpt lat="52.036029" lon="05.772238"><ele>51.5</ele><time>2022-04-12T15:36:44Z</time><name>PT4564</name></trkpt>
<trkpt lat="52.036033" lon="05.772245"><ele>51.5</ele><time>2022-04-12T15:36:45Z</time><name>PT4565</name></trkpt>
<trkpt lat="52.036040" lon="05.772247"><ele>51.5</ele><time>2022-04-12T15:36:46Z</time><name>PT4566</name></trkpt>
<trkpt lat="52.036044" lon="05.772262"><ele>51.4</ele><time>2022-04-12T15:36:47Z</time><name>PT4567</name></trkpt>
<trkpt lat="52.036053" lon="05.772270"><ele>51.5</ele><time>2022-04-12T15:36:48Z</time><name>PT4568</name></trkpt>
<trkpt lat="52.036058" lon="05.772283"><ele>51.4</ele><time>2022-04-12T15:36:49Z</time><name>PT4569</name></trkpt>
<trkpt lat="52.036064" lon="05.772287"><ele>51.3</ele><time>2022-04-12T15:36:50Z</time><name>PT4570</name></trkpt>
<trkpt lat="52.036067" lon="05.772294"><ele>51.4</ele><time>2022-04-12T15:36:51Z</time><name>PT4571</name></trkpt>
<trkpt lat="52.036071" lon="05.772300"><ele>51.6</ele><time>2022-04-12T15:36:52Z</time><name>PT4572</name></trkpt>
<trkpt lat="52.036077" lon="05.772308"><ele>51.5</ele><time>2022-04-12T15:36:53Z</time><name>PT4573</name></trkpt>
<trkpt lat="52.036081" lon="05.772317"><ele>51.6</ele><time>2022-04-12T15:36:54Z</time><name>PT4574</name></trkpt>
<trkpt lat="52.036087" lon="05.772327"><ele>51.5</ele><time>2022-04-12T15:36:55Z</time><name>PT4575</name></trkpt>
<trkpt lat="52.036090" lon="05.772338"><ele>51.5</ele><time>2022-04-12T15:36:56Z</time><name>PT4576</name></trkpt>
<trkpt lat="52.036096" lon="05.772346"><ele>51.5</ele><time>2022-04-12T15:36:57Z</time><name>PT4577</name></trkpt>
<trkpt lat="52.036100" lon="05.772357"><ele>51.6</ele><time>2022-04-12T15:36:58Z</time><name>PT4578</name></trkpt>
<trkpt lat="52.036107" lon="05.772368"><ele>51.7</ele><time>2022-04-12T15:36:59Z</time><name>PT4579</name></trkpt>
<trkpt lat="52.036108" lon="05.772389"><ele>51.6</ele><time>2022-04-12T15:37:00Z</time><name>PT4580</name></trkpt>
<trkpt lat="52.036112" lon="05.772401"><ele>51.5</ele><time>2022-04-12T15:37:01Z</time><name>PT4581</name></trkpt>
<trkpt lat="52.036114" lon="05.772413"><ele>51.5</ele><time>2022-04-12T15:37:02Z</time><name>PT4582</name></trkpt>
<trkpt lat="52.036115" lon="05.772423"><ele>51.7</ele><time>2022-04-12T15:37:03Z</time><name>PT4583</name></trkpt>
<trkpt lat="52.036116" lon="05.772437"><ele>51.7</ele><time>2022-04-12T15:37:04Z</time><name>PT4584</name></trkpt>
<trkpt lat="52.036116" lon="05.772449"><ele>51.7</ele><time>2022-04-12T15:37:05Z</time><name>PT4585</name></trkpt>
<trkpt lat="52.036117" lon="05.772464"><ele>51.8</ele><time>2022-04-12T15:37:06Z</time><name>PT4586</name></trkpt>
<trkpt lat="52.036121" lon="05.772479"><ele>51.8</ele><time>2022-04-12T15:37:07Z</time><name>PT4587</name></trkpt>
<trkpt lat="52.036123" lon="05.772498"><ele>51.7</ele><time>2022-04-12T15:37:08Z</time><name>PT4588</name></trkpt>
<trkpt lat="52.036132" lon="05.772515"><ele>51.5</ele><time>2022-04-12T15:37:09Z</time><name>PT4589</name></trkpt>
<trkpt lat="52.036136" lon="05.772529"><ele>51.5</ele><time>2022-04-12T15:37:10Z</time><name>PT4590</name></trkpt>
<trkpt lat="52.036138" lon="05.772544"><ele>51.4</ele><time>2022-04-12T15:37:11Z</time><name>PT4591</name></trkpt>
<trkpt lat="52.036140" lon="05.772558"><ele>51.2</ele><time>2022-04-12T15:37:12Z</time><name>PT4592</name></trkpt>
<trkpt lat="52.036145" lon="05.772570"><ele>51.4</ele><time>2022-04-12T15:37:13Z</time><name>PT4593</name></trkpt>
<trkpt lat="52.036148" lon="05.772585"><ele>51.3</ele><time>2022-04-12T15:37:14Z</time><name>PT4594</name></trkpt>
<trkpt lat="52.036149" lon="05.772599"><ele>51.5</ele><time>2022-04-12T15:37:15Z</time><name>PT4595</name></trkpt>
<trkpt lat="52.036149" lon="05.772614"><ele>51.6</ele><time>2022-04-12T15:37:16Z</time><name>PT4596</name></trkpt>
<trkpt lat="52.036148" lon="05.772630"><ele>51.7</ele><time>2022-04-12T15:37:17Z</time><name>PT4597</name></trkpt>
<trkpt lat="52.036148" lon="05.772649"><ele>51.7</ele><time>2022-04-12T15:37:18Z</time><name>PT4598</name></trkpt>
<trkpt lat="52.036150" lon="05.772660"><ele>51.5</ele><time>2022-04-12T15:37:19Z</time><name>PT4599</name></trkpt>
<trkpt lat="52.036152" lon="05.772680"><ele>51.7</ele><time>2022-04-12T15:37:20Z</time><name>PT4600</name></trkpt>
<trkpt lat="52.036153" lon="05.772696"><ele>51.7</ele><time>2022-04-12T15:37:21Z</time><name>PT4601</name></trkpt>
<trkpt lat="52.036156" lon="05.772714"><ele>51.7</ele><time>2022-04-12T15:37:22Z</time><name>PT4602</name></trkpt>
<trkpt lat="52.036160" lon="05.772735"><ele>51.7</ele><time>2022-04-12T15:37:23Z</time><name>PT4603</name></trkpt>
<trkpt lat="52.036169" lon="05.772753"><ele>51.9</ele><time>2022-04-12T15:37:24Z</time><name>PT4604</name></trkpt>
<trkpt lat="52.036170" lon="05.772765"><ele>51.9</ele><time>2022-04-12T15:37:25Z</time><name>PT4605</name></trkpt>
<trkpt lat="52.036172" lon="05.772779"><ele>51.9</ele><time>2022-04-12T15:37:26Z</time><name>PT4606</name></trkpt>
<trkpt lat="52.036174" lon="05.772793"><ele>51.8</ele><time>2022-04-12T15:37:27Z</time><name>PT4607</name></trkpt>
<trkpt lat="52.036173" lon="05.772813"><ele>51.7</ele><time>2022-04-12T15:37:28Z</time><name>PT4608</name></trkpt>
<trkpt lat="52.036173" lon="05.772828"><ele>51.8</ele><time>2022-04-12T15:37:29Z</time><name>PT4609</name></trkpt>
<trkpt lat="52.036175" lon="05.772838"><ele>51.8</ele><time>2022-04-12T15:37:30Z</time><name>PT4610</name></trkpt>
<trkpt lat="52.036175" lon="05.772853"><ele>51.8</ele><time>2022-04-12T15:37:31Z</time><name>PT4611</name></trkpt>
<trkpt lat="52.036177" lon="05.772870"><ele>52</ele><time>2022-04-12T15:37:32Z</time><name>PT4612</name></trkpt>
<trkpt lat="52.036177" lon="05.772887"><ele>52</ele><time>2022-04-12T15:37:33Z</time><name>PT4613</name></trkpt>
<trkpt lat="52.036177" lon="05.772905"><ele>51.8</ele><time>2022-04-12T15:37:34Z</time><name>PT4614</name></trkpt>
<trkpt lat="52.036177" lon="05.772919"><ele>51.7</ele><time>2022-04-12T15:37:35Z</time><name>PT4615</name></trkpt>
<trkpt lat="52.036178" lon="05.772936"><ele>51.2</ele><time>2022-04-12T15:37:36Z</time><name>PT4616</name></trkpt>
<trkpt lat="52.036176" lon="05.772954"><ele>51.2</ele><time>2022-04-12T15:37:37Z</time><name>PT4617</name></trkpt>
<trkpt lat="52.036176" lon="05.772973"><ele>51.3</ele><time>2022-04-12T15:37:38Z</time><name>PT4618</name></trkpt>
<trkpt lat="52.036179" lon="05.772988"><ele>51.3</ele><time>2022-04-12T15:37:39Z</time><name>PT4619</name></trkpt>
<trkpt lat="52.036181" lon="05.773005"><ele>51.6</ele><time>2022-04-12T15:37:40Z</time><name>PT4620</name></trkpt>
<trkpt lat="52.036184" lon="05.773022"><ele>51.8</ele><time>2022-04-12T15:37:41Z</time><name>PT4621</name></trkpt>
<trkpt lat="52.036186" lon="05.773036"><ele>51.7</ele><time>2022-04-12T15:37:42Z</time><name>PT4622</name></trkpt>
<trkpt lat="52.036186" lon="05.773051"><ele>51.9</ele><time>2022-04-12T15:37:43Z</time><name>PT4623</name></trkpt>
<trkpt lat="52.036190" lon="05.773065"><ele>51.8</ele><time>2022-04-12T15:37:44Z</time><name>PT4624</name></trkpt>
<trkpt lat="52.036193" lon="05.773072"><ele>51.7</ele><time>2022-04-12T15:37:45Z</time><name>PT4625</name></trkpt>
<trkpt lat="52.036197" lon="05.773088"><ele>51.7</ele><time>2022-04-12T15:37:46Z</time><name>PT4626</name></trkpt>
<trkpt lat="52.036200" lon="05.773103"><ele>51.6</ele><time>2022-04-12T15:37:47Z</time><name>PT4627</name></trkpt>
<trkpt lat="52.036199" lon="05.773114"><ele>51.6</ele><time>2022-04-12T15:37:48Z</time><name>PT4628</name></trkpt>
<trkpt lat="52.036200" lon="05.773120"><ele>51.7</ele><time>2022-04-12T15:37:49Z</time><name>PT4629</name></trkpt>
<trkpt lat="52.036201" lon="05.773129"><ele>51.6</ele><time>2022-04-12T15:37:50Z</time><name>PT4630</name></trkpt>
<trkpt lat="52.036199" lon="05.773146"><ele>51.5</ele><time>2022-04-12T15:37:51Z</time><name>PT4631</name></trkpt>
<trkpt lat="52.036199" lon="05.773156"><ele>51.4</ele><time>2022-04-12T15:37:52Z</time><name>PT4632</name></trkpt>
<trkpt lat="52.036200" lon="05.773177"><ele>51.3</ele><time>2022-04-12T15:37:53Z</time><name>PT4633</name></trkpt>
<trkpt lat="52.036206" lon="05.773190"><ele>51.4</ele><time>2022-04-12T15:37:54Z</time><name>PT4634</name></trkpt>
<trkpt lat="52.036211" lon="05.773204"><ele>51.4</ele><time>2022-04-12T15:37:55Z</time><name>PT4635</name></trkpt>
<trkpt lat="52.036215" lon="05.773216"><ele>51.6</ele><time>2022-04-12T15:37:56Z</time><name>PT4636</name></trkpt>
<trkpt lat="52.036217" lon="05.773226"><ele>51.8</ele><time>2022-04-12T15:37:57Z</time><name>PT4637</name></trkpt>
<trkpt lat="52.036219" lon="05.773244"><ele>51.9</ele><time>2022-04-12T15:37:58Z</time><name>PT4638</name></trkpt>
<trkpt lat="52.036223" lon="05.773250"><ele>52.1</ele><time>2022-04-12T15:37:59Z</time><name>PT4639</name></trkpt>
<trkpt lat="52.036228" lon="05.773254"><ele>52</ele><time>2022-04-12T15:38:00Z</time><name>PT4640</name></trkpt>
<trkpt lat="52.036229" lon="05.773269"><ele>51.8</ele><time>2022-04-12T15:38:01Z</time><name>PT4641</name></trkpt>
<trkpt lat="52.036229" lon="05.773283"><ele>51.9</ele><time>2022-04-12T15:38:02Z</time><name>PT4642</name></trkpt>
<trkpt lat="52.036229" lon="05.773293"><ele>51.8</ele><time>2022-04-12T15:38:03Z</time><name>PT4643</name></trkpt>
<trkpt lat="52.036228" lon="05.773306"><ele>51.7</ele><time>2022-04-12T15:38:04Z</time><name>PT4644</name></trkpt>
<trkpt lat="52.036229" lon="05.773328"><ele>51.7</ele><time>2022-04-12T15:38:05Z</time><name>PT4645</name></trkpt>
<trkpt lat="52.036232" lon="05.773342"><ele>51.8</ele><time>2022-04-12T15:38:06Z</time><name>PT4646</name></trkpt>
<trkpt lat="52.036234" lon="05.773357"><ele>51.7</ele><time>2022-04-12T15:38:07Z</time><name>PT4647</name></trkpt>
<trkpt lat="52.036236" lon="05.773375"><ele>51.7</ele><time>2022-04-12T15:38:08Z</time><name>PT4648</name></trkpt>
<trkpt lat="52.036235" lon="05.773400"><ele>51.9</ele><time>2022-04-12T15:38:09Z</time><name>PT4649</name></trkpt>
<trkpt lat="52.036236" lon="05.773415"><ele>51.9</ele><time>2022-04-12T15:38:10Z</time><name>PT4650</name></trkpt>
<trkpt lat="52.036240" lon="05.773434"><ele>51.8</ele><time>2022-04-12T15:38:11Z</time><name>PT4651</name></trkpt>
<trkpt lat="52.036241" lon="05.773448"><ele>52</ele><time>2022-04-12T15:38:12Z</time><name>PT4652</name></trkpt>
<trkpt lat="52.036242" lon="05.773467"><ele>51.8</ele><time>2022-04-12T15:38:13Z</time><name>PT4653</name></trkpt>
<trkpt lat="52.036243" lon="05.773486"><ele>51.7</ele><time>2022-04-12T15:38:14Z</time><name>PT4654</name></trkpt>
<trkpt lat="52.036245" lon="05.773506"><ele>51.9</ele><time>2022-04-12T15:38:15Z</time><name>PT4655</name></trkpt>
<trkpt lat="52.036248" lon="05.773521"><ele>51.8</ele><time>2022-04-12T15:38:16Z</time><name>PT4656</name></trkpt>
<trkpt lat="52.036248" lon="05.773540"><ele>51.9</ele><time>2022-04-12T15:38:17Z</time><name>PT4657</name></trkpt>
<trkpt lat="52.036249" lon="05.773558"><ele>51.8</ele><time>2022-04-12T15:38:18Z</time><name>PT4658</name></trkpt>
<trkpt lat="52.036250" lon="05.773580"><ele>51.7</ele><time>2022-04-12T15:38:19Z</time><name>PT4659</name></trkpt>
<trkpt lat="52.036249" lon="05.773600"><ele>51.7</ele><time>2022-04-12T15:38:20Z</time><name>PT4660</name></trkpt>
<trkpt lat="52.036247" lon="05.773623"><ele>51.7</ele><time>2022-04-12T15:38:21Z</time><name>PT4661</name></trkpt>
<trkpt lat="52.036248" lon="05.773639"><ele>51.7</ele><time>2022-04-12T15:38:22Z</time><name>PT4662</name></trkpt>
<trkpt lat="52.036251" lon="05.773651"><ele>51.8</ele><time>2022-04-12T15:38:23Z</time><name>PT4663</name></trkpt>
<trkpt lat="52.036254" lon="05.773662"><ele>51.9</ele><time>2022-04-12T15:38:24Z</time><name>PT4664</name></trkpt>
<trkpt lat="52.036257" lon="05.773669"><ele>51.9</ele><time>2022-04-12T15:38:25Z</time><name>PT4665</name></trkpt>
<trkpt lat="52.036258" lon="05.773681"><ele>52</ele><time>2022-04-12T15:38:26Z</time><name>PT4666</name></trkpt>
<trkpt lat="52.036260" lon="05.773694"><ele>51.9</ele><time>2022-04-12T15:38:27Z</time><name>PT4667</name></trkpt>
<trkpt lat="52.036263" lon="05.773706"><ele>52.1</ele><time>2022-04-12T15:38:28Z</time><name>PT4668</name></trkpt>
<trkpt lat="52.036264" lon="05.773720"><ele>52.1</ele><time>2022-04-12T15:38:29Z</time><name>PT4669</name></trkpt>
<trkpt lat="52.036265" lon="05.773735"><ele>52.1</ele><time>2022-04-12T15:38:30Z</time><name>PT4670</name></trkpt>
<trkpt lat="52.036266" lon="05.773751"><ele>52.2</ele><time>2022-04-12T15:38:31Z</time><name>PT4671</name></trkpt>
<trkpt lat="52.036266" lon="05.773769"><ele>52.2</ele><time>2022-04-12T15:38:32Z</time><name>PT4672</name></trkpt>
<trkpt lat="52.036265" lon="05.773786"><ele>52.2</ele><time>2022-04-12T15:38:33Z</time><name>PT4673</name></trkpt>
<trkpt lat="52.036266" lon="05.773804"><ele>52.1</ele><time>2022-04-12T15:38:34Z</time><name>PT4674</name></trkpt>
<trkpt lat="52.036266" lon="05.773819"><ele>52</ele><time>2022-04-12T15:38:35Z</time><name>PT4675</name></trkpt>
<trkpt lat="52.036265" lon="05.773834"><ele>52</ele><time>2022-04-12T15:38:36Z</time><name>PT4676</name></trkpt>
<trkpt lat="52.036266" lon="05.773851"><ele>51.9</ele><time>2022-04-12T15:38:37Z</time><name>PT4677</name></trkpt>
<trkpt lat="52.036269" lon="05.773861"><ele>52.1</ele><time>2022-04-12T15:38:38Z</time><name>PT4678</name></trkpt>
<trkpt lat="52.036272" lon="05.773876"><ele>52</ele><time>2022-04-12T15:38:39Z</time><name>PT4679</name></trkpt>
<trkpt lat="52.036273" lon="05.773890"><ele>52</ele><time>2022-04-12T15:38:40Z</time><name>PT4680</name></trkpt>
<trkpt lat="52.036275" lon="05.773905"><ele>52</ele><time>2022-04-12T15:38:41Z</time><name>PT4681</name></trkpt>
<trkpt lat="52.036274" lon="05.773925"><ele>52</ele><time>2022-04-12T15:38:42Z</time><name>PT4682</name></trkpt>
<trkpt lat="52.036276" lon="05.773940"><ele>52.2</ele><time>2022-04-12T15:38:43Z</time><name>PT4683</name></trkpt>
<trkpt lat="52.036276" lon="05.773956"><ele>52.2</ele><time>2022-04-12T15:38:44Z</time><name>PT4684</name></trkpt>
<trkpt lat="52.036274" lon="05.773980"><ele>52.2</ele><time>2022-04-12T15:38:45Z</time><name>PT4685</name></trkpt>
<trkpt lat="52.036277" lon="05.773991"><ele>52.2</ele><time>2022-04-12T15:38:46Z</time><name>PT4686</name></trkpt>
<trkpt lat="52.036276" lon="05.774006"><ele>52.1</ele><time>2022-04-12T15:38:47Z</time><name>PT4687</name></trkpt>
<trkpt lat="52.036277" lon="05.774023"><ele>52.2</ele><time>2022-04-12T15:38:48Z</time><name>PT4688</name></trkpt>
<trkpt lat="52.036280" lon="05.774031"><ele>52.2</ele><time>2022-04-12T15:38:49Z</time><name>PT4689</name></trkpt>
<trkpt lat="52.036282" lon="05.774041"><ele>52.1</ele><time>2022-04-12T15:38:50Z</time><name>PT4690</name></trkpt>
<trkpt lat="52.036283" lon="05.774052"><ele>52.2</ele><time>2022-04-12T15:38:51Z</time><name>PT4691</name></trkpt>
<trkpt lat="52.036284" lon="05.774063"><ele>52.1</ele><time>2022-04-12T15:38:52Z</time><name>PT4692</name></trkpt>
<trkpt lat="52.036287" lon="05.774076"><ele>52.1</ele><time>2022-04-12T15:38:53Z</time><name>PT4693</name></trkpt>
<trkpt lat="52.036289" lon="05.774092"><ele>52.2</ele><time>2022-04-12T15:38:54Z</time><name>PT4694</name></trkpt>
<trkpt lat="52.036290" lon="05.774110"><ele>52</ele><time>2022-04-12T15:38:55Z</time><name>PT4695</name></trkpt>
<trkpt lat="52.036292" lon="05.774126"><ele>52.1</ele><time>2022-04-12T15:38:56Z</time><name>PT4696</name></trkpt>
<trkpt lat="52.036296" lon="05.774142"><ele>52.1</ele><time>2022-04-12T15:38:57Z</time><name>PT4697</name></trkpt>
<trkpt lat="52.036298" lon="05.774158"><ele>52.2</ele><time>2022-04-12T15:38:58Z</time><name>PT4698</name></trkpt>
<trkpt lat="52.036298" lon="05.774172"><ele>52.3</ele><time>2022-04-12T15:38:59Z</time><name>PT4699</name></trkpt>
<trkpt lat="52.036299" lon="05.774189"><ele>52.2</ele><time>2022-04-12T15:39:00Z</time><name>PT4700</name></trkpt>
<trkpt lat="52.036301" lon="05.774206"><ele>52.2</ele><time>2022-04-12T15:39:01Z</time><name>PT4701</name></trkpt>
<trkpt lat="52.036303" lon="05.774218"><ele>52.4</ele><time>2022-04-12T15:39:02Z</time><name>PT4702</name></trkpt>
<trkpt lat="52.036304" lon="05.774233"><ele>52.5</ele><time>2022-04-12T15:39:03Z</time><name>PT4703</name></trkpt>
<trkpt lat="52.036304" lon="05.774248"><ele>52.7</ele><time>2022-04-12T15:39:04Z</time><name>PT4704</name></trkpt>
<trkpt lat="52.036305" lon="05.774264"><ele>52.6</ele><time>2022-04-12T15:39:05Z</time><name>PT4705</name></trkpt>
<trkpt lat="52.036306" lon="05.774284"><ele>52.7</ele><time>2022-04-12T15:39:06Z</time><name>PT4706</name></trkpt>
<trkpt lat="52.036309" lon="05.774308"><ele>52.6</ele><time>2022-04-12T15:39:07Z</time><name>PT4707</name></trkpt>
<trkpt lat="52.036313" lon="05.774324"><ele>52.7</ele><time>2022-04-12T15:39:08Z</time><name>PT4708</name></trkpt>
<trkpt lat="52.036313" lon="05.774336"><ele>52.7</ele><time>2022-04-12T15:39:09Z</time><name>PT4709</name></trkpt>
<trkpt lat="52.036311" lon="05.774353"><ele>52.7</ele><time>2022-04-12T15:39:10Z</time><name>PT4710</name></trkpt>
<trkpt lat="52.036312" lon="05.774370"><ele>52.5</ele><time>2022-04-12T15:39:11Z</time><name>PT4711</name></trkpt>
<trkpt lat="52.036314" lon="05.774386"><ele>52.7</ele><time>2022-04-12T15:39:12Z</time><name>PT4712</name></trkpt>
<trkpt lat="52.036315" lon="05.774398"><ele>52.7</ele><time>2022-04-12T15:39:13Z</time><name>PT4713</name></trkpt>
<trkpt lat="52.036317" lon="05.774416"><ele>52.7</ele><time>2022-04-12T15:39:14Z</time><name>PT4714</name></trkpt>
<trkpt lat="52.036319" lon="05.774429"><ele>52.7</ele><time>2022-04-12T15:39:15Z</time><name>PT4715</name></trkpt>
<trkpt lat="52.036324" lon="05.774447"><ele>52.7</ele><time>2022-04-12T15:39:16Z</time><name>PT4716</name></trkpt>
<trkpt lat="52.036328" lon="05.774461"><ele>52.7</ele><time>2022-04-12T15:39:17Z</time><name>PT4717</name></trkpt>
<trkpt lat="52.036327" lon="05.774478"><ele>52.7</ele><time>2022-04-12T15:39:18Z</time><name>PT4718</name></trkpt>
<trkpt lat="52.036328" lon="05.774497"><ele>52.8</ele><time>2022-04-12T15:39:19Z</time><name>PT4719</name></trkpt>
<trkpt lat="52.036332" lon="05.774510"><ele>52.9</ele><time>2022-04-12T15:39:20Z</time><name>PT4720</name></trkpt>
<trkpt lat="52.036335" lon="05.774526"><ele>52.9</ele><time>2022-04-12T15:39:21Z</time><name>PT4721</name></trkpt>
<trkpt lat="52.036337" lon="05.774539"><ele>53</ele><time>2022-04-12T15:39:22Z</time><name>PT4722</name></trkpt>
<trkpt lat="52.036337" lon="05.774556"><ele>52.9</ele><time>2022-04-12T15:39:23Z</time><name>PT4723</name></trkpt>
<trkpt lat="52.036335" lon="05.774573"><ele>53</ele><time>2022-04-12T15:39:24Z</time><name>PT4724</name></trkpt>
<trkpt lat="52.036335" lon="05.774590"><ele>53</ele><time>2022-04-12T15:39:25Z</time><name>PT4725</name></trkpt>
<trkpt lat="52.036338" lon="05.774601"><ele>53.2</ele><time>2022-04-12T15:39:26Z</time><name>PT4726</name></trkpt>
<trkpt lat="52.036338" lon="05.774617"><ele>53.2</ele><time>2022-04-12T15:39:27Z</time><name>PT4727</name></trkpt>
<trkpt lat="52.036340" lon="05.774631"><ele>53.2</ele><time>2022-04-12T15:39:28Z</time><name>PT4728</name></trkpt>
<trkpt lat="52.036344" lon="05.774647"><ele>53.3</ele><time>2022-04-12T15:39:29Z</time><name>PT4729</name></trkpt>
<trkpt lat="52.036345" lon="05.774664"><ele>53.3</ele><time>2022-04-12T15:39:30Z</time><name>PT4730</name></trkpt>
<trkpt lat="52.036348" lon="05.774678"><ele>53.3</ele><time>2022-04-12T15:39:31Z</time><name>PT4731</name></trkpt>
<trkpt lat="52.036346" lon="05.774693"><ele>53.3</ele><time>2022-04-12T15:39:32Z</time><name>PT4732</name></trkpt>
<trkpt lat="52.036344" lon="05.774711"><ele>53.3</ele><time>2022-04-12T15:39:33Z</time><name>PT4733</name></trkpt>
<trkpt lat="52.036344" lon="05.774730"><ele>53.2</ele><time>2022-04-12T15:39:34Z</time><name>PT4734</name></trkpt>
<trkpt lat="52.036344" lon="05.774747"><ele>53.1</ele><time>2022-04-12T15:39:35Z</time><name>PT4735</name></trkpt>
<trkpt lat="52.036348" lon="05.774761"><ele>53</ele><time>2022-04-12T15:39:36Z</time><name>PT4736</name></trkpt>
<trkpt lat="52.036349" lon="05.774777"><ele>52.9</ele><time>2022-04-12T15:39:37Z</time><name>PT4737</name></trkpt>
<trkpt lat="52.036348" lon="05.774799"><ele>53</ele><time>2022-04-12T15:39:38Z</time><name>PT4738</name></trkpt>
<trkpt lat="52.036351" lon="05.774813"><ele>52.9</ele><time>2022-04-12T15:39:39Z</time><name>PT4739</name></trkpt>
<trkpt lat="52.036352" lon="05.774827"><ele>53.2</ele><time>2022-04-12T15:39:40Z</time><name>PT4740</name></trkpt>
<trkpt lat="52.036350" lon="05.774845"><ele>53.2</ele><time>2022-04-12T15:39:41Z</time><name>PT4741</name></trkpt>
<trkpt lat="52.036351" lon="05.774861"><ele>53.3</ele><time>2022-04-12T15:39:42Z</time><name>PT4742</name></trkpt>
<trkpt lat="52.036353" lon="05.774882"><ele>53.3</ele><time>2022-04-12T15:39:43Z</time><name>PT4743</name></trkpt>
<trkpt lat="52.036354" lon="05.774895"><ele>53.3</ele><time>2022-04-12T15:39:44Z</time><name>PT4744</name></trkpt>
<trkpt lat="52.036355" lon="05.774910"><ele>53.3</ele><time>2022-04-12T15:39:45Z</time><name>PT4745</name></trkpt>
<trkpt lat="52.036356" lon="05.774926"><ele>53.5</ele><time>2022-04-12T15:39:46Z</time><name>PT4746</name></trkpt>
<trkpt lat="52.036359" lon="05.774941"><ele>53.2</ele><time>2022-04-12T15:39:47Z</time><name>PT4747</name></trkpt>
<trkpt lat="52.036362" lon="05.774959"><ele>53.3</ele><time>2022-04-12T15:39:48Z</time><name>PT4748</name></trkpt>
<trkpt lat="52.036362" lon="05.774981"><ele>53.2</ele><time>2022-04-12T15:39:49Z</time><name>PT4749</name></trkpt>
<trkpt lat="52.036363" lon="05.774996"><ele>53.1</ele><time>2022-04-12T15:39:50Z</time><name>PT4750</name></trkpt>
<trkpt lat="52.036365" lon="05.775013"><ele>53</ele><time>2022-04-12T15:39:51Z</time><name>PT4751</name></trkpt>
<trkpt lat="52.036366" lon="05.775033"><ele>53.1</ele><time>2022-04-12T15:39:52Z</time><name>PT4752</name></trkpt>
<trkpt lat="52.036370" lon="05.775039"><ele>53</ele><time>2022-04-12T15:39:53Z</time><name>PT4753</name></trkpt>
<trkpt lat="52.036373" lon="05.775055"><ele>52.9</ele><time>2022-04-12T15:39:54Z</time><name>PT4754</name></trkpt>
<trkpt lat="52.036373" lon="05.775072"><ele>52.9</ele><time>2022-04-12T15:39:55Z</time><name>PT4755</name></trkpt>
<trkpt lat="52.036377" lon="05.775078"><ele>52.9</ele><time>2022-04-12T15:39:56Z</time><name>PT4756</name></trkpt>
<trkpt lat="52.036378" lon="05.775089"><ele>52.9</ele><time>2022-04-12T15:39:57Z</time><name>PT4757</name></trkpt>
<trkpt lat="52.036376" lon="05.775107"><ele>52.8</ele><time>2022-04-12T15:39:58Z</time><name>PT4758</name></trkpt>
<trkpt lat="52.036378" lon="05.775122"><ele>52.9</ele><time>2022-04-12T15:39:59Z</time><name>PT4759</name></trkpt>
<trkpt lat="52.036380" lon="05.775137"><ele>52.7</ele><time>2022-04-12T15:40:00Z</time><name>PT4760</name></trkpt>
<trkpt lat="52.036379" lon="05.775160"><ele>52.6</ele><time>2022-04-12T15:40:01Z</time><name>PT4761</name></trkpt>
<trkpt lat="52.036380" lon="05.775173"><ele>52.7</ele><time>2022-04-12T15:40:02Z</time><name>PT4762</name></trkpt>
<trkpt lat="52.036381" lon="05.775184"><ele>52.6</ele><time>2022-04-12T15:40:03Z</time><name>PT4763</name></trkpt>
<trkpt lat="52.036382" lon="05.775201"><ele>52.6</ele><time>2022-04-12T15:40:04Z</time><name>PT4764</name></trkpt>
<trkpt lat="52.036385" lon="05.775209"><ele>52.6</ele><time>2022-04-12T15:40:05Z</time><name>PT4765</name></trkpt>
<trkpt lat="52.036385" lon="05.775223"><ele>52.6</ele><time>2022-04-12T15:40:06Z</time><name>PT4766</name></trkpt>
<trkpt lat="52.036385" lon="05.775240"><ele>52.6</ele><time>2022-04-12T15:40:07Z</time><name>PT4767</name></trkpt>
<trkpt lat="52.036387" lon="05.775264"><ele>52.6</ele><time>2022-04-12T15:40:08Z</time><name>PT4768</name></trkpt>
<trkpt lat="52.036389" lon="05.775279"><ele>52.5</ele><time>2022-04-12T15:40:09Z</time><name>PT4769</name></trkpt>
<trkpt lat="52.036389" lon="05.775292"><ele>52.5</ele><time>2022-04-12T15:40:10Z</time><name>PT4770</name></trkpt>
<trkpt lat="52.036390" lon="05.775307"><ele>52.4</ele><time>2022-04-12T15:40:11Z</time><name>PT4771</name></trkpt>
<trkpt lat="52.036386" lon="05.775322"><ele>52.6</ele><time>2022-04-12T15:40:12Z</time><name>PT4772</name></trkpt>
<trkpt lat="52.036381" lon="05.775337"><ele>52.7</ele><time>2022-04-12T15:40:13Z</time><name>PT4773</name></trkpt>
<trkpt lat="52.036382" lon="05.775350"><ele>52.9</ele><time>2022-04-12T15:40:14Z</time><name>PT4774</name></trkpt>
<trkpt lat="52.036382" lon="05.775362"><ele>52.8</ele><time>2022-04-12T15:40:15Z</time><name>PT4775</name></trkpt>
<trkpt lat="52.036383" lon="05.775374"><ele>53</ele><time>2022-04-12T15:40:16Z</time><name>PT4776</name></trkpt>
<trkpt lat="52.036386" lon="05.775389"><ele>53.1</ele><time>2022-04-12T15:40:17Z</time><name>PT4777</name></trkpt>
<trkpt lat="52.036382" lon="05.775402"><ele>52.9</ele><time>2022-04-12T15:40:18Z</time><name>PT4778</name></trkpt>
<trkpt lat="52.036381" lon="05.775420"><ele>52.9</ele><time>2022-04-12T15:40:19Z</time><name>PT4779</name></trkpt>
<trkpt lat="52.036384" lon="05.775435"><ele>53.1</ele><time>2022-04-12T15:40:20Z</time><name>PT4780</name></trkpt>
<trkpt lat="52.036387" lon="05.775453"><ele>53.1</ele><time>2022-04-12T15:40:21Z</time><name>PT4781</name></trkpt>
<trkpt lat="52.036388" lon="05.775463"><ele>53</ele><time>2022-04-12T15:40:22Z</time><name>PT4782</name></trkpt>
<trkpt lat="52.036388" lon="05.775476"><ele>52.9</ele><time>2022-04-12T15:40:23Z</time><name>PT4783</name></trkpt>
<trkpt lat="52.036394" lon="05.775485"><ele>53</ele><time>2022-04-12T15:40:24Z</time><name>PT4784</name></trkpt>
<trkpt lat="52.036400" lon="05.775500"><ele>53.1</ele><time>2022-04-12T15:40:25Z</time><name>PT4785</name></trkpt>
<trkpt lat="52.036401" lon="05.775513"><ele>53.2</ele><time>2022-04-12T15:40:26Z</time><name>PT4786</name></trkpt>
<trkpt lat="52.036400" lon="05.775534"><ele>53.2</ele><time>2022-04-12T15:40:27Z</time><name>PT4787</name></trkpt>
<trkpt lat="52.036401" lon="05.775547"><ele>53.2</ele><time>2022-04-12T15:40:28Z</time><name>PT4788</name></trkpt>
<trkpt lat="52.036403" lon="05.775554"><ele>53.1</ele><time>2022-04-12T15:40:29Z</time><name>PT4789</name></trkpt>
<trkpt lat="52.036407" lon="05.775565"><ele>53</ele><time>2022-04-12T15:40:30Z</time><name>PT4790</name></trkpt>
<trkpt lat="52.036411" lon="05.775578"><ele>53.1</ele><time>2022-04-12T15:40:31Z</time><name>PT4791</name></trkpt>
<trkpt lat="52.036413" lon="05.775595"><ele>53.3</ele><time>2022-04-12T15:40:32Z</time><name>PT4792</name></trkpt>
<trkpt lat="52.036416" lon="05.775611"><ele>53.3</ele><time>2022-04-12T15:40:33Z</time><name>PT4793</name></trkpt>
<trkpt lat="52.036413" lon="05.775624"><ele>53.5</ele><time>2022-04-12T15:40:34Z</time><name>PT4794</name></trkpt>
<trkpt lat="52.036412" lon="05.775643"><ele>53.4</ele><time>2022-04-12T15:40:35Z</time><name>PT4795</name></trkpt>
<trkpt lat="52.036411" lon="05.775655"><ele>53.3</ele><time>2022-04-12T15:40:36Z</time><name>PT4796</name></trkpt>
<trkpt lat="52.036413" lon="05.775666"><ele>53.5</ele><time>2022-04-12T15:40:37Z</time><name>PT4797</name></trkpt>
<trkpt lat="52.036413" lon="05.775682"><ele>53.4</ele><time>2022-04-12T15:40:38Z</time><name>PT4798</name></trkpt>
<trkpt lat="52.036415" lon="05.775694"><ele>53.6</ele><time>2022-04-12T15:40:39Z</time><name>PT4799</name></trkpt>
<trkpt lat="52.036416" lon="05.775714"><ele>53.4</ele><time>2022-04-12T15:40:40Z</time><name>PT4800</name></trkpt>
<trkpt lat="52.036420" lon="05.775729"><ele>53.4</ele><time>2022-04-12T15:40:41Z</time><name>PT4801</name></trkpt>
<trkpt lat="52.036425" lon="05.775740"><ele>53.3</ele><time>2022-04-12T15:40:42Z</time><name>PT4802</name></trkpt>
<trkpt lat="52.036429" lon="05.775752"><ele>53.3</ele><time>2022-04-12T15:40:43Z</time><name>PT4803</name></trkpt>
<trkpt lat="52.036434" lon="05.775769"><ele>53.2</ele><time>2022-04-12T15:40:44Z</time><name>PT4804</name></trkpt>
<trkpt lat="52.036438" lon="05.775786"><ele>53.2</ele><time>2022-04-12T15:40:45Z</time><name>PT4805</name></trkpt>
<trkpt lat="52.036440" lon="05.775804"><ele>53.3</ele><time>2022-04-12T15:40:46Z</time><name>PT4806</name></trkpt>
<trkpt lat="52.036441" lon="05.775821"><ele>53.3</ele><time>2022-04-12T15:40:47Z</time><name>PT4807</name></trkpt>
<trkpt lat="52.036443" lon="05.775842"><ele>53.2</ele><time>2022-04-12T15:40:48Z</time><name>PT4808</name></trkpt>
<trkpt lat="52.036445" lon="05.775860"><ele>53.2</ele><time>2022-04-12T15:40:49Z</time><name>PT4809</name></trkpt>
<trkpt lat="52.036448" lon="05.775875"><ele>52.8</ele><time>2022-04-12T15:40:50Z</time><name>PT4810</name></trkpt>
<trkpt lat="52.036451" lon="05.775885"><ele>52.8</ele><time>2022-04-12T15:40:51Z</time><name>PT4811</name></trkpt>
<trkpt lat="52.036452" lon="05.775897"><ele>52.9</ele><time>2022-04-12T15:40:52Z</time><name>PT4812</name></trkpt>
<trkpt lat="52.036454" lon="05.775912"><ele>52.9</ele><time>2022-04-12T15:40:53Z</time><name>PT4813</name></trkpt>
<trkpt lat="52.036457" lon="05.775921"><ele>53</ele><time>2022-04-12T15:40:54Z</time><name>PT4814</name></trkpt>
<trkpt lat="52.036457" lon="05.775933"><ele>52.9</ele><time>2022-04-12T15:40:55Z</time><name>PT4815</name></trkpt>
<trkpt lat="52.036458" lon="05.775947"><ele>52.7</ele><time>2022-04-12T15:40:56Z</time><name>PT4816</name></trkpt>
<trkpt lat="52.036455" lon="05.775968"><ele>52.7</ele><time>2022-04-12T15:40:57Z</time><name>PT4817</name></trkpt>
<trkpt lat="52.036454" lon="05.775986"><ele>52.9</ele><time>2022-04-12T15:40:58Z</time><name>PT4818</name></trkpt>
<trkpt lat="52.036454" lon="05.776002"><ele>53</ele><time>2022-04-12T15:40:59Z</time><name>PT4819</name></trkpt>
<trkpt lat="52.036457" lon="05.776017"><ele>53.3</ele><time>2022-04-12T15:41:00Z</time><name>PT4820</name></trkpt>
<trkpt lat="52.036460" lon="05.776028"><ele>53.3</ele><time>2022-04-12T15:41:01Z</time><name>PT4821</name></trkpt>
<trkpt lat="52.036458" lon="05.776050"><ele>53.3</ele><time>2022-04-12T15:41:02Z</time><name>PT4822</name></trkpt>
<trkpt lat="52.036458" lon="05.776069"><ele>53.2</ele><time>2022-04-12T15:41:03Z</time><name>PT4823</name></trkpt>
<trkpt lat="52.036459" lon="05.776088"><ele>53.2</ele><time>2022-04-12T15:41:04Z</time><name>PT4824</name></trkpt>
<trkpt lat="52.036461" lon="05.776105"><ele>53</ele><time>2022-04-12T15:41:05Z</time><name>PT4825</name></trkpt>
<trkpt lat="52.036460" lon="05.776120"><ele>52.7</ele><time>2022-04-12T15:41:06Z</time><name>PT4826</name></trkpt>
<trkpt lat="52.036461" lon="05.776135"><ele>52.7</ele><time>2022-04-12T15:41:07Z</time><name>PT4827</name></trkpt>
<trkpt lat="52.036462" lon="05.776144"><ele>52.7</ele><time>2022-04-12T15:41:08Z</time><name>PT4828</name></trkpt>
<trkpt lat="52.036462" lon="05.776160"><ele>52.6</ele><time>2022-04-12T15:41:09Z</time><name>PT4829</name></trkpt>
<trkpt lat="52.036464" lon="05.776171"><ele>52.7</ele><time>2022-04-12T15:41:10Z</time><name>PT4830</name></trkpt>
<trkpt lat="52.036465" lon="05.776189"><ele>52.6</ele><time>2022-04-12T15:41:11Z</time><name>PT4831</name></trkpt>
<trkpt lat="52.036467" lon="05.776203"><ele>52.5</ele><time>2022-04-12T15:41:12Z</time><name>PT4832</name></trkpt>
<trkpt lat="52.036467" lon="05.776221"><ele>52.5</ele><time>2022-04-12T15:41:13Z</time><name>PT4833</name></trkpt>
<trkpt lat="52.036468" lon="05.776225"><ele>52.6</ele><time>2022-04-12T15:41:14Z</time><name>PT4834</name></trkpt>
<trkpt lat="52.036471" lon="05.776239"><ele>52.7</ele><time>2022-04-12T15:41:15Z</time><name>PT4835</name></trkpt>
<trkpt lat="52.036472" lon="05.776256"><ele>52.8</ele><time>2022-04-12T15:41:16Z</time><name>PT4836</name></trkpt>
<trkpt lat="52.036477" lon="05.776273"><ele>52.7</ele><time>2022-04-12T15:41:17Z</time><name>PT4837</name></trkpt>
<trkpt lat="52.036481" lon="05.776291"><ele>52.7</ele><time>2022-04-12T15:41:18Z</time><name>PT4838</name></trkpt>
<trkpt lat="52.036480" lon="05.776313"><ele>52.7</ele><time>2022-04-12T15:41:19Z</time><name>PT4839</name></trkpt>
<trkpt lat="52.036478" lon="05.776331"><ele>52.5</ele><time>2022-04-12T15:41:20Z</time><name>PT4840</name></trkpt>
<trkpt lat="52.036480" lon="05.776352"><ele>52.5</ele><time>2022-04-12T15:41:21Z</time><name>PT4841</name></trkpt>
<trkpt lat="52.036483" lon="05.776373"><ele>52.4</ele><time>2022-04-12T15:41:22Z</time><name>PT4842</name></trkpt>
<trkpt lat="52.036485" lon="05.776389"><ele>52.3</ele><time>2022-04-12T15:41:23Z</time><name>PT4843</name></trkpt>
<trkpt lat="52.036486" lon="05.776408"><ele>52.6</ele><time>2022-04-12T15:41:24Z</time><name>PT4844</name></trkpt>
<trkpt lat="52.036489" lon="05.776423"><ele>52.6</ele><time>2022-04-12T15:41:25Z</time><name>PT4845</name></trkpt>
<trkpt lat="52.036492" lon="05.776442"><ele>52.7</ele><time>2022-04-12T15:41:26Z</time><name>PT4846</name></trkpt>
<trkpt lat="52.036495" lon="05.776463"><ele>52.9</ele><time>2022-04-12T15:41:27Z</time><name>PT4847</name></trkpt>
<trkpt lat="52.036494" lon="05.776482"><ele>53</ele><time>2022-04-12T15:41:28Z</time><name>PT4848</name></trkpt>
<trkpt lat="52.036494" lon="05.776495"><ele>53.2</ele><time>2022-04-12T15:41:29Z</time><name>PT4849</name></trkpt>
<trkpt lat="52.036495" lon="05.776511"><ele>53.2</ele><time>2022-04-12T15:41:30Z</time><name>PT4850</name></trkpt>
<trkpt lat="52.036494" lon="05.776530"><ele>53.2</ele><time>2022-04-12T15:41:31Z</time><name>PT4851</name></trkpt>
<trkpt lat="52.036497" lon="05.776546"><ele>53.3</ele><time>2022-04-12T15:41:32Z</time><name>PT4852</name></trkpt>
<trkpt lat="52.036500" lon="05.776564"><ele>53.2</ele><time>2022-04-12T15:41:33Z</time><name>PT4853</name></trkpt>
<trkpt lat="52.036503" lon="05.776580"><ele>53.2</ele><time>2022-04-12T15:41:34Z</time><name>PT4854</name></trkpt>
<trkpt lat="52.036507" lon="05.776596"><ele>53.2</ele><time>2022-04-12T15:41:35Z</time><name>PT4855</name></trkpt>
<trkpt lat="52.036509" lon="05.776611"><ele>53.1</ele><time>2022-04-12T15:41:36Z</time><name>PT4856</name></trkpt>
<trkpt lat="52.036511" lon="05.776627"><ele>53</ele><time>2022-04-12T15:41:37Z</time><name>PT4857</name></trkpt>
<trkpt lat="52.036513" lon="05.776643"><ele>53</ele><time>2022-04-12T15:41:38Z</time><name>PT4858</name></trkpt>
<trkpt lat="52.036514" lon="05.776662"><ele>52.9</ele><time>2022-04-12T15:41:39Z</time><name>PT4859</name></trkpt>
<trkpt lat="52.036515" lon="05.776676"><ele>53</ele><time>2022-04-12T15:41:40Z</time><name>PT4860</name></trkpt>
<trkpt lat="52.036516" lon="05.776697"><ele>52.9</ele><time>2022-04-12T15:41:41Z</time><name>PT4861</name></trkpt>
<trkpt lat="52.036516" lon="05.776719"><ele>53</ele><time>2022-04-12T15:41:42Z</time><name>PT4862</name></trkpt>
<trkpt lat="52.036518" lon="05.776734"><ele>53.2</ele><time>2022-04-12T15:41:43Z</time><name>PT4863</name></trkpt>
<trkpt lat="52.036521" lon="05.776746"><ele>53.2</ele><time>2022-04-12T15:41:44Z</time><name>PT4864</name></trkpt>
<trkpt lat="52.036522" lon="05.776761"><ele>53.2</ele><time>2022-04-12T15:41:45Z</time><name>PT4865</name></trkpt>
<trkpt lat="52.036527" lon="05.776775"><ele>53.2</ele><time>2022-04-12T15:41:46Z</time><name>PT4866</name></trkpt>
<trkpt lat="52.036529" lon="05.776792"><ele>53.2</ele><time>2022-04-12T15:41:47Z</time><name>PT4867</name></trkpt>
<trkpt lat="52.036534" lon="05.776812"><ele>53.2</ele><time>2022-04-12T15:41:48Z</time><name>PT4868</name></trkpt>
<trkpt lat="52.036536" lon="05.776830"><ele>53.1</ele><time>2022-04-12T15:41:49Z</time><name>PT4869</name></trkpt>
<trkpt lat="52.036539" lon="05.776842"><ele>52.9</ele><time>2022-04-12T15:41:50Z</time><name>PT4870</name></trkpt>
<trkpt lat="52.036539" lon="05.776859"><ele>52.9</ele><time>2022-04-12T15:41:51Z</time><name>PT4871</name></trkpt>
<trkpt lat="52.036541" lon="05.776873"><ele>52.9</ele><time>2022-04-12T15:41:52Z</time><name>PT4872</name></trkpt>
<trkpt lat="52.036543" lon="05.776888"><ele>53.1</ele><time>2022-04-12T15:41:53Z</time><name>PT4873</name></trkpt>
<trkpt lat="52.036545" lon="05.776902"><ele>52.9</ele><time>2022-04-12T15:41:54Z</time><name>PT4874</name></trkpt>
<trkpt lat="52.036546" lon="05.776917"><ele>53</ele><time>2022-04-12T15:41:55Z</time><name>PT4875</name></trkpt>
<trkpt lat="52.036546" lon="05.776937"><ele>53</ele><time>2022-04-12T15:41:56Z</time><name>PT4876</name></trkpt>
<trkpt lat="52.036547" lon="05.776950"><ele>52.9</ele><time>2022-04-12T15:41:57Z</time><name>PT4877</name></trkpt>
<trkpt lat="52.036554" lon="05.776966"><ele>53</ele><time>2022-04-12T15:41:58Z</time><name>PT4878</name></trkpt>
<trkpt lat="52.036559" lon="05.776974"><ele>53.2</ele><time>2022-04-12T15:41:59Z</time><name>PT4879</name></trkpt>
<trkpt lat="52.036559" lon="05.776994"><ele>53.2</ele><time>2022-04-12T15:42:00Z</time><name>PT4880</name></trkpt>
<trkpt lat="52.036558" lon="05.777013"><ele>53.2</ele><time>2022-04-12T15:42:01Z</time><name>PT4881</name></trkpt>
<trkpt lat="52.036558" lon="05.777029"><ele>53.2</ele><time>2022-04-12T15:42:02Z</time><name>PT4882</name></trkpt>
<trkpt lat="52.036560" lon="05.777046"><ele>53.2</ele><time>2022-04-12T15:42:03Z</time><name>PT4883</name></trkpt>
<trkpt lat="52.036561" lon="05.777060"><ele>53.1</ele><time>2022-04-12T15:42:04Z</time><name>PT4884</name></trkpt>
<trkpt lat="52.036553" lon="05.777095"><ele>53.2</ele><time>2022-04-12T15:42:05Z</time><name>PT4885</name></trkpt>
<trkpt lat="52.036554" lon="05.777112"><ele>53.2</ele><time>2022-04-12T15:42:06Z</time><name>PT4886</name></trkpt>
<trkpt lat="52.036553" lon="05.777130"><ele>53.3</ele><time>2022-04-12T15:42:07Z</time><name>PT4887</name></trkpt>
<trkpt lat="52.036553" lon="05.777149"><ele>53.3</ele><time>2022-04-12T15:42:08Z</time><name>PT4888</name></trkpt>
<trkpt lat="52.036554" lon="05.777164"><ele>53.4</ele><time>2022-04-12T15:42:09Z</time><name>PT4889</name></trkpt>
<trkpt lat="52.036557" lon="05.777178"><ele>53.2</ele><time>2022-04-12T15:42:10Z</time><name>PT4890</name></trkpt>
<trkpt lat="52.036553" lon="05.777202"><ele>53.2</ele><time>2022-04-12T15:42:11Z</time><name>PT4891</name></trkpt>
<trkpt lat="52.036553" lon="05.777219"><ele>53.2</ele><time>2022-04-12T15:42:12Z</time><name>PT4892</name></trkpt>
<trkpt lat="52.036555" lon="05.777236"><ele>53.3</ele><time>2022-04-12T15:42:13Z</time><name>PT4893</name></trkpt>
<trkpt lat="52.036560" lon="05.777251"><ele>53.5</ele><time>2022-04-12T15:42:14Z</time><name>PT4894</name></trkpt>
<trkpt lat="52.036564" lon="05.777264"><ele>53.4</ele><time>2022-04-12T15:42:15Z</time><name>PT4895</name></trkpt>
<trkpt lat="52.036567" lon="05.777280"><ele>53.4</ele><time>2022-04-12T15:42:16Z</time><name>PT4896</name></trkpt>
<trkpt lat="52.036570" lon="05.777294"><ele>53.2</ele><time>2022-04-12T15:42:17Z</time><name>PT4897</name></trkpt>
<trkpt lat="52.036575" lon="05.777306"><ele>52.9</ele><time>2022-04-12T15:42:18Z</time><name>PT4898</name></trkpt>
<trkpt lat="52.036579" lon="05.777322"><ele>52.8</ele><time>2022-04-12T15:42:19Z</time><name>PT4899</name></trkpt>
<trkpt lat="52.036583" lon="05.777335"><ele>53</ele><time>2022-04-12T15:42:20Z</time><name>PT4900</name></trkpt>
<trkpt lat="52.036584" lon="05.777356"><ele>53</ele><time>2022-04-12T15:42:21Z</time><name>PT4901</name></trkpt>
<trkpt lat="52.036585" lon="05.777375"><ele>53.1</ele><time>2022-04-12T15:42:22Z</time><name>PT4902</name></trkpt>
<trkpt lat="52.036585" lon="05.777397"><ele>53.2</ele><time>2022-04-12T15:42:23Z</time><name>PT4903</name></trkpt>
<trkpt lat="52.036589" lon="05.777414"><ele>53.2</ele><time>2022-04-12T15:42:24Z</time><name>PT4904</name></trkpt>
<trkpt lat="52.036594" lon="05.777428"><ele>53</ele><time>2022-04-12T15:42:25Z</time><name>PT4905</name></trkpt>
<trkpt lat="52.036596" lon="05.777445"><ele>53.1</ele><time>2022-04-12T15:42:26Z</time><name>PT4906</name></trkpt>
<trkpt lat="52.036594" lon="05.777470"><ele>53.1</ele><time>2022-04-12T15:42:27Z</time><name>PT4907</name></trkpt>
<trkpt lat="52.036597" lon="05.777486"><ele>53</ele><time>2022-04-12T15:42:28Z</time><name>PT4908</name></trkpt>
<trkpt lat="52.036598" lon="05.777502"><ele>53</ele><time>2022-04-12T15:42:29Z</time><name>PT4909</name></trkpt>
<trkpt lat="52.036594" lon="05.777520"><ele>52.8</ele><time>2022-04-12T15:42:30Z</time><name>PT4910</name></trkpt>
<trkpt lat="52.036597" lon="05.777540"><ele>52.9</ele><time>2022-04-12T15:42:31Z</time><name>PT4911</name></trkpt>
<trkpt lat="52.036602" lon="05.777557"><ele>52.8</ele><time>2022-04-12T15:42:32Z</time><name>PT4912</name></trkpt>
<trkpt lat="52.036605" lon="05.777572"><ele>52.7</ele><time>2022-04-12T15:42:33Z</time><name>PT4913</name></trkpt>
<trkpt lat="52.036606" lon="05.777588"><ele>52.8</ele><time>2022-04-12T15:42:34Z</time><name>PT4914</name></trkpt>
<trkpt lat="52.036606" lon="05.777604"><ele>52.8</ele><time>2022-04-12T15:42:35Z</time><name>PT4915</name></trkpt>
<trkpt lat="52.036608" lon="05.777620"><ele>52.7</ele><time>2022-04-12T15:42:36Z</time><name>PT4916</name></trkpt>
<trkpt lat="52.036611" lon="05.777631"><ele>52.6</ele><time>2022-04-12T15:42:37Z</time><name>PT4917</name></trkpt>
<trkpt lat="52.036613" lon="05.777645"><ele>52.6</ele><time>2022-04-12T15:42:38Z</time><name>PT4918</name></trkpt>
<trkpt lat="52.036618" lon="05.777655"><ele>52.7</ele><time>2022-04-12T15:42:39Z</time><name>PT4919</name></trkpt>
<trkpt lat="52.036624" lon="05.777670"><ele>52.7</ele><time>2022-04-12T15:42:40Z</time><name>PT4920</name></trkpt>
<trkpt lat="52.036628" lon="05.777689"><ele>52.7</ele><time>2022-04-12T15:42:41Z</time><name>PT4921</name></trkpt>
<trkpt lat="52.036630" lon="05.777705"><ele>52.7</ele><time>2022-04-12T15:42:42Z</time><name>PT4922</name></trkpt>
<trkpt lat="52.036633" lon="05.777719"><ele>52.6</ele><time>2022-04-12T15:42:43Z</time><name>PT4923</name></trkpt>
<trkpt lat="52.036635" lon="05.777733"><ele>52.6</ele><time>2022-04-12T15:42:44Z</time><name>PT4924</name></trkpt>
<trkpt lat="52.036638" lon="05.777749"><ele>52.6</ele><time>2022-04-12T15:42:45Z</time><name>PT4925</name></trkpt>
<trkpt lat="52.036642" lon="05.777767"><ele>52.4</ele><time>2022-04-12T15:42:46Z</time><name>PT4926</name></trkpt>
<trkpt lat="52.036644" lon="05.777785"><ele>52.4</ele><time>2022-04-12T15:42:47Z</time><name>PT4927</name></trkpt>
<trkpt lat="52.036642" lon="05.777803"><ele>52.6</ele><time>2022-04-12T15:42:48Z</time><name>PT4928</name></trkpt>
<trkpt lat="52.036641" lon="05.777820"><ele>52.5</ele><time>2022-04-12T15:42:49Z</time><name>PT4929</name></trkpt>
<trkpt lat="52.036642" lon="05.777833"><ele>52.6</ele><time>2022-04-12T15:42:50Z</time><name>PT4930</name></trkpt>
<trkpt lat="52.036643" lon="05.777852"><ele>52.7</ele><time>2022-04-12T15:42:51Z</time><name>PT4931</name></trkpt>
<trkpt lat="52.036645" lon="05.777863"><ele>52.7</ele><time>2022-04-12T15:42:52Z</time><name>PT4932</name></trkpt>
<trkpt lat="52.036645" lon="05.777884"><ele>52.5</ele><time>2022-04-12T15:42:53Z</time><name>PT4933</name></trkpt>
<trkpt lat="52.036645" lon="05.777900"><ele>52.7</ele><time>2022-04-12T15:42:54Z</time><name>PT4934</name></trkpt>
<trkpt lat="52.036647" lon="05.777913"><ele>52.7</ele><time>2022-04-12T15:42:55Z</time><name>PT4935</name></trkpt>
<trkpt lat="52.036647" lon="05.777923"><ele>52.7</ele><time>2022-04-12T15:42:56Z</time><name>PT4936</name></trkpt>
<trkpt lat="52.036646" lon="05.777937"><ele>52.7</ele><time>2022-04-12T15:42:57Z</time><name>PT4937</name></trkpt>
<trkpt lat="52.036646" lon="05.777952"><ele>52.9</ele><time>2022-04-12T15:42:58Z</time><name>PT4938</name></trkpt>
<trkpt lat="52.036647" lon="05.777968"><ele>52.9</ele><time>2022-04-12T15:42:59Z</time><name>PT4939</name></trkpt>
<trkpt lat="52.036648" lon="05.777984"><ele>53.3</ele><time>2022-04-12T15:43:00Z</time><name>PT4940</name></trkpt>
<trkpt lat="52.036647" lon="05.777995"><ele>53.2</ele><time>2022-04-12T15:43:01Z</time><name>PT4941</name></trkpt>
<trkpt lat="52.036648" lon="05.778011"><ele>53.4</ele><time>2022-04-12T15:43:02Z</time><name>PT4942</name></trkpt>
<trkpt lat="52.036650" lon="05.778022"><ele>53.6</ele><time>2022-04-12T15:43:03Z</time><name>PT4943</name></trkpt>
<trkpt lat="52.036649" lon="05.778042"><ele>53.4</ele><time>2022-04-12T15:43:04Z</time><name>PT4944</name></trkpt>
<trkpt lat="52.036649" lon="05.778060"><ele>53.5</ele><time>2022-04-12T15:43:05Z</time><name>PT4945</name></trkpt>
<trkpt lat="52.036652" lon="05.778075"><ele>53.7</ele><time>2022-04-12T15:43:06Z</time><name>PT4946</name></trkpt>
<trkpt lat="52.036654" lon="05.778089"><ele>53.7</ele><time>2022-04-12T15:43:07Z</time><name>PT4947</name></trkpt>
<trkpt lat="52.036656" lon="05.778100"><ele>54</ele><time>2022-04-12T15:43:08Z</time><name>PT4948</name></trkpt>
<trkpt lat="52.036657" lon="05.778110"><ele>54</ele><time>2022-04-12T15:43:09Z</time><name>PT4949</name></trkpt>
<trkpt lat="52.036656" lon="05.778121"><ele>54.1</ele><time>2022-04-12T15:43:10Z</time><name>PT4950</name></trkpt>
<trkpt lat="52.036655" lon="05.778136"><ele>54.2</ele><time>2022-04-12T15:43:11Z</time><name>PT4951</name></trkpt>
<trkpt lat="52.036654" lon="05.778144"><ele>54.2</ele><time>2022-04-12T15:43:12Z</time><name>PT4952</name></trkpt>
<trkpt lat="52.036654" lon="05.778154"><ele>54.1</ele><time>2022-04-12T15:43:13Z</time><name>PT4953</name></trkpt>
<trkpt lat="52.036654" lon="05.778160"><ele>54.1</ele><time>2022-04-12T15:43:14Z</time><name>PT4954</name></trkpt>
<trkpt lat="52.036656" lon="05.778170"><ele>54.1</ele><time>2022-04-12T15:43:15Z</time><name>PT4955</name></trkpt>
<trkpt lat="52.036658" lon="05.778181"><ele>54.1</ele><time>2022-04-12T15:43:16Z</time><name>PT4956</name></trkpt>
<trkpt lat="52.036657" lon="05.778194"><ele>54</ele><time>2022-04-12T15:43:17Z</time><name>PT4957</name></trkpt>
<trkpt lat="52.036657" lon="05.778207"><ele>54</ele><time>2022-04-12T15:43:18Z</time><name>PT4958</name></trkpt>
<trkpt lat="52.036658" lon="05.778217"><ele>54.1</ele><time>2022-04-12T15:43:19Z</time><name>PT4959</name></trkpt>
<trkpt lat="52.036660" lon="05.778225"><ele>54.2</ele><time>2022-04-12T15:43:20Z</time><name>PT4960</name></trkpt>
<trkpt lat="52.036659" lon="05.778238"><ele>54.3</ele><time>2022-04-12T15:43:21Z</time><name>PT4961</name></trkpt>
<trkpt lat="52.036659" lon="05.778246"><ele>54.5</ele><time>2022-04-12T15:43:22Z</time><name>PT4962</name></trkpt>
<trkpt lat="52.036661" lon="05.778243"><ele>54.4</ele><time>2022-04-12T15:43:23Z</time><name>PT4963</name></trkpt>
<trkpt lat="52.036663" lon="05.778238"><ele>54.5</ele><time>2022-04-12T15:43:24Z</time><name>PT4964</name></trkpt>
<trkpt lat="52.036666" lon="05.778237"><ele>54.3</ele><time>2022-04-12T15:43:25Z</time><name>PT4965</name></trkpt>
<trkpt lat="52.036666" lon="05.778242"><ele>54.3</ele><time>2022-04-12T15:43:26Z</time><name>PT4966</name></trkpt>
<trkpt lat="52.036668" lon="05.778257"><ele>53.7</ele><time>2022-04-12T15:43:37Z</time><name>PT4967</name></trkpt>
<trkpt lat="52.036671" lon="05.778277"><ele>53.5</ele><time>2022-04-12T15:43:38Z</time><name>PT4968</name></trkpt>
<trkpt lat="52.036672" lon="05.778292"><ele>53.5</ele><time>2022-04-12T15:43:39Z</time><name>PT4969</name></trkpt>
<trkpt lat="52.036674" lon="05.778312"><ele>53.2</ele><time>2022-04-12T15:43:40Z</time><name>PT4970</name></trkpt>
<trkpt lat="52.036675" lon="05.778330"><ele>53.2</ele><time>2022-04-12T15:43:41Z</time><name>PT4971</name></trkpt>
<trkpt lat="52.036673" lon="05.778354"><ele>53.2</ele><time>2022-04-12T15:43:42Z</time><name>PT4972</name></trkpt>
<trkpt lat="52.036673" lon="05.778374"><ele>53.2</ele><time>2022-04-12T15:43:43Z</time><name>PT4973</name></trkpt>
<trkpt lat="52.036673" lon="05.778393"><ele>53.6</ele><time>2022-04-12T15:43:44Z</time><name>PT4974</name></trkpt>
<trkpt lat="52.036671" lon="05.778407"><ele>53.6</ele><time>2022-04-12T15:43:45Z</time><name>PT4975</name></trkpt>
<trkpt lat="52.036669" lon="05.778429"><ele>53.6</ele><time>2022-04-12T15:43:46Z</time><name>PT4976</name></trkpt>
<trkpt lat="52.036669" lon="05.778448"><ele>53.5</ele><time>2022-04-12T15:43:47Z</time><name>PT4977</name></trkpt>
<trkpt lat="52.036669" lon="05.778466"><ele>53.2</ele><time>2022-04-12T15:43:48Z</time><name>PT4978</name></trkpt>
<trkpt lat="52.036665" lon="05.778484"><ele>53.3</ele><time>2022-04-12T15:43:49Z</time><name>PT4979</name></trkpt>
<trkpt lat="52.036665" lon="05.778502"><ele>53.3</ele><time>2022-04-12T15:43:50Z</time><name>PT4980</name></trkpt>
<trkpt lat="52.036663" lon="05.778522"><ele>53.3</ele><time>2022-04-12T15:43:51Z</time><name>PT4981</name></trkpt>
<trkpt lat="52.036663" lon="05.778538"><ele>53.4</ele><time>2022-04-12T15:43:52Z</time><name>PT4982</name></trkpt>
<trkpt lat="52.036660" lon="05.778556"><ele>53.4</ele><time>2022-04-12T15:43:53Z</time><name>PT4983</name></trkpt>
<trkpt lat="52.036660" lon="05.778574"><ele>53.3</ele><time>2022-04-12T15:43:54Z</time><name>PT4984</name></trkpt>
<trkpt lat="52.036660" lon="05.778591"><ele>53.1</ele><time>2022-04-12T15:43:55Z</time><name>PT4985</name></trkpt>
<trkpt lat="52.036659" lon="05.778609"><ele>52.9</ele><time>2022-04-12T15:43:56Z</time><name>PT4986</name></trkpt>
<trkpt lat="52.036657" lon="05.778623"><ele>53</ele><time>2022-04-12T15:43:57Z</time><name>PT4987</name></trkpt>
<trkpt lat="52.036658" lon="05.778634"><ele>52.8</ele><time>2022-04-12T15:43:58Z</time><name>PT4988</name></trkpt>
<trkpt lat="52.036656" lon="05.778650"><ele>52.9</ele><time>2022-04-12T15:43:59Z</time><name>PT4989</name></trkpt>
<trkpt lat="52.036654" lon="05.778670"><ele>53</ele><time>2022-04-12T15:44:00Z</time><name>PT4990</name></trkpt>
<trkpt lat="52.036656" lon="05.778688"><ele>53</ele><time>2022-04-12T15:44:01Z</time><name>PT4991</name></trkpt>
<trkpt lat="52.036657" lon="05.778709"><ele>53.2</ele><time>2022-04-12T15:44:02Z</time><name>PT4992</name></trkpt>
<trkpt lat="52.036657" lon="05.778725"><ele>53.2</ele><time>2022-04-12T15:44:03Z</time><name>PT4993</name></trkpt>
<trkpt lat="52.036654" lon="05.778743"><ele>53.2</ele><time>2022-04-12T15:44:04Z</time><name>PT4994</name></trkpt>
<trkpt lat="52.036652" lon="05.778757"><ele>53.2</ele><time>2022-04-12T15:44:05Z</time><name>PT4995</name></trkpt>
<trkpt lat="52.036650" lon="05.778775"><ele>53.2</ele><time>2022-04-12T15:44:06Z</time><name>PT4996</name></trkpt>
<trkpt lat="52.036650" lon="05.778792"><ele>53.2</ele><time>2022-04-12T15:44:07Z</time><name>PT4997</name></trkpt>
<trkpt lat="52.036650" lon="05.778810"><ele>52.9</ele><time>2022-04-12T15:44:08Z</time><name>PT4998</name></trkpt>
<trkpt lat="52.036649" lon="05.778824"><ele>53</ele><time>2022-04-12T15:44:09Z</time><name>PT4999</name></trkpt>
<trkpt lat="52.036646" lon="05.778849"><ele>52.8</ele><time>2022-04-12T15:44:10Z</time><name>PT5000</name></trkpt>
<trkpt lat="52.036645" lon="05.778868"><ele>52.9</ele><time>2022-04-12T15:44:11Z</time><name>PT5001</name></trkpt>
<trkpt lat="52.036645" lon="05.778892"><ele>52.9</ele><time>2022-04-12T15:44:12Z</time><name>PT5002</name></trkpt>
<trkpt lat="52.036646" lon="05.778911"><ele>53</ele><time>2022-04-12T15:44:13Z</time><name>PT5003</name></trkpt>
<trkpt lat="52.036645" lon="05.778929"><ele>53</ele><time>2022-04-12T15:44:14Z</time><name>PT5004</name></trkpt>
<trkpt lat="52.036643" lon="05.778944"><ele>52.9</ele><time>2022-04-12T15:44:15Z</time><name>PT5005</name></trkpt>
<trkpt lat="52.036643" lon="05.778961"><ele>52.7</ele><time>2022-04-12T15:44:16Z</time><name>PT5006</name></trkpt>
<trkpt lat="52.036643" lon="05.778980"><ele>52.8</ele><time>2022-04-12T15:44:17Z</time><name>PT5007</name></trkpt>
<trkpt lat="52.036643" lon="05.778997"><ele>52.8</ele><time>2022-04-12T15:44:18Z</time><name>PT5008</name></trkpt>
<trkpt lat="52.036642" lon="05.779020"><ele>52.9</ele><time>2022-04-12T15:44:19Z</time><name>PT5009</name></trkpt>
<trkpt lat="52.036641" lon="05.779036"><ele>52.8</ele><time>2022-04-12T15:44:20Z</time><name>PT5010</name></trkpt>
<trkpt lat="52.036639" lon="05.779054"><ele>52.9</ele><time>2022-04-12T15:44:21Z</time><name>PT5011</name></trkpt>
<trkpt lat="52.036639" lon="05.779069"><ele>52.7</ele><time>2022-04-12T15:44:22Z</time><name>PT5012</name></trkpt>
<trkpt lat="52.036638" lon="05.779086"><ele>52.7</ele><time>2022-04-12T15:44:23Z</time><name>PT5013</name></trkpt>
<trkpt lat="52.036635" lon="05.779107"><ele>52.7</ele><time>2022-04-12T15:44:24Z</time><name>PT5014</name></trkpt>
<trkpt lat="52.036633" lon="05.779123"><ele>52.7</ele><time>2022-04-12T15:44:25Z</time><name>PT5015</name></trkpt>
<trkpt lat="52.036635" lon="05.779139"><ele>52.7</ele><time>2022-04-12T15:44:26Z</time><name>PT5016</name></trkpt>
<trkpt lat="52.036638" lon="05.779156"><ele>52.7</ele><time>2022-04-12T15:44:27Z</time><name>PT5017</name></trkpt>
<trkpt lat="52.036637" lon="05.779174"><ele>52.6</ele><time>2022-04-12T15:44:28Z</time><name>PT5018</name></trkpt>
<trkpt lat="52.036636" lon="05.779194"><ele>52.6</ele><time>2022-04-12T15:44:29Z</time><name>PT5019</name></trkpt>
<trkpt lat="52.036635" lon="05.779216"><ele>52.7</ele><time>2022-04-12T15:44:30Z</time><name>PT5020</name></trkpt>
<trkpt lat="52.036634" lon="05.779234"><ele>52.7</ele><time>2022-04-12T15:44:31Z</time><name>PT5021</name></trkpt>
<trkpt lat="52.036635" lon="05.779251"><ele>52.7</ele><time>2022-04-12T15:44:32Z</time><name>PT5022</name></trkpt>
<trkpt lat="52.036635" lon="05.779266"><ele>52.7</ele><time>2022-04-12T15:44:33Z</time><name>PT5023</name></trkpt>
<trkpt lat="52.036636" lon="05.779285"><ele>52.5</ele><time>2022-04-12T15:44:34Z</time><name>PT5024</name></trkpt>
<trkpt lat="52.036635" lon="05.779301"><ele>52.4</ele><time>2022-04-12T15:44:35Z</time><name>PT5025</name></trkpt>
<trkpt lat="52.036634" lon="05.779322"><ele>52.4</ele><time>2022-04-12T15:44:36Z</time><name>PT5026</name></trkpt>
<trkpt lat="52.036635" lon="05.779347"><ele>52.6</ele><time>2022-04-12T15:44:37Z</time><name>PT5027</name></trkpt>
<trkpt lat="52.036636" lon="05.779363"><ele>52.7</ele><time>2022-04-12T15:44:38Z</time><name>PT5028</name></trkpt>
<trkpt lat="52.036635" lon="05.779381"><ele>52.7</ele><time>2022-04-12T15:44:39Z</time><name>PT5029</name></trkpt>
<trkpt lat="52.036633" lon="05.779400"><ele>52.7</ele><time>2022-04-12T15:44:40Z</time><name>PT5030</name></trkpt>
<trkpt lat="52.036633" lon="05.779415"><ele>52.7</ele><time>2022-04-12T15:44:41Z</time><name>PT5031</name></trkpt>
<trkpt lat="52.036636" lon="05.779431"><ele>52.7</ele><time>2022-04-12T15:44:42Z</time><name>PT5032</name></trkpt>
<trkpt lat="52.036638" lon="05.779445"><ele>52.8</ele><time>2022-04-12T15:44:43Z</time><name>PT5033</name></trkpt>
<trkpt lat="52.036637" lon="05.779464"><ele>53</ele><time>2022-04-12T15:44:44Z</time><name>PT5034</name></trkpt>
<trkpt lat="52.036636" lon="05.779478"><ele>52.9</ele><time>2022-04-12T15:44:45Z</time><name>PT5035</name></trkpt>
<trkpt lat="52.036638" lon="05.779497"><ele>53</ele><time>2022-04-12T15:44:46Z</time><name>PT5036</name></trkpt>
<trkpt lat="52.036639" lon="05.779520"><ele>52.9</ele><time>2022-04-12T15:44:47Z</time><name>PT5037</name></trkpt>
<trkpt lat="52.036638" lon="05.779543"><ele>52.7</ele><time>2022-04-12T15:44:48Z</time><name>PT5038</name></trkpt>
<trkpt lat="52.036636" lon="05.779559"><ele>52.7</ele><time>2022-04-12T15:44:49Z</time><name>PT5039</name></trkpt>
<trkpt lat="52.036634" lon="05.779577"><ele>52.7</ele><time>2022-04-12T15:44:50Z</time><name>PT5040</name></trkpt>
<trkpt lat="52.036636" lon="05.779594"><ele>52.8</ele><time>2022-04-12T15:44:51Z</time><name>PT5041</name></trkpt>
<trkpt lat="52.036637" lon="05.779613"><ele>52.8</ele><time>2022-04-12T15:44:52Z</time><name>PT5042</name></trkpt>
<trkpt lat="52.036637" lon="05.779630"><ele>52.7</ele><time>2022-04-12T15:44:53Z</time><name>PT5043</name></trkpt>
<trkpt lat="52.036635" lon="05.779647"><ele>52.7</ele><time>2022-04-12T15:44:54Z</time><name>PT5044</name></trkpt>
<trkpt lat="52.036633" lon="05.779666"><ele>52.7</ele><time>2022-04-12T15:44:55Z</time><name>PT5045</name></trkpt>
<trkpt lat="52.036632" lon="05.779683"><ele>52.7</ele><time>2022-04-12T15:44:56Z</time><name>PT5046</name></trkpt>
<trkpt lat="52.036633" lon="05.779702"><ele>52.7</ele><time>2022-04-12T15:44:57Z</time><name>PT5047</name></trkpt>
<trkpt lat="52.036633" lon="05.779714"><ele>52.7</ele><time>2022-04-12T15:44:58Z</time><name>PT5048</name></trkpt>
<trkpt lat="52.036632" lon="05.779725"><ele>52.6</ele><time>2022-04-12T15:44:59Z</time><name>PT5049</name></trkpt>
<trkpt lat="52.036631" lon="05.779743"><ele>52.5</ele><time>2022-04-12T15:45:00Z</time><name>PT5050</name></trkpt>
<trkpt lat="52.036631" lon="05.779760"><ele>52.5</ele><time>2022-04-12T15:45:01Z</time><name>PT5051</name></trkpt>
<trkpt lat="52.036632" lon="05.779777"><ele>52.5</ele><time>2022-04-12T15:45:02Z</time><name>PT5052</name></trkpt>
<trkpt lat="52.036632" lon="05.779793"><ele>52.6</ele><time>2022-04-12T15:45:03Z</time><name>PT5053</name></trkpt>
<trkpt lat="52.036632" lon="05.779815"><ele>52.4</ele><time>2022-04-12T15:45:04Z</time><name>PT5054</name></trkpt>
<trkpt lat="52.036632" lon="05.779831"><ele>52.4</ele><time>2022-04-12T15:45:05Z</time><name>PT5055</name></trkpt>
<trkpt lat="52.036632" lon="05.779849"><ele>52.5</ele><time>2022-04-12T15:45:06Z</time><name>PT5056</name></trkpt>
<trkpt lat="52.036632" lon="05.779867"><ele>52.5</ele><time>2022-04-12T15:45:07Z</time><name>PT5057</name></trkpt>
<trkpt lat="52.036633" lon="05.779886"><ele>52.7</ele><time>2022-04-12T15:45:08Z</time><name>PT5058</name></trkpt>
<trkpt lat="52.036634" lon="05.779903"><ele>52.9</ele><time>2022-04-12T15:45:09Z</time><name>PT5059</name></trkpt>
<trkpt lat="52.036637" lon="05.779920"><ele>52.8</ele><time>2022-04-12T15:45:10Z</time><name>PT5060</name></trkpt>
<trkpt lat="52.036640" lon="05.779940"><ele>52.9</ele><time>2022-04-12T15:45:11Z</time><name>PT5061</name></trkpt>
<trkpt lat="52.036642" lon="05.779957"><ele>53</ele><time>2022-04-12T15:45:12Z</time><name>PT5062</name></trkpt>
<trkpt lat="52.036646" lon="05.779971"><ele>52.9</ele><time>2022-04-12T15:45:13Z</time><name>PT5063</name></trkpt>
<trkpt lat="52.036646" lon="05.779989"><ele>53.1</ele><time>2022-04-12T15:45:14Z</time><name>PT5064</name></trkpt>
<trkpt lat="52.036649" lon="05.780005"><ele>53.1</ele><time>2022-04-12T15:45:15Z</time><name>PT5065</name></trkpt>
<trkpt lat="52.036649" lon="05.780022"><ele>53</ele><time>2022-04-12T15:45:16Z</time><name>PT5066</name></trkpt>
<trkpt lat="52.036650" lon="05.780037"><ele>53.2</ele><time>2022-04-12T15:45:18Z</time><name>PT5067</name></trkpt>
<trkpt lat="52.036647" lon="05.780054"><ele>53.2</ele><time>2022-04-12T15:45:18Z</time><name>PT5068</name></trkpt>
<trkpt lat="52.036650" lon="05.780073"><ele>53.3</ele><time>2022-04-12T15:45:19Z</time><name>PT5069</name></trkpt>
<trkpt lat="52.036652" lon="05.780089"><ele>53.3</ele><time>2022-04-12T15:45:20Z</time><name>PT5070</name></trkpt>
<trkpt lat="52.036657" lon="05.780107"><ele>53.2</ele><time>2022-04-12T15:45:21Z</time><name>PT5071</name></trkpt>
<trkpt lat="52.036658" lon="05.780122"><ele>53.3</ele><time>2022-04-12T15:45:22Z</time><name>PT5072</name></trkpt>
<trkpt lat="52.036658" lon="05.780141"><ele>53.2</ele><time>2022-04-12T15:45:23Z</time><name>PT5073</name></trkpt>
<trkpt lat="52.036660" lon="05.780160"><ele>53.2</ele><time>2022-04-12T15:45:24Z</time><name>PT5074</name></trkpt>
<trkpt lat="52.036662" lon="05.780177"><ele>53.3</ele><time>2022-04-12T15:45:25Z</time><name>PT5075</name></trkpt>
<trkpt lat="52.036666" lon="05.780196"><ele>53.2</ele><time>2022-04-12T15:45:26Z</time><name>PT5076</name></trkpt>
<trkpt lat="52.036668" lon="05.780213"><ele>53.3</ele><time>2022-04-12T15:45:27Z</time><name>PT5077</name></trkpt>
<trkpt lat="52.036667" lon="05.780231"><ele>53.4</ele><time>2022-04-12T15:45:28Z</time><name>PT5078</name></trkpt>
<trkpt lat="52.036667" lon="05.780249"><ele>53.5</ele><time>2022-04-12T15:45:29Z</time><name>PT5079</name></trkpt>
<trkpt lat="52.036668" lon="05.780268"><ele>53.7</ele><time>2022-04-12T15:45:30Z</time><name>PT5080</name></trkpt>
<trkpt lat="52.036669" lon="05.780288"><ele>53.7</ele><time>2022-04-12T15:45:31Z</time><name>PT5081</name></trkpt>
<trkpt lat="52.036670" lon="05.780308"><ele>53.7</ele><time>2022-04-12T15:45:32Z</time><name>PT5082</name></trkpt>
<trkpt lat="52.036671" lon="05.780325"><ele>53.5</ele><time>2022-04-12T15:45:33Z</time><name>PT5083</name></trkpt>
<trkpt lat="52.036672" lon="05.780342"><ele>53.6</ele><time>2022-04-12T15:45:34Z</time><name>PT5084</name></trkpt>
<trkpt lat="52.036675" lon="05.780357"><ele>53.5</ele><time>2022-04-12T15:45:35Z</time><name>PT5085</name></trkpt>
<trkpt lat="52.036676" lon="05.780372"><ele>53.3</ele><time>2022-04-12T15:45:36Z</time><name>PT5086</name></trkpt>
<trkpt lat="52.036675" lon="05.780391"><ele>53.4</ele><time>2022-04-12T15:45:37Z</time><name>PT5087</name></trkpt>
<trkpt lat="52.036670" lon="05.780405"><ele>53.2</ele><time>2022-04-12T15:45:38Z</time><name>PT5088</name></trkpt>
<trkpt lat="52.036668" lon="05.780422"><ele>53.1</ele><time>2022-04-12T15:45:39Z</time><name>PT5089</name></trkpt>
<trkpt lat="52.036665" lon="05.780442"><ele>53.2</ele><time>2022-04-12T15:45:40Z</time><name>PT5090</name></trkpt>
<trkpt lat="52.036663" lon="05.780459"><ele>53.2</ele><time>2022-04-12T15:45:41Z</time><name>PT5091</name></trkpt>
<trkpt lat="52.036665" lon="05.780476"><ele>53.4</ele><time>2022-04-12T15:45:42Z</time><name>PT5092</name></trkpt>
<trkpt lat="52.036669" lon="05.780493"><ele>53.4</ele><time>2022-04-12T15:45:43Z</time><name>PT5093</name></trkpt>
<trkpt lat="52.036671" lon="05.780510"><ele>53.4</ele><time>2022-04-12T15:45:44Z</time><name>PT5094</name></trkpt>
<trkpt lat="52.036669" lon="05.780526"><ele>53.5</ele><time>2022-04-12T15:45:45Z</time><name>PT5095</name></trkpt>
<trkpt lat="52.036667" lon="05.780546"><ele>53.4</ele><time>2022-04-12T15:45:46Z</time><name>PT5096</name></trkpt>
<trkpt lat="52.036668" lon="05.780562"><ele>53.7</ele><time>2022-04-12T15:45:47Z</time><name>PT5097</name></trkpt>
<trkpt lat="52.036669" lon="05.780580"><ele>53.6</ele><time>2022-04-12T15:45:48Z</time><name>PT5098</name></trkpt>
<trkpt lat="52.036670" lon="05.780600"><ele>53.5</ele><time>2022-04-12T15:45:49Z</time><name>PT5099</name></trkpt>
<trkpt lat="52.036671" lon="05.780615"><ele>53.5</ele><time>2022-04-12T15:45:50Z</time><name>PT5100</name></trkpt>
<trkpt lat="52.036671" lon="05.780634"><ele>53.5</ele><time>2022-04-12T15:45:51Z</time><name>PT5101</name></trkpt>
<trkpt lat="52.036671" lon="05.780650"><ele>53.4</ele><time>2022-04-12T15:45:52Z</time><name>PT5102</name></trkpt>
<trkpt lat="52.036671" lon="05.780668"><ele>53.3</ele><time>2022-04-12T15:45:53Z</time><name>PT5103</name></trkpt>
<trkpt lat="52.036670" lon="05.780688"><ele>53.4</ele><time>2022-04-12T15:45:54Z</time><name>PT5104</name></trkpt>
<trkpt lat="52.036670" lon="05.780709"><ele>53.4</ele><time>2022-04-12T15:45:55Z</time><name>PT5105</name></trkpt>
<trkpt lat="52.036670" lon="05.780725"><ele>53.4</ele><time>2022-04-12T15:45:56Z</time><name>PT5106</name></trkpt>
<trkpt lat="52.036669" lon="05.780742"><ele>53.5</ele><time>2022-04-12T15:45:57Z</time><name>PT5107</name></trkpt>
<trkpt lat="52.036670" lon="05.780760"><ele>53.6</ele><time>2022-04-12T15:45:58Z</time><name>PT5108</name></trkpt>
<trkpt lat="52.036670" lon="05.780777"><ele>53.5</ele><time>2022-04-12T15:45:59Z</time><name>PT5109</name></trkpt>
<trkpt lat="52.036671" lon="05.780795"><ele>53.4</ele><time>2022-04-12T15:46:00Z</time><name>PT5110</name></trkpt>
<trkpt lat="52.036672" lon="05.780809"><ele>53.4</ele><time>2022-04-12T15:46:01Z</time><name>PT5111</name></trkpt>
<trkpt lat="52.036671" lon="05.780826"><ele>53.5</ele><time>2022-04-12T15:46:02Z</time><name>PT5112</name></trkpt>
<trkpt lat="52.036668" lon="05.780847"><ele>53.7</ele><time>2022-04-12T15:46:03Z</time><name>PT5113</name></trkpt>
<trkpt lat="52.036666" lon="05.780862"><ele>53.7</ele><time>2022-04-12T15:46:04Z</time><name>PT5114</name></trkpt>
<trkpt lat="52.036666" lon="05.780876"><ele>53.6</ele><time>2022-04-12T15:46:05Z</time><name>PT5115</name></trkpt>
<trkpt lat="52.036668" lon="05.780894"><ele>53.6</ele><time>2022-04-12T15:46:06Z</time><name>PT5116</name></trkpt>
<trkpt lat="52.036668" lon="05.780907"><ele>53.4</ele><time>2022-04-12T15:46:07Z</time><name>PT5117</name></trkpt>
<trkpt lat="52.036669" lon="05.780926"><ele>53.5</ele><time>2022-04-12T15:46:08Z</time><name>PT5118</name></trkpt>
<trkpt lat="52.036669" lon="05.780945"><ele>53.6</ele><time>2022-04-12T15:46:09Z</time><name>PT5119</name></trkpt>
<trkpt lat="52.036668" lon="05.780963"><ele>53.6</ele><time>2022-04-12T15:46:10Z</time><name>PT5120</name></trkpt>
<trkpt lat="52.036669" lon="05.780980"><ele>53.4</ele><time>2022-04-12T15:46:11Z</time><name>PT5121</name></trkpt>
<trkpt lat="52.036669" lon="05.780997"><ele>53.4</ele><time>2022-04-12T15:46:12Z</time><name>PT5122</name></trkpt>
<trkpt lat="52.036668" lon="05.781014"><ele>53.6</ele><time>2022-04-12T15:46:13Z</time><name>PT5123</name></trkpt>
<trkpt lat="52.036665" lon="05.781034"><ele>53.5</ele><time>2022-04-12T15:46:14Z</time><name>PT5124</name></trkpt>
<trkpt lat="52.036663" lon="05.781053"><ele>53.5</ele><time>2022-04-12T15:46:15Z</time><name>PT5125</name></trkpt>
<trkpt lat="52.036663" lon="05.781072"><ele>53.4</ele><time>2022-04-12T15:46:16Z</time><name>PT5126</name></trkpt>
<trkpt lat="52.036663" lon="05.781088"><ele>53.5</ele><time>2022-04-12T15:46:17Z</time><name>PT5127</name></trkpt>
<trkpt lat="52.036664" lon="05.781104"><ele>53.4</ele><time>2022-04-12T15:46:18Z</time><name>PT5128</name></trkpt>
<trkpt lat="52.036663" lon="05.781120"><ele>53.4</ele><time>2022-04-12T15:46:19Z</time><name>PT5129</name></trkpt>
<trkpt lat="52.036662" lon="05.781139"><ele>53.6</ele><time>2022-04-12T15:46:20Z</time><name>PT5130</name></trkpt>
<trkpt lat="52.036662" lon="05.781157"><ele>53.5</ele><time>2022-04-12T15:46:21Z</time><name>PT5131</name></trkpt>
<trkpt lat="52.036664" lon="05.781172"><ele>53.4</ele><time>2022-04-12T15:46:22Z</time><name>PT5132</name></trkpt>
<trkpt lat="52.036666" lon="05.781191"><ele>53.2</ele><time>2022-04-12T15:46:23Z</time><name>PT5133</name></trkpt>
<trkpt lat="52.036668" lon="05.781205"><ele>53.2</ele><time>2022-04-12T15:46:24Z</time><name>PT5134</name></trkpt>
<trkpt lat="52.036668" lon="05.781221"><ele>53.1</ele><time>2022-04-12T15:46:25Z</time><name>PT5135</name></trkpt>
<trkpt lat="52.036668" lon="05.781238"><ele>53.1</ele><time>2022-04-12T15:46:26Z</time><name>PT5136</name></trkpt>
<trkpt lat="52.036668" lon="05.781255"><ele>53.4</ele><time>2022-04-12T15:46:27Z</time><name>PT5137</name></trkpt>
<trkpt lat="52.036669" lon="05.781272"><ele>53.5</ele><time>2022-04-12T15:46:28Z</time><name>PT5138</name></trkpt>
<trkpt lat="52.036669" lon="05.781289"><ele>53.6</ele><time>2022-04-12T15:46:29Z</time><name>PT5139</name></trkpt>
<trkpt lat="52.036668" lon="05.781308"><ele>53.7</ele><time>2022-04-12T15:46:30Z</time><name>PT5140</name></trkpt>
<trkpt lat="52.036667" lon="05.781328"><ele>53.5</ele><time>2022-04-12T15:46:31Z</time><name>PT5141</name></trkpt>
<trkpt lat="52.036668" lon="05.781346"><ele>53.4</ele><time>2022-04-12T15:46:32Z</time><name>PT5142</name></trkpt>
<trkpt lat="52.036669" lon="05.781364"><ele>53.5</ele><time>2022-04-12T15:46:33Z</time><name>PT5143</name></trkpt>
<trkpt lat="52.036671" lon="05.781379"><ele>53.6</ele><time>2022-04-12T15:46:34Z</time><name>PT5144</name></trkpt>
<trkpt lat="52.036668" lon="05.781396"><ele>53.6</ele><time>2022-04-12T15:46:35Z</time><name>PT5145</name></trkpt>
<trkpt lat="52.036662" lon="05.781411"><ele>53.7</ele><time>2022-04-12T15:46:36Z</time><name>PT5146</name></trkpt>
<trkpt lat="52.036661" lon="05.781429"><ele>53.5</ele><time>2022-04-12T15:46:37Z</time><name>PT5147</name></trkpt>
<trkpt lat="52.036664" lon="05.781445"><ele>53.2</ele><time>2022-04-12T15:46:38Z</time><name>PT5148</name></trkpt>
<trkpt lat="52.036663" lon="05.781467"><ele>52.9</ele><time>2022-04-12T15:46:39Z</time><name>PT5149</name></trkpt>
<trkpt lat="52.036664" lon="05.781486"><ele>53</ele><time>2022-04-12T15:46:40Z</time><name>PT5150</name></trkpt>
<trkpt lat="52.036664" lon="05.781502"><ele>53</ele><time>2022-04-12T15:46:41Z</time><name>PT5151</name></trkpt>
<trkpt lat="52.036666" lon="05.781517"><ele>53</ele><time>2022-04-12T15:46:42Z</time><name>PT5152</name></trkpt>
<trkpt lat="52.036666" lon="05.781535"><ele>53</ele><time>2022-04-12T15:46:43Z</time><name>PT5153</name></trkpt>
<trkpt lat="52.036669" lon="05.781554"><ele>53</ele><time>2022-04-12T15:46:44Z</time><name>PT5154</name></trkpt>
<trkpt lat="52.036672" lon="05.781566"><ele>53</ele><time>2022-04-12T15:46:45Z</time><name>PT5155</name></trkpt>
<trkpt lat="52.036671" lon="05.781581"><ele>53</ele><time>2022-04-12T15:46:46Z</time><name>PT5156</name></trkpt>
<trkpt lat="52.036671" lon="05.781601"><ele>53.1</ele><time>2022-04-12T15:46:47Z</time><name>PT5157</name></trkpt>
<trkpt lat="52.036670" lon="05.781621"><ele>53.1</ele><time>2022-04-12T15:46:48Z</time><name>PT5158</name></trkpt>
<trkpt lat="52.036670" lon="05.781637"><ele>52.9</ele><time>2022-04-12T15:46:49Z</time><name>PT5159</name></trkpt>
<trkpt lat="52.036669" lon="05.781652"><ele>53</ele><time>2022-04-12T15:46:50Z</time><name>PT5160</name></trkpt>
<trkpt lat="52.036669" lon="05.781669"><ele>53.1</ele><time>2022-04-12T15:46:51Z</time><name>PT5161</name></trkpt>
<trkpt lat="52.036668" lon="05.781688"><ele>53.2</ele><time>2022-04-12T15:46:52Z</time><name>PT5162</name></trkpt>
<trkpt lat="52.036670" lon="05.781706"><ele>53.3</ele><time>2022-04-12T15:46:53Z</time><name>PT5163</name></trkpt>
<trkpt lat="52.036672" lon="05.781723"><ele>53.3</ele><time>2022-04-12T15:46:54Z</time><name>PT5164</name></trkpt>
<trkpt lat="52.036670" lon="05.781743"><ele>53.2</ele><time>2022-04-12T15:46:55Z</time><name>PT5165</name></trkpt>
<trkpt lat="52.036670" lon="05.781759"><ele>53.2</ele><time>2022-04-12T15:46:56Z</time><name>PT5166</name></trkpt>
<trkpt lat="52.036669" lon="05.781774"><ele>53.2</ele><time>2022-04-12T15:46:57Z</time><name>PT5167</name></trkpt>
<trkpt lat="52.036669" lon="05.781789"><ele>53.2</ele><time>2022-04-12T15:46:58Z</time><name>PT5168</name></trkpt>
<trkpt lat="52.036668" lon="05.781806"><ele>53.2</ele><time>2022-04-12T15:46:59Z</time><name>PT5169</name></trkpt>
<trkpt lat="52.036666" lon="05.781831"><ele>53</ele><time>2022-04-12T15:47:00Z</time><name>PT5170</name></trkpt>
<trkpt lat="52.036667" lon="05.781852"><ele>53</ele><time>2022-04-12T15:47:01Z</time><name>PT5171</name></trkpt>
<trkpt lat="52.036668" lon="05.781870"><ele>52.9</ele><time>2022-04-12T15:47:02Z</time><name>PT5172</name></trkpt>
<trkpt lat="52.036667" lon="05.781888"><ele>53.1</ele><time>2022-04-12T15:47:03Z</time><name>PT5173</name></trkpt>
<trkpt lat="52.036667" lon="05.781905"><ele>53.2</ele><time>2022-04-12T15:47:04Z</time><name>PT5174</name></trkpt>
<trkpt lat="52.036668" lon="05.781923"><ele>53.5</ele><time>2022-04-12T15:47:05Z</time><name>PT5175</name></trkpt>
<trkpt lat="52.036668" lon="05.781943"><ele>53.5</ele><time>2022-04-12T15:47:06Z</time><name>PT5176</name></trkpt>
<trkpt lat="52.036667" lon="05.781961"><ele>53.4</ele><time>2022-04-12T15:47:07Z</time><name>PT5177</name></trkpt>
<trkpt lat="52.036665" lon="05.781977"><ele>53.3</ele><time>2022-04-12T15:47:08Z</time><name>PT5178</name></trkpt>
<trkpt lat="52.036661" lon="05.781992"><ele>53.2</ele><time>2022-04-12T15:47:09Z</time><name>PT5179</name></trkpt>
<trkpt lat="52.036659" lon="05.782009"><ele>53.2</ele><time>2022-04-12T15:47:10Z</time><name>PT5180</name></trkpt>
<trkpt lat="52.036660" lon="05.782025"><ele>53.2</ele><time>2022-04-12T15:47:11Z</time><name>PT5181</name></trkpt>
<trkpt lat="52.036662" lon="05.782047"><ele>53.2</ele><time>2022-04-12T15:47:12Z</time><name>PT5182</name></trkpt>
<trkpt lat="52.036662" lon="05.782060"><ele>53.1</ele><time>2022-04-12T15:47:13Z</time><name>PT5183</name></trkpt>
<trkpt lat="52.036662" lon="05.782077"><ele>53.4</ele><time>2022-04-12T15:47:14Z</time><name>PT5184</name></trkpt>
<trkpt lat="52.036664" lon="05.782087"><ele>53.3</ele><time>2022-04-12T15:47:15Z</time><name>PT5185</name></trkpt>
<trkpt lat="52.036669" lon="05.782104"><ele>53.3</ele><time>2022-04-12T15:47:16Z</time><name>PT5186</name></trkpt>
<trkpt lat="52.036672" lon="05.782119"><ele>53.5</ele><time>2022-04-12T15:47:17Z</time><name>PT5187</name></trkpt>
<trkpt lat="52.036670" lon="05.782135"><ele>53.2</ele><time>2022-04-12T15:47:18Z</time><name>PT5188</name></trkpt>
<trkpt lat="52.036669" lon="05.782152"><ele>53.3</ele><time>2022-04-12T15:47:19Z</time><name>PT5189</name></trkpt>
<trkpt lat="52.036670" lon="05.782166"><ele>53.3</ele><time>2022-04-12T15:47:20Z</time><name>PT5190</name></trkpt>
<trkpt lat="52.036669" lon="05.782182"><ele>53.2</ele><time>2022-04-12T15:47:21Z</time><name>PT5191</name></trkpt>
<trkpt lat="52.036667" lon="05.782198"><ele>53.2</ele><time>2022-04-12T15:47:22Z</time><name>PT5192</name></trkpt>
<trkpt lat="52.036664" lon="05.782217"><ele>53.2</ele><time>2022-04-12T15:47:23Z</time><name>PT5193</name></trkpt>
<trkpt lat="52.036662" lon="05.782236"><ele>53.2</ele><time>2022-04-12T15:47:24Z</time><name>PT5194</name></trkpt>
<trkpt lat="52.036663" lon="05.782253"><ele>53.4</ele><time>2022-04-12T15:47:25Z</time><name>PT5195</name></trkpt>
<trkpt lat="52.036663" lon="05.782269"><ele>53.5</ele><time>2022-04-12T15:47:26Z</time><name>PT5196</name></trkpt>
<trkpt lat="52.036663" lon="05.782287"><ele>53.4</ele><time>2022-04-12T15:47:27Z</time><name>PT5197</name></trkpt>
<trkpt lat="52.036663" lon="05.782302"><ele>53.4</ele><time>2022-04-12T15:47:28Z</time><name>PT5198</name></trkpt>
<trkpt lat="52.036663" lon="05.782318"><ele>53.5</ele><time>2022-04-12T15:47:29Z</time><name>PT5199</name></trkpt>
<trkpt lat="52.036662" lon="05.782333"><ele>53.4</ele><time>2022-04-12T15:47:30Z</time><name>PT5200</name></trkpt>
<trkpt lat="52.036663" lon="05.782349"><ele>53.5</ele><time>2022-04-12T15:47:31Z</time><name>PT5201</name></trkpt>
<trkpt lat="52.036663" lon="05.782366"><ele>53.6</ele><time>2022-04-12T15:47:32Z</time><name>PT5202</name></trkpt>
<trkpt lat="52.036664" lon="05.782383"><ele>53.5</ele><time>2022-04-12T15:47:33Z</time><name>PT5203</name></trkpt>
<trkpt lat="52.036663" lon="05.782397"><ele>53.6</ele><time>2022-04-12T15:47:34Z</time><name>PT5204</name></trkpt>
<trkpt lat="52.036663" lon="05.782413"><ele>53.7</ele><time>2022-04-12T15:47:35Z</time><name>PT5205</name></trkpt>
<trkpt lat="52.036661" lon="05.782430"><ele>53.7</ele><time>2022-04-12T15:47:36Z</time><name>PT5206</name></trkpt>
<trkpt lat="52.036660" lon="05.782448"><ele>53.7</ele><time>2022-04-12T15:47:37Z</time><name>PT5207</name></trkpt>
<trkpt lat="52.036661" lon="05.782463"><ele>53.5</ele><time>2022-04-12T15:47:38Z</time><name>PT5208</name></trkpt>
<trkpt lat="52.036658" lon="05.782481"><ele>53.5</ele><time>2022-04-12T15:47:39Z</time><name>PT5209</name></trkpt>
<trkpt lat="52.036657" lon="05.782499"><ele>53.5</ele><time>2022-04-12T15:47:40Z</time><name>PT5210</name></trkpt>
<trkpt lat="52.036657" lon="05.782515"><ele>53.7</ele><time>2022-04-12T15:47:41Z</time><name>PT5211</name></trkpt>
<trkpt lat="52.036657" lon="05.782533"><ele>53.7</ele><time>2022-04-12T15:47:42Z</time><name>PT5212</name></trkpt>
<trkpt lat="52.036656" lon="05.782549"><ele>53.6</ele><time>2022-04-12T15:47:43Z</time><name>PT5213</name></trkpt>
<trkpt lat="52.036654" lon="05.782570"><ele>53.5</ele><time>2022-04-12T15:47:44Z</time><name>PT5214</name></trkpt>
<trkpt lat="52.036654" lon="05.782583"><ele>53.3</ele><time>2022-04-12T15:47:45Z</time><name>PT5215</name></trkpt>
<trkpt lat="52.036655" lon="05.782601"><ele>53.3</ele><time>2022-04-12T15:47:46Z</time><name>PT5216</name></trkpt>
<trkpt lat="52.036657" lon="05.782618"><ele>53.3</ele><time>2022-04-12T15:47:47Z</time><name>PT5217</name></trkpt>
<trkpt lat="52.036657" lon="05.782634"><ele>53.6</ele><time>2022-04-12T15:47:48Z</time><name>PT5218</name></trkpt>
<trkpt lat="52.036659" lon="05.782646"><ele>53.7</ele><time>2022-04-12T15:47:49Z</time><name>PT5219</name></trkpt>
<trkpt lat="52.036661" lon="05.782658"><ele>53.7</ele><time>2022-04-12T15:47:50Z</time><name>PT5220</name></trkpt>
<trkpt lat="52.036662" lon="05.782675"><ele>53.9</ele><time>2022-04-12T15:47:51Z</time><name>PT5221</name></trkpt>
<trkpt lat="52.036663" lon="05.782690"><ele>53.9</ele><time>2022-04-12T15:47:52Z</time><name>PT5222</name></trkpt>
<trkpt lat="52.036662" lon="05.782709"><ele>53.7</ele><time>2022-04-12T15:47:53Z</time><name>PT5223</name></trkpt>
<trkpt lat="52.036661" lon="05.782728"><ele>53.7</ele><time>2022-04-12T15:47:54Z</time><name>PT5224</name></trkpt>
<trkpt lat="52.036662" lon="05.782744"><ele>53.6</ele><time>2022-04-12T15:47:55Z</time><name>PT5225</name></trkpt>
<trkpt lat="52.036664" lon="05.782759"><ele>53.7</ele><time>2022-04-12T15:47:56Z</time><name>PT5226</name></trkpt>
<trkpt lat="52.036664" lon="05.782772"><ele>53.7</ele><time>2022-04-12T15:47:57Z</time><name>PT5227</name></trkpt>
<trkpt lat="52.036665" lon="05.782787"><ele>53.7</ele><time>2022-04-12T15:47:58Z</time><name>PT5228</name></trkpt>
<trkpt lat="52.036663" lon="05.782806"><ele>53.7</ele><time>2022-04-12T15:47:59Z</time><name>PT5229</name></trkpt>
<trkpt lat="52.036663" lon="05.782822"><ele>53.7</ele><time>2022-04-12T15:48:00Z</time><name>PT5230</name></trkpt>
<trkpt lat="52.036664" lon="05.782838"><ele>53.3</ele><time>2022-04-12T15:48:01Z</time><name>PT5231</name></trkpt>
<trkpt lat="52.036667" lon="05.782856"><ele>53.3</ele><time>2022-04-12T15:48:02Z</time><name>PT5232</name></trkpt>
<trkpt lat="52.036670" lon="05.782874"><ele>53.2</ele><time>2022-04-12T15:48:03Z</time><name>PT5233</name></trkpt>
<trkpt lat="52.036669" lon="05.782894"><ele>53.4</ele><time>2022-04-12T15:48:04Z</time><name>PT5234</name></trkpt>
<trkpt lat="52.036670" lon="05.782911"><ele>53.6</ele><time>2022-04-12T15:48:05Z</time><name>PT5235</name></trkpt>
<trkpt lat="52.036672" lon="05.782926"><ele>53.7</ele><time>2022-04-12T15:48:06Z</time><name>PT5236</name></trkpt>
<trkpt lat="52.036674" lon="05.782945"><ele>53.8</ele><time>2022-04-12T15:48:07Z</time><name>PT5237</name></trkpt>
<trkpt lat="52.036676" lon="05.782961"><ele>53.8</ele><time>2022-04-12T15:48:08Z</time><name>PT5238</name></trkpt>
<trkpt lat="52.036678" lon="05.782975"><ele>53.7</ele><time>2022-04-12T15:48:09Z</time><name>PT5239</name></trkpt>
<trkpt lat="52.036679" lon="05.782994"><ele>53.7</ele><time>2022-04-12T15:48:10Z</time><name>PT5240</name></trkpt>
<trkpt lat="52.036681" lon="05.783003"><ele>53.6</ele><time>2022-04-12T15:48:11Z</time><name>PT5241</name></trkpt>
<trkpt lat="52.036684" lon="05.783017"><ele>53.5</ele><time>2022-04-12T15:48:12Z</time><name>PT5242</name></trkpt>
<trkpt lat="52.036686" lon="05.783034"><ele>53.7</ele><time>2022-04-12T15:48:13Z</time><name>PT5243</name></trkpt>
<trkpt lat="52.036689" lon="05.783051"><ele>53.7</ele><time>2022-04-12T15:48:14Z</time><name>PT5244</name></trkpt>
<trkpt lat="52.036688" lon="05.783067"><ele>53.9</ele><time>2022-04-12T15:48:15Z</time><name>PT5245</name></trkpt>
<trkpt lat="52.036687" lon="05.783084"><ele>53.9</ele><time>2022-04-12T15:48:16Z</time><name>PT5246</name></trkpt>
<trkpt lat="52.036686" lon="05.783102"><ele>53.7</ele><time>2022-04-12T15:48:17Z</time><name>PT5247</name></trkpt>
<trkpt lat="52.036688" lon="05.783121"><ele>53.6</ele><time>2022-04-12T15:48:18Z</time><name>PT5248</name></trkpt>
<trkpt lat="52.036690" lon="05.783137"><ele>53.7</ele><time>2022-04-12T15:48:19Z</time><name>PT5249</name></trkpt>
<trkpt lat="52.036690" lon="05.783155"><ele>53.7</ele><time>2022-04-12T15:48:20Z</time><name>PT5250</name></trkpt>
<trkpt lat="52.036688" lon="05.783172"><ele>53.7</ele><time>2022-04-12T15:48:21Z</time><name>PT5251</name></trkpt>
<trkpt lat="52.036688" lon="05.783187"><ele>53.7</ele><time>2022-04-12T15:48:22Z</time><name>PT5252</name></trkpt>
<trkpt lat="52.036690" lon="05.783202"><ele>53.7</ele><time>2022-04-12T15:48:23Z</time><name>PT5253</name></trkpt>
<trkpt lat="52.036691" lon="05.783221"><ele>53.8</ele><time>2022-04-12T15:48:24Z</time><name>PT5254</name></trkpt>
<trkpt lat="52.036691" lon="05.783239"><ele>53.5</ele><time>2022-04-12T15:48:25Z</time><name>PT5255</name></trkpt>
<trkpt lat="52.036688" lon="05.783257"><ele>53.4</ele><time>2022-04-12T15:48:26Z</time><name>PT5256</name></trkpt>
<trkpt lat="52.036688" lon="05.783272"><ele>53.2</ele><time>2022-04-12T15:48:27Z</time><name>PT5257</name></trkpt>
<trkpt lat="52.036689" lon="05.783289"><ele>53.2</ele><time>2022-04-12T15:48:28Z</time><name>PT5258</name></trkpt>
<trkpt lat="52.036694" lon="05.783306"><ele>53.3</ele><time>2022-04-12T15:48:29Z</time><name>PT5259</name></trkpt>
<trkpt lat="52.036696" lon="05.783322"><ele>53.4</ele><time>2022-04-12T15:48:30Z</time><name>PT5260</name></trkpt>
<trkpt lat="52.036694" lon="05.783338"><ele>53.5</ele><time>2022-04-12T15:48:31Z</time><name>PT5261</name></trkpt>
<trkpt lat="52.036691" lon="05.783356"><ele>53.5</ele><time>2022-04-12T15:48:32Z</time><name>PT5262</name></trkpt>
<trkpt lat="52.036691" lon="05.783369"><ele>53.7</ele><time>2022-04-12T15:48:33Z</time><name>PT5263</name></trkpt>
<trkpt lat="52.036691" lon="05.783384"><ele>53.7</ele><time>2022-04-12T15:48:34Z</time><name>PT5264</name></trkpt>
<trkpt lat="52.036690" lon="05.783400"><ele>53.8</ele><time>2022-04-12T15:48:35Z</time><name>PT5265</name></trkpt>
<trkpt lat="52.036688" lon="05.783414"><ele>53.7</ele><time>2022-04-12T15:48:36Z</time><name>PT5266</name></trkpt>
<trkpt lat="52.036683" lon="05.783433"><ele>53.9</ele><time>2022-04-12T15:48:37Z</time><name>PT5267</name></trkpt>
<trkpt lat="52.036681" lon="05.783450"><ele>53.8</ele><time>2022-04-12T15:48:38Z</time><name>PT5268</name></trkpt>
<trkpt lat="52.036681" lon="05.783464"><ele>53.9</ele><time>2022-04-12T15:48:39Z</time><name>PT5269</name></trkpt>
<trkpt lat="52.036681" lon="05.783482"><ele>53.9</ele><time>2022-04-12T15:48:40Z</time><name>PT5270</name></trkpt>
<trkpt lat="52.036680" lon="05.783496"><ele>53.7</ele><time>2022-04-12T15:48:41Z</time><name>PT5271</name></trkpt>
<trkpt lat="52.036679" lon="05.783512"><ele>53.7</ele><time>2022-04-12T15:48:42Z</time><name>PT5272</name></trkpt>
<trkpt lat="52.036674" lon="05.783531"><ele>53.8</ele><time>2022-04-12T15:48:43Z</time><name>PT5273</name></trkpt>
<trkpt lat="52.036671" lon="05.783549"><ele>53.8</ele><time>2022-04-12T15:48:44Z</time><name>PT5274</name></trkpt>
<trkpt lat="52.036670" lon="05.783557"><ele>53.9</ele><time>2022-04-12T15:48:45Z</time><name>PT5275</name></trkpt>
<trkpt lat="52.036669" lon="05.783561"><ele>54.2</ele><time>2022-04-12T15:48:46Z</time><name>PT5276</name></trkpt>
<trkpt lat="52.036668" lon="05.783567"><ele>54.3</ele><time>2022-04-12T15:48:47Z</time><name>PT5277</name></trkpt>
<trkpt lat="52.036664" lon="05.783578"><ele>54.4</ele><time>2022-04-12T15:48:48Z</time><name>PT5278</name></trkpt>
<trkpt lat="52.036659" lon="05.783589"><ele>54.4</ele><time>2022-04-12T15:48:49Z</time><name>PT5279</name></trkpt>
<trkpt lat="52.036653" lon="05.783603"><ele>54.4</ele><time>2022-04-12T15:48:50Z</time><name>PT5280</name></trkpt>
<trkpt lat="52.036646" lon="05.783614"><ele>54.4</ele><time>2022-04-12T15:48:51Z</time><name>PT5281</name></trkpt>
<trkpt lat="52.036641" lon="05.783624"><ele>54.4</ele><time>2022-04-12T15:48:52Z</time><name>PT5282</name></trkpt>
<trkpt lat="52.036635" lon="05.783637"><ele>54.4</ele><time>2022-04-12T15:48:53Z</time><name>PT5283</name></trkpt>
<trkpt lat="52.036632" lon="05.783642"><ele>54.3</ele><time>2022-04-12T15:48:54Z</time><name>PT5284</name></trkpt>
<trkpt lat="52.036628" lon="05.783646"><ele>54.3</ele><time>2022-04-12T15:48:55Z</time><name>PT5285</name></trkpt>
<trkpt lat="52.036624" lon="05.783661"><ele>54.2</ele><time>2022-04-12T15:48:56Z</time><name>PT5286</name></trkpt>
<trkpt lat="52.036616" lon="05.783677"><ele>54.2</ele><time>2022-04-12T15:48:57Z</time><name>PT5287</name></trkpt>
<trkpt lat="52.036609" lon="05.783696"><ele>54.2</ele><time>2022-04-12T15:48:58Z</time><name>PT5288</name></trkpt>
<trkpt lat="52.036604" lon="05.783719"><ele>54.2</ele><time>2022-04-12T15:48:59Z</time><name>PT5289</name></trkpt>
<trkpt lat="52.036599" lon="05.783736"><ele>54.2</ele><time>2022-04-12T15:49:00Z</time><name>PT5290</name></trkpt>
<trkpt lat="52.036594" lon="05.783747"><ele>54.4</ele><time>2022-04-12T15:49:01Z</time><name>PT5291</name></trkpt>
<trkpt lat="52.036585" lon="05.783759"><ele>54.3</ele><time>2022-04-12T15:49:02Z</time><name>PT5292</name></trkpt>
<trkpt lat="52.036576" lon="05.783774"><ele>54.2</ele><time>2022-04-12T15:49:03Z</time><name>PT5293</name></trkpt>
<trkpt lat="52.036581" lon="05.783778"><ele>54.2</ele><time>2022-04-12T15:49:04Z</time><name>PT5294</name></trkpt>
<trkpt lat="52.036577" lon="05.783789"><ele>54.3</ele><time>2022-04-12T15:49:05Z</time><name>PT5295</name></trkpt>
<trkpt lat="52.036582" lon="05.783793"><ele>54.5</ele><time>2022-04-12T15:49:06Z</time><name>PT5296</name></trkpt>
<trkpt lat="52.036573" lon="05.783808"><ele>54.7</ele><time>2022-04-12T15:49:07Z</time><name>PT5297</name></trkpt>
<trkpt lat="52.036557" lon="05.783831"><ele>54.8</ele><time>2022-04-12T15:49:08Z</time><name>PT5298</name></trkpt>
<trkpt lat="52.036546" lon="05.783837"><ele>54.7</ele><time>2022-04-12T15:49:09Z</time><name>PT5299</name></trkpt>
<trkpt lat="52.036533" lon="05.783843"><ele>54.7</ele><time>2022-04-12T15:49:10Z</time><name>PT5300</name></trkpt>
<trkpt lat="52.036523" lon="05.783851"><ele>54.7</ele><time>2022-04-12T15:49:11Z</time><name>PT5301</name></trkpt>
<trkpt lat="52.036509" lon="05.783860"><ele>54.6</ele><time>2022-04-12T15:49:12Z</time><name>PT5302</name></trkpt>
<trkpt lat="52.036499" lon="05.783871"><ele>54.6</ele><time>2022-04-12T15:49:13Z</time><name>PT5303</name></trkpt>
<trkpt lat="52.036485" lon="05.783880"><ele>54.7</ele><time>2022-04-12T15:49:14Z</time><name>PT5304</name></trkpt>
<trkpt lat="52.036474" lon="05.783876"><ele>54.7</ele><time>2022-04-12T15:49:15Z</time><name>PT5305</name></trkpt>
<trkpt lat="52.036458" lon="05.783882"><ele>54.7</ele><time>2022-04-12T15:49:16Z</time><name>PT5306</name></trkpt>
<trkpt lat="52.036445" lon="05.783889"><ele>54.7</ele><time>2022-04-12T15:49:17Z</time><name>PT5307</name></trkpt>
<trkpt lat="52.036434" lon="05.783899"><ele>54.7</ele><time>2022-04-12T15:49:18Z</time><name>PT5308</name></trkpt>
<trkpt lat="52.036420" lon="05.783910"><ele>54.7</ele><time>2022-04-12T15:49:19Z</time><name>PT5309</name></trkpt>
<trkpt lat="52.036407" lon="05.783922"><ele>54.7</ele><time>2022-04-12T15:49:20Z</time><name>PT5310</name></trkpt>
<trkpt lat="52.036396" lon="05.783924"><ele>54.8</ele><time>2022-04-12T15:49:21Z</time><name>PT5311</name></trkpt>
<trkpt lat="52.036383" lon="05.783928"><ele>54.8</ele><time>2022-04-12T15:49:22Z</time><name>PT5312</name></trkpt>
<trkpt lat="52.036370" lon="05.783932"><ele>54.7</ele><time>2022-04-12T15:49:23Z</time><name>PT5313</name></trkpt>
<trkpt lat="52.036360" lon="05.783935"><ele>54.7</ele><time>2022-04-12T15:49:24Z</time><name>PT5314</name></trkpt>
<trkpt lat="52.036350" lon="05.783942"><ele>54.8</ele><time>2022-04-12T15:49:25Z</time><name>PT5315</name></trkpt>
<trkpt lat="52.036339" lon="05.783946"><ele>54.7</ele><time>2022-04-12T15:49:26Z</time><name>PT5316</name></trkpt>
<trkpt lat="52.036328" lon="05.783950"><ele>54.9</ele><time>2022-04-12T15:49:27Z</time><name>PT5317</name></trkpt>
<trkpt lat="52.036317" lon="05.783951"><ele>54.9</ele><time>2022-04-12T15:49:28Z</time><name>PT5318</name></trkpt>
<trkpt lat="52.036307" lon="05.783949"><ele>54.9</ele><time>2022-04-12T15:49:29Z</time><name>PT5319</name></trkpt>
<trkpt lat="52.036295" lon="05.783951"><ele>55</ele><time>2022-04-12T15:49:30Z</time><name>PT5320</name></trkpt>
<trkpt lat="52.036284" lon="05.783956"><ele>55</ele><time>2022-04-12T15:49:31Z</time><name>PT5321</name></trkpt>
<trkpt lat="52.036279" lon="05.783959"><ele>54.9</ele><time>2022-04-12T15:49:32Z</time><name>PT5322</name></trkpt>
<trkpt lat="52.036273" lon="05.783961"><ele>54.9</ele><time>2022-04-12T15:49:33Z</time><name>PT5323</name></trkpt>
<trkpt lat="52.036264" lon="05.783960"><ele>54.8</ele><time>2022-04-12T15:49:34Z</time><name>PT5324</name></trkpt>
<trkpt lat="52.036253" lon="05.783956"><ele>55</ele><time>2022-04-12T15:49:35Z</time><name>PT5325</name></trkpt>
<trkpt lat="52.036243" lon="05.783965"><ele>54.9</ele><time>2022-04-12T15:49:36Z</time><name>PT5326</name></trkpt>
<trkpt lat="52.036234" lon="05.783968"><ele>54.8</ele><time>2022-04-12T15:49:37Z</time><name>PT5327</name></trkpt>
<trkpt lat="52.036226" lon="05.783967"><ele>54.9</ele><time>2022-04-12T15:49:38Z</time><name>PT5328</name></trkpt>
<trkpt lat="52.036214" lon="05.783972"><ele>54.9</ele><time>2022-04-12T15:49:39Z</time><name>PT5329</name></trkpt>
<trkpt lat="52.036205" lon="05.783972"><ele>54.9</ele><time>2022-04-12T15:49:40Z</time><name>PT5330</name></trkpt>
<trkpt lat="52.036196" lon="05.783977"><ele>54.9</ele><time>2022-04-12T15:49:41Z</time><name>PT5331</name></trkpt>
<trkpt lat="52.036186" lon="05.783981"><ele>55.2</ele><time>2022-04-12T15:49:42Z</time><name>PT5332</name></trkpt>
<trkpt lat="52.036177" lon="05.783984"><ele>55.2</ele><time>2022-04-12T15:49:43Z</time><name>PT5333</name></trkpt>
<trkpt lat="52.036167" lon="05.783986"><ele>55.2</ele><time>2022-04-12T15:49:44Z</time><name>PT5334</name></trkpt>
<trkpt lat="52.036156" lon="05.783988"><ele>55.2</ele><time>2022-04-12T15:49:45Z</time><name>PT5335</name></trkpt>
<trkpt lat="52.036146" lon="05.783993"><ele>55.2</ele><time>2022-04-12T15:49:46Z</time><name>PT5336</name></trkpt>
<trkpt lat="52.036135" lon="05.783994"><ele>54.9</ele><time>2022-04-12T15:49:47Z</time><name>PT5337</name></trkpt>
<trkpt lat="52.036127" lon="05.783995"><ele>54.8</ele><time>2022-04-12T15:49:48Z</time><name>PT5338</name></trkpt>
<trkpt lat="52.036117" lon="05.783999"><ele>54.8</ele><time>2022-04-12T15:49:49Z</time><name>PT5339</name></trkpt>
<trkpt lat="52.036108" lon="05.784000"><ele>54.8</ele><time>2022-04-12T15:49:50Z</time><name>PT5340</name></trkpt>
<trkpt lat="52.036098" lon="05.783993"><ele>54.8</ele><time>2022-04-12T15:49:51Z</time><name>PT5341</name></trkpt>
<trkpt lat="52.036084" lon="05.783991"><ele>54.9</ele><time>2022-04-12T15:49:52Z</time><name>PT5342</name></trkpt>
<trkpt lat="52.036073" lon="05.783990"><ele>55.1</ele><time>2022-04-12T15:49:53Z</time><name>PT5343</name></trkpt>
<trkpt lat="52.036060" lon="05.783994"><ele>55.1</ele><time>2022-04-12T15:49:54Z</time><name>PT5344</name></trkpt>
<trkpt lat="52.036048" lon="05.783999"><ele>55.2</ele><time>2022-04-12T15:49:55Z</time><name>PT5345</name></trkpt>
<trkpt lat="52.036037" lon="05.784004"><ele>55.2</ele><time>2022-04-12T15:49:56Z</time><name>PT5346</name></trkpt>
<trkpt lat="52.036023" lon="05.784007"><ele>55.1</ele><time>2022-04-12T15:49:57Z</time><name>PT5347</name></trkpt>
<trkpt lat="52.036009" lon="05.784012"><ele>54.9</ele><time>2022-04-12T15:49:58Z</time><name>PT5348</name></trkpt>
<trkpt lat="52.035998" lon="05.784014"><ele>54.9</ele><time>2022-04-12T15:49:59Z</time><name>PT5349</name></trkpt>
<trkpt lat="52.035985" lon="05.784016"><ele>54.9</ele><time>2022-04-12T15:50:00Z</time><name>PT5350</name></trkpt>
<trkpt lat="52.035974" lon="05.784021"><ele>54.8</ele><time>2022-04-12T15:50:01Z</time><name>PT5351</name></trkpt>
<trkpt lat="52.035963" lon="05.784025"><ele>54.9</ele><time>2022-04-12T15:50:02Z</time><name>PT5352</name></trkpt>
<trkpt lat="52.035950" lon="05.784028"><ele>54.9</ele><time>2022-04-12T15:50:03Z</time><name>PT5353</name></trkpt>
<trkpt lat="52.035939" lon="05.784024"><ele>54.7</ele><time>2022-04-12T15:50:04Z</time><name>PT5354</name></trkpt>
<trkpt lat="52.035926" lon="05.784025"><ele>54.7</ele><time>2022-04-12T15:50:05Z</time><name>PT5355</name></trkpt>
<trkpt lat="52.035914" lon="05.784029"><ele>54.7</ele><time>2022-04-12T15:50:06Z</time><name>PT5356</name></trkpt>
<trkpt lat="52.035899" lon="05.784033"><ele>54.9</ele><time>2022-04-12T15:50:07Z</time><name>PT5357</name></trkpt>
<trkpt lat="52.035890" lon="05.784041"><ele>54.8</ele><time>2022-04-12T15:50:08Z</time><name>PT5358</name></trkpt>
<trkpt lat="52.035882" lon="05.784041"><ele>55</ele><time>2022-04-12T15:50:09Z</time><name>PT5359</name></trkpt>
<trkpt lat="52.035873" lon="05.784042"><ele>55</ele><time>2022-04-12T15:50:10Z</time><name>PT5360</name></trkpt>
<trkpt lat="52.035864" lon="05.784040"><ele>54.9</ele><time>2022-04-12T15:50:11Z</time><name>PT5361</name></trkpt>
<trkpt lat="52.035854" lon="05.784043"><ele>54.9</ele><time>2022-04-12T15:50:12Z</time><name>PT5362</name></trkpt>
<trkpt lat="52.035844" lon="05.784047"><ele>54.8</ele><time>2022-04-12T15:50:13Z</time><name>PT5363</name></trkpt>
<trkpt lat="52.035835" lon="05.784050"><ele>54.8</ele><time>2022-04-12T15:50:14Z</time><name>PT5364</name></trkpt>
<trkpt lat="52.035823" lon="05.784050"><ele>54.7</ele><time>2022-04-12T15:50:15Z</time><name>PT5365</name></trkpt>
<trkpt lat="52.035810" lon="05.784051"><ele>54.7</ele><time>2022-04-12T15:50:16Z</time><name>PT5366</name></trkpt>
<trkpt lat="52.035802" lon="05.784049"><ele>54.8</ele><time>2022-04-12T15:50:17Z</time><name>PT5367</name></trkpt>
<trkpt lat="52.035790" lon="05.784053"><ele>54.8</ele><time>2022-04-12T15:50:18Z</time><name>PT5368</name></trkpt>
<trkpt lat="52.035781" lon="05.784059"><ele>54.7</ele><time>2022-04-12T15:50:19Z</time><name>PT5369</name></trkpt>
<trkpt lat="52.035772" lon="05.784067"><ele>54.7</ele><time>2022-04-12T15:50:20Z</time><name>PT5370</name></trkpt>
<trkpt lat="52.035764" lon="05.784071"><ele>54.7</ele><time>2022-04-12T15:50:21Z</time><name>PT5371</name></trkpt>
<trkpt lat="52.035756" lon="05.784072"><ele>54.7</ele><time>2022-04-12T15:50:22Z</time><name>PT5372</name></trkpt>
<trkpt lat="52.035751" lon="05.784070"><ele>54.7</ele><time>2022-04-12T15:50:23Z</time><name>PT5373</name></trkpt>
<trkpt lat="52.035745" lon="05.784073"><ele>54.7</ele><time>2022-04-12T15:50:24Z</time><name>PT5374</name></trkpt>
<trkpt lat="52.035740" lon="05.784074"><ele>54.7</ele><time>2022-04-12T15:50:25Z</time><name>PT5375</name></trkpt>
<trkpt lat="52.035733" lon="05.784077"><ele>54.7</ele><time>2022-04-12T15:50:26Z</time><name>PT5376</name></trkpt>
<trkpt lat="52.035725" lon="05.784083"><ele>54.7</ele><time>2022-04-12T15:50:27Z</time><name>PT5377</name></trkpt>
<trkpt lat="52.035719" lon="05.784086"><ele>54.8</ele><time>2022-04-12T15:50:28Z</time><name>PT5378</name></trkpt>
<trkpt lat="52.035712" lon="05.784085"><ele>55</ele><time>2022-04-12T15:50:29Z</time><name>PT5379</name></trkpt>
<trkpt lat="52.035705" lon="05.784085"><ele>55</ele><time>2022-04-12T15:50:30Z</time><name>PT5380</name></trkpt>
<trkpt lat="52.035699" lon="05.784089"><ele>55</ele><time>2022-04-12T15:50:31Z</time><name>PT5381</name></trkpt>
<trkpt lat="52.035693" lon="05.784095"><ele>55.1</ele><time>2022-04-12T15:50:32Z</time><name>PT5382</name></trkpt>
<trkpt lat="52.035678" lon="05.784101"><ele>55</ele><time>2022-04-12T15:50:33Z</time><name>PT5383</name></trkpt>
<trkpt lat="52.035670" lon="05.784106"><ele>55</ele><time>2022-04-12T15:50:34Z</time><name>PT5384</name></trkpt>
<trkpt lat="52.035661" lon="05.784108"><ele>55.1</ele><time>2022-04-12T15:50:35Z</time><name>PT5385</name></trkpt>
<trkpt lat="52.035643" lon="05.784114"><ele>55.2</ele><time>2022-04-12T15:50:36Z</time><name>PT5386</name></trkpt>
<trkpt lat="52.035627" lon="05.784116"><ele>55.2</ele><time>2022-04-12T15:50:37Z</time><name>PT5387</name></trkpt>
<trkpt lat="52.035614" lon="05.784118"><ele>55.3</ele><time>2022-04-12T15:50:38Z</time><name>PT5388</name></trkpt>
<trkpt lat="52.035598" lon="05.784118"><ele>55.2</ele><time>2022-04-12T15:50:39Z</time><name>PT5389</name></trkpt>
<trkpt lat="52.035584" lon="05.784122"><ele>55.3</ele><time>2022-04-12T15:50:40Z</time><name>PT5390</name></trkpt>
<trkpt lat="52.035573" lon="05.784126"><ele>55.2</ele><time>2022-04-12T15:50:41Z</time><name>PT5391</name></trkpt>
<trkpt lat="52.035563" lon="05.784133"><ele>55.2</ele><time>2022-04-12T15:50:42Z</time><name>PT5392</name></trkpt>
<trkpt lat="52.035553" lon="05.784137"><ele>55.2</ele><time>2022-04-12T15:50:43Z</time><name>PT5393</name></trkpt>
<trkpt lat="52.035540" lon="05.784133"><ele>55.1</ele><time>2022-04-12T15:50:44Z</time><name>PT5394</name></trkpt>
<trkpt lat="52.035526" lon="05.784129"><ele>55</ele><time>2022-04-12T15:50:45Z</time><name>PT5395</name></trkpt>
<trkpt lat="52.035515" lon="05.784127"><ele>54.9</ele><time>2022-04-12T15:50:46Z</time><name>PT5396</name></trkpt>
<trkpt lat="52.035502" lon="05.784128"><ele>55</ele><time>2022-04-12T15:50:47Z</time><name>PT5397</name></trkpt>
<trkpt lat="52.035490" lon="05.784131"><ele>55</ele><time>2022-04-12T15:50:48Z</time><name>PT5398</name></trkpt>
<trkpt lat="52.035476" lon="05.784141"><ele>55</ele><time>2022-04-12T15:50:49Z</time><name>PT5399</name></trkpt>
<trkpt lat="52.035464" lon="05.784148"><ele>54.9</ele><time>2022-04-12T15:50:50Z</time><name>PT5400</name></trkpt>
<trkpt lat="52.035453" lon="05.784151"><ele>54.8</ele><time>2022-04-12T15:50:51Z</time><name>PT5401</name></trkpt>
<trkpt lat="52.035440" lon="05.784154"><ele>54.8</ele><time>2022-04-12T15:50:52Z</time><name>PT5402</name></trkpt>
<trkpt lat="52.035428" lon="05.784156"><ele>54.7</ele><time>2022-04-12T15:50:53Z</time><name>PT5403</name></trkpt>
<trkpt lat="52.035417" lon="05.784159"><ele>54.7</ele><time>2022-04-12T15:50:54Z</time><name>PT5404</name></trkpt>
<trkpt lat="52.035408" lon="05.784157"><ele>54.8</ele><time>2022-04-12T15:50:55Z</time><name>PT5405</name></trkpt>
<trkpt lat="52.035398" lon="05.784156"><ele>54.7</ele><time>2022-04-12T15:50:56Z</time><name>PT5406</name></trkpt>
<trkpt lat="52.035388" lon="05.784152"><ele>54.7</ele><time>2022-04-12T15:50:57Z</time><name>PT5407</name></trkpt>
<trkpt lat="52.035374" lon="05.784156"><ele>54.7</ele><time>2022-04-12T15:50:58Z</time><name>PT5408</name></trkpt>
<trkpt lat="52.035364" lon="05.784158"><ele>54.6</ele><time>2022-04-12T15:50:59Z</time><name>PT5409</name></trkpt>
<trkpt lat="52.035352" lon="05.784165"><ele>54.7</ele><time>2022-04-12T15:51:00Z</time><name>PT5410</name></trkpt>
<trkpt lat="52.035342" lon="05.784166"><ele>54.7</ele><time>2022-04-12T15:51:01Z</time><name>PT5411</name></trkpt>
<trkpt lat="52.035330" lon="05.784168"><ele>54.7</ele><time>2022-04-12T15:51:02Z</time><name>PT5412</name></trkpt>
<trkpt lat="52.035320" lon="05.784170"><ele>54.8</ele><time>2022-04-12T15:51:03Z</time><name>PT5413</name></trkpt>
<trkpt lat="52.035310" lon="05.784174"><ele>54.9</ele><time>2022-04-12T15:51:04Z</time><name>PT5414</name></trkpt>
<trkpt lat="52.035300" lon="05.784178"><ele>54.8</ele><time>2022-04-12T15:51:05Z</time><name>PT5415</name></trkpt>
<trkpt lat="52.035287" lon="05.784183"><ele>54.8</ele><time>2022-04-12T15:51:06Z</time><name>PT5416</name></trkpt>
<trkpt lat="52.035276" lon="05.784191"><ele>54.9</ele><time>2022-04-12T15:51:07Z</time><name>PT5417</name></trkpt>
<trkpt lat="52.035266" lon="05.784195"><ele>55</ele><time>2022-04-12T15:51:08Z</time><name>PT5418</name></trkpt>
<trkpt lat="52.035255" lon="05.784199"><ele>55.2</ele><time>2022-04-12T15:51:09Z</time><name>PT5419</name></trkpt>
<trkpt lat="52.035244" lon="05.784204"><ele>55.2</ele><time>2022-04-12T15:51:10Z</time><name>PT5420</name></trkpt>
<trkpt lat="52.035236" lon="05.784211"><ele>55.2</ele><time>2022-04-12T15:51:11Z</time><name>PT5421</name></trkpt>
<trkpt lat="52.035226" lon="05.784218"><ele>55.2</ele><time>2022-04-12T15:51:12Z</time><name>PT5422</name></trkpt>
<trkpt lat="52.035215" lon="05.784220"><ele>55.2</ele><time>2022-04-12T15:51:13Z</time><name>PT5423</name></trkpt>
<trkpt lat="52.035205" lon="05.784217"><ele>54.8</ele><time>2022-04-12T15:51:14Z</time><name>PT5424</name></trkpt>
<trkpt lat="52.035193" lon="05.784217"><ele>54.8</ele><time>2022-04-12T15:51:15Z</time><name>PT5425</name></trkpt>
<trkpt lat="52.035181" lon="05.784217"><ele>54.7</ele><time>2022-04-12T15:51:16Z</time><name>PT5426</name></trkpt>
<trkpt lat="52.035169" lon="05.784222"><ele>54.5</ele><time>2022-04-12T15:51:17Z</time><name>PT5427</name></trkpt>
<trkpt lat="52.035159" lon="05.784228"><ele>54.4</ele><time>2022-04-12T15:51:18Z</time><name>PT5428</name></trkpt>
<trkpt lat="52.035149" lon="05.784229"><ele>54.6</ele><time>2022-04-12T15:51:19Z</time><name>PT5429</name></trkpt>
<trkpt lat="52.035138" lon="05.784230"><ele>54.7</ele><time>2022-04-12T15:51:20Z</time><name>PT5430</name></trkpt>
<trkpt lat="52.035129" lon="05.784231"><ele>54.7</ele><time>2022-04-12T15:51:21Z</time><name>PT5431</name></trkpt>
<trkpt lat="52.035120" lon="05.784229"><ele>54.8</ele><time>2022-04-12T15:51:22Z</time><name>PT5432</name></trkpt>
<trkpt lat="52.035111" lon="05.784231"><ele>54.8</ele><time>2022-04-12T15:51:23Z</time><name>PT5433</name></trkpt>
<trkpt lat="52.035102" lon="05.784234"><ele>54.7</ele><time>2022-04-12T15:51:24Z</time><name>PT5434</name></trkpt>
<trkpt lat="52.035093" lon="05.784238"><ele>38.8</ele><time>2022-04-12T15:51:25Z</time><name>PT5435</name></trkpt>
<trkpt lat="52.035083" lon="05.784241"><ele>38.6</ele><time>2022-04-12T15:51:26Z</time><name>PT5436</name></trkpt>
<trkpt lat="52.035072" lon="05.784245"><ele>38.7</ele><time>2022-04-12T15:51:27Z</time><name>PT5437</name></trkpt>
<trkpt lat="52.035061" lon="05.784248"><ele>38.7</ele><time>2022-04-12T15:51:28Z</time><name>PT5438</name></trkpt>
<trkpt lat="52.035049" lon="05.784252"><ele>38.5</ele><time>2022-04-12T15:51:29Z</time><name>PT5439</name></trkpt>
<trkpt lat="52.035038" lon="05.784255"><ele>38.5</ele><time>2022-04-12T15:51:30Z</time><name>PT5440</name></trkpt>
<trkpt lat="52.035026" lon="05.784258"><ele>38.5</ele><time>2022-04-12T15:51:31Z</time><name>PT5441</name></trkpt>
<trkpt lat="52.035012" lon="05.784263"><ele>38.5</ele><time>2022-04-12T15:51:32Z</time><name>PT5442</name></trkpt>
<trkpt lat="52.035001" lon="05.784265"><ele>38.5</ele><time>2022-04-12T15:51:33Z</time><name>PT5443</name></trkpt>
<trkpt lat="52.034989" lon="05.784270"><ele>38.6</ele><time>2022-04-12T15:51:34Z</time><name>PT5444</name></trkpt>
<trkpt lat="52.034977" lon="05.784274"><ele>38.9</ele><time>2022-04-12T15:51:35Z</time><name>PT5445</name></trkpt>
<trkpt lat="52.034965" lon="05.784275"><ele>38.9</ele><time>2022-04-12T15:51:36Z</time><name>PT5446</name></trkpt>
<trkpt lat="52.034955" lon="05.784277"><ele>39</ele><time>2022-04-12T15:51:37Z</time><name>PT5447</name></trkpt>
<trkpt lat="52.034944" lon="05.784280"><ele>38.8</ele><time>2022-04-12T15:51:38Z</time><name>PT5448</name></trkpt>
<trkpt lat="52.034933" lon="05.784284"><ele>38.9</ele><time>2022-04-12T15:51:39Z</time><name>PT5449</name></trkpt>
<trkpt lat="52.034922" lon="05.784287"><ele>38.9</ele><time>2022-04-12T15:51:40Z</time><name>PT5450</name></trkpt>
<trkpt lat="52.034912" lon="05.784292"><ele>39.1</ele><time>2022-04-12T15:51:41Z</time><name>PT5451</name></trkpt>
<trkpt lat="52.034902" lon="05.784297"><ele>39.1</ele><time>2022-04-12T15:51:42Z</time><name>PT5452</name></trkpt>
<trkpt lat="52.034892" lon="05.784302"><ele>39.4</ele><time>2022-04-12T15:51:43Z</time><name>PT5453</name></trkpt>
<trkpt lat="52.034882" lon="05.784304"><ele>39.3</ele><time>2022-04-12T15:51:44Z</time><name>PT5454</name></trkpt>
<trkpt lat="52.034871" lon="05.784306"><ele>39.4</ele><time>2022-04-12T15:51:45Z</time><name>PT5455</name></trkpt>
<trkpt lat="52.034860" lon="05.784310"><ele>39.3</ele><time>2022-04-12T15:51:46Z</time><name>PT5456</name></trkpt>
<trkpt lat="52.034850" lon="05.784314"><ele>39.4</ele><time>2022-04-12T15:51:47Z</time><name>PT5457</name></trkpt>
<trkpt lat="52.034840" lon="05.784315"><ele>39.4</ele><time>2022-04-12T15:51:48Z</time><name>PT5458</name></trkpt>
<trkpt lat="52.034829" lon="05.784316"><ele>39.1</ele><time>2022-04-12T15:51:49Z</time><name>PT5459</name></trkpt>
<trkpt lat="52.034818" lon="05.784318"><ele>39</ele><time>2022-04-12T15:51:50Z</time><name>PT5460</name></trkpt>
<trkpt lat="52.034809" lon="05.784323"><ele>38.8</ele><time>2022-04-12T15:51:51Z</time><name>PT5461</name></trkpt>
<trkpt lat="52.034798" lon="05.784327"><ele>38.8</ele><time>2022-04-12T15:51:52Z</time><name>PT5462</name></trkpt>
<trkpt lat="52.034784" lon="05.784332"><ele>38.7</ele><time>2022-04-12T15:51:53Z</time><name>PT5463</name></trkpt>
<trkpt lat="52.034773" lon="05.784334"><ele>38.7</ele><time>2022-04-12T15:51:54Z</time><name>PT5464</name></trkpt>
<trkpt lat="52.034760" lon="05.784334"><ele>39</ele><time>2022-04-12T15:51:55Z</time><name>PT5465</name></trkpt>
<trkpt lat="52.034749" lon="05.784335"><ele>39.1</ele><time>2022-04-12T15:51:56Z</time><name>PT5466</name></trkpt>
<trkpt lat="52.034738" lon="05.784340"><ele>39.1</ele><time>2022-04-12T15:51:57Z</time><name>PT5467</name></trkpt>
<trkpt lat="52.034728" lon="05.784345"><ele>39.2</ele><time>2022-04-12T15:51:58Z</time><name>PT5468</name></trkpt>
<trkpt lat="52.034717" lon="05.784347"><ele>39.3</ele><time>2022-04-12T15:51:59Z</time><name>PT5469</name></trkpt>
<trkpt lat="52.034707" lon="05.784349"><ele>39.3</ele><time>2022-04-12T15:52:00Z</time><name>PT5470</name></trkpt>
<trkpt lat="52.034697" lon="05.784350"><ele>39.3</ele><time>2022-04-12T15:52:01Z</time><name>PT5471</name></trkpt>
<trkpt lat="52.034687" lon="05.784355"><ele>39.3</ele><time>2022-04-12T15:52:02Z</time><name>PT5472</name></trkpt>
<trkpt lat="52.034677" lon="05.784356"><ele>39.3</ele><time>2022-04-12T15:52:03Z</time><name>PT5473</name></trkpt>
<trkpt lat="52.034665" lon="05.784356"><ele>39.3</ele><time>2022-04-12T15:52:04Z</time><name>PT5474</name></trkpt>
<trkpt lat="52.034653" lon="05.784359"><ele>39.3</ele><time>2022-04-12T15:52:05Z</time><name>PT5475</name></trkpt>
<trkpt lat="52.034643" lon="05.784363"><ele>39.3</ele><time>2022-04-12T15:52:06Z</time><name>PT5476</name></trkpt>
<trkpt lat="52.034632" lon="05.784371"><ele>39.2</ele><time>2022-04-12T15:52:07Z</time><name>PT5477</name></trkpt>
<trkpt lat="52.034622" lon="05.784373"><ele>39.2</ele><time>2022-04-12T15:52:08Z</time><name>PT5478</name></trkpt>
<trkpt lat="52.034611" lon="05.784374"><ele>39</ele><time>2022-04-12T15:52:09Z</time><name>PT5479</name></trkpt>
<trkpt lat="52.034601" lon="05.784373"><ele>38.9</ele><time>2022-04-12T15:52:10Z</time><name>PT5480</name></trkpt>
<trkpt lat="52.034591" lon="05.784376"><ele>38.7</ele><time>2022-04-12T15:52:11Z</time><name>PT5481</name></trkpt>
<trkpt lat="52.034578" lon="05.784378"><ele>38.7</ele><time>2022-04-12T15:52:12Z</time><name>PT5482</name></trkpt>
<trkpt lat="52.034567" lon="05.784382"><ele>38.6</ele><time>2022-04-12T15:52:13Z</time><name>PT5483</name></trkpt>
<trkpt lat="52.034556" lon="05.784382"><ele>38.6</ele><time>2022-04-12T15:52:14Z</time><name>PT5484</name></trkpt>
<trkpt lat="52.034545" lon="05.784383"><ele>38.8</ele><time>2022-04-12T15:52:15Z</time><name>PT5485</name></trkpt>
<trkpt lat="52.034536" lon="05.784384"><ele>39</ele><time>2022-04-12T15:52:16Z</time><name>PT5486</name></trkpt>
<trkpt lat="52.034523" lon="05.784384"><ele>39.1</ele><time>2022-04-12T15:52:17Z</time><name>PT5487</name></trkpt>
<trkpt lat="52.034511" lon="05.784387"><ele>39.3</ele><time>2022-04-12T15:52:18Z</time><name>PT5488</name></trkpt>
<trkpt lat="52.034501" lon="05.784389"><ele>39.2</ele><time>2022-04-12T15:52:19Z</time><name>PT5489</name></trkpt>
<trkpt lat="52.034489" lon="05.784392"><ele>39.4</ele><time>2022-04-12T15:52:20Z</time><name>PT5490</name></trkpt>
<trkpt lat="52.034478" lon="05.784393"><ele>39.2</ele><time>2022-04-12T15:52:21Z</time><name>PT5491</name></trkpt>
<trkpt lat="52.034469" lon="05.784395"><ele>39.1</ele><time>2022-04-12T15:52:22Z</time><name>PT5492</name></trkpt>
<trkpt lat="52.034457" lon="05.784397"><ele>39.2</ele><time>2022-04-12T15:52:23Z</time><name>PT5493</name></trkpt>
<trkpt lat="52.034448" lon="05.784402"><ele>39.2</ele><time>2022-04-12T15:52:24Z</time><name>PT5494</name></trkpt>
<trkpt lat="52.034438" lon="05.784405"><ele>39.2</ele><time>2022-04-12T15:52:25Z</time><name>PT5495</name></trkpt>
<trkpt lat="52.034427" lon="05.784407"><ele>39.2</ele><time>2022-04-12T15:52:26Z</time><name>PT5496</name></trkpt>
<trkpt lat="52.034418" lon="05.784408"><ele>39.3</ele><time>2022-04-12T15:52:27Z</time><name>PT5497</name></trkpt>
<trkpt lat="52.034405" lon="05.784410"><ele>39.4</ele><time>2022-04-12T15:52:28Z</time><name>PT5498</name></trkpt>
<trkpt lat="52.034393" lon="05.784417"><ele>39.5</ele><time>2022-04-12T15:52:29Z</time><name>PT5499</name></trkpt>
<trkpt lat="52.034382" lon="05.784423"><ele>39.6</ele><time>2022-04-12T15:52:30Z</time><name>PT5500</name></trkpt>
<trkpt lat="52.034370" lon="05.784426"><ele>39.5</ele><time>2022-04-12T15:52:31Z</time><name>PT5501</name></trkpt>
<trkpt lat="52.034359" lon="05.784429"><ele>39.5</ele><time>2022-04-12T15:52:32Z</time><name>PT5502</name></trkpt>
<trkpt lat="52.034349" lon="05.784431"><ele>39.4</ele><time>2022-04-12T15:52:33Z</time><name>PT5503</name></trkpt>
<trkpt lat="52.034338" lon="05.784434"><ele>39.3</ele><time>2022-04-12T15:52:34Z</time><name>PT5504</name></trkpt>
<trkpt lat="52.034328" lon="05.784439"><ele>39.2</ele><time>2022-04-12T15:52:35Z</time><name>PT5505</name></trkpt>
<trkpt lat="52.034319" lon="05.784443"><ele>39.2</ele><time>2022-04-12T15:52:36Z</time><name>PT5506</name></trkpt>
<trkpt lat="52.034308" lon="05.784443"><ele>39.2</ele><time>2022-04-12T15:52:37Z</time><name>PT5507</name></trkpt>
<trkpt lat="52.034297" lon="05.784443"><ele>39.3</ele><time>2022-04-12T15:52:38Z</time><name>PT5508</name></trkpt>
<trkpt lat="52.034287" lon="05.784446"><ele>39.3</ele><time>2022-04-12T15:52:39Z</time><name>PT5509</name></trkpt>
<trkpt lat="52.034274" lon="05.784449"><ele>39.2</ele><time>2022-04-12T15:52:40Z</time><name>PT5510</name></trkpt>
<trkpt lat="52.034264" lon="05.784453"><ele>39.3</ele><time>2022-04-12T15:52:41Z</time><name>PT5511</name></trkpt>
<trkpt lat="52.034253" lon="05.784459"><ele>39.3</ele><time>2022-04-12T15:52:42Z</time><name>PT5512</name></trkpt>
<trkpt lat="52.034243" lon="05.784462"><ele>39.1</ele><time>2022-04-12T15:52:43Z</time><name>PT5513</name></trkpt>
<trkpt lat="52.034229" lon="05.784460"><ele>39.1</ele><time>2022-04-12T15:52:44Z</time><name>PT5514</name></trkpt>
<trkpt lat="52.034218" lon="05.784463"><ele>39.1</ele><time>2022-04-12T15:52:45Z</time><name>PT5515</name></trkpt>
<trkpt lat="52.034211" lon="05.784467"><ele>39.1</ele><time>2022-04-12T15:52:46Z</time><name>PT5516</name></trkpt>
<trkpt lat="52.034204" lon="05.784472"><ele>39.1</ele><time>2022-04-12T15:52:47Z</time><name>PT5517</name></trkpt>
<trkpt lat="52.034194" lon="05.784474"><ele>39.1</ele><time>2022-04-12T15:52:48Z</time><name>PT5518</name></trkpt>
<trkpt lat="52.034183" lon="05.784476"><ele>39.1</ele><time>2022-04-12T15:52:49Z</time><name>PT5519</name></trkpt>
<trkpt lat="52.034171" lon="05.784477"><ele>39.1</ele><time>2022-04-12T15:52:50Z</time><name>PT5520</name></trkpt>
<trkpt lat="52.034160" lon="05.784477"><ele>39.2</ele><time>2022-04-12T15:52:51Z</time><name>PT5521</name></trkpt>
<trkpt lat="52.034151" lon="05.784478"><ele>39.2</ele><time>2022-04-12T15:52:52Z</time><name>PT5522</name></trkpt>
<trkpt lat="52.034138" lon="05.784478"><ele>39.3</ele><time>2022-04-12T15:52:53Z</time><name>PT5523</name></trkpt>
<trkpt lat="52.034124" lon="05.784474"><ele>39.2</ele><time>2022-04-12T15:52:54Z</time><name>PT5524</name></trkpt>
<trkpt lat="52.034116" lon="05.784478"><ele>39.3</ele><time>2022-04-12T15:52:55Z</time><name>PT5525</name></trkpt>
<trkpt lat="52.034108" lon="05.784483"><ele>39.1</ele><time>2022-04-12T15:52:56Z</time><name>PT5526</name></trkpt>
<trkpt lat="52.034099" lon="05.784490"><ele>39</ele><time>2022-04-12T15:52:57Z</time><name>PT5527</name></trkpt>
<trkpt lat="52.034089" lon="05.784492"><ele>39</ele><time>2022-04-12T15:52:58Z</time><name>PT5528</name></trkpt>
<trkpt lat="52.034079" lon="05.784494"><ele>39</ele><time>2022-04-12T15:52:59Z</time><name>PT5529</name></trkpt>
<trkpt lat="52.034067" lon="05.784496"><ele>39</ele><time>2022-04-12T15:53:00Z</time><name>PT5530</name></trkpt>
<trkpt lat="52.034057" lon="05.784496"><ele>38.9</ele><time>2022-04-12T15:53:01Z</time><name>PT5531</name></trkpt>
<trkpt lat="52.034047" lon="05.784499"><ele>38.9</ele><time>2022-04-12T15:53:02Z</time><name>PT5532</name></trkpt>
<trkpt lat="52.034034" lon="05.784503"><ele>39</ele><time>2022-04-12T15:53:03Z</time><name>PT5533</name></trkpt>
<trkpt lat="52.034024" lon="05.784504"><ele>39</ele><time>2022-04-12T15:53:04Z</time><name>PT5534</name></trkpt>
<trkpt lat="52.034011" lon="05.784506"><ele>39.1</ele><time>2022-04-12T15:53:05Z</time><name>PT5535</name></trkpt>
<trkpt lat="52.033998" lon="05.784506"><ele>39.3</ele><time>2022-04-12T15:53:06Z</time><name>PT5536</name></trkpt>
<trkpt lat="52.033987" lon="05.784507"><ele>39.5</ele><time>2022-04-12T15:53:07Z</time><name>PT5537</name></trkpt>
<trkpt lat="52.033976" lon="05.784507"><ele>39.4</ele><time>2022-04-12T15:53:08Z</time><name>PT5538</name></trkpt>
<trkpt lat="52.033966" lon="05.784512"><ele>39.5</ele><time>2022-04-12T15:53:09Z</time><name>PT5539</name></trkpt>
<trkpt lat="52.033954" lon="05.784515"><ele>39.5</ele><time>2022-04-12T15:53:10Z</time><name>PT5540</name></trkpt>
<trkpt lat="52.033942" lon="05.784516"><ele>39.4</ele><time>2022-04-12T15:53:11Z</time><name>PT5541</name></trkpt>
<trkpt lat="52.033932" lon="05.784517"><ele>39.4</ele><time>2022-04-12T15:53:12Z</time><name>PT5542</name></trkpt>
<trkpt lat="52.033920" lon="05.784520"><ele>39.4</ele><time>2022-04-12T15:53:13Z</time><name>PT5543</name></trkpt>
<trkpt lat="52.033908" lon="05.784525"><ele>39.4</ele><time>2022-04-12T15:53:14Z</time><name>PT5544</name></trkpt>
<trkpt lat="52.033899" lon="05.784534"><ele>39.4</ele><time>2022-04-12T15:53:15Z</time><name>PT5545</name></trkpt>
<trkpt lat="52.033890" lon="05.784539"><ele>39.5</ele><time>2022-04-12T15:53:16Z</time><name>PT5546</name></trkpt>
<trkpt lat="52.033881" lon="05.784536"><ele>39.5</ele><time>2022-04-12T15:53:17Z</time><name>PT5547</name></trkpt>
<trkpt lat="52.033871" lon="05.784537"><ele>39.5</ele><time>2022-04-12T15:53:18Z</time><name>PT5548</name></trkpt>
<trkpt lat="52.033856" lon="05.784537"><ele>39.5</ele><time>2022-04-12T15:53:19Z</time><name>PT5549</name></trkpt>
<trkpt lat="52.033842" lon="05.784533"><ele>39.5</ele><time>2022-04-12T15:53:20Z</time><name>PT5550</name></trkpt>
<trkpt lat="52.033828" lon="05.784535"><ele>39.5</ele><time>2022-04-12T15:53:21Z</time><name>PT5551</name></trkpt>
<trkpt lat="52.033814" lon="05.784539"><ele>39.5</ele><time>2022-04-12T15:53:22Z</time><name>PT5552</name></trkpt>
<trkpt lat="52.033800" lon="05.784539"><ele>39.5</ele><time>2022-04-12T15:53:23Z</time><name>PT5553</name></trkpt>
<trkpt lat="52.033786" lon="05.784540"><ele>39.5</ele><time>2022-04-12T15:53:24Z</time><name>PT5554</name></trkpt>
<trkpt lat="52.033775" lon="05.784543"><ele>39.4</ele><time>2022-04-12T15:53:25Z</time><name>PT5555</name></trkpt>
<trkpt lat="52.033764" lon="05.784550"><ele>39.5</ele><time>2022-04-12T15:53:26Z</time><name>PT5556</name></trkpt>
<trkpt lat="52.033752" lon="05.784552"><ele>39.7</ele><time>2022-04-12T15:53:27Z</time><name>PT5557</name></trkpt>
<trkpt lat="52.033741" lon="05.784555"><ele>39.6</ele><time>2022-04-12T15:53:28Z</time><name>PT5558</name></trkpt>
<trkpt lat="52.033731" lon="05.784558"><ele>39.6</ele><time>2022-04-12T15:53:29Z</time><name>PT5559</name></trkpt>
<trkpt lat="52.033720" lon="05.784560"><ele>39.5</ele><time>2022-04-12T15:53:30Z</time><name>PT5560</name></trkpt>
<trkpt lat="52.033710" lon="05.784559"><ele>39.5</ele><time>2022-04-12T15:53:31Z</time><name>PT5561</name></trkpt>
<trkpt lat="52.033698" lon="05.784559"><ele>39.5</ele><time>2022-04-12T15:53:32Z</time><name>PT5562</name></trkpt>
<trkpt lat="52.033692" lon="05.784562"><ele>39.5</ele><time>2022-04-12T15:53:33Z</time><name>PT5563</name></trkpt>
<trkpt lat="52.033683" lon="05.784563"><ele>39.5</ele><time>2022-04-12T15:53:34Z</time><name>PT5564</name></trkpt>
<trkpt lat="52.033671" lon="05.784571"><ele>39.3</ele><time>2022-04-12T15:53:35Z</time><name>PT5565</name></trkpt>
<trkpt lat="52.033660" lon="05.784569"><ele>39.3</ele><time>2022-04-12T15:53:36Z</time><name>PT5566</name></trkpt>
<trkpt lat="52.033652" lon="05.784575"><ele>39.1</ele><time>2022-04-12T15:53:37Z</time><name>PT5567</name></trkpt>
<trkpt lat="52.033640" lon="05.784583"><ele>39.1</ele><time>2022-04-12T15:53:38Z</time><name>PT5568</name></trkpt>
<trkpt lat="52.033630" lon="05.784589"><ele>39</ele><time>2022-04-12T15:53:39Z</time><name>PT5569</name></trkpt>
<trkpt lat="52.033621" lon="05.784595"><ele>39.1</ele><time>2022-04-12T15:53:40Z</time><name>PT5570</name></trkpt>
<trkpt lat="52.033613" lon="05.784596"><ele>39</ele><time>2022-04-12T15:53:41Z</time><name>PT5571</name></trkpt>
<trkpt lat="52.033603" lon="05.784595"><ele>39.1</ele><time>2022-04-12T15:53:42Z</time><name>PT5572</name></trkpt>
<trkpt lat="52.033593" lon="05.784599"><ele>39.4</ele><time>2022-04-12T15:53:43Z</time><name>PT5573</name></trkpt>
<trkpt lat="52.033584" lon="05.784603"><ele>39.5</ele><time>2022-04-12T15:53:44Z</time><name>PT5574</name></trkpt>
<trkpt lat="52.033573" lon="05.784607"><ele>39.4</ele><time>2022-04-12T15:53:45Z</time><name>PT5575</name></trkpt>
<trkpt lat="52.033564" lon="05.784610"><ele>39.5</ele><time>2022-04-12T15:53:46Z</time><name>PT5576</name></trkpt>
<trkpt lat="52.033554" lon="05.784609"><ele>39.4</ele><time>2022-04-12T15:53:47Z</time><name>PT5577</name></trkpt>
<trkpt lat="52.033543" lon="05.784610"><ele>39.5</ele><time>2022-04-12T15:53:48Z</time><name>PT5578</name></trkpt>
<trkpt lat="52.033531" lon="05.784612"><ele>39.5</ele><time>2022-04-12T15:53:49Z</time><name>PT5579</name></trkpt>
<trkpt lat="52.033521" lon="05.784615"><ele>39.6</ele><time>2022-04-12T15:53:50Z</time><name>PT5580</name></trkpt>
<trkpt lat="52.033511" lon="05.784619"><ele>39.7</ele><time>2022-04-12T15:53:51Z</time><name>PT5581</name></trkpt>
<trkpt lat="52.033498" lon="05.784623"><ele>39.7</ele><time>2022-04-12T15:53:52Z</time><name>PT5582</name></trkpt>
<trkpt lat="52.033485" lon="05.784626"><ele>39.7</ele><time>2022-04-12T15:53:53Z</time><name>PT5583</name></trkpt>
<trkpt lat="52.033476" lon="05.784630"><ele>39.6</ele><time>2022-04-12T15:53:54Z</time><name>PT5584</name></trkpt>
<trkpt lat="52.033462" lon="05.784635"><ele>39.6</ele><time>2022-04-12T15:53:55Z</time><name>PT5585</name></trkpt>
<trkpt lat="52.033449" lon="05.784641"><ele>39.6</ele><time>2022-04-12T15:53:56Z</time><name>PT5586</name></trkpt>
<trkpt lat="52.033437" lon="05.784646"><ele>39.7</ele><time>2022-04-12T15:53:57Z</time><name>PT5587</name></trkpt>
<trkpt lat="52.033426" lon="05.784645"><ele>39.7</ele><time>2022-04-12T15:53:58Z</time><name>PT5588</name></trkpt>
<trkpt lat="52.033415" lon="05.784644"><ele>39.7</ele><time>2022-04-12T15:53:59Z</time><name>PT5589</name></trkpt>
<trkpt lat="52.033404" lon="05.784647"><ele>39.5</ele><time>2022-04-12T15:54:00Z</time><name>PT5590</name></trkpt>
<trkpt lat="52.033391" lon="05.784652"><ele>39.2</ele><time>2022-04-12T15:54:01Z</time><name>PT5591</name></trkpt>
<trkpt lat="52.033379" lon="05.784654"><ele>39.1</ele><time>2022-04-12T15:54:02Z</time><name>PT5592</name></trkpt>
<trkpt lat="52.033370" lon="05.784655"><ele>39.2</ele><time>2022-04-12T15:54:03Z</time><name>PT5593</name></trkpt>
<trkpt lat="52.033359" lon="05.784660"><ele>39.3</ele><time>2022-04-12T15:54:04Z</time><name>PT5594</name></trkpt>
<trkpt lat="52.033348" lon="05.784665"><ele>39.3</ele><time>2022-04-12T15:54:05Z</time><name>PT5595</name></trkpt>
<trkpt lat="52.033339" lon="05.784671"><ele>39.5</ele><time>2022-04-12T15:54:06Z</time><name>PT5596</name></trkpt>
<trkpt lat="52.033329" lon="05.784676"><ele>39.3</ele><time>2022-04-12T15:54:07Z</time><name>PT5597</name></trkpt>
<trkpt lat="52.033319" lon="05.784677"><ele>39.3</ele><time>2022-04-12T15:54:08Z</time><name>PT5598</name></trkpt>
<trkpt lat="52.033307" lon="05.784683"><ele>39</ele><time>2022-04-12T15:54:09Z</time><name>PT5599</name></trkpt>
<trkpt lat="52.033297" lon="05.784685"><ele>39.3</ele><time>2022-04-12T15:54:10Z</time><name>PT5600</name></trkpt>
<trkpt lat="52.033287" lon="05.784683"><ele>39.2</ele><time>2022-04-12T15:54:11Z</time><name>PT5601</name></trkpt>
<trkpt lat="52.033275" lon="05.784689"><ele>39.3</ele><time>2022-04-12T15:54:12Z</time><name>PT5602</name></trkpt>
<trkpt lat="52.033262" lon="05.784692"><ele>39.4</ele><time>2022-04-12T15:54:13Z</time><name>PT5603</name></trkpt>
<trkpt lat="52.033252" lon="05.784698"><ele>39.3</ele><time>2022-04-12T15:54:14Z</time><name>PT5604</name></trkpt>
<trkpt lat="52.033242" lon="05.784701"><ele>39.2</ele><time>2022-04-12T15:54:15Z</time><name>PT5605</name></trkpt>
<trkpt lat="52.033229" lon="05.784702"><ele>39.4</ele><time>2022-04-12T15:54:16Z</time><name>PT5606</name></trkpt>
<trkpt lat="52.033217" lon="05.784702"><ele>39.4</ele><time>2022-04-12T15:54:17Z</time><name>PT5607</name></trkpt>
<trkpt lat="52.033205" lon="05.784707"><ele>39.5</ele><time>2022-04-12T15:54:18Z</time><name>PT5608</name></trkpt>
<trkpt lat="52.033195" lon="05.784706"><ele>39.7</ele><time>2022-04-12T15:54:19Z</time><name>PT5609</name></trkpt>
<trkpt lat="52.033186" lon="05.784704"><ele>39.7</ele><time>2022-04-12T15:54:20Z</time><name>PT5610</name></trkpt>
<trkpt lat="52.033176" lon="05.784706"><ele>39.6</ele><time>2022-04-12T15:54:21Z</time><name>PT5611</name></trkpt>
<trkpt lat="52.033167" lon="05.784707"><ele>39.6</ele><time>2022-04-12T15:54:22Z</time><name>PT5612</name></trkpt>
<trkpt lat="52.033157" lon="05.784708"><ele>39.5</ele><time>2022-04-12T15:54:23Z</time><name>PT5613</name></trkpt>
<trkpt lat="52.033147" lon="05.784708"><ele>39.5</ele><time>2022-04-12T15:54:24Z</time><name>PT5614</name></trkpt>
<trkpt lat="52.033137" lon="05.784711"><ele>39.5</ele><time>2022-04-12T15:54:25Z</time><name>PT5615</name></trkpt>
<trkpt lat="52.033128" lon="05.784717"><ele>39.5</ele><time>2022-04-12T15:54:26Z</time><name>PT5616</name></trkpt>
<trkpt lat="52.033116" lon="05.784721"><ele>39.5</ele><time>2022-04-12T15:54:27Z</time><name>PT5617</name></trkpt>
<trkpt lat="52.033106" lon="05.784723"><ele>39.5</ele><time>2022-04-12T15:54:28Z</time><name>PT5618</name></trkpt>
<trkpt lat="52.033096" lon="05.784724"><ele>39.4</ele><time>2022-04-12T15:54:29Z</time><name>PT5619</name></trkpt>
<trkpt lat="52.033087" lon="05.784728"><ele>39.4</ele><time>2022-04-12T15:54:30Z</time><name>PT5620</name></trkpt>
<trkpt lat="52.033078" lon="05.784727"><ele>39.5</ele><time>2022-04-12T15:54:31Z</time><name>PT5621</name></trkpt>
<trkpt lat="52.033067" lon="05.784728"><ele>39.5</ele><time>2022-04-12T15:54:32Z</time><name>PT5622</name></trkpt>
<trkpt lat="52.033056" lon="05.784730"><ele>39.5</ele><time>2022-04-12T15:54:33Z</time><name>PT5623</name></trkpt>
<trkpt lat="52.033047" lon="05.784730"><ele>39.6</ele><time>2022-04-12T15:54:34Z</time><name>PT5624</name></trkpt>
<trkpt lat="52.033036" lon="05.784734"><ele>39.6</ele><time>2022-04-12T15:54:35Z</time><name>PT5625</name></trkpt>
<trkpt lat="52.033026" lon="05.784738"><ele>39.5</ele><time>2022-04-12T15:54:36Z</time><name>PT5626</name></trkpt>
<trkpt lat="52.033016" lon="05.784742"><ele>39.5</ele><time>2022-04-12T15:54:37Z</time><name>PT5627</name></trkpt>
<trkpt lat="52.033007" lon="05.784744"><ele>39.5</ele><time>2022-04-12T15:54:38Z</time><name>PT5628</name></trkpt>
<trkpt lat="52.032997" lon="05.784748"><ele>39.3</ele><time>2022-04-12T15:54:39Z</time><name>PT5629</name></trkpt>
<trkpt lat="52.032986" lon="05.784750"><ele>39.4</ele><time>2022-04-12T15:54:40Z</time><name>PT5630</name></trkpt>
<trkpt lat="52.032974" lon="05.784752"><ele>39.5</ele><time>2022-04-12T15:54:41Z</time><name>PT5631</name></trkpt>
<trkpt lat="52.032963" lon="05.784756"><ele>39.4</ele><time>2022-04-12T15:54:42Z</time><name>PT5632</name></trkpt>
<trkpt lat="52.032954" lon="05.784755"><ele>39.5</ele><time>2022-04-12T15:54:43Z</time><name>PT5633</name></trkpt>
<trkpt lat="52.032944" lon="05.784756"><ele>39.5</ele><time>2022-04-12T15:54:44Z</time><name>PT5634</name></trkpt>
<trkpt lat="52.032936" lon="05.784758"><ele>39.5</ele><time>2022-04-12T15:54:45Z</time><name>PT5635</name></trkpt>
<trkpt lat="52.032930" lon="05.784761"><ele>39.5</ele><time>2022-04-12T15:54:46Z</time><name>PT5636</name></trkpt>
<trkpt lat="52.032926" lon="05.784757"><ele>39.5</ele><time>2022-04-12T15:54:47Z</time><name>PT5637</name></trkpt>
<trkpt lat="52.032919" lon="05.784760"><ele>39.4</ele><time>2022-04-12T15:54:48Z</time><name>PT5638</name></trkpt>
<trkpt lat="52.032909" lon="05.784766"><ele>39.5</ele><time>2022-04-12T15:54:49Z</time><name>PT5639</name></trkpt>
<trkpt lat="52.032900" lon="05.784774"><ele>39.6</ele><time>2022-04-12T15:54:50Z</time><name>PT5640</name></trkpt>
<trkpt lat="52.032888" lon="05.784780"><ele>39.6</ele><time>2022-04-12T15:54:51Z</time><name>PT5641</name></trkpt>
<trkpt lat="52.032877" lon="05.784782"><ele>39.6</ele><time>2022-04-12T15:54:52Z</time><name>PT5642</name></trkpt>
<trkpt lat="52.032865" lon="05.784784"><ele>39.6</ele><time>2022-04-12T15:54:53Z</time><name>PT5643</name></trkpt>
<trkpt lat="52.032853" lon="05.784789"><ele>39.5</ele><time>2022-04-12T15:54:54Z</time><name>PT5644</name></trkpt>
<trkpt lat="52.032843" lon="05.784796"><ele>39.6</ele><time>2022-04-12T15:54:55Z</time><name>PT5645</name></trkpt>
<trkpt lat="52.032831" lon="05.784799"><ele>39.6</ele><time>2022-04-12T15:54:56Z</time><name>PT5646</name></trkpt>
<trkpt lat="52.032821" lon="05.784803"><ele>39.8</ele><time>2022-04-12T15:54:57Z</time><name>PT5647</name></trkpt>
<trkpt lat="52.032809" lon="05.784805"><ele>40</ele><time>2022-04-12T15:54:58Z</time><name>PT5648</name></trkpt>
<trkpt lat="52.032801" lon="05.784808"><ele>40</ele><time>2022-04-12T15:54:59Z</time><name>PT5649</name></trkpt>
<trkpt lat="52.032793" lon="05.784813"><ele>40.1</ele><time>2022-04-12T15:55:00Z</time><name>PT5650</name></trkpt>
<trkpt lat="52.032785" lon="05.784819"><ele>40.2</ele><time>2022-04-12T15:55:01Z</time><name>PT5651</name></trkpt>
<trkpt lat="52.032774" lon="05.784821"><ele>40.2</ele><time>2022-04-12T15:55:02Z</time><name>PT5652</name></trkpt>
<trkpt lat="52.032762" lon="05.784823"><ele>40.4</ele><time>2022-04-12T15:55:03Z</time><name>PT5653</name></trkpt>
<trkpt lat="52.032748" lon="05.784822"><ele>40.5</ele><time>2022-04-12T15:55:04Z</time><name>PT5654</name></trkpt>
<trkpt lat="52.032737" lon="05.784823"><ele>40.4</ele><time>2022-04-12T15:55:05Z</time><name>PT5655</name></trkpt>
<trkpt lat="52.032725" lon="05.784822"><ele>40.2</ele><time>2022-04-12T15:55:06Z</time><name>PT5656</name></trkpt>
<trkpt lat="52.032713" lon="05.784818"><ele>40.1</ele><time>2022-04-12T15:55:07Z</time><name>PT5657</name></trkpt>
<trkpt lat="52.032702" lon="05.784818"><ele>40.1</ele><time>2022-04-12T15:55:08Z</time><name>PT5658</name></trkpt>
<trkpt lat="52.032700" lon="05.784830"><ele>40.2</ele><time>2022-04-12T15:55:09Z</time><name>PT5659</name></trkpt>
<trkpt lat="52.032689" lon="05.784832"><ele>40.2</ele><time>2022-04-12T15:55:10Z</time><name>PT5660</name></trkpt>
<trkpt lat="52.032675" lon="05.784830"><ele>40.5</ele><time>2022-04-12T15:55:11Z</time><name>PT5661</name></trkpt>
<trkpt lat="52.032662" lon="05.784834"><ele>40.6</ele><time>2022-04-12T15:55:12Z</time><name>PT5662</name></trkpt>
<trkpt lat="52.032649" lon="05.784834"><ele>40.4</ele><time>2022-04-12T15:55:13Z</time><name>PT5663</name></trkpt>
<trkpt lat="52.032637" lon="05.784838"><ele>40.2</ele><time>2022-04-12T15:55:14Z</time><name>PT5664</name></trkpt>
<trkpt lat="52.032623" lon="05.784840"><ele>40.1</ele><time>2022-04-12T15:55:15Z</time><name>PT5665</name></trkpt>
<trkpt lat="52.032612" lon="05.784845"><ele>40.1</ele><time>2022-04-12T15:55:16Z</time><name>PT5666</name></trkpt>
<trkpt lat="52.032601" lon="05.784844"><ele>40</ele><time>2022-04-12T15:55:17Z</time><name>PT5667</name></trkpt>
<trkpt lat="52.032589" lon="05.784847"><ele>40</ele><time>2022-04-12T15:55:18Z</time><name>PT5668</name></trkpt>
<trkpt lat="52.032576" lon="05.784851"><ele>40.1</ele><time>2022-04-12T15:55:19Z</time><name>PT5669</name></trkpt>
<trkpt lat="52.032563" lon="05.784856"><ele>40</ele><time>2022-04-12T15:55:20Z</time><name>PT5670</name></trkpt>
<trkpt lat="52.032556" lon="05.784863"><ele>40.1</ele><time>2022-04-12T15:55:21Z</time><name>PT5671</name></trkpt>
<trkpt lat="52.032546" lon="05.784869"><ele>40</ele><time>2022-04-12T15:55:22Z</time><name>PT5672</name></trkpt>
<trkpt lat="52.032536" lon="05.784876"><ele>40</ele><time>2022-04-12T15:55:23Z</time><name>PT5673</name></trkpt>
<trkpt lat="52.032528" lon="05.784878"><ele>40</ele><time>2022-04-12T15:55:24Z</time><name>PT5674</name></trkpt>
<trkpt lat="52.032519" lon="05.784879"><ele>39.9</ele><time>2022-04-12T15:55:25Z</time><name>PT5675</name></trkpt>
<trkpt lat="52.032511" lon="05.784877"><ele>39.7</ele><time>2022-04-12T15:55:26Z</time><name>PT5676</name></trkpt>
<trkpt lat="52.032504" lon="05.784877"><ele>39.8</ele><time>2022-04-12T15:55:27Z</time><name>PT5677</name></trkpt>
<trkpt lat="52.032494" lon="05.784880"><ele>39.8</ele><time>2022-04-12T15:55:28Z</time><name>PT5678</name></trkpt>
<trkpt lat="52.032488" lon="05.784878"><ele>39.9</ele><time>2022-04-12T15:55:29Z</time><name>PT5679</name></trkpt>
<trkpt lat="52.032482" lon="05.784878"><ele>40</ele><time>2022-04-12T15:55:30Z</time><name>PT5680</name></trkpt>
<trkpt lat="52.032471" lon="05.784881"><ele>40.1</ele><time>2022-04-12T15:55:31Z</time><name>PT5681</name></trkpt>
<trkpt lat="52.032461" lon="05.784884"><ele>40.1</ele><time>2022-04-12T15:55:32Z</time><name>PT5682</name></trkpt>
<trkpt lat="52.032451" lon="05.784882"><ele>40</ele><time>2022-04-12T15:55:33Z</time><name>PT5683</name></trkpt>
<trkpt lat="52.032443" lon="05.784884"><ele>39.9</ele><time>2022-04-12T15:55:34Z</time><name>PT5684</name></trkpt>
<trkpt lat="52.032438" lon="05.784892"><ele>39.9</ele><time>2022-04-12T15:55:36Z</time><name>PT5685</name></trkpt>
<trkpt lat="52.032429" lon="05.784893"><ele>39.9</ele><time>2022-04-12T15:55:36Z</time><name>PT5686</name></trkpt>
<trkpt lat="52.032418" lon="05.784894"><ele>40</ele><time>2022-04-12T15:55:37Z</time><name>PT5687</name></trkpt>
<trkpt lat="52.032410" lon="05.784895"><ele>40</ele><time>2022-04-12T15:55:38Z</time><name>PT5688</name></trkpt>
<trkpt lat="52.032404" lon="05.784897"><ele>40.1</ele><time>2022-04-12T15:55:39Z</time><name>PT5689</name></trkpt>
<trkpt lat="52.032395" lon="05.784898"><ele>40</ele><time>2022-04-12T15:55:40Z</time><name>PT5690</name></trkpt>
<trkpt lat="52.032386" lon="05.784901"><ele>40.1</ele><time>2022-04-12T15:55:41Z</time><name>PT5691</name></trkpt>
<trkpt lat="52.032371" lon="05.784901"><ele>40</ele><time>2022-04-12T15:55:42Z</time><name>PT5692</name></trkpt>
<trkpt lat="52.032361" lon="05.784904"><ele>40</ele><time>2022-04-12T15:55:43Z</time><name>PT5693</name></trkpt>
<trkpt lat="52.032352" lon="05.784904"><ele>40</ele><time>2022-04-12T15:55:44Z</time><name>PT5694</name></trkpt>
<trkpt lat="52.032345" lon="05.784905"><ele>39.9</ele><time>2022-04-12T15:55:45Z</time><name>PT5695</name></trkpt>
<trkpt lat="52.032336" lon="05.784905"><ele>39.9</ele><time>2022-04-12T15:55:46Z</time><name>PT5696</name></trkpt>
<trkpt lat="52.032328" lon="05.784909"><ele>39.8</ele><time>2022-04-12T15:55:47Z</time><name>PT5697</name></trkpt>
<trkpt lat="52.032320" lon="05.784916"><ele>39.9</ele><time>2022-04-12T15:55:48Z</time><name>PT5698</name></trkpt>
<trkpt lat="52.032308" lon="05.784916"><ele>39.8</ele><time>2022-04-12T15:55:49Z</time><name>PT5699</name></trkpt>
<trkpt lat="52.032296" lon="05.784916"><ele>40</ele><time>2022-04-12T15:55:50Z</time><name>PT5700</name></trkpt>
<trkpt lat="52.032287" lon="05.784918"><ele>40</ele><time>2022-04-12T15:55:51Z</time><name>PT5701</name></trkpt>
<trkpt lat="52.032280" lon="05.784919"><ele>40</ele><time>2022-04-12T15:55:52Z</time><name>PT5702</name></trkpt>
<trkpt lat="52.032275" lon="05.784921"><ele>40</ele><time>2022-04-12T15:55:53Z</time><name>PT5703</name></trkpt>
<trkpt lat="52.032268" lon="05.784921"><ele>40</ele><time>2022-04-12T15:55:54Z</time><name>PT5704</name></trkpt>
<trkpt lat="52.032261" lon="05.784917"><ele>39.8</ele><time>2022-04-12T15:55:58Z</time><name>PT5705</name></trkpt>
<trkpt lat="52.032254" lon="05.784914"><ele>39.8</ele><time>2022-04-12T15:55:59Z</time><name>PT5706</name></trkpt>
<trkpt lat="52.032243" lon="05.784920"><ele>39.7</ele><time>2022-04-12T15:56:00Z</time><name>PT5707</name></trkpt>
<trkpt lat="52.032231" lon="05.784923"><ele>39.6</ele><time>2022-04-12T15:56:01Z</time><name>PT5708</name></trkpt>
<trkpt lat="52.032220" lon="05.784923"><ele>39.6</ele><time>2022-04-12T15:56:02Z</time><name>PT5709</name></trkpt>
<trkpt lat="52.032210" lon="05.784929"><ele>39.7</ele><time>2022-04-12T15:56:03Z</time><name>PT5710</name></trkpt>
<trkpt lat="52.032194" lon="05.784929"><ele>39.6</ele><time>2022-04-12T15:56:04Z</time><name>PT5711</name></trkpt>
<trkpt lat="52.032178" lon="05.784931"><ele>39.5</ele><time>2022-04-12T15:56:05Z</time><name>PT5712</name></trkpt>
<trkpt lat="52.032167" lon="05.784933"><ele>39.5</ele><time>2022-04-12T15:56:06Z</time><name>PT5713</name></trkpt>
<trkpt lat="52.032158" lon="05.784943"><ele>39.6</ele><time>2022-04-12T15:56:07Z</time><name>PT5714</name></trkpt>
<trkpt lat="52.032152" lon="05.784949"><ele>39.5</ele><time>2022-04-12T15:56:08Z</time><name>PT5715</name></trkpt>
<trkpt lat="52.032139" lon="05.784958"><ele>39.5</ele><time>2022-04-12T15:56:09Z</time><name>PT5716</name></trkpt>
<trkpt lat="52.032125" lon="05.784963"><ele>39.7</ele><time>2022-04-12T15:56:10Z</time><name>PT5717</name></trkpt>
<trkpt lat="52.032117" lon="05.784973"><ele>39.7</ele><time>2022-04-12T15:56:11Z</time><name>PT5718</name></trkpt>
<trkpt lat="52.032107" lon="05.784976"><ele>39.5</ele><time>2022-04-12T15:56:12Z</time><name>PT5719</name></trkpt>
<trkpt lat="52.032100" lon="05.784984"><ele>39.5</ele><time>2022-04-12T15:56:13Z</time><name>PT5720</name></trkpt>
<trkpt lat="52.032088" lon="05.784994"><ele>39.4</ele><time>2022-04-12T15:56:14Z</time><name>PT5721</name></trkpt>
<trkpt lat="52.032076" lon="05.784999"><ele>39.1</ele><time>2022-04-12T15:56:15Z</time><name>PT5722</name></trkpt>
<trkpt lat="52.032067" lon="05.785001"><ele>39.1</ele><time>2022-04-12T15:56:16Z</time><name>PT5723</name></trkpt>
<trkpt lat="52.032060" lon="05.784996"><ele>39.1</ele><time>2022-04-12T15:56:17Z</time><name>PT5724</name></trkpt>
<trkpt lat="52.032051" lon="05.784992"><ele>39</ele><time>2022-04-12T15:56:18Z</time><name>PT5725</name></trkpt>
<trkpt lat="52.032041" lon="05.784998"><ele>39</ele><time>2022-04-12T15:56:19Z</time><name>PT5726</name></trkpt>
<trkpt lat="52.032032" lon="05.784998"><ele>38.8</ele><time>2022-04-12T15:56:20Z</time><name>PT5727</name></trkpt>
<trkpt lat="52.032024" lon="05.785001"><ele>38.6</ele><time>2022-04-12T15:56:21Z</time><name>PT5728</name></trkpt>
<trkpt lat="52.032016" lon="05.785001"><ele>38.6</ele><time>2022-04-12T15:56:22Z</time><name>PT5729</name></trkpt>
<trkpt lat="52.032006" lon="05.785002"><ele>38.7</ele><time>2022-04-12T15:56:23Z</time><name>PT5730</name></trkpt>
<trkpt lat="52.031993" lon="05.785007"><ele>38.8</ele><time>2022-04-12T15:56:24Z</time><name>PT5731</name></trkpt>
<trkpt lat="52.031984" lon="05.785009"><ele>39</ele><time>2022-04-12T15:56:25Z</time><name>PT5732</name></trkpt>
<trkpt lat="52.031973" lon="05.785007"><ele>39</ele><time>2022-04-12T15:56:26Z</time><name>PT5733</name></trkpt>
<trkpt lat="52.031961" lon="05.785005"><ele>39</ele><time>2022-04-12T15:56:27Z</time><name>PT5734</name></trkpt>
<trkpt lat="52.031952" lon="05.785009"><ele>39</ele><time>2022-04-12T15:56:28Z</time><name>PT5735</name></trkpt>
<trkpt lat="52.031942" lon="05.785012"><ele>39.1</ele><time>2022-04-12T15:56:30Z</time><name>PT5736</name></trkpt>
<trkpt lat="52.031934" lon="05.785016"><ele>39.2</ele><time>2022-04-12T15:56:30Z</time><name>PT5737</name></trkpt>
<trkpt lat="52.031926" lon="05.785017"><ele>39.3</ele><time>2022-04-12T15:56:31Z</time><name>PT5738</name></trkpt>
<trkpt lat="52.031920" lon="05.785019"><ele>39.4</ele><time>2022-04-12T15:56:32Z</time><name>PT5739</name></trkpt>
<trkpt lat="52.031909" lon="05.785025"><ele>39.5</ele><time>2022-04-12T15:56:33Z</time><name>PT5740</name></trkpt>
<trkpt lat="52.031902" lon="05.785028"><ele>39.7</ele><time>2022-04-12T15:56:34Z</time><name>PT5741</name></trkpt>
<trkpt lat="52.031894" lon="05.785026"><ele>39.8</ele><time>2022-04-12T15:56:35Z</time><name>PT5742</name></trkpt>
<trkpt lat="52.031886" lon="05.785025"><ele>39.8</ele><time>2022-04-12T15:56:36Z</time><name>PT5743</name></trkpt>
<trkpt lat="52.031876" lon="05.785026"><ele>39.8</ele><time>2022-04-12T15:56:37Z</time><name>PT5744</name></trkpt>
<trkpt lat="52.031865" lon="05.785026"><ele>39.7</ele><time>2022-04-12T15:56:38Z</time><name>PT5745</name></trkpt>
<trkpt lat="52.031856" lon="05.785027"><ele>39.6</ele><time>2022-04-12T15:56:39Z</time><name>PT5746</name></trkpt>
<trkpt lat="52.031844" lon="05.785023"><ele>39.7</ele><time>2022-04-12T15:56:40Z</time><name>PT5747</name></trkpt>
<trkpt lat="52.031835" lon="05.785026"><ele>39.7</ele><time>2022-04-12T15:56:41Z</time><name>PT5748</name></trkpt>
<trkpt lat="52.031826" lon="05.785027"><ele>39.8</ele><time>2022-04-12T15:56:42Z</time><name>PT5749</name></trkpt>
<trkpt lat="52.031815" lon="05.785031"><ele>39.8</ele><time>2022-04-12T15:56:43Z</time><name>PT5750</name></trkpt>
<trkpt lat="52.031804" lon="05.785031"><ele>39.9</ele><time>2022-04-12T15:56:44Z</time><name>PT5751</name></trkpt>
<trkpt lat="52.031791" lon="05.785031"><ele>39.8</ele><time>2022-04-12T15:56:45Z</time><name>PT5752</name></trkpt>
<trkpt lat="52.031776" lon="05.785038"><ele>39.6</ele><time>2022-04-12T15:56:46Z</time><name>PT5753</name></trkpt>
<trkpt lat="52.031760" lon="05.785039"><ele>39.8</ele><time>2022-04-12T15:56:47Z</time><name>PT5754</name></trkpt>
<trkpt lat="52.031750" lon="05.785036"><ele>39.8</ele><time>2022-04-12T15:56:48Z</time><name>PT5755</name></trkpt>
<trkpt lat="52.031736" lon="05.785036"><ele>39.8</ele><time>2022-04-12T15:56:49Z</time><name>PT5756</name></trkpt>
<trkpt lat="52.031722" lon="05.785035"><ele>39.7</ele><time>2022-04-12T15:56:50Z</time><name>PT5757</name></trkpt>
<trkpt lat="52.031711" lon="05.785038"><ele>39.8</ele><time>2022-04-12T15:56:51Z</time><name>PT5758</name></trkpt>
<trkpt lat="52.031699" lon="05.785040"><ele>39.6</ele><time>2022-04-12T15:56:52Z</time><name>PT5759</name></trkpt>
<trkpt lat="52.031690" lon="05.785046"><ele>39.6</ele><time>2022-04-12T15:56:53Z</time><name>PT5760</name></trkpt>
<trkpt lat="52.031678" lon="05.785050"><ele>39.5</ele><time>2022-04-12T15:56:54Z</time><name>PT5761</name></trkpt>
<trkpt lat="52.031670" lon="05.785051"><ele>39.5</ele><time>2022-04-12T15:56:55Z</time><name>PT5762</name></trkpt>
<trkpt lat="52.031661" lon="05.785052"><ele>39.4</ele><time>2022-04-12T15:56:56Z</time><name>PT5763</name></trkpt>
<trkpt lat="52.031648" lon="05.785055"><ele>39.5</ele><time>2022-04-12T15:56:57Z</time><name>PT5764</name></trkpt>
<trkpt lat="52.031638" lon="05.785057"><ele>39.6</ele><time>2022-04-12T15:56:58Z</time><name>PT5765</name></trkpt>
<trkpt lat="52.031632" lon="05.785059"><ele>39.5</ele><time>2022-04-12T15:56:59Z</time><name>PT5766</name></trkpt>
<trkpt lat="52.031623" lon="05.785060"><ele>39.4</ele><time>2022-04-12T15:57:00Z</time><name>PT5767</name></trkpt>
<trkpt lat="52.031612" lon="05.785063"><ele>39.5</ele><time>2022-04-12T15:57:01Z</time><name>PT5768</name></trkpt>
<trkpt lat="52.031602" lon="05.785056"><ele>39.5</ele><time>2022-04-12T15:57:02Z</time><name>PT5769</name></trkpt>
<trkpt lat="52.031596" lon="05.785058"><ele>39.5</ele><time>2022-04-12T15:57:03Z</time><name>PT5770</name></trkpt>
<trkpt lat="52.031589" lon="05.785058"><ele>39.6</ele><time>2022-04-12T15:57:04Z</time><name>PT5771</name></trkpt>
<trkpt lat="52.031582" lon="05.785055"><ele>39.8</ele><time>2022-04-12T15:57:05Z</time><name>PT5772</name></trkpt>
<trkpt lat="52.031573" lon="05.785059"><ele>39.7</ele><time>2022-04-12T15:57:06Z</time><name>PT5773</name></trkpt>
<trkpt lat="52.031565" lon="05.785062"><ele>39.7</ele><time>2022-04-12T15:57:07Z</time><name>PT5774</name></trkpt>
<trkpt lat="52.031562" lon="05.785062"><ele>39.7</ele><time>2022-04-12T15:57:08Z</time><name>PT5775</name></trkpt></trkseg></trk></gpx>